<?xml version="1.0" encoding="UTF-8" standalone="no" ?>
<gpx xmlns="http://www.topografix.com/GPX/1/1" xmlns:xsi="http://www.w3.org/2001/XMLSchema-instance" xsi:schemaLocation="http://www.topografix.com/GPX/1/1 http://www.topografix.com/GPX/1/1/gpx.xsd" version="1.1" creator="VisuGPX - https://www.visugpx.com">
  <metadata>
    <name>Hautacam - lac d'Isaby SC</name>
    <desc><![CDATA[Au départ d'Argeles]]></desc>
  </metadata>
  <trk>
    <name><![CDATA[Hautacam - lac d'Isaby]]></name>
    <extensions>
      <line xmlns="http://www.topografix.com/GPX/gpx_style/0/2">
        <color>0000FF</color>
        <width>4</width>
      </line>
    </extensions>
    <trkseg>
      <trkpt lat="43.01281" lon="-0.09823">
        <ele>425.2</ele>
        <time>2024-08-15T06:17:00Z</time>
      </trkpt>
      <trkpt lat="43.01302" lon="-0.0985">
        <ele>427.9</ele>
      </trkpt>
      <trkpt lat="43.01325" lon="-0.09832">
        <ele>424.2</ele>
      </trkpt>
      <trkpt lat="43.01318" lon="-0.09806">
        <ele>423</ele>
      </trkpt>
      <trkpt lat="43.01267" lon="-0.09799">
        <ele>423.8</ele>
      </trkpt>
      <trkpt lat="43.01228" lon="-0.09786">
        <ele>423.3</ele>
      </trkpt>
      <trkpt lat="43.01119" lon="-0.09791">
        <ele>426.3</ele>
      </trkpt>
      <trkpt lat="43.01046" lon="-0.09774">
        <ele>426.4</ele>
      </trkpt>
      <trkpt lat="43.00961" lon="-0.09725">
        <ele>428.4</ele>
      </trkpt>
      <trkpt lat="43.00894" lon="-0.09647">
        <ele>429.4</ele>
      </trkpt>
      <trkpt lat="43.00666" lon="-0.0937">
        <ele>430</ele>
      </trkpt>
      <trkpt lat="43.00638" lon="-0.09323">
        <ele>430</ele>
      </trkpt>
      <trkpt lat="43.00671" lon="-0.09264">
        <ele>428.9</ele>
      </trkpt>
      <trkpt lat="43.00651" lon="-0.09165">
        <ele>428</ele>
      </trkpt>
      <trkpt lat="43.00624" lon="-0.0902">
        <ele>427.4</ele>
      </trkpt>
      <trkpt lat="43.00561" lon="-0.08806">
        <ele>425.8</ele>
      </trkpt>
      <trkpt lat="43.00544" lon="-0.08554">
        <ele>422</ele>
      </trkpt>
      <trkpt lat="43.00509" lon="-0.08378">
        <ele>419.9</ele>
      </trkpt>
      <trkpt lat="43.00504" lon="-0.08321">
        <ele>420.9</ele>
      </trkpt>
      <trkpt lat="43.00509" lon="-0.08259">
        <ele>422.1</ele>
      </trkpt>
      <trkpt lat="43.00526" lon="-0.08239">
        <ele>422.6</ele>
      </trkpt>
      <trkpt lat="43.00542" lon="-0.08239">
        <ele>422.1</ele>
      </trkpt>
      <trkpt lat="43.00541" lon="-0.08098">
        <ele>424.3</ele>
      </trkpt>
      <trkpt lat="43.00515" lon="-0.08057">
        <ele>423.7</ele>
        <time>2024-08-15T06:17:01Z</time>
      </trkpt>
      <trkpt lat="43.00504" lon="-0.08036">
        <ele>424.8</ele>
        <time>2024-08-15T06:17:04Z</time>
      </trkpt>
      <trkpt lat="43.00493" lon="-0.08023">
        <ele>424.4</ele>
        <time>2024-08-15T06:17:05Z</time>
      </trkpt>
      <trkpt lat="43.00486" lon="-0.08007">
        <ele>425.5</ele>
        <time>2024-08-15T06:17:06Z</time>
      </trkpt>
      <trkpt lat="43.00466" lon="-0.07974">
        <ele>423.8</ele>
        <time>2024-08-15T06:17:07Z</time>
      </trkpt>
      <trkpt lat="43.00455" lon="-0.07953">
        <ele>426.5</ele>
        <time>2024-08-15T06:17:08Z</time>
      </trkpt>
      <trkpt lat="43.00425" lon="-0.07925">
        <ele>425.8</ele>
        <time>2024-08-15T06:17:09Z</time>
      </trkpt>
      <trkpt lat="43.00413" lon="-0.07916">
        <ele>426</ele>
        <time>2024-08-15T06:17:10Z</time>
      </trkpt>
      <trkpt lat="43.004" lon="-0.079">
        <ele>427.5</ele>
        <time>2024-08-15T06:17:11Z</time>
      </trkpt>
      <trkpt lat="43.00392" lon="-0.07889">
        <ele>427</ele>
        <time>2024-08-15T06:17:12Z</time>
      </trkpt>
      <trkpt lat="43.00384" lon="-0.07884">
        <ele>433.8</ele>
        <time>2024-08-15T06:17:13Z</time>
      </trkpt>
      <trkpt lat="43.00383" lon="-0.07881">
        <ele>434</ele>
        <time>2024-08-15T06:17:14Z</time>
      </trkpt>
      <trkpt lat="43.00381" lon="-0.07878">
        <ele>434.2</ele>
        <time>2024-08-15T06:17:15Z</time>
      </trkpt>
      <trkpt lat="43.0038" lon="-0.07874">
        <ele>434.6</ele>
        <time>2024-08-15T06:17:16Z</time>
      </trkpt>
      <trkpt lat="43.00379" lon="-0.07871">
        <ele>434.8</ele>
        <time>2024-08-15T06:17:17Z</time>
      </trkpt>
      <trkpt lat="43.00378" lon="-0.07868">
        <ele>435</ele>
        <time>2024-08-15T06:17:18Z</time>
      </trkpt>
      <trkpt lat="43.00377" lon="-0.07865">
        <ele>435.2</ele>
        <time>2024-08-15T06:17:19Z</time>
      </trkpt>
      <trkpt lat="43.00375" lon="-0.07862">
        <ele>435.4</ele>
        <time>2024-08-15T06:17:20Z</time>
      </trkpt>
      <trkpt lat="43.00374" lon="-0.07859">
        <ele>435.8</ele>
        <time>2024-08-15T06:17:21Z</time>
      </trkpt>
      <trkpt lat="43.00372" lon="-0.07854">
        <ele>435.8</ele>
        <time>2024-08-15T06:17:22Z</time>
      </trkpt>
      <trkpt lat="43.00371" lon="-0.07851">
        <ele>436.2</ele>
        <time>2024-08-15T06:17:23Z</time>
      </trkpt>
      <trkpt lat="43.00369" lon="-0.07847">
        <ele>436.4</ele>
        <time>2024-08-15T06:17:24Z</time>
      </trkpt>
      <trkpt lat="43.00368" lon="-0.07843">
        <ele>436.6</ele>
        <time>2024-08-15T06:17:25Z</time>
      </trkpt>
      <trkpt lat="43.00366" lon="-0.07839">
        <ele>436.6</ele>
        <time>2024-08-15T06:17:26Z</time>
      </trkpt>
      <trkpt lat="43.00365" lon="-0.07835">
        <ele>436.8</ele>
        <time>2024-08-15T06:17:27Z</time>
      </trkpt>
      <trkpt lat="43.00363" lon="-0.0783">
        <ele>436.8</ele>
        <time>2024-08-15T06:17:28Z</time>
      </trkpt>
      <trkpt lat="43.00362" lon="-0.07826">
        <ele>437</ele>
        <time>2024-08-15T06:17:29Z</time>
      </trkpt>
      <trkpt lat="43.00361" lon="-0.07822">
        <ele>437.4</ele>
        <time>2024-08-15T06:17:30Z</time>
      </trkpt>
      <trkpt lat="43.0036" lon="-0.07818">
        <ele>437.4</ele>
        <time>2024-08-15T06:17:31Z</time>
      </trkpt>
      <trkpt lat="43.00359" lon="-0.07814">
        <ele>437.6</ele>
        <time>2024-08-15T06:17:32Z</time>
      </trkpt>
      <trkpt lat="43.00358" lon="-0.07809">
        <ele>437.6</ele>
        <time>2024-08-15T06:17:33Z</time>
      </trkpt>
      <trkpt lat="43.00357" lon="-0.07806">
        <ele>437.6</ele>
        <time>2024-08-15T06:17:34Z</time>
      </trkpt>
      <trkpt lat="43.00356" lon="-0.07802">
        <ele>437.8</ele>
        <time>2024-08-15T06:17:35Z</time>
      </trkpt>
      <trkpt lat="43.00355" lon="-0.07799">
        <ele>437.8</ele>
        <time>2024-08-15T06:17:36Z</time>
      </trkpt>
      <trkpt lat="43.00355" lon="-0.07795">
        <ele>437.8</ele>
        <time>2024-08-15T06:17:37Z</time>
      </trkpt>
      <trkpt lat="43.00354" lon="-0.0779">
        <ele>438</ele>
        <time>2024-08-15T06:17:38Z</time>
      </trkpt>
      <trkpt lat="43.00354" lon="-0.07786">
        <ele>438.2</ele>
        <time>2024-08-15T06:17:39Z</time>
      </trkpt>
      <trkpt lat="43.00353" lon="-0.07782">
        <ele>438.2</ele>
        <time>2024-08-15T06:17:40Z</time>
      </trkpt>
      <trkpt lat="43.00352" lon="-0.07778">
        <ele>438.4</ele>
        <time>2024-08-15T06:17:41Z</time>
      </trkpt>
      <trkpt lat="43.00352" lon="-0.07774">
        <ele>438.6</ele>
        <time>2024-08-15T06:17:42Z</time>
      </trkpt>
      <trkpt lat="43.0035" lon="-0.07768">
        <ele>438.8</ele>
        <time>2024-08-15T06:17:43Z</time>
      </trkpt>
      <trkpt lat="43.00349" lon="-0.07765">
        <ele>438.8</ele>
        <time>2024-08-15T06:17:44Z</time>
      </trkpt>
      <trkpt lat="43.00349" lon="-0.0776">
        <ele>439.2</ele>
        <time>2024-08-15T06:17:45Z</time>
      </trkpt>
      <trkpt lat="43.00348" lon="-0.07756">
        <ele>439.2</ele>
        <time>2024-08-15T06:17:46Z</time>
      </trkpt>
      <trkpt lat="43.00347" lon="-0.07752">
        <ele>439.4</ele>
        <time>2024-08-15T06:17:47Z</time>
      </trkpt>
      <trkpt lat="43.00346" lon="-0.07747">
        <ele>439.4</ele>
        <time>2024-08-15T06:17:48Z</time>
      </trkpt>
      <trkpt lat="43.00345" lon="-0.07744">
        <ele>439.6</ele>
        <time>2024-08-15T06:17:49Z</time>
      </trkpt>
      <trkpt lat="43.00344" lon="-0.07741">
        <ele>439.6</ele>
        <time>2024-08-15T06:17:50Z</time>
      </trkpt>
      <trkpt lat="43.00342" lon="-0.07739">
        <ele>439.8</ele>
        <time>2024-08-15T06:17:51Z</time>
      </trkpt>
      <trkpt lat="43.00341" lon="-0.07736">
        <ele>439.8</ele>
        <time>2024-08-15T06:17:52Z</time>
      </trkpt>
      <trkpt lat="43.00339" lon="-0.07733">
        <ele>439.8</ele>
        <time>2024-08-15T06:17:53Z</time>
      </trkpt>
      <trkpt lat="43.00337" lon="-0.0773">
        <ele>440</ele>
        <time>2024-08-15T06:17:54Z</time>
      </trkpt>
      <trkpt lat="43.00336" lon="-0.07727">
        <ele>440</ele>
        <time>2024-08-15T06:17:55Z</time>
      </trkpt>
      <trkpt lat="43.00333" lon="-0.07724">
        <ele>440.2</ele>
        <time>2024-08-15T06:17:56Z</time>
      </trkpt>
      <trkpt lat="43.00331" lon="-0.0772">
        <ele>440.2</ele>
        <time>2024-08-15T06:17:57Z</time>
      </trkpt>
      <trkpt lat="43.00329" lon="-0.07716">
        <ele>440.4</ele>
        <time>2024-08-15T06:17:58Z</time>
      </trkpt>
      <trkpt lat="43.00328" lon="-0.07712">
        <ele>440.6</ele>
        <time>2024-08-15T06:17:59Z</time>
      </trkpt>
      <trkpt lat="43.00326" lon="-0.07708">
        <ele>440.8</ele>
        <time>2024-08-15T06:18:00Z</time>
      </trkpt>
      <trkpt lat="43.00325" lon="-0.07704">
        <ele>441</ele>
        <time>2024-08-15T06:18:01Z</time>
      </trkpt>
      <trkpt lat="43.00324" lon="-0.07698">
        <ele>441</ele>
        <time>2024-08-15T06:18:02Z</time>
      </trkpt>
      <trkpt lat="43.00323" lon="-0.07693">
        <ele>441.2</ele>
        <time>2024-08-15T06:18:03Z</time>
      </trkpt>
      <trkpt lat="43.00322" lon="-0.07688">
        <ele>441.4</ele>
        <time>2024-08-15T06:18:04Z</time>
      </trkpt>
      <trkpt lat="43.0032" lon="-0.07682">
        <ele>441.6</ele>
        <time>2024-08-15T06:18:05Z</time>
      </trkpt>
      <trkpt lat="43.00318" lon="-0.07676">
        <ele>441.8</ele>
        <time>2024-08-15T06:18:06Z</time>
      </trkpt>
      <trkpt lat="43.00318" lon="-0.0767">
        <ele>442</ele>
        <time>2024-08-15T06:18:07Z</time>
      </trkpt>
      <trkpt lat="43.00316" lon="-0.07665">
        <ele>442.2</ele>
        <time>2024-08-15T06:18:08Z</time>
      </trkpt>
      <trkpt lat="43.00314" lon="-0.07659">
        <ele>442.4</ele>
        <time>2024-08-15T06:18:09Z</time>
      </trkpt>
      <trkpt lat="43.00311" lon="-0.07654">
        <ele>442.4</ele>
        <time>2024-08-15T06:18:10Z</time>
      </trkpt>
      <trkpt lat="43.00307" lon="-0.07649">
        <ele>442.6</ele>
        <time>2024-08-15T06:18:11Z</time>
      </trkpt>
      <trkpt lat="43.00305" lon="-0.07644">
        <ele>442.8</ele>
        <time>2024-08-15T06:18:12Z</time>
      </trkpt>
      <trkpt lat="43.00303" lon="-0.07638">
        <ele>442.8</ele>
        <time>2024-08-15T06:18:13Z</time>
      </trkpt>
      <trkpt lat="43.00302" lon="-0.07633">
        <ele>443</ele>
        <time>2024-08-15T06:18:14Z</time>
      </trkpt>
      <trkpt lat="43.00301" lon="-0.07628">
        <ele>443.2</ele>
        <time>2024-08-15T06:18:15Z</time>
      </trkpt>
      <trkpt lat="43.00299" lon="-0.07623">
        <ele>443.2</ele>
        <time>2024-08-15T06:18:16Z</time>
      </trkpt>
      <trkpt lat="43.00297" lon="-0.07617">
        <ele>443.4</ele>
        <time>2024-08-15T06:18:17Z</time>
      </trkpt>
      <trkpt lat="43.00295" lon="-0.07612">
        <ele>443.4</ele>
        <time>2024-08-15T06:18:18Z</time>
      </trkpt>
      <trkpt lat="43.00294" lon="-0.07606">
        <ele>443.6</ele>
        <time>2024-08-15T06:18:19Z</time>
      </trkpt>
      <trkpt lat="43.00293" lon="-0.07601">
        <ele>443.6</ele>
        <time>2024-08-15T06:18:20Z</time>
      </trkpt>
      <trkpt lat="43.00293" lon="-0.07595">
        <ele>443.8</ele>
        <time>2024-08-15T06:18:21Z</time>
      </trkpt>
      <trkpt lat="43.00292" lon="-0.07589">
        <ele>443.8</ele>
        <time>2024-08-15T06:18:22Z</time>
      </trkpt>
      <trkpt lat="43.00291" lon="-0.07584">
        <ele>443.8</ele>
        <time>2024-08-15T06:18:23Z</time>
      </trkpt>
      <trkpt lat="43.00291" lon="-0.07577">
        <ele>443.8</ele>
        <time>2024-08-15T06:18:24Z</time>
      </trkpt>
      <trkpt lat="43.0029" lon="-0.07571">
        <ele>443.8</ele>
        <time>2024-08-15T06:18:25Z</time>
      </trkpt>
      <trkpt lat="43.00289" lon="-0.07567">
        <ele>444</ele>
        <time>2024-08-15T06:18:26Z</time>
      </trkpt>
      <trkpt lat="43.00289" lon="-0.07561">
        <ele>444</ele>
        <time>2024-08-15T06:18:27Z</time>
      </trkpt>
      <trkpt lat="43.00288" lon="-0.07554">
        <ele>444</ele>
        <time>2024-08-15T06:18:28Z</time>
      </trkpt>
      <trkpt lat="43.00287" lon="-0.07548">
        <ele>444</ele>
        <time>2024-08-15T06:18:29Z</time>
      </trkpt>
      <trkpt lat="43.00287" lon="-0.07541">
        <ele>444</ele>
        <time>2024-08-15T06:18:30Z</time>
      </trkpt>
      <trkpt lat="43.00287" lon="-0.07537">
        <ele>444.2</ele>
        <time>2024-08-15T06:18:31Z</time>
      </trkpt>
      <trkpt lat="43.00287" lon="-0.07531">
        <ele>444.2</ele>
        <time>2024-08-15T06:18:32Z</time>
      </trkpt>
      <trkpt lat="43.00287" lon="-0.07523">
        <ele>444.4</ele>
        <time>2024-08-15T06:18:33Z</time>
      </trkpt>
      <trkpt lat="43.00287" lon="-0.07518">
        <ele>444.4</ele>
        <time>2024-08-15T06:18:34Z</time>
      </trkpt>
      <trkpt lat="43.00288" lon="-0.07511">
        <ele>444.4</ele>
        <time>2024-08-15T06:18:35Z</time>
      </trkpt>
      <trkpt lat="43.00289" lon="-0.07499">
        <ele>444.6</ele>
        <time>2024-08-15T06:18:37Z</time>
      </trkpt>
      <trkpt lat="43.0029" lon="-0.07487">
        <ele>444.6</ele>
        <time>2024-08-15T06:18:39Z</time>
      </trkpt>
      <trkpt lat="43.00293" lon="-0.07461">
        <ele>444.6</ele>
        <time>2024-08-15T06:18:43Z</time>
      </trkpt>
      <trkpt lat="43.00292" lon="-0.07454">
        <ele>444.6</ele>
        <time>2024-08-15T06:18:44Z</time>
      </trkpt>
      <trkpt lat="43.00292" lon="-0.07442">
        <ele>444.6</ele>
        <time>2024-08-15T06:18:46Z</time>
      </trkpt>
      <trkpt lat="43.00291" lon="-0.07425">
        <ele>444.6</ele>
        <time>2024-08-15T06:18:48Z</time>
      </trkpt>
      <trkpt lat="43.00287" lon="-0.07404">
        <ele>444.4</ele>
        <time>2024-08-15T06:18:51Z</time>
      </trkpt>
      <trkpt lat="43.00285" lon="-0.07396">
        <ele>444.4</ele>
        <time>2024-08-15T06:18:52Z</time>
      </trkpt>
      <trkpt lat="43.0028" lon="-0.07379">
        <ele>444</ele>
        <time>2024-08-15T06:18:54Z</time>
      </trkpt>
      <trkpt lat="43.00276" lon="-0.07365">
        <ele>443.6</ele>
        <time>2024-08-15T06:18:56Z</time>
      </trkpt>
      <trkpt lat="43.00273" lon="-0.07355">
        <ele>443.6</ele>
        <time>2024-08-15T06:18:57Z</time>
      </trkpt>
      <trkpt lat="43.0027" lon="-0.07348">
        <ele>443.4</ele>
        <time>2024-08-15T06:18:58Z</time>
      </trkpt>
      <trkpt lat="43.00264" lon="-0.07327">
        <ele>443.2</ele>
        <time>2024-08-15T06:19:01Z</time>
      </trkpt>
      <trkpt lat="43.00261" lon="-0.07319">
        <ele>443.2</ele>
        <time>2024-08-15T06:19:02Z</time>
      </trkpt>
      <trkpt lat="43.00259" lon="-0.07312">
        <ele>443.2</ele>
        <time>2024-08-15T06:19:03Z</time>
      </trkpt>
      <trkpt lat="43.00257" lon="-0.07305">
        <ele>443.2</ele>
        <time>2024-08-15T06:19:04Z</time>
      </trkpt>
      <trkpt lat="43.00255" lon="-0.07299">
        <ele>443.2</ele>
        <time>2024-08-15T06:19:05Z</time>
      </trkpt>
      <trkpt lat="43.00253" lon="-0.07293">
        <ele>443.2</ele>
        <time>2024-08-15T06:19:06Z</time>
      </trkpt>
      <trkpt lat="43.00251" lon="-0.07287">
        <ele>443.2</ele>
        <time>2024-08-15T06:19:07Z</time>
      </trkpt>
      <trkpt lat="43.00249" lon="-0.07279">
        <ele>443.4</ele>
        <time>2024-08-15T06:19:08Z</time>
      </trkpt>
      <trkpt lat="43.00246" lon="-0.07273">
        <ele>443.4</ele>
        <time>2024-08-15T06:19:09Z</time>
      </trkpt>
      <trkpt lat="43.00244" lon="-0.07267">
        <ele>443.4</ele>
        <time>2024-08-15T06:19:10Z</time>
      </trkpt>
      <trkpt lat="43.00243" lon="-0.07262">
        <ele>443.4</ele>
        <time>2024-08-15T06:19:11Z</time>
      </trkpt>
      <trkpt lat="43.0024" lon="-0.07254">
        <ele>443.6</ele>
        <time>2024-08-15T06:19:12Z</time>
      </trkpt>
      <trkpt lat="43.00238" lon="-0.07248">
        <ele>443.6</ele>
        <time>2024-08-15T06:19:13Z</time>
      </trkpt>
      <trkpt lat="43.00236" lon="-0.07242">
        <ele>443.8</ele>
        <time>2024-08-15T06:19:14Z</time>
      </trkpt>
      <trkpt lat="43.00235" lon="-0.07238">
        <ele>443.8</ele>
        <time>2024-08-15T06:19:15Z</time>
      </trkpt>
      <trkpt lat="43.00233" lon="-0.07232">
        <ele>443.8</ele>
        <time>2024-08-15T06:19:16Z</time>
      </trkpt>
      <trkpt lat="43.00231" lon="-0.07225">
        <ele>444</ele>
        <time>2024-08-15T06:19:17Z</time>
      </trkpt>
      <trkpt lat="43.00229" lon="-0.07219">
        <ele>444.2</ele>
        <time>2024-08-15T06:19:18Z</time>
      </trkpt>
      <trkpt lat="43.00227" lon="-0.07214">
        <ele>444.4</ele>
        <time>2024-08-15T06:19:19Z</time>
      </trkpt>
      <trkpt lat="43.00226" lon="-0.07209">
        <ele>444.4</ele>
        <time>2024-08-15T06:19:20Z</time>
      </trkpt>
      <trkpt lat="43.00224" lon="-0.07204">
        <ele>444.6</ele>
        <time>2024-08-15T06:19:21Z</time>
      </trkpt>
      <trkpt lat="43.00221" lon="-0.07198">
        <ele>444.8</ele>
        <time>2024-08-15T06:19:22Z</time>
      </trkpt>
      <trkpt lat="43.00219" lon="-0.07193">
        <ele>445</ele>
        <time>2024-08-15T06:19:23Z</time>
      </trkpt>
      <trkpt lat="43.00218" lon="-0.07188">
        <ele>445</ele>
        <time>2024-08-15T06:19:24Z</time>
      </trkpt>
      <trkpt lat="43.00216" lon="-0.07183">
        <ele>445.2</ele>
        <time>2024-08-15T06:19:25Z</time>
      </trkpt>
      <trkpt lat="43.00214" lon="-0.07178">
        <ele>445.4</ele>
        <time>2024-08-15T06:19:26Z</time>
      </trkpt>
      <trkpt lat="43.00206" lon="-0.07157">
        <ele>446</ele>
        <time>2024-08-15T06:19:30Z</time>
      </trkpt>
      <trkpt lat="43.00203" lon="-0.07152">
        <ele>446.2</ele>
        <time>2024-08-15T06:19:31Z</time>
      </trkpt>
      <trkpt lat="43.00198" lon="-0.0714">
        <ele>446.6</ele>
        <time>2024-08-15T06:19:33Z</time>
      </trkpt>
      <trkpt lat="43.00195" lon="-0.07131">
        <ele>446.8</ele>
        <time>2024-08-15T06:19:35Z</time>
      </trkpt>
      <trkpt lat="43.00192" lon="-0.07125">
        <ele>447.2</ele>
        <time>2024-08-15T06:19:36Z</time>
      </trkpt>
      <trkpt lat="43.0019" lon="-0.07121">
        <ele>447.4</ele>
        <time>2024-08-15T06:19:37Z</time>
      </trkpt>
      <trkpt lat="43.00188" lon="-0.07117">
        <ele>447.6</ele>
        <time>2024-08-15T06:19:38Z</time>
      </trkpt>
      <trkpt lat="43.00186" lon="-0.07113">
        <ele>447.8</ele>
        <time>2024-08-15T06:19:39Z</time>
      </trkpt>
      <trkpt lat="43.00184" lon="-0.07109">
        <ele>448</ele>
        <time>2024-08-15T06:19:40Z</time>
      </trkpt>
      <trkpt lat="43.00182" lon="-0.07104">
        <ele>448.2</ele>
        <time>2024-08-15T06:19:41Z</time>
      </trkpt>
      <trkpt lat="43.0018" lon="-0.071">
        <ele>448.4</ele>
        <time>2024-08-15T06:19:42Z</time>
      </trkpt>
      <trkpt lat="43.00178" lon="-0.07096">
        <ele>448.6</ele>
        <time>2024-08-15T06:19:43Z</time>
      </trkpt>
      <trkpt lat="43.00176" lon="-0.07092">
        <ele>448.6</ele>
        <time>2024-08-15T06:19:44Z</time>
      </trkpt>
      <trkpt lat="43.00174" lon="-0.07089">
        <ele>448.8</ele>
        <time>2024-08-15T06:19:45Z</time>
      </trkpt>
      <trkpt lat="43.00172" lon="-0.07085">
        <ele>449.2</ele>
        <time>2024-08-15T06:19:46Z</time>
      </trkpt>
      <trkpt lat="43.00169" lon="-0.0708">
        <ele>449.4</ele>
        <time>2024-08-15T06:19:47Z</time>
      </trkpt>
      <trkpt lat="43.00167" lon="-0.07076">
        <ele>449.8</ele>
        <time>2024-08-15T06:19:48Z</time>
      </trkpt>
      <trkpt lat="43.00165" lon="-0.07072">
        <ele>450</ele>
        <time>2024-08-15T06:19:49Z</time>
      </trkpt>
      <trkpt lat="43.00163" lon="-0.07068">
        <ele>450.4</ele>
        <time>2024-08-15T06:19:50Z</time>
      </trkpt>
      <trkpt lat="43.00161" lon="-0.07065">
        <ele>450.8</ele>
        <time>2024-08-15T06:19:51Z</time>
      </trkpt>
      <trkpt lat="43.00158" lon="-0.07061">
        <ele>451</ele>
        <time>2024-08-15T06:19:52Z</time>
      </trkpt>
      <trkpt lat="43.00156" lon="-0.07058">
        <ele>451.4</ele>
        <time>2024-08-15T06:19:53Z</time>
      </trkpt>
      <trkpt lat="43.00154" lon="-0.07055">
        <ele>451.6</ele>
        <time>2024-08-15T06:19:54Z</time>
      </trkpt>
      <trkpt lat="43.00152" lon="-0.07052">
        <ele>452.2</ele>
        <time>2024-08-15T06:19:55Z</time>
      </trkpt>
      <trkpt lat="43.0015" lon="-0.07049">
        <ele>452.4</ele>
        <time>2024-08-15T06:19:56Z</time>
      </trkpt>
      <trkpt lat="43.00148" lon="-0.07045">
        <ele>452.6</ele>
        <time>2024-08-15T06:19:57Z</time>
      </trkpt>
      <trkpt lat="43.00146" lon="-0.07042">
        <ele>453</ele>
        <time>2024-08-15T06:19:58Z</time>
      </trkpt>
      <trkpt lat="43.00144" lon="-0.07038">
        <ele>453.2</ele>
        <time>2024-08-15T06:19:59Z</time>
      </trkpt>
      <trkpt lat="43.00142" lon="-0.07036">
        <ele>453.6</ele>
        <time>2024-08-15T06:20:00Z</time>
      </trkpt>
      <trkpt lat="43.00141" lon="-0.07032">
        <ele>453.8</ele>
        <time>2024-08-15T06:20:01Z</time>
      </trkpt>
      <trkpt lat="43.00139" lon="-0.07029">
        <ele>454.2</ele>
        <time>2024-08-15T06:20:02Z</time>
      </trkpt>
      <trkpt lat="43.00136" lon="-0.07025">
        <ele>454.2</ele>
        <time>2024-08-15T06:20:03Z</time>
      </trkpt>
      <trkpt lat="43.00134" lon="-0.07021">
        <ele>454.6</ele>
        <time>2024-08-15T06:20:04Z</time>
      </trkpt>
      <trkpt lat="43.00133" lon="-0.07017">
        <ele>455</ele>
        <time>2024-08-15T06:20:05Z</time>
      </trkpt>
      <trkpt lat="43.00131" lon="-0.07013">
        <ele>455.2</ele>
        <time>2024-08-15T06:20:06Z</time>
      </trkpt>
      <trkpt lat="43.0013" lon="-0.0701">
        <ele>455.6</ele>
        <time>2024-08-15T06:20:07Z</time>
      </trkpt>
      <trkpt lat="43.00128" lon="-0.07005">
        <ele>455.8</ele>
        <time>2024-08-15T06:20:08Z</time>
      </trkpt>
      <trkpt lat="43.00127" lon="-0.07001">
        <ele>456.2</ele>
        <time>2024-08-15T06:20:09Z</time>
      </trkpt>
      <trkpt lat="43.00126" lon="-0.06997">
        <ele>456.4</ele>
        <time>2024-08-15T06:20:10Z</time>
      </trkpt>
      <trkpt lat="43.00124" lon="-0.06994">
        <ele>456.6</ele>
        <time>2024-08-15T06:20:11Z</time>
      </trkpt>
      <trkpt lat="43.00123" lon="-0.0699">
        <ele>456.8</ele>
        <time>2024-08-15T06:20:12Z</time>
      </trkpt>
      <trkpt lat="43.00122" lon="-0.06986">
        <ele>457</ele>
        <time>2024-08-15T06:20:13Z</time>
      </trkpt>
      <trkpt lat="43.00121" lon="-0.06982">
        <ele>457.2</ele>
        <time>2024-08-15T06:20:14Z</time>
      </trkpt>
      <trkpt lat="43.0012" lon="-0.06978">
        <ele>457.4</ele>
        <time>2024-08-15T06:20:15Z</time>
      </trkpt>
      <trkpt lat="43.00119" lon="-0.06975">
        <ele>457.4</ele>
        <time>2024-08-15T06:20:16Z</time>
      </trkpt>
      <trkpt lat="43.00118" lon="-0.0697">
        <ele>457.6</ele>
        <time>2024-08-15T06:20:17Z</time>
      </trkpt>
      <trkpt lat="43.00117" lon="-0.06965">
        <ele>458</ele>
        <time>2024-08-15T06:20:18Z</time>
      </trkpt>
      <trkpt lat="43.00116" lon="-0.06962">
        <ele>458</ele>
        <time>2024-08-15T06:20:19Z</time>
      </trkpt>
      <trkpt lat="43.00114" lon="-0.06959">
        <ele>458.2</ele>
        <time>2024-08-15T06:20:20Z</time>
      </trkpt>
      <trkpt lat="43.00111" lon="-0.06957">
        <ele>458.4</ele>
        <time>2024-08-15T06:20:21Z</time>
      </trkpt>
      <trkpt lat="43.00108" lon="-0.06956">
        <ele>458.4</ele>
        <time>2024-08-15T06:20:22Z</time>
      </trkpt>
      <trkpt lat="43.00105" lon="-0.06957">
        <ele>458.6</ele>
        <time>2024-08-15T06:20:23Z</time>
      </trkpt>
      <trkpt lat="43.00101" lon="-0.06958">
        <ele>458.8</ele>
        <time>2024-08-15T06:20:24Z</time>
      </trkpt>
      <trkpt lat="43.00098" lon="-0.06959">
        <ele>459</ele>
        <time>2024-08-15T06:20:25Z</time>
      </trkpt>
      <trkpt lat="43.00095" lon="-0.0696">
        <ele>459</ele>
        <time>2024-08-15T06:20:26Z</time>
      </trkpt>
      <trkpt lat="43.00092" lon="-0.06962">
        <ele>459.2</ele>
        <time>2024-08-15T06:20:27Z</time>
      </trkpt>
      <trkpt lat="43.00088" lon="-0.06964">
        <ele>459.2</ele>
        <time>2024-08-15T06:20:28Z</time>
      </trkpt>
      <trkpt lat="43.00085" lon="-0.06965">
        <ele>459.2</ele>
        <time>2024-08-15T06:20:29Z</time>
      </trkpt>
      <trkpt lat="43.00083" lon="-0.06966">
        <ele>459.4</ele>
        <time>2024-08-15T06:20:30Z</time>
      </trkpt>
      <trkpt lat="43.00081" lon="-0.06967">
        <ele>459.4</ele>
        <time>2024-08-15T06:20:31Z</time>
      </trkpt>
      <trkpt lat="43.00077" lon="-0.06968">
        <ele>459.6</ele>
        <time>2024-08-15T06:20:32Z</time>
      </trkpt>
      <trkpt lat="43.00075" lon="-0.06969">
        <ele>459.6</ele>
        <time>2024-08-15T06:20:33Z</time>
      </trkpt>
      <trkpt lat="43.00072" lon="-0.0697">
        <ele>459.8</ele>
        <time>2024-08-15T06:20:34Z</time>
      </trkpt>
      <trkpt lat="43.00069" lon="-0.0697">
        <ele>459.8</ele>
        <time>2024-08-15T06:20:35Z</time>
      </trkpt>
      <trkpt lat="43.00067" lon="-0.06971">
        <ele>460.2</ele>
        <time>2024-08-15T06:20:36Z</time>
      </trkpt>
      <trkpt lat="43.00064" lon="-0.06973">
        <ele>460.4</ele>
        <time>2024-08-15T06:20:37Z</time>
      </trkpt>
      <trkpt lat="43.00061" lon="-0.06973">
        <ele>460.6</ele>
        <time>2024-08-15T06:20:38Z</time>
      </trkpt>
      <trkpt lat="43.00059" lon="-0.06975">
        <ele>461</ele>
        <time>2024-08-15T06:20:39Z</time>
      </trkpt>
      <trkpt lat="43.00057" lon="-0.06976">
        <ele>461.2</ele>
        <time>2024-08-15T06:20:40Z</time>
      </trkpt>
      <trkpt lat="43.00055" lon="-0.06976">
        <ele>461.6</ele>
        <time>2024-08-15T06:20:41Z</time>
      </trkpt>
      <trkpt lat="43.00053" lon="-0.06977">
        <ele>461.6</ele>
        <time>2024-08-15T06:20:42Z</time>
      </trkpt>
      <trkpt lat="43.00051" lon="-0.06978">
        <ele>462</ele>
        <time>2024-08-15T06:20:43Z</time>
      </trkpt>
      <trkpt lat="43.0005" lon="-0.06979">
        <ele>462.2</ele>
        <time>2024-08-15T06:20:44Z</time>
      </trkpt>
      <trkpt lat="43.00048" lon="-0.0698">
        <ele>462.6</ele>
        <time>2024-08-15T06:20:45Z</time>
      </trkpt>
      <trkpt lat="43.00046" lon="-0.06981">
        <ele>463</ele>
        <time>2024-08-15T06:20:46Z</time>
      </trkpt>
      <trkpt lat="43.00042" lon="-0.06982">
        <ele>463.2</ele>
        <time>2024-08-15T06:20:47Z</time>
      </trkpt>
      <trkpt lat="43.0004" lon="-0.06983">
        <ele>463.4</ele>
        <time>2024-08-15T06:20:48Z</time>
      </trkpt>
      <trkpt lat="43.00038" lon="-0.06983">
        <ele>463.6</ele>
        <time>2024-08-15T06:20:49Z</time>
      </trkpt>
      <trkpt lat="43.00035" lon="-0.06984">
        <ele>463.8</ele>
        <time>2024-08-15T06:20:50Z</time>
      </trkpt>
      <trkpt lat="43.00032" lon="-0.06985">
        <ele>464</ele>
        <time>2024-08-15T06:20:51Z</time>
      </trkpt>
      <trkpt lat="43.00029" lon="-0.06987">
        <ele>464.2</ele>
        <time>2024-08-15T06:20:52Z</time>
      </trkpt>
      <trkpt lat="43.00027" lon="-0.06989">
        <ele>464.6</ele>
        <time>2024-08-15T06:20:53Z</time>
      </trkpt>
      <trkpt lat="43.00025" lon="-0.06991">
        <ele>465</ele>
        <time>2024-08-15T06:20:54Z</time>
      </trkpt>
      <trkpt lat="43.00024" lon="-0.06993">
        <ele>465.2</ele>
        <time>2024-08-15T06:20:55Z</time>
      </trkpt>
      <trkpt lat="43.00021" lon="-0.06994">
        <ele>465.2</ele>
        <time>2024-08-15T06:20:56Z</time>
      </trkpt>
      <trkpt lat="43.00019" lon="-0.06995">
        <ele>465.4</ele>
        <time>2024-08-15T06:20:57Z</time>
      </trkpt>
      <trkpt lat="43.00016" lon="-0.06996">
        <ele>465.4</ele>
        <time>2024-08-15T06:20:58Z</time>
      </trkpt>
      <trkpt lat="43.00014" lon="-0.06997">
        <ele>465.4</ele>
        <time>2024-08-15T06:20:59Z</time>
      </trkpt>
      <trkpt lat="43.00012" lon="-0.06998">
        <ele>465.4</ele>
        <time>2024-08-15T06:21:00Z</time>
      </trkpt>
      <trkpt lat="43.00009" lon="-0.06999">
        <ele>465.6</ele>
        <time>2024-08-15T06:21:01Z</time>
      </trkpt>
      <trkpt lat="43.00006" lon="-0.07001">
        <ele>465.6</ele>
        <time>2024-08-15T06:21:02Z</time>
      </trkpt>
      <trkpt lat="43.00003" lon="-0.07002">
        <ele>465.6</ele>
        <time>2024-08-15T06:21:03Z</time>
      </trkpt>
      <trkpt lat="42.99999" lon="-0.07003">
        <ele>465.8</ele>
        <time>2024-08-15T06:21:04Z</time>
      </trkpt>
      <trkpt lat="42.99997" lon="-0.07004">
        <ele>465.8</ele>
        <time>2024-08-15T06:21:05Z</time>
      </trkpt>
      <trkpt lat="42.99994" lon="-0.07005">
        <ele>465.8</ele>
        <time>2024-08-15T06:21:06Z</time>
      </trkpt>
      <trkpt lat="42.9999" lon="-0.07007">
        <ele>466</ele>
        <time>2024-08-15T06:21:07Z</time>
      </trkpt>
      <trkpt lat="42.99986" lon="-0.07008">
        <ele>466.2</ele>
        <time>2024-08-15T06:21:08Z</time>
      </trkpt>
      <trkpt lat="42.99983" lon="-0.0701">
        <ele>466.2</ele>
        <time>2024-08-15T06:21:09Z</time>
      </trkpt>
      <trkpt lat="42.9998" lon="-0.07011">
        <ele>466.2</ele>
        <time>2024-08-15T06:21:10Z</time>
      </trkpt>
      <trkpt lat="42.99975" lon="-0.07011">
        <ele>466.4</ele>
        <time>2024-08-15T06:21:11Z</time>
      </trkpt>
      <trkpt lat="42.99972" lon="-0.07012">
        <ele>466.4</ele>
        <time>2024-08-15T06:21:12Z</time>
      </trkpt>
      <trkpt lat="42.99968" lon="-0.07012">
        <ele>466.4</ele>
        <time>2024-08-15T06:21:13Z</time>
      </trkpt>
      <trkpt lat="42.99962" lon="-0.07013">
        <ele>466.4</ele>
        <time>2024-08-15T06:21:14Z</time>
      </trkpt>
      <trkpt lat="42.99959" lon="-0.07013">
        <ele>466.4</ele>
        <time>2024-08-15T06:21:15Z</time>
      </trkpt>
      <trkpt lat="42.99955" lon="-0.07014">
        <ele>466.6</ele>
        <time>2024-08-15T06:21:16Z</time>
      </trkpt>
      <trkpt lat="42.9995" lon="-0.07014">
        <ele>466.6</ele>
        <time>2024-08-15T06:21:17Z</time>
      </trkpt>
      <trkpt lat="42.99945" lon="-0.07014">
        <ele>466.6</ele>
        <time>2024-08-15T06:21:18Z</time>
      </trkpt>
      <trkpt lat="42.99941" lon="-0.07013">
        <ele>466.6</ele>
        <time>2024-08-15T06:21:19Z</time>
      </trkpt>
      <trkpt lat="42.99936" lon="-0.07013">
        <ele>466.6</ele>
        <time>2024-08-15T06:21:20Z</time>
      </trkpt>
      <trkpt lat="42.99932" lon="-0.07012">
        <ele>466.6</ele>
        <time>2024-08-15T06:21:21Z</time>
      </trkpt>
      <trkpt lat="42.9991" lon="-0.07009">
        <ele>466.4</ele>
        <time>2024-08-15T06:21:25Z</time>
      </trkpt>
      <trkpt lat="42.99895" lon="-0.07008">
        <ele>466</ele>
        <time>2024-08-15T06:21:27Z</time>
      </trkpt>
      <trkpt lat="42.99883" lon="-0.07008">
        <ele>465.6</ele>
        <time>2024-08-15T06:21:29Z</time>
      </trkpt>
      <trkpt lat="42.99883" lon="-0.07008">
        <ele>465.4</ele>
        <time>2024-08-15T06:21:30Z</time>
      </trkpt>
      <trkpt lat="42.99872" lon="-0.07006">
        <ele>465.4</ele>
        <time>2024-08-15T06:21:31Z</time>
      </trkpt>
      <trkpt lat="42.99866" lon="-0.07006">
        <ele>465.2</ele>
        <time>2024-08-15T06:21:32Z</time>
      </trkpt>
      <trkpt lat="42.9986" lon="-0.07005">
        <ele>465.2</ele>
        <time>2024-08-15T06:21:33Z</time>
      </trkpt>
      <trkpt lat="42.99856" lon="-0.07005">
        <ele>465.2</ele>
        <time>2024-08-15T06:21:34Z</time>
      </trkpt>
      <trkpt lat="42.99851" lon="-0.07004">
        <ele>465.4</ele>
        <time>2024-08-15T06:21:35Z</time>
      </trkpt>
      <trkpt lat="42.99845" lon="-0.07004">
        <ele>465.6</ele>
        <time>2024-08-15T06:21:36Z</time>
      </trkpt>
      <trkpt lat="42.99839" lon="-0.07003">
        <ele>465.6</ele>
        <time>2024-08-15T06:21:37Z</time>
      </trkpt>
      <trkpt lat="42.99834" lon="-0.07003">
        <ele>465.8</ele>
        <time>2024-08-15T06:21:38Z</time>
      </trkpt>
      <trkpt lat="42.99828" lon="-0.07002">
        <ele>465.8</ele>
        <time>2024-08-15T06:21:39Z</time>
      </trkpt>
      <trkpt lat="42.99824" lon="-0.07001">
        <ele>466</ele>
        <time>2024-08-15T06:21:40Z</time>
      </trkpt>
      <trkpt lat="42.99813" lon="-0.06999">
        <ele>466.4</ele>
        <time>2024-08-15T06:21:42Z</time>
      </trkpt>
      <trkpt lat="42.99808" lon="-0.06999">
        <ele>466.6</ele>
        <time>2024-08-15T06:21:43Z</time>
      </trkpt>
      <trkpt lat="42.99798" lon="-0.06997">
        <ele>466.8</ele>
        <time>2024-08-15T06:21:45Z</time>
      </trkpt>
      <trkpt lat="42.99769" lon="-0.06988">
        <ele>467</ele>
        <time>2024-08-15T06:21:50Z</time>
      </trkpt>
      <trkpt lat="42.99764" lon="-0.06986">
        <ele>466.8</ele>
        <time>2024-08-15T06:21:51Z</time>
      </trkpt>
      <trkpt lat="42.99758" lon="-0.06983">
        <ele>466.8</ele>
        <time>2024-08-15T06:21:52Z</time>
      </trkpt>
      <trkpt lat="42.99752" lon="-0.06981">
        <ele>466.8</ele>
        <time>2024-08-15T06:21:53Z</time>
      </trkpt>
      <trkpt lat="42.99747" lon="-0.06979">
        <ele>466.6</ele>
        <time>2024-08-15T06:21:54Z</time>
      </trkpt>
      <trkpt lat="42.99742" lon="-0.06977">
        <ele>466.6</ele>
        <time>2024-08-15T06:21:55Z</time>
      </trkpt>
      <trkpt lat="42.99737" lon="-0.06974">
        <ele>466.6</ele>
        <time>2024-08-15T06:21:56Z</time>
      </trkpt>
      <trkpt lat="42.9973" lon="-0.0697">
        <ele>466.6</ele>
        <time>2024-08-15T06:21:57Z</time>
      </trkpt>
      <trkpt lat="42.99726" lon="-0.06967">
        <ele>466.6</ele>
        <time>2024-08-15T06:21:58Z</time>
      </trkpt>
      <trkpt lat="42.99721" lon="-0.06964">
        <ele>466.8</ele>
        <time>2024-08-15T06:21:59Z</time>
      </trkpt>
      <trkpt lat="42.99717" lon="-0.06962">
        <ele>466.8</ele>
        <time>2024-08-15T06:22:00Z</time>
      </trkpt>
      <trkpt lat="42.99712" lon="-0.06958">
        <ele>466.8</ele>
        <time>2024-08-15T06:22:01Z</time>
      </trkpt>
      <trkpt lat="42.99708" lon="-0.06954">
        <ele>466.8</ele>
        <time>2024-08-15T06:22:02Z</time>
      </trkpt>
      <trkpt lat="42.99705" lon="-0.06951">
        <ele>467</ele>
        <time>2024-08-15T06:22:03Z</time>
      </trkpt>
      <trkpt lat="42.99701" lon="-0.06947">
        <ele>467.2</ele>
        <time>2024-08-15T06:22:04Z</time>
      </trkpt>
      <trkpt lat="42.99698" lon="-0.06942">
        <ele>467.4</ele>
        <time>2024-08-15T06:22:05Z</time>
      </trkpt>
      <trkpt lat="42.99694" lon="-0.06938">
        <ele>467.6</ele>
        <time>2024-08-15T06:22:06Z</time>
      </trkpt>
      <trkpt lat="42.99691" lon="-0.06933">
        <ele>467.8</ele>
        <time>2024-08-15T06:22:07Z</time>
      </trkpt>
      <trkpt lat="42.99688" lon="-0.06929">
        <ele>468</ele>
        <time>2024-08-15T06:22:08Z</time>
      </trkpt>
      <trkpt lat="42.99684" lon="-0.06925">
        <ele>468</ele>
        <time>2024-08-15T06:22:09Z</time>
      </trkpt>
      <trkpt lat="42.99682" lon="-0.06922">
        <ele>468.2</ele>
        <time>2024-08-15T06:22:10Z</time>
      </trkpt>
      <trkpt lat="42.9968" lon="-0.06919">
        <ele>468.4</ele>
        <time>2024-08-15T06:22:11Z</time>
      </trkpt>
      <trkpt lat="42.99677" lon="-0.06915">
        <ele>468.8</ele>
        <time>2024-08-15T06:22:12Z</time>
      </trkpt>
      <trkpt lat="42.99667" lon="-0.06903">
        <ele>469.8</ele>
        <time>2024-08-15T06:22:16Z</time>
      </trkpt>
      <trkpt lat="42.99664" lon="-0.069">
        <ele>470.4</ele>
        <time>2024-08-15T06:22:17Z</time>
      </trkpt>
      <trkpt lat="42.9966" lon="-0.06896">
        <ele>470.4</ele>
        <time>2024-08-15T06:22:18Z</time>
      </trkpt>
      <trkpt lat="42.99657" lon="-0.06893">
        <ele>470.6</ele>
        <time>2024-08-15T06:22:19Z</time>
      </trkpt>
      <trkpt lat="42.99655" lon="-0.06889">
        <ele>470.8</ele>
        <time>2024-08-15T06:22:20Z</time>
      </trkpt>
      <trkpt lat="42.99652" lon="-0.06887">
        <ele>470.8</ele>
        <time>2024-08-15T06:22:21Z</time>
      </trkpt>
      <trkpt lat="42.99649" lon="-0.06883">
        <ele>471.2</ele>
        <time>2024-08-15T06:22:22Z</time>
      </trkpt>
      <trkpt lat="42.99647" lon="-0.0688">
        <ele>471.2</ele>
        <time>2024-08-15T06:22:23Z</time>
      </trkpt>
      <trkpt lat="42.99644" lon="-0.06877">
        <ele>471.6</ele>
        <time>2024-08-15T06:22:24Z</time>
      </trkpt>
      <trkpt lat="42.99642" lon="-0.06875">
        <ele>471.6</ele>
        <time>2024-08-15T06:22:25Z</time>
      </trkpt>
      <trkpt lat="42.9964" lon="-0.06872">
        <ele>472</ele>
        <time>2024-08-15T06:22:26Z</time>
      </trkpt>
      <trkpt lat="42.99637" lon="-0.06869">
        <ele>472</ele>
        <time>2024-08-15T06:22:27Z</time>
      </trkpt>
      <trkpt lat="42.99634" lon="-0.06866">
        <ele>472.4</ele>
        <time>2024-08-15T06:22:28Z</time>
      </trkpt>
      <trkpt lat="42.99631" lon="-0.06864">
        <ele>472.6</ele>
        <time>2024-08-15T06:22:29Z</time>
      </trkpt>
      <trkpt lat="42.99628" lon="-0.06862">
        <ele>473</ele>
        <time>2024-08-15T06:22:30Z</time>
      </trkpt>
      <trkpt lat="42.99625" lon="-0.0686">
        <ele>473.6</ele>
        <time>2024-08-15T06:22:31Z</time>
      </trkpt>
      <trkpt lat="42.99622" lon="-0.06859">
        <ele>473.8</ele>
        <time>2024-08-15T06:22:32Z</time>
      </trkpt>
      <trkpt lat="42.99618" lon="-0.06857">
        <ele>474</ele>
        <time>2024-08-15T06:22:33Z</time>
      </trkpt>
      <trkpt lat="42.99615" lon="-0.06856">
        <ele>474.2</ele>
        <time>2024-08-15T06:22:34Z</time>
      </trkpt>
      <trkpt lat="42.99612" lon="-0.06855">
        <ele>474.4</ele>
        <time>2024-08-15T06:22:35Z</time>
      </trkpt>
      <trkpt lat="42.99609" lon="-0.06855">
        <ele>474.6</ele>
        <time>2024-08-15T06:22:36Z</time>
      </trkpt>
      <trkpt lat="42.99605" lon="-0.06855">
        <ele>475</ele>
        <time>2024-08-15T06:22:37Z</time>
      </trkpt>
      <trkpt lat="42.99601" lon="-0.06856">
        <ele>475.2</ele>
        <time>2024-08-15T06:22:38Z</time>
      </trkpt>
      <trkpt lat="42.99598" lon="-0.06857">
        <ele>475.2</ele>
        <time>2024-08-15T06:22:39Z</time>
      </trkpt>
      <trkpt lat="42.99594" lon="-0.06858">
        <ele>475.6</ele>
        <time>2024-08-15T06:22:40Z</time>
      </trkpt>
      <trkpt lat="42.99592" lon="-0.06859">
        <ele>475.6</ele>
        <time>2024-08-15T06:22:41Z</time>
      </trkpt>
      <trkpt lat="42.99589" lon="-0.0686">
        <ele>475.8</ele>
        <time>2024-08-15T06:22:42Z</time>
      </trkpt>
      <trkpt lat="42.99585" lon="-0.06862">
        <ele>476.2</ele>
        <time>2024-08-15T06:22:43Z</time>
      </trkpt>
      <trkpt lat="42.99582" lon="-0.06863">
        <ele>476.6</ele>
        <time>2024-08-15T06:22:44Z</time>
      </trkpt>
      <trkpt lat="42.99579" lon="-0.06865">
        <ele>476.6</ele>
        <time>2024-08-15T06:22:45Z</time>
      </trkpt>
      <trkpt lat="42.99576" lon="-0.06867">
        <ele>476.8</ele>
        <time>2024-08-15T06:22:46Z</time>
      </trkpt>
      <trkpt lat="42.99573" lon="-0.06869">
        <ele>477</ele>
        <time>2024-08-15T06:22:47Z</time>
      </trkpt>
      <trkpt lat="42.9957" lon="-0.06871">
        <ele>477</ele>
        <time>2024-08-15T06:22:48Z</time>
      </trkpt>
      <trkpt lat="42.99567" lon="-0.06874">
        <ele>477.2</ele>
        <time>2024-08-15T06:22:49Z</time>
      </trkpt>
      <trkpt lat="42.99564" lon="-0.06877">
        <ele>477.2</ele>
        <time>2024-08-15T06:22:50Z</time>
      </trkpt>
      <trkpt lat="42.9956" lon="-0.0688">
        <ele>477.6</ele>
        <time>2024-08-15T06:22:51Z</time>
      </trkpt>
      <trkpt lat="42.99558" lon="-0.06882">
        <ele>477.6</ele>
        <time>2024-08-15T06:22:52Z</time>
      </trkpt>
      <trkpt lat="42.99554" lon="-0.06885">
        <ele>477.6</ele>
        <time>2024-08-15T06:22:53Z</time>
      </trkpt>
      <trkpt lat="42.99551" lon="-0.06888">
        <ele>477.8</ele>
        <time>2024-08-15T06:22:54Z</time>
      </trkpt>
      <trkpt lat="42.99547" lon="-0.06891">
        <ele>477.8</ele>
        <time>2024-08-15T06:22:55Z</time>
      </trkpt>
      <trkpt lat="42.99544" lon="-0.06893">
        <ele>477.8</ele>
        <time>2024-08-15T06:22:56Z</time>
      </trkpt>
      <trkpt lat="42.99541" lon="-0.06895">
        <ele>478.2</ele>
        <time>2024-08-15T06:22:57Z</time>
      </trkpt>
      <trkpt lat="42.99538" lon="-0.06899">
        <ele>478.2</ele>
        <time>2024-08-15T06:22:58Z</time>
      </trkpt>
      <trkpt lat="42.99534" lon="-0.06901">
        <ele>478.2</ele>
        <time>2024-08-15T06:22:59Z</time>
      </trkpt>
      <trkpt lat="42.99531" lon="-0.06904">
        <ele>478.2</ele>
        <time>2024-08-15T06:23:00Z</time>
      </trkpt>
      <trkpt lat="42.99528" lon="-0.06907">
        <ele>478.2</ele>
        <time>2024-08-15T06:23:01Z</time>
      </trkpt>
      <trkpt lat="42.99525" lon="-0.06911">
        <ele>478.2</ele>
        <time>2024-08-15T06:23:02Z</time>
      </trkpt>
      <trkpt lat="42.99522" lon="-0.06914">
        <ele>478.2</ele>
        <time>2024-08-15T06:23:03Z</time>
      </trkpt>
      <trkpt lat="42.99518" lon="-0.06917">
        <ele>478.2</ele>
        <time>2024-08-15T06:23:04Z</time>
      </trkpt>
      <trkpt lat="42.99513" lon="-0.0692">
        <ele>478.2</ele>
        <time>2024-08-15T06:23:05Z</time>
      </trkpt>
      <trkpt lat="42.99508" lon="-0.06921">
        <ele>478.2</ele>
        <time>2024-08-15T06:23:06Z</time>
      </trkpt>
      <trkpt lat="42.99502" lon="-0.06923">
        <ele>478.2</ele>
        <time>2024-08-15T06:23:07Z</time>
      </trkpt>
      <trkpt lat="42.99493" lon="-0.06925">
        <ele>478.2</ele>
        <time>2024-08-15T06:23:08Z</time>
      </trkpt>
      <trkpt lat="42.99486" lon="-0.06927">
        <ele>477.8</ele>
        <time>2024-08-15T06:23:09Z</time>
      </trkpt>
      <trkpt lat="42.99479" lon="-0.06928">
        <ele>477.6</ele>
        <time>2024-08-15T06:23:10Z</time>
      </trkpt>
      <trkpt lat="42.99474" lon="-0.06929">
        <ele>477.2</ele>
        <time>2024-08-15T06:23:11Z</time>
      </trkpt>
      <trkpt lat="42.99465" lon="-0.0693">
        <ele>477</ele>
        <time>2024-08-15T06:23:12Z</time>
      </trkpt>
      <trkpt lat="42.99459" lon="-0.06931">
        <ele>476.6</ele>
        <time>2024-08-15T06:23:13Z</time>
      </trkpt>
      <trkpt lat="42.99452" lon="-0.06931">
        <ele>476.6</ele>
        <time>2024-08-15T06:23:14Z</time>
      </trkpt>
      <trkpt lat="42.99445" lon="-0.0693">
        <ele>476.2</ele>
        <time>2024-08-15T06:23:15Z</time>
      </trkpt>
      <trkpt lat="42.9944" lon="-0.06926">
        <ele>475.8</ele>
        <time>2024-08-15T06:23:16Z</time>
      </trkpt>
      <trkpt lat="42.99437" lon="-0.06921">
        <ele>475.8</ele>
        <time>2024-08-15T06:23:17Z</time>
      </trkpt>
      <trkpt lat="42.99434" lon="-0.06914">
        <ele>475.6</ele>
        <time>2024-08-15T06:23:18Z</time>
      </trkpt>
      <trkpt lat="42.99433" lon="-0.06909">
        <ele>475.6</ele>
        <time>2024-08-15T06:23:19Z</time>
      </trkpt>
      <trkpt lat="42.99433" lon="-0.06904">
        <ele>475.6</ele>
        <time>2024-08-15T06:23:20Z</time>
      </trkpt>
      <trkpt lat="42.99432" lon="-0.069">
        <ele>475.6</ele>
        <time>2024-08-15T06:23:21Z</time>
      </trkpt>
      <trkpt lat="42.99432" lon="-0.06894">
        <ele>475.4</ele>
        <time>2024-08-15T06:23:22Z</time>
      </trkpt>
      <trkpt lat="42.99431" lon="-0.06889">
        <ele>475.4</ele>
        <time>2024-08-15T06:23:23Z</time>
      </trkpt>
      <trkpt lat="42.99431" lon="-0.06884">
        <ele>475.6</ele>
        <time>2024-08-15T06:23:24Z</time>
      </trkpt>
      <trkpt lat="42.9943" lon="-0.0688">
        <ele>475.6</ele>
        <time>2024-08-15T06:23:25Z</time>
      </trkpt>
      <trkpt lat="42.99429" lon="-0.06876">
        <ele>475.8</ele>
        <time>2024-08-15T06:23:26Z</time>
      </trkpt>
      <trkpt lat="42.99428" lon="-0.06871">
        <ele>476</ele>
        <time>2024-08-15T06:23:27Z</time>
      </trkpt>
      <trkpt lat="42.99427" lon="-0.06867">
        <ele>476.4</ele>
        <time>2024-08-15T06:23:28Z</time>
      </trkpt>
      <trkpt lat="42.99426" lon="-0.06861">
        <ele>476.6</ele>
        <time>2024-08-15T06:23:29Z</time>
      </trkpt>
      <trkpt lat="42.99425" lon="-0.06858">
        <ele>476.8</ele>
        <time>2024-08-15T06:23:30Z</time>
      </trkpt>
      <trkpt lat="42.99424" lon="-0.06854">
        <ele>477</ele>
        <time>2024-08-15T06:23:31Z</time>
      </trkpt>
      <trkpt lat="42.99421" lon="-0.06847">
        <ele>477.6</ele>
        <time>2024-08-15T06:23:33Z</time>
      </trkpt>
      <trkpt lat="42.99417" lon="-0.06841">
        <ele>478.2</ele>
        <time>2024-08-15T06:23:35Z</time>
      </trkpt>
      <trkpt lat="42.99412" lon="-0.06834">
        <ele>478.6</ele>
        <time>2024-08-15T06:23:37Z</time>
      </trkpt>
      <trkpt lat="42.99399" lon="-0.06818">
        <ele>479.8</ele>
        <time>2024-08-15T06:23:42Z</time>
      </trkpt>
      <trkpt lat="42.99396" lon="-0.06815">
        <ele>480</ele>
        <time>2024-08-15T06:23:43Z</time>
      </trkpt>
      <trkpt lat="42.99394" lon="-0.06812">
        <ele>480.4</ele>
        <time>2024-08-15T06:23:44Z</time>
      </trkpt>
      <trkpt lat="42.99391" lon="-0.06809">
        <ele>480.8</ele>
        <time>2024-08-15T06:23:45Z</time>
      </trkpt>
      <trkpt lat="42.99389" lon="-0.06806">
        <ele>481.2</ele>
        <time>2024-08-15T06:23:46Z</time>
      </trkpt>
      <trkpt lat="42.99386" lon="-0.06804">
        <ele>481.4</ele>
        <time>2024-08-15T06:23:47Z</time>
      </trkpt>
      <trkpt lat="42.99383" lon="-0.068">
        <ele>481.6</ele>
        <time>2024-08-15T06:23:48Z</time>
      </trkpt>
      <trkpt lat="42.99381" lon="-0.06797">
        <ele>481.6</ele>
        <time>2024-08-15T06:23:49Z</time>
      </trkpt>
      <trkpt lat="42.99379" lon="-0.06795">
        <ele>482</ele>
        <time>2024-08-15T06:23:50Z</time>
      </trkpt>
      <trkpt lat="42.99377" lon="-0.06793">
        <ele>482.2</ele>
        <time>2024-08-15T06:23:51Z</time>
      </trkpt>
      <trkpt lat="42.99375" lon="-0.0679">
        <ele>482.4</ele>
        <time>2024-08-15T06:23:52Z</time>
      </trkpt>
      <trkpt lat="42.99373" lon="-0.06787">
        <ele>482.6</ele>
        <time>2024-08-15T06:23:53Z</time>
      </trkpt>
      <trkpt lat="42.9937" lon="-0.06784">
        <ele>482.8</ele>
        <time>2024-08-15T06:23:54Z</time>
      </trkpt>
      <trkpt lat="42.99369" lon="-0.06782">
        <ele>483</ele>
        <time>2024-08-15T06:23:55Z</time>
      </trkpt>
      <trkpt lat="42.99366" lon="-0.0678">
        <ele>483.2</ele>
        <time>2024-08-15T06:23:56Z</time>
      </trkpt>
      <trkpt lat="42.99364" lon="-0.06778">
        <ele>483.4</ele>
        <time>2024-08-15T06:23:57Z</time>
      </trkpt>
      <trkpt lat="42.99362" lon="-0.06776">
        <ele>483.6</ele>
        <time>2024-08-15T06:23:58Z</time>
      </trkpt>
      <trkpt lat="42.9936" lon="-0.06775">
        <ele>484</ele>
        <time>2024-08-15T06:23:59Z</time>
      </trkpt>
      <trkpt lat="42.99357" lon="-0.06773">
        <ele>484.2</ele>
        <time>2024-08-15T06:24:00Z</time>
      </trkpt>
      <trkpt lat="42.99355" lon="-0.06771">
        <ele>484.4</ele>
        <time>2024-08-15T06:24:01Z</time>
      </trkpt>
      <trkpt lat="42.99353" lon="-0.06769">
        <ele>484.6</ele>
        <time>2024-08-15T06:24:02Z</time>
      </trkpt>
      <trkpt lat="42.9935" lon="-0.06767">
        <ele>484.8</ele>
        <time>2024-08-15T06:24:03Z</time>
      </trkpt>
      <trkpt lat="42.99347" lon="-0.06766">
        <ele>485.2</ele>
        <time>2024-08-15T06:24:04Z</time>
      </trkpt>
      <trkpt lat="42.99344" lon="-0.06764">
        <ele>485.4</ele>
        <time>2024-08-15T06:24:05Z</time>
      </trkpt>
      <trkpt lat="42.99342" lon="-0.06763">
        <ele>485.8</ele>
        <time>2024-08-15T06:24:06Z</time>
      </trkpt>
      <trkpt lat="42.99339" lon="-0.06762">
        <ele>486</ele>
        <time>2024-08-15T06:24:07Z</time>
      </trkpt>
      <trkpt lat="42.99336" lon="-0.0676">
        <ele>486.2</ele>
        <time>2024-08-15T06:24:08Z</time>
      </trkpt>
      <trkpt lat="42.99334" lon="-0.06758">
        <ele>486.6</ele>
        <time>2024-08-15T06:24:09Z</time>
      </trkpt>
      <trkpt lat="42.99332" lon="-0.06757">
        <ele>486.6</ele>
        <time>2024-08-15T06:24:10Z</time>
      </trkpt>
      <trkpt lat="42.9933" lon="-0.06755">
        <ele>487</ele>
        <time>2024-08-15T06:24:11Z</time>
      </trkpt>
      <trkpt lat="42.99327" lon="-0.06753">
        <ele>487.2</ele>
        <time>2024-08-15T06:24:12Z</time>
      </trkpt>
      <trkpt lat="42.99324" lon="-0.0675">
        <ele>487.4</ele>
        <time>2024-08-15T06:24:13Z</time>
      </trkpt>
      <trkpt lat="42.99322" lon="-0.06748">
        <ele>487.4</ele>
        <time>2024-08-15T06:24:14Z</time>
      </trkpt>
      <trkpt lat="42.9932" lon="-0.06745">
        <ele>487.6</ele>
        <time>2024-08-15T06:24:15Z</time>
      </trkpt>
      <trkpt lat="42.99319" lon="-0.06741">
        <ele>488</ele>
        <time>2024-08-15T06:24:16Z</time>
      </trkpt>
      <trkpt lat="42.99317" lon="-0.06737">
        <ele>488</ele>
        <time>2024-08-15T06:24:17Z</time>
      </trkpt>
      <trkpt lat="42.99316" lon="-0.06733">
        <ele>488.2</ele>
        <time>2024-08-15T06:24:18Z</time>
      </trkpt>
      <trkpt lat="42.99315" lon="-0.06729">
        <ele>488.2</ele>
        <time>2024-08-15T06:24:19Z</time>
      </trkpt>
      <trkpt lat="42.99314" lon="-0.06726">
        <ele>488.4</ele>
        <time>2024-08-15T06:24:20Z</time>
      </trkpt>
      <trkpt lat="42.99313" lon="-0.06722">
        <ele>488.4</ele>
        <time>2024-08-15T06:24:21Z</time>
      </trkpt>
      <trkpt lat="42.99312" lon="-0.06718">
        <ele>488.6</ele>
        <time>2024-08-15T06:24:22Z</time>
      </trkpt>
      <trkpt lat="42.99311" lon="-0.06714">
        <ele>488.8</ele>
        <time>2024-08-15T06:24:23Z</time>
      </trkpt>
      <trkpt lat="42.9931" lon="-0.0671">
        <ele>489</ele>
        <time>2024-08-15T06:24:24Z</time>
      </trkpt>
      <trkpt lat="42.99309" lon="-0.06707">
        <ele>489.2</ele>
        <time>2024-08-15T06:24:25Z</time>
      </trkpt>
      <trkpt lat="42.99308" lon="-0.06704">
        <ele>489.2</ele>
        <time>2024-08-15T06:24:26Z</time>
      </trkpt>
      <trkpt lat="42.99307" lon="-0.067">
        <ele>489.6</ele>
        <time>2024-08-15T06:24:27Z</time>
      </trkpt>
      <trkpt lat="42.99306" lon="-0.06697">
        <ele>489.8</ele>
        <time>2024-08-15T06:24:28Z</time>
      </trkpt>
      <trkpt lat="42.99305" lon="-0.06694">
        <ele>490.2</ele>
        <time>2024-08-15T06:24:29Z</time>
      </trkpt>
      <trkpt lat="42.99304" lon="-0.06692">
        <ele>490.4</ele>
        <time>2024-08-15T06:24:30Z</time>
      </trkpt>
      <trkpt lat="42.99302" lon="-0.06689">
        <ele>490.6</ele>
        <time>2024-08-15T06:24:31Z</time>
      </trkpt>
      <trkpt lat="42.99301" lon="-0.06687">
        <ele>490.8</ele>
        <time>2024-08-15T06:24:32Z</time>
      </trkpt>
      <trkpt lat="42.993" lon="-0.06684">
        <ele>491</ele>
        <time>2024-08-15T06:24:33Z</time>
      </trkpt>
      <trkpt lat="42.99298" lon="-0.06681">
        <ele>491.2</ele>
        <time>2024-08-15T06:24:34Z</time>
      </trkpt>
      <trkpt lat="42.99296" lon="-0.06679">
        <ele>491.2</ele>
        <time>2024-08-15T06:24:35Z</time>
      </trkpt>
      <trkpt lat="42.99295" lon="-0.06678">
        <ele>491.4</ele>
        <time>2024-08-15T06:24:36Z</time>
      </trkpt>
      <trkpt lat="42.99293" lon="-0.06676">
        <ele>491.6</ele>
        <time>2024-08-15T06:24:37Z</time>
      </trkpt>
      <trkpt lat="42.99291" lon="-0.06674">
        <ele>492</ele>
        <time>2024-08-15T06:24:38Z</time>
      </trkpt>
      <trkpt lat="42.99288" lon="-0.06673">
        <ele>492.2</ele>
        <time>2024-08-15T06:24:39Z</time>
      </trkpt>
      <trkpt lat="42.99286" lon="-0.06672">
        <ele>492.2</ele>
        <time>2024-08-15T06:24:40Z</time>
      </trkpt>
      <trkpt lat="42.99285" lon="-0.06672">
        <ele>492.6</ele>
        <time>2024-08-15T06:24:41Z</time>
      </trkpt>
      <trkpt lat="42.99283" lon="-0.06671">
        <ele>492.8</ele>
        <time>2024-08-15T06:24:42Z</time>
      </trkpt>
      <trkpt lat="42.9928" lon="-0.06671">
        <ele>493</ele>
        <time>2024-08-15T06:24:43Z</time>
      </trkpt>
      <trkpt lat="42.99277" lon="-0.0667">
        <ele>493.2</ele>
        <time>2024-08-15T06:24:44Z</time>
      </trkpt>
      <trkpt lat="42.99276" lon="-0.0667">
        <ele>493.4</ele>
        <time>2024-08-15T06:24:45Z</time>
      </trkpt>
      <trkpt lat="42.99273" lon="-0.06669">
        <ele>493.8</ele>
        <time>2024-08-15T06:24:46Z</time>
      </trkpt>
      <trkpt lat="42.99271" lon="-0.06669">
        <ele>494.2</ele>
        <time>2024-08-15T06:24:47Z</time>
      </trkpt>
      <trkpt lat="42.99268" lon="-0.06669">
        <ele>494.4</ele>
        <time>2024-08-15T06:24:48Z</time>
      </trkpt>
      <trkpt lat="42.99266" lon="-0.06668">
        <ele>494.6</ele>
        <time>2024-08-15T06:24:49Z</time>
      </trkpt>
      <trkpt lat="42.99265" lon="-0.06667">
        <ele>495</ele>
        <time>2024-08-15T06:24:50Z</time>
      </trkpt>
      <trkpt lat="42.99263" lon="-0.06666">
        <ele>495.2</ele>
        <time>2024-08-15T06:24:51Z</time>
      </trkpt>
      <trkpt lat="42.99261" lon="-0.06665">
        <ele>495.6</ele>
        <time>2024-08-15T06:24:52Z</time>
      </trkpt>
      <trkpt lat="42.99258" lon="-0.06664">
        <ele>496</ele>
        <time>2024-08-15T06:24:53Z</time>
      </trkpt>
      <trkpt lat="42.99257" lon="-0.06663">
        <ele>496.2</ele>
        <time>2024-08-15T06:24:54Z</time>
      </trkpt>
      <trkpt lat="42.99255" lon="-0.06662">
        <ele>496.8</ele>
        <time>2024-08-15T06:24:55Z</time>
      </trkpt>
      <trkpt lat="42.99253" lon="-0.06661">
        <ele>497</ele>
        <time>2024-08-15T06:24:56Z</time>
      </trkpt>
      <trkpt lat="42.99251" lon="-0.06659">
        <ele>497.4</ele>
        <time>2024-08-15T06:24:57Z</time>
      </trkpt>
      <trkpt lat="42.99249" lon="-0.06657">
        <ele>497.6</ele>
        <time>2024-08-15T06:24:58Z</time>
      </trkpt>
      <trkpt lat="42.99248" lon="-0.06655">
        <ele>498</ele>
        <time>2024-08-15T06:24:59Z</time>
      </trkpt>
      <trkpt lat="42.99246" lon="-0.06654">
        <ele>498.2</ele>
        <time>2024-08-15T06:25:00Z</time>
      </trkpt>
      <trkpt lat="42.99245" lon="-0.06653">
        <ele>498.6</ele>
        <time>2024-08-15T06:25:01Z</time>
      </trkpt>
      <trkpt lat="42.99243" lon="-0.06651">
        <ele>498.6</ele>
        <time>2024-08-15T06:25:02Z</time>
      </trkpt>
      <trkpt lat="42.99241" lon="-0.06649">
        <ele>499</ele>
        <time>2024-08-15T06:25:03Z</time>
      </trkpt>
      <trkpt lat="42.9924" lon="-0.06647">
        <ele>499.4</ele>
        <time>2024-08-15T06:25:04Z</time>
      </trkpt>
      <trkpt lat="42.99239" lon="-0.06645">
        <ele>499.6</ele>
        <time>2024-08-15T06:25:05Z</time>
      </trkpt>
      <trkpt lat="42.99238" lon="-0.06643">
        <ele>499.8</ele>
        <time>2024-08-15T06:25:06Z</time>
      </trkpt>
      <trkpt lat="42.99237" lon="-0.06641">
        <ele>500</ele>
        <time>2024-08-15T06:25:07Z</time>
      </trkpt>
      <trkpt lat="42.99236" lon="-0.06638">
        <ele>500.4</ele>
        <time>2024-08-15T06:25:08Z</time>
      </trkpt>
      <trkpt lat="42.99234" lon="-0.06636">
        <ele>500.4</ele>
        <time>2024-08-15T06:25:09Z</time>
      </trkpt>
      <trkpt lat="42.99233" lon="-0.06633">
        <ele>500.8</ele>
        <time>2024-08-15T06:25:10Z</time>
      </trkpt>
      <trkpt lat="42.99232" lon="-0.06631">
        <ele>501.2</ele>
        <time>2024-08-15T06:25:11Z</time>
      </trkpt>
      <trkpt lat="42.9923" lon="-0.06629">
        <ele>501.4</ele>
        <time>2024-08-15T06:25:12Z</time>
      </trkpt>
      <trkpt lat="42.9923" lon="-0.06626">
        <ele>501.6</ele>
        <time>2024-08-15T06:25:13Z</time>
      </trkpt>
      <trkpt lat="42.99229" lon="-0.06624">
        <ele>501.8</ele>
        <time>2024-08-15T06:25:14Z</time>
      </trkpt>
      <trkpt lat="42.99229" lon="-0.0662">
        <ele>502</ele>
        <time>2024-08-15T06:25:15Z</time>
      </trkpt>
      <trkpt lat="42.99228" lon="-0.06618">
        <ele>502.2</ele>
        <time>2024-08-15T06:25:16Z</time>
      </trkpt>
      <trkpt lat="42.99228" lon="-0.06615">
        <ele>502.4</ele>
        <time>2024-08-15T06:25:17Z</time>
      </trkpt>
      <trkpt lat="42.99228" lon="-0.06611">
        <ele>502.6</ele>
        <time>2024-08-15T06:25:18Z</time>
      </trkpt>
      <trkpt lat="42.99228" lon="-0.06608">
        <ele>503</ele>
        <time>2024-08-15T06:25:19Z</time>
      </trkpt>
      <trkpt lat="42.99228" lon="-0.06605">
        <ele>503.2</ele>
        <time>2024-08-15T06:25:20Z</time>
      </trkpt>
      <trkpt lat="42.99228" lon="-0.06603">
        <ele>503.4</ele>
        <time>2024-08-15T06:25:21Z</time>
      </trkpt>
      <trkpt lat="42.99228" lon="-0.066">
        <ele>503.6</ele>
        <time>2024-08-15T06:25:22Z</time>
      </trkpt>
      <trkpt lat="42.99228" lon="-0.06596">
        <ele>503.8</ele>
        <time>2024-08-15T06:25:23Z</time>
      </trkpt>
      <trkpt lat="42.99228" lon="-0.06593">
        <ele>504.2</ele>
        <time>2024-08-15T06:25:24Z</time>
      </trkpt>
      <trkpt lat="42.99228" lon="-0.06591">
        <ele>504.4</ele>
        <time>2024-08-15T06:25:25Z</time>
      </trkpt>
      <trkpt lat="42.99228" lon="-0.06589">
        <ele>504.8</ele>
        <time>2024-08-15T06:25:26Z</time>
      </trkpt>
      <trkpt lat="42.99228" lon="-0.06586">
        <ele>505.2</ele>
        <time>2024-08-15T06:25:27Z</time>
      </trkpt>
      <trkpt lat="42.99228" lon="-0.06583">
        <ele>505.4</ele>
        <time>2024-08-15T06:25:28Z</time>
      </trkpt>
      <trkpt lat="42.99228" lon="-0.06579">
        <ele>505.6</ele>
        <time>2024-08-15T06:25:29Z</time>
      </trkpt>
      <trkpt lat="42.99228" lon="-0.06577">
        <ele>505.6</ele>
        <time>2024-08-15T06:25:30Z</time>
      </trkpt>
      <trkpt lat="42.99228" lon="-0.06574">
        <ele>505.8</ele>
        <time>2024-08-15T06:25:31Z</time>
      </trkpt>
      <trkpt lat="42.99228" lon="-0.06572">
        <ele>506</ele>
        <time>2024-08-15T06:25:32Z</time>
      </trkpt>
      <trkpt lat="42.99228" lon="-0.06569">
        <ele>506.2</ele>
        <time>2024-08-15T06:25:33Z</time>
      </trkpt>
      <trkpt lat="42.99228" lon="-0.06566">
        <ele>506.4</ele>
        <time>2024-08-15T06:25:34Z</time>
      </trkpt>
      <trkpt lat="42.99228" lon="-0.06563">
        <ele>506.8</ele>
        <time>2024-08-15T06:25:35Z</time>
      </trkpt>
      <trkpt lat="42.99228" lon="-0.06561">
        <ele>507.2</ele>
        <time>2024-08-15T06:25:36Z</time>
      </trkpt>
      <trkpt lat="42.99228" lon="-0.06558">
        <ele>507.2</ele>
        <time>2024-08-15T06:25:37Z</time>
      </trkpt>
      <trkpt lat="42.99228" lon="-0.06555">
        <ele>507.4</ele>
        <time>2024-08-15T06:25:38Z</time>
      </trkpt>
      <trkpt lat="42.99228" lon="-0.06551">
        <ele>507.6</ele>
        <time>2024-08-15T06:25:39Z</time>
      </trkpt>
      <trkpt lat="42.99229" lon="-0.06548">
        <ele>507.8</ele>
        <time>2024-08-15T06:25:40Z</time>
      </trkpt>
      <trkpt lat="42.99229" lon="-0.06546">
        <ele>508.4</ele>
        <time>2024-08-15T06:25:41Z</time>
      </trkpt>
      <trkpt lat="42.99229" lon="-0.06543">
        <ele>508.6</ele>
        <time>2024-08-15T06:25:42Z</time>
      </trkpt>
      <trkpt lat="42.99229" lon="-0.06541">
        <ele>508.8</ele>
        <time>2024-08-15T06:25:43Z</time>
      </trkpt>
      <trkpt lat="42.9923" lon="-0.06538">
        <ele>509</ele>
        <time>2024-08-15T06:25:44Z</time>
      </trkpt>
      <trkpt lat="42.99229" lon="-0.06535">
        <ele>509.2</ele>
        <time>2024-08-15T06:25:45Z</time>
      </trkpt>
      <trkpt lat="42.99229" lon="-0.06532">
        <ele>509.2</ele>
        <time>2024-08-15T06:25:46Z</time>
      </trkpt>
      <trkpt lat="42.9923" lon="-0.0653">
        <ele>509.4</ele>
        <time>2024-08-15T06:25:47Z</time>
      </trkpt>
      <trkpt lat="42.9923" lon="-0.06527">
        <ele>509.6</ele>
        <time>2024-08-15T06:25:48Z</time>
      </trkpt>
      <trkpt lat="42.9923" lon="-0.06525">
        <ele>510</ele>
        <time>2024-08-15T06:25:49Z</time>
      </trkpt>
      <trkpt lat="42.9923" lon="-0.06522">
        <ele>510.2</ele>
        <time>2024-08-15T06:25:50Z</time>
      </trkpt>
      <trkpt lat="42.9923" lon="-0.0652">
        <ele>510.4</ele>
        <time>2024-08-15T06:25:51Z</time>
      </trkpt>
      <trkpt lat="42.9923" lon="-0.06518">
        <ele>510.4</ele>
        <time>2024-08-15T06:25:52Z</time>
      </trkpt>
      <trkpt lat="42.9923" lon="-0.06516">
        <ele>510.6</ele>
        <time>2024-08-15T06:25:53Z</time>
      </trkpt>
      <trkpt lat="42.99229" lon="-0.06512">
        <ele>510.6</ele>
        <time>2024-08-15T06:25:54Z</time>
      </trkpt>
      <trkpt lat="42.99229" lon="-0.0651">
        <ele>510.8</ele>
        <time>2024-08-15T06:25:55Z</time>
      </trkpt>
      <trkpt lat="42.99229" lon="-0.06507">
        <ele>511.2</ele>
        <time>2024-08-15T06:25:56Z</time>
      </trkpt>
      <trkpt lat="42.99229" lon="-0.06505">
        <ele>511.2</ele>
        <time>2024-08-15T06:25:57Z</time>
      </trkpt>
      <trkpt lat="42.99229" lon="-0.06502">
        <ele>511.4</ele>
        <time>2024-08-15T06:25:58Z</time>
      </trkpt>
      <trkpt lat="42.99229" lon="-0.06499">
        <ele>511.6</ele>
        <time>2024-08-15T06:25:59Z</time>
      </trkpt>
      <trkpt lat="42.9923" lon="-0.06496">
        <ele>511.8</ele>
        <time>2024-08-15T06:26:00Z</time>
      </trkpt>
      <trkpt lat="42.99231" lon="-0.06493">
        <ele>512</ele>
        <time>2024-08-15T06:26:01Z</time>
      </trkpt>
      <trkpt lat="42.99231" lon="-0.0649">
        <ele>512.2</ele>
        <time>2024-08-15T06:26:02Z</time>
      </trkpt>
      <trkpt lat="42.99232" lon="-0.06487">
        <ele>512.6</ele>
        <time>2024-08-15T06:26:03Z</time>
      </trkpt>
      <trkpt lat="42.99232" lon="-0.06484">
        <ele>512.6</ele>
        <time>2024-08-15T06:26:04Z</time>
      </trkpt>
      <trkpt lat="42.99232" lon="-0.06481">
        <ele>512.8</ele>
        <time>2024-08-15T06:26:05Z</time>
      </trkpt>
      <trkpt lat="42.99233" lon="-0.06478">
        <ele>513</ele>
        <time>2024-08-15T06:26:06Z</time>
      </trkpt>
      <trkpt lat="42.99233" lon="-0.06476">
        <ele>513.2</ele>
        <time>2024-08-15T06:26:07Z</time>
      </trkpt>
      <trkpt lat="42.99233" lon="-0.06473">
        <ele>513.6</ele>
        <time>2024-08-15T06:26:08Z</time>
      </trkpt>
      <trkpt lat="42.99233" lon="-0.0647">
        <ele>513.6</ele>
        <time>2024-08-15T06:26:09Z</time>
      </trkpt>
      <trkpt lat="42.99233" lon="-0.06467">
        <ele>514</ele>
        <time>2024-08-15T06:26:10Z</time>
      </trkpt>
      <trkpt lat="42.99233" lon="-0.06464">
        <ele>514.2</ele>
        <time>2024-08-15T06:26:11Z</time>
      </trkpt>
      <trkpt lat="42.99234" lon="-0.06462">
        <ele>514.6</ele>
        <time>2024-08-15T06:26:12Z</time>
      </trkpt>
      <trkpt lat="42.99234" lon="-0.06459">
        <ele>514.8</ele>
        <time>2024-08-15T06:26:13Z</time>
      </trkpt>
      <trkpt lat="42.99233" lon="-0.06456">
        <ele>515</ele>
        <time>2024-08-15T06:26:14Z</time>
      </trkpt>
      <trkpt lat="42.99233" lon="-0.06453">
        <ele>515</ele>
        <time>2024-08-15T06:26:15Z</time>
      </trkpt>
      <trkpt lat="42.99233" lon="-0.0645">
        <ele>515.2</ele>
        <time>2024-08-15T06:26:16Z</time>
      </trkpt>
      <trkpt lat="42.99234" lon="-0.06447">
        <ele>515.6</ele>
        <time>2024-08-15T06:26:17Z</time>
      </trkpt>
      <trkpt lat="42.99234" lon="-0.06445">
        <ele>515.8</ele>
        <time>2024-08-15T06:26:18Z</time>
      </trkpt>
      <trkpt lat="42.99234" lon="-0.06443">
        <ele>516.2</ele>
        <time>2024-08-15T06:26:19Z</time>
      </trkpt>
      <trkpt lat="42.99235" lon="-0.0644">
        <ele>516.2</ele>
        <time>2024-08-15T06:26:20Z</time>
      </trkpt>
      <trkpt lat="42.99235" lon="-0.06439">
        <ele>516.4</ele>
        <time>2024-08-15T06:26:21Z</time>
      </trkpt>
      <trkpt lat="42.99235" lon="-0.06437">
        <ele>516.4</ele>
        <time>2024-08-15T06:26:22Z</time>
      </trkpt>
      <trkpt lat="42.99235" lon="-0.06434">
        <ele>516.8</ele>
        <time>2024-08-15T06:26:23Z</time>
      </trkpt>
      <trkpt lat="42.99235" lon="-0.06432">
        <ele>517</ele>
        <time>2024-08-15T06:26:24Z</time>
      </trkpt>
      <trkpt lat="42.99235" lon="-0.0643">
        <ele>517.2</ele>
        <time>2024-08-15T06:26:25Z</time>
      </trkpt>
      <trkpt lat="42.99235" lon="-0.06427">
        <ele>517.4</ele>
        <time>2024-08-15T06:26:26Z</time>
      </trkpt>
      <trkpt lat="42.99235" lon="-0.06425">
        <ele>517.6</ele>
        <time>2024-08-15T06:26:27Z</time>
      </trkpt>
      <trkpt lat="42.99235" lon="-0.06422">
        <ele>517.8</ele>
        <time>2024-08-15T06:26:28Z</time>
      </trkpt>
      <trkpt lat="42.99235" lon="-0.06419">
        <ele>518</ele>
        <time>2024-08-15T06:26:29Z</time>
      </trkpt>
      <trkpt lat="42.99235" lon="-0.06416">
        <ele>518.2</ele>
        <time>2024-08-15T06:26:30Z</time>
      </trkpt>
      <trkpt lat="42.99236" lon="-0.06414">
        <ele>518.4</ele>
        <time>2024-08-15T06:26:31Z</time>
      </trkpt>
      <trkpt lat="42.99236" lon="-0.06411">
        <ele>518.6</ele>
        <time>2024-08-15T06:26:32Z</time>
      </trkpt>
      <trkpt lat="42.99236" lon="-0.06407">
        <ele>518.8</ele>
        <time>2024-08-15T06:26:33Z</time>
      </trkpt>
      <trkpt lat="42.99237" lon="-0.06403">
        <ele>518.8</ele>
        <time>2024-08-15T06:26:34Z</time>
      </trkpt>
      <trkpt lat="42.99237" lon="-0.064">
        <ele>519.2</ele>
        <time>2024-08-15T06:26:35Z</time>
      </trkpt>
      <trkpt lat="42.99237" lon="-0.06397">
        <ele>519.2</ele>
        <time>2024-08-15T06:26:36Z</time>
      </trkpt>
      <trkpt lat="42.99237" lon="-0.06395">
        <ele>519.6</ele>
        <time>2024-08-15T06:26:37Z</time>
      </trkpt>
      <trkpt lat="42.99237" lon="-0.06392">
        <ele>519.6</ele>
        <time>2024-08-15T06:26:38Z</time>
      </trkpt>
      <trkpt lat="42.99237" lon="-0.06388">
        <ele>519.8</ele>
        <time>2024-08-15T06:26:39Z</time>
      </trkpt>
      <trkpt lat="42.99238" lon="-0.06385">
        <ele>520</ele>
        <time>2024-08-15T06:26:40Z</time>
      </trkpt>
      <trkpt lat="42.99238" lon="-0.06383">
        <ele>520.2</ele>
        <time>2024-08-15T06:26:41Z</time>
      </trkpt>
      <trkpt lat="42.99238" lon="-0.0638">
        <ele>520.4</ele>
        <time>2024-08-15T06:26:42Z</time>
      </trkpt>
      <trkpt lat="42.99238" lon="-0.06377">
        <ele>520.6</ele>
        <time>2024-08-15T06:26:43Z</time>
      </trkpt>
      <trkpt lat="42.99238" lon="-0.06374">
        <ele>520.8</ele>
        <time>2024-08-15T06:26:44Z</time>
      </trkpt>
      <trkpt lat="42.99238" lon="-0.06371">
        <ele>520.8</ele>
        <time>2024-08-15T06:26:45Z</time>
      </trkpt>
      <trkpt lat="42.99239" lon="-0.06368">
        <ele>521</ele>
        <time>2024-08-15T06:26:46Z</time>
      </trkpt>
      <trkpt lat="42.99239" lon="-0.06366">
        <ele>521.2</ele>
        <time>2024-08-15T06:26:47Z</time>
      </trkpt>
      <trkpt lat="42.99239" lon="-0.06364">
        <ele>521.6</ele>
        <time>2024-08-15T06:26:48Z</time>
      </trkpt>
      <trkpt lat="42.9924" lon="-0.06361">
        <ele>521.8</ele>
        <time>2024-08-15T06:26:49Z</time>
      </trkpt>
      <trkpt lat="42.99241" lon="-0.06358">
        <ele>522</ele>
        <time>2024-08-15T06:26:50Z</time>
      </trkpt>
      <trkpt lat="42.99242" lon="-0.06355">
        <ele>522.2</ele>
        <time>2024-08-15T06:26:51Z</time>
      </trkpt>
      <trkpt lat="42.9924" lon="-0.06352">
        <ele>522.4</ele>
        <time>2024-08-15T06:26:52Z</time>
      </trkpt>
      <trkpt lat="42.9924" lon="-0.06349">
        <ele>522.6</ele>
        <time>2024-08-15T06:26:53Z</time>
      </trkpt>
      <trkpt lat="42.9924" lon="-0.06346">
        <ele>522.6</ele>
        <time>2024-08-15T06:26:54Z</time>
      </trkpt>
      <trkpt lat="42.9924" lon="-0.06343">
        <ele>522.8</ele>
        <time>2024-08-15T06:26:55Z</time>
      </trkpt>
      <trkpt lat="42.99239" lon="-0.0634">
        <ele>522.8</ele>
        <time>2024-08-15T06:26:56Z</time>
      </trkpt>
      <trkpt lat="42.99239" lon="-0.06338">
        <ele>523</ele>
        <time>2024-08-15T06:26:57Z</time>
      </trkpt>
      <trkpt lat="42.99239" lon="-0.06336">
        <ele>523.4</ele>
        <time>2024-08-15T06:26:58Z</time>
      </trkpt>
      <trkpt lat="42.99239" lon="-0.06333">
        <ele>523.6</ele>
        <time>2024-08-15T06:26:59Z</time>
      </trkpt>
      <trkpt lat="42.99239" lon="-0.0633">
        <ele>523.8</ele>
        <time>2024-08-15T06:27:00Z</time>
      </trkpt>
      <trkpt lat="42.99239" lon="-0.06327">
        <ele>524</ele>
        <time>2024-08-15T06:27:01Z</time>
      </trkpt>
      <trkpt lat="42.99238" lon="-0.06325">
        <ele>524.2</ele>
        <time>2024-08-15T06:27:02Z</time>
      </trkpt>
      <trkpt lat="42.99238" lon="-0.06322">
        <ele>524.2</ele>
        <time>2024-08-15T06:27:03Z</time>
      </trkpt>
      <trkpt lat="42.99238" lon="-0.06319">
        <ele>524.4</ele>
        <time>2024-08-15T06:27:04Z</time>
      </trkpt>
      <trkpt lat="42.99238" lon="-0.06316">
        <ele>524.8</ele>
        <time>2024-08-15T06:27:05Z</time>
      </trkpt>
      <trkpt lat="42.99239" lon="-0.06313">
        <ele>525</ele>
        <time>2024-08-15T06:27:06Z</time>
      </trkpt>
      <trkpt lat="42.99239" lon="-0.06311">
        <ele>525.2</ele>
        <time>2024-08-15T06:27:07Z</time>
      </trkpt>
      <trkpt lat="42.99239" lon="-0.06307">
        <ele>525.2</ele>
        <time>2024-08-15T06:27:08Z</time>
      </trkpt>
      <trkpt lat="42.99238" lon="-0.06303">
        <ele>525.4</ele>
        <time>2024-08-15T06:27:09Z</time>
      </trkpt>
      <trkpt lat="42.99237" lon="-0.06299">
        <ele>525.4</ele>
        <time>2024-08-15T06:27:10Z</time>
      </trkpt>
      <trkpt lat="42.99236" lon="-0.06297">
        <ele>525.8</ele>
        <time>2024-08-15T06:27:11Z</time>
      </trkpt>
      <trkpt lat="42.99235" lon="-0.06295">
        <ele>525.8</ele>
        <time>2024-08-15T06:27:12Z</time>
      </trkpt>
      <trkpt lat="42.99234" lon="-0.06294">
        <ele>526</ele>
        <time>2024-08-15T06:27:13Z</time>
      </trkpt>
      <trkpt lat="42.99232" lon="-0.06292">
        <ele>526.2</ele>
        <time>2024-08-15T06:27:14Z</time>
      </trkpt>
      <trkpt lat="42.99232" lon="-0.06291">
        <ele>526.4</ele>
        <time>2024-08-15T06:27:15Z</time>
      </trkpt>
      <trkpt lat="42.99231" lon="-0.0629">
        <ele>526.8</ele>
        <time>2024-08-15T06:27:16Z</time>
      </trkpt>
      <trkpt lat="42.99229" lon="-0.06288">
        <ele>526.8</ele>
        <time>2024-08-15T06:27:17Z</time>
      </trkpt>
      <trkpt lat="42.99228" lon="-0.06286">
        <ele>527</ele>
        <time>2024-08-15T06:27:18Z</time>
      </trkpt>
      <trkpt lat="42.99226" lon="-0.06285">
        <ele>527.2</ele>
        <time>2024-08-15T06:27:19Z</time>
      </trkpt>
      <trkpt lat="42.99225" lon="-0.06284">
        <ele>527.4</ele>
        <time>2024-08-15T06:27:20Z</time>
      </trkpt>
      <trkpt lat="42.99223" lon="-0.06283">
        <ele>527.6</ele>
        <time>2024-08-15T06:27:21Z</time>
      </trkpt>
      <trkpt lat="42.99221" lon="-0.06281">
        <ele>527.8</ele>
        <time>2024-08-15T06:27:22Z</time>
      </trkpt>
      <trkpt lat="42.99219" lon="-0.0628">
        <ele>528</ele>
        <time>2024-08-15T06:27:23Z</time>
      </trkpt>
      <trkpt lat="42.99216" lon="-0.06279">
        <ele>528.2</ele>
        <time>2024-08-15T06:27:24Z</time>
      </trkpt>
      <trkpt lat="42.99214" lon="-0.06278">
        <ele>528.4</ele>
        <time>2024-08-15T06:27:25Z</time>
      </trkpt>
      <trkpt lat="42.99211" lon="-0.06277">
        <ele>528.6</ele>
        <time>2024-08-15T06:27:26Z</time>
      </trkpt>
      <trkpt lat="42.99208" lon="-0.06276">
        <ele>528.8</ele>
        <time>2024-08-15T06:27:27Z</time>
      </trkpt>
      <trkpt lat="42.99205" lon="-0.06276">
        <ele>528.8</ele>
        <time>2024-08-15T06:27:28Z</time>
      </trkpt>
      <trkpt lat="42.99203" lon="-0.06275">
        <ele>529</ele>
        <time>2024-08-15T06:27:29Z</time>
      </trkpt>
      <trkpt lat="42.992" lon="-0.06275">
        <ele>529.2</ele>
        <time>2024-08-15T06:27:30Z</time>
      </trkpt>
      <trkpt lat="42.99197" lon="-0.06276">
        <ele>529.4</ele>
        <time>2024-08-15T06:27:31Z</time>
      </trkpt>
      <trkpt lat="42.99194" lon="-0.06277">
        <ele>529.4</ele>
        <time>2024-08-15T06:27:32Z</time>
      </trkpt>
      <trkpt lat="42.99192" lon="-0.06279">
        <ele>529.6</ele>
        <time>2024-08-15T06:27:33Z</time>
      </trkpt>
      <trkpt lat="42.99188" lon="-0.0628">
        <ele>529.8</ele>
        <time>2024-08-15T06:27:34Z</time>
      </trkpt>
      <trkpt lat="42.99186" lon="-0.06281">
        <ele>530</ele>
        <time>2024-08-15T06:27:35Z</time>
      </trkpt>
      <trkpt lat="42.99184" lon="-0.06282">
        <ele>530.2</ele>
        <time>2024-08-15T06:27:36Z</time>
      </trkpt>
      <trkpt lat="42.99182" lon="-0.06284">
        <ele>530.2</ele>
        <time>2024-08-15T06:27:37Z</time>
      </trkpt>
      <trkpt lat="42.99179" lon="-0.06286">
        <ele>530.2</ele>
        <time>2024-08-15T06:27:38Z</time>
      </trkpt>
      <trkpt lat="42.99175" lon="-0.06288">
        <ele>530.2</ele>
        <time>2024-08-15T06:27:39Z</time>
      </trkpt>
      <trkpt lat="42.99173" lon="-0.06288">
        <ele>530.2</ele>
        <time>2024-08-15T06:27:40Z</time>
      </trkpt>
      <trkpt lat="42.99169" lon="-0.06287">
        <ele>530.4</ele>
        <time>2024-08-15T06:27:41Z</time>
      </trkpt>
      <trkpt lat="42.99166" lon="-0.06286">
        <ele>530.4</ele>
        <time>2024-08-15T06:27:42Z</time>
      </trkpt>
      <trkpt lat="42.99164" lon="-0.06285">
        <ele>530.6</ele>
        <time>2024-08-15T06:27:43Z</time>
      </trkpt>
      <trkpt lat="42.99161" lon="-0.06283">
        <ele>530.8</ele>
        <time>2024-08-15T06:27:44Z</time>
      </trkpt>
      <trkpt lat="42.99158" lon="-0.06282">
        <ele>530.8</ele>
        <time>2024-08-15T06:27:45Z</time>
      </trkpt>
      <trkpt lat="42.99155" lon="-0.06281">
        <ele>530.8</ele>
        <time>2024-08-15T06:27:46Z</time>
      </trkpt>
      <trkpt lat="42.99153" lon="-0.0628">
        <ele>531</ele>
        <time>2024-08-15T06:27:47Z</time>
      </trkpt>
      <trkpt lat="42.9915" lon="-0.06279">
        <ele>531</ele>
        <time>2024-08-15T06:27:48Z</time>
      </trkpt>
      <trkpt lat="42.99147" lon="-0.06278">
        <ele>531</ele>
        <time>2024-08-15T06:27:49Z</time>
      </trkpt>
      <trkpt lat="42.99145" lon="-0.06278">
        <ele>531.2</ele>
        <time>2024-08-15T06:27:50Z</time>
      </trkpt>
      <trkpt lat="42.99142" lon="-0.06277">
        <ele>531.4</ele>
        <time>2024-08-15T06:27:51Z</time>
      </trkpt>
      <trkpt lat="42.9914" lon="-0.06276">
        <ele>531.6</ele>
        <time>2024-08-15T06:27:52Z</time>
      </trkpt>
      <trkpt lat="42.99138" lon="-0.06275">
        <ele>531.8</ele>
        <time>2024-08-15T06:27:53Z</time>
      </trkpt>
      <trkpt lat="42.99135" lon="-0.06274">
        <ele>532</ele>
        <time>2024-08-15T06:27:54Z</time>
      </trkpt>
      <trkpt lat="42.99132" lon="-0.06273">
        <ele>532</ele>
        <time>2024-08-15T06:27:55Z</time>
      </trkpt>
      <trkpt lat="42.9913" lon="-0.06272">
        <ele>532</ele>
        <time>2024-08-15T06:27:56Z</time>
      </trkpt>
      <trkpt lat="42.99128" lon="-0.06272">
        <ele>532.2</ele>
        <time>2024-08-15T06:27:57Z</time>
      </trkpt>
      <trkpt lat="42.99126" lon="-0.06271">
        <ele>532.2</ele>
        <time>2024-08-15T06:27:58Z</time>
      </trkpt>
      <trkpt lat="42.99124" lon="-0.0627">
        <ele>532.2</ele>
        <time>2024-08-15T06:27:59Z</time>
      </trkpt>
      <trkpt lat="42.99123" lon="-0.0627">
        <ele>532.4</ele>
        <time>2024-08-15T06:28:00Z</time>
      </trkpt>
      <trkpt lat="42.99121" lon="-0.06269">
        <ele>532.4</ele>
        <time>2024-08-15T06:28:01Z</time>
      </trkpt>
      <trkpt lat="42.9912" lon="-0.06269">
        <ele>532.6</ele>
        <time>2024-08-15T06:28:02Z</time>
      </trkpt>
      <trkpt lat="42.99119" lon="-0.06268">
        <ele>532.8</ele>
        <time>2024-08-15T06:28:03Z</time>
      </trkpt>
      <trkpt lat="42.99116" lon="-0.06266">
        <ele>533</ele>
        <time>2024-08-15T06:28:04Z</time>
      </trkpt>
      <trkpt lat="42.99114" lon="-0.06264">
        <ele>533.2</ele>
        <time>2024-08-15T06:28:05Z</time>
      </trkpt>
      <trkpt lat="42.99112" lon="-0.06262">
        <ele>533.4</ele>
        <time>2024-08-15T06:28:06Z</time>
      </trkpt>
      <trkpt lat="42.9911" lon="-0.06261">
        <ele>533.6</ele>
        <time>2024-08-15T06:28:07Z</time>
      </trkpt>
      <trkpt lat="42.99108" lon="-0.06258">
        <ele>533.6</ele>
        <time>2024-08-15T06:28:08Z</time>
      </trkpt>
      <trkpt lat="42.99106" lon="-0.06256">
        <ele>534.2</ele>
        <time>2024-08-15T06:28:09Z</time>
      </trkpt>
      <trkpt lat="42.99105" lon="-0.06253">
        <ele>534.4</ele>
        <time>2024-08-15T06:28:10Z</time>
      </trkpt>
      <trkpt lat="42.99104" lon="-0.06249">
        <ele>534.6</ele>
        <time>2024-08-15T06:28:11Z</time>
      </trkpt>
      <trkpt lat="42.99103" lon="-0.06246">
        <ele>534.8</ele>
        <time>2024-08-15T06:28:12Z</time>
      </trkpt>
      <trkpt lat="42.99103" lon="-0.06243">
        <ele>535</ele>
        <time>2024-08-15T06:28:13Z</time>
      </trkpt>
      <trkpt lat="42.99103" lon="-0.0624">
        <ele>535.2</ele>
        <time>2024-08-15T06:28:14Z</time>
      </trkpt>
      <trkpt lat="42.99103" lon="-0.06237">
        <ele>535.4</ele>
        <time>2024-08-15T06:28:15Z</time>
      </trkpt>
      <trkpt lat="42.99104" lon="-0.06234">
        <ele>535.6</ele>
        <time>2024-08-15T06:28:16Z</time>
      </trkpt>
      <trkpt lat="42.99105" lon="-0.06232">
        <ele>535.8</ele>
        <time>2024-08-15T06:28:17Z</time>
      </trkpt>
      <trkpt lat="42.99106" lon="-0.06229">
        <ele>536.2</ele>
        <time>2024-08-15T06:28:18Z</time>
      </trkpt>
      <trkpt lat="42.99107" lon="-0.06227">
        <ele>536.4</ele>
        <time>2024-08-15T06:28:19Z</time>
      </trkpt>
      <trkpt lat="42.99108" lon="-0.06226">
        <ele>536.6</ele>
        <time>2024-08-15T06:28:20Z</time>
      </trkpt>
      <trkpt lat="42.99109" lon="-0.06224">
        <ele>536.6</ele>
        <time>2024-08-15T06:28:21Z</time>
      </trkpt>
      <trkpt lat="42.9911" lon="-0.06223">
        <ele>537</ele>
        <time>2024-08-15T06:28:22Z</time>
      </trkpt>
      <trkpt lat="42.9911" lon="-0.06221">
        <ele>537.2</ele>
        <time>2024-08-15T06:28:23Z</time>
      </trkpt>
      <trkpt lat="42.99111" lon="-0.06219">
        <ele>537.4</ele>
        <time>2024-08-15T06:28:24Z</time>
      </trkpt>
      <trkpt lat="42.99112" lon="-0.06218">
        <ele>537.8</ele>
        <time>2024-08-15T06:28:25Z</time>
      </trkpt>
      <trkpt lat="42.99113" lon="-0.06216">
        <ele>537.8</ele>
        <time>2024-08-15T06:28:26Z</time>
      </trkpt>
      <trkpt lat="42.99115" lon="-0.06215">
        <ele>538.4</ele>
        <time>2024-08-15T06:28:27Z</time>
      </trkpt>
      <trkpt lat="42.99116" lon="-0.06214">
        <ele>538.4</ele>
        <time>2024-08-15T06:28:28Z</time>
      </trkpt>
      <trkpt lat="42.99117" lon="-0.06214">
        <ele>538.6</ele>
        <time>2024-08-15T06:28:29Z</time>
      </trkpt>
      <trkpt lat="42.99119" lon="-0.06212">
        <ele>538.8</ele>
        <time>2024-08-15T06:28:30Z</time>
      </trkpt>
      <trkpt lat="42.99121" lon="-0.06211">
        <ele>539.2</ele>
        <time>2024-08-15T06:28:31Z</time>
      </trkpt>
      <trkpt lat="42.99123" lon="-0.0621">
        <ele>539.4</ele>
        <time>2024-08-15T06:28:32Z</time>
      </trkpt>
      <trkpt lat="42.99125" lon="-0.06209">
        <ele>539.8</ele>
        <time>2024-08-15T06:28:33Z</time>
      </trkpt>
      <trkpt lat="42.99128" lon="-0.06207">
        <ele>540.2</ele>
        <time>2024-08-15T06:28:34Z</time>
      </trkpt>
      <trkpt lat="42.9913" lon="-0.06205">
        <ele>540.4</ele>
        <time>2024-08-15T06:28:35Z</time>
      </trkpt>
      <trkpt lat="42.99132" lon="-0.06203">
        <ele>540.8</ele>
        <time>2024-08-15T06:28:36Z</time>
      </trkpt>
      <trkpt lat="42.99134" lon="-0.06201">
        <ele>541</ele>
        <time>2024-08-15T06:28:37Z</time>
      </trkpt>
      <trkpt lat="42.99135" lon="-0.06198">
        <ele>541.2</ele>
        <time>2024-08-15T06:28:38Z</time>
      </trkpt>
      <trkpt lat="42.99136" lon="-0.06197">
        <ele>541.4</ele>
        <time>2024-08-15T06:28:39Z</time>
      </trkpt>
      <trkpt lat="42.99138" lon="-0.06195">
        <ele>541.6</ele>
        <time>2024-08-15T06:28:40Z</time>
      </trkpt>
      <trkpt lat="42.99139" lon="-0.06194">
        <ele>542</ele>
        <time>2024-08-15T06:28:41Z</time>
      </trkpt>
      <trkpt lat="42.99141" lon="-0.06193">
        <ele>542.2</ele>
        <time>2024-08-15T06:28:42Z</time>
      </trkpt>
      <trkpt lat="42.99143" lon="-0.06192">
        <ele>542.4</ele>
        <time>2024-08-15T06:28:43Z</time>
      </trkpt>
      <trkpt lat="42.99145" lon="-0.0619">
        <ele>542.6</ele>
        <time>2024-08-15T06:28:44Z</time>
      </trkpt>
      <trkpt lat="42.99145" lon="-0.06188">
        <ele>542.8</ele>
        <time>2024-08-15T06:28:45Z</time>
      </trkpt>
      <trkpt lat="42.99146" lon="-0.06186">
        <ele>543</ele>
        <time>2024-08-15T06:28:46Z</time>
      </trkpt>
      <trkpt lat="42.99147" lon="-0.06184">
        <ele>543.4</ele>
        <time>2024-08-15T06:28:47Z</time>
      </trkpt>
      <trkpt lat="42.99149" lon="-0.06183">
        <ele>543.8</ele>
        <time>2024-08-15T06:28:48Z</time>
      </trkpt>
      <trkpt lat="42.9915" lon="-0.06181">
        <ele>544</ele>
        <time>2024-08-15T06:28:49Z</time>
      </trkpt>
      <trkpt lat="42.99151" lon="-0.06181">
        <ele>544.2</ele>
        <time>2024-08-15T06:28:50Z</time>
      </trkpt>
      <trkpt lat="42.99152" lon="-0.0618">
        <ele>544.4</ele>
        <time>2024-08-15T06:28:51Z</time>
      </trkpt>
      <trkpt lat="42.99153" lon="-0.06176">
        <ele>544.8</ele>
        <time>2024-08-15T06:28:52Z</time>
      </trkpt>
      <trkpt lat="42.99154" lon="-0.06175">
        <ele>545</ele>
        <time>2024-08-15T06:28:53Z</time>
      </trkpt>
      <trkpt lat="42.99157" lon="-0.06174">
        <ele>545.4</ele>
        <time>2024-08-15T06:28:54Z</time>
      </trkpt>
      <trkpt lat="42.99158" lon="-0.06172">
        <ele>545.6</ele>
        <time>2024-08-15T06:28:55Z</time>
      </trkpt>
      <trkpt lat="42.99161" lon="-0.06171">
        <ele>546</ele>
        <time>2024-08-15T06:28:56Z</time>
      </trkpt>
      <trkpt lat="42.99163" lon="-0.0617">
        <ele>546.2</ele>
        <time>2024-08-15T06:28:57Z</time>
      </trkpt>
      <trkpt lat="42.99165" lon="-0.06169">
        <ele>546.4</ele>
        <time>2024-08-15T06:28:58Z</time>
      </trkpt>
      <trkpt lat="42.99168" lon="-0.06167">
        <ele>546.6</ele>
        <time>2024-08-15T06:28:59Z</time>
      </trkpt>
      <trkpt lat="42.99171" lon="-0.06166">
        <ele>546.8</ele>
        <time>2024-08-15T06:29:00Z</time>
      </trkpt>
      <trkpt lat="42.99174" lon="-0.06166">
        <ele>547.2</ele>
        <time>2024-08-15T06:29:01Z</time>
      </trkpt>
      <trkpt lat="42.99176" lon="-0.06165">
        <ele>547.4</ele>
        <time>2024-08-15T06:29:02Z</time>
      </trkpt>
      <trkpt lat="42.99178" lon="-0.06165">
        <ele>547.6</ele>
        <time>2024-08-15T06:29:03Z</time>
      </trkpt>
      <trkpt lat="42.99181" lon="-0.06165">
        <ele>547.8</ele>
        <time>2024-08-15T06:29:04Z</time>
      </trkpt>
      <trkpt lat="42.99183" lon="-0.06163">
        <ele>547.8</ele>
        <time>2024-08-15T06:29:05Z</time>
      </trkpt>
      <trkpt lat="42.99186" lon="-0.06161">
        <ele>548.2</ele>
        <time>2024-08-15T06:29:06Z</time>
      </trkpt>
      <trkpt lat="42.9919" lon="-0.0616">
        <ele>548.4</ele>
        <time>2024-08-15T06:29:07Z</time>
      </trkpt>
      <trkpt lat="42.99191" lon="-0.0616">
        <ele>548.6</ele>
        <time>2024-08-15T06:29:08Z</time>
      </trkpt>
      <trkpt lat="42.99188" lon="-0.0616">
        <ele>548.6</ele>
        <time>2024-08-15T06:29:09Z</time>
      </trkpt>
      <trkpt lat="42.99189" lon="-0.06161">
        <ele>549</ele>
        <time>2024-08-15T06:29:10Z</time>
      </trkpt>
      <trkpt lat="42.99191" lon="-0.06161">
        <ele>549.2</ele>
        <time>2024-08-15T06:29:11Z</time>
      </trkpt>
      <trkpt lat="42.99194" lon="-0.06162">
        <ele>549.4</ele>
        <time>2024-08-15T06:29:12Z</time>
      </trkpt>
      <trkpt lat="42.99196" lon="-0.06163">
        <ele>549.6</ele>
        <time>2024-08-15T06:29:13Z</time>
      </trkpt>
      <trkpt lat="42.99198" lon="-0.06164">
        <ele>549.8</ele>
        <time>2024-08-15T06:29:14Z</time>
      </trkpt>
      <trkpt lat="42.992" lon="-0.06165">
        <ele>550</ele>
        <time>2024-08-15T06:29:15Z</time>
      </trkpt>
      <trkpt lat="42.99201" lon="-0.06166">
        <ele>550</ele>
        <time>2024-08-15T06:29:16Z</time>
      </trkpt>
      <trkpt lat="42.99203" lon="-0.06166">
        <ele>550.2</ele>
        <time>2024-08-15T06:29:17Z</time>
      </trkpt>
      <trkpt lat="42.99204" lon="-0.06167">
        <ele>550.4</ele>
        <time>2024-08-15T06:29:18Z</time>
      </trkpt>
      <trkpt lat="42.99206" lon="-0.06169">
        <ele>550.8</ele>
        <time>2024-08-15T06:29:19Z</time>
      </trkpt>
      <trkpt lat="42.99207" lon="-0.0617">
        <ele>551</ele>
        <time>2024-08-15T06:29:20Z</time>
      </trkpt>
      <trkpt lat="42.99209" lon="-0.06172">
        <ele>551</ele>
        <time>2024-08-15T06:29:21Z</time>
      </trkpt>
      <trkpt lat="42.99211" lon="-0.06173">
        <ele>551.2</ele>
        <time>2024-08-15T06:29:22Z</time>
      </trkpt>
      <trkpt lat="42.99212" lon="-0.06174">
        <ele>551.4</ele>
        <time>2024-08-15T06:29:23Z</time>
      </trkpt>
      <trkpt lat="42.99213" lon="-0.06175">
        <ele>551.6</ele>
        <time>2024-08-15T06:29:24Z</time>
      </trkpt>
      <trkpt lat="42.99215" lon="-0.06177">
        <ele>551.8</ele>
        <time>2024-08-15T06:29:25Z</time>
      </trkpt>
      <trkpt lat="42.99218" lon="-0.06178">
        <ele>552</ele>
        <time>2024-08-15T06:29:26Z</time>
      </trkpt>
      <trkpt lat="42.9922" lon="-0.0618">
        <ele>552.2</ele>
        <time>2024-08-15T06:29:27Z</time>
      </trkpt>
      <trkpt lat="42.99222" lon="-0.06182">
        <ele>552.4</ele>
        <time>2024-08-15T06:29:28Z</time>
      </trkpt>
      <trkpt lat="42.99225" lon="-0.06184">
        <ele>552.6</ele>
        <time>2024-08-15T06:29:29Z</time>
      </trkpt>
      <trkpt lat="42.99228" lon="-0.06186">
        <ele>552.6</ele>
        <time>2024-08-15T06:29:30Z</time>
      </trkpt>
      <trkpt lat="42.99231" lon="-0.06187">
        <ele>552.8</ele>
        <time>2024-08-15T06:29:31Z</time>
      </trkpt>
      <trkpt lat="42.99234" lon="-0.06189">
        <ele>552.8</ele>
        <time>2024-08-15T06:29:32Z</time>
      </trkpt>
      <trkpt lat="42.99236" lon="-0.06191">
        <ele>553</ele>
        <time>2024-08-15T06:29:33Z</time>
      </trkpt>
      <trkpt lat="42.9924" lon="-0.06194">
        <ele>553</ele>
        <time>2024-08-15T06:29:34Z</time>
      </trkpt>
      <trkpt lat="42.99243" lon="-0.06196">
        <ele>553.2</ele>
        <time>2024-08-15T06:29:35Z</time>
      </trkpt>
      <trkpt lat="42.99245" lon="-0.06196">
        <ele>553.4</ele>
        <time>2024-08-15T06:29:36Z</time>
      </trkpt>
      <trkpt lat="42.99247" lon="-0.06197">
        <ele>553.4</ele>
        <time>2024-08-15T06:29:37Z</time>
      </trkpt>
      <trkpt lat="42.99249" lon="-0.06198">
        <ele>553.6</ele>
        <time>2024-08-15T06:29:38Z</time>
      </trkpt>
      <trkpt lat="42.9925" lon="-0.06199">
        <ele>553.6</ele>
        <time>2024-08-15T06:29:39Z</time>
      </trkpt>
      <trkpt lat="42.99252" lon="-0.062">
        <ele>553.8</ele>
        <time>2024-08-15T06:29:40Z</time>
      </trkpt>
      <trkpt lat="42.99254" lon="-0.06201">
        <ele>553.8</ele>
        <time>2024-08-15T06:29:41Z</time>
      </trkpt>
      <trkpt lat="42.99258" lon="-0.06204">
        <ele>554</ele>
        <time>2024-08-15T06:29:42Z</time>
      </trkpt>
      <trkpt lat="42.9926" lon="-0.06206">
        <ele>554.2</ele>
        <time>2024-08-15T06:29:43Z</time>
      </trkpt>
      <trkpt lat="42.99262" lon="-0.06208">
        <ele>554.4</ele>
        <time>2024-08-15T06:29:44Z</time>
      </trkpt>
      <trkpt lat="42.99264" lon="-0.06209">
        <ele>554.6</ele>
        <time>2024-08-15T06:29:45Z</time>
      </trkpt>
      <trkpt lat="42.99266" lon="-0.0621">
        <ele>554.8</ele>
        <time>2024-08-15T06:29:46Z</time>
      </trkpt>
      <trkpt lat="42.99268" lon="-0.06212">
        <ele>555</ele>
        <time>2024-08-15T06:29:47Z</time>
      </trkpt>
      <trkpt lat="42.99269" lon="-0.06213">
        <ele>555</ele>
        <time>2024-08-15T06:29:48Z</time>
      </trkpt>
      <trkpt lat="42.99269" lon="-0.06215">
        <ele>555.2</ele>
        <time>2024-08-15T06:29:49Z</time>
      </trkpt>
      <trkpt lat="42.9927" lon="-0.06216">
        <ele>555.4</ele>
        <time>2024-08-15T06:29:50Z</time>
      </trkpt>
      <trkpt lat="42.99271" lon="-0.06217">
        <ele>555.6</ele>
        <time>2024-08-15T06:29:51Z</time>
      </trkpt>
      <trkpt lat="42.99272" lon="-0.06216">
        <ele>555.6</ele>
        <time>2024-08-15T06:29:52Z</time>
      </trkpt>
      <trkpt lat="42.99274" lon="-0.06216">
        <ele>555.8</ele>
        <time>2024-08-15T06:29:53Z</time>
      </trkpt>
      <trkpt lat="42.99275" lon="-0.06216">
        <ele>556</ele>
        <time>2024-08-15T06:29:54Z</time>
      </trkpt>
      <trkpt lat="42.99277" lon="-0.06216">
        <ele>556.2</ele>
        <time>2024-08-15T06:29:55Z</time>
      </trkpt>
      <trkpt lat="42.99279" lon="-0.06215">
        <ele>556.4</ele>
        <time>2024-08-15T06:29:56Z</time>
      </trkpt>
      <trkpt lat="42.99281" lon="-0.06215">
        <ele>556.8</ele>
        <time>2024-08-15T06:29:57Z</time>
      </trkpt>
      <trkpt lat="42.99282" lon="-0.06213">
        <ele>556.8</ele>
        <time>2024-08-15T06:29:58Z</time>
      </trkpt>
      <trkpt lat="42.99284" lon="-0.06211">
        <ele>557.2</ele>
        <time>2024-08-15T06:29:59Z</time>
      </trkpt>
      <trkpt lat="42.99285" lon="-0.06208">
        <ele>557.6</ele>
        <time>2024-08-15T06:30:00Z</time>
      </trkpt>
      <trkpt lat="42.99286" lon="-0.06206">
        <ele>557.8</ele>
        <time>2024-08-15T06:30:01Z</time>
      </trkpt>
      <trkpt lat="42.99285" lon="-0.06204">
        <ele>557.8</ele>
        <time>2024-08-15T06:30:02Z</time>
      </trkpt>
      <trkpt lat="42.99285" lon="-0.06202">
        <ele>558.2</ele>
        <time>2024-08-15T06:30:03Z</time>
      </trkpt>
      <trkpt lat="42.99284" lon="-0.06201">
        <ele>558.4</ele>
        <time>2024-08-15T06:30:04Z</time>
      </trkpt>
      <trkpt lat="42.99283" lon="-0.06199">
        <ele>558.8</ele>
        <time>2024-08-15T06:30:05Z</time>
      </trkpt>
      <trkpt lat="42.99283" lon="-0.06198">
        <ele>558.8</ele>
        <time>2024-08-15T06:30:06Z</time>
      </trkpt>
      <trkpt lat="42.99282" lon="-0.06197">
        <ele>559.2</ele>
        <time>2024-08-15T06:30:07Z</time>
      </trkpt>
      <trkpt lat="42.99281" lon="-0.06196">
        <ele>559.4</ele>
        <time>2024-08-15T06:30:08Z</time>
      </trkpt>
      <trkpt lat="42.99281" lon="-0.06195">
        <ele>559.8</ele>
        <time>2024-08-15T06:30:09Z</time>
      </trkpt>
      <trkpt lat="42.99281" lon="-0.06194">
        <ele>560</ele>
        <time>2024-08-15T06:30:10Z</time>
      </trkpt>
      <trkpt lat="42.9928" lon="-0.06193">
        <ele>560</ele>
        <time>2024-08-15T06:30:11Z</time>
      </trkpt>
      <trkpt lat="42.99278" lon="-0.06192">
        <ele>560.4</ele>
        <time>2024-08-15T06:30:12Z</time>
      </trkpt>
      <trkpt lat="42.99277" lon="-0.06191">
        <ele>560.4</ele>
        <time>2024-08-15T06:30:13Z</time>
      </trkpt>
      <trkpt lat="42.99276" lon="-0.06189">
        <ele>560.8</ele>
        <time>2024-08-15T06:30:14Z</time>
      </trkpt>
      <trkpt lat="42.99274" lon="-0.06189">
        <ele>561</ele>
        <time>2024-08-15T06:30:15Z</time>
      </trkpt>
      <trkpt lat="42.99273" lon="-0.06188">
        <ele>561.2</ele>
        <time>2024-08-15T06:30:16Z</time>
      </trkpt>
      <trkpt lat="42.99272" lon="-0.06186">
        <ele>561.6</ele>
        <time>2024-08-15T06:30:17Z</time>
      </trkpt>
      <trkpt lat="42.99271" lon="-0.06185">
        <ele>561.8</ele>
        <time>2024-08-15T06:30:18Z</time>
      </trkpt>
      <trkpt lat="42.9927" lon="-0.06184">
        <ele>562</ele>
        <time>2024-08-15T06:30:19Z</time>
      </trkpt>
      <trkpt lat="42.99269" lon="-0.06182">
        <ele>562.2</ele>
        <time>2024-08-15T06:30:20Z</time>
      </trkpt>
      <trkpt lat="42.99269" lon="-0.0618">
        <ele>562.6</ele>
        <time>2024-08-15T06:30:21Z</time>
      </trkpt>
      <trkpt lat="42.99267" lon="-0.06179">
        <ele>562.8</ele>
        <time>2024-08-15T06:30:22Z</time>
      </trkpt>
      <trkpt lat="42.99263" lon="-0.06178">
        <ele>562.8</ele>
        <time>2024-08-15T06:30:23Z</time>
      </trkpt>
      <trkpt lat="42.99261" lon="-0.06177">
        <ele>563</ele>
        <time>2024-08-15T06:30:24Z</time>
      </trkpt>
      <trkpt lat="42.9926" lon="-0.06176">
        <ele>563.2</ele>
        <time>2024-08-15T06:30:25Z</time>
      </trkpt>
      <trkpt lat="42.99259" lon="-0.06175">
        <ele>563.4</ele>
        <time>2024-08-15T06:30:26Z</time>
      </trkpt>
      <trkpt lat="42.99257" lon="-0.06173">
        <ele>563.4</ele>
        <time>2024-08-15T06:30:27Z</time>
      </trkpt>
      <trkpt lat="42.99256" lon="-0.06171">
        <ele>563.8</ele>
        <time>2024-08-15T06:30:28Z</time>
      </trkpt>
      <trkpt lat="42.99254" lon="-0.06168">
        <ele>563.8</ele>
        <time>2024-08-15T06:30:29Z</time>
      </trkpt>
      <trkpt lat="42.99252" lon="-0.06165">
        <ele>564</ele>
        <time>2024-08-15T06:30:30Z</time>
      </trkpt>
      <trkpt lat="42.9925" lon="-0.06163">
        <ele>564</ele>
        <time>2024-08-15T06:30:31Z</time>
      </trkpt>
      <trkpt lat="42.99249" lon="-0.06162">
        <ele>564.2</ele>
        <time>2024-08-15T06:30:32Z</time>
      </trkpt>
      <trkpt lat="42.99247" lon="-0.06161">
        <ele>564.8</ele>
        <time>2024-08-15T06:30:33Z</time>
      </trkpt>
      <trkpt lat="42.99244" lon="-0.0616">
        <ele>565</ele>
        <time>2024-08-15T06:30:34Z</time>
      </trkpt>
      <trkpt lat="42.99243" lon="-0.06158">
        <ele>565.2</ele>
        <time>2024-08-15T06:30:35Z</time>
      </trkpt>
      <trkpt lat="42.99242" lon="-0.06155">
        <ele>565.4</ele>
        <time>2024-08-15T06:30:36Z</time>
      </trkpt>
      <trkpt lat="42.99242" lon="-0.06153">
        <ele>565.8</ele>
        <time>2024-08-15T06:30:37Z</time>
      </trkpt>
      <trkpt lat="42.99242" lon="-0.06152">
        <ele>565.8</ele>
        <time>2024-08-15T06:30:38Z</time>
      </trkpt>
      <trkpt lat="42.99241" lon="-0.06152">
        <ele>566.2</ele>
        <time>2024-08-15T06:30:39Z</time>
      </trkpt>
      <trkpt lat="42.99238" lon="-0.0615">
        <ele>566.2</ele>
        <time>2024-08-15T06:30:40Z</time>
      </trkpt>
      <trkpt lat="42.99236" lon="-0.06148">
        <ele>566.6</ele>
        <time>2024-08-15T06:30:41Z</time>
      </trkpt>
      <trkpt lat="42.99235" lon="-0.06145">
        <ele>566.8</ele>
        <time>2024-08-15T06:30:42Z</time>
      </trkpt>
      <trkpt lat="42.99234" lon="-0.06143">
        <ele>566.8</ele>
        <time>2024-08-15T06:30:43Z</time>
      </trkpt>
      <trkpt lat="42.99234" lon="-0.06142">
        <ele>567.2</ele>
        <time>2024-08-15T06:30:44Z</time>
      </trkpt>
      <trkpt lat="42.99234" lon="-0.06141">
        <ele>567.4</ele>
        <time>2024-08-15T06:30:45Z</time>
      </trkpt>
      <trkpt lat="42.9923" lon="-0.06139">
        <ele>567.6</ele>
        <time>2024-08-15T06:30:46Z</time>
      </trkpt>
      <trkpt lat="42.99229" lon="-0.06137">
        <ele>567.8</ele>
        <time>2024-08-15T06:30:47Z</time>
      </trkpt>
      <trkpt lat="42.99228" lon="-0.06135">
        <ele>568</ele>
        <time>2024-08-15T06:30:48Z</time>
      </trkpt>
      <trkpt lat="42.99227" lon="-0.06133">
        <ele>568.4</ele>
        <time>2024-08-15T06:30:49Z</time>
      </trkpt>
      <trkpt lat="42.99226" lon="-0.06131">
        <ele>568.4</ele>
        <time>2024-08-15T06:30:50Z</time>
      </trkpt>
      <trkpt lat="42.99225" lon="-0.0613">
        <ele>568.8</ele>
        <time>2024-08-15T06:30:51Z</time>
      </trkpt>
      <trkpt lat="42.99225" lon="-0.06129">
        <ele>569</ele>
        <time>2024-08-15T06:30:52Z</time>
      </trkpt>
      <trkpt lat="42.99225" lon="-0.06128">
        <ele>569.4</ele>
        <time>2024-08-15T06:30:53Z</time>
      </trkpt>
      <trkpt lat="42.99224" lon="-0.06126">
        <ele>569.6</ele>
        <time>2024-08-15T06:30:54Z</time>
      </trkpt>
      <trkpt lat="42.99224" lon="-0.06124">
        <ele>569.8</ele>
        <time>2024-08-15T06:30:55Z</time>
      </trkpt>
      <trkpt lat="42.99224" lon="-0.06122">
        <ele>569.8</ele>
        <time>2024-08-15T06:30:56Z</time>
      </trkpt>
      <trkpt lat="42.99224" lon="-0.0612">
        <ele>570.2</ele>
        <time>2024-08-15T06:30:57Z</time>
      </trkpt>
      <trkpt lat="42.99223" lon="-0.06118">
        <ele>570.6</ele>
        <time>2024-08-15T06:30:58Z</time>
      </trkpt>
      <trkpt lat="42.99223" lon="-0.06116">
        <ele>570.8</ele>
        <time>2024-08-15T06:30:59Z</time>
      </trkpt>
      <trkpt lat="42.99222" lon="-0.06114">
        <ele>571.2</ele>
        <time>2024-08-15T06:31:00Z</time>
      </trkpt>
      <trkpt lat="42.99222" lon="-0.06112">
        <ele>571.4</ele>
        <time>2024-08-15T06:31:01Z</time>
      </trkpt>
      <trkpt lat="42.99222" lon="-0.0611">
        <ele>571.8</ele>
        <time>2024-08-15T06:31:02Z</time>
      </trkpt>
      <trkpt lat="42.99221" lon="-0.06108">
        <ele>571.8</ele>
        <time>2024-08-15T06:31:03Z</time>
      </trkpt>
      <trkpt lat="42.9922" lon="-0.06106">
        <ele>572.2</ele>
        <time>2024-08-15T06:31:04Z</time>
      </trkpt>
      <trkpt lat="42.9922" lon="-0.06103">
        <ele>572.4</ele>
        <time>2024-08-15T06:31:05Z</time>
      </trkpt>
      <trkpt lat="42.99219" lon="-0.061">
        <ele>572.6</ele>
        <time>2024-08-15T06:31:06Z</time>
      </trkpt>
      <trkpt lat="42.99217" lon="-0.06097">
        <ele>572.6</ele>
        <time>2024-08-15T06:31:07Z</time>
      </trkpt>
      <trkpt lat="42.99216" lon="-0.06095">
        <ele>572.8</ele>
        <time>2024-08-15T06:31:08Z</time>
      </trkpt>
      <trkpt lat="42.99215" lon="-0.06093">
        <ele>573.2</ele>
        <time>2024-08-15T06:31:09Z</time>
      </trkpt>
      <trkpt lat="42.99214" lon="-0.06092">
        <ele>573.4</ele>
        <time>2024-08-15T06:31:10Z</time>
      </trkpt>
      <trkpt lat="42.99212" lon="-0.06091">
        <ele>573.8</ele>
        <time>2024-08-15T06:31:11Z</time>
      </trkpt>
      <trkpt lat="42.9921" lon="-0.0609">
        <ele>573.8</ele>
        <time>2024-08-15T06:31:12Z</time>
      </trkpt>
      <trkpt lat="42.99208" lon="-0.06089">
        <ele>574.2</ele>
        <time>2024-08-15T06:31:13Z</time>
      </trkpt>
      <trkpt lat="42.99207" lon="-0.06088">
        <ele>574.4</ele>
        <time>2024-08-15T06:31:14Z</time>
      </trkpt>
      <trkpt lat="42.99206" lon="-0.06087">
        <ele>574.6</ele>
        <time>2024-08-15T06:31:15Z</time>
      </trkpt>
      <trkpt lat="42.99205" lon="-0.06085">
        <ele>574.8</ele>
        <time>2024-08-15T06:31:16Z</time>
      </trkpt>
      <trkpt lat="42.99204" lon="-0.06084">
        <ele>575</ele>
        <time>2024-08-15T06:31:17Z</time>
      </trkpt>
      <trkpt lat="42.99202" lon="-0.06083">
        <ele>575.2</ele>
        <time>2024-08-15T06:31:18Z</time>
      </trkpt>
      <trkpt lat="42.992" lon="-0.06082">
        <ele>575.4</ele>
        <time>2024-08-15T06:31:19Z</time>
      </trkpt>
      <trkpt lat="42.99199" lon="-0.06081">
        <ele>575.8</ele>
        <time>2024-08-15T06:31:20Z</time>
      </trkpt>
      <trkpt lat="42.99198" lon="-0.0608">
        <ele>575.8</ele>
        <time>2024-08-15T06:31:21Z</time>
      </trkpt>
      <trkpt lat="42.99196" lon="-0.06079">
        <ele>576</ele>
        <time>2024-08-15T06:31:22Z</time>
      </trkpt>
      <trkpt lat="42.99195" lon="-0.06078">
        <ele>576.4</ele>
        <time>2024-08-15T06:31:23Z</time>
      </trkpt>
      <trkpt lat="42.99194" lon="-0.06077">
        <ele>576.4</ele>
        <time>2024-08-15T06:31:24Z</time>
      </trkpt>
      <trkpt lat="42.99192" lon="-0.06076">
        <ele>577</ele>
        <time>2024-08-15T06:31:25Z</time>
      </trkpt>
      <trkpt lat="42.99191" lon="-0.06074">
        <ele>577</ele>
        <time>2024-08-15T06:31:26Z</time>
      </trkpt>
      <trkpt lat="42.9919" lon="-0.06073">
        <ele>577.4</ele>
        <time>2024-08-15T06:31:27Z</time>
      </trkpt>
      <trkpt lat="42.99189" lon="-0.06072">
        <ele>577.6</ele>
        <time>2024-08-15T06:31:28Z</time>
      </trkpt>
      <trkpt lat="42.99187" lon="-0.06071">
        <ele>577.8</ele>
        <time>2024-08-15T06:31:29Z</time>
      </trkpt>
      <trkpt lat="42.99186" lon="-0.0607">
        <ele>578.2</ele>
        <time>2024-08-15T06:31:30Z</time>
      </trkpt>
      <trkpt lat="42.99184" lon="-0.06068">
        <ele>578.2</ele>
        <time>2024-08-15T06:31:31Z</time>
      </trkpt>
      <trkpt lat="42.99183" lon="-0.06066">
        <ele>578.6</ele>
        <time>2024-08-15T06:31:32Z</time>
      </trkpt>
      <trkpt lat="42.99182" lon="-0.06065">
        <ele>578.6</ele>
        <time>2024-08-15T06:31:33Z</time>
      </trkpt>
      <trkpt lat="42.9918" lon="-0.06064">
        <ele>578.8</ele>
        <time>2024-08-15T06:31:34Z</time>
      </trkpt>
      <trkpt lat="42.99179" lon="-0.06062">
        <ele>579</ele>
        <time>2024-08-15T06:31:35Z</time>
      </trkpt>
      <trkpt lat="42.99178" lon="-0.0606">
        <ele>579.2</ele>
        <time>2024-08-15T06:31:36Z</time>
      </trkpt>
      <trkpt lat="42.99177" lon="-0.06059">
        <ele>579.6</ele>
        <time>2024-08-15T06:31:37Z</time>
      </trkpt>
      <trkpt lat="42.99176" lon="-0.06058">
        <ele>579.8</ele>
        <time>2024-08-15T06:31:38Z</time>
      </trkpt>
      <trkpt lat="42.99175" lon="-0.06057">
        <ele>580</ele>
        <time>2024-08-15T06:31:39Z</time>
      </trkpt>
      <trkpt lat="42.99174" lon="-0.06055">
        <ele>580.2</ele>
        <time>2024-08-15T06:31:40Z</time>
      </trkpt>
      <trkpt lat="42.99173" lon="-0.06053">
        <ele>580.6</ele>
        <time>2024-08-15T06:31:41Z</time>
      </trkpt>
      <trkpt lat="42.99171" lon="-0.06052">
        <ele>580.8</ele>
        <time>2024-08-15T06:31:42Z</time>
      </trkpt>
      <trkpt lat="42.9917" lon="-0.06051">
        <ele>581</ele>
        <time>2024-08-15T06:31:43Z</time>
      </trkpt>
      <trkpt lat="42.99168" lon="-0.0605">
        <ele>581</ele>
        <time>2024-08-15T06:31:44Z</time>
      </trkpt>
      <trkpt lat="42.99167" lon="-0.06048">
        <ele>581.4</ele>
        <time>2024-08-15T06:31:45Z</time>
      </trkpt>
      <trkpt lat="42.99165" lon="-0.06047">
        <ele>581.8</ele>
        <time>2024-08-15T06:31:46Z</time>
      </trkpt>
      <trkpt lat="42.99164" lon="-0.06046">
        <ele>582</ele>
        <time>2024-08-15T06:31:47Z</time>
      </trkpt>
      <trkpt lat="42.99163" lon="-0.06044">
        <ele>582.2</ele>
        <time>2024-08-15T06:31:48Z</time>
      </trkpt>
      <trkpt lat="42.99161" lon="-0.06044">
        <ele>582.4</ele>
        <time>2024-08-15T06:31:49Z</time>
      </trkpt>
      <trkpt lat="42.9916" lon="-0.06043">
        <ele>582.6</ele>
        <time>2024-08-15T06:31:50Z</time>
      </trkpt>
      <trkpt lat="42.99158" lon="-0.06042">
        <ele>582.8</ele>
        <time>2024-08-15T06:31:51Z</time>
      </trkpt>
      <trkpt lat="42.99156" lon="-0.06041">
        <ele>583.2</ele>
        <time>2024-08-15T06:31:52Z</time>
      </trkpt>
      <trkpt lat="42.99155" lon="-0.06041">
        <ele>583.4</ele>
        <time>2024-08-15T06:31:53Z</time>
      </trkpt>
      <trkpt lat="42.99153" lon="-0.0604">
        <ele>583.6</ele>
        <time>2024-08-15T06:31:54Z</time>
      </trkpt>
      <trkpt lat="42.99152" lon="-0.0604">
        <ele>583.8</ele>
        <time>2024-08-15T06:31:55Z</time>
      </trkpt>
      <trkpt lat="42.9915" lon="-0.0604">
        <ele>584</ele>
        <time>2024-08-15T06:31:56Z</time>
      </trkpt>
      <trkpt lat="42.99148" lon="-0.06039">
        <ele>584.2</ele>
        <time>2024-08-15T06:31:57Z</time>
      </trkpt>
      <trkpt lat="42.99146" lon="-0.06039">
        <ele>584.2</ele>
        <time>2024-08-15T06:31:58Z</time>
      </trkpt>
      <trkpt lat="42.99144" lon="-0.06039">
        <ele>584.6</ele>
        <time>2024-08-15T06:31:59Z</time>
      </trkpt>
      <trkpt lat="42.99143" lon="-0.06039">
        <ele>584.8</ele>
        <time>2024-08-15T06:32:00Z</time>
      </trkpt>
      <trkpt lat="42.99141" lon="-0.06039">
        <ele>584.8</ele>
        <time>2024-08-15T06:32:01Z</time>
      </trkpt>
      <trkpt lat="42.99139" lon="-0.0604">
        <ele>585.2</ele>
        <time>2024-08-15T06:32:02Z</time>
      </trkpt>
      <trkpt lat="42.99137" lon="-0.0604">
        <ele>585.2</ele>
        <time>2024-08-15T06:32:03Z</time>
      </trkpt>
      <trkpt lat="42.99136" lon="-0.0604">
        <ele>585.4</ele>
        <time>2024-08-15T06:32:04Z</time>
      </trkpt>
      <trkpt lat="42.99134" lon="-0.0604">
        <ele>585.4</ele>
        <time>2024-08-15T06:32:05Z</time>
      </trkpt>
      <trkpt lat="42.99132" lon="-0.0604">
        <ele>585.6</ele>
        <time>2024-08-15T06:32:06Z</time>
      </trkpt>
      <trkpt lat="42.9913" lon="-0.06039">
        <ele>585.8</ele>
        <time>2024-08-15T06:32:07Z</time>
      </trkpt>
      <trkpt lat="42.99128" lon="-0.06039">
        <ele>586.2</ele>
        <time>2024-08-15T06:32:08Z</time>
      </trkpt>
      <trkpt lat="42.99127" lon="-0.06039">
        <ele>586.4</ele>
        <time>2024-08-15T06:32:09Z</time>
      </trkpt>
      <trkpt lat="42.99125" lon="-0.06039">
        <ele>586.6</ele>
        <time>2024-08-15T06:32:10Z</time>
      </trkpt>
      <trkpt lat="42.99124" lon="-0.06038">
        <ele>586.8</ele>
        <time>2024-08-15T06:32:11Z</time>
      </trkpt>
      <trkpt lat="42.99122" lon="-0.06038">
        <ele>586.6</ele>
        <time>2024-08-15T06:32:12Z</time>
      </trkpt>
      <trkpt lat="42.9912" lon="-0.06038">
        <ele>586.8</ele>
        <time>2024-08-15T06:32:13Z</time>
      </trkpt>
      <trkpt lat="42.99119" lon="-0.06038">
        <ele>587</ele>
        <time>2024-08-15T06:32:14Z</time>
      </trkpt>
      <trkpt lat="42.99117" lon="-0.06038">
        <ele>587.2</ele>
        <time>2024-08-15T06:32:15Z</time>
      </trkpt>
      <trkpt lat="42.99116" lon="-0.06037">
        <ele>587.2</ele>
        <time>2024-08-15T06:32:16Z</time>
      </trkpt>
      <trkpt lat="42.99114" lon="-0.06037">
        <ele>587.4</ele>
        <time>2024-08-15T06:32:17Z</time>
      </trkpt>
      <trkpt lat="42.99113" lon="-0.06037">
        <ele>587.6</ele>
        <time>2024-08-15T06:32:18Z</time>
      </trkpt>
      <trkpt lat="42.99111" lon="-0.06038">
        <ele>587.8</ele>
        <time>2024-08-15T06:32:19Z</time>
      </trkpt>
      <trkpt lat="42.9911" lon="-0.06038">
        <ele>588</ele>
        <time>2024-08-15T06:32:20Z</time>
      </trkpt>
      <trkpt lat="42.99109" lon="-0.06038">
        <ele>588.2</ele>
        <time>2024-08-15T06:32:21Z</time>
      </trkpt>
      <trkpt lat="42.99107" lon="-0.06039">
        <ele>588.4</ele>
        <time>2024-08-15T06:32:22Z</time>
      </trkpt>
      <trkpt lat="42.99106" lon="-0.06039">
        <ele>588.6</ele>
        <time>2024-08-15T06:32:23Z</time>
      </trkpt>
      <trkpt lat="42.99104" lon="-0.06039">
        <ele>588.8</ele>
        <time>2024-08-15T06:32:24Z</time>
      </trkpt>
      <trkpt lat="42.99103" lon="-0.0604">
        <ele>589</ele>
        <time>2024-08-15T06:32:25Z</time>
      </trkpt>
      <trkpt lat="42.99102" lon="-0.0604">
        <ele>589.2</ele>
        <time>2024-08-15T06:32:26Z</time>
      </trkpt>
      <trkpt lat="42.991" lon="-0.06042">
        <ele>589.4</ele>
        <time>2024-08-15T06:32:27Z</time>
      </trkpt>
      <trkpt lat="42.99099" lon="-0.06043">
        <ele>589.6</ele>
        <time>2024-08-15T06:32:28Z</time>
      </trkpt>
      <trkpt lat="42.99098" lon="-0.06044">
        <ele>589.6</ele>
        <time>2024-08-15T06:32:29Z</time>
      </trkpt>
      <trkpt lat="42.99096" lon="-0.06046">
        <ele>589.8</ele>
        <time>2024-08-15T06:32:30Z</time>
      </trkpt>
      <trkpt lat="42.99095" lon="-0.06047">
        <ele>590</ele>
        <time>2024-08-15T06:32:31Z</time>
      </trkpt>
      <trkpt lat="42.99094" lon="-0.06049">
        <ele>590</ele>
        <time>2024-08-15T06:32:32Z</time>
      </trkpt>
      <trkpt lat="42.99093" lon="-0.0605">
        <ele>590.2</ele>
        <time>2024-08-15T06:32:33Z</time>
      </trkpt>
      <trkpt lat="42.99092" lon="-0.06052">
        <ele>590.4</ele>
        <time>2024-08-15T06:32:34Z</time>
      </trkpt>
      <trkpt lat="42.99091" lon="-0.06054">
        <ele>590.6</ele>
        <time>2024-08-15T06:32:35Z</time>
      </trkpt>
      <trkpt lat="42.9909" lon="-0.06056">
        <ele>590.8</ele>
        <time>2024-08-15T06:32:36Z</time>
      </trkpt>
      <trkpt lat="42.99089" lon="-0.06058">
        <ele>590.8</ele>
        <time>2024-08-15T06:32:37Z</time>
      </trkpt>
      <trkpt lat="42.99088" lon="-0.0606">
        <ele>591.2</ele>
        <time>2024-08-15T06:32:38Z</time>
      </trkpt>
      <trkpt lat="42.99087" lon="-0.06063">
        <ele>591.2</ele>
        <time>2024-08-15T06:32:39Z</time>
      </trkpt>
      <trkpt lat="42.99087" lon="-0.06065">
        <ele>591.4</ele>
        <time>2024-08-15T06:32:40Z</time>
      </trkpt>
      <trkpt lat="42.99086" lon="-0.06067">
        <ele>591.4</ele>
        <time>2024-08-15T06:32:41Z</time>
      </trkpt>
      <trkpt lat="42.99085" lon="-0.0607">
        <ele>591.6</ele>
        <time>2024-08-15T06:32:42Z</time>
      </trkpt>
      <trkpt lat="42.99085" lon="-0.06072">
        <ele>591.6</ele>
        <time>2024-08-15T06:32:43Z</time>
      </trkpt>
      <trkpt lat="42.99084" lon="-0.06074">
        <ele>591.8</ele>
        <time>2024-08-15T06:32:44Z</time>
      </trkpt>
      <trkpt lat="42.99083" lon="-0.06076">
        <ele>591.8</ele>
        <time>2024-08-15T06:32:45Z</time>
      </trkpt>
      <trkpt lat="42.99082" lon="-0.06078">
        <ele>592</ele>
        <time>2024-08-15T06:32:46Z</time>
      </trkpt>
      <trkpt lat="42.99082" lon="-0.06079">
        <ele>592.2</ele>
        <time>2024-08-15T06:32:47Z</time>
      </trkpt>
      <trkpt lat="42.99081" lon="-0.06082">
        <ele>592.2</ele>
        <time>2024-08-15T06:32:48Z</time>
      </trkpt>
      <trkpt lat="42.9908" lon="-0.06083">
        <ele>592.2</ele>
        <time>2024-08-15T06:32:49Z</time>
      </trkpt>
      <trkpt lat="42.99079" lon="-0.06085">
        <ele>592.4</ele>
        <time>2024-08-15T06:32:50Z</time>
      </trkpt>
      <trkpt lat="42.99078" lon="-0.06087">
        <ele>592.4</ele>
        <time>2024-08-15T06:32:51Z</time>
      </trkpt>
      <trkpt lat="42.99077" lon="-0.06089">
        <ele>592.6</ele>
        <time>2024-08-15T06:32:52Z</time>
      </trkpt>
      <trkpt lat="42.99075" lon="-0.0609">
        <ele>592.6</ele>
        <time>2024-08-15T06:32:53Z</time>
      </trkpt>
      <trkpt lat="42.99074" lon="-0.06091">
        <ele>593</ele>
        <time>2024-08-15T06:32:54Z</time>
      </trkpt>
      <trkpt lat="42.99073" lon="-0.06092">
        <ele>593</ele>
        <time>2024-08-15T06:32:55Z</time>
      </trkpt>
      <trkpt lat="42.99072" lon="-0.06094">
        <ele>593.2</ele>
        <time>2024-08-15T06:32:56Z</time>
      </trkpt>
      <trkpt lat="42.99071" lon="-0.06095">
        <ele>593.4</ele>
        <time>2024-08-15T06:32:57Z</time>
      </trkpt>
      <trkpt lat="42.9907" lon="-0.06096">
        <ele>593.6</ele>
        <time>2024-08-15T06:32:58Z</time>
      </trkpt>
      <trkpt lat="42.99069" lon="-0.06098">
        <ele>593.6</ele>
        <time>2024-08-15T06:32:59Z</time>
      </trkpt>
      <trkpt lat="42.99066" lon="-0.06098">
        <ele>593.6</ele>
        <time>2024-08-15T06:33:00Z</time>
      </trkpt>
      <trkpt lat="42.99063" lon="-0.06099">
        <ele>594</ele>
        <time>2024-08-15T06:33:01Z</time>
      </trkpt>
      <trkpt lat="42.99061" lon="-0.061">
        <ele>594.2</ele>
        <time>2024-08-15T06:33:02Z</time>
      </trkpt>
      <trkpt lat="42.9906" lon="-0.061">
        <ele>594.4</ele>
        <time>2024-08-15T06:33:03Z</time>
      </trkpt>
      <trkpt lat="42.99059" lon="-0.061">
        <ele>594.6</ele>
        <time>2024-08-15T06:33:04Z</time>
      </trkpt>
      <trkpt lat="42.99058" lon="-0.06101">
        <ele>595</ele>
        <time>2024-08-15T06:33:05Z</time>
      </trkpt>
      <trkpt lat="42.99056" lon="-0.06101">
        <ele>595</ele>
        <time>2024-08-15T06:33:06Z</time>
      </trkpt>
      <trkpt lat="42.99054" lon="-0.06101">
        <ele>595.2</ele>
        <time>2024-08-15T06:33:07Z</time>
      </trkpt>
      <trkpt lat="42.99052" lon="-0.06101">
        <ele>595.6</ele>
        <time>2024-08-15T06:33:08Z</time>
      </trkpt>
      <trkpt lat="42.99049" lon="-0.06101">
        <ele>595.6</ele>
        <time>2024-08-15T06:33:09Z</time>
      </trkpt>
      <trkpt lat="42.99046" lon="-0.061">
        <ele>595.8</ele>
        <time>2024-08-15T06:33:10Z</time>
      </trkpt>
      <trkpt lat="42.99043" lon="-0.061">
        <ele>596</ele>
        <time>2024-08-15T06:33:11Z</time>
      </trkpt>
      <trkpt lat="42.99041" lon="-0.06099">
        <ele>596.2</ele>
        <time>2024-08-15T06:33:12Z</time>
      </trkpt>
      <trkpt lat="42.99039" lon="-0.06099">
        <ele>596.6</ele>
        <time>2024-08-15T06:33:13Z</time>
      </trkpt>
      <trkpt lat="42.99036" lon="-0.06099">
        <ele>597</ele>
        <time>2024-08-15T06:33:14Z</time>
      </trkpt>
      <trkpt lat="42.99034" lon="-0.06098">
        <ele>597.4</ele>
        <time>2024-08-15T06:33:15Z</time>
      </trkpt>
      <trkpt lat="42.99033" lon="-0.06098">
        <ele>597.4</ele>
        <time>2024-08-15T06:33:16Z</time>
      </trkpt>
      <trkpt lat="42.99031" lon="-0.06098">
        <ele>597.8</ele>
        <time>2024-08-15T06:33:17Z</time>
      </trkpt>
      <trkpt lat="42.99029" lon="-0.06097">
        <ele>598</ele>
        <time>2024-08-15T06:33:18Z</time>
      </trkpt>
      <trkpt lat="42.99027" lon="-0.06097">
        <ele>598.4</ele>
        <time>2024-08-15T06:33:19Z</time>
      </trkpt>
      <trkpt lat="42.99026" lon="-0.06097">
        <ele>598.4</ele>
        <time>2024-08-15T06:33:20Z</time>
      </trkpt>
      <trkpt lat="42.99024" lon="-0.06097">
        <ele>598.8</ele>
        <time>2024-08-15T06:33:21Z</time>
      </trkpt>
      <trkpt lat="42.99023" lon="-0.06097">
        <ele>598.8</ele>
        <time>2024-08-15T06:33:22Z</time>
      </trkpt>
      <trkpt lat="42.99022" lon="-0.06098">
        <ele>599.4</ele>
        <time>2024-08-15T06:33:23Z</time>
      </trkpt>
      <trkpt lat="42.9902" lon="-0.06098">
        <ele>599.8</ele>
        <time>2024-08-15T06:33:24Z</time>
      </trkpt>
      <trkpt lat="42.99018" lon="-0.06098">
        <ele>599.8</ele>
        <time>2024-08-15T06:33:25Z</time>
      </trkpt>
      <trkpt lat="42.99016" lon="-0.06099">
        <ele>600</ele>
        <time>2024-08-15T06:33:26Z</time>
      </trkpt>
      <trkpt lat="42.99015" lon="-0.06099">
        <ele>600.2</ele>
        <time>2024-08-15T06:33:27Z</time>
      </trkpt>
      <trkpt lat="42.99013" lon="-0.061">
        <ele>600.4</ele>
        <time>2024-08-15T06:33:28Z</time>
      </trkpt>
      <trkpt lat="42.9901" lon="-0.06101">
        <ele>600.6</ele>
        <time>2024-08-15T06:33:29Z</time>
      </trkpt>
      <trkpt lat="42.99007" lon="-0.06102">
        <ele>600.8</ele>
        <time>2024-08-15T06:33:30Z</time>
      </trkpt>
      <trkpt lat="42.99005" lon="-0.06103">
        <ele>601</ele>
        <time>2024-08-15T06:33:31Z</time>
      </trkpt>
      <trkpt lat="42.99003" lon="-0.06104">
        <ele>601</ele>
        <time>2024-08-15T06:33:32Z</time>
      </trkpt>
      <trkpt lat="42.99002" lon="-0.06105">
        <ele>601.2</ele>
        <time>2024-08-15T06:33:33Z</time>
      </trkpt>
      <trkpt lat="42.99001" lon="-0.06106">
        <ele>601.4</ele>
        <time>2024-08-15T06:33:34Z</time>
      </trkpt>
      <trkpt lat="42.98999" lon="-0.06106">
        <ele>601.6</ele>
        <time>2024-08-15T06:33:35Z</time>
      </trkpt>
      <trkpt lat="42.98998" lon="-0.06107">
        <ele>601.8</ele>
        <time>2024-08-15T06:33:36Z</time>
      </trkpt>
      <trkpt lat="42.98997" lon="-0.06108">
        <ele>602</ele>
        <time>2024-08-15T06:33:37Z</time>
      </trkpt>
      <trkpt lat="42.98996" lon="-0.06109">
        <ele>602.2</ele>
        <time>2024-08-15T06:33:38Z</time>
      </trkpt>
      <trkpt lat="42.98996" lon="-0.0611">
        <ele>602.4</ele>
        <time>2024-08-15T06:33:39Z</time>
      </trkpt>
      <trkpt lat="42.98995" lon="-0.0611">
        <ele>602.6</ele>
        <time>2024-08-15T06:33:40Z</time>
      </trkpt>
      <trkpt lat="42.98993" lon="-0.06111">
        <ele>602.8</ele>
        <time>2024-08-15T06:33:41Z</time>
      </trkpt>
      <trkpt lat="42.98991" lon="-0.06111">
        <ele>603.2</ele>
        <time>2024-08-15T06:33:42Z</time>
      </trkpt>
      <trkpt lat="42.9899" lon="-0.06112">
        <ele>603.2</ele>
        <time>2024-08-15T06:33:43Z</time>
      </trkpt>
      <trkpt lat="42.98988" lon="-0.06112">
        <ele>603.4</ele>
        <time>2024-08-15T06:33:44Z</time>
      </trkpt>
      <trkpt lat="42.98987" lon="-0.06112">
        <ele>603.4</ele>
        <time>2024-08-15T06:33:45Z</time>
      </trkpt>
      <trkpt lat="42.98986" lon="-0.06112">
        <ele>603.8</ele>
        <time>2024-08-15T06:33:46Z</time>
      </trkpt>
      <trkpt lat="42.98984" lon="-0.06111">
        <ele>604.2</ele>
        <time>2024-08-15T06:33:47Z</time>
      </trkpt>
      <trkpt lat="42.98983" lon="-0.06109">
        <ele>604.2</ele>
        <time>2024-08-15T06:33:48Z</time>
      </trkpt>
      <trkpt lat="42.98982" lon="-0.06108">
        <ele>604.6</ele>
        <time>2024-08-15T06:33:49Z</time>
      </trkpt>
      <trkpt lat="42.98981" lon="-0.06106">
        <ele>604.8</ele>
        <time>2024-08-15T06:33:50Z</time>
      </trkpt>
      <trkpt lat="42.9898" lon="-0.06104">
        <ele>605</ele>
        <time>2024-08-15T06:33:51Z</time>
      </trkpt>
      <trkpt lat="42.9898" lon="-0.06103">
        <ele>605.2</ele>
        <time>2024-08-15T06:33:52Z</time>
      </trkpt>
      <trkpt lat="42.9898" lon="-0.06101">
        <ele>605.4</ele>
        <time>2024-08-15T06:33:53Z</time>
      </trkpt>
      <trkpt lat="42.98979" lon="-0.06099">
        <ele>605.4</ele>
        <time>2024-08-15T06:33:54Z</time>
      </trkpt>
      <trkpt lat="42.98979" lon="-0.06097">
        <ele>605.8</ele>
        <time>2024-08-15T06:33:55Z</time>
      </trkpt>
      <trkpt lat="42.98979" lon="-0.06094">
        <ele>606</ele>
        <time>2024-08-15T06:33:56Z</time>
      </trkpt>
      <trkpt lat="42.9898" lon="-0.06092">
        <ele>606.2</ele>
        <time>2024-08-15T06:33:57Z</time>
      </trkpt>
      <trkpt lat="42.98979" lon="-0.06091">
        <ele>606.2</ele>
        <time>2024-08-15T06:33:58Z</time>
      </trkpt>
      <trkpt lat="42.9898" lon="-0.0609">
        <ele>606.4</ele>
        <time>2024-08-15T06:33:59Z</time>
      </trkpt>
      <trkpt lat="42.98982" lon="-0.06088">
        <ele>606.6</ele>
        <time>2024-08-15T06:34:00Z</time>
      </trkpt>
      <trkpt lat="42.98983" lon="-0.06087">
        <ele>606.6</ele>
        <time>2024-08-15T06:34:01Z</time>
      </trkpt>
      <trkpt lat="42.98984" lon="-0.06085">
        <ele>607</ele>
        <time>2024-08-15T06:34:02Z</time>
      </trkpt>
      <trkpt lat="42.98985" lon="-0.06084">
        <ele>607</ele>
        <time>2024-08-15T06:34:03Z</time>
      </trkpt>
      <trkpt lat="42.98986" lon="-0.06083">
        <ele>607.4</ele>
        <time>2024-08-15T06:34:04Z</time>
      </trkpt>
      <trkpt lat="42.98988" lon="-0.06083">
        <ele>607.8</ele>
        <time>2024-08-15T06:34:05Z</time>
      </trkpt>
      <trkpt lat="42.9899" lon="-0.06082">
        <ele>607.8</ele>
        <time>2024-08-15T06:34:06Z</time>
      </trkpt>
      <trkpt lat="42.98991" lon="-0.06081">
        <ele>608</ele>
        <time>2024-08-15T06:34:07Z</time>
      </trkpt>
      <trkpt lat="42.98992" lon="-0.0608">
        <ele>608</ele>
        <time>2024-08-15T06:34:08Z</time>
      </trkpt>
      <trkpt lat="42.98994" lon="-0.06078">
        <ele>608.4</ele>
        <time>2024-08-15T06:34:09Z</time>
      </trkpt>
      <trkpt lat="42.98995" lon="-0.06078">
        <ele>608.4</ele>
        <time>2024-08-15T06:34:10Z</time>
      </trkpt>
      <trkpt lat="42.98997" lon="-0.06077">
        <ele>608.6</ele>
        <time>2024-08-15T06:34:11Z</time>
      </trkpt>
      <trkpt lat="42.98999" lon="-0.06076">
        <ele>608.8</ele>
        <time>2024-08-15T06:34:12Z</time>
      </trkpt>
      <trkpt lat="42.99" lon="-0.06075">
        <ele>609</ele>
        <time>2024-08-15T06:34:13Z</time>
      </trkpt>
      <trkpt lat="42.99002" lon="-0.06074">
        <ele>609.2</ele>
        <time>2024-08-15T06:34:14Z</time>
      </trkpt>
      <trkpt lat="42.99004" lon="-0.06073">
        <ele>609.4</ele>
        <time>2024-08-15T06:34:15Z</time>
      </trkpt>
      <trkpt lat="42.99006" lon="-0.06072">
        <ele>609.6</ele>
        <time>2024-08-15T06:34:16Z</time>
      </trkpt>
      <trkpt lat="42.99007" lon="-0.06071">
        <ele>609.8</ele>
        <time>2024-08-15T06:34:17Z</time>
      </trkpt>
      <trkpt lat="42.99009" lon="-0.0607">
        <ele>610</ele>
        <time>2024-08-15T06:34:18Z</time>
      </trkpt>
      <trkpt lat="42.99011" lon="-0.06069">
        <ele>610.2</ele>
        <time>2024-08-15T06:34:19Z</time>
      </trkpt>
      <trkpt lat="42.99012" lon="-0.06068">
        <ele>610.4</ele>
        <time>2024-08-15T06:34:20Z</time>
      </trkpt>
      <trkpt lat="42.99013" lon="-0.06067">
        <ele>610.6</ele>
        <time>2024-08-15T06:34:21Z</time>
      </trkpt>
      <trkpt lat="42.99015" lon="-0.06066">
        <ele>610.6</ele>
        <time>2024-08-15T06:34:22Z</time>
      </trkpt>
      <trkpt lat="42.99016" lon="-0.06065">
        <ele>610.8</ele>
        <time>2024-08-15T06:34:23Z</time>
      </trkpt>
      <trkpt lat="42.99018" lon="-0.06065">
        <ele>610.8</ele>
        <time>2024-08-15T06:34:24Z</time>
      </trkpt>
      <trkpt lat="42.99019" lon="-0.06064">
        <ele>611</ele>
        <time>2024-08-15T06:34:25Z</time>
      </trkpt>
      <trkpt lat="42.99021" lon="-0.06064">
        <ele>611.2</ele>
        <time>2024-08-15T06:34:26Z</time>
      </trkpt>
      <trkpt lat="42.99022" lon="-0.06063">
        <ele>611.2</ele>
        <time>2024-08-15T06:34:27Z</time>
      </trkpt>
      <trkpt lat="42.99024" lon="-0.06063">
        <ele>611.4</ele>
        <time>2024-08-15T06:34:28Z</time>
      </trkpt>
      <trkpt lat="42.99025" lon="-0.06062">
        <ele>611.6</ele>
        <time>2024-08-15T06:34:29Z</time>
      </trkpt>
      <trkpt lat="42.99026" lon="-0.06061">
        <ele>611.6</ele>
        <time>2024-08-15T06:34:30Z</time>
      </trkpt>
      <trkpt lat="42.99028" lon="-0.0606">
        <ele>611.8</ele>
        <time>2024-08-15T06:34:31Z</time>
      </trkpt>
      <trkpt lat="42.9903" lon="-0.06059">
        <ele>612</ele>
        <time>2024-08-15T06:34:32Z</time>
      </trkpt>
      <trkpt lat="42.99032" lon="-0.06057">
        <ele>612.2</ele>
        <time>2024-08-15T06:34:33Z</time>
      </trkpt>
      <trkpt lat="42.99033" lon="-0.06056">
        <ele>612.4</ele>
        <time>2024-08-15T06:34:34Z</time>
      </trkpt>
      <trkpt lat="42.99035" lon="-0.06054">
        <ele>612.4</ele>
        <time>2024-08-15T06:34:35Z</time>
      </trkpt>
      <trkpt lat="42.99037" lon="-0.06053">
        <ele>612.6</ele>
        <time>2024-08-15T06:34:36Z</time>
      </trkpt>
      <trkpt lat="42.99038" lon="-0.06051">
        <ele>612.8</ele>
        <time>2024-08-15T06:34:37Z</time>
      </trkpt>
      <trkpt lat="42.99039" lon="-0.0605">
        <ele>613</ele>
        <time>2024-08-15T06:34:38Z</time>
      </trkpt>
      <trkpt lat="42.99041" lon="-0.06048">
        <ele>613.2</ele>
        <time>2024-08-15T06:34:39Z</time>
      </trkpt>
      <trkpt lat="42.99042" lon="-0.06047">
        <ele>613.4</ele>
        <time>2024-08-15T06:34:40Z</time>
      </trkpt>
      <trkpt lat="42.99043" lon="-0.06045">
        <ele>613.6</ele>
        <time>2024-08-15T06:34:41Z</time>
      </trkpt>
      <trkpt lat="42.99043" lon="-0.06044">
        <ele>613.8</ele>
        <time>2024-08-15T06:34:42Z</time>
      </trkpt>
      <trkpt lat="42.99044" lon="-0.06042">
        <ele>614.4</ele>
        <time>2024-08-15T06:34:43Z</time>
      </trkpt>
      <trkpt lat="42.99045" lon="-0.0604">
        <ele>614.8</ele>
        <time>2024-08-15T06:34:44Z</time>
      </trkpt>
      <trkpt lat="42.99046" lon="-0.06039">
        <ele>614.8</ele>
        <time>2024-08-15T06:34:45Z</time>
      </trkpt>
      <trkpt lat="42.99047" lon="-0.06037">
        <ele>615</ele>
        <time>2024-08-15T06:34:46Z</time>
      </trkpt>
      <trkpt lat="42.99048" lon="-0.06036">
        <ele>615.2</ele>
        <time>2024-08-15T06:34:47Z</time>
      </trkpt>
      <trkpt lat="42.9905" lon="-0.06034">
        <ele>615.4</ele>
        <time>2024-08-15T06:34:48Z</time>
      </trkpt>
      <trkpt lat="42.99051" lon="-0.06032">
        <ele>615.4</ele>
        <time>2024-08-15T06:34:49Z</time>
      </trkpt>
      <trkpt lat="42.99052" lon="-0.0603">
        <ele>615.8</ele>
        <time>2024-08-15T06:34:50Z</time>
      </trkpt>
      <trkpt lat="42.99052" lon="-0.06028">
        <ele>616</ele>
        <time>2024-08-15T06:34:51Z</time>
      </trkpt>
      <trkpt lat="42.99053" lon="-0.06025">
        <ele>616.4</ele>
        <time>2024-08-15T06:34:52Z</time>
      </trkpt>
      <trkpt lat="42.99054" lon="-0.06023">
        <ele>616.6</ele>
        <time>2024-08-15T06:34:53Z</time>
      </trkpt>
      <trkpt lat="42.99056" lon="-0.06021">
        <ele>616.6</ele>
        <time>2024-08-15T06:34:54Z</time>
      </trkpt>
      <trkpt lat="42.99057" lon="-0.06018">
        <ele>617</ele>
        <time>2024-08-15T06:34:55Z</time>
      </trkpt>
      <trkpt lat="42.99058" lon="-0.06016">
        <ele>617</ele>
        <time>2024-08-15T06:34:56Z</time>
      </trkpt>
      <trkpt lat="42.99059" lon="-0.06013">
        <ele>617.4</ele>
        <time>2024-08-15T06:34:57Z</time>
      </trkpt>
      <trkpt lat="42.99061" lon="-0.06012">
        <ele>617.4</ele>
        <time>2024-08-15T06:34:58Z</time>
      </trkpt>
      <trkpt lat="42.99063" lon="-0.06011">
        <ele>617.6</ele>
        <time>2024-08-15T06:34:59Z</time>
      </trkpt>
      <trkpt lat="42.99064" lon="-0.06009">
        <ele>618</ele>
        <time>2024-08-15T06:35:00Z</time>
      </trkpt>
      <trkpt lat="42.99066" lon="-0.06007">
        <ele>618.2</ele>
        <time>2024-08-15T06:35:01Z</time>
      </trkpt>
      <trkpt lat="42.99067" lon="-0.06006">
        <ele>618.6</ele>
        <time>2024-08-15T06:35:02Z</time>
      </trkpt>
      <trkpt lat="42.99067" lon="-0.06003">
        <ele>618.8</ele>
        <time>2024-08-15T06:35:03Z</time>
      </trkpt>
      <trkpt lat="42.99068" lon="-0.06001">
        <ele>619</ele>
        <time>2024-08-15T06:35:04Z</time>
      </trkpt>
      <trkpt lat="42.9907" lon="-0.05999">
        <ele>619.2</ele>
        <time>2024-08-15T06:35:05Z</time>
      </trkpt>
      <trkpt lat="42.99071" lon="-0.05999">
        <ele>619.4</ele>
        <time>2024-08-15T06:35:06Z</time>
      </trkpt>
      <trkpt lat="42.99072" lon="-0.05997">
        <ele>619.4</ele>
        <time>2024-08-15T06:35:07Z</time>
      </trkpt>
      <trkpt lat="42.99073" lon="-0.05995">
        <ele>619.6</ele>
        <time>2024-08-15T06:35:08Z</time>
      </trkpt>
      <trkpt lat="42.99074" lon="-0.05993">
        <ele>620</ele>
        <time>2024-08-15T06:35:09Z</time>
      </trkpt>
      <trkpt lat="42.99075" lon="-0.05992">
        <ele>620.2</ele>
        <time>2024-08-15T06:35:10Z</time>
      </trkpt>
      <trkpt lat="42.99076" lon="-0.0599">
        <ele>620.6</ele>
        <time>2024-08-15T06:35:11Z</time>
      </trkpt>
      <trkpt lat="42.99076" lon="-0.05988">
        <ele>620.8</ele>
        <time>2024-08-15T06:35:12Z</time>
      </trkpt>
      <trkpt lat="42.99077" lon="-0.05986">
        <ele>621.2</ele>
        <time>2024-08-15T06:35:13Z</time>
      </trkpt>
      <trkpt lat="42.99077" lon="-0.05984">
        <ele>621.2</ele>
        <time>2024-08-15T06:35:14Z</time>
      </trkpt>
      <trkpt lat="42.99078" lon="-0.05982">
        <ele>621.4</ele>
        <time>2024-08-15T06:35:15Z</time>
      </trkpt>
      <trkpt lat="42.99079" lon="-0.0598">
        <ele>621.6</ele>
        <time>2024-08-15T06:35:16Z</time>
      </trkpt>
      <trkpt lat="42.9908" lon="-0.05978">
        <ele>621.6</ele>
        <time>2024-08-15T06:35:17Z</time>
      </trkpt>
      <trkpt lat="42.99081" lon="-0.05977">
        <ele>622</ele>
        <time>2024-08-15T06:35:18Z</time>
      </trkpt>
      <trkpt lat="42.99082" lon="-0.05976">
        <ele>622</ele>
        <time>2024-08-15T06:35:19Z</time>
      </trkpt>
      <trkpt lat="42.99082" lon="-0.05975">
        <ele>622.2</ele>
        <time>2024-08-15T06:35:20Z</time>
      </trkpt>
      <trkpt lat="42.99083" lon="-0.05973">
        <ele>622.4</ele>
        <time>2024-08-15T06:35:21Z</time>
      </trkpt>
      <trkpt lat="42.99084" lon="-0.05971">
        <ele>622.6</ele>
        <time>2024-08-15T06:35:22Z</time>
      </trkpt>
      <trkpt lat="42.99085" lon="-0.05969">
        <ele>622.8</ele>
        <time>2024-08-15T06:35:23Z</time>
      </trkpt>
      <trkpt lat="42.99086" lon="-0.05967">
        <ele>623</ele>
        <time>2024-08-15T06:35:24Z</time>
      </trkpt>
      <trkpt lat="42.99088" lon="-0.05965">
        <ele>623.2</ele>
        <time>2024-08-15T06:35:25Z</time>
      </trkpt>
      <trkpt lat="42.99089" lon="-0.05963">
        <ele>623.4</ele>
        <time>2024-08-15T06:35:26Z</time>
      </trkpt>
      <trkpt lat="42.99091" lon="-0.05961">
        <ele>623.6</ele>
        <time>2024-08-15T06:35:27Z</time>
      </trkpt>
      <trkpt lat="42.99092" lon="-0.0596">
        <ele>623.6</ele>
        <time>2024-08-15T06:35:28Z</time>
      </trkpt>
      <trkpt lat="42.99093" lon="-0.05957">
        <ele>623.8</ele>
        <time>2024-08-15T06:35:29Z</time>
      </trkpt>
      <trkpt lat="42.99094" lon="-0.05955">
        <ele>624</ele>
        <time>2024-08-15T06:35:30Z</time>
      </trkpt>
      <trkpt lat="42.99096" lon="-0.05953">
        <ele>624.2</ele>
        <time>2024-08-15T06:35:31Z</time>
      </trkpt>
      <trkpt lat="42.99098" lon="-0.05952">
        <ele>624.4</ele>
        <time>2024-08-15T06:35:32Z</time>
      </trkpt>
      <trkpt lat="42.991" lon="-0.05951">
        <ele>624.6</ele>
        <time>2024-08-15T06:35:33Z</time>
      </trkpt>
      <trkpt lat="42.99102" lon="-0.05949">
        <ele>624.8</ele>
        <time>2024-08-15T06:35:34Z</time>
      </trkpt>
      <trkpt lat="42.99103" lon="-0.05947">
        <ele>625</ele>
        <time>2024-08-15T06:35:35Z</time>
      </trkpt>
      <trkpt lat="42.99104" lon="-0.05946">
        <ele>625.2</ele>
        <time>2024-08-15T06:35:36Z</time>
      </trkpt>
      <trkpt lat="42.99105" lon="-0.05945">
        <ele>625.2</ele>
        <time>2024-08-15T06:35:37Z</time>
      </trkpt>
      <trkpt lat="42.99107" lon="-0.05943">
        <ele>625.4</ele>
        <time>2024-08-15T06:35:38Z</time>
      </trkpt>
      <trkpt lat="42.99107" lon="-0.05941">
        <ele>625.6</ele>
        <time>2024-08-15T06:35:39Z</time>
      </trkpt>
      <trkpt lat="42.99108" lon="-0.05939">
        <ele>625.8</ele>
        <time>2024-08-15T06:35:40Z</time>
      </trkpt>
      <trkpt lat="42.99108" lon="-0.05938">
        <ele>626</ele>
        <time>2024-08-15T06:35:41Z</time>
      </trkpt>
      <trkpt lat="42.9911" lon="-0.05936">
        <ele>626</ele>
        <time>2024-08-15T06:35:42Z</time>
      </trkpt>
      <trkpt lat="42.99111" lon="-0.05933">
        <ele>626.2</ele>
        <time>2024-08-15T06:35:43Z</time>
      </trkpt>
      <trkpt lat="42.99111" lon="-0.05931">
        <ele>626.2</ele>
        <time>2024-08-15T06:35:44Z</time>
      </trkpt>
      <trkpt lat="42.9911" lon="-0.05929">
        <ele>626.4</ele>
        <time>2024-08-15T06:35:45Z</time>
      </trkpt>
      <trkpt lat="42.99109" lon="-0.05928">
        <ele>626.4</ele>
        <time>2024-08-15T06:35:46Z</time>
      </trkpt>
      <trkpt lat="42.99108" lon="-0.05928">
        <ele>626.6</ele>
        <time>2024-08-15T06:35:47Z</time>
      </trkpt>
      <trkpt lat="42.99106" lon="-0.05929">
        <ele>626.8</ele>
        <time>2024-08-15T06:35:48Z</time>
      </trkpt>
      <trkpt lat="42.99104" lon="-0.05931">
        <ele>627</ele>
        <time>2024-08-15T06:35:49Z</time>
      </trkpt>
      <trkpt lat="42.99103" lon="-0.05932">
        <ele>627.2</ele>
        <time>2024-08-15T06:35:50Z</time>
      </trkpt>
      <trkpt lat="42.99101" lon="-0.05934">
        <ele>627.2</ele>
        <time>2024-08-15T06:35:51Z</time>
      </trkpt>
      <trkpt lat="42.991" lon="-0.05935">
        <ele>627.6</ele>
        <time>2024-08-15T06:35:52Z</time>
      </trkpt>
      <trkpt lat="42.99098" lon="-0.05936">
        <ele>627.6</ele>
        <time>2024-08-15T06:35:53Z</time>
      </trkpt>
      <trkpt lat="42.99097" lon="-0.05938">
        <ele>628</ele>
        <time>2024-08-15T06:35:54Z</time>
      </trkpt>
      <trkpt lat="42.99095" lon="-0.05939">
        <ele>628</ele>
        <time>2024-08-15T06:35:55Z</time>
      </trkpt>
      <trkpt lat="42.99094" lon="-0.0594">
        <ele>628.2</ele>
        <time>2024-08-15T06:35:56Z</time>
      </trkpt>
      <trkpt lat="42.99092" lon="-0.05942">
        <ele>628.4</ele>
        <time>2024-08-15T06:35:57Z</time>
      </trkpt>
      <trkpt lat="42.9909" lon="-0.05944">
        <ele>628.8</ele>
        <time>2024-08-15T06:35:58Z</time>
      </trkpt>
      <trkpt lat="42.99088" lon="-0.05946">
        <ele>629</ele>
        <time>2024-08-15T06:35:59Z</time>
      </trkpt>
      <trkpt lat="42.99086" lon="-0.05947">
        <ele>629.2</ele>
        <time>2024-08-15T06:36:00Z</time>
      </trkpt>
      <trkpt lat="42.99085" lon="-0.05948">
        <ele>629.4</ele>
        <time>2024-08-15T06:36:01Z</time>
      </trkpt>
      <trkpt lat="42.99083" lon="-0.0595">
        <ele>629.6</ele>
        <time>2024-08-15T06:36:02Z</time>
      </trkpt>
      <trkpt lat="42.99081" lon="-0.05951">
        <ele>629.8</ele>
        <time>2024-08-15T06:36:03Z</time>
      </trkpt>
      <trkpt lat="42.99079" lon="-0.05953">
        <ele>630</ele>
        <time>2024-08-15T06:36:04Z</time>
      </trkpt>
      <trkpt lat="42.99077" lon="-0.05955">
        <ele>630.2</ele>
        <time>2024-08-15T06:36:05Z</time>
      </trkpt>
      <trkpt lat="42.99075" lon="-0.05956">
        <ele>630.6</ele>
        <time>2024-08-15T06:36:06Z</time>
      </trkpt>
      <trkpt lat="42.99074" lon="-0.05957">
        <ele>630.6</ele>
        <time>2024-08-15T06:36:07Z</time>
      </trkpt>
      <trkpt lat="42.99072" lon="-0.05958">
        <ele>631</ele>
        <time>2024-08-15T06:36:08Z</time>
      </trkpt>
      <trkpt lat="42.99071" lon="-0.0596">
        <ele>631.2</ele>
        <time>2024-08-15T06:36:09Z</time>
      </trkpt>
      <trkpt lat="42.9907" lon="-0.05961">
        <ele>631.4</ele>
        <time>2024-08-15T06:36:10Z</time>
      </trkpt>
      <trkpt lat="42.99068" lon="-0.05962">
        <ele>631.4</ele>
        <time>2024-08-15T06:36:11Z</time>
      </trkpt>
      <trkpt lat="42.99068" lon="-0.05963">
        <ele>631.8</ele>
        <time>2024-08-15T06:36:12Z</time>
      </trkpt>
      <trkpt lat="42.99066" lon="-0.05964">
        <ele>632</ele>
        <time>2024-08-15T06:36:13Z</time>
      </trkpt>
      <trkpt lat="42.99065" lon="-0.05966">
        <ele>632.4</ele>
        <time>2024-08-15T06:36:14Z</time>
      </trkpt>
      <trkpt lat="42.99063" lon="-0.05967">
        <ele>632.8</ele>
        <time>2024-08-15T06:36:15Z</time>
      </trkpt>
      <trkpt lat="42.99062" lon="-0.05969">
        <ele>633</ele>
        <time>2024-08-15T06:36:16Z</time>
      </trkpt>
      <trkpt lat="42.99061" lon="-0.0597">
        <ele>633.4</ele>
        <time>2024-08-15T06:36:17Z</time>
      </trkpt>
      <trkpt lat="42.99059" lon="-0.05971">
        <ele>633.4</ele>
        <time>2024-08-15T06:36:18Z</time>
      </trkpt>
      <trkpt lat="42.99056" lon="-0.05973">
        <ele>633.6</ele>
        <time>2024-08-15T06:36:19Z</time>
      </trkpt>
      <trkpt lat="42.99054" lon="-0.05974">
        <ele>633.8</ele>
        <time>2024-08-15T06:36:20Z</time>
      </trkpt>
      <trkpt lat="42.99052" lon="-0.05975">
        <ele>634</ele>
        <time>2024-08-15T06:36:21Z</time>
      </trkpt>
      <trkpt lat="42.9905" lon="-0.05977">
        <ele>634.4</ele>
        <time>2024-08-15T06:36:22Z</time>
      </trkpt>
      <trkpt lat="42.99048" lon="-0.05978">
        <ele>634.4</ele>
        <time>2024-08-15T06:36:23Z</time>
      </trkpt>
      <trkpt lat="42.99046" lon="-0.05979">
        <ele>634.8</ele>
        <time>2024-08-15T06:36:24Z</time>
      </trkpt>
      <trkpt lat="42.99044" lon="-0.0598">
        <ele>635</ele>
        <time>2024-08-15T06:36:25Z</time>
      </trkpt>
      <trkpt lat="42.99041" lon="-0.05981">
        <ele>635.2</ele>
        <time>2024-08-15T06:36:26Z</time>
      </trkpt>
      <trkpt lat="42.99039" lon="-0.05982">
        <ele>635.4</ele>
        <time>2024-08-15T06:36:27Z</time>
      </trkpt>
      <trkpt lat="42.99037" lon="-0.05984">
        <ele>635.6</ele>
        <time>2024-08-15T06:36:28Z</time>
      </trkpt>
      <trkpt lat="42.99034" lon="-0.05986">
        <ele>635.6</ele>
        <time>2024-08-15T06:36:29Z</time>
      </trkpt>
      <trkpt lat="42.99031" lon="-0.05987">
        <ele>636</ele>
        <time>2024-08-15T06:36:30Z</time>
      </trkpt>
      <trkpt lat="42.99028" lon="-0.05988">
        <ele>636.2</ele>
        <time>2024-08-15T06:36:31Z</time>
      </trkpt>
      <trkpt lat="42.99026" lon="-0.05989">
        <ele>636.4</ele>
        <time>2024-08-15T06:36:32Z</time>
      </trkpt>
      <trkpt lat="42.99024" lon="-0.0599">
        <ele>636.6</ele>
        <time>2024-08-15T06:36:33Z</time>
      </trkpt>
      <trkpt lat="42.99021" lon="-0.05992">
        <ele>636.8</ele>
        <time>2024-08-15T06:36:34Z</time>
      </trkpt>
      <trkpt lat="42.99019" lon="-0.05992">
        <ele>637.2</ele>
        <time>2024-08-15T06:36:35Z</time>
      </trkpt>
      <trkpt lat="42.99017" lon="-0.05993">
        <ele>637.2</ele>
        <time>2024-08-15T06:36:36Z</time>
      </trkpt>
      <trkpt lat="42.99015" lon="-0.05993">
        <ele>637.4</ele>
        <time>2024-08-15T06:36:37Z</time>
      </trkpt>
      <trkpt lat="42.99013" lon="-0.05993">
        <ele>637.6</ele>
        <time>2024-08-15T06:36:38Z</time>
      </trkpt>
      <trkpt lat="42.99011" lon="-0.05993">
        <ele>637.8</ele>
        <time>2024-08-15T06:36:39Z</time>
      </trkpt>
      <trkpt lat="42.99009" lon="-0.05993">
        <ele>638.2</ele>
        <time>2024-08-15T06:36:40Z</time>
      </trkpt>
      <trkpt lat="42.99007" lon="-0.05993">
        <ele>638.4</ele>
        <time>2024-08-15T06:36:41Z</time>
      </trkpt>
      <trkpt lat="42.99005" lon="-0.05993">
        <ele>638.6</ele>
        <time>2024-08-15T06:36:42Z</time>
      </trkpt>
      <trkpt lat="42.99003" lon="-0.05992">
        <ele>638.8</ele>
        <time>2024-08-15T06:36:43Z</time>
      </trkpt>
      <trkpt lat="42.99001" lon="-0.05991">
        <ele>639</ele>
        <time>2024-08-15T06:36:44Z</time>
      </trkpt>
      <trkpt lat="42.98999" lon="-0.0599">
        <ele>639</ele>
        <time>2024-08-15T06:36:45Z</time>
      </trkpt>
      <trkpt lat="42.98996" lon="-0.05989">
        <ele>639.2</ele>
        <time>2024-08-15T06:36:46Z</time>
      </trkpt>
      <trkpt lat="42.98994" lon="-0.05988">
        <ele>639.6</ele>
        <time>2024-08-15T06:36:47Z</time>
      </trkpt>
      <trkpt lat="42.98992" lon="-0.05987">
        <ele>639.6</ele>
        <time>2024-08-15T06:36:48Z</time>
      </trkpt>
      <trkpt lat="42.9899" lon="-0.05986">
        <ele>640</ele>
        <time>2024-08-15T06:36:49Z</time>
      </trkpt>
      <trkpt lat="42.98989" lon="-0.05985">
        <ele>640.2</ele>
        <time>2024-08-15T06:36:50Z</time>
      </trkpt>
      <trkpt lat="42.98987" lon="-0.05983">
        <ele>640.6</ele>
        <time>2024-08-15T06:36:51Z</time>
      </trkpt>
      <trkpt lat="42.98986" lon="-0.05982">
        <ele>640.8</ele>
        <time>2024-08-15T06:36:52Z</time>
      </trkpt>
      <trkpt lat="42.98984" lon="-0.05981">
        <ele>641</ele>
        <time>2024-08-15T06:36:53Z</time>
      </trkpt>
      <trkpt lat="42.98982" lon="-0.0598">
        <ele>641.4</ele>
        <time>2024-08-15T06:36:54Z</time>
      </trkpt>
      <trkpt lat="42.9898" lon="-0.05978">
        <ele>641.6</ele>
        <time>2024-08-15T06:36:55Z</time>
      </trkpt>
      <trkpt lat="42.98979" lon="-0.05976">
        <ele>642</ele>
        <time>2024-08-15T06:36:56Z</time>
      </trkpt>
      <trkpt lat="42.98977" lon="-0.05974">
        <ele>642</ele>
        <time>2024-08-15T06:36:57Z</time>
      </trkpt>
      <trkpt lat="42.98976" lon="-0.05972">
        <ele>642.2</ele>
        <time>2024-08-15T06:36:58Z</time>
      </trkpt>
      <trkpt lat="42.98974" lon="-0.05969">
        <ele>642.4</ele>
        <time>2024-08-15T06:36:59Z</time>
      </trkpt>
      <trkpt lat="42.98973" lon="-0.05966">
        <ele>642.8</ele>
        <time>2024-08-15T06:37:00Z</time>
      </trkpt>
      <trkpt lat="42.98973" lon="-0.05963">
        <ele>643</ele>
        <time>2024-08-15T06:37:01Z</time>
      </trkpt>
      <trkpt lat="42.98972" lon="-0.0596">
        <ele>643.2</ele>
        <time>2024-08-15T06:37:02Z</time>
      </trkpt>
      <trkpt lat="42.98971" lon="-0.05958">
        <ele>643.4</ele>
        <time>2024-08-15T06:37:03Z</time>
      </trkpt>
      <trkpt lat="42.9897" lon="-0.05955">
        <ele>643.6</ele>
        <time>2024-08-15T06:37:04Z</time>
      </trkpt>
      <trkpt lat="42.9897" lon="-0.05952">
        <ele>644</ele>
        <time>2024-08-15T06:37:05Z</time>
      </trkpt>
      <trkpt lat="42.98969" lon="-0.05949">
        <ele>644</ele>
        <time>2024-08-15T06:37:06Z</time>
      </trkpt>
      <trkpt lat="42.98968" lon="-0.05947">
        <ele>644.4</ele>
        <time>2024-08-15T06:37:07Z</time>
      </trkpt>
      <trkpt lat="42.98967" lon="-0.05945">
        <ele>644.4</ele>
        <time>2024-08-15T06:37:08Z</time>
      </trkpt>
      <trkpt lat="42.98967" lon="-0.05942">
        <ele>644.8</ele>
        <time>2024-08-15T06:37:09Z</time>
      </trkpt>
      <trkpt lat="42.98967" lon="-0.0594">
        <ele>645</ele>
        <time>2024-08-15T06:37:10Z</time>
      </trkpt>
      <trkpt lat="42.98966" lon="-0.05937">
        <ele>645.4</ele>
        <time>2024-08-15T06:37:11Z</time>
      </trkpt>
      <trkpt lat="42.98966" lon="-0.05934">
        <ele>645.6</ele>
        <time>2024-08-15T06:37:12Z</time>
      </trkpt>
      <trkpt lat="42.98965" lon="-0.05933">
        <ele>645.8</ele>
        <time>2024-08-15T06:37:13Z</time>
      </trkpt>
      <trkpt lat="42.98964" lon="-0.05931">
        <ele>646</ele>
        <time>2024-08-15T06:37:14Z</time>
      </trkpt>
      <trkpt lat="42.98963" lon="-0.05929">
        <ele>646.2</ele>
        <time>2024-08-15T06:37:15Z</time>
      </trkpt>
      <trkpt lat="42.98961" lon="-0.05926">
        <ele>646.8</ele>
        <time>2024-08-15T06:37:16Z</time>
      </trkpt>
      <trkpt lat="42.98961" lon="-0.05925">
        <ele>646.8</ele>
        <time>2024-08-15T06:37:17Z</time>
      </trkpt>
      <trkpt lat="42.9896" lon="-0.05922">
        <ele>647.2</ele>
        <time>2024-08-15T06:37:18Z</time>
      </trkpt>
      <trkpt lat="42.98959" lon="-0.0592">
        <ele>647.4</ele>
        <time>2024-08-15T06:37:19Z</time>
      </trkpt>
      <trkpt lat="42.98957" lon="-0.05918">
        <ele>647.6</ele>
        <time>2024-08-15T06:37:20Z</time>
      </trkpt>
      <trkpt lat="42.98955" lon="-0.05916">
        <ele>648</ele>
        <time>2024-08-15T06:37:21Z</time>
      </trkpt>
      <trkpt lat="42.98954" lon="-0.05913">
        <ele>648.2</ele>
        <time>2024-08-15T06:37:22Z</time>
      </trkpt>
      <trkpt lat="42.98953" lon="-0.05911">
        <ele>648.4</ele>
        <time>2024-08-15T06:37:23Z</time>
      </trkpt>
      <trkpt lat="42.98951" lon="-0.0591">
        <ele>648.6</ele>
        <time>2024-08-15T06:37:24Z</time>
      </trkpt>
      <trkpt lat="42.9895" lon="-0.05907">
        <ele>648.8</ele>
        <time>2024-08-15T06:37:25Z</time>
      </trkpt>
      <trkpt lat="42.98949" lon="-0.05905">
        <ele>649</ele>
        <time>2024-08-15T06:37:26Z</time>
      </trkpt>
      <trkpt lat="42.98947" lon="-0.05903">
        <ele>649.2</ele>
        <time>2024-08-15T06:37:27Z</time>
      </trkpt>
      <trkpt lat="42.98946" lon="-0.059">
        <ele>649.6</ele>
        <time>2024-08-15T06:37:28Z</time>
      </trkpt>
      <trkpt lat="42.98944" lon="-0.05898">
        <ele>649.8</ele>
        <time>2024-08-15T06:37:29Z</time>
      </trkpt>
      <trkpt lat="42.98942" lon="-0.05897">
        <ele>650.2</ele>
        <time>2024-08-15T06:37:30Z</time>
      </trkpt>
      <trkpt lat="42.98941" lon="-0.05894">
        <ele>650.2</ele>
        <time>2024-08-15T06:37:31Z</time>
      </trkpt>
      <trkpt lat="42.98939" lon="-0.05892">
        <ele>650.4</ele>
        <time>2024-08-15T06:37:32Z</time>
      </trkpt>
      <trkpt lat="42.98938" lon="-0.05889">
        <ele>650.4</ele>
        <time>2024-08-15T06:37:33Z</time>
      </trkpt>
      <trkpt lat="42.98937" lon="-0.05888">
        <ele>650.6</ele>
        <time>2024-08-15T06:37:34Z</time>
      </trkpt>
      <trkpt lat="42.98936" lon="-0.05886">
        <ele>651</ele>
        <time>2024-08-15T06:37:35Z</time>
      </trkpt>
      <trkpt lat="42.98935" lon="-0.05883">
        <ele>651</ele>
        <time>2024-08-15T06:37:36Z</time>
      </trkpt>
      <trkpt lat="42.98933" lon="-0.05881">
        <ele>651.2</ele>
        <time>2024-08-15T06:37:37Z</time>
      </trkpt>
      <trkpt lat="42.98932" lon="-0.05879">
        <ele>651.4</ele>
        <time>2024-08-15T06:37:38Z</time>
      </trkpt>
      <trkpt lat="42.98931" lon="-0.05877">
        <ele>651.6</ele>
        <time>2024-08-15T06:37:39Z</time>
      </trkpt>
      <trkpt lat="42.9893" lon="-0.05875">
        <ele>651.8</ele>
        <time>2024-08-15T06:37:40Z</time>
      </trkpt>
      <trkpt lat="42.98929" lon="-0.05873">
        <ele>652.4</ele>
        <time>2024-08-15T06:37:41Z</time>
      </trkpt>
      <trkpt lat="42.98928" lon="-0.0587">
        <ele>652.2</ele>
        <time>2024-08-15T06:37:42Z</time>
      </trkpt>
      <trkpt lat="42.98927" lon="-0.05868">
        <ele>652.6</ele>
        <time>2024-08-15T06:37:43Z</time>
      </trkpt>
      <trkpt lat="42.98926" lon="-0.05866">
        <ele>653</ele>
        <time>2024-08-15T06:37:44Z</time>
      </trkpt>
      <trkpt lat="42.98925" lon="-0.05864">
        <ele>653.2</ele>
        <time>2024-08-15T06:37:45Z</time>
      </trkpt>
      <trkpt lat="42.98924" lon="-0.05861">
        <ele>653.2</ele>
        <time>2024-08-15T06:37:46Z</time>
      </trkpt>
      <trkpt lat="42.98923" lon="-0.05859">
        <ele>653.6</ele>
        <time>2024-08-15T06:37:47Z</time>
      </trkpt>
      <trkpt lat="42.98921" lon="-0.05858">
        <ele>653.6</ele>
        <time>2024-08-15T06:37:48Z</time>
      </trkpt>
      <trkpt lat="42.98919" lon="-0.05856">
        <ele>653.8</ele>
        <time>2024-08-15T06:37:49Z</time>
      </trkpt>
      <trkpt lat="42.98918" lon="-0.05854">
        <ele>654</ele>
        <time>2024-08-15T06:37:50Z</time>
      </trkpt>
      <trkpt lat="42.98917" lon="-0.05852">
        <ele>654.6</ele>
        <time>2024-08-15T06:37:51Z</time>
      </trkpt>
      <trkpt lat="42.98915" lon="-0.0585">
        <ele>654.6</ele>
        <time>2024-08-15T06:37:52Z</time>
      </trkpt>
      <trkpt lat="42.98914" lon="-0.05848">
        <ele>654.6</ele>
        <time>2024-08-15T06:37:53Z</time>
      </trkpt>
      <trkpt lat="42.98912" lon="-0.05846">
        <ele>654.8</ele>
        <time>2024-08-15T06:37:54Z</time>
      </trkpt>
      <trkpt lat="42.9891" lon="-0.05843">
        <ele>655</ele>
        <time>2024-08-15T06:37:55Z</time>
      </trkpt>
      <trkpt lat="42.98909" lon="-0.05841">
        <ele>655.4</ele>
        <time>2024-08-15T06:37:56Z</time>
      </trkpt>
      <trkpt lat="42.98907" lon="-0.05839">
        <ele>655.4</ele>
        <time>2024-08-15T06:37:57Z</time>
      </trkpt>
      <trkpt lat="42.98905" lon="-0.05837">
        <ele>655.6</ele>
        <time>2024-08-15T06:37:58Z</time>
      </trkpt>
      <trkpt lat="42.98904" lon="-0.05835">
        <ele>656</ele>
        <time>2024-08-15T06:37:59Z</time>
      </trkpt>
      <trkpt lat="42.98902" lon="-0.05834">
        <ele>656.4</ele>
        <time>2024-08-15T06:38:00Z</time>
      </trkpt>
      <trkpt lat="42.98901" lon="-0.05832">
        <ele>656.4</ele>
        <time>2024-08-15T06:38:01Z</time>
      </trkpt>
      <trkpt lat="42.989" lon="-0.0583">
        <ele>656.8</ele>
        <time>2024-08-15T06:38:02Z</time>
      </trkpt>
      <trkpt lat="42.98899" lon="-0.05829">
        <ele>656.8</ele>
        <time>2024-08-15T06:38:03Z</time>
      </trkpt>
      <trkpt lat="42.98898" lon="-0.05827">
        <ele>657.2</ele>
        <time>2024-08-15T06:38:04Z</time>
      </trkpt>
      <trkpt lat="42.98896" lon="-0.05826">
        <ele>657.2</ele>
        <time>2024-08-15T06:38:05Z</time>
      </trkpt>
      <trkpt lat="42.98895" lon="-0.05825">
        <ele>657.6</ele>
        <time>2024-08-15T06:38:06Z</time>
      </trkpt>
      <trkpt lat="42.98893" lon="-0.05824">
        <ele>658</ele>
        <time>2024-08-15T06:38:07Z</time>
      </trkpt>
      <trkpt lat="42.98892" lon="-0.05822">
        <ele>658.2</ele>
        <time>2024-08-15T06:38:08Z</time>
      </trkpt>
      <trkpt lat="42.98892" lon="-0.05818">
        <ele>658.6</ele>
        <time>2024-08-15T06:38:09Z</time>
      </trkpt>
      <trkpt lat="42.98891" lon="-0.05816">
        <ele>658.8</ele>
        <time>2024-08-15T06:38:10Z</time>
      </trkpt>
      <trkpt lat="42.98889" lon="-0.05815">
        <ele>659</ele>
        <time>2024-08-15T06:38:11Z</time>
      </trkpt>
      <trkpt lat="42.98887" lon="-0.05814">
        <ele>659</ele>
        <time>2024-08-15T06:38:12Z</time>
      </trkpt>
      <trkpt lat="42.98885" lon="-0.05813">
        <ele>659.4</ele>
        <time>2024-08-15T06:38:13Z</time>
      </trkpt>
      <trkpt lat="42.98882" lon="-0.05812">
        <ele>659.4</ele>
        <time>2024-08-15T06:38:14Z</time>
      </trkpt>
      <trkpt lat="42.9888" lon="-0.05811">
        <ele>659.8</ele>
        <time>2024-08-15T06:38:15Z</time>
      </trkpt>
      <trkpt lat="42.98877" lon="-0.05809">
        <ele>660.4</ele>
        <time>2024-08-15T06:38:16Z</time>
      </trkpt>
      <trkpt lat="42.98875" lon="-0.05807">
        <ele>660.6</ele>
        <time>2024-08-15T06:38:17Z</time>
      </trkpt>
      <trkpt lat="42.98874" lon="-0.05806">
        <ele>660.8</ele>
        <time>2024-08-15T06:38:18Z</time>
      </trkpt>
      <trkpt lat="42.98872" lon="-0.05805">
        <ele>661</ele>
        <time>2024-08-15T06:38:19Z</time>
      </trkpt>
      <trkpt lat="42.9887" lon="-0.05804">
        <ele>661.4</ele>
        <time>2024-08-15T06:38:20Z</time>
      </trkpt>
      <trkpt lat="42.98869" lon="-0.05803">
        <ele>661.6</ele>
        <time>2024-08-15T06:38:21Z</time>
      </trkpt>
      <trkpt lat="42.98867" lon="-0.05803">
        <ele>662.2</ele>
        <time>2024-08-15T06:38:22Z</time>
      </trkpt>
      <trkpt lat="42.98865" lon="-0.05801">
        <ele>662.6</ele>
        <time>2024-08-15T06:38:23Z</time>
      </trkpt>
      <trkpt lat="42.98863" lon="-0.05801">
        <ele>662.8</ele>
        <time>2024-08-15T06:38:24Z</time>
      </trkpt>
      <trkpt lat="42.98862" lon="-0.058">
        <ele>663.2</ele>
        <time>2024-08-15T06:38:25Z</time>
      </trkpt>
      <trkpt lat="42.98861" lon="-0.05799">
        <ele>663.4</ele>
        <time>2024-08-15T06:38:26Z</time>
      </trkpt>
      <trkpt lat="42.98859" lon="-0.05798">
        <ele>663.6</ele>
        <time>2024-08-15T06:38:27Z</time>
      </trkpt>
      <trkpt lat="42.98858" lon="-0.05797">
        <ele>663.8</ele>
        <time>2024-08-15T06:38:28Z</time>
      </trkpt>
      <trkpt lat="42.98856" lon="-0.05796">
        <ele>664.2</ele>
        <time>2024-08-15T06:38:29Z</time>
      </trkpt>
      <trkpt lat="42.98854" lon="-0.05795">
        <ele>664.4</ele>
        <time>2024-08-15T06:38:30Z</time>
      </trkpt>
      <trkpt lat="42.98852" lon="-0.05794">
        <ele>664.6</ele>
        <time>2024-08-15T06:38:31Z</time>
      </trkpt>
      <trkpt lat="42.9885" lon="-0.05793">
        <ele>664.8</ele>
        <time>2024-08-15T06:38:32Z</time>
      </trkpt>
      <trkpt lat="42.98848" lon="-0.05792">
        <ele>664.8</ele>
        <time>2024-08-15T06:38:33Z</time>
      </trkpt>
      <trkpt lat="42.98846" lon="-0.0579">
        <ele>665</ele>
        <time>2024-08-15T06:38:34Z</time>
      </trkpt>
      <trkpt lat="42.98844" lon="-0.05789">
        <ele>665.2</ele>
        <time>2024-08-15T06:38:35Z</time>
      </trkpt>
      <trkpt lat="42.98842" lon="-0.05788">
        <ele>665.6</ele>
        <time>2024-08-15T06:38:36Z</time>
      </trkpt>
      <trkpt lat="42.9884" lon="-0.05787">
        <ele>665.8</ele>
        <time>2024-08-15T06:38:37Z</time>
      </trkpt>
      <trkpt lat="42.98838" lon="-0.05786">
        <ele>665.8</ele>
        <time>2024-08-15T06:38:38Z</time>
      </trkpt>
      <trkpt lat="42.98836" lon="-0.05786">
        <ele>666.2</ele>
        <time>2024-08-15T06:38:39Z</time>
      </trkpt>
      <trkpt lat="42.98834" lon="-0.05784">
        <ele>666.4</ele>
        <time>2024-08-15T06:38:40Z</time>
      </trkpt>
      <trkpt lat="42.98832" lon="-0.05782">
        <ele>666.6</ele>
        <time>2024-08-15T06:38:41Z</time>
      </trkpt>
      <trkpt lat="42.98831" lon="-0.05781">
        <ele>666.8</ele>
        <time>2024-08-15T06:38:42Z</time>
      </trkpt>
      <trkpt lat="42.98829" lon="-0.0578">
        <ele>667</ele>
        <time>2024-08-15T06:38:43Z</time>
      </trkpt>
      <trkpt lat="42.98827" lon="-0.05779">
        <ele>667</ele>
        <time>2024-08-15T06:38:44Z</time>
      </trkpt>
      <trkpt lat="42.98825" lon="-0.05779">
        <ele>667.4</ele>
        <time>2024-08-15T06:38:45Z</time>
      </trkpt>
      <trkpt lat="42.98823" lon="-0.05778">
        <ele>667.6</ele>
        <time>2024-08-15T06:38:46Z</time>
      </trkpt>
      <trkpt lat="42.98822" lon="-0.05777">
        <ele>667.8</ele>
        <time>2024-08-15T06:38:47Z</time>
      </trkpt>
      <trkpt lat="42.9882" lon="-0.05775">
        <ele>667.8</ele>
        <time>2024-08-15T06:38:48Z</time>
      </trkpt>
      <trkpt lat="42.98818" lon="-0.05774">
        <ele>668</ele>
        <time>2024-08-15T06:38:49Z</time>
      </trkpt>
      <trkpt lat="42.98817" lon="-0.05773">
        <ele>668.2</ele>
        <time>2024-08-15T06:38:50Z</time>
      </trkpt>
      <trkpt lat="42.98816" lon="-0.05772">
        <ele>668.2</ele>
        <time>2024-08-15T06:38:51Z</time>
      </trkpt>
      <trkpt lat="42.98814" lon="-0.05772">
        <ele>668.6</ele>
        <time>2024-08-15T06:38:52Z</time>
      </trkpt>
      <trkpt lat="42.98813" lon="-0.05771">
        <ele>668.6</ele>
        <time>2024-08-15T06:38:53Z</time>
      </trkpt>
      <trkpt lat="42.9881" lon="-0.0577">
        <ele>668.8</ele>
        <time>2024-08-15T06:38:54Z</time>
      </trkpt>
      <trkpt lat="42.98809" lon="-0.05768">
        <ele>669</ele>
        <time>2024-08-15T06:38:55Z</time>
      </trkpt>
      <trkpt lat="42.98807" lon="-0.05766">
        <ele>669.4</ele>
        <time>2024-08-15T06:38:56Z</time>
      </trkpt>
      <trkpt lat="42.98806" lon="-0.05765">
        <ele>669.6</ele>
        <time>2024-08-15T06:38:57Z</time>
      </trkpt>
      <trkpt lat="42.98804" lon="-0.05763">
        <ele>669.8</ele>
        <time>2024-08-15T06:38:58Z</time>
      </trkpt>
      <trkpt lat="42.98803" lon="-0.05762">
        <ele>670</ele>
        <time>2024-08-15T06:38:59Z</time>
      </trkpt>
      <trkpt lat="42.98801" lon="-0.0576">
        <ele>670.2</ele>
        <time>2024-08-15T06:39:00Z</time>
      </trkpt>
      <trkpt lat="42.988" lon="-0.05759">
        <ele>670.4</ele>
        <time>2024-08-15T06:39:01Z</time>
      </trkpt>
      <trkpt lat="42.98799" lon="-0.05758">
        <ele>670.6</ele>
        <time>2024-08-15T06:39:02Z</time>
      </trkpt>
      <trkpt lat="42.98798" lon="-0.05755">
        <ele>670.8</ele>
        <time>2024-08-15T06:39:03Z</time>
      </trkpt>
      <trkpt lat="42.98797" lon="-0.05753">
        <ele>671.2</ele>
        <time>2024-08-15T06:39:04Z</time>
      </trkpt>
      <trkpt lat="42.98796" lon="-0.05751">
        <ele>671.2</ele>
        <time>2024-08-15T06:39:05Z</time>
      </trkpt>
      <trkpt lat="42.98795" lon="-0.05749">
        <ele>671.6</ele>
        <time>2024-08-15T06:39:06Z</time>
      </trkpt>
      <trkpt lat="42.98794" lon="-0.05747">
        <ele>671.6</ele>
        <time>2024-08-15T06:39:07Z</time>
      </trkpt>
      <trkpt lat="42.98793" lon="-0.05745">
        <ele>672</ele>
        <time>2024-08-15T06:39:08Z</time>
      </trkpt>
      <trkpt lat="42.98792" lon="-0.05744">
        <ele>672</ele>
        <time>2024-08-15T06:39:09Z</time>
      </trkpt>
      <trkpt lat="42.98791" lon="-0.05741">
        <ele>672.4</ele>
        <time>2024-08-15T06:39:10Z</time>
      </trkpt>
      <trkpt lat="42.98791" lon="-0.05739">
        <ele>672.4</ele>
        <time>2024-08-15T06:39:11Z</time>
      </trkpt>
      <trkpt lat="42.9879" lon="-0.05737">
        <ele>672.6</ele>
        <time>2024-08-15T06:39:12Z</time>
      </trkpt>
      <trkpt lat="42.9879" lon="-0.05735">
        <ele>673</ele>
        <time>2024-08-15T06:39:13Z</time>
      </trkpt>
      <trkpt lat="42.98788" lon="-0.05733">
        <ele>673.2</ele>
        <time>2024-08-15T06:39:14Z</time>
      </trkpt>
      <trkpt lat="42.98787" lon="-0.0573">
        <ele>673.4</ele>
        <time>2024-08-15T06:39:15Z</time>
      </trkpt>
      <trkpt lat="42.98785" lon="-0.05727">
        <ele>673.6</ele>
        <time>2024-08-15T06:39:16Z</time>
      </trkpt>
      <trkpt lat="42.98784" lon="-0.05726">
        <ele>673.8</ele>
        <time>2024-08-15T06:39:17Z</time>
      </trkpt>
      <trkpt lat="42.98784" lon="-0.05724">
        <ele>673.8</ele>
        <time>2024-08-15T06:39:18Z</time>
      </trkpt>
      <trkpt lat="42.98783" lon="-0.05721">
        <ele>674</ele>
        <time>2024-08-15T06:39:19Z</time>
      </trkpt>
      <trkpt lat="42.98783" lon="-0.05719">
        <ele>674.2</ele>
        <time>2024-08-15T06:39:20Z</time>
      </trkpt>
      <trkpt lat="42.98783" lon="-0.05717">
        <ele>674.4</ele>
        <time>2024-08-15T06:39:21Z</time>
      </trkpt>
      <trkpt lat="42.98782" lon="-0.05715">
        <ele>674.6</ele>
        <time>2024-08-15T06:39:22Z</time>
      </trkpt>
      <trkpt lat="42.98782" lon="-0.05713">
        <ele>674.8</ele>
        <time>2024-08-15T06:39:23Z</time>
      </trkpt>
      <trkpt lat="42.98782" lon="-0.0571">
        <ele>675.2</ele>
        <time>2024-08-15T06:39:24Z</time>
      </trkpt>
      <trkpt lat="42.98781" lon="-0.05709">
        <ele>675.2</ele>
        <time>2024-08-15T06:39:25Z</time>
      </trkpt>
      <trkpt lat="42.9878" lon="-0.05707">
        <ele>675.6</ele>
        <time>2024-08-15T06:39:26Z</time>
      </trkpt>
      <trkpt lat="42.98779" lon="-0.05703">
        <ele>675.6</ele>
        <time>2024-08-15T06:39:27Z</time>
      </trkpt>
      <trkpt lat="42.98779" lon="-0.05701">
        <ele>675.8</ele>
        <time>2024-08-15T06:39:28Z</time>
      </trkpt>
      <trkpt lat="42.98778" lon="-0.05698">
        <ele>676.2</ele>
        <time>2024-08-15T06:39:29Z</time>
      </trkpt>
      <trkpt lat="42.98776" lon="-0.05694">
        <ele>676.4</ele>
        <time>2024-08-15T06:39:30Z</time>
      </trkpt>
      <trkpt lat="42.98773" lon="-0.05692">
        <ele>676.6</ele>
        <time>2024-08-15T06:39:31Z</time>
      </trkpt>
      <trkpt lat="42.9877" lon="-0.0569">
        <ele>676.8</ele>
        <time>2024-08-15T06:39:32Z</time>
      </trkpt>
      <trkpt lat="42.98769" lon="-0.05687">
        <ele>677</ele>
        <time>2024-08-15T06:39:33Z</time>
      </trkpt>
      <trkpt lat="42.98768" lon="-0.05685">
        <ele>677.2</ele>
        <time>2024-08-15T06:39:34Z</time>
      </trkpt>
      <trkpt lat="42.98766" lon="-0.05683">
        <ele>677.4</ele>
        <time>2024-08-15T06:39:35Z</time>
      </trkpt>
      <trkpt lat="42.98764" lon="-0.05683">
        <ele>677.8</ele>
        <time>2024-08-15T06:39:36Z</time>
      </trkpt>
      <trkpt lat="42.98762" lon="-0.05682">
        <ele>677.8</ele>
        <time>2024-08-15T06:39:37Z</time>
      </trkpt>
      <trkpt lat="42.98761" lon="-0.0568">
        <ele>678.2</ele>
        <time>2024-08-15T06:39:38Z</time>
      </trkpt>
      <trkpt lat="42.9876" lon="-0.05677">
        <ele>678.4</ele>
        <time>2024-08-15T06:39:39Z</time>
      </trkpt>
      <trkpt lat="42.98761" lon="-0.05674">
        <ele>678.6</ele>
        <time>2024-08-15T06:39:40Z</time>
      </trkpt>
      <trkpt lat="42.98761" lon="-0.0567">
        <ele>678.8</ele>
        <time>2024-08-15T06:39:41Z</time>
      </trkpt>
      <trkpt lat="42.9876" lon="-0.05668">
        <ele>679</ele>
        <time>2024-08-15T06:39:42Z</time>
      </trkpt>
      <trkpt lat="42.9876" lon="-0.05666">
        <ele>679.2</ele>
        <time>2024-08-15T06:39:43Z</time>
      </trkpt>
      <trkpt lat="42.98758" lon="-0.05664">
        <ele>679.6</ele>
        <time>2024-08-15T06:39:44Z</time>
      </trkpt>
      <trkpt lat="42.98757" lon="-0.05662">
        <ele>679.8</ele>
        <time>2024-08-15T06:39:45Z</time>
      </trkpt>
      <trkpt lat="42.98756" lon="-0.0566">
        <ele>679.8</ele>
        <time>2024-08-15T06:39:46Z</time>
      </trkpt>
      <trkpt lat="42.98755" lon="-0.05658">
        <ele>680</ele>
        <time>2024-08-15T06:39:47Z</time>
      </trkpt>
      <trkpt lat="42.98754" lon="-0.05655">
        <ele>680.2</ele>
        <time>2024-08-15T06:39:48Z</time>
      </trkpt>
      <trkpt lat="42.98752" lon="-0.05653">
        <ele>680.4</ele>
        <time>2024-08-15T06:39:49Z</time>
      </trkpt>
      <trkpt lat="42.98751" lon="-0.05651">
        <ele>680.8</ele>
        <time>2024-08-15T06:39:50Z</time>
      </trkpt>
      <trkpt lat="42.98749" lon="-0.05649">
        <ele>681</ele>
        <time>2024-08-15T06:39:51Z</time>
      </trkpt>
      <trkpt lat="42.98748" lon="-0.05647">
        <ele>681.2</ele>
        <time>2024-08-15T06:39:52Z</time>
      </trkpt>
      <trkpt lat="42.98747" lon="-0.05645">
        <ele>681.4</ele>
        <time>2024-08-15T06:39:53Z</time>
      </trkpt>
      <trkpt lat="42.98745" lon="-0.05642">
        <ele>681.6</ele>
        <time>2024-08-15T06:39:54Z</time>
      </trkpt>
      <trkpt lat="42.98744" lon="-0.0564">
        <ele>681.6</ele>
        <time>2024-08-15T06:39:55Z</time>
      </trkpt>
      <trkpt lat="42.98743" lon="-0.05638">
        <ele>682</ele>
        <time>2024-08-15T06:39:56Z</time>
      </trkpt>
      <trkpt lat="42.98741" lon="-0.05636">
        <ele>682</ele>
        <time>2024-08-15T06:39:57Z</time>
      </trkpt>
      <trkpt lat="42.9874" lon="-0.05635">
        <ele>682.4</ele>
        <time>2024-08-15T06:39:58Z</time>
      </trkpt>
      <trkpt lat="42.98738" lon="-0.05634">
        <ele>682.6</ele>
        <time>2024-08-15T06:39:59Z</time>
      </trkpt>
      <trkpt lat="42.98736" lon="-0.05633">
        <ele>682.8</ele>
        <time>2024-08-15T06:40:00Z</time>
      </trkpt>
      <trkpt lat="42.98735" lon="-0.05632">
        <ele>683.2</ele>
        <time>2024-08-15T06:40:01Z</time>
      </trkpt>
      <trkpt lat="42.98734" lon="-0.05631">
        <ele>683.2</ele>
        <time>2024-08-15T06:40:02Z</time>
      </trkpt>
      <trkpt lat="42.98733" lon="-0.0563">
        <ele>683.6</ele>
        <time>2024-08-15T06:40:03Z</time>
      </trkpt>
      <trkpt lat="42.98731" lon="-0.05628">
        <ele>683.6</ele>
        <time>2024-08-15T06:40:04Z</time>
      </trkpt>
      <trkpt lat="42.98729" lon="-0.05626">
        <ele>683.8</ele>
        <time>2024-08-15T06:40:05Z</time>
      </trkpt>
      <trkpt lat="42.98728" lon="-0.05625">
        <ele>684</ele>
        <time>2024-08-15T06:40:06Z</time>
      </trkpt>
      <trkpt lat="42.98727" lon="-0.05624">
        <ele>684.2</ele>
        <time>2024-08-15T06:40:07Z</time>
      </trkpt>
      <trkpt lat="42.98726" lon="-0.05622">
        <ele>684.4</ele>
        <time>2024-08-15T06:40:08Z</time>
      </trkpt>
      <trkpt lat="42.98725" lon="-0.05621">
        <ele>684.6</ele>
        <time>2024-08-15T06:40:09Z</time>
      </trkpt>
      <trkpt lat="42.98723" lon="-0.0562">
        <ele>685</ele>
        <time>2024-08-15T06:40:10Z</time>
      </trkpt>
      <trkpt lat="42.98721" lon="-0.05618">
        <ele>685.2</ele>
        <time>2024-08-15T06:40:11Z</time>
      </trkpt>
      <trkpt lat="42.98719" lon="-0.05618">
        <ele>685.4</ele>
        <time>2024-08-15T06:40:12Z</time>
      </trkpt>
      <trkpt lat="42.98717" lon="-0.05617">
        <ele>685.4</ele>
        <time>2024-08-15T06:40:13Z</time>
      </trkpt>
      <trkpt lat="42.98715" lon="-0.05616">
        <ele>685.6</ele>
        <time>2024-08-15T06:40:14Z</time>
      </trkpt>
      <trkpt lat="42.98713" lon="-0.05614">
        <ele>685.8</ele>
        <time>2024-08-15T06:40:15Z</time>
      </trkpt>
      <trkpt lat="42.98712" lon="-0.05613">
        <ele>686</ele>
        <time>2024-08-15T06:40:16Z</time>
      </trkpt>
      <trkpt lat="42.9871" lon="-0.05611">
        <ele>686.4</ele>
        <time>2024-08-15T06:40:17Z</time>
      </trkpt>
      <trkpt lat="42.98709" lon="-0.0561">
        <ele>686.4</ele>
        <time>2024-08-15T06:40:18Z</time>
      </trkpt>
      <trkpt lat="42.98707" lon="-0.05608">
        <ele>686.8</ele>
        <time>2024-08-15T06:40:19Z</time>
      </trkpt>
      <trkpt lat="42.98705" lon="-0.05607">
        <ele>687</ele>
        <time>2024-08-15T06:40:20Z</time>
      </trkpt>
      <trkpt lat="42.98704" lon="-0.05606">
        <ele>687.2</ele>
        <time>2024-08-15T06:40:21Z</time>
      </trkpt>
      <trkpt lat="42.98702" lon="-0.05604">
        <ele>687.2</ele>
        <time>2024-08-15T06:40:22Z</time>
      </trkpt>
      <trkpt lat="42.987" lon="-0.05603">
        <ele>687.4</ele>
        <time>2024-08-15T06:40:23Z</time>
      </trkpt>
      <trkpt lat="42.98698" lon="-0.05602">
        <ele>687.6</ele>
        <time>2024-08-15T06:40:24Z</time>
      </trkpt>
      <trkpt lat="42.98697" lon="-0.056">
        <ele>687.8</ele>
        <time>2024-08-15T06:40:25Z</time>
      </trkpt>
      <trkpt lat="42.98696" lon="-0.05598">
        <ele>688</ele>
        <time>2024-08-15T06:40:26Z</time>
      </trkpt>
      <trkpt lat="42.98694" lon="-0.05596">
        <ele>688</ele>
        <time>2024-08-15T06:40:27Z</time>
      </trkpt>
      <trkpt lat="42.98693" lon="-0.05595">
        <ele>688.4</ele>
        <time>2024-08-15T06:40:28Z</time>
      </trkpt>
      <trkpt lat="42.98692" lon="-0.05593">
        <ele>688.4</ele>
        <time>2024-08-15T06:40:29Z</time>
      </trkpt>
      <trkpt lat="42.98691" lon="-0.05591">
        <ele>688.8</ele>
        <time>2024-08-15T06:40:30Z</time>
      </trkpt>
      <trkpt lat="42.9869" lon="-0.05589">
        <ele>688.8</ele>
        <time>2024-08-15T06:40:31Z</time>
      </trkpt>
      <trkpt lat="42.9869" lon="-0.05587">
        <ele>689</ele>
        <time>2024-08-15T06:40:32Z</time>
      </trkpt>
      <trkpt lat="42.98689" lon="-0.05585">
        <ele>689.2</ele>
        <time>2024-08-15T06:40:33Z</time>
      </trkpt>
      <trkpt lat="42.98689" lon="-0.05583">
        <ele>689.4</ele>
        <time>2024-08-15T06:40:34Z</time>
      </trkpt>
      <trkpt lat="42.98688" lon="-0.05579">
        <ele>689.8</ele>
        <time>2024-08-15T06:40:35Z</time>
      </trkpt>
      <trkpt lat="42.98687" lon="-0.05576">
        <ele>689.8</ele>
        <time>2024-08-15T06:40:36Z</time>
      </trkpt>
      <trkpt lat="42.98687" lon="-0.05574">
        <ele>690</ele>
        <time>2024-08-15T06:40:37Z</time>
      </trkpt>
      <trkpt lat="42.98685" lon="-0.05571">
        <ele>690.2</ele>
        <time>2024-08-15T06:40:38Z</time>
      </trkpt>
      <trkpt lat="42.98684" lon="-0.05568">
        <ele>690.4</ele>
        <time>2024-08-15T06:40:39Z</time>
      </trkpt>
      <trkpt lat="42.98684" lon="-0.05566">
        <ele>690.6</ele>
        <time>2024-08-15T06:40:40Z</time>
      </trkpt>
      <trkpt lat="42.98683" lon="-0.05563">
        <ele>690.6</ele>
        <time>2024-08-15T06:40:41Z</time>
      </trkpt>
      <trkpt lat="42.98682" lon="-0.05561">
        <ele>691</ele>
        <time>2024-08-15T06:40:42Z</time>
      </trkpt>
      <trkpt lat="42.98681" lon="-0.05558">
        <ele>691</ele>
        <time>2024-08-15T06:40:43Z</time>
      </trkpt>
      <trkpt lat="42.98681" lon="-0.05555">
        <ele>691.2</ele>
        <time>2024-08-15T06:40:44Z</time>
      </trkpt>
      <trkpt lat="42.9868" lon="-0.05552">
        <ele>691.4</ele>
        <time>2024-08-15T06:40:45Z</time>
      </trkpt>
      <trkpt lat="42.98679" lon="-0.0555">
        <ele>691.6</ele>
        <time>2024-08-15T06:40:46Z</time>
      </trkpt>
      <trkpt lat="42.98679" lon="-0.05547">
        <ele>691.8</ele>
        <time>2024-08-15T06:40:47Z</time>
      </trkpt>
      <trkpt lat="42.98679" lon="-0.05544">
        <ele>692</ele>
        <time>2024-08-15T06:40:48Z</time>
      </trkpt>
      <trkpt lat="42.98678" lon="-0.05542">
        <ele>692.2</ele>
        <time>2024-08-15T06:40:49Z</time>
      </trkpt>
      <trkpt lat="42.98678" lon="-0.05539">
        <ele>692.4</ele>
        <time>2024-08-15T06:40:50Z</time>
      </trkpt>
      <trkpt lat="42.98677" lon="-0.05536">
        <ele>692.8</ele>
        <time>2024-08-15T06:40:51Z</time>
      </trkpt>
      <trkpt lat="42.98677" lon="-0.05533">
        <ele>693</ele>
        <time>2024-08-15T06:40:52Z</time>
      </trkpt>
      <trkpt lat="42.98677" lon="-0.05531">
        <ele>693.2</ele>
        <time>2024-08-15T06:40:53Z</time>
      </trkpt>
      <trkpt lat="42.98676" lon="-0.05529">
        <ele>693.4</ele>
        <time>2024-08-15T06:40:54Z</time>
      </trkpt>
      <trkpt lat="42.98676" lon="-0.05526">
        <ele>693.8</ele>
        <time>2024-08-15T06:40:55Z</time>
      </trkpt>
      <trkpt lat="42.98675" lon="-0.05523">
        <ele>694</ele>
        <time>2024-08-15T06:40:56Z</time>
      </trkpt>
      <trkpt lat="42.98675" lon="-0.0552">
        <ele>694.2</ele>
        <time>2024-08-15T06:40:57Z</time>
      </trkpt>
      <trkpt lat="42.98674" lon="-0.05517">
        <ele>694.4</ele>
        <time>2024-08-15T06:40:58Z</time>
      </trkpt>
      <trkpt lat="42.98673" lon="-0.05515">
        <ele>694.6</ele>
        <time>2024-08-15T06:40:59Z</time>
      </trkpt>
      <trkpt lat="42.98673" lon="-0.05512">
        <ele>694.8</ele>
        <time>2024-08-15T06:41:00Z</time>
      </trkpt>
      <trkpt lat="42.98672" lon="-0.05509">
        <ele>695</ele>
        <time>2024-08-15T06:41:01Z</time>
      </trkpt>
      <trkpt lat="42.98672" lon="-0.05506">
        <ele>695.2</ele>
        <time>2024-08-15T06:41:02Z</time>
      </trkpt>
      <trkpt lat="42.98671" lon="-0.05504">
        <ele>695.4</ele>
        <time>2024-08-15T06:41:03Z</time>
      </trkpt>
      <trkpt lat="42.9867" lon="-0.05502">
        <ele>695.8</ele>
        <time>2024-08-15T06:41:04Z</time>
      </trkpt>
      <trkpt lat="42.98669" lon="-0.05499">
        <ele>696.2</ele>
        <time>2024-08-15T06:41:05Z</time>
      </trkpt>
      <trkpt lat="42.98669" lon="-0.05495">
        <ele>696.2</ele>
        <time>2024-08-15T06:41:06Z</time>
      </trkpt>
      <trkpt lat="42.98668" lon="-0.05492">
        <ele>696.6</ele>
        <time>2024-08-15T06:41:07Z</time>
      </trkpt>
      <trkpt lat="42.98667" lon="-0.05489">
        <ele>696.6</ele>
        <time>2024-08-15T06:41:08Z</time>
      </trkpt>
      <trkpt lat="42.98666" lon="-0.05487">
        <ele>697</ele>
        <time>2024-08-15T06:41:09Z</time>
      </trkpt>
      <trkpt lat="42.98666" lon="-0.05484">
        <ele>697</ele>
        <time>2024-08-15T06:41:10Z</time>
      </trkpt>
      <trkpt lat="42.98665" lon="-0.05481">
        <ele>697.4</ele>
        <time>2024-08-15T06:41:11Z</time>
      </trkpt>
      <trkpt lat="42.98664" lon="-0.05479">
        <ele>697.6</ele>
        <time>2024-08-15T06:41:12Z</time>
      </trkpt>
      <trkpt lat="42.98664" lon="-0.05476">
        <ele>697.8</ele>
        <time>2024-08-15T06:41:13Z</time>
      </trkpt>
      <trkpt lat="42.98663" lon="-0.05473">
        <ele>698.2</ele>
        <time>2024-08-15T06:41:14Z</time>
      </trkpt>
      <trkpt lat="42.98662" lon="-0.0547">
        <ele>698.2</ele>
        <time>2024-08-15T06:41:15Z</time>
      </trkpt>
      <trkpt lat="42.98661" lon="-0.05468">
        <ele>698.6</ele>
        <time>2024-08-15T06:41:16Z</time>
      </trkpt>
      <trkpt lat="42.9866" lon="-0.05465">
        <ele>698.8</ele>
        <time>2024-08-15T06:41:17Z</time>
      </trkpt>
      <trkpt lat="42.9866" lon="-0.05462">
        <ele>699</ele>
        <time>2024-08-15T06:41:18Z</time>
      </trkpt>
      <trkpt lat="42.98659" lon="-0.0546">
        <ele>699.2</ele>
        <time>2024-08-15T06:41:19Z</time>
      </trkpt>
      <trkpt lat="42.98659" lon="-0.05457">
        <ele>699.4</ele>
        <time>2024-08-15T06:41:20Z</time>
      </trkpt>
      <trkpt lat="42.98658" lon="-0.05454">
        <ele>699.8</ele>
        <time>2024-08-15T06:41:21Z</time>
      </trkpt>
      <trkpt lat="42.98657" lon="-0.05451">
        <ele>700</ele>
        <time>2024-08-15T06:41:22Z</time>
      </trkpt>
      <trkpt lat="42.98657" lon="-0.05448">
        <ele>700</ele>
        <time>2024-08-15T06:41:23Z</time>
      </trkpt>
      <trkpt lat="42.98656" lon="-0.05446">
        <ele>700.2</ele>
        <time>2024-08-15T06:41:24Z</time>
      </trkpt>
      <trkpt lat="42.98656" lon="-0.05443">
        <ele>700.4</ele>
        <time>2024-08-15T06:41:25Z</time>
      </trkpt>
      <trkpt lat="42.98655" lon="-0.0544">
        <ele>700.6</ele>
        <time>2024-08-15T06:41:26Z</time>
      </trkpt>
      <trkpt lat="42.98655" lon="-0.05438">
        <ele>700.8</ele>
        <time>2024-08-15T06:41:27Z</time>
      </trkpt>
      <trkpt lat="42.98654" lon="-0.05435">
        <ele>701</ele>
        <time>2024-08-15T06:41:28Z</time>
      </trkpt>
      <trkpt lat="42.98654" lon="-0.05433">
        <ele>701.2</ele>
        <time>2024-08-15T06:41:29Z</time>
      </trkpt>
      <trkpt lat="42.98653" lon="-0.05431">
        <ele>701.4</ele>
        <time>2024-08-15T06:41:30Z</time>
      </trkpt>
      <trkpt lat="42.98653" lon="-0.05429">
        <ele>701.6</ele>
        <time>2024-08-15T06:41:31Z</time>
      </trkpt>
      <trkpt lat="42.98652" lon="-0.05427">
        <ele>701.8</ele>
        <time>2024-08-15T06:41:32Z</time>
      </trkpt>
      <trkpt lat="42.9865" lon="-0.05425">
        <ele>702</ele>
        <time>2024-08-15T06:41:33Z</time>
      </trkpt>
      <trkpt lat="42.9865" lon="-0.05423">
        <ele>702.2</ele>
        <time>2024-08-15T06:41:34Z</time>
      </trkpt>
      <trkpt lat="42.98649" lon="-0.05421">
        <ele>702.4</ele>
        <time>2024-08-15T06:41:35Z</time>
      </trkpt>
      <trkpt lat="42.98648" lon="-0.05419">
        <ele>702.6</ele>
        <time>2024-08-15T06:41:36Z</time>
      </trkpt>
      <trkpt lat="42.98646" lon="-0.05416">
        <ele>703</ele>
        <time>2024-08-15T06:41:37Z</time>
      </trkpt>
      <trkpt lat="42.98645" lon="-0.05414">
        <ele>703</ele>
        <time>2024-08-15T06:41:38Z</time>
      </trkpt>
      <trkpt lat="42.98644" lon="-0.05412">
        <ele>703.2</ele>
        <time>2024-08-15T06:41:39Z</time>
      </trkpt>
      <trkpt lat="42.98642" lon="-0.0541">
        <ele>703.4</ele>
        <time>2024-08-15T06:41:40Z</time>
      </trkpt>
      <trkpt lat="42.98641" lon="-0.05408">
        <ele>703.6</ele>
        <time>2024-08-15T06:41:41Z</time>
      </trkpt>
      <trkpt lat="42.9864" lon="-0.05406">
        <ele>703.6</ele>
        <time>2024-08-15T06:41:42Z</time>
      </trkpt>
      <trkpt lat="42.98639" lon="-0.05404">
        <ele>704</ele>
        <time>2024-08-15T06:41:43Z</time>
      </trkpt>
      <trkpt lat="42.98637" lon="-0.05401">
        <ele>704</ele>
        <time>2024-08-15T06:41:44Z</time>
      </trkpt>
      <trkpt lat="42.98636" lon="-0.05399">
        <ele>704.2</ele>
        <time>2024-08-15T06:41:45Z</time>
      </trkpt>
      <trkpt lat="42.98636" lon="-0.05397">
        <ele>704.6</ele>
        <time>2024-08-15T06:41:46Z</time>
      </trkpt>
      <trkpt lat="42.98635" lon="-0.05395">
        <ele>704.6</ele>
        <time>2024-08-15T06:41:47Z</time>
      </trkpt>
      <trkpt lat="42.98634" lon="-0.05393">
        <ele>704.8</ele>
        <time>2024-08-15T06:41:48Z</time>
      </trkpt>
      <trkpt lat="42.98633" lon="-0.05391">
        <ele>705</ele>
        <time>2024-08-15T06:41:49Z</time>
      </trkpt>
      <trkpt lat="42.98632" lon="-0.05389">
        <ele>705.2</ele>
        <time>2024-08-15T06:41:50Z</time>
      </trkpt>
      <trkpt lat="42.98631" lon="-0.05387">
        <ele>705.4</ele>
        <time>2024-08-15T06:41:51Z</time>
      </trkpt>
      <trkpt lat="42.9863" lon="-0.05385">
        <ele>705.6</ele>
        <time>2024-08-15T06:41:52Z</time>
      </trkpt>
      <trkpt lat="42.98628" lon="-0.05383">
        <ele>706</ele>
        <time>2024-08-15T06:41:53Z</time>
      </trkpt>
      <trkpt lat="42.98627" lon="-0.05381">
        <ele>706</ele>
        <time>2024-08-15T06:41:54Z</time>
      </trkpt>
      <trkpt lat="42.98627" lon="-0.0538">
        <ele>706.2</ele>
        <time>2024-08-15T06:41:55Z</time>
      </trkpt>
      <trkpt lat="42.98625" lon="-0.05378">
        <ele>706.2</ele>
        <time>2024-08-15T06:41:56Z</time>
      </trkpt>
      <trkpt lat="42.98624" lon="-0.05375">
        <ele>706.4</ele>
        <time>2024-08-15T06:41:57Z</time>
      </trkpt>
      <trkpt lat="42.98623" lon="-0.05373">
        <ele>706.6</ele>
        <time>2024-08-15T06:41:58Z</time>
      </trkpt>
      <trkpt lat="42.98621" lon="-0.05371">
        <ele>706.6</ele>
        <time>2024-08-15T06:41:59Z</time>
      </trkpt>
      <trkpt lat="42.98619" lon="-0.05369">
        <ele>706.8</ele>
        <time>2024-08-15T06:42:00Z</time>
      </trkpt>
      <trkpt lat="42.98618" lon="-0.05367">
        <ele>707</ele>
        <time>2024-08-15T06:42:01Z</time>
      </trkpt>
      <trkpt lat="42.98616" lon="-0.05364">
        <ele>707.2</ele>
        <time>2024-08-15T06:42:02Z</time>
      </trkpt>
      <trkpt lat="42.98614" lon="-0.05362">
        <ele>707.2</ele>
        <time>2024-08-15T06:42:03Z</time>
      </trkpt>
      <trkpt lat="42.98613" lon="-0.0536">
        <ele>707.6</ele>
        <time>2024-08-15T06:42:04Z</time>
      </trkpt>
      <trkpt lat="42.98611" lon="-0.05357">
        <ele>707.6</ele>
        <time>2024-08-15T06:42:05Z</time>
      </trkpt>
      <trkpt lat="42.9861" lon="-0.05355">
        <ele>707.8</ele>
        <time>2024-08-15T06:42:06Z</time>
      </trkpt>
      <trkpt lat="42.98608" lon="-0.05352">
        <ele>708</ele>
        <time>2024-08-15T06:42:07Z</time>
      </trkpt>
      <trkpt lat="42.98607" lon="-0.05349">
        <ele>708.4</ele>
        <time>2024-08-15T06:42:08Z</time>
      </trkpt>
      <trkpt lat="42.98605" lon="-0.05347">
        <ele>708.6</ele>
        <time>2024-08-15T06:42:09Z</time>
      </trkpt>
      <trkpt lat="42.98604" lon="-0.05345">
        <ele>708.8</ele>
        <time>2024-08-15T06:42:10Z</time>
      </trkpt>
      <trkpt lat="42.98602" lon="-0.05342">
        <ele>708.8</ele>
        <time>2024-08-15T06:42:11Z</time>
      </trkpt>
      <trkpt lat="42.98601" lon="-0.0534">
        <ele>709</ele>
        <time>2024-08-15T06:42:12Z</time>
      </trkpt>
      <trkpt lat="42.98599" lon="-0.05337">
        <ele>709.4</ele>
        <time>2024-08-15T06:42:13Z</time>
      </trkpt>
      <trkpt lat="42.98598" lon="-0.05335">
        <ele>709.4</ele>
        <time>2024-08-15T06:42:14Z</time>
      </trkpt>
      <trkpt lat="42.98597" lon="-0.05332">
        <ele>709.8</ele>
        <time>2024-08-15T06:42:15Z</time>
      </trkpt>
      <trkpt lat="42.98595" lon="-0.05329">
        <ele>710</ele>
        <time>2024-08-15T06:42:16Z</time>
      </trkpt>
      <trkpt lat="42.98594" lon="-0.05327">
        <ele>710</ele>
        <time>2024-08-15T06:42:17Z</time>
      </trkpt>
      <trkpt lat="42.98593" lon="-0.05324">
        <ele>710.4</ele>
        <time>2024-08-15T06:42:18Z</time>
      </trkpt>
      <trkpt lat="42.98592" lon="-0.05322">
        <ele>710.8</ele>
        <time>2024-08-15T06:42:19Z</time>
      </trkpt>
      <trkpt lat="42.98591" lon="-0.05319">
        <ele>711.2</ele>
        <time>2024-08-15T06:42:20Z</time>
      </trkpt>
      <trkpt lat="42.9859" lon="-0.05317">
        <ele>711.4</ele>
        <time>2024-08-15T06:42:21Z</time>
      </trkpt>
      <trkpt lat="42.98588" lon="-0.05315">
        <ele>711.6</ele>
        <time>2024-08-15T06:42:22Z</time>
      </trkpt>
      <trkpt lat="42.98586" lon="-0.05313">
        <ele>711.8</ele>
        <time>2024-08-15T06:42:23Z</time>
      </trkpt>
      <trkpt lat="42.98585" lon="-0.05311">
        <ele>712</ele>
        <time>2024-08-15T06:42:24Z</time>
      </trkpt>
      <trkpt lat="42.98585" lon="-0.05309">
        <ele>712.2</ele>
        <time>2024-08-15T06:42:25Z</time>
      </trkpt>
      <trkpt lat="42.98583" lon="-0.05306">
        <ele>712.4</ele>
        <time>2024-08-15T06:42:26Z</time>
      </trkpt>
      <trkpt lat="42.98582" lon="-0.05304">
        <ele>712.6</ele>
        <time>2024-08-15T06:42:27Z</time>
      </trkpt>
      <trkpt lat="42.9858" lon="-0.05302">
        <ele>712.8</ele>
        <time>2024-08-15T06:42:28Z</time>
      </trkpt>
      <trkpt lat="42.98578" lon="-0.05299">
        <ele>713</ele>
        <time>2024-08-15T06:42:29Z</time>
      </trkpt>
      <trkpt lat="42.98576" lon="-0.05297">
        <ele>713.2</ele>
        <time>2024-08-15T06:42:30Z</time>
      </trkpt>
      <trkpt lat="42.98575" lon="-0.05295">
        <ele>713.4</ele>
        <time>2024-08-15T06:42:31Z</time>
      </trkpt>
      <trkpt lat="42.98573" lon="-0.05293">
        <ele>713.6</ele>
        <time>2024-08-15T06:42:32Z</time>
      </trkpt>
      <trkpt lat="42.98571" lon="-0.05291">
        <ele>713.8</ele>
        <time>2024-08-15T06:42:33Z</time>
      </trkpt>
      <trkpt lat="42.9857" lon="-0.05288">
        <ele>713.8</ele>
        <time>2024-08-15T06:42:34Z</time>
      </trkpt>
      <trkpt lat="42.98569" lon="-0.05287">
        <ele>714</ele>
        <time>2024-08-15T06:42:35Z</time>
      </trkpt>
      <trkpt lat="42.98567" lon="-0.05284">
        <ele>714.4</ele>
        <time>2024-08-15T06:42:36Z</time>
      </trkpt>
      <trkpt lat="42.98566" lon="-0.05282">
        <ele>714.6</ele>
        <time>2024-08-15T06:42:37Z</time>
      </trkpt>
      <trkpt lat="42.98564" lon="-0.05279">
        <ele>714.8</ele>
        <time>2024-08-15T06:42:38Z</time>
      </trkpt>
      <trkpt lat="42.98563" lon="-0.05277">
        <ele>715</ele>
        <time>2024-08-15T06:42:39Z</time>
      </trkpt>
      <trkpt lat="42.98562" lon="-0.05274">
        <ele>715.2</ele>
        <time>2024-08-15T06:42:40Z</time>
      </trkpt>
      <trkpt lat="42.9856" lon="-0.05272">
        <ele>715.4</ele>
        <time>2024-08-15T06:42:41Z</time>
      </trkpt>
      <trkpt lat="42.98559" lon="-0.05269">
        <ele>715.6</ele>
        <time>2024-08-15T06:42:42Z</time>
      </trkpt>
      <trkpt lat="42.98558" lon="-0.05266">
        <ele>715.8</ele>
        <time>2024-08-15T06:42:43Z</time>
      </trkpt>
      <trkpt lat="42.98557" lon="-0.05264">
        <ele>716</ele>
        <time>2024-08-15T06:42:44Z</time>
      </trkpt>
      <trkpt lat="42.98555" lon="-0.05261">
        <ele>716.2</ele>
        <time>2024-08-15T06:42:45Z</time>
      </trkpt>
      <trkpt lat="42.98554" lon="-0.05259">
        <ele>716.4</ele>
        <time>2024-08-15T06:42:46Z</time>
      </trkpt>
      <trkpt lat="42.98553" lon="-0.05256">
        <ele>716.6</ele>
        <time>2024-08-15T06:42:47Z</time>
      </trkpt>
      <trkpt lat="42.98551" lon="-0.05253">
        <ele>716.6</ele>
        <time>2024-08-15T06:42:48Z</time>
      </trkpt>
      <trkpt lat="42.98549" lon="-0.05251">
        <ele>716.8</ele>
        <time>2024-08-15T06:42:49Z</time>
      </trkpt>
      <trkpt lat="42.98548" lon="-0.05248">
        <ele>717.2</ele>
        <time>2024-08-15T06:42:50Z</time>
      </trkpt>
      <trkpt lat="42.98547" lon="-0.05246">
        <ele>717.4</ele>
        <time>2024-08-15T06:42:51Z</time>
      </trkpt>
      <trkpt lat="42.98545" lon="-0.05243">
        <ele>717.6</ele>
        <time>2024-08-15T06:42:52Z</time>
      </trkpt>
      <trkpt lat="42.98544" lon="-0.05239">
        <ele>717.6</ele>
        <time>2024-08-15T06:42:53Z</time>
      </trkpt>
      <trkpt lat="42.98542" lon="-0.05236">
        <ele>717.8</ele>
        <time>2024-08-15T06:42:54Z</time>
      </trkpt>
      <trkpt lat="42.9854" lon="-0.05233">
        <ele>717.8</ele>
        <time>2024-08-15T06:42:55Z</time>
      </trkpt>
      <trkpt lat="42.98539" lon="-0.05231">
        <ele>718</ele>
        <time>2024-08-15T06:42:56Z</time>
      </trkpt>
      <trkpt lat="42.98538" lon="-0.05228">
        <ele>718.4</ele>
        <time>2024-08-15T06:42:57Z</time>
      </trkpt>
      <trkpt lat="42.98536" lon="-0.05225">
        <ele>718.4</ele>
        <time>2024-08-15T06:42:58Z</time>
      </trkpt>
      <trkpt lat="42.98535" lon="-0.05222">
        <ele>718.6</ele>
        <time>2024-08-15T06:42:59Z</time>
      </trkpt>
      <trkpt lat="42.98533" lon="-0.05219">
        <ele>718.6</ele>
        <time>2024-08-15T06:43:00Z</time>
      </trkpt>
      <trkpt lat="42.98532" lon="-0.05216">
        <ele>718.8</ele>
        <time>2024-08-15T06:43:01Z</time>
      </trkpt>
      <trkpt lat="42.98531" lon="-0.05214">
        <ele>719</ele>
        <time>2024-08-15T06:43:02Z</time>
      </trkpt>
      <trkpt lat="42.9853" lon="-0.05211">
        <ele>719.2</ele>
        <time>2024-08-15T06:43:03Z</time>
      </trkpt>
      <trkpt lat="42.98529" lon="-0.05208">
        <ele>719.2</ele>
        <time>2024-08-15T06:43:04Z</time>
      </trkpt>
      <trkpt lat="42.98528" lon="-0.05206">
        <ele>719.4</ele>
        <time>2024-08-15T06:43:05Z</time>
      </trkpt>
      <trkpt lat="42.98526" lon="-0.05203">
        <ele>719.8</ele>
        <time>2024-08-15T06:43:06Z</time>
      </trkpt>
      <trkpt lat="42.98525" lon="-0.05201">
        <ele>719.8</ele>
        <time>2024-08-15T06:43:07Z</time>
      </trkpt>
      <trkpt lat="42.98523" lon="-0.05198">
        <ele>720</ele>
        <time>2024-08-15T06:43:08Z</time>
      </trkpt>
      <trkpt lat="42.98521" lon="-0.05195">
        <ele>720.2</ele>
        <time>2024-08-15T06:43:09Z</time>
      </trkpt>
      <trkpt lat="42.9852" lon="-0.05193">
        <ele>720.4</ele>
        <time>2024-08-15T06:43:10Z</time>
      </trkpt>
      <trkpt lat="42.98518" lon="-0.05191">
        <ele>720.6</ele>
        <time>2024-08-15T06:43:11Z</time>
      </trkpt>
      <trkpt lat="42.98516" lon="-0.05188">
        <ele>720.8</ele>
        <time>2024-08-15T06:43:12Z</time>
      </trkpt>
      <trkpt lat="42.98514" lon="-0.05186">
        <ele>721</ele>
        <time>2024-08-15T06:43:13Z</time>
      </trkpt>
      <trkpt lat="42.98513" lon="-0.05183">
        <ele>721</ele>
        <time>2024-08-15T06:43:14Z</time>
      </trkpt>
      <trkpt lat="42.98511" lon="-0.05181">
        <ele>721.2</ele>
        <time>2024-08-15T06:43:15Z</time>
      </trkpt>
      <trkpt lat="42.9851" lon="-0.05179">
        <ele>721.2</ele>
        <time>2024-08-15T06:43:16Z</time>
      </trkpt>
      <trkpt lat="42.98508" lon="-0.05177">
        <ele>721.4</ele>
        <time>2024-08-15T06:43:17Z</time>
      </trkpt>
      <trkpt lat="42.98506" lon="-0.05176">
        <ele>721.4</ele>
        <time>2024-08-15T06:43:18Z</time>
      </trkpt>
      <trkpt lat="42.98504" lon="-0.05175">
        <ele>721.8</ele>
        <time>2024-08-15T06:43:19Z</time>
      </trkpt>
      <trkpt lat="42.98502" lon="-0.05174">
        <ele>722</ele>
        <time>2024-08-15T06:43:20Z</time>
      </trkpt>
      <trkpt lat="42.985" lon="-0.05172">
        <ele>722.2</ele>
        <time>2024-08-15T06:43:21Z</time>
      </trkpt>
      <trkpt lat="42.98498" lon="-0.05171">
        <ele>722.4</ele>
        <time>2024-08-15T06:43:22Z</time>
      </trkpt>
      <trkpt lat="42.98495" lon="-0.0517">
        <ele>722.6</ele>
        <time>2024-08-15T06:43:23Z</time>
      </trkpt>
      <trkpt lat="42.98493" lon="-0.05168">
        <ele>723</ele>
        <time>2024-08-15T06:43:24Z</time>
      </trkpt>
      <trkpt lat="42.9849" lon="-0.05167">
        <ele>723.2</ele>
        <time>2024-08-15T06:43:25Z</time>
      </trkpt>
      <trkpt lat="42.98488" lon="-0.05166">
        <ele>723.2</ele>
        <time>2024-08-15T06:43:26Z</time>
      </trkpt>
      <trkpt lat="42.98486" lon="-0.05166">
        <ele>723.2</ele>
        <time>2024-08-15T06:43:27Z</time>
      </trkpt>
      <trkpt lat="42.98483" lon="-0.05165">
        <ele>723.4</ele>
        <time>2024-08-15T06:43:28Z</time>
      </trkpt>
      <trkpt lat="42.9848" lon="-0.05164">
        <ele>723.8</ele>
        <time>2024-08-15T06:43:29Z</time>
      </trkpt>
      <trkpt lat="42.98478" lon="-0.05162">
        <ele>723.8</ele>
        <time>2024-08-15T06:43:30Z</time>
      </trkpt>
      <trkpt lat="42.98477" lon="-0.05162">
        <ele>724</ele>
        <time>2024-08-15T06:43:31Z</time>
      </trkpt>
      <trkpt lat="42.98474" lon="-0.0516">
        <ele>724.2</ele>
        <time>2024-08-15T06:43:32Z</time>
      </trkpt>
      <trkpt lat="42.98472" lon="-0.05159">
        <ele>724.4</ele>
        <time>2024-08-15T06:43:33Z</time>
      </trkpt>
      <trkpt lat="42.9847" lon="-0.05158">
        <ele>724.6</ele>
        <time>2024-08-15T06:43:34Z</time>
      </trkpt>
      <trkpt lat="42.98468" lon="-0.05156">
        <ele>725</ele>
        <time>2024-08-15T06:43:35Z</time>
      </trkpt>
      <trkpt lat="42.98466" lon="-0.05154">
        <ele>725.2</ele>
        <time>2024-08-15T06:43:36Z</time>
      </trkpt>
      <trkpt lat="42.98465" lon="-0.05153">
        <ele>725.4</ele>
        <time>2024-08-15T06:43:37Z</time>
      </trkpt>
      <trkpt lat="42.98462" lon="-0.05152">
        <ele>725.8</ele>
        <time>2024-08-15T06:43:38Z</time>
      </trkpt>
      <trkpt lat="42.98461" lon="-0.0515">
        <ele>725.8</ele>
        <time>2024-08-15T06:43:39Z</time>
      </trkpt>
      <trkpt lat="42.98458" lon="-0.05148">
        <ele>726.2</ele>
        <time>2024-08-15T06:43:40Z</time>
      </trkpt>
      <trkpt lat="42.98457" lon="-0.05146">
        <ele>726.2</ele>
        <time>2024-08-15T06:43:41Z</time>
      </trkpt>
      <trkpt lat="42.98455" lon="-0.05145">
        <ele>726.6</ele>
        <time>2024-08-15T06:43:42Z</time>
      </trkpt>
      <trkpt lat="42.98453" lon="-0.05142">
        <ele>726.6</ele>
        <time>2024-08-15T06:43:43Z</time>
      </trkpt>
      <trkpt lat="42.98451" lon="-0.0514">
        <ele>726.8</ele>
        <time>2024-08-15T06:43:44Z</time>
      </trkpt>
      <trkpt lat="42.98449" lon="-0.05138">
        <ele>727</ele>
        <time>2024-08-15T06:43:45Z</time>
      </trkpt>
      <trkpt lat="42.98448" lon="-0.05136">
        <ele>727</ele>
        <time>2024-08-15T06:43:46Z</time>
      </trkpt>
      <trkpt lat="42.98446" lon="-0.05134">
        <ele>727.4</ele>
        <time>2024-08-15T06:43:47Z</time>
      </trkpt>
      <trkpt lat="42.98444" lon="-0.05133">
        <ele>727.4</ele>
        <time>2024-08-15T06:43:48Z</time>
      </trkpt>
      <trkpt lat="42.98442" lon="-0.0513">
        <ele>727.6</ele>
        <time>2024-08-15T06:43:49Z</time>
      </trkpt>
      <trkpt lat="42.9844" lon="-0.05128">
        <ele>727.8</ele>
        <time>2024-08-15T06:43:50Z</time>
      </trkpt>
      <trkpt lat="42.98438" lon="-0.05126">
        <ele>728</ele>
        <time>2024-08-15T06:43:51Z</time>
      </trkpt>
      <trkpt lat="42.98436" lon="-0.05125">
        <ele>728.2</ele>
        <time>2024-08-15T06:43:52Z</time>
      </trkpt>
      <trkpt lat="42.98434" lon="-0.05123">
        <ele>728.4</ele>
        <time>2024-08-15T06:43:53Z</time>
      </trkpt>
      <trkpt lat="42.98432" lon="-0.0512">
        <ele>728.8</ele>
        <time>2024-08-15T06:43:54Z</time>
      </trkpt>
      <trkpt lat="42.9843" lon="-0.05118">
        <ele>728.8</ele>
        <time>2024-08-15T06:43:55Z</time>
      </trkpt>
      <trkpt lat="42.98428" lon="-0.05116">
        <ele>729</ele>
        <time>2024-08-15T06:43:56Z</time>
      </trkpt>
      <trkpt lat="42.98427" lon="-0.05114">
        <ele>729.2</ele>
        <time>2024-08-15T06:43:57Z</time>
      </trkpt>
      <trkpt lat="42.98425" lon="-0.05112">
        <ele>729.4</ele>
        <time>2024-08-15T06:43:58Z</time>
      </trkpt>
      <trkpt lat="42.98423" lon="-0.05109">
        <ele>729.6</ele>
        <time>2024-08-15T06:43:59Z</time>
      </trkpt>
      <trkpt lat="42.98421" lon="-0.05106">
        <ele>729.8</ele>
        <time>2024-08-15T06:44:00Z</time>
      </trkpt>
      <trkpt lat="42.9842" lon="-0.05103">
        <ele>730.2</ele>
        <time>2024-08-15T06:44:01Z</time>
      </trkpt>
      <trkpt lat="42.98419" lon="-0.05101">
        <ele>730.2</ele>
        <time>2024-08-15T06:44:02Z</time>
      </trkpt>
      <trkpt lat="42.98418" lon="-0.05098">
        <ele>730.6</ele>
        <time>2024-08-15T06:44:03Z</time>
      </trkpt>
      <trkpt lat="42.98417" lon="-0.05095">
        <ele>730.8</ele>
        <time>2024-08-15T06:44:04Z</time>
      </trkpt>
      <trkpt lat="42.98416" lon="-0.05092">
        <ele>731.2</ele>
        <time>2024-08-15T06:44:05Z</time>
      </trkpt>
      <trkpt lat="42.98415" lon="-0.05089">
        <ele>731.2</ele>
        <time>2024-08-15T06:44:06Z</time>
      </trkpt>
      <trkpt lat="42.98414" lon="-0.05087">
        <ele>731.6</ele>
        <time>2024-08-15T06:44:07Z</time>
      </trkpt>
      <trkpt lat="42.98414" lon="-0.05084">
        <ele>731.8</ele>
        <time>2024-08-15T06:44:08Z</time>
      </trkpt>
      <trkpt lat="42.98413" lon="-0.05081">
        <ele>732</ele>
        <time>2024-08-15T06:44:09Z</time>
      </trkpt>
      <trkpt lat="42.98413" lon="-0.05077">
        <ele>732.2</ele>
        <time>2024-08-15T06:44:10Z</time>
      </trkpt>
      <trkpt lat="42.98412" lon="-0.05074">
        <ele>732.4</ele>
        <time>2024-08-15T06:44:11Z</time>
      </trkpt>
      <trkpt lat="42.98411" lon="-0.05071">
        <ele>732.4</ele>
        <time>2024-08-15T06:44:12Z</time>
      </trkpt>
      <trkpt lat="42.98411" lon="-0.05069">
        <ele>732.6</ele>
        <time>2024-08-15T06:44:13Z</time>
      </trkpt>
      <trkpt lat="42.9841" lon="-0.05065">
        <ele>732.8</ele>
        <time>2024-08-15T06:44:14Z</time>
      </trkpt>
      <trkpt lat="42.98408" lon="-0.05062">
        <ele>732.8</ele>
        <time>2024-08-15T06:44:15Z</time>
      </trkpt>
      <trkpt lat="42.98408" lon="-0.05059">
        <ele>733.2</ele>
        <time>2024-08-15T06:44:16Z</time>
      </trkpt>
      <trkpt lat="42.98407" lon="-0.05057">
        <ele>733.4</ele>
        <time>2024-08-15T06:44:17Z</time>
      </trkpt>
      <trkpt lat="42.98406" lon="-0.05054">
        <ele>733.4</ele>
        <time>2024-08-15T06:44:18Z</time>
      </trkpt>
      <trkpt lat="42.98406" lon="-0.05051">
        <ele>733.6</ele>
        <time>2024-08-15T06:44:19Z</time>
      </trkpt>
      <trkpt lat="42.98405" lon="-0.05049">
        <ele>733.8</ele>
        <time>2024-08-15T06:44:20Z</time>
      </trkpt>
      <trkpt lat="42.98404" lon="-0.05046">
        <ele>734</ele>
        <time>2024-08-15T06:44:21Z</time>
      </trkpt>
      <trkpt lat="42.98402" lon="-0.05044">
        <ele>734</ele>
        <time>2024-08-15T06:44:22Z</time>
      </trkpt>
      <trkpt lat="42.98401" lon="-0.05042">
        <ele>734.2</ele>
        <time>2024-08-15T06:44:23Z</time>
      </trkpt>
      <trkpt lat="42.98399" lon="-0.0504">
        <ele>734.4</ele>
        <time>2024-08-15T06:44:24Z</time>
      </trkpt>
      <trkpt lat="42.98396" lon="-0.05039">
        <ele>734.6</ele>
        <time>2024-08-15T06:44:25Z</time>
      </trkpt>
      <trkpt lat="42.98394" lon="-0.05038">
        <ele>734.8</ele>
        <time>2024-08-15T06:44:26Z</time>
      </trkpt>
      <trkpt lat="42.98392" lon="-0.05038">
        <ele>734.8</ele>
        <time>2024-08-15T06:44:27Z</time>
      </trkpt>
      <trkpt lat="42.9839" lon="-0.05037">
        <ele>734.8</ele>
        <time>2024-08-15T06:44:28Z</time>
      </trkpt>
      <trkpt lat="42.98388" lon="-0.05036">
        <ele>735</ele>
        <time>2024-08-15T06:44:29Z</time>
      </trkpt>
      <trkpt lat="42.98385" lon="-0.05036">
        <ele>735</ele>
        <time>2024-08-15T06:44:30Z</time>
      </trkpt>
      <trkpt lat="42.98382" lon="-0.05035">
        <ele>735.2</ele>
        <time>2024-08-15T06:44:31Z</time>
      </trkpt>
      <trkpt lat="42.9838" lon="-0.05035">
        <ele>735.4</ele>
        <time>2024-08-15T06:44:32Z</time>
      </trkpt>
      <trkpt lat="42.98377" lon="-0.05035">
        <ele>735.4</ele>
        <time>2024-08-15T06:44:33Z</time>
      </trkpt>
      <trkpt lat="42.98375" lon="-0.05035">
        <ele>735.6</ele>
        <time>2024-08-15T06:44:34Z</time>
      </trkpt>
      <trkpt lat="42.98374" lon="-0.05036">
        <ele>735.6</ele>
        <time>2024-08-15T06:44:35Z</time>
      </trkpt>
      <trkpt lat="42.98372" lon="-0.05035">
        <ele>735.6</ele>
        <time>2024-08-15T06:44:36Z</time>
      </trkpt>
      <trkpt lat="42.9837" lon="-0.05035">
        <ele>735.8</ele>
        <time>2024-08-15T06:44:37Z</time>
      </trkpt>
      <trkpt lat="42.98367" lon="-0.05036">
        <ele>736</ele>
        <time>2024-08-15T06:44:38Z</time>
      </trkpt>
      <trkpt lat="42.98365" lon="-0.05036">
        <ele>736.2</ele>
        <time>2024-08-15T06:44:39Z</time>
      </trkpt>
      <trkpt lat="42.98362" lon="-0.05037">
        <ele>736.2</ele>
        <time>2024-08-15T06:44:40Z</time>
      </trkpt>
      <trkpt lat="42.9836" lon="-0.05038">
        <ele>736.4</ele>
        <time>2024-08-15T06:44:41Z</time>
      </trkpt>
      <trkpt lat="42.98358" lon="-0.05039">
        <ele>736.6</ele>
        <time>2024-08-15T06:44:42Z</time>
      </trkpt>
      <trkpt lat="42.98356" lon="-0.05039">
        <ele>736.6</ele>
        <time>2024-08-15T06:44:43Z</time>
      </trkpt>
      <trkpt lat="42.98355" lon="-0.05041">
        <ele>737</ele>
        <time>2024-08-15T06:44:44Z</time>
      </trkpt>
      <trkpt lat="42.98352" lon="-0.05042">
        <ele>737</ele>
        <time>2024-08-15T06:44:45Z</time>
      </trkpt>
      <trkpt lat="42.9835" lon="-0.05043">
        <ele>737.2</ele>
        <time>2024-08-15T06:44:46Z</time>
      </trkpt>
      <trkpt lat="42.98348" lon="-0.05044">
        <ele>737.2</ele>
        <time>2024-08-15T06:44:47Z</time>
      </trkpt>
      <trkpt lat="42.98346" lon="-0.05045">
        <ele>737.4</ele>
        <time>2024-08-15T06:44:48Z</time>
      </trkpt>
      <trkpt lat="42.98344" lon="-0.05045">
        <ele>737.4</ele>
        <time>2024-08-15T06:44:49Z</time>
      </trkpt>
      <trkpt lat="42.98342" lon="-0.05046">
        <ele>737.6</ele>
        <time>2024-08-15T06:44:50Z</time>
      </trkpt>
      <trkpt lat="42.9834" lon="-0.05048">
        <ele>737.6</ele>
        <time>2024-08-15T06:44:51Z</time>
      </trkpt>
      <trkpt lat="42.98337" lon="-0.0505">
        <ele>737.8</ele>
        <time>2024-08-15T06:44:52Z</time>
      </trkpt>
      <trkpt lat="42.98334" lon="-0.0505">
        <ele>738</ele>
        <time>2024-08-15T06:44:53Z</time>
      </trkpt>
      <trkpt lat="42.98332" lon="-0.0505">
        <ele>738.2</ele>
        <time>2024-08-15T06:44:54Z</time>
      </trkpt>
      <trkpt lat="42.9833" lon="-0.05051">
        <ele>738.4</ele>
        <time>2024-08-15T06:44:55Z</time>
      </trkpt>
      <trkpt lat="42.98327" lon="-0.05053">
        <ele>738.6</ele>
        <time>2024-08-15T06:44:56Z</time>
      </trkpt>
      <trkpt lat="42.98325" lon="-0.05054">
        <ele>738.8</ele>
        <time>2024-08-15T06:44:57Z</time>
      </trkpt>
      <trkpt lat="42.98323" lon="-0.05056">
        <ele>739</ele>
        <time>2024-08-15T06:44:58Z</time>
      </trkpt>
      <trkpt lat="42.98321" lon="-0.05057">
        <ele>739</ele>
        <time>2024-08-15T06:44:59Z</time>
      </trkpt>
      <trkpt lat="42.98318" lon="-0.05058">
        <ele>739</ele>
        <time>2024-08-15T06:45:00Z</time>
      </trkpt>
      <trkpt lat="42.98315" lon="-0.05058">
        <ele>739.2</ele>
        <time>2024-08-15T06:45:01Z</time>
      </trkpt>
      <trkpt lat="42.98313" lon="-0.05059">
        <ele>739.4</ele>
        <time>2024-08-15T06:45:02Z</time>
      </trkpt>
      <trkpt lat="42.9831" lon="-0.0506">
        <ele>739.6</ele>
        <time>2024-08-15T06:45:03Z</time>
      </trkpt>
      <trkpt lat="42.98308" lon="-0.0506">
        <ele>739.8</ele>
        <time>2024-08-15T06:45:04Z</time>
      </trkpt>
      <trkpt lat="42.98305" lon="-0.05061">
        <ele>739.8</ele>
        <time>2024-08-15T06:45:05Z</time>
      </trkpt>
      <trkpt lat="42.98302" lon="-0.0506">
        <ele>739.8</ele>
        <time>2024-08-15T06:45:06Z</time>
      </trkpt>
      <trkpt lat="42.98299" lon="-0.0506">
        <ele>740</ele>
        <time>2024-08-15T06:45:07Z</time>
      </trkpt>
      <trkpt lat="42.98297" lon="-0.05059">
        <ele>740.2</ele>
        <time>2024-08-15T06:45:08Z</time>
      </trkpt>
      <trkpt lat="42.98295" lon="-0.05058">
        <ele>740.4</ele>
        <time>2024-08-15T06:45:09Z</time>
      </trkpt>
      <trkpt lat="42.98292" lon="-0.05057">
        <ele>740.6</ele>
        <time>2024-08-15T06:45:10Z</time>
      </trkpt>
      <trkpt lat="42.9829" lon="-0.05056">
        <ele>740.8</ele>
        <time>2024-08-15T06:45:11Z</time>
      </trkpt>
      <trkpt lat="42.98287" lon="-0.05055">
        <ele>741</ele>
        <time>2024-08-15T06:45:12Z</time>
      </trkpt>
      <trkpt lat="42.98285" lon="-0.05054">
        <ele>741.4</ele>
        <time>2024-08-15T06:45:13Z</time>
      </trkpt>
      <trkpt lat="42.98282" lon="-0.05053">
        <ele>741.6</ele>
        <time>2024-08-15T06:45:14Z</time>
      </trkpt>
      <trkpt lat="42.9828" lon="-0.05051">
        <ele>741.6</ele>
        <time>2024-08-15T06:45:15Z</time>
      </trkpt>
      <trkpt lat="42.98278" lon="-0.0505">
        <ele>742</ele>
        <time>2024-08-15T06:45:16Z</time>
      </trkpt>
      <trkpt lat="42.98276" lon="-0.05048">
        <ele>742</ele>
        <time>2024-08-15T06:45:17Z</time>
      </trkpt>
      <trkpt lat="42.98273" lon="-0.05048">
        <ele>742.4</ele>
        <time>2024-08-15T06:45:18Z</time>
      </trkpt>
      <trkpt lat="42.9827" lon="-0.05047">
        <ele>742.6</ele>
        <time>2024-08-15T06:45:19Z</time>
      </trkpt>
      <trkpt lat="42.98268" lon="-0.05046">
        <ele>742.8</ele>
        <time>2024-08-15T06:45:20Z</time>
      </trkpt>
      <trkpt lat="42.98265" lon="-0.05044">
        <ele>743</ele>
        <time>2024-08-15T06:45:21Z</time>
      </trkpt>
      <trkpt lat="42.98262" lon="-0.05044">
        <ele>743.2</ele>
        <time>2024-08-15T06:45:22Z</time>
      </trkpt>
      <trkpt lat="42.98259" lon="-0.05043">
        <ele>743.4</ele>
        <time>2024-08-15T06:45:23Z</time>
      </trkpt>
      <trkpt lat="42.98257" lon="-0.05042">
        <ele>743.4</ele>
        <time>2024-08-15T06:45:24Z</time>
      </trkpt>
      <trkpt lat="42.98254" lon="-0.05041">
        <ele>743.8</ele>
        <time>2024-08-15T06:45:25Z</time>
      </trkpt>
      <trkpt lat="42.98252" lon="-0.0504">
        <ele>744</ele>
        <time>2024-08-15T06:45:26Z</time>
      </trkpt>
      <trkpt lat="42.98249" lon="-0.05039">
        <ele>744.2</ele>
        <time>2024-08-15T06:45:27Z</time>
      </trkpt>
      <trkpt lat="42.98247" lon="-0.05039">
        <ele>744.4</ele>
        <time>2024-08-15T06:45:28Z</time>
      </trkpt>
      <trkpt lat="42.98244" lon="-0.05039">
        <ele>744.6</ele>
        <time>2024-08-15T06:45:29Z</time>
      </trkpt>
      <trkpt lat="42.98241" lon="-0.05038">
        <ele>745</ele>
        <time>2024-08-15T06:45:30Z</time>
      </trkpt>
      <trkpt lat="42.98239" lon="-0.05037">
        <ele>745.2</ele>
        <time>2024-08-15T06:45:31Z</time>
      </trkpt>
      <trkpt lat="42.98237" lon="-0.05036">
        <ele>745.4</ele>
        <time>2024-08-15T06:45:32Z</time>
      </trkpt>
      <trkpt lat="42.98234" lon="-0.05036">
        <ele>745.6</ele>
        <time>2024-08-15T06:45:33Z</time>
      </trkpt>
      <trkpt lat="42.98231" lon="-0.05035">
        <ele>745.8</ele>
        <time>2024-08-15T06:45:34Z</time>
      </trkpt>
      <trkpt lat="42.98229" lon="-0.05034">
        <ele>746</ele>
        <time>2024-08-15T06:45:35Z</time>
      </trkpt>
      <trkpt lat="42.98227" lon="-0.05033">
        <ele>746.2</ele>
        <time>2024-08-15T06:45:36Z</time>
      </trkpt>
      <trkpt lat="42.98224" lon="-0.05032">
        <ele>746.2</ele>
        <time>2024-08-15T06:45:37Z</time>
      </trkpt>
      <trkpt lat="42.98222" lon="-0.05031">
        <ele>746.6</ele>
        <time>2024-08-15T06:45:38Z</time>
      </trkpt>
      <trkpt lat="42.9822" lon="-0.0503">
        <ele>746.8</ele>
        <time>2024-08-15T06:45:39Z</time>
      </trkpt>
      <trkpt lat="42.98217" lon="-0.0503">
        <ele>746.8</ele>
        <time>2024-08-15T06:45:40Z</time>
      </trkpt>
      <trkpt lat="42.98214" lon="-0.05029">
        <ele>747</ele>
        <time>2024-08-15T06:45:41Z</time>
      </trkpt>
      <trkpt lat="42.98212" lon="-0.05028">
        <ele>747</ele>
        <time>2024-08-15T06:45:42Z</time>
      </trkpt>
      <trkpt lat="42.98209" lon="-0.05028">
        <ele>747.4</ele>
        <time>2024-08-15T06:45:43Z</time>
      </trkpt>
      <trkpt lat="42.98207" lon="-0.05027">
        <ele>747.4</ele>
        <time>2024-08-15T06:45:44Z</time>
      </trkpt>
      <trkpt lat="42.98204" lon="-0.05026">
        <ele>747.6</ele>
        <time>2024-08-15T06:45:45Z</time>
      </trkpt>
      <trkpt lat="42.98202" lon="-0.05025">
        <ele>747.8</ele>
        <time>2024-08-15T06:45:46Z</time>
      </trkpt>
      <trkpt lat="42.98201" lon="-0.05024">
        <ele>747.8</ele>
        <time>2024-08-15T06:45:47Z</time>
      </trkpt>
      <trkpt lat="42.98199" lon="-0.05023">
        <ele>748</ele>
        <time>2024-08-15T06:45:48Z</time>
      </trkpt>
      <trkpt lat="42.98197" lon="-0.05022">
        <ele>748</ele>
        <time>2024-08-15T06:45:49Z</time>
      </trkpt>
      <trkpt lat="42.98195" lon="-0.05021">
        <ele>748.2</ele>
        <time>2024-08-15T06:45:50Z</time>
      </trkpt>
      <trkpt lat="42.98193" lon="-0.05021">
        <ele>748.4</ele>
        <time>2024-08-15T06:45:51Z</time>
      </trkpt>
      <trkpt lat="42.98191" lon="-0.0502">
        <ele>748.6</ele>
        <time>2024-08-15T06:45:52Z</time>
      </trkpt>
      <trkpt lat="42.98189" lon="-0.05019">
        <ele>748.6</ele>
        <time>2024-08-15T06:45:53Z</time>
      </trkpt>
      <trkpt lat="42.98186" lon="-0.05019">
        <ele>748.8</ele>
        <time>2024-08-15T06:45:54Z</time>
      </trkpt>
      <trkpt lat="42.98184" lon="-0.05018">
        <ele>749</ele>
        <time>2024-08-15T06:45:55Z</time>
      </trkpt>
      <trkpt lat="42.98182" lon="-0.05017">
        <ele>749</ele>
        <time>2024-08-15T06:45:56Z</time>
      </trkpt>
      <trkpt lat="42.9818" lon="-0.05017">
        <ele>749.2</ele>
        <time>2024-08-15T06:45:57Z</time>
      </trkpt>
      <trkpt lat="42.98176" lon="-0.05016">
        <ele>749.4</ele>
        <time>2024-08-15T06:45:58Z</time>
      </trkpt>
      <trkpt lat="42.98174" lon="-0.05015">
        <ele>749.6</ele>
        <time>2024-08-15T06:45:59Z</time>
      </trkpt>
      <trkpt lat="42.98172" lon="-0.05012">
        <ele>749.6</ele>
        <time>2024-08-15T06:46:00Z</time>
      </trkpt>
      <trkpt lat="42.9817" lon="-0.0501">
        <ele>749.8</ele>
        <time>2024-08-15T06:46:01Z</time>
      </trkpt>
      <trkpt lat="42.98168" lon="-0.05009">
        <ele>749.8</ele>
        <time>2024-08-15T06:46:02Z</time>
      </trkpt>
      <trkpt lat="42.98166" lon="-0.05007">
        <ele>750</ele>
        <time>2024-08-15T06:46:03Z</time>
      </trkpt>
      <trkpt lat="42.98163" lon="-0.05006">
        <ele>750.2</ele>
        <time>2024-08-15T06:46:04Z</time>
      </trkpt>
      <trkpt lat="42.9816" lon="-0.05004">
        <ele>750.4</ele>
        <time>2024-08-15T06:46:05Z</time>
      </trkpt>
      <trkpt lat="42.98158" lon="-0.05003">
        <ele>750.6</ele>
        <time>2024-08-15T06:46:06Z</time>
      </trkpt>
      <trkpt lat="42.98156" lon="-0.05002">
        <ele>750.8</ele>
        <time>2024-08-15T06:46:07Z</time>
      </trkpt>
      <trkpt lat="42.98153" lon="-0.05">
        <ele>750.8</ele>
        <time>2024-08-15T06:46:08Z</time>
      </trkpt>
      <trkpt lat="42.9815" lon="-0.04998">
        <ele>751</ele>
        <time>2024-08-15T06:46:09Z</time>
      </trkpt>
      <trkpt lat="42.98148" lon="-0.04997">
        <ele>751.2</ele>
        <time>2024-08-15T06:46:10Z</time>
      </trkpt>
      <trkpt lat="42.98146" lon="-0.04996">
        <ele>751.4</ele>
        <time>2024-08-15T06:46:11Z</time>
      </trkpt>
      <trkpt lat="42.98144" lon="-0.04995">
        <ele>751.4</ele>
        <time>2024-08-15T06:46:12Z</time>
      </trkpt>
      <trkpt lat="42.98141" lon="-0.04994">
        <ele>751.6</ele>
        <time>2024-08-15T06:46:13Z</time>
      </trkpt>
      <trkpt lat="42.98138" lon="-0.04992">
        <ele>751.8</ele>
        <time>2024-08-15T06:46:14Z</time>
      </trkpt>
      <trkpt lat="42.98135" lon="-0.04991">
        <ele>752</ele>
        <time>2024-08-15T06:46:15Z</time>
      </trkpt>
      <trkpt lat="42.98133" lon="-0.0499">
        <ele>752</ele>
        <time>2024-08-15T06:46:16Z</time>
      </trkpt>
      <trkpt lat="42.98131" lon="-0.0499">
        <ele>752.2</ele>
        <time>2024-08-15T06:46:17Z</time>
      </trkpt>
      <trkpt lat="42.98128" lon="-0.04988">
        <ele>752.4</ele>
        <time>2024-08-15T06:46:18Z</time>
      </trkpt>
      <trkpt lat="42.98125" lon="-0.04988">
        <ele>752.4</ele>
        <time>2024-08-15T06:46:19Z</time>
      </trkpt>
      <trkpt lat="42.98123" lon="-0.04987">
        <ele>752.6</ele>
        <time>2024-08-15T06:46:20Z</time>
      </trkpt>
      <trkpt lat="42.9812" lon="-0.04986">
        <ele>752.8</ele>
        <time>2024-08-15T06:46:21Z</time>
      </trkpt>
      <trkpt lat="42.98118" lon="-0.04985">
        <ele>753</ele>
        <time>2024-08-15T06:46:22Z</time>
      </trkpt>
      <trkpt lat="42.98115" lon="-0.04985">
        <ele>753</ele>
        <time>2024-08-15T06:46:23Z</time>
      </trkpt>
      <trkpt lat="42.98113" lon="-0.04984">
        <ele>753.2</ele>
        <time>2024-08-15T06:46:24Z</time>
      </trkpt>
      <trkpt lat="42.9811" lon="-0.04983">
        <ele>753.2</ele>
        <time>2024-08-15T06:46:25Z</time>
      </trkpt>
      <trkpt lat="42.98107" lon="-0.04983">
        <ele>753.4</ele>
        <time>2024-08-15T06:46:26Z</time>
      </trkpt>
      <trkpt lat="42.98105" lon="-0.04983">
        <ele>753.6</ele>
        <time>2024-08-15T06:46:27Z</time>
      </trkpt>
      <trkpt lat="42.98102" lon="-0.04982">
        <ele>753.6</ele>
        <time>2024-08-15T06:46:28Z</time>
      </trkpt>
      <trkpt lat="42.981" lon="-0.04981">
        <ele>753.8</ele>
        <time>2024-08-15T06:46:29Z</time>
      </trkpt>
      <trkpt lat="42.98097" lon="-0.0498">
        <ele>753.8</ele>
        <time>2024-08-15T06:46:30Z</time>
      </trkpt>
      <trkpt lat="42.98095" lon="-0.0498">
        <ele>754</ele>
        <time>2024-08-15T06:46:31Z</time>
      </trkpt>
      <trkpt lat="42.98093" lon="-0.04979">
        <ele>754</ele>
        <time>2024-08-15T06:46:32Z</time>
      </trkpt>
      <trkpt lat="42.98091" lon="-0.04979">
        <ele>754.4</ele>
        <time>2024-08-15T06:46:33Z</time>
      </trkpt>
      <trkpt lat="42.98087" lon="-0.04978">
        <ele>754.4</ele>
        <time>2024-08-15T06:46:34Z</time>
      </trkpt>
      <trkpt lat="42.98085" lon="-0.04978">
        <ele>754.6</ele>
        <time>2024-08-15T06:46:35Z</time>
      </trkpt>
      <trkpt lat="42.98083" lon="-0.04977">
        <ele>755</ele>
        <time>2024-08-15T06:46:36Z</time>
      </trkpt>
      <trkpt lat="42.9808" lon="-0.04977">
        <ele>755</ele>
        <time>2024-08-15T06:46:37Z</time>
      </trkpt>
      <trkpt lat="42.98077" lon="-0.04976">
        <ele>755.2</ele>
        <time>2024-08-15T06:46:38Z</time>
      </trkpt>
      <trkpt lat="42.98074" lon="-0.04975">
        <ele>755.2</ele>
        <time>2024-08-15T06:46:39Z</time>
      </trkpt>
      <trkpt lat="42.98072" lon="-0.04975">
        <ele>755.4</ele>
        <time>2024-08-15T06:46:40Z</time>
      </trkpt>
      <trkpt lat="42.98069" lon="-0.04974">
        <ele>755.4</ele>
        <time>2024-08-15T06:46:41Z</time>
      </trkpt>
      <trkpt lat="42.98067" lon="-0.04973">
        <ele>755.4</ele>
        <time>2024-08-15T06:46:42Z</time>
      </trkpt>
      <trkpt lat="42.98064" lon="-0.04973">
        <ele>755.6</ele>
        <time>2024-08-15T06:46:43Z</time>
      </trkpt>
      <trkpt lat="42.98061" lon="-0.04971">
        <ele>755.8</ele>
        <time>2024-08-15T06:46:44Z</time>
      </trkpt>
      <trkpt lat="42.9806" lon="-0.04971">
        <ele>756</ele>
        <time>2024-08-15T06:46:45Z</time>
      </trkpt>
      <trkpt lat="42.98057" lon="-0.04971">
        <ele>756.2</ele>
        <time>2024-08-15T06:46:46Z</time>
      </trkpt>
      <trkpt lat="42.98055" lon="-0.0497">
        <ele>756.4</ele>
        <time>2024-08-15T06:46:47Z</time>
      </trkpt>
      <trkpt lat="42.98052" lon="-0.04969">
        <ele>756.6</ele>
        <time>2024-08-15T06:46:48Z</time>
      </trkpt>
      <trkpt lat="42.98049" lon="-0.04969">
        <ele>756.8</ele>
        <time>2024-08-15T06:46:49Z</time>
      </trkpt>
      <trkpt lat="42.98046" lon="-0.04968">
        <ele>757</ele>
        <time>2024-08-15T06:46:50Z</time>
      </trkpt>
      <trkpt lat="42.98044" lon="-0.04968">
        <ele>757.2</ele>
        <time>2024-08-15T06:46:51Z</time>
      </trkpt>
      <trkpt lat="42.98042" lon="-0.04967">
        <ele>757.4</ele>
        <time>2024-08-15T06:46:52Z</time>
      </trkpt>
      <trkpt lat="42.9804" lon="-0.04966">
        <ele>757.6</ele>
        <time>2024-08-15T06:46:53Z</time>
      </trkpt>
      <trkpt lat="42.98037" lon="-0.04966">
        <ele>757.6</ele>
        <time>2024-08-15T06:46:54Z</time>
      </trkpt>
      <trkpt lat="42.98034" lon="-0.04965">
        <ele>757.8</ele>
        <time>2024-08-15T06:46:55Z</time>
      </trkpt>
      <trkpt lat="42.98032" lon="-0.04965">
        <ele>758.2</ele>
        <time>2024-08-15T06:46:56Z</time>
      </trkpt>
      <trkpt lat="42.98029" lon="-0.04964">
        <ele>758.2</ele>
        <time>2024-08-15T06:46:57Z</time>
      </trkpt>
      <trkpt lat="42.98027" lon="-0.04964">
        <ele>758.4</ele>
        <time>2024-08-15T06:46:58Z</time>
      </trkpt>
      <trkpt lat="42.98025" lon="-0.04964">
        <ele>758.6</ele>
        <time>2024-08-15T06:46:59Z</time>
      </trkpt>
      <trkpt lat="42.98021" lon="-0.04963">
        <ele>758.8</ele>
        <time>2024-08-15T06:47:00Z</time>
      </trkpt>
      <trkpt lat="42.98019" lon="-0.04963">
        <ele>759</ele>
        <time>2024-08-15T06:47:01Z</time>
      </trkpt>
      <trkpt lat="42.98016" lon="-0.04964">
        <ele>759.2</ele>
        <time>2024-08-15T06:47:02Z</time>
      </trkpt>
      <trkpt lat="42.98014" lon="-0.04964">
        <ele>759.4</ele>
        <time>2024-08-15T06:47:03Z</time>
      </trkpt>
      <trkpt lat="42.98012" lon="-0.04965">
        <ele>759.4</ele>
        <time>2024-08-15T06:47:04Z</time>
      </trkpt>
      <trkpt lat="42.98009" lon="-0.04966">
        <ele>759.6</ele>
        <time>2024-08-15T06:47:05Z</time>
      </trkpt>
      <trkpt lat="42.98007" lon="-0.04966">
        <ele>759.6</ele>
        <time>2024-08-15T06:47:06Z</time>
      </trkpt>
      <trkpt lat="42.98004" lon="-0.04967">
        <ele>759.8</ele>
        <time>2024-08-15T06:47:07Z</time>
      </trkpt>
      <trkpt lat="42.98002" lon="-0.04967">
        <ele>760.2</ele>
        <time>2024-08-15T06:47:08Z</time>
      </trkpt>
      <trkpt lat="42.97999" lon="-0.04968">
        <ele>760.2</ele>
        <time>2024-08-15T06:47:09Z</time>
      </trkpt>
      <trkpt lat="42.97997" lon="-0.04969">
        <ele>760.2</ele>
        <time>2024-08-15T06:47:10Z</time>
      </trkpt>
      <trkpt lat="42.97994" lon="-0.0497">
        <ele>760.4</ele>
        <time>2024-08-15T06:47:11Z</time>
      </trkpt>
      <trkpt lat="42.97992" lon="-0.04971">
        <ele>760.6</ele>
        <time>2024-08-15T06:47:12Z</time>
      </trkpt>
      <trkpt lat="42.97989" lon="-0.04972">
        <ele>760.6</ele>
        <time>2024-08-15T06:47:13Z</time>
      </trkpt>
      <trkpt lat="42.97987" lon="-0.04972">
        <ele>760.6</ele>
        <time>2024-08-15T06:47:14Z</time>
      </trkpt>
      <trkpt lat="42.97984" lon="-0.04973">
        <ele>760.8</ele>
        <time>2024-08-15T06:47:15Z</time>
      </trkpt>
      <trkpt lat="42.97981" lon="-0.04973">
        <ele>760.8</ele>
        <time>2024-08-15T06:47:16Z</time>
      </trkpt>
      <trkpt lat="42.97979" lon="-0.04973">
        <ele>761</ele>
        <time>2024-08-15T06:47:17Z</time>
      </trkpt>
      <trkpt lat="42.97976" lon="-0.04973">
        <ele>761.2</ele>
        <time>2024-08-15T06:47:18Z</time>
      </trkpt>
      <trkpt lat="42.97973" lon="-0.04973">
        <ele>761.4</ele>
        <time>2024-08-15T06:47:19Z</time>
      </trkpt>
      <trkpt lat="42.9797" lon="-0.04973">
        <ele>761.4</ele>
        <time>2024-08-15T06:47:20Z</time>
      </trkpt>
      <trkpt lat="42.97967" lon="-0.04973">
        <ele>761.6</ele>
        <time>2024-08-15T06:47:21Z</time>
      </trkpt>
      <trkpt lat="42.97965" lon="-0.04972">
        <ele>761.8</ele>
        <time>2024-08-15T06:47:22Z</time>
      </trkpt>
      <trkpt lat="42.97962" lon="-0.04972">
        <ele>762</ele>
        <time>2024-08-15T06:47:23Z</time>
      </trkpt>
      <trkpt lat="42.9796" lon="-0.04971">
        <ele>762</ele>
        <time>2024-08-15T06:47:24Z</time>
      </trkpt>
      <trkpt lat="42.97957" lon="-0.0497">
        <ele>762</ele>
        <time>2024-08-15T06:47:25Z</time>
      </trkpt>
      <trkpt lat="42.97954" lon="-0.04968">
        <ele>762.2</ele>
        <time>2024-08-15T06:47:26Z</time>
      </trkpt>
      <trkpt lat="42.97952" lon="-0.04967">
        <ele>762.4</ele>
        <time>2024-08-15T06:47:27Z</time>
      </trkpt>
      <trkpt lat="42.9795" lon="-0.04965">
        <ele>762.4</ele>
        <time>2024-08-15T06:47:28Z</time>
      </trkpt>
      <trkpt lat="42.97947" lon="-0.04963">
        <ele>762.4</ele>
        <time>2024-08-15T06:47:29Z</time>
      </trkpt>
      <trkpt lat="42.97944" lon="-0.0496">
        <ele>762.6</ele>
        <time>2024-08-15T06:47:30Z</time>
      </trkpt>
      <trkpt lat="42.97943" lon="-0.04958">
        <ele>762.8</ele>
        <time>2024-08-15T06:47:31Z</time>
      </trkpt>
      <trkpt lat="42.9794" lon="-0.04956">
        <ele>762.8</ele>
        <time>2024-08-15T06:47:32Z</time>
      </trkpt>
      <trkpt lat="42.97937" lon="-0.04953">
        <ele>763</ele>
        <time>2024-08-15T06:47:33Z</time>
      </trkpt>
      <trkpt lat="42.97935" lon="-0.0495">
        <ele>763.2</ele>
        <time>2024-08-15T06:47:34Z</time>
      </trkpt>
      <trkpt lat="42.97933" lon="-0.04946">
        <ele>763.4</ele>
        <time>2024-08-15T06:47:35Z</time>
      </trkpt>
      <trkpt lat="42.97931" lon="-0.04943">
        <ele>763.4</ele>
        <time>2024-08-15T06:47:36Z</time>
      </trkpt>
      <trkpt lat="42.97929" lon="-0.0494">
        <ele>763.8</ele>
        <time>2024-08-15T06:47:37Z</time>
      </trkpt>
      <trkpt lat="42.97927" lon="-0.04938">
        <ele>764</ele>
        <time>2024-08-15T06:47:38Z</time>
      </trkpt>
      <trkpt lat="42.97925" lon="-0.04935">
        <ele>764</ele>
        <time>2024-08-15T06:47:39Z</time>
      </trkpt>
      <trkpt lat="42.97923" lon="-0.04931">
        <ele>764.2</ele>
        <time>2024-08-15T06:47:40Z</time>
      </trkpt>
      <trkpt lat="42.97922" lon="-0.04927">
        <ele>764.4</ele>
        <time>2024-08-15T06:47:41Z</time>
      </trkpt>
      <trkpt lat="42.9792" lon="-0.04922">
        <ele>764.6</ele>
        <time>2024-08-15T06:47:42Z</time>
      </trkpt>
      <trkpt lat="42.97919" lon="-0.04919">
        <ele>764.6</ele>
        <time>2024-08-15T06:47:43Z</time>
      </trkpt>
      <trkpt lat="42.97918" lon="-0.04915">
        <ele>764.8</ele>
        <time>2024-08-15T06:47:44Z</time>
      </trkpt>
      <trkpt lat="42.97917" lon="-0.04912">
        <ele>764.8</ele>
        <time>2024-08-15T06:47:45Z</time>
      </trkpt>
      <trkpt lat="42.97917" lon="-0.04908">
        <ele>764.8</ele>
        <time>2024-08-15T06:47:46Z</time>
      </trkpt>
      <trkpt lat="42.97916" lon="-0.04904">
        <ele>765.2</ele>
        <time>2024-08-15T06:47:47Z</time>
      </trkpt>
      <trkpt lat="42.97915" lon="-0.049">
        <ele>765.4</ele>
        <time>2024-08-15T06:47:48Z</time>
      </trkpt>
      <trkpt lat="42.97914" lon="-0.04897">
        <ele>765.6</ele>
        <time>2024-08-15T06:47:49Z</time>
      </trkpt>
      <trkpt lat="42.97914" lon="-0.04894">
        <ele>766</ele>
        <time>2024-08-15T06:47:50Z</time>
      </trkpt>
      <trkpt lat="42.97913" lon="-0.04889">
        <ele>766.4</ele>
        <time>2024-08-15T06:47:51Z</time>
      </trkpt>
      <trkpt lat="42.97912" lon="-0.04886">
        <ele>766.2</ele>
        <time>2024-08-15T06:47:52Z</time>
      </trkpt>
      <trkpt lat="42.97911" lon="-0.04883">
        <ele>766.8</ele>
        <time>2024-08-15T06:47:53Z</time>
      </trkpt>
      <trkpt lat="42.9791" lon="-0.0488">
        <ele>766.8</ele>
        <time>2024-08-15T06:47:54Z</time>
      </trkpt>
      <trkpt lat="42.97909" lon="-0.04876">
        <ele>767</ele>
        <time>2024-08-15T06:47:55Z</time>
      </trkpt>
      <trkpt lat="42.97908" lon="-0.04872">
        <ele>767</ele>
        <time>2024-08-15T06:47:56Z</time>
      </trkpt>
      <trkpt lat="42.97906" lon="-0.04869">
        <ele>767</ele>
        <time>2024-08-15T06:47:57Z</time>
      </trkpt>
      <trkpt lat="42.97904" lon="-0.04865">
        <ele>767.2</ele>
        <time>2024-08-15T06:47:58Z</time>
      </trkpt>
      <trkpt lat="42.97902" lon="-0.04863">
        <ele>767.2</ele>
        <time>2024-08-15T06:47:59Z</time>
      </trkpt>
      <trkpt lat="42.97901" lon="-0.0486">
        <ele>767.4</ele>
        <time>2024-08-15T06:48:00Z</time>
      </trkpt>
      <trkpt lat="42.97899" lon="-0.04858">
        <ele>767.4</ele>
        <time>2024-08-15T06:48:01Z</time>
      </trkpt>
      <trkpt lat="42.97897" lon="-0.04855">
        <ele>767.6</ele>
        <time>2024-08-15T06:48:02Z</time>
      </trkpt>
      <trkpt lat="42.97895" lon="-0.04852">
        <ele>767.8</ele>
        <time>2024-08-15T06:48:03Z</time>
      </trkpt>
      <trkpt lat="42.97893" lon="-0.0485">
        <ele>767.8</ele>
        <time>2024-08-15T06:48:04Z</time>
      </trkpt>
      <trkpt lat="42.97891" lon="-0.04847">
        <ele>768</ele>
        <time>2024-08-15T06:48:05Z</time>
      </trkpt>
      <trkpt lat="42.97889" lon="-0.04845">
        <ele>768</ele>
        <time>2024-08-15T06:48:06Z</time>
      </trkpt>
      <trkpt lat="42.97887" lon="-0.04842">
        <ele>768.2</ele>
        <time>2024-08-15T06:48:07Z</time>
      </trkpt>
      <trkpt lat="42.97885" lon="-0.0484">
        <ele>768.4</ele>
        <time>2024-08-15T06:48:08Z</time>
      </trkpt>
      <trkpt lat="42.97883" lon="-0.04838">
        <ele>768.6</ele>
        <time>2024-08-15T06:48:09Z</time>
      </trkpt>
      <trkpt lat="42.97881" lon="-0.04835">
        <ele>768.8</ele>
        <time>2024-08-15T06:48:10Z</time>
      </trkpt>
      <trkpt lat="42.97878" lon="-0.04833">
        <ele>769</ele>
        <time>2024-08-15T06:48:11Z</time>
      </trkpt>
      <trkpt lat="42.97875" lon="-0.0483">
        <ele>769.2</ele>
        <time>2024-08-15T06:48:12Z</time>
      </trkpt>
      <trkpt lat="42.97873" lon="-0.04829">
        <ele>769.2</ele>
        <time>2024-08-15T06:48:13Z</time>
      </trkpt>
      <trkpt lat="42.97871" lon="-0.04827">
        <ele>769.6</ele>
        <time>2024-08-15T06:48:14Z</time>
      </trkpt>
      <trkpt lat="42.97868" lon="-0.04825">
        <ele>769.6</ele>
        <time>2024-08-15T06:48:15Z</time>
      </trkpt>
      <trkpt lat="42.97866" lon="-0.04823">
        <ele>769.8</ele>
        <time>2024-08-15T06:48:16Z</time>
      </trkpt>
      <trkpt lat="42.97863" lon="-0.04821">
        <ele>770</ele>
        <time>2024-08-15T06:48:17Z</time>
      </trkpt>
      <trkpt lat="42.97861" lon="-0.0482">
        <ele>770</ele>
        <time>2024-08-15T06:48:18Z</time>
      </trkpt>
      <trkpt lat="42.97859" lon="-0.04819">
        <ele>770.2</ele>
        <time>2024-08-15T06:48:19Z</time>
      </trkpt>
      <trkpt lat="42.97856" lon="-0.04818">
        <ele>770.4</ele>
        <time>2024-08-15T06:48:20Z</time>
      </trkpt>
      <trkpt lat="42.97852" lon="-0.04817">
        <ele>770.6</ele>
        <time>2024-08-15T06:48:21Z</time>
      </trkpt>
      <trkpt lat="42.97851" lon="-0.04815">
        <ele>770.6</ele>
        <time>2024-08-15T06:48:22Z</time>
      </trkpt>
      <trkpt lat="42.97848" lon="-0.04814">
        <ele>770.8</ele>
        <time>2024-08-15T06:48:23Z</time>
      </trkpt>
      <trkpt lat="42.97845" lon="-0.04812">
        <ele>771</ele>
        <time>2024-08-15T06:48:24Z</time>
      </trkpt>
      <trkpt lat="42.97843" lon="-0.0481">
        <ele>771.2</ele>
        <time>2024-08-15T06:48:25Z</time>
      </trkpt>
      <trkpt lat="42.9784" lon="-0.04809">
        <ele>771.2</ele>
        <time>2024-08-15T06:48:26Z</time>
      </trkpt>
      <trkpt lat="42.97837" lon="-0.04807">
        <ele>771.4</ele>
        <time>2024-08-15T06:48:27Z</time>
      </trkpt>
      <trkpt lat="42.97835" lon="-0.04805">
        <ele>771.6</ele>
        <time>2024-08-15T06:48:28Z</time>
      </trkpt>
      <trkpt lat="42.97835" lon="-0.04805">
        <ele>771.8</ele>
        <time>2024-08-15T06:48:29Z</time>
      </trkpt>
      <trkpt lat="42.9783" lon="-0.04801">
        <ele>772</ele>
        <time>2024-08-15T06:48:30Z</time>
      </trkpt>
      <trkpt lat="42.97827" lon="-0.04799">
        <ele>772.2</ele>
        <time>2024-08-15T06:48:31Z</time>
      </trkpt>
      <trkpt lat="42.97825" lon="-0.04797">
        <ele>772.4</ele>
        <time>2024-08-15T06:48:32Z</time>
      </trkpt>
      <trkpt lat="42.97822" lon="-0.04795">
        <ele>772.4</ele>
        <time>2024-08-15T06:48:33Z</time>
      </trkpt>
      <trkpt lat="42.9782" lon="-0.04793">
        <ele>772.8</ele>
        <time>2024-08-15T06:48:34Z</time>
      </trkpt>
      <trkpt lat="42.97818" lon="-0.04791">
        <ele>773</ele>
        <time>2024-08-15T06:48:35Z</time>
      </trkpt>
      <trkpt lat="42.97815" lon="-0.04789">
        <ele>773</ele>
        <time>2024-08-15T06:48:36Z</time>
      </trkpt>
      <trkpt lat="42.97813" lon="-0.04786">
        <ele>773.2</ele>
        <time>2024-08-15T06:48:37Z</time>
      </trkpt>
      <trkpt lat="42.97811" lon="-0.04784">
        <ele>773.2</ele>
        <time>2024-08-15T06:48:38Z</time>
      </trkpt>
      <trkpt lat="42.97808" lon="-0.04782">
        <ele>773.4</ele>
        <time>2024-08-15T06:48:39Z</time>
      </trkpt>
      <trkpt lat="42.97806" lon="-0.0478">
        <ele>773.6</ele>
        <time>2024-08-15T06:48:40Z</time>
      </trkpt>
      <trkpt lat="42.97803" lon="-0.04778">
        <ele>773.8</ele>
        <time>2024-08-15T06:48:41Z</time>
      </trkpt>
      <trkpt lat="42.97801" lon="-0.04776">
        <ele>774</ele>
        <time>2024-08-15T06:48:42Z</time>
      </trkpt>
      <trkpt lat="42.97798" lon="-0.04774">
        <ele>774.2</ele>
        <time>2024-08-15T06:48:43Z</time>
      </trkpt>
      <trkpt lat="42.97796" lon="-0.04773">
        <ele>774.2</ele>
        <time>2024-08-15T06:48:44Z</time>
      </trkpt>
      <trkpt lat="42.97793" lon="-0.04771">
        <ele>774.4</ele>
        <time>2024-08-15T06:48:45Z</time>
      </trkpt>
      <trkpt lat="42.97791" lon="-0.04769">
        <ele>774.6</ele>
        <time>2024-08-15T06:48:46Z</time>
      </trkpt>
      <trkpt lat="42.97788" lon="-0.04767">
        <ele>774.6</ele>
        <time>2024-08-15T06:48:47Z</time>
      </trkpt>
      <trkpt lat="42.97786" lon="-0.04765">
        <ele>774.8</ele>
        <time>2024-08-15T06:48:48Z</time>
      </trkpt>
      <trkpt lat="42.97783" lon="-0.04764">
        <ele>775</ele>
        <time>2024-08-15T06:48:49Z</time>
      </trkpt>
      <trkpt lat="42.97781" lon="-0.04762">
        <ele>775.2</ele>
        <time>2024-08-15T06:48:50Z</time>
      </trkpt>
      <trkpt lat="42.97779" lon="-0.0476">
        <ele>775.4</ele>
        <time>2024-08-15T06:48:51Z</time>
      </trkpt>
      <trkpt lat="42.97776" lon="-0.04759">
        <ele>775.4</ele>
        <time>2024-08-15T06:48:52Z</time>
      </trkpt>
      <trkpt lat="42.97773" lon="-0.04757">
        <ele>775.8</ele>
        <time>2024-08-15T06:48:53Z</time>
      </trkpt>
      <trkpt lat="42.97771" lon="-0.04756">
        <ele>775.8</ele>
        <time>2024-08-15T06:48:54Z</time>
      </trkpt>
      <trkpt lat="42.97769" lon="-0.04755">
        <ele>776</ele>
        <time>2024-08-15T06:48:55Z</time>
      </trkpt>
      <trkpt lat="42.97766" lon="-0.04753">
        <ele>776.2</ele>
        <time>2024-08-15T06:48:56Z</time>
      </trkpt>
      <trkpt lat="42.97764" lon="-0.04752">
        <ele>776.4</ele>
        <time>2024-08-15T06:48:57Z</time>
      </trkpt>
      <trkpt lat="42.97762" lon="-0.0475">
        <ele>776.6</ele>
        <time>2024-08-15T06:48:58Z</time>
      </trkpt>
      <trkpt lat="42.97761" lon="-0.04748">
        <ele>776.8</ele>
        <time>2024-08-15T06:48:59Z</time>
      </trkpt>
      <trkpt lat="42.97759" lon="-0.04746">
        <ele>777</ele>
        <time>2024-08-15T06:49:00Z</time>
      </trkpt>
      <trkpt lat="42.97758" lon="-0.04743">
        <ele>777</ele>
        <time>2024-08-15T06:49:01Z</time>
      </trkpt>
      <trkpt lat="42.97756" lon="-0.04741">
        <ele>777.4</ele>
        <time>2024-08-15T06:49:02Z</time>
      </trkpt>
      <trkpt lat="42.97755" lon="-0.04739">
        <ele>777.4</ele>
        <time>2024-08-15T06:49:03Z</time>
      </trkpt>
      <trkpt lat="42.97754" lon="-0.04736">
        <ele>777.6</ele>
        <time>2024-08-15T06:49:04Z</time>
      </trkpt>
      <trkpt lat="42.97753" lon="-0.04734">
        <ele>777.8</ele>
        <time>2024-08-15T06:49:05Z</time>
      </trkpt>
      <trkpt lat="42.97751" lon="-0.04731">
        <ele>777.8</ele>
        <time>2024-08-15T06:49:06Z</time>
      </trkpt>
      <trkpt lat="42.97749" lon="-0.04728">
        <ele>778</ele>
        <time>2024-08-15T06:49:07Z</time>
      </trkpt>
      <trkpt lat="42.97748" lon="-0.04725">
        <ele>778.2</ele>
        <time>2024-08-15T06:49:08Z</time>
      </trkpt>
      <trkpt lat="42.97748" lon="-0.04721">
        <ele>778.2</ele>
        <time>2024-08-15T06:49:09Z</time>
      </trkpt>
      <trkpt lat="42.97747" lon="-0.04717">
        <ele>778.2</ele>
        <time>2024-08-15T06:49:10Z</time>
      </trkpt>
      <trkpt lat="42.97747" lon="-0.04714">
        <ele>778.4</ele>
        <time>2024-08-15T06:49:11Z</time>
      </trkpt>
      <trkpt lat="42.97747" lon="-0.0471">
        <ele>778.6</ele>
        <time>2024-08-15T06:49:12Z</time>
      </trkpt>
      <trkpt lat="42.97747" lon="-0.04707">
        <ele>778.8</ele>
        <time>2024-08-15T06:49:13Z</time>
      </trkpt>
      <trkpt lat="42.97747" lon="-0.04703">
        <ele>779.2</ele>
        <time>2024-08-15T06:49:14Z</time>
      </trkpt>
      <trkpt lat="42.97747" lon="-0.04703">
        <ele>779.4</ele>
        <time>2024-08-15T06:49:15Z</time>
      </trkpt>
      <trkpt lat="42.97746" lon="-0.04695">
        <ele>779.6</ele>
        <time>2024-08-15T06:49:16Z</time>
      </trkpt>
      <trkpt lat="42.97745" lon="-0.04691">
        <ele>779.6</ele>
        <time>2024-08-15T06:49:17Z</time>
      </trkpt>
      <trkpt lat="42.97743" lon="-0.04688">
        <ele>779.8</ele>
        <time>2024-08-15T06:49:18Z</time>
      </trkpt>
      <trkpt lat="42.97742" lon="-0.04684">
        <ele>780</ele>
        <time>2024-08-15T06:49:19Z</time>
      </trkpt>
      <trkpt lat="42.9774" lon="-0.0468">
        <ele>780.2</ele>
        <time>2024-08-15T06:49:20Z</time>
      </trkpt>
      <trkpt lat="42.97739" lon="-0.04677">
        <ele>780.2</ele>
        <time>2024-08-15T06:49:21Z</time>
      </trkpt>
      <trkpt lat="42.97737" lon="-0.04674">
        <ele>780.4</ele>
        <time>2024-08-15T06:49:22Z</time>
      </trkpt>
      <trkpt lat="42.97736" lon="-0.04671">
        <ele>780.8</ele>
        <time>2024-08-15T06:49:23Z</time>
      </trkpt>
      <trkpt lat="42.97735" lon="-0.04667">
        <ele>780.8</ele>
        <time>2024-08-15T06:49:24Z</time>
      </trkpt>
      <trkpt lat="42.97735" lon="-0.04664">
        <ele>781.2</ele>
        <time>2024-08-15T06:49:25Z</time>
      </trkpt>
      <trkpt lat="42.97735" lon="-0.04659">
        <ele>781.2</ele>
        <time>2024-08-15T06:49:26Z</time>
      </trkpt>
      <trkpt lat="42.97733" lon="-0.04655">
        <ele>781.4</ele>
        <time>2024-08-15T06:49:27Z</time>
      </trkpt>
      <trkpt lat="42.97732" lon="-0.04651">
        <ele>781.4</ele>
        <time>2024-08-15T06:49:28Z</time>
      </trkpt>
      <trkpt lat="42.97731" lon="-0.04648">
        <ele>781.6</ele>
        <time>2024-08-15T06:49:29Z</time>
      </trkpt>
      <trkpt lat="42.97731" lon="-0.04644">
        <ele>782</ele>
        <time>2024-08-15T06:49:30Z</time>
      </trkpt>
      <trkpt lat="42.9773" lon="-0.0464">
        <ele>782.2</ele>
        <time>2024-08-15T06:49:31Z</time>
      </trkpt>
      <trkpt lat="42.97729" lon="-0.04637">
        <ele>782.4</ele>
        <time>2024-08-15T06:49:32Z</time>
      </trkpt>
      <trkpt lat="42.97728" lon="-0.04635">
        <ele>782.4</ele>
        <time>2024-08-15T06:49:33Z</time>
      </trkpt>
      <trkpt lat="42.97727" lon="-0.04632">
        <ele>782.8</ele>
        <time>2024-08-15T06:49:34Z</time>
      </trkpt>
      <trkpt lat="42.97726" lon="-0.04629">
        <ele>782.8</ele>
        <time>2024-08-15T06:49:35Z</time>
      </trkpt>
      <trkpt lat="42.97724" lon="-0.04626">
        <ele>783</ele>
        <time>2024-08-15T06:49:36Z</time>
      </trkpt>
      <trkpt lat="42.97722" lon="-0.04622">
        <ele>783.2</ele>
        <time>2024-08-15T06:49:37Z</time>
      </trkpt>
      <trkpt lat="42.9772" lon="-0.04619">
        <ele>783.2</ele>
        <time>2024-08-15T06:49:38Z</time>
      </trkpt>
      <trkpt lat="42.97718" lon="-0.04615">
        <ele>783.6</ele>
        <time>2024-08-15T06:49:39Z</time>
      </trkpt>
      <trkpt lat="42.97717" lon="-0.04612">
        <ele>783.8</ele>
        <time>2024-08-15T06:49:40Z</time>
      </trkpt>
      <trkpt lat="42.97715" lon="-0.04608">
        <ele>784</ele>
        <time>2024-08-15T06:49:41Z</time>
      </trkpt>
      <trkpt lat="42.97714" lon="-0.04605">
        <ele>784.2</ele>
        <time>2024-08-15T06:49:42Z</time>
      </trkpt>
      <trkpt lat="42.97712" lon="-0.04601">
        <ele>784.4</ele>
        <time>2024-08-15T06:49:43Z</time>
      </trkpt>
      <trkpt lat="42.97711" lon="-0.04597">
        <ele>784.4</ele>
        <time>2024-08-15T06:49:44Z</time>
      </trkpt>
      <trkpt lat="42.9771" lon="-0.04594">
        <ele>784.6</ele>
        <time>2024-08-15T06:49:45Z</time>
      </trkpt>
      <trkpt lat="42.97708" lon="-0.0459">
        <ele>784.8</ele>
        <time>2024-08-15T06:49:46Z</time>
      </trkpt>
      <trkpt lat="42.97707" lon="-0.04586">
        <ele>784.8</ele>
        <time>2024-08-15T06:49:47Z</time>
      </trkpt>
      <trkpt lat="42.97705" lon="-0.0458">
        <ele>785</ele>
        <time>2024-08-15T06:49:48Z</time>
      </trkpt>
      <trkpt lat="42.97704" lon="-0.04577">
        <ele>785</ele>
        <time>2024-08-15T06:49:49Z</time>
      </trkpt>
      <trkpt lat="42.97703" lon="-0.04574">
        <ele>785.2</ele>
        <time>2024-08-15T06:49:50Z</time>
      </trkpt>
      <trkpt lat="42.97702" lon="-0.04571">
        <ele>785.2</ele>
        <time>2024-08-15T06:49:51Z</time>
      </trkpt>
      <trkpt lat="42.977" lon="-0.04568">
        <ele>785.4</ele>
        <time>2024-08-15T06:49:52Z</time>
      </trkpt>
      <trkpt lat="42.97698" lon="-0.04564">
        <ele>785.4</ele>
        <time>2024-08-15T06:49:53Z</time>
      </trkpt>
      <trkpt lat="42.97696" lon="-0.04559">
        <ele>785.6</ele>
        <time>2024-08-15T06:49:54Z</time>
      </trkpt>
      <trkpt lat="42.97694" lon="-0.04556">
        <ele>785.6</ele>
        <time>2024-08-15T06:49:55Z</time>
      </trkpt>
      <trkpt lat="42.97692" lon="-0.04554">
        <ele>785.6</ele>
        <time>2024-08-15T06:49:56Z</time>
      </trkpt>
      <trkpt lat="42.9769" lon="-0.0455">
        <ele>785.6</ele>
        <time>2024-08-15T06:49:57Z</time>
      </trkpt>
      <trkpt lat="42.97689" lon="-0.04548">
        <ele>785.6</ele>
        <time>2024-08-15T06:49:58Z</time>
      </trkpt>
      <trkpt lat="42.97687" lon="-0.04547">
        <ele>785.8</ele>
        <time>2024-08-15T06:49:59Z</time>
      </trkpt>
      <trkpt lat="42.97684" lon="-0.04548">
        <ele>785.8</ele>
        <time>2024-08-15T06:50:00Z</time>
      </trkpt>
      <trkpt lat="42.97682" lon="-0.04549">
        <ele>785.8</ele>
        <time>2024-08-15T06:50:01Z</time>
      </trkpt>
      <trkpt lat="42.9768" lon="-0.0455">
        <ele>785.8</ele>
        <time>2024-08-15T06:50:02Z</time>
      </trkpt>
      <trkpt lat="42.97679" lon="-0.04553">
        <ele>785.8</ele>
        <time>2024-08-15T06:50:03Z</time>
      </trkpt>
      <trkpt lat="42.97676" lon="-0.04556">
        <ele>786</ele>
        <time>2024-08-15T06:50:04Z</time>
      </trkpt>
      <trkpt lat="42.97674" lon="-0.0456">
        <ele>786</ele>
        <time>2024-08-15T06:50:05Z</time>
      </trkpt>
      <trkpt lat="42.97672" lon="-0.04564">
        <ele>786.2</ele>
        <time>2024-08-15T06:50:06Z</time>
      </trkpt>
      <trkpt lat="42.97668" lon="-0.04566">
        <ele>786.2</ele>
        <time>2024-08-15T06:50:07Z</time>
      </trkpt>
      <trkpt lat="42.97666" lon="-0.04569">
        <ele>786.2</ele>
        <time>2024-08-15T06:50:08Z</time>
      </trkpt>
      <trkpt lat="42.97664" lon="-0.04572">
        <ele>786.2</ele>
        <time>2024-08-15T06:50:09Z</time>
      </trkpt>
      <trkpt lat="42.97661" lon="-0.04577">
        <ele>786.2</ele>
        <time>2024-08-15T06:50:10Z</time>
      </trkpt>
      <trkpt lat="42.97659" lon="-0.0458">
        <ele>786.2</ele>
        <time>2024-08-15T06:50:11Z</time>
      </trkpt>
      <trkpt lat="42.97658" lon="-0.04582">
        <ele>786.2</ele>
        <time>2024-08-15T06:50:12Z</time>
      </trkpt>
      <trkpt lat="42.97657" lon="-0.04585">
        <ele>786.2</ele>
        <time>2024-08-15T06:50:13Z</time>
      </trkpt>
      <trkpt lat="42.97656" lon="-0.04588">
        <ele>786.2</ele>
        <time>2024-08-15T06:50:14Z</time>
      </trkpt>
      <trkpt lat="42.97654" lon="-0.0459">
        <ele>786.4</ele>
        <time>2024-08-15T06:50:15Z</time>
      </trkpt>
      <trkpt lat="42.97653" lon="-0.04594">
        <ele>786.2</ele>
        <time>2024-08-15T06:50:16Z</time>
      </trkpt>
      <trkpt lat="42.97651" lon="-0.04596">
        <ele>786.2</ele>
        <time>2024-08-15T06:50:17Z</time>
      </trkpt>
      <trkpt lat="42.97649" lon="-0.04598">
        <ele>786.2</ele>
        <time>2024-08-15T06:50:18Z</time>
      </trkpt>
      <trkpt lat="42.97647" lon="-0.046">
        <ele>786.4</ele>
        <time>2024-08-15T06:50:19Z</time>
      </trkpt>
      <trkpt lat="42.97646" lon="-0.04601">
        <ele>786.8</ele>
        <time>2024-08-15T06:50:20Z</time>
      </trkpt>
      <trkpt lat="42.97642" lon="-0.04603">
        <ele>787</ele>
        <time>2024-08-15T06:50:21Z</time>
      </trkpt>
      <trkpt lat="42.97641" lon="-0.04604">
        <ele>787.2</ele>
        <time>2024-08-15T06:50:22Z</time>
      </trkpt>
      <trkpt lat="42.97639" lon="-0.04606">
        <ele>787.2</ele>
        <time>2024-08-15T06:50:23Z</time>
      </trkpt>
      <trkpt lat="42.97634" lon="-0.0461">
        <ele>787.8</ele>
        <time>2024-08-15T06:50:25Z</time>
      </trkpt>
      <trkpt lat="42.97631" lon="-0.04612">
        <ele>788.2</ele>
        <time>2024-08-15T06:50:26Z</time>
      </trkpt>
      <trkpt lat="42.97629" lon="-0.04613">
        <ele>788.6</ele>
        <time>2024-08-15T06:50:27Z</time>
      </trkpt>
      <trkpt lat="42.97626" lon="-0.04614">
        <ele>788.6</ele>
        <time>2024-08-15T06:50:28Z</time>
      </trkpt>
      <trkpt lat="42.9762" lon="-0.04617">
        <ele>789</ele>
        <time>2024-08-15T06:50:30Z</time>
      </trkpt>
      <trkpt lat="42.97617" lon="-0.04618">
        <ele>789.4</ele>
        <time>2024-08-15T06:50:31Z</time>
      </trkpt>
      <trkpt lat="42.97615" lon="-0.04619">
        <ele>789.4</ele>
        <time>2024-08-15T06:50:32Z</time>
      </trkpt>
      <trkpt lat="42.97613" lon="-0.0462">
        <ele>789.8</ele>
        <time>2024-08-15T06:50:33Z</time>
      </trkpt>
      <trkpt lat="42.9761" lon="-0.04621">
        <ele>790</ele>
        <time>2024-08-15T06:50:34Z</time>
      </trkpt>
      <trkpt lat="42.97607" lon="-0.04622">
        <ele>790.6</ele>
        <time>2024-08-15T06:50:35Z</time>
      </trkpt>
      <trkpt lat="42.97605" lon="-0.04623">
        <ele>791</ele>
        <time>2024-08-15T06:50:36Z</time>
      </trkpt>
      <trkpt lat="42.97602" lon="-0.04623">
        <ele>791.2</ele>
        <time>2024-08-15T06:50:37Z</time>
      </trkpt>
      <trkpt lat="42.97599" lon="-0.04623">
        <ele>791.4</ele>
        <time>2024-08-15T06:50:38Z</time>
      </trkpt>
      <trkpt lat="42.97596" lon="-0.04624">
        <ele>791.6</ele>
        <time>2024-08-15T06:50:39Z</time>
      </trkpt>
      <trkpt lat="42.97594" lon="-0.04624">
        <ele>791.8</ele>
        <time>2024-08-15T06:50:40Z</time>
      </trkpt>
      <trkpt lat="42.97592" lon="-0.04624">
        <ele>792</ele>
        <time>2024-08-15T06:50:41Z</time>
      </trkpt>
      <trkpt lat="42.97591" lon="-0.04625">
        <ele>792.4</ele>
        <time>2024-08-15T06:50:42Z</time>
      </trkpt>
      <trkpt lat="42.97589" lon="-0.04625">
        <ele>792.6</ele>
        <time>2024-08-15T06:50:43Z</time>
      </trkpt>
      <trkpt lat="42.97587" lon="-0.04625">
        <ele>792.6</ele>
        <time>2024-08-15T06:50:44Z</time>
      </trkpt>
      <trkpt lat="42.97584" lon="-0.04626">
        <ele>792.8</ele>
        <time>2024-08-15T06:50:45Z</time>
      </trkpt>
      <trkpt lat="42.97581" lon="-0.04627">
        <ele>793</ele>
        <time>2024-08-15T06:50:46Z</time>
      </trkpt>
      <trkpt lat="42.97579" lon="-0.04628">
        <ele>793.2</ele>
        <time>2024-08-15T06:50:47Z</time>
      </trkpt>
      <trkpt lat="42.97577" lon="-0.04629">
        <ele>793.4</ele>
        <time>2024-08-15T06:50:48Z</time>
      </trkpt>
      <trkpt lat="42.97575" lon="-0.04629">
        <ele>793.8</ele>
        <time>2024-08-15T06:50:49Z</time>
      </trkpt>
      <trkpt lat="42.97572" lon="-0.0463">
        <ele>794</ele>
        <time>2024-08-15T06:50:50Z</time>
      </trkpt>
      <trkpt lat="42.97569" lon="-0.0463">
        <ele>794.6</ele>
        <time>2024-08-15T06:50:51Z</time>
      </trkpt>
      <trkpt lat="42.97567" lon="-0.04631">
        <ele>795</ele>
        <time>2024-08-15T06:50:52Z</time>
      </trkpt>
      <trkpt lat="42.97565" lon="-0.04631">
        <ele>795.2</ele>
        <time>2024-08-15T06:50:53Z</time>
      </trkpt>
      <trkpt lat="42.97563" lon="-0.04631">
        <ele>795.4</ele>
        <time>2024-08-15T06:50:54Z</time>
      </trkpt>
      <trkpt lat="42.97561" lon="-0.0463">
        <ele>795.6</ele>
        <time>2024-08-15T06:50:55Z</time>
      </trkpt>
      <trkpt lat="42.97558" lon="-0.0463">
        <ele>796</ele>
        <time>2024-08-15T06:50:56Z</time>
      </trkpt>
      <trkpt lat="42.97556" lon="-0.04629">
        <ele>796.2</ele>
        <time>2024-08-15T06:50:57Z</time>
      </trkpt>
      <trkpt lat="42.97553" lon="-0.04629">
        <ele>796.6</ele>
        <time>2024-08-15T06:50:58Z</time>
      </trkpt>
      <trkpt lat="42.97551" lon="-0.04628">
        <ele>796.8</ele>
        <time>2024-08-15T06:50:59Z</time>
      </trkpt>
      <trkpt lat="42.97549" lon="-0.04627">
        <ele>796.8</ele>
        <time>2024-08-15T06:51:00Z</time>
      </trkpt>
      <trkpt lat="42.97546" lon="-0.04627">
        <ele>797</ele>
        <time>2024-08-15T06:51:01Z</time>
      </trkpt>
      <trkpt lat="42.97544" lon="-0.04626">
        <ele>797.2</ele>
        <time>2024-08-15T06:51:02Z</time>
      </trkpt>
      <trkpt lat="42.97541" lon="-0.04624">
        <ele>797.2</ele>
        <time>2024-08-15T06:51:03Z</time>
      </trkpt>
      <trkpt lat="42.97538" lon="-0.04623">
        <ele>797.4</ele>
        <time>2024-08-15T06:51:04Z</time>
      </trkpt>
      <trkpt lat="42.97535" lon="-0.04622">
        <ele>797.4</ele>
        <time>2024-08-15T06:51:05Z</time>
      </trkpt>
      <trkpt lat="42.97532" lon="-0.04621">
        <ele>797.4</ele>
        <time>2024-08-15T06:51:06Z</time>
      </trkpt>
      <trkpt lat="42.97528" lon="-0.04619">
        <ele>797.6</ele>
        <time>2024-08-15T06:51:07Z</time>
      </trkpt>
      <trkpt lat="42.97525" lon="-0.04618">
        <ele>797.6</ele>
        <time>2024-08-15T06:51:08Z</time>
      </trkpt>
      <trkpt lat="42.97521" lon="-0.04617">
        <ele>797.6</ele>
        <time>2024-08-15T06:51:09Z</time>
      </trkpt>
      <trkpt lat="42.97518" lon="-0.04616">
        <ele>797.6</ele>
        <time>2024-08-15T06:51:10Z</time>
      </trkpt>
      <trkpt lat="42.97514" lon="-0.04615">
        <ele>797.6</ele>
        <time>2024-08-15T06:51:11Z</time>
      </trkpt>
      <trkpt lat="42.97511" lon="-0.04614">
        <ele>797.8</ele>
        <time>2024-08-15T06:51:12Z</time>
      </trkpt>
      <trkpt lat="42.97508" lon="-0.04613">
        <ele>797.8</ele>
        <time>2024-08-15T06:51:13Z</time>
      </trkpt>
      <trkpt lat="42.97505" lon="-0.04612">
        <ele>797.8</ele>
        <time>2024-08-15T06:51:14Z</time>
      </trkpt>
      <trkpt lat="42.97502" lon="-0.04612">
        <ele>798</ele>
        <time>2024-08-15T06:51:15Z</time>
      </trkpt>
      <trkpt lat="42.97499" lon="-0.04611">
        <ele>798</ele>
        <time>2024-08-15T06:51:16Z</time>
      </trkpt>
      <trkpt lat="42.97496" lon="-0.04611">
        <ele>798</ele>
        <time>2024-08-15T06:51:17Z</time>
      </trkpt>
      <trkpt lat="42.97493" lon="-0.0461">
        <ele>798.2</ele>
        <time>2024-08-15T06:51:18Z</time>
      </trkpt>
      <trkpt lat="42.9749" lon="-0.04611">
        <ele>798.2</ele>
        <time>2024-08-15T06:51:19Z</time>
      </trkpt>
      <trkpt lat="42.97488" lon="-0.04611">
        <ele>798.4</ele>
        <time>2024-08-15T06:51:20Z</time>
      </trkpt>
      <trkpt lat="42.97485" lon="-0.04611">
        <ele>798.4</ele>
        <time>2024-08-15T06:51:21Z</time>
      </trkpt>
      <trkpt lat="42.97482" lon="-0.04611">
        <ele>798.6</ele>
        <time>2024-08-15T06:51:22Z</time>
      </trkpt>
      <trkpt lat="42.97479" lon="-0.04612">
        <ele>799</ele>
        <time>2024-08-15T06:51:23Z</time>
      </trkpt>
      <trkpt lat="42.97477" lon="-0.04612">
        <ele>799.2</ele>
        <time>2024-08-15T06:51:24Z</time>
      </trkpt>
      <trkpt lat="42.97474" lon="-0.04613">
        <ele>799.4</ele>
        <time>2024-08-15T06:51:25Z</time>
      </trkpt>
      <trkpt lat="42.97472" lon="-0.04613">
        <ele>799.6</ele>
        <time>2024-08-15T06:51:26Z</time>
      </trkpt>
      <trkpt lat="42.97469" lon="-0.04613">
        <ele>799.8</ele>
        <time>2024-08-15T06:51:27Z</time>
      </trkpt>
      <trkpt lat="42.97466" lon="-0.04614">
        <ele>800</ele>
        <time>2024-08-15T06:51:28Z</time>
      </trkpt>
      <trkpt lat="42.97464" lon="-0.04616">
        <ele>800</ele>
        <time>2024-08-15T06:51:29Z</time>
      </trkpt>
      <trkpt lat="42.97462" lon="-0.04617">
        <ele>800.2</ele>
        <time>2024-08-15T06:51:30Z</time>
      </trkpt>
      <trkpt lat="42.97459" lon="-0.04617">
        <ele>800.4</ele>
        <time>2024-08-15T06:51:31Z</time>
      </trkpt>
      <trkpt lat="42.97456" lon="-0.04618">
        <ele>800.4</ele>
        <time>2024-08-15T06:51:32Z</time>
      </trkpt>
      <trkpt lat="42.97453" lon="-0.04619">
        <ele>800.6</ele>
        <time>2024-08-15T06:51:33Z</time>
      </trkpt>
      <trkpt lat="42.9745" lon="-0.0462">
        <ele>800.8</ele>
        <time>2024-08-15T06:51:34Z</time>
      </trkpt>
      <trkpt lat="42.97447" lon="-0.04621">
        <ele>801.2</ele>
        <time>2024-08-15T06:51:35Z</time>
      </trkpt>
      <trkpt lat="42.97444" lon="-0.04622">
        <ele>801.4</ele>
        <time>2024-08-15T06:51:36Z</time>
      </trkpt>
      <trkpt lat="42.97442" lon="-0.04623">
        <ele>801.6</ele>
        <time>2024-08-15T06:51:37Z</time>
      </trkpt>
      <trkpt lat="42.9744" lon="-0.04624">
        <ele>801.8</ele>
        <time>2024-08-15T06:51:38Z</time>
      </trkpt>
      <trkpt lat="42.97437" lon="-0.04625">
        <ele>802.4</ele>
        <time>2024-08-15T06:51:39Z</time>
      </trkpt>
      <trkpt lat="42.97435" lon="-0.04626">
        <ele>802.6</ele>
        <time>2024-08-15T06:51:40Z</time>
      </trkpt>
      <trkpt lat="42.97432" lon="-0.04628">
        <ele>802.8</ele>
        <time>2024-08-15T06:51:41Z</time>
      </trkpt>
      <trkpt lat="42.97432" lon="-0.04628">
        <ele>803</ele>
        <time>2024-08-15T06:51:42Z</time>
      </trkpt>
      <trkpt lat="42.97428" lon="-0.0463">
        <ele>803</ele>
        <time>2024-08-15T06:51:43Z</time>
      </trkpt>
      <trkpt lat="42.97426" lon="-0.04631">
        <ele>803.4</ele>
        <time>2024-08-15T06:51:44Z</time>
      </trkpt>
      <trkpt lat="42.97423" lon="-0.04632">
        <ele>803.6</ele>
        <time>2024-08-15T06:51:45Z</time>
      </trkpt>
      <trkpt lat="42.97421" lon="-0.04634">
        <ele>803.8</ele>
        <time>2024-08-15T06:51:46Z</time>
      </trkpt>
      <trkpt lat="42.97418" lon="-0.04635">
        <ele>804</ele>
        <time>2024-08-15T06:51:47Z</time>
      </trkpt>
      <trkpt lat="42.97416" lon="-0.04636">
        <ele>804</ele>
        <time>2024-08-15T06:51:48Z</time>
      </trkpt>
      <trkpt lat="42.97413" lon="-0.04637">
        <ele>804.2</ele>
        <time>2024-08-15T06:51:49Z</time>
      </trkpt>
      <trkpt lat="42.9741" lon="-0.04638">
        <ele>804.2</ele>
        <time>2024-08-15T06:51:50Z</time>
      </trkpt>
      <trkpt lat="42.97408" lon="-0.04639">
        <ele>804.4</ele>
        <time>2024-08-15T06:51:51Z</time>
      </trkpt>
      <trkpt lat="42.97405" lon="-0.04639">
        <ele>804.4</ele>
        <time>2024-08-15T06:51:52Z</time>
      </trkpt>
      <trkpt lat="42.97402" lon="-0.04639">
        <ele>804.6</ele>
        <time>2024-08-15T06:51:53Z</time>
      </trkpt>
      <trkpt lat="42.974" lon="-0.04638">
        <ele>804.6</ele>
        <time>2024-08-15T06:51:54Z</time>
      </trkpt>
      <trkpt lat="42.97397" lon="-0.04638">
        <ele>805</ele>
        <time>2024-08-15T06:51:55Z</time>
      </trkpt>
      <trkpt lat="42.97395" lon="-0.04637">
        <ele>805.2</ele>
        <time>2024-08-15T06:51:56Z</time>
      </trkpt>
      <trkpt lat="42.97392" lon="-0.04635">
        <ele>805.4</ele>
        <time>2024-08-15T06:51:57Z</time>
      </trkpt>
      <trkpt lat="42.9739" lon="-0.04634">
        <ele>805.4</ele>
        <time>2024-08-15T06:51:58Z</time>
      </trkpt>
      <trkpt lat="42.97387" lon="-0.04633">
        <ele>805.6</ele>
        <time>2024-08-15T06:51:59Z</time>
      </trkpt>
      <trkpt lat="42.97385" lon="-0.04631">
        <ele>806</ele>
        <time>2024-08-15T06:52:00Z</time>
      </trkpt>
      <trkpt lat="42.97383" lon="-0.0463">
        <ele>806</ele>
        <time>2024-08-15T06:52:01Z</time>
      </trkpt>
      <trkpt lat="42.97381" lon="-0.04629">
        <ele>806.4</ele>
        <time>2024-08-15T06:52:02Z</time>
      </trkpt>
      <trkpt lat="42.97379" lon="-0.04627">
        <ele>806.6</ele>
        <time>2024-08-15T06:52:03Z</time>
      </trkpt>
      <trkpt lat="42.97376" lon="-0.04626">
        <ele>807</ele>
        <time>2024-08-15T06:52:04Z</time>
      </trkpt>
      <trkpt lat="42.97374" lon="-0.04624">
        <ele>807.2</ele>
        <time>2024-08-15T06:52:05Z</time>
      </trkpt>
      <trkpt lat="42.97372" lon="-0.04623">
        <ele>807.2</ele>
        <time>2024-08-15T06:52:06Z</time>
      </trkpt>
      <trkpt lat="42.9737" lon="-0.04621">
        <ele>807.4</ele>
        <time>2024-08-15T06:52:07Z</time>
      </trkpt>
      <trkpt lat="42.97368" lon="-0.04619">
        <ele>807.6</ele>
        <time>2024-08-15T06:52:08Z</time>
      </trkpt>
      <trkpt lat="42.97365" lon="-0.04617">
        <ele>807.8</ele>
        <time>2024-08-15T06:52:09Z</time>
      </trkpt>
      <trkpt lat="42.97363" lon="-0.04615">
        <ele>808</ele>
        <time>2024-08-15T06:52:10Z</time>
      </trkpt>
      <trkpt lat="42.97362" lon="-0.04614">
        <ele>808.4</ele>
        <time>2024-08-15T06:52:11Z</time>
      </trkpt>
      <trkpt lat="42.97359" lon="-0.04611">
        <ele>808.6</ele>
        <time>2024-08-15T06:52:12Z</time>
      </trkpt>
      <trkpt lat="42.97357" lon="-0.04609">
        <ele>808.8</ele>
        <time>2024-08-15T06:52:13Z</time>
      </trkpt>
      <trkpt lat="42.97356" lon="-0.04607">
        <ele>809.2</ele>
        <time>2024-08-15T06:52:14Z</time>
      </trkpt>
      <trkpt lat="42.97355" lon="-0.04604">
        <ele>809.4</ele>
        <time>2024-08-15T06:52:15Z</time>
      </trkpt>
      <trkpt lat="42.97354" lon="-0.04602">
        <ele>809.6</ele>
        <time>2024-08-15T06:52:16Z</time>
      </trkpt>
      <trkpt lat="42.97353" lon="-0.04599">
        <ele>809.8</ele>
        <time>2024-08-15T06:52:17Z</time>
      </trkpt>
      <trkpt lat="42.97352" lon="-0.04595">
        <ele>810.2</ele>
        <time>2024-08-15T06:52:18Z</time>
      </trkpt>
      <trkpt lat="42.97352" lon="-0.04592">
        <ele>810.4</ele>
        <time>2024-08-15T06:52:19Z</time>
      </trkpt>
      <trkpt lat="42.97352" lon="-0.04589">
        <ele>810.6</ele>
        <time>2024-08-15T06:52:20Z</time>
      </trkpt>
      <trkpt lat="42.97353" lon="-0.04588">
        <ele>810.8</ele>
        <time>2024-08-15T06:52:21Z</time>
      </trkpt>
      <trkpt lat="42.97354" lon="-0.04585">
        <ele>811</ele>
        <time>2024-08-15T06:52:22Z</time>
      </trkpt>
      <trkpt lat="42.97356" lon="-0.04583">
        <ele>811.4</ele>
        <time>2024-08-15T06:52:23Z</time>
      </trkpt>
      <trkpt lat="42.97358" lon="-0.04581">
        <ele>811.8</ele>
        <time>2024-08-15T06:52:24Z</time>
      </trkpt>
      <trkpt lat="42.97359" lon="-0.04579">
        <ele>812</ele>
        <time>2024-08-15T06:52:25Z</time>
      </trkpt>
      <trkpt lat="42.97361" lon="-0.04578">
        <ele>812.2</ele>
        <time>2024-08-15T06:52:26Z</time>
      </trkpt>
      <trkpt lat="42.97363" lon="-0.04577">
        <ele>812.4</ele>
        <time>2024-08-15T06:52:27Z</time>
      </trkpt>
      <trkpt lat="42.97365" lon="-0.04575">
        <ele>812.6</ele>
        <time>2024-08-15T06:52:28Z</time>
      </trkpt>
      <trkpt lat="42.97366" lon="-0.04574">
        <ele>813</ele>
        <time>2024-08-15T06:52:29Z</time>
      </trkpt>
      <trkpt lat="42.97368" lon="-0.04573">
        <ele>813.2</ele>
        <time>2024-08-15T06:52:30Z</time>
      </trkpt>
      <trkpt lat="42.97371" lon="-0.04572">
        <ele>813.4</ele>
        <time>2024-08-15T06:52:31Z</time>
      </trkpt>
      <trkpt lat="42.97373" lon="-0.0457">
        <ele>813.8</ele>
        <time>2024-08-15T06:52:32Z</time>
      </trkpt>
      <trkpt lat="42.97375" lon="-0.04569">
        <ele>813.8</ele>
        <time>2024-08-15T06:52:33Z</time>
      </trkpt>
      <trkpt lat="42.97377" lon="-0.04568">
        <ele>814.2</ele>
        <time>2024-08-15T06:52:34Z</time>
      </trkpt>
      <trkpt lat="42.97379" lon="-0.04567">
        <ele>814.4</ele>
        <time>2024-08-15T06:52:35Z</time>
      </trkpt>
      <trkpt lat="42.9738" lon="-0.04565">
        <ele>814.8</ele>
        <time>2024-08-15T06:52:36Z</time>
      </trkpt>
      <trkpt lat="42.97382" lon="-0.04564">
        <ele>815</ele>
        <time>2024-08-15T06:52:37Z</time>
      </trkpt>
      <trkpt lat="42.97384" lon="-0.04562">
        <ele>815.2</ele>
        <time>2024-08-15T06:52:38Z</time>
      </trkpt>
      <trkpt lat="42.97386" lon="-0.04561">
        <ele>815.4</ele>
        <time>2024-08-15T06:52:39Z</time>
      </trkpt>
      <trkpt lat="42.97388" lon="-0.0456">
        <ele>815.6</ele>
        <time>2024-08-15T06:52:40Z</time>
      </trkpt>
      <trkpt lat="42.9739" lon="-0.04558">
        <ele>815.8</ele>
        <time>2024-08-15T06:52:41Z</time>
      </trkpt>
      <trkpt lat="42.97392" lon="-0.04557">
        <ele>816</ele>
        <time>2024-08-15T06:52:42Z</time>
      </trkpt>
      <trkpt lat="42.97394" lon="-0.04556">
        <ele>816.2</ele>
        <time>2024-08-15T06:52:43Z</time>
      </trkpt>
      <trkpt lat="42.97396" lon="-0.04554">
        <ele>816.6</ele>
        <time>2024-08-15T06:52:44Z</time>
      </trkpt>
      <trkpt lat="42.97398" lon="-0.04553">
        <ele>816.8</ele>
        <time>2024-08-15T06:52:45Z</time>
      </trkpt>
      <trkpt lat="42.97399" lon="-0.04552">
        <ele>817.2</ele>
        <time>2024-08-15T06:52:46Z</time>
      </trkpt>
      <trkpt lat="42.97401" lon="-0.0455">
        <ele>817.2</ele>
        <time>2024-08-15T06:52:47Z</time>
      </trkpt>
      <trkpt lat="42.97403" lon="-0.04548">
        <ele>817.6</ele>
        <time>2024-08-15T06:52:48Z</time>
      </trkpt>
      <trkpt lat="42.97405" lon="-0.04547">
        <ele>817.6</ele>
        <time>2024-08-15T06:52:49Z</time>
      </trkpt>
      <trkpt lat="42.97406" lon="-0.04546">
        <ele>818</ele>
        <time>2024-08-15T06:52:50Z</time>
      </trkpt>
      <trkpt lat="42.97408" lon="-0.04544">
        <ele>818</ele>
        <time>2024-08-15T06:52:51Z</time>
      </trkpt>
      <trkpt lat="42.9741" lon="-0.04543">
        <ele>818.4</ele>
        <time>2024-08-15T06:52:52Z</time>
      </trkpt>
      <trkpt lat="42.97412" lon="-0.04541">
        <ele>818.6</ele>
        <time>2024-08-15T06:52:53Z</time>
      </trkpt>
      <trkpt lat="42.97414" lon="-0.0454">
        <ele>818.6</ele>
        <time>2024-08-15T06:52:54Z</time>
      </trkpt>
      <trkpt lat="42.97416" lon="-0.04538">
        <ele>819</ele>
        <time>2024-08-15T06:52:55Z</time>
      </trkpt>
      <trkpt lat="42.97417" lon="-0.04537">
        <ele>819.2</ele>
        <time>2024-08-15T06:52:56Z</time>
      </trkpt>
      <trkpt lat="42.97419" lon="-0.04535">
        <ele>819.4</ele>
        <time>2024-08-15T06:52:57Z</time>
      </trkpt>
      <trkpt lat="42.97421" lon="-0.04532">
        <ele>819.4</ele>
        <time>2024-08-15T06:52:58Z</time>
      </trkpt>
      <trkpt lat="42.97423" lon="-0.0453">
        <ele>819.8</ele>
        <time>2024-08-15T06:52:59Z</time>
      </trkpt>
      <trkpt lat="42.97424" lon="-0.04529">
        <ele>820</ele>
        <time>2024-08-15T06:53:00Z</time>
      </trkpt>
      <trkpt lat="42.97426" lon="-0.04527">
        <ele>820</ele>
        <time>2024-08-15T06:53:01Z</time>
      </trkpt>
      <trkpt lat="42.97428" lon="-0.04525">
        <ele>820.2</ele>
        <time>2024-08-15T06:53:02Z</time>
      </trkpt>
      <trkpt lat="42.9743" lon="-0.04523">
        <ele>820.4</ele>
        <time>2024-08-15T06:53:03Z</time>
      </trkpt>
      <trkpt lat="42.97431" lon="-0.04521">
        <ele>820.6</ele>
        <time>2024-08-15T06:53:04Z</time>
      </trkpt>
      <trkpt lat="42.97433" lon="-0.04519">
        <ele>820.8</ele>
        <time>2024-08-15T06:53:05Z</time>
      </trkpt>
      <trkpt lat="42.97435" lon="-0.04517">
        <ele>821</ele>
        <time>2024-08-15T06:53:06Z</time>
      </trkpt>
      <trkpt lat="42.97437" lon="-0.04515">
        <ele>821</ele>
        <time>2024-08-15T06:53:07Z</time>
      </trkpt>
      <trkpt lat="42.97439" lon="-0.04513">
        <ele>821.2</ele>
        <time>2024-08-15T06:53:08Z</time>
      </trkpt>
      <trkpt lat="42.97441" lon="-0.04511">
        <ele>821.4</ele>
        <time>2024-08-15T06:53:09Z</time>
      </trkpt>
      <trkpt lat="42.97442" lon="-0.0451">
        <ele>821.6</ele>
        <time>2024-08-15T06:53:10Z</time>
      </trkpt>
      <trkpt lat="42.97444" lon="-0.04508">
        <ele>821.8</ele>
        <time>2024-08-15T06:53:11Z</time>
      </trkpt>
      <trkpt lat="42.97446" lon="-0.04506">
        <ele>822</ele>
        <time>2024-08-15T06:53:12Z</time>
      </trkpt>
      <trkpt lat="42.97448" lon="-0.04504">
        <ele>822</ele>
        <time>2024-08-15T06:53:13Z</time>
      </trkpt>
      <trkpt lat="42.9745" lon="-0.04501">
        <ele>822.2</ele>
        <time>2024-08-15T06:53:14Z</time>
      </trkpt>
      <trkpt lat="42.97452" lon="-0.04499">
        <ele>822.4</ele>
        <time>2024-08-15T06:53:15Z</time>
      </trkpt>
      <trkpt lat="42.97455" lon="-0.04497">
        <ele>822.6</ele>
        <time>2024-08-15T06:53:16Z</time>
      </trkpt>
      <trkpt lat="42.97457" lon="-0.04495">
        <ele>822.6</ele>
        <time>2024-08-15T06:53:17Z</time>
      </trkpt>
      <trkpt lat="42.97459" lon="-0.04493">
        <ele>822.8</ele>
        <time>2024-08-15T06:53:18Z</time>
      </trkpt>
      <trkpt lat="42.97461" lon="-0.04491">
        <ele>822.8</ele>
        <time>2024-08-15T06:53:19Z</time>
      </trkpt>
      <trkpt lat="42.97463" lon="-0.0449">
        <ele>823</ele>
        <time>2024-08-15T06:53:20Z</time>
      </trkpt>
      <trkpt lat="42.97465" lon="-0.04488">
        <ele>823</ele>
        <time>2024-08-15T06:53:21Z</time>
      </trkpt>
      <trkpt lat="42.97467" lon="-0.04485">
        <ele>823.2</ele>
        <time>2024-08-15T06:53:22Z</time>
      </trkpt>
      <trkpt lat="42.97469" lon="-0.04483">
        <ele>823.2</ele>
        <time>2024-08-15T06:53:23Z</time>
      </trkpt>
      <trkpt lat="42.97471" lon="-0.0448">
        <ele>823.2</ele>
        <time>2024-08-15T06:53:24Z</time>
      </trkpt>
      <trkpt lat="42.97473" lon="-0.04478">
        <ele>823.6</ele>
        <time>2024-08-15T06:53:25Z</time>
      </trkpt>
      <trkpt lat="42.97475" lon="-0.04476">
        <ele>823.6</ele>
        <time>2024-08-15T06:53:26Z</time>
      </trkpt>
      <trkpt lat="42.97477" lon="-0.04473">
        <ele>823.8</ele>
        <time>2024-08-15T06:53:27Z</time>
      </trkpt>
      <trkpt lat="42.97479" lon="-0.0447">
        <ele>823.8</ele>
        <time>2024-08-15T06:53:28Z</time>
      </trkpt>
      <trkpt lat="42.97481" lon="-0.04468">
        <ele>824</ele>
        <time>2024-08-15T06:53:29Z</time>
      </trkpt>
      <trkpt lat="42.97483" lon="-0.04466">
        <ele>824</ele>
        <time>2024-08-15T06:53:30Z</time>
      </trkpt>
      <trkpt lat="42.97485" lon="-0.04463">
        <ele>824.2</ele>
        <time>2024-08-15T06:53:31Z</time>
      </trkpt>
      <trkpt lat="42.97487" lon="-0.0446">
        <ele>824.4</ele>
        <time>2024-08-15T06:53:32Z</time>
      </trkpt>
      <trkpt lat="42.97489" lon="-0.04457">
        <ele>824.4</ele>
        <time>2024-08-15T06:53:33Z</time>
      </trkpt>
      <trkpt lat="42.97491" lon="-0.04454">
        <ele>824.6</ele>
        <time>2024-08-15T06:53:34Z</time>
      </trkpt>
      <trkpt lat="42.97493" lon="-0.04451">
        <ele>824.6</ele>
        <time>2024-08-15T06:53:35Z</time>
      </trkpt>
      <trkpt lat="42.97495" lon="-0.04448">
        <ele>824.8</ele>
        <time>2024-08-15T06:53:36Z</time>
      </trkpt>
      <trkpt lat="42.97496" lon="-0.04445">
        <ele>824.8</ele>
        <time>2024-08-15T06:53:37Z</time>
      </trkpt>
      <trkpt lat="42.97498" lon="-0.04443">
        <ele>825</ele>
        <time>2024-08-15T06:53:38Z</time>
      </trkpt>
      <trkpt lat="42.97499" lon="-0.04439">
        <ele>825</ele>
        <time>2024-08-15T06:53:39Z</time>
      </trkpt>
      <trkpt lat="42.97501" lon="-0.04437">
        <ele>825.2</ele>
        <time>2024-08-15T06:53:40Z</time>
      </trkpt>
      <trkpt lat="42.97503" lon="-0.04433">
        <ele>825.4</ele>
        <time>2024-08-15T06:53:41Z</time>
      </trkpt>
      <trkpt lat="42.97504" lon="-0.0443">
        <ele>825.4</ele>
        <time>2024-08-15T06:53:42Z</time>
      </trkpt>
      <trkpt lat="42.97506" lon="-0.04427">
        <ele>825.6</ele>
        <time>2024-08-15T06:53:43Z</time>
      </trkpt>
      <trkpt lat="42.97508" lon="-0.04424">
        <ele>825.6</ele>
        <time>2024-08-15T06:53:44Z</time>
      </trkpt>
      <trkpt lat="42.97509" lon="-0.04421">
        <ele>825.8</ele>
        <time>2024-08-15T06:53:45Z</time>
      </trkpt>
      <trkpt lat="42.9751" lon="-0.04419">
        <ele>825.8</ele>
        <time>2024-08-15T06:53:46Z</time>
      </trkpt>
      <trkpt lat="42.97512" lon="-0.04416">
        <ele>826.2</ele>
        <time>2024-08-15T06:53:47Z</time>
      </trkpt>
      <trkpt lat="42.97513" lon="-0.04413">
        <ele>826.2</ele>
        <time>2024-08-15T06:53:48Z</time>
      </trkpt>
      <trkpt lat="42.97515" lon="-0.0441">
        <ele>826.6</ele>
        <time>2024-08-15T06:53:49Z</time>
      </trkpt>
      <trkpt lat="42.97517" lon="-0.04407">
        <ele>826.6</ele>
        <time>2024-08-15T06:53:50Z</time>
      </trkpt>
      <trkpt lat="42.97518" lon="-0.04405">
        <ele>826.8</ele>
        <time>2024-08-15T06:53:51Z</time>
      </trkpt>
      <trkpt lat="42.9752" lon="-0.04403">
        <ele>827</ele>
        <time>2024-08-15T06:53:52Z</time>
      </trkpt>
      <trkpt lat="42.97521" lon="-0.044">
        <ele>827.2</ele>
        <time>2024-08-15T06:53:53Z</time>
      </trkpt>
      <trkpt lat="42.97523" lon="-0.04397">
        <ele>827.4</ele>
        <time>2024-08-15T06:53:54Z</time>
      </trkpt>
      <trkpt lat="42.97525" lon="-0.04394">
        <ele>827.4</ele>
        <time>2024-08-15T06:53:55Z</time>
      </trkpt>
      <trkpt lat="42.97527" lon="-0.04391">
        <ele>827.6</ele>
        <time>2024-08-15T06:53:56Z</time>
      </trkpt>
      <trkpt lat="42.97529" lon="-0.04389">
        <ele>827.8</ele>
        <time>2024-08-15T06:53:57Z</time>
      </trkpt>
      <trkpt lat="42.97531" lon="-0.04386">
        <ele>827.8</ele>
        <time>2024-08-15T06:53:58Z</time>
      </trkpt>
      <trkpt lat="42.97533" lon="-0.04384">
        <ele>828</ele>
        <time>2024-08-15T06:53:59Z</time>
      </trkpt>
      <trkpt lat="42.97534" lon="-0.04381">
        <ele>828</ele>
        <time>2024-08-15T06:54:00Z</time>
      </trkpt>
      <trkpt lat="42.97537" lon="-0.04378">
        <ele>828.2</ele>
        <time>2024-08-15T06:54:01Z</time>
      </trkpt>
      <trkpt lat="42.97539" lon="-0.04375">
        <ele>828.2</ele>
        <time>2024-08-15T06:54:02Z</time>
      </trkpt>
      <trkpt lat="42.97541" lon="-0.04372">
        <ele>828.4</ele>
        <time>2024-08-15T06:54:03Z</time>
      </trkpt>
      <trkpt lat="42.97543" lon="-0.0437">
        <ele>828.4</ele>
        <time>2024-08-15T06:54:04Z</time>
      </trkpt>
      <trkpt lat="42.97545" lon="-0.04367">
        <ele>828.6</ele>
        <time>2024-08-15T06:54:05Z</time>
      </trkpt>
      <trkpt lat="42.97547" lon="-0.04365">
        <ele>828.8</ele>
        <time>2024-08-15T06:54:06Z</time>
      </trkpt>
      <trkpt lat="42.9755" lon="-0.04363">
        <ele>828.8</ele>
        <time>2024-08-15T06:54:07Z</time>
      </trkpt>
      <trkpt lat="42.97552" lon="-0.04361">
        <ele>829</ele>
        <time>2024-08-15T06:54:08Z</time>
      </trkpt>
      <trkpt lat="42.97554" lon="-0.04359">
        <ele>829.2</ele>
        <time>2024-08-15T06:54:09Z</time>
      </trkpt>
      <trkpt lat="42.97556" lon="-0.04357">
        <ele>829.4</ele>
        <time>2024-08-15T06:54:10Z</time>
      </trkpt>
      <trkpt lat="42.97559" lon="-0.04356">
        <ele>829.4</ele>
        <time>2024-08-15T06:54:11Z</time>
      </trkpt>
      <trkpt lat="42.97561" lon="-0.04354">
        <ele>829.6</ele>
        <time>2024-08-15T06:54:12Z</time>
      </trkpt>
      <trkpt lat="42.97563" lon="-0.04353">
        <ele>829.8</ele>
        <time>2024-08-15T06:54:13Z</time>
      </trkpt>
      <trkpt lat="42.97565" lon="-0.04351">
        <ele>830</ele>
        <time>2024-08-15T06:54:14Z</time>
      </trkpt>
      <trkpt lat="42.97568" lon="-0.04349">
        <ele>830.2</ele>
        <time>2024-08-15T06:54:15Z</time>
      </trkpt>
      <trkpt lat="42.9757" lon="-0.04347">
        <ele>830.2</ele>
        <time>2024-08-15T06:54:16Z</time>
      </trkpt>
      <trkpt lat="42.97573" lon="-0.04346">
        <ele>830.6</ele>
        <time>2024-08-15T06:54:17Z</time>
      </trkpt>
      <trkpt lat="42.97575" lon="-0.04344">
        <ele>830.6</ele>
        <time>2024-08-15T06:54:18Z</time>
      </trkpt>
      <trkpt lat="42.97577" lon="-0.04343">
        <ele>831</ele>
        <time>2024-08-15T06:54:19Z</time>
      </trkpt>
      <trkpt lat="42.9758" lon="-0.04341">
        <ele>831.2</ele>
        <time>2024-08-15T06:54:20Z</time>
      </trkpt>
      <trkpt lat="42.97582" lon="-0.04339">
        <ele>831.6</ele>
        <time>2024-08-15T06:54:21Z</time>
      </trkpt>
      <trkpt lat="42.97584" lon="-0.04338">
        <ele>832.2</ele>
        <time>2024-08-15T06:54:22Z</time>
      </trkpt>
      <trkpt lat="42.97586" lon="-0.04336">
        <ele>832.2</ele>
        <time>2024-08-15T06:54:23Z</time>
      </trkpt>
      <trkpt lat="42.97589" lon="-0.04335">
        <ele>832.6</ele>
        <time>2024-08-15T06:54:24Z</time>
      </trkpt>
      <trkpt lat="42.97591" lon="-0.04334">
        <ele>832.8</ele>
        <time>2024-08-15T06:54:25Z</time>
      </trkpt>
      <trkpt lat="42.97593" lon="-0.04333">
        <ele>833</ele>
        <time>2024-08-15T06:54:26Z</time>
      </trkpt>
      <trkpt lat="42.97595" lon="-0.04331">
        <ele>833.4</ele>
        <time>2024-08-15T06:54:27Z</time>
      </trkpt>
      <trkpt lat="42.97598" lon="-0.0433">
        <ele>833.8</ele>
        <time>2024-08-15T06:54:28Z</time>
      </trkpt>
      <trkpt lat="42.97599" lon="-0.04328">
        <ele>833.8</ele>
        <time>2024-08-15T06:54:29Z</time>
      </trkpt>
      <trkpt lat="42.97601" lon="-0.04327">
        <ele>834</ele>
        <time>2024-08-15T06:54:30Z</time>
      </trkpt>
      <trkpt lat="42.97603" lon="-0.04325">
        <ele>834.6</ele>
        <time>2024-08-15T06:54:31Z</time>
      </trkpt>
      <trkpt lat="42.97605" lon="-0.04324">
        <ele>834.8</ele>
        <time>2024-08-15T06:54:32Z</time>
      </trkpt>
      <trkpt lat="42.97608" lon="-0.04322">
        <ele>835.2</ele>
        <time>2024-08-15T06:54:33Z</time>
      </trkpt>
      <trkpt lat="42.9761" lon="-0.04321">
        <ele>835.4</ele>
        <time>2024-08-15T06:54:34Z</time>
      </trkpt>
      <trkpt lat="42.97612" lon="-0.04319">
        <ele>836</ele>
        <time>2024-08-15T06:54:35Z</time>
      </trkpt>
      <trkpt lat="42.97614" lon="-0.04318">
        <ele>836.2</ele>
        <time>2024-08-15T06:54:36Z</time>
      </trkpt>
      <trkpt lat="42.97616" lon="-0.04317">
        <ele>836.6</ele>
        <time>2024-08-15T06:54:37Z</time>
      </trkpt>
      <trkpt lat="42.97618" lon="-0.04315">
        <ele>836.8</ele>
        <time>2024-08-15T06:54:38Z</time>
      </trkpt>
      <trkpt lat="42.97621" lon="-0.04314">
        <ele>837.2</ele>
        <time>2024-08-15T06:54:39Z</time>
      </trkpt>
      <trkpt lat="42.97622" lon="-0.04312">
        <ele>837.6</ele>
        <time>2024-08-15T06:54:40Z</time>
      </trkpt>
      <trkpt lat="42.97625" lon="-0.04311">
        <ele>837.6</ele>
        <time>2024-08-15T06:54:41Z</time>
      </trkpt>
      <trkpt lat="42.97627" lon="-0.0431">
        <ele>838</ele>
        <time>2024-08-15T06:54:42Z</time>
      </trkpt>
      <trkpt lat="42.97629" lon="-0.04309">
        <ele>838.2</ele>
        <time>2024-08-15T06:54:43Z</time>
      </trkpt>
      <trkpt lat="42.97632" lon="-0.04307">
        <ele>838.6</ele>
        <time>2024-08-15T06:54:44Z</time>
      </trkpt>
      <trkpt lat="42.97634" lon="-0.04306">
        <ele>838.8</ele>
        <time>2024-08-15T06:54:45Z</time>
      </trkpt>
      <trkpt lat="42.97636" lon="-0.04304">
        <ele>839</ele>
        <time>2024-08-15T06:54:46Z</time>
      </trkpt>
      <trkpt lat="42.97638" lon="-0.04303">
        <ele>839.4</ele>
        <time>2024-08-15T06:54:47Z</time>
      </trkpt>
      <trkpt lat="42.97641" lon="-0.04302">
        <ele>839.6</ele>
        <time>2024-08-15T06:54:48Z</time>
      </trkpt>
      <trkpt lat="42.97643" lon="-0.043">
        <ele>840</ele>
        <time>2024-08-15T06:54:49Z</time>
      </trkpt>
      <trkpt lat="42.97645" lon="-0.04299">
        <ele>840</ele>
        <time>2024-08-15T06:54:50Z</time>
      </trkpt>
      <trkpt lat="42.97647" lon="-0.04297">
        <ele>840.4</ele>
        <time>2024-08-15T06:54:51Z</time>
      </trkpt>
      <trkpt lat="42.9765" lon="-0.04296">
        <ele>840.6</ele>
        <time>2024-08-15T06:54:52Z</time>
      </trkpt>
      <trkpt lat="42.97652" lon="-0.04295">
        <ele>841</ele>
        <time>2024-08-15T06:54:53Z</time>
      </trkpt>
      <trkpt lat="42.97654" lon="-0.04293">
        <ele>841.2</ele>
        <time>2024-08-15T06:54:54Z</time>
      </trkpt>
      <trkpt lat="42.97656" lon="-0.04292">
        <ele>841.6</ele>
        <time>2024-08-15T06:54:55Z</time>
      </trkpt>
      <trkpt lat="42.97659" lon="-0.0429">
        <ele>841.8</ele>
        <time>2024-08-15T06:54:56Z</time>
      </trkpt>
      <trkpt lat="42.97661" lon="-0.04288">
        <ele>842</ele>
        <time>2024-08-15T06:54:57Z</time>
      </trkpt>
      <trkpt lat="42.97664" lon="-0.04287">
        <ele>842.4</ele>
        <time>2024-08-15T06:54:58Z</time>
      </trkpt>
      <trkpt lat="42.97666" lon="-0.04285">
        <ele>842.4</ele>
        <time>2024-08-15T06:54:59Z</time>
      </trkpt>
      <trkpt lat="42.97668" lon="-0.04284">
        <ele>842.6</ele>
        <time>2024-08-15T06:55:00Z</time>
      </trkpt>
      <trkpt lat="42.97671" lon="-0.04283">
        <ele>842.8</ele>
        <time>2024-08-15T06:55:01Z</time>
      </trkpt>
      <trkpt lat="42.97673" lon="-0.04281">
        <ele>843.2</ele>
        <time>2024-08-15T06:55:02Z</time>
      </trkpt>
      <trkpt lat="42.97675" lon="-0.0428">
        <ele>843.4</ele>
        <time>2024-08-15T06:55:03Z</time>
      </trkpt>
      <trkpt lat="42.97677" lon="-0.04279">
        <ele>843.6</ele>
        <time>2024-08-15T06:55:04Z</time>
      </trkpt>
      <trkpt lat="42.97679" lon="-0.04278">
        <ele>843.8</ele>
        <time>2024-08-15T06:55:05Z</time>
      </trkpt>
      <trkpt lat="42.97682" lon="-0.04277">
        <ele>844</ele>
        <time>2024-08-15T06:55:06Z</time>
      </trkpt>
      <trkpt lat="42.97685" lon="-0.04276">
        <ele>844.2</ele>
        <time>2024-08-15T06:55:07Z</time>
      </trkpt>
      <trkpt lat="42.97687" lon="-0.04274">
        <ele>844.4</ele>
        <time>2024-08-15T06:55:08Z</time>
      </trkpt>
      <trkpt lat="42.9769" lon="-0.04273">
        <ele>844.4</ele>
        <time>2024-08-15T06:55:09Z</time>
      </trkpt>
      <trkpt lat="42.97692" lon="-0.04273">
        <ele>844.6</ele>
        <time>2024-08-15T06:55:10Z</time>
      </trkpt>
      <trkpt lat="42.97694" lon="-0.04272">
        <ele>844.8</ele>
        <time>2024-08-15T06:55:11Z</time>
      </trkpt>
      <trkpt lat="42.97697" lon="-0.04271">
        <ele>845</ele>
        <time>2024-08-15T06:55:12Z</time>
      </trkpt>
      <trkpt lat="42.977" lon="-0.0427">
        <ele>845</ele>
        <time>2024-08-15T06:55:13Z</time>
      </trkpt>
      <trkpt lat="42.97702" lon="-0.04269">
        <ele>845.2</ele>
        <time>2024-08-15T06:55:14Z</time>
      </trkpt>
      <trkpt lat="42.97705" lon="-0.04268">
        <ele>845.2</ele>
        <time>2024-08-15T06:55:15Z</time>
      </trkpt>
      <trkpt lat="42.97708" lon="-0.04267">
        <ele>845.2</ele>
        <time>2024-08-15T06:55:16Z</time>
      </trkpt>
      <trkpt lat="42.97711" lon="-0.04267">
        <ele>845.2</ele>
        <time>2024-08-15T06:55:17Z</time>
      </trkpt>
      <trkpt lat="42.97714" lon="-0.04266">
        <ele>845.4</ele>
        <time>2024-08-15T06:55:18Z</time>
      </trkpt>
      <trkpt lat="42.97717" lon="-0.04265">
        <ele>845.4</ele>
        <time>2024-08-15T06:55:19Z</time>
      </trkpt>
      <trkpt lat="42.97721" lon="-0.04264">
        <ele>845.4</ele>
        <time>2024-08-15T06:55:20Z</time>
      </trkpt>
      <trkpt lat="42.97725" lon="-0.04264">
        <ele>845.4</ele>
        <time>2024-08-15T06:55:21Z</time>
      </trkpt>
      <trkpt lat="42.97729" lon="-0.04263">
        <ele>845.4</ele>
        <time>2024-08-15T06:55:22Z</time>
      </trkpt>
      <trkpt lat="42.97733" lon="-0.04264">
        <ele>845.4</ele>
        <time>2024-08-15T06:55:23Z</time>
      </trkpt>
      <trkpt lat="42.97737" lon="-0.04264">
        <ele>845.4</ele>
        <time>2024-08-15T06:55:24Z</time>
      </trkpt>
      <trkpt lat="42.97742" lon="-0.04264">
        <ele>845.4</ele>
        <time>2024-08-15T06:55:25Z</time>
      </trkpt>
      <trkpt lat="42.97747" lon="-0.04265">
        <ele>845.4</ele>
        <time>2024-08-15T06:55:26Z</time>
      </trkpt>
      <trkpt lat="42.97752" lon="-0.04267">
        <ele>845.4</ele>
        <time>2024-08-15T06:55:27Z</time>
      </trkpt>
      <trkpt lat="42.97758" lon="-0.04268">
        <ele>845.2</ele>
        <time>2024-08-15T06:55:28Z</time>
      </trkpt>
      <trkpt lat="42.97765" lon="-0.0427">
        <ele>845</ele>
        <time>2024-08-15T06:55:29Z</time>
      </trkpt>
      <trkpt lat="42.97771" lon="-0.04272">
        <ele>844.8</ele>
        <time>2024-08-15T06:55:30Z</time>
      </trkpt>
      <trkpt lat="42.97778" lon="-0.04275">
        <ele>844.6</ele>
        <time>2024-08-15T06:55:31Z</time>
      </trkpt>
      <trkpt lat="42.97793" lon="-0.04282">
        <ele>844.2</ele>
        <time>2024-08-15T06:55:33Z</time>
      </trkpt>
      <trkpt lat="42.978" lon="-0.04287">
        <ele>843.8</ele>
        <time>2024-08-15T06:55:34Z</time>
      </trkpt>
      <trkpt lat="42.97812" lon="-0.04298">
        <ele>843</ele>
        <time>2024-08-15T06:55:36Z</time>
      </trkpt>
      <trkpt lat="42.97818" lon="-0.04306">
        <ele>842.6</ele>
        <time>2024-08-15T06:55:37Z</time>
      </trkpt>
      <trkpt lat="42.97823" lon="-0.04313">
        <ele>842.4</ele>
        <time>2024-08-15T06:55:38Z</time>
      </trkpt>
      <trkpt lat="42.97827" lon="-0.04319">
        <ele>842</ele>
        <time>2024-08-15T06:55:39Z</time>
      </trkpt>
      <trkpt lat="42.97831" lon="-0.04324">
        <ele>842</ele>
        <time>2024-08-15T06:55:40Z</time>
      </trkpt>
      <trkpt lat="42.97834" lon="-0.04328">
        <ele>842</ele>
        <time>2024-08-15T06:55:41Z</time>
      </trkpt>
      <trkpt lat="42.97837" lon="-0.04332">
        <ele>842</ele>
        <time>2024-08-15T06:55:42Z</time>
      </trkpt>
      <trkpt lat="42.9784" lon="-0.04336">
        <ele>842</ele>
        <time>2024-08-15T06:55:43Z</time>
      </trkpt>
      <trkpt lat="42.97842" lon="-0.0434">
        <ele>841.8</ele>
        <time>2024-08-15T06:55:44Z</time>
      </trkpt>
      <trkpt lat="42.97845" lon="-0.04343">
        <ele>842</ele>
        <time>2024-08-15T06:55:45Z</time>
      </trkpt>
      <trkpt lat="42.97847" lon="-0.04344">
        <ele>842</ele>
        <time>2024-08-15T06:55:46Z</time>
      </trkpt>
      <trkpt lat="42.9785" lon="-0.04346">
        <ele>842.2</ele>
        <time>2024-08-15T06:55:47Z</time>
      </trkpt>
      <trkpt lat="42.97852" lon="-0.04347">
        <ele>842.6</ele>
        <time>2024-08-15T06:55:48Z</time>
      </trkpt>
      <trkpt lat="42.97855" lon="-0.04347">
        <ele>842.8</ele>
        <time>2024-08-15T06:55:49Z</time>
      </trkpt>
      <trkpt lat="42.97857" lon="-0.04346">
        <ele>843.2</ele>
        <time>2024-08-15T06:55:50Z</time>
      </trkpt>
      <trkpt lat="42.9786" lon="-0.04346">
        <ele>843.4</ele>
        <time>2024-08-15T06:55:51Z</time>
      </trkpt>
      <trkpt lat="42.97863" lon="-0.04346">
        <ele>843.8</ele>
        <time>2024-08-15T06:55:52Z</time>
      </trkpt>
      <trkpt lat="42.97865" lon="-0.04345">
        <ele>844.2</ele>
        <time>2024-08-15T06:55:53Z</time>
      </trkpt>
      <trkpt lat="42.97868" lon="-0.04345">
        <ele>844.4</ele>
        <time>2024-08-15T06:55:54Z</time>
      </trkpt>
      <trkpt lat="42.9787" lon="-0.04345">
        <ele>844.8</ele>
        <time>2024-08-15T06:55:55Z</time>
      </trkpt>
      <trkpt lat="42.97875" lon="-0.04343">
        <ele>845.2</ele>
        <time>2024-08-15T06:55:57Z</time>
      </trkpt>
      <trkpt lat="42.9788" lon="-0.04341">
        <ele>846</ele>
        <time>2024-08-15T06:55:59Z</time>
      </trkpt>
      <trkpt lat="42.97884" lon="-0.04339">
        <ele>846.6</ele>
        <time>2024-08-15T06:56:01Z</time>
      </trkpt>
      <trkpt lat="42.97886" lon="-0.04338">
        <ele>846.8</ele>
        <time>2024-08-15T06:56:02Z</time>
      </trkpt>
      <trkpt lat="42.97888" lon="-0.04337">
        <ele>847</ele>
        <time>2024-08-15T06:56:03Z</time>
      </trkpt>
      <trkpt lat="42.9789" lon="-0.04336">
        <ele>847.4</ele>
        <time>2024-08-15T06:56:04Z</time>
      </trkpt>
      <trkpt lat="42.97893" lon="-0.04336">
        <ele>847.6</ele>
        <time>2024-08-15T06:56:05Z</time>
      </trkpt>
      <trkpt lat="42.97895" lon="-0.04335">
        <ele>848</ele>
        <time>2024-08-15T06:56:06Z</time>
      </trkpt>
      <trkpt lat="42.97897" lon="-0.04335">
        <ele>848</ele>
        <time>2024-08-15T06:56:07Z</time>
      </trkpt>
      <trkpt lat="42.97899" lon="-0.04334">
        <ele>848.4</ele>
        <time>2024-08-15T06:56:08Z</time>
      </trkpt>
      <trkpt lat="42.97901" lon="-0.04333">
        <ele>848.6</ele>
        <time>2024-08-15T06:56:09Z</time>
      </trkpt>
      <trkpt lat="42.97904" lon="-0.04332">
        <ele>848.8</ele>
        <time>2024-08-15T06:56:10Z</time>
      </trkpt>
      <trkpt lat="42.97907" lon="-0.04331">
        <ele>849.2</ele>
        <time>2024-08-15T06:56:11Z</time>
      </trkpt>
      <trkpt lat="42.97909" lon="-0.04331">
        <ele>849.4</ele>
        <time>2024-08-15T06:56:12Z</time>
      </trkpt>
      <trkpt lat="42.97912" lon="-0.0433">
        <ele>849.6</ele>
        <time>2024-08-15T06:56:13Z</time>
      </trkpt>
      <trkpt lat="42.97915" lon="-0.04329">
        <ele>849.6</ele>
        <time>2024-08-15T06:56:14Z</time>
      </trkpt>
      <trkpt lat="42.97917" lon="-0.04328">
        <ele>850</ele>
        <time>2024-08-15T06:56:15Z</time>
      </trkpt>
      <trkpt lat="42.9792" lon="-0.04327">
        <ele>850.4</ele>
        <time>2024-08-15T06:56:16Z</time>
      </trkpt>
      <trkpt lat="42.97922" lon="-0.04326">
        <ele>850.6</ele>
        <time>2024-08-15T06:56:17Z</time>
      </trkpt>
      <trkpt lat="42.97924" lon="-0.04325">
        <ele>851</ele>
        <time>2024-08-15T06:56:18Z</time>
      </trkpt>
      <trkpt lat="42.97925" lon="-0.04324">
        <ele>851.2</ele>
        <time>2024-08-15T06:56:19Z</time>
      </trkpt>
      <trkpt lat="42.97926" lon="-0.04324">
        <ele>851.6</ele>
        <time>2024-08-15T06:56:20Z</time>
      </trkpt>
      <trkpt lat="42.97928" lon="-0.04322">
        <ele>851.6</ele>
        <time>2024-08-15T06:56:21Z</time>
      </trkpt>
      <trkpt lat="42.9793" lon="-0.0432">
        <ele>851.8</ele>
        <time>2024-08-15T06:56:22Z</time>
      </trkpt>
      <trkpt lat="42.97931" lon="-0.04319">
        <ele>852</ele>
        <time>2024-08-15T06:56:23Z</time>
      </trkpt>
      <trkpt lat="42.97933" lon="-0.04316">
        <ele>852.4</ele>
        <time>2024-08-15T06:56:24Z</time>
      </trkpt>
      <trkpt lat="42.97934" lon="-0.04314">
        <ele>852.8</ele>
        <time>2024-08-15T06:56:25Z</time>
      </trkpt>
      <trkpt lat="42.97936" lon="-0.04311">
        <ele>852.8</ele>
        <time>2024-08-15T06:56:26Z</time>
      </trkpt>
      <trkpt lat="42.97937" lon="-0.04309">
        <ele>853.2</ele>
        <time>2024-08-15T06:56:27Z</time>
      </trkpt>
      <trkpt lat="42.97938" lon="-0.04306">
        <ele>853.4</ele>
        <time>2024-08-15T06:56:28Z</time>
      </trkpt>
      <trkpt lat="42.97939" lon="-0.04303">
        <ele>853.8</ele>
        <time>2024-08-15T06:56:29Z</time>
      </trkpt>
      <trkpt lat="42.9794" lon="-0.04301">
        <ele>854</ele>
        <time>2024-08-15T06:56:30Z</time>
      </trkpt>
      <trkpt lat="42.97941" lon="-0.04298">
        <ele>854.4</ele>
        <time>2024-08-15T06:56:31Z</time>
      </trkpt>
      <trkpt lat="42.97942" lon="-0.04296">
        <ele>854.8</ele>
        <time>2024-08-15T06:56:32Z</time>
      </trkpt>
      <trkpt lat="42.97944" lon="-0.04294">
        <ele>855</ele>
        <time>2024-08-15T06:56:33Z</time>
      </trkpt>
      <trkpt lat="42.97946" lon="-0.04292">
        <ele>855.2</ele>
        <time>2024-08-15T06:56:34Z</time>
      </trkpt>
      <trkpt lat="42.97947" lon="-0.0429">
        <ele>855.4</ele>
        <time>2024-08-15T06:56:35Z</time>
      </trkpt>
      <trkpt lat="42.97949" lon="-0.04288">
        <ele>855.8</ele>
        <time>2024-08-15T06:56:36Z</time>
      </trkpt>
      <trkpt lat="42.9795" lon="-0.04287">
        <ele>856</ele>
        <time>2024-08-15T06:56:37Z</time>
      </trkpt>
      <trkpt lat="42.97952" lon="-0.04285">
        <ele>856.4</ele>
        <time>2024-08-15T06:56:38Z</time>
      </trkpt>
      <trkpt lat="42.97955" lon="-0.04284">
        <ele>856.6</ele>
        <time>2024-08-15T06:56:39Z</time>
      </trkpt>
      <trkpt lat="42.97957" lon="-0.04283">
        <ele>857</ele>
        <time>2024-08-15T06:56:40Z</time>
      </trkpt>
      <trkpt lat="42.97959" lon="-0.04283">
        <ele>857.2</ele>
        <time>2024-08-15T06:56:41Z</time>
      </trkpt>
      <trkpt lat="42.97961" lon="-0.04284">
        <ele>857.4</ele>
        <time>2024-08-15T06:56:42Z</time>
      </trkpt>
      <trkpt lat="42.97963" lon="-0.04284">
        <ele>857.8</ele>
        <time>2024-08-15T06:56:43Z</time>
      </trkpt>
      <trkpt lat="42.97966" lon="-0.04285">
        <ele>858.2</ele>
        <time>2024-08-15T06:56:44Z</time>
      </trkpt>
      <trkpt lat="42.97968" lon="-0.04286">
        <ele>858.4</ele>
        <time>2024-08-15T06:56:45Z</time>
      </trkpt>
      <trkpt lat="42.97969" lon="-0.04287">
        <ele>858.6</ele>
        <time>2024-08-15T06:56:46Z</time>
      </trkpt>
      <trkpt lat="42.97971" lon="-0.04289">
        <ele>859</ele>
        <time>2024-08-15T06:56:47Z</time>
      </trkpt>
      <trkpt lat="42.97972" lon="-0.04291">
        <ele>859.2</ele>
        <time>2024-08-15T06:56:48Z</time>
      </trkpt>
      <trkpt lat="42.97974" lon="-0.04294">
        <ele>859.4</ele>
        <time>2024-08-15T06:56:49Z</time>
      </trkpt>
      <trkpt lat="42.97975" lon="-0.04296">
        <ele>859.6</ele>
        <time>2024-08-15T06:56:50Z</time>
      </trkpt>
      <trkpt lat="42.97976" lon="-0.04299">
        <ele>859.8</ele>
        <time>2024-08-15T06:56:51Z</time>
      </trkpt>
      <trkpt lat="42.97976" lon="-0.04302">
        <ele>860</ele>
        <time>2024-08-15T06:56:52Z</time>
      </trkpt>
      <trkpt lat="42.97977" lon="-0.04304">
        <ele>860</ele>
        <time>2024-08-15T06:56:53Z</time>
      </trkpt>
      <trkpt lat="42.97978" lon="-0.04307">
        <ele>860.4</ele>
        <time>2024-08-15T06:56:54Z</time>
      </trkpt>
      <trkpt lat="42.97978" lon="-0.0431">
        <ele>860.4</ele>
        <time>2024-08-15T06:56:55Z</time>
      </trkpt>
      <trkpt lat="42.97978" lon="-0.04313">
        <ele>860.6</ele>
        <time>2024-08-15T06:56:56Z</time>
      </trkpt>
      <trkpt lat="42.97979" lon="-0.04316">
        <ele>860.8</ele>
        <time>2024-08-15T06:56:57Z</time>
      </trkpt>
      <trkpt lat="42.9798" lon="-0.04319">
        <ele>860.8</ele>
        <time>2024-08-15T06:56:58Z</time>
      </trkpt>
      <trkpt lat="42.9798" lon="-0.04322">
        <ele>861.2</ele>
        <time>2024-08-15T06:56:59Z</time>
      </trkpt>
      <trkpt lat="42.9798" lon="-0.04325">
        <ele>861.4</ele>
        <time>2024-08-15T06:57:00Z</time>
      </trkpt>
      <trkpt lat="42.97981" lon="-0.04328">
        <ele>861.6</ele>
        <time>2024-08-15T06:57:01Z</time>
      </trkpt>
      <trkpt lat="42.97981" lon="-0.04331">
        <ele>861.6</ele>
        <time>2024-08-15T06:57:02Z</time>
      </trkpt>
      <trkpt lat="42.97982" lon="-0.04333">
        <ele>861.8</ele>
        <time>2024-08-15T06:57:03Z</time>
      </trkpt>
      <trkpt lat="42.97982" lon="-0.04336">
        <ele>861.8</ele>
        <time>2024-08-15T06:57:04Z</time>
      </trkpt>
      <trkpt lat="42.97982" lon="-0.0434">
        <ele>862</ele>
        <time>2024-08-15T06:57:05Z</time>
      </trkpt>
      <trkpt lat="42.97983" lon="-0.04343">
        <ele>862.2</ele>
        <time>2024-08-15T06:57:06Z</time>
      </trkpt>
      <trkpt lat="42.97983" lon="-0.04346">
        <ele>862.4</ele>
        <time>2024-08-15T06:57:07Z</time>
      </trkpt>
      <trkpt lat="42.97983" lon="-0.04348">
        <ele>862.6</ele>
        <time>2024-08-15T06:57:08Z</time>
      </trkpt>
      <trkpt lat="42.97984" lon="-0.04351">
        <ele>862.6</ele>
        <time>2024-08-15T06:57:09Z</time>
      </trkpt>
      <trkpt lat="42.97985" lon="-0.04355">
        <ele>862.8</ele>
        <time>2024-08-15T06:57:10Z</time>
      </trkpt>
      <trkpt lat="42.97986" lon="-0.04357">
        <ele>863</ele>
        <time>2024-08-15T06:57:11Z</time>
      </trkpt>
      <trkpt lat="42.97987" lon="-0.0436">
        <ele>863.2</ele>
        <time>2024-08-15T06:57:12Z</time>
      </trkpt>
      <trkpt lat="42.97988" lon="-0.04362">
        <ele>863.2</ele>
        <time>2024-08-15T06:57:13Z</time>
      </trkpt>
      <trkpt lat="42.97989" lon="-0.04365">
        <ele>863.4</ele>
        <time>2024-08-15T06:57:14Z</time>
      </trkpt>
      <trkpt lat="42.97991" lon="-0.04368">
        <ele>863.4</ele>
        <time>2024-08-15T06:57:15Z</time>
      </trkpt>
      <trkpt lat="42.97992" lon="-0.0437">
        <ele>863.6</ele>
        <time>2024-08-15T06:57:16Z</time>
      </trkpt>
      <trkpt lat="42.97994" lon="-0.04372">
        <ele>864</ele>
        <time>2024-08-15T06:57:17Z</time>
      </trkpt>
      <trkpt lat="42.97995" lon="-0.04374">
        <ele>864.2</ele>
        <time>2024-08-15T06:57:18Z</time>
      </trkpt>
      <trkpt lat="42.97997" lon="-0.04377">
        <ele>864.4</ele>
        <time>2024-08-15T06:57:19Z</time>
      </trkpt>
      <trkpt lat="42.97999" lon="-0.04378">
        <ele>864.6</ele>
        <time>2024-08-15T06:57:20Z</time>
      </trkpt>
      <trkpt lat="42.98001" lon="-0.0438">
        <ele>864.6</ele>
        <time>2024-08-15T06:57:21Z</time>
      </trkpt>
      <trkpt lat="42.98002" lon="-0.04382">
        <ele>865</ele>
        <time>2024-08-15T06:57:22Z</time>
      </trkpt>
      <trkpt lat="42.98004" lon="-0.04384">
        <ele>865.2</ele>
        <time>2024-08-15T06:57:23Z</time>
      </trkpt>
      <trkpt lat="42.98006" lon="-0.04386">
        <ele>865.6</ele>
        <time>2024-08-15T06:57:24Z</time>
      </trkpt>
      <trkpt lat="42.98008" lon="-0.04387">
        <ele>865.6</ele>
        <time>2024-08-15T06:57:25Z</time>
      </trkpt>
      <trkpt lat="42.98009" lon="-0.04389">
        <ele>865.8</ele>
        <time>2024-08-15T06:57:26Z</time>
      </trkpt>
      <trkpt lat="42.98011" lon="-0.0439">
        <ele>866</ele>
        <time>2024-08-15T06:57:27Z</time>
      </trkpt>
      <trkpt lat="42.98012" lon="-0.04391">
        <ele>866.2</ele>
        <time>2024-08-15T06:57:28Z</time>
      </trkpt>
      <trkpt lat="42.98014" lon="-0.04393">
        <ele>866.4</ele>
        <time>2024-08-15T06:57:29Z</time>
      </trkpt>
      <trkpt lat="42.98016" lon="-0.04395">
        <ele>866.6</ele>
        <time>2024-08-15T06:57:30Z</time>
      </trkpt>
      <trkpt lat="42.98018" lon="-0.04397">
        <ele>866.8</ele>
        <time>2024-08-15T06:57:31Z</time>
      </trkpt>
      <trkpt lat="42.98019" lon="-0.04398">
        <ele>867</ele>
        <time>2024-08-15T06:57:32Z</time>
      </trkpt>
      <trkpt lat="42.98021" lon="-0.044">
        <ele>867.2</ele>
        <time>2024-08-15T06:57:33Z</time>
      </trkpt>
      <trkpt lat="42.98022" lon="-0.04401">
        <ele>867.4</ele>
        <time>2024-08-15T06:57:34Z</time>
      </trkpt>
      <trkpt lat="42.98024" lon="-0.04402">
        <ele>867.4</ele>
        <time>2024-08-15T06:57:35Z</time>
      </trkpt>
      <trkpt lat="42.98025" lon="-0.04404">
        <ele>867.8</ele>
        <time>2024-08-15T06:57:36Z</time>
      </trkpt>
      <trkpt lat="42.98027" lon="-0.04405">
        <ele>868</ele>
        <time>2024-08-15T06:57:37Z</time>
      </trkpt>
      <trkpt lat="42.98028" lon="-0.04406">
        <ele>868</ele>
        <time>2024-08-15T06:57:38Z</time>
      </trkpt>
      <trkpt lat="42.9803" lon="-0.04408">
        <ele>868.4</ele>
        <time>2024-08-15T06:57:39Z</time>
      </trkpt>
      <trkpt lat="42.98032" lon="-0.04409">
        <ele>868.6</ele>
        <time>2024-08-15T06:57:40Z</time>
      </trkpt>
      <trkpt lat="42.98034" lon="-0.04411">
        <ele>868.8</ele>
        <time>2024-08-15T06:57:41Z</time>
      </trkpt>
      <trkpt lat="42.98036" lon="-0.04413">
        <ele>869.2</ele>
        <time>2024-08-15T06:57:42Z</time>
      </trkpt>
      <trkpt lat="42.98038" lon="-0.04414">
        <ele>869</ele>
        <time>2024-08-15T06:57:43Z</time>
      </trkpt>
      <trkpt lat="42.9804" lon="-0.04415">
        <ele>869.2</ele>
        <time>2024-08-15T06:57:44Z</time>
      </trkpt>
      <trkpt lat="42.98042" lon="-0.04415">
        <ele>869.6</ele>
        <time>2024-08-15T06:57:45Z</time>
      </trkpt>
      <trkpt lat="42.98045" lon="-0.04416">
        <ele>869.8</ele>
        <time>2024-08-15T06:57:46Z</time>
      </trkpt>
      <trkpt lat="42.98047" lon="-0.04416">
        <ele>870.2</ele>
        <time>2024-08-15T06:57:47Z</time>
      </trkpt>
      <trkpt lat="42.98048" lon="-0.04417">
        <ele>870.4</ele>
        <time>2024-08-15T06:57:48Z</time>
      </trkpt>
      <trkpt lat="42.98051" lon="-0.04417">
        <ele>870.6</ele>
        <time>2024-08-15T06:57:49Z</time>
      </trkpt>
      <trkpt lat="42.98053" lon="-0.04417">
        <ele>870.8</ele>
        <time>2024-08-15T06:57:50Z</time>
      </trkpt>
      <trkpt lat="42.98055" lon="-0.04417">
        <ele>871</ele>
        <time>2024-08-15T06:57:51Z</time>
      </trkpt>
      <trkpt lat="42.98057" lon="-0.04417">
        <ele>871.2</ele>
        <time>2024-08-15T06:57:52Z</time>
      </trkpt>
      <trkpt lat="42.98059" lon="-0.04417">
        <ele>871.4</ele>
        <time>2024-08-15T06:57:53Z</time>
      </trkpt>
      <trkpt lat="42.98061" lon="-0.04416">
        <ele>871.8</ele>
        <time>2024-08-15T06:57:54Z</time>
      </trkpt>
      <trkpt lat="42.98063" lon="-0.04416">
        <ele>872</ele>
        <time>2024-08-15T06:57:55Z</time>
      </trkpt>
      <trkpt lat="42.98065" lon="-0.04415">
        <ele>872.2</ele>
        <time>2024-08-15T06:57:56Z</time>
      </trkpt>
      <trkpt lat="42.98067" lon="-0.04415">
        <ele>872.4</ele>
        <time>2024-08-15T06:57:57Z</time>
      </trkpt>
      <trkpt lat="42.98069" lon="-0.04415">
        <ele>872.8</ele>
        <time>2024-08-15T06:57:58Z</time>
      </trkpt>
      <trkpt lat="42.98071" lon="-0.04414">
        <ele>873</ele>
        <time>2024-08-15T06:57:59Z</time>
      </trkpt>
      <trkpt lat="42.98073" lon="-0.04414">
        <ele>873.2</ele>
        <time>2024-08-15T06:58:00Z</time>
      </trkpt>
      <trkpt lat="42.98074" lon="-0.04413">
        <ele>873.6</ele>
        <time>2024-08-15T06:58:01Z</time>
      </trkpt>
      <trkpt lat="42.98076" lon="-0.04413">
        <ele>874</ele>
        <time>2024-08-15T06:58:02Z</time>
      </trkpt>
      <trkpt lat="42.98078" lon="-0.04412">
        <ele>874.4</ele>
        <time>2024-08-15T06:58:03Z</time>
      </trkpt>
      <trkpt lat="42.98079" lon="-0.04412">
        <ele>874.6</ele>
        <time>2024-08-15T06:58:04Z</time>
      </trkpt>
      <trkpt lat="42.98082" lon="-0.04411">
        <ele>875</ele>
        <time>2024-08-15T06:58:05Z</time>
      </trkpt>
      <trkpt lat="42.98084" lon="-0.0441">
        <ele>875.2</ele>
        <time>2024-08-15T06:58:06Z</time>
      </trkpt>
      <trkpt lat="42.98086" lon="-0.0441">
        <ele>875.4</ele>
        <time>2024-08-15T06:58:07Z</time>
      </trkpt>
      <trkpt lat="42.98088" lon="-0.04409">
        <ele>875.6</ele>
        <time>2024-08-15T06:58:08Z</time>
      </trkpt>
      <trkpt lat="42.9809" lon="-0.04408">
        <ele>876.2</ele>
        <time>2024-08-15T06:58:09Z</time>
      </trkpt>
      <trkpt lat="42.98093" lon="-0.04407">
        <ele>876.6</ele>
        <time>2024-08-15T06:58:10Z</time>
      </trkpt>
      <trkpt lat="42.98095" lon="-0.04407">
        <ele>876.8</ele>
        <time>2024-08-15T06:58:11Z</time>
      </trkpt>
      <trkpt lat="42.98097" lon="-0.04407">
        <ele>877</ele>
        <time>2024-08-15T06:58:12Z</time>
      </trkpt>
      <trkpt lat="42.98099" lon="-0.04407">
        <ele>877</ele>
        <time>2024-08-15T06:58:13Z</time>
      </trkpt>
      <trkpt lat="42.98101" lon="-0.04407">
        <ele>877.4</ele>
        <time>2024-08-15T06:58:14Z</time>
      </trkpt>
      <trkpt lat="42.98103" lon="-0.04407">
        <ele>877.8</ele>
        <time>2024-08-15T06:58:15Z</time>
      </trkpt>
      <trkpt lat="42.98105" lon="-0.04407">
        <ele>878</ele>
        <time>2024-08-15T06:58:16Z</time>
      </trkpt>
      <trkpt lat="42.98107" lon="-0.04407">
        <ele>878.4</ele>
        <time>2024-08-15T06:58:17Z</time>
      </trkpt>
      <trkpt lat="42.98109" lon="-0.04407">
        <ele>878.6</ele>
        <time>2024-08-15T06:58:18Z</time>
      </trkpt>
      <trkpt lat="42.98111" lon="-0.04407">
        <ele>879</ele>
        <time>2024-08-15T06:58:19Z</time>
      </trkpt>
      <trkpt lat="42.98113" lon="-0.04408">
        <ele>879</ele>
        <time>2024-08-15T06:58:20Z</time>
      </trkpt>
      <trkpt lat="42.98114" lon="-0.04408">
        <ele>879.4</ele>
        <time>2024-08-15T06:58:21Z</time>
      </trkpt>
      <trkpt lat="42.98116" lon="-0.04409">
        <ele>879.6</ele>
        <time>2024-08-15T06:58:22Z</time>
      </trkpt>
      <trkpt lat="42.98117" lon="-0.04409">
        <ele>879.8</ele>
        <time>2024-08-15T06:58:23Z</time>
      </trkpt>
      <trkpt lat="42.98118" lon="-0.0441">
        <ele>880</ele>
        <time>2024-08-15T06:58:24Z</time>
      </trkpt>
      <trkpt lat="42.9812" lon="-0.0441">
        <ele>880.4</ele>
        <time>2024-08-15T06:58:25Z</time>
      </trkpt>
      <trkpt lat="42.98122" lon="-0.04411">
        <ele>880.8</ele>
        <time>2024-08-15T06:58:26Z</time>
      </trkpt>
      <trkpt lat="42.98124" lon="-0.04412">
        <ele>881</ele>
        <time>2024-08-15T06:58:27Z</time>
      </trkpt>
      <trkpt lat="42.98126" lon="-0.04413">
        <ele>881.2</ele>
        <time>2024-08-15T06:58:28Z</time>
      </trkpt>
      <trkpt lat="42.98127" lon="-0.04413">
        <ele>881.4</ele>
        <time>2024-08-15T06:58:29Z</time>
      </trkpt>
      <trkpt lat="42.98129" lon="-0.04414">
        <ele>881.4</ele>
        <time>2024-08-15T06:58:30Z</time>
      </trkpt>
      <trkpt lat="42.98131" lon="-0.04414">
        <ele>881.6</ele>
        <time>2024-08-15T06:58:31Z</time>
      </trkpt>
      <trkpt lat="42.98133" lon="-0.04415">
        <ele>882</ele>
        <time>2024-08-15T06:58:32Z</time>
      </trkpt>
      <trkpt lat="42.98135" lon="-0.04415">
        <ele>882.4</ele>
        <time>2024-08-15T06:58:33Z</time>
      </trkpt>
      <trkpt lat="42.98137" lon="-0.04415">
        <ele>882.6</ele>
        <time>2024-08-15T06:58:34Z</time>
      </trkpt>
      <trkpt lat="42.9814" lon="-0.04416">
        <ele>883</ele>
        <time>2024-08-15T06:58:35Z</time>
      </trkpt>
      <trkpt lat="42.98142" lon="-0.04417">
        <ele>883.2</ele>
        <time>2024-08-15T06:58:36Z</time>
      </trkpt>
      <trkpt lat="42.98143" lon="-0.04417">
        <ele>883.6</ele>
        <time>2024-08-15T06:58:37Z</time>
      </trkpt>
      <trkpt lat="42.98145" lon="-0.04417">
        <ele>883.8</ele>
        <time>2024-08-15T06:58:38Z</time>
      </trkpt>
      <trkpt lat="42.98147" lon="-0.04418">
        <ele>884</ele>
        <time>2024-08-15T06:58:39Z</time>
      </trkpt>
      <trkpt lat="42.98149" lon="-0.04419">
        <ele>884.4</ele>
        <time>2024-08-15T06:58:40Z</time>
      </trkpt>
      <trkpt lat="42.98151" lon="-0.0442">
        <ele>884.6</ele>
        <time>2024-08-15T06:58:41Z</time>
      </trkpt>
      <trkpt lat="42.98152" lon="-0.04422">
        <ele>885</ele>
        <time>2024-08-15T06:58:42Z</time>
      </trkpt>
      <trkpt lat="42.98153" lon="-0.04425">
        <ele>885.2</ele>
        <time>2024-08-15T06:58:43Z</time>
      </trkpt>
      <trkpt lat="42.98155" lon="-0.04427">
        <ele>885.6</ele>
        <time>2024-08-15T06:58:44Z</time>
      </trkpt>
      <trkpt lat="42.98157" lon="-0.0443">
        <ele>885.8</ele>
        <time>2024-08-15T06:58:45Z</time>
      </trkpt>
      <trkpt lat="42.98158" lon="-0.04432">
        <ele>886.2</ele>
        <time>2024-08-15T06:58:46Z</time>
      </trkpt>
      <trkpt lat="42.98159" lon="-0.04434">
        <ele>886.4</ele>
        <time>2024-08-15T06:58:47Z</time>
      </trkpt>
      <trkpt lat="42.9816" lon="-0.04437">
        <ele>886.6</ele>
        <time>2024-08-15T06:58:48Z</time>
      </trkpt>
      <trkpt lat="42.98161" lon="-0.0444">
        <ele>887</ele>
        <time>2024-08-15T06:58:49Z</time>
      </trkpt>
      <trkpt lat="42.98163" lon="-0.04443">
        <ele>887</ele>
        <time>2024-08-15T06:58:50Z</time>
      </trkpt>
      <trkpt lat="42.98164" lon="-0.04445">
        <ele>887.4</ele>
        <time>2024-08-15T06:58:51Z</time>
      </trkpt>
      <trkpt lat="42.98165" lon="-0.04448">
        <ele>887.6</ele>
        <time>2024-08-15T06:58:52Z</time>
      </trkpt>
      <trkpt lat="42.98167" lon="-0.04451">
        <ele>888</ele>
        <time>2024-08-15T06:58:53Z</time>
      </trkpt>
      <trkpt lat="42.98168" lon="-0.04454">
        <ele>888.2</ele>
        <time>2024-08-15T06:58:54Z</time>
      </trkpt>
      <trkpt lat="42.98169" lon="-0.04457">
        <ele>888.6</ele>
        <time>2024-08-15T06:58:55Z</time>
      </trkpt>
      <trkpt lat="42.9817" lon="-0.0446">
        <ele>888.6</ele>
        <time>2024-08-15T06:58:56Z</time>
      </trkpt>
      <trkpt lat="42.9817" lon="-0.04462">
        <ele>889</ele>
        <time>2024-08-15T06:58:57Z</time>
      </trkpt>
      <trkpt lat="42.98171" lon="-0.04465">
        <ele>889.4</ele>
        <time>2024-08-15T06:58:58Z</time>
      </trkpt>
      <trkpt lat="42.98172" lon="-0.04468">
        <ele>889.4</ele>
        <time>2024-08-15T06:58:59Z</time>
      </trkpt>
      <trkpt lat="42.98174" lon="-0.04471">
        <ele>889.8</ele>
        <time>2024-08-15T06:59:00Z</time>
      </trkpt>
      <trkpt lat="42.98175" lon="-0.04474">
        <ele>889.8</ele>
        <time>2024-08-15T06:59:01Z</time>
      </trkpt>
      <trkpt lat="42.98177" lon="-0.04477">
        <ele>890.2</ele>
        <time>2024-08-15T06:59:02Z</time>
      </trkpt>
      <trkpt lat="42.98179" lon="-0.0448">
        <ele>890.4</ele>
        <time>2024-08-15T06:59:03Z</time>
      </trkpt>
      <trkpt lat="42.9818" lon="-0.04483">
        <ele>890.6</ele>
        <time>2024-08-15T06:59:04Z</time>
      </trkpt>
      <trkpt lat="42.98181" lon="-0.04484">
        <ele>890.8</ele>
        <time>2024-08-15T06:59:05Z</time>
      </trkpt>
      <trkpt lat="42.98182" lon="-0.04486">
        <ele>891</ele>
        <time>2024-08-15T06:59:06Z</time>
      </trkpt>
      <trkpt lat="42.98183" lon="-0.04487">
        <ele>891.2</ele>
        <time>2024-08-15T06:59:07Z</time>
      </trkpt>
      <trkpt lat="42.98186" lon="-0.04488">
        <ele>891.2</ele>
        <time>2024-08-15T06:59:08Z</time>
      </trkpt>
      <trkpt lat="42.98188" lon="-0.04489">
        <ele>891.2</ele>
        <time>2024-08-15T06:59:09Z</time>
      </trkpt>
      <trkpt lat="42.9819" lon="-0.04489">
        <ele>891.4</ele>
        <time>2024-08-15T06:59:10Z</time>
      </trkpt>
      <trkpt lat="42.98193" lon="-0.0449">
        <ele>891.6</ele>
        <time>2024-08-15T06:59:11Z</time>
      </trkpt>
      <trkpt lat="42.98195" lon="-0.0449">
        <ele>891.4</ele>
        <time>2024-08-15T06:59:12Z</time>
      </trkpt>
      <trkpt lat="42.98197" lon="-0.04491">
        <ele>891.6</ele>
        <time>2024-08-15T06:59:13Z</time>
      </trkpt>
      <trkpt lat="42.982" lon="-0.04491">
        <ele>891.8</ele>
        <time>2024-08-15T06:59:14Z</time>
      </trkpt>
      <trkpt lat="42.98202" lon="-0.0449">
        <ele>892</ele>
        <time>2024-08-15T06:59:15Z</time>
      </trkpt>
      <trkpt lat="42.98204" lon="-0.0449">
        <ele>892.4</ele>
        <time>2024-08-15T06:59:16Z</time>
      </trkpt>
      <trkpt lat="42.98207" lon="-0.0449">
        <ele>892.4</ele>
        <time>2024-08-15T06:59:17Z</time>
      </trkpt>
      <trkpt lat="42.98209" lon="-0.0449">
        <ele>892.6</ele>
        <time>2024-08-15T06:59:18Z</time>
      </trkpt>
      <trkpt lat="42.98212" lon="-0.0449">
        <ele>892.8</ele>
        <time>2024-08-15T06:59:19Z</time>
      </trkpt>
      <trkpt lat="42.98214" lon="-0.0449">
        <ele>893.2</ele>
        <time>2024-08-15T06:59:20Z</time>
      </trkpt>
      <trkpt lat="42.98216" lon="-0.0449">
        <ele>893.4</ele>
        <time>2024-08-15T06:59:21Z</time>
      </trkpt>
      <trkpt lat="42.98219" lon="-0.0449">
        <ele>893.6</ele>
        <time>2024-08-15T06:59:22Z</time>
      </trkpt>
      <trkpt lat="42.98221" lon="-0.04489">
        <ele>893.8</ele>
        <time>2024-08-15T06:59:23Z</time>
      </trkpt>
      <trkpt lat="42.98223" lon="-0.04489">
        <ele>894</ele>
        <time>2024-08-15T06:59:24Z</time>
      </trkpt>
      <trkpt lat="42.98225" lon="-0.04488">
        <ele>894.2</ele>
        <time>2024-08-15T06:59:25Z</time>
      </trkpt>
      <trkpt lat="42.98227" lon="-0.04488">
        <ele>894.4</ele>
        <time>2024-08-15T06:59:26Z</time>
      </trkpt>
      <trkpt lat="42.98229" lon="-0.04488">
        <ele>894.6</ele>
        <time>2024-08-15T06:59:27Z</time>
      </trkpt>
      <trkpt lat="42.98232" lon="-0.04487">
        <ele>894.8</ele>
        <time>2024-08-15T06:59:28Z</time>
      </trkpt>
      <trkpt lat="42.98233" lon="-0.04487">
        <ele>895</ele>
        <time>2024-08-15T06:59:29Z</time>
      </trkpt>
      <trkpt lat="42.98235" lon="-0.04486">
        <ele>895.4</ele>
        <time>2024-08-15T06:59:30Z</time>
      </trkpt>
      <trkpt lat="42.98238" lon="-0.04485">
        <ele>895.6</ele>
        <time>2024-08-15T06:59:31Z</time>
      </trkpt>
      <trkpt lat="42.9824" lon="-0.04485">
        <ele>895.8</ele>
        <time>2024-08-15T06:59:32Z</time>
      </trkpt>
      <trkpt lat="42.98242" lon="-0.04485">
        <ele>896</ele>
        <time>2024-08-15T06:59:33Z</time>
      </trkpt>
      <trkpt lat="42.98244" lon="-0.04484">
        <ele>896.4</ele>
        <time>2024-08-15T06:59:34Z</time>
      </trkpt>
      <trkpt lat="42.98246" lon="-0.04483">
        <ele>896.6</ele>
        <time>2024-08-15T06:59:35Z</time>
      </trkpt>
      <trkpt lat="42.98248" lon="-0.04483">
        <ele>896.8</ele>
        <time>2024-08-15T06:59:36Z</time>
      </trkpt>
      <trkpt lat="42.98251" lon="-0.04482">
        <ele>897</ele>
        <time>2024-08-15T06:59:37Z</time>
      </trkpt>
      <trkpt lat="42.98253" lon="-0.04482">
        <ele>897.2</ele>
        <time>2024-08-15T06:59:38Z</time>
      </trkpt>
      <trkpt lat="42.98255" lon="-0.04481">
        <ele>897.6</ele>
        <time>2024-08-15T06:59:39Z</time>
      </trkpt>
      <trkpt lat="42.98257" lon="-0.0448">
        <ele>897.8</ele>
        <time>2024-08-15T06:59:40Z</time>
      </trkpt>
      <trkpt lat="42.9826" lon="-0.04479">
        <ele>898</ele>
        <time>2024-08-15T06:59:41Z</time>
      </trkpt>
      <trkpt lat="42.98262" lon="-0.04478">
        <ele>898.2</ele>
        <time>2024-08-15T06:59:42Z</time>
      </trkpt>
      <trkpt lat="42.98264" lon="-0.04478">
        <ele>898.4</ele>
        <time>2024-08-15T06:59:43Z</time>
      </trkpt>
      <trkpt lat="42.98264" lon="-0.04478">
        <ele>898.6</ele>
        <time>2024-08-15T06:59:44Z</time>
      </trkpt>
      <trkpt lat="42.98269" lon="-0.04476">
        <ele>899</ele>
        <time>2024-08-15T06:59:45Z</time>
      </trkpt>
      <trkpt lat="42.98271" lon="-0.04475">
        <ele>899.4</ele>
        <time>2024-08-15T06:59:46Z</time>
      </trkpt>
      <trkpt lat="42.98273" lon="-0.04475">
        <ele>899.4</ele>
        <time>2024-08-15T06:59:47Z</time>
      </trkpt>
      <trkpt lat="42.98275" lon="-0.04474">
        <ele>899.8</ele>
        <time>2024-08-15T06:59:48Z</time>
      </trkpt>
      <trkpt lat="42.98277" lon="-0.04473">
        <ele>900</ele>
        <time>2024-08-15T06:59:49Z</time>
      </trkpt>
      <trkpt lat="42.9828" lon="-0.04472">
        <ele>900.2</ele>
        <time>2024-08-15T06:59:50Z</time>
      </trkpt>
      <trkpt lat="42.98282" lon="-0.04471">
        <ele>900.2</ele>
        <time>2024-08-15T06:59:51Z</time>
      </trkpt>
      <trkpt lat="42.98284" lon="-0.0447">
        <ele>900.6</ele>
        <time>2024-08-15T06:59:52Z</time>
      </trkpt>
      <trkpt lat="42.98286" lon="-0.04469">
        <ele>900.8</ele>
        <time>2024-08-15T06:59:53Z</time>
      </trkpt>
      <trkpt lat="42.98288" lon="-0.04468">
        <ele>901.2</ele>
        <time>2024-08-15T06:59:54Z</time>
      </trkpt>
      <trkpt lat="42.9829" lon="-0.04467">
        <ele>901.4</ele>
        <time>2024-08-15T06:59:55Z</time>
      </trkpt>
      <trkpt lat="42.98292" lon="-0.04466">
        <ele>901.6</ele>
        <time>2024-08-15T06:59:56Z</time>
      </trkpt>
      <trkpt lat="42.98294" lon="-0.04465">
        <ele>902</ele>
        <time>2024-08-15T06:59:57Z</time>
      </trkpt>
      <trkpt lat="42.98296" lon="-0.04464">
        <ele>902</ele>
        <time>2024-08-15T06:59:58Z</time>
      </trkpt>
      <trkpt lat="42.98298" lon="-0.04464">
        <ele>902.6</ele>
        <time>2024-08-15T06:59:59Z</time>
      </trkpt>
      <trkpt lat="42.983" lon="-0.04463">
        <ele>902.8</ele>
        <time>2024-08-15T07:00:00Z</time>
      </trkpt>
      <trkpt lat="42.98302" lon="-0.04462">
        <ele>903.2</ele>
        <time>2024-08-15T07:00:01Z</time>
      </trkpt>
      <trkpt lat="42.98304" lon="-0.04462">
        <ele>903.4</ele>
        <time>2024-08-15T07:00:02Z</time>
      </trkpt>
      <trkpt lat="42.98306" lon="-0.04461">
        <ele>903.6</ele>
        <time>2024-08-15T07:00:03Z</time>
      </trkpt>
      <trkpt lat="42.98308" lon="-0.04461">
        <ele>903.8</ele>
        <time>2024-08-15T07:00:04Z</time>
      </trkpt>
      <trkpt lat="42.98309" lon="-0.0446">
        <ele>904</ele>
        <time>2024-08-15T07:00:05Z</time>
      </trkpt>
      <trkpt lat="42.98311" lon="-0.0446">
        <ele>904.2</ele>
        <time>2024-08-15T07:00:06Z</time>
      </trkpt>
      <trkpt lat="42.98313" lon="-0.0446">
        <ele>904.4</ele>
        <time>2024-08-15T07:00:07Z</time>
      </trkpt>
      <trkpt lat="42.98315" lon="-0.0446">
        <ele>905</ele>
        <time>2024-08-15T07:00:08Z</time>
      </trkpt>
      <trkpt lat="42.98317" lon="-0.04459">
        <ele>905.2</ele>
        <time>2024-08-15T07:00:09Z</time>
      </trkpt>
      <trkpt lat="42.9832" lon="-0.04459">
        <ele>905.6</ele>
        <time>2024-08-15T07:00:10Z</time>
      </trkpt>
      <trkpt lat="42.98322" lon="-0.04459">
        <ele>905.8</ele>
        <time>2024-08-15T07:00:11Z</time>
      </trkpt>
      <trkpt lat="42.98324" lon="-0.04459">
        <ele>906</ele>
        <time>2024-08-15T07:00:12Z</time>
      </trkpt>
      <trkpt lat="42.98326" lon="-0.0446">
        <ele>906.2</ele>
        <time>2024-08-15T07:00:13Z</time>
      </trkpt>
      <trkpt lat="42.98328" lon="-0.0446">
        <ele>906.4</ele>
        <time>2024-08-15T07:00:14Z</time>
      </trkpt>
      <trkpt lat="42.9833" lon="-0.04461">
        <ele>906.8</ele>
        <time>2024-08-15T07:00:15Z</time>
      </trkpt>
      <trkpt lat="42.98332" lon="-0.04462">
        <ele>907</ele>
        <time>2024-08-15T07:00:16Z</time>
      </trkpt>
      <trkpt lat="42.98334" lon="-0.04462">
        <ele>907.2</ele>
        <time>2024-08-15T07:00:17Z</time>
      </trkpt>
      <trkpt lat="42.98336" lon="-0.04463">
        <ele>907.6</ele>
        <time>2024-08-15T07:00:18Z</time>
      </trkpt>
      <trkpt lat="42.98337" lon="-0.04463">
        <ele>907.6</ele>
        <time>2024-08-15T07:00:19Z</time>
      </trkpt>
      <trkpt lat="42.98339" lon="-0.04463">
        <ele>908</ele>
        <time>2024-08-15T07:00:20Z</time>
      </trkpt>
      <trkpt lat="42.98341" lon="-0.04464">
        <ele>908.2</ele>
        <time>2024-08-15T07:00:21Z</time>
      </trkpt>
      <trkpt lat="42.98343" lon="-0.04464">
        <ele>908.4</ele>
        <time>2024-08-15T07:00:22Z</time>
      </trkpt>
      <trkpt lat="42.98345" lon="-0.04465">
        <ele>908.6</ele>
        <time>2024-08-15T07:00:23Z</time>
      </trkpt>
      <trkpt lat="42.98347" lon="-0.04467">
        <ele>908.8</ele>
        <time>2024-08-15T07:00:24Z</time>
      </trkpt>
      <trkpt lat="42.98349" lon="-0.04468">
        <ele>909</ele>
        <time>2024-08-15T07:00:25Z</time>
      </trkpt>
      <trkpt lat="42.98351" lon="-0.04469">
        <ele>909.2</ele>
        <time>2024-08-15T07:00:26Z</time>
      </trkpt>
      <trkpt lat="42.98354" lon="-0.0447">
        <ele>909.4</ele>
        <time>2024-08-15T07:00:27Z</time>
      </trkpt>
      <trkpt lat="42.98356" lon="-0.04471">
        <ele>909.4</ele>
        <time>2024-08-15T07:00:28Z</time>
      </trkpt>
      <trkpt lat="42.98358" lon="-0.04472">
        <ele>909.8</ele>
        <time>2024-08-15T07:00:29Z</time>
      </trkpt>
      <trkpt lat="42.9836" lon="-0.04472">
        <ele>910</ele>
        <time>2024-08-15T07:00:30Z</time>
      </trkpt>
      <trkpt lat="42.98362" lon="-0.04473">
        <ele>910.4</ele>
        <time>2024-08-15T07:00:31Z</time>
      </trkpt>
      <trkpt lat="42.98362" lon="-0.04473">
        <ele>910.6</ele>
        <time>2024-08-15T07:00:32Z</time>
      </trkpt>
      <trkpt lat="42.98367" lon="-0.04474">
        <ele>910.8</ele>
        <time>2024-08-15T07:00:33Z</time>
      </trkpt>
      <trkpt lat="42.98369" lon="-0.04475">
        <ele>911</ele>
        <time>2024-08-15T07:00:34Z</time>
      </trkpt>
      <trkpt lat="42.98371" lon="-0.04476">
        <ele>911</ele>
        <time>2024-08-15T07:00:35Z</time>
      </trkpt>
      <trkpt lat="42.98373" lon="-0.04476">
        <ele>911.2</ele>
        <time>2024-08-15T07:00:36Z</time>
      </trkpt>
      <trkpt lat="42.98373" lon="-0.04476">
        <ele>911.4</ele>
        <time>2024-08-15T07:00:37Z</time>
      </trkpt>
      <trkpt lat="42.98378" lon="-0.04476">
        <ele>911.8</ele>
        <time>2024-08-15T07:00:38Z</time>
      </trkpt>
      <trkpt lat="42.9838" lon="-0.04476">
        <ele>912</ele>
        <time>2024-08-15T07:00:39Z</time>
      </trkpt>
      <trkpt lat="42.98382" lon="-0.04476">
        <ele>912.2</ele>
        <time>2024-08-15T07:00:40Z</time>
      </trkpt>
      <trkpt lat="42.98384" lon="-0.04476">
        <ele>912.4</ele>
        <time>2024-08-15T07:00:41Z</time>
      </trkpt>
      <trkpt lat="42.98386" lon="-0.04476">
        <ele>913</ele>
        <time>2024-08-15T07:00:42Z</time>
      </trkpt>
      <trkpt lat="42.98388" lon="-0.04477">
        <ele>913.2</ele>
        <time>2024-08-15T07:00:43Z</time>
      </trkpt>
      <trkpt lat="42.98391" lon="-0.04477">
        <ele>913.4</ele>
        <time>2024-08-15T07:00:44Z</time>
      </trkpt>
      <trkpt lat="42.98393" lon="-0.04476">
        <ele>913.6</ele>
        <time>2024-08-15T07:00:45Z</time>
      </trkpt>
      <trkpt lat="42.98395" lon="-0.04476">
        <ele>913.8</ele>
        <time>2024-08-15T07:00:46Z</time>
      </trkpt>
      <trkpt lat="42.98397" lon="-0.04475">
        <ele>914</ele>
        <time>2024-08-15T07:00:47Z</time>
      </trkpt>
      <trkpt lat="42.98398" lon="-0.04474">
        <ele>914.2</ele>
        <time>2024-08-15T07:00:48Z</time>
      </trkpt>
      <trkpt lat="42.984" lon="-0.04472">
        <ele>914.8</ele>
        <time>2024-08-15T07:00:49Z</time>
      </trkpt>
      <trkpt lat="42.98401" lon="-0.0447">
        <ele>915</ele>
        <time>2024-08-15T07:00:50Z</time>
      </trkpt>
      <trkpt lat="42.98402" lon="-0.04468">
        <ele>915.4</ele>
        <time>2024-08-15T07:00:51Z</time>
      </trkpt>
      <trkpt lat="42.98403" lon="-0.04465">
        <ele>915.6</ele>
        <time>2024-08-15T07:00:52Z</time>
      </trkpt>
      <trkpt lat="42.98404" lon="-0.04463">
        <ele>916</ele>
        <time>2024-08-15T07:00:53Z</time>
      </trkpt>
      <trkpt lat="42.98405" lon="-0.0446">
        <ele>916.2</ele>
        <time>2024-08-15T07:00:54Z</time>
      </trkpt>
      <trkpt lat="42.98406" lon="-0.04458">
        <ele>916.4</ele>
        <time>2024-08-15T07:00:55Z</time>
      </trkpt>
      <trkpt lat="42.98406" lon="-0.04455">
        <ele>916.8</ele>
        <time>2024-08-15T07:00:56Z</time>
      </trkpt>
      <trkpt lat="42.98406" lon="-0.04452">
        <ele>916.8</ele>
        <time>2024-08-15T07:00:57Z</time>
      </trkpt>
      <trkpt lat="42.98407" lon="-0.0445">
        <ele>917.2</ele>
        <time>2024-08-15T07:00:58Z</time>
      </trkpt>
      <trkpt lat="42.98408" lon="-0.04447">
        <ele>917.6</ele>
        <time>2024-08-15T07:00:59Z</time>
      </trkpt>
      <trkpt lat="42.98408" lon="-0.04444">
        <ele>917.6</ele>
        <time>2024-08-15T07:01:00Z</time>
      </trkpt>
      <trkpt lat="42.98408" lon="-0.04442">
        <ele>917.8</ele>
        <time>2024-08-15T07:01:01Z</time>
      </trkpt>
      <trkpt lat="42.98409" lon="-0.04439">
        <ele>918</ele>
        <time>2024-08-15T07:01:02Z</time>
      </trkpt>
      <trkpt lat="42.98409" lon="-0.04436">
        <ele>918.2</ele>
        <time>2024-08-15T07:01:03Z</time>
      </trkpt>
      <trkpt lat="42.9841" lon="-0.04434">
        <ele>918.4</ele>
        <time>2024-08-15T07:01:04Z</time>
      </trkpt>
      <trkpt lat="42.9841" lon="-0.04431">
        <ele>918.6</ele>
        <time>2024-08-15T07:01:05Z</time>
      </trkpt>
      <trkpt lat="42.98411" lon="-0.04428">
        <ele>918.8</ele>
        <time>2024-08-15T07:01:06Z</time>
      </trkpt>
      <trkpt lat="42.98411" lon="-0.04425">
        <ele>919</ele>
        <time>2024-08-15T07:01:07Z</time>
      </trkpt>
      <trkpt lat="42.98412" lon="-0.04422">
        <ele>919.4</ele>
        <time>2024-08-15T07:01:08Z</time>
      </trkpt>
      <trkpt lat="42.98412" lon="-0.04422">
        <ele>919.6</ele>
        <time>2024-08-15T07:01:09Z</time>
      </trkpt>
      <trkpt lat="42.98412" lon="-0.04417">
        <ele>920</ele>
        <time>2024-08-15T07:01:10Z</time>
      </trkpt>
      <trkpt lat="42.98412" lon="-0.04414">
        <ele>920.2</ele>
        <time>2024-08-15T07:01:11Z</time>
      </trkpt>
      <trkpt lat="42.98412" lon="-0.04411">
        <ele>920.6</ele>
        <time>2024-08-15T07:01:12Z</time>
      </trkpt>
      <trkpt lat="42.98413" lon="-0.04409">
        <ele>920.8</ele>
        <time>2024-08-15T07:01:13Z</time>
      </trkpt>
      <trkpt lat="42.98413" lon="-0.04406">
        <ele>921</ele>
        <time>2024-08-15T07:01:14Z</time>
      </trkpt>
      <trkpt lat="42.98413" lon="-0.04403">
        <ele>921.2</ele>
        <time>2024-08-15T07:01:15Z</time>
      </trkpt>
      <trkpt lat="42.98413" lon="-0.044">
        <ele>921.4</ele>
        <time>2024-08-15T07:01:16Z</time>
      </trkpt>
      <trkpt lat="42.98412" lon="-0.04398">
        <ele>922</ele>
        <time>2024-08-15T07:01:17Z</time>
      </trkpt>
      <trkpt lat="42.98411" lon="-0.04396">
        <ele>922.2</ele>
        <time>2024-08-15T07:01:18Z</time>
      </trkpt>
      <trkpt lat="42.9841" lon="-0.04394">
        <ele>922.6</ele>
        <time>2024-08-15T07:01:19Z</time>
      </trkpt>
      <trkpt lat="42.98409" lon="-0.04393">
        <ele>922.8</ele>
        <time>2024-08-15T07:01:20Z</time>
      </trkpt>
      <trkpt lat="42.98407" lon="-0.04391">
        <ele>923.2</ele>
        <time>2024-08-15T07:01:21Z</time>
      </trkpt>
      <trkpt lat="42.98405" lon="-0.0439">
        <ele>923.4</ele>
        <time>2024-08-15T07:01:22Z</time>
      </trkpt>
      <trkpt lat="42.98403" lon="-0.04388">
        <ele>923.8</ele>
        <time>2024-08-15T07:01:23Z</time>
      </trkpt>
      <trkpt lat="42.98403" lon="-0.04388">
        <ele>923.8</ele>
        <time>2024-08-15T07:01:24Z</time>
      </trkpt>
      <trkpt lat="42.98398" lon="-0.04385">
        <ele>924</ele>
        <time>2024-08-15T07:01:25Z</time>
      </trkpt>
      <trkpt lat="42.98396" lon="-0.04383">
        <ele>924</ele>
        <time>2024-08-15T07:01:26Z</time>
      </trkpt>
      <trkpt lat="42.98396" lon="-0.04383">
        <ele>924</ele>
        <time>2024-08-15T07:01:27Z</time>
      </trkpt>
      <trkpt lat="42.98392" lon="-0.04379">
        <ele>924</ele>
        <time>2024-08-15T07:01:28Z</time>
      </trkpt>
      <trkpt lat="42.98392" lon="-0.04379">
        <ele>924</ele>
        <time>2024-08-15T07:01:29Z</time>
      </trkpt>
      <trkpt lat="42.98388" lon="-0.04375">
        <ele>924</ele>
        <time>2024-08-15T07:01:30Z</time>
      </trkpt>
      <trkpt lat="42.98385" lon="-0.04373">
        <ele>924.2</ele>
        <time>2024-08-15T07:01:31Z</time>
      </trkpt>
      <trkpt lat="42.98383" lon="-0.04371">
        <ele>924.2</ele>
        <time>2024-08-15T07:01:32Z</time>
      </trkpt>
      <trkpt lat="42.98381" lon="-0.04369">
        <ele>924.2</ele>
        <time>2024-08-15T07:01:33Z</time>
      </trkpt>
      <trkpt lat="42.98378" lon="-0.04367">
        <ele>924.2</ele>
        <time>2024-08-15T07:01:34Z</time>
      </trkpt>
      <trkpt lat="42.98375" lon="-0.04366">
        <ele>924.2</ele>
        <time>2024-08-15T07:01:35Z</time>
      </trkpt>
      <trkpt lat="42.98372" lon="-0.04364">
        <ele>924.2</ele>
        <time>2024-08-15T07:01:36Z</time>
      </trkpt>
      <trkpt lat="42.98369" lon="-0.04363">
        <ele>924.2</ele>
        <time>2024-08-15T07:01:37Z</time>
      </trkpt>
      <trkpt lat="42.98366" lon="-0.04362">
        <ele>924.2</ele>
        <time>2024-08-15T07:01:38Z</time>
      </trkpt>
      <trkpt lat="42.98362" lon="-0.0436">
        <ele>924.2</ele>
        <time>2024-08-15T07:01:39Z</time>
      </trkpt>
      <trkpt lat="42.98359" lon="-0.04359">
        <ele>924.2</ele>
        <time>2024-08-15T07:01:40Z</time>
      </trkpt>
      <trkpt lat="42.98356" lon="-0.04358">
        <ele>924.2</ele>
        <time>2024-08-15T07:01:41Z</time>
      </trkpt>
      <trkpt lat="42.98352" lon="-0.04357">
        <ele>924.4</ele>
        <time>2024-08-15T07:01:42Z</time>
      </trkpt>
      <trkpt lat="42.98348" lon="-0.04357">
        <ele>924.4</ele>
        <time>2024-08-15T07:01:43Z</time>
      </trkpt>
      <trkpt lat="42.98345" lon="-0.04356">
        <ele>924.4</ele>
        <time>2024-08-15T07:01:44Z</time>
      </trkpt>
      <trkpt lat="42.98341" lon="-0.04356">
        <ele>924.4</ele>
        <time>2024-08-15T07:01:45Z</time>
      </trkpt>
      <trkpt lat="42.98338" lon="-0.04355">
        <ele>924.4</ele>
        <time>2024-08-15T07:01:46Z</time>
      </trkpt>
      <trkpt lat="42.98331" lon="-0.04354">
        <ele>924.4</ele>
        <time>2024-08-15T07:01:48Z</time>
      </trkpt>
      <trkpt lat="42.98316" lon="-0.04355">
        <ele>924.6</ele>
        <time>2024-08-15T07:01:53Z</time>
      </trkpt>
      <trkpt lat="42.98313" lon="-0.04356">
        <ele>924.6</ele>
        <time>2024-08-15T07:01:54Z</time>
      </trkpt>
      <trkpt lat="42.98301" lon="-0.04357">
        <ele>924.4</ele>
        <time>2024-08-15T07:01:57Z</time>
      </trkpt>
      <trkpt lat="42.98297" lon="-0.04356">
        <ele>924.4</ele>
        <time>2024-08-15T07:01:58Z</time>
      </trkpt>
      <trkpt lat="42.98294" lon="-0.04356">
        <ele>924.2</ele>
        <time>2024-08-15T07:01:59Z</time>
      </trkpt>
      <trkpt lat="42.98272" lon="-0.04354">
        <ele>923.6</ele>
        <time>2024-08-15T07:02:04Z</time>
      </trkpt>
      <trkpt lat="42.98262" lon="-0.04356">
        <ele>923.4</ele>
        <time>2024-08-15T07:02:06Z</time>
      </trkpt>
      <trkpt lat="42.98258" lon="-0.04355">
        <ele>923.4</ele>
        <time>2024-08-15T07:02:07Z</time>
      </trkpt>
      <trkpt lat="42.98253" lon="-0.04356">
        <ele>923.4</ele>
        <time>2024-08-15T07:02:08Z</time>
      </trkpt>
      <trkpt lat="42.98249" lon="-0.04357">
        <ele>923.2</ele>
        <time>2024-08-15T07:02:09Z</time>
      </trkpt>
      <trkpt lat="42.98246" lon="-0.04358">
        <ele>923.2</ele>
        <time>2024-08-15T07:02:10Z</time>
      </trkpt>
      <trkpt lat="42.98243" lon="-0.04358">
        <ele>923.2</ele>
        <time>2024-08-15T07:02:11Z</time>
      </trkpt>
      <trkpt lat="42.98239" lon="-0.04359">
        <ele>923.2</ele>
        <time>2024-08-15T07:02:12Z</time>
      </trkpt>
      <trkpt lat="42.98235" lon="-0.04359">
        <ele>923.2</ele>
        <time>2024-08-15T07:02:13Z</time>
      </trkpt>
      <trkpt lat="42.98232" lon="-0.04359">
        <ele>923.2</ele>
        <time>2024-08-15T07:02:14Z</time>
      </trkpt>
      <trkpt lat="42.98229" lon="-0.0436">
        <ele>923.2</ele>
        <time>2024-08-15T07:02:15Z</time>
      </trkpt>
      <trkpt lat="42.98226" lon="-0.0436">
        <ele>923.4</ele>
        <time>2024-08-15T07:02:16Z</time>
      </trkpt>
      <trkpt lat="42.98224" lon="-0.04359">
        <ele>923.4</ele>
        <time>2024-08-15T07:02:17Z</time>
      </trkpt>
      <trkpt lat="42.98221" lon="-0.04359">
        <ele>923.6</ele>
        <time>2024-08-15T07:02:18Z</time>
      </trkpt>
      <trkpt lat="42.98218" lon="-0.04357">
        <ele>923.6</ele>
        <time>2024-08-15T07:02:19Z</time>
      </trkpt>
      <trkpt lat="42.98215" lon="-0.04357">
        <ele>923.8</ele>
        <time>2024-08-15T07:02:20Z</time>
      </trkpt>
      <trkpt lat="42.98213" lon="-0.04356">
        <ele>924.2</ele>
        <time>2024-08-15T07:02:21Z</time>
      </trkpt>
      <trkpt lat="42.98211" lon="-0.04355">
        <ele>924.2</ele>
        <time>2024-08-15T07:02:22Z</time>
      </trkpt>
      <trkpt lat="42.9821" lon="-0.04355">
        <ele>924.4</ele>
        <time>2024-08-15T07:02:23Z</time>
      </trkpt>
      <trkpt lat="42.98208" lon="-0.04354">
        <ele>924.6</ele>
        <time>2024-08-15T07:02:24Z</time>
      </trkpt>
      <trkpt lat="42.98205" lon="-0.04353">
        <ele>924.8</ele>
        <time>2024-08-15T07:02:25Z</time>
      </trkpt>
      <trkpt lat="42.98203" lon="-0.04353">
        <ele>924.8</ele>
        <time>2024-08-15T07:02:26Z</time>
      </trkpt>
      <trkpt lat="42.98202" lon="-0.04352">
        <ele>925.2</ele>
        <time>2024-08-15T07:02:27Z</time>
      </trkpt>
      <trkpt lat="42.982" lon="-0.04352">
        <ele>925.4</ele>
        <time>2024-08-15T07:02:28Z</time>
      </trkpt>
      <trkpt lat="42.98198" lon="-0.04352">
        <ele>925.6</ele>
        <time>2024-08-15T07:02:29Z</time>
      </trkpt>
      <trkpt lat="42.98195" lon="-0.04351">
        <ele>925.8</ele>
        <time>2024-08-15T07:02:30Z</time>
      </trkpt>
      <trkpt lat="42.98193" lon="-0.0435">
        <ele>926</ele>
        <time>2024-08-15T07:02:31Z</time>
      </trkpt>
      <trkpt lat="42.9819" lon="-0.04348">
        <ele>926</ele>
        <time>2024-08-15T07:02:32Z</time>
      </trkpt>
      <trkpt lat="42.98186" lon="-0.04347">
        <ele>926.2</ele>
        <time>2024-08-15T07:02:33Z</time>
      </trkpt>
      <trkpt lat="42.98184" lon="-0.04346">
        <ele>926.2</ele>
        <time>2024-08-15T07:02:34Z</time>
      </trkpt>
      <trkpt lat="42.98183" lon="-0.04345">
        <ele>926.6</ele>
        <time>2024-08-15T07:02:35Z</time>
      </trkpt>
      <trkpt lat="42.98181" lon="-0.04345">
        <ele>926.6</ele>
        <time>2024-08-15T07:02:36Z</time>
      </trkpt>
      <trkpt lat="42.9818" lon="-0.04345">
        <ele>927.2</ele>
        <time>2024-08-15T07:02:37Z</time>
      </trkpt>
      <trkpt lat="42.98177" lon="-0.04344">
        <ele>927.2</ele>
        <time>2024-08-15T07:02:38Z</time>
      </trkpt>
      <trkpt lat="42.98176" lon="-0.04344">
        <ele>927.6</ele>
        <time>2024-08-15T07:02:39Z</time>
      </trkpt>
      <trkpt lat="42.98174" lon="-0.04344">
        <ele>927.6</ele>
        <time>2024-08-15T07:02:40Z</time>
      </trkpt>
      <trkpt lat="42.98173" lon="-0.04344">
        <ele>928</ele>
        <time>2024-08-15T07:02:41Z</time>
      </trkpt>
      <trkpt lat="42.98171" lon="-0.04344">
        <ele>928</ele>
        <time>2024-08-15T07:02:42Z</time>
      </trkpt>
      <trkpt lat="42.98169" lon="-0.04341">
        <ele>928.2</ele>
        <time>2024-08-15T07:02:43Z</time>
      </trkpt>
      <trkpt lat="42.98166" lon="-0.04339">
        <ele>928.4</ele>
        <time>2024-08-15T07:02:44Z</time>
      </trkpt>
      <trkpt lat="42.98163" lon="-0.04338">
        <ele>928.6</ele>
        <time>2024-08-15T07:02:45Z</time>
      </trkpt>
      <trkpt lat="42.98159" lon="-0.04337">
        <ele>928.8</ele>
        <time>2024-08-15T07:02:46Z</time>
      </trkpt>
      <trkpt lat="42.98156" lon="-0.04336">
        <ele>929</ele>
        <time>2024-08-15T07:02:47Z</time>
      </trkpt>
      <trkpt lat="42.98154" lon="-0.04334">
        <ele>929.6</ele>
        <time>2024-08-15T07:02:48Z</time>
      </trkpt>
      <trkpt lat="42.98151" lon="-0.04331">
        <ele>929.6</ele>
        <time>2024-08-15T07:02:49Z</time>
      </trkpt>
      <trkpt lat="42.98144" lon="-0.04327">
        <ele>930</ele>
        <time>2024-08-15T07:02:50Z</time>
      </trkpt>
      <trkpt lat="42.98142" lon="-0.04325">
        <ele>930.2</ele>
        <time>2024-08-15T07:02:51Z</time>
      </trkpt>
      <trkpt lat="42.9814" lon="-0.04322">
        <ele>930.4</ele>
        <time>2024-08-15T07:02:52Z</time>
      </trkpt>
      <trkpt lat="42.98139" lon="-0.04319">
        <ele>930.6</ele>
        <time>2024-08-15T07:02:53Z</time>
      </trkpt>
      <trkpt lat="42.98139" lon="-0.04316">
        <ele>930.8</ele>
        <time>2024-08-15T07:02:54Z</time>
      </trkpt>
      <trkpt lat="42.98137" lon="-0.04313">
        <ele>931</ele>
        <time>2024-08-15T07:02:55Z</time>
      </trkpt>
      <trkpt lat="42.98136" lon="-0.04312">
        <ele>931.2</ele>
        <time>2024-08-15T07:02:56Z</time>
      </trkpt>
      <trkpt lat="42.98134" lon="-0.0431">
        <ele>931.2</ele>
        <time>2024-08-15T07:02:57Z</time>
      </trkpt>
      <trkpt lat="42.98131" lon="-0.04308">
        <ele>931.2</ele>
        <time>2024-08-15T07:02:58Z</time>
      </trkpt>
      <trkpt lat="42.9813" lon="-0.04306">
        <ele>931.4</ele>
        <time>2024-08-15T07:02:59Z</time>
      </trkpt>
      <trkpt lat="42.98128" lon="-0.04304">
        <ele>932</ele>
        <time>2024-08-15T07:03:00Z</time>
      </trkpt>
      <trkpt lat="42.98126" lon="-0.04301">
        <ele>932</ele>
        <time>2024-08-15T07:03:01Z</time>
      </trkpt>
      <trkpt lat="42.98125" lon="-0.04299">
        <ele>932.2</ele>
        <time>2024-08-15T07:03:02Z</time>
      </trkpt>
      <trkpt lat="42.98123" lon="-0.04298">
        <ele>932.4</ele>
        <time>2024-08-15T07:03:03Z</time>
      </trkpt>
      <trkpt lat="42.98121" lon="-0.04296">
        <ele>932.6</ele>
        <time>2024-08-15T07:03:04Z</time>
      </trkpt>
      <trkpt lat="42.9812" lon="-0.04294">
        <ele>932.6</ele>
        <time>2024-08-15T07:03:05Z</time>
      </trkpt>
      <trkpt lat="42.98118" lon="-0.04291">
        <ele>932.8</ele>
        <time>2024-08-15T07:03:06Z</time>
      </trkpt>
      <trkpt lat="42.98117" lon="-0.04288">
        <ele>932.8</ele>
        <time>2024-08-15T07:03:07Z</time>
      </trkpt>
      <trkpt lat="42.98116" lon="-0.04286">
        <ele>933</ele>
        <time>2024-08-15T07:03:08Z</time>
      </trkpt>
      <trkpt lat="42.98114" lon="-0.04283">
        <ele>933</ele>
        <time>2024-08-15T07:03:09Z</time>
      </trkpt>
      <trkpt lat="42.98113" lon="-0.04281">
        <ele>933</ele>
        <time>2024-08-15T07:03:10Z</time>
      </trkpt>
      <trkpt lat="42.9811" lon="-0.04278">
        <ele>933.4</ele>
        <time>2024-08-15T07:03:11Z</time>
      </trkpt>
      <trkpt lat="42.98109" lon="-0.04274">
        <ele>933.4</ele>
        <time>2024-08-15T07:03:12Z</time>
      </trkpt>
      <trkpt lat="42.98107" lon="-0.04271">
        <ele>933.6</ele>
        <time>2024-08-15T07:03:13Z</time>
      </trkpt>
      <trkpt lat="42.98105" lon="-0.04268">
        <ele>933.8</ele>
        <time>2024-08-15T07:03:14Z</time>
      </trkpt>
      <trkpt lat="42.98103" lon="-0.04264">
        <ele>934</ele>
        <time>2024-08-15T07:03:15Z</time>
      </trkpt>
      <trkpt lat="42.98103" lon="-0.04261">
        <ele>934</ele>
        <time>2024-08-15T07:03:16Z</time>
      </trkpt>
      <trkpt lat="42.98101" lon="-0.04257">
        <ele>934</ele>
        <time>2024-08-15T07:03:17Z</time>
      </trkpt>
      <trkpt lat="42.981" lon="-0.04254">
        <ele>934.2</ele>
        <time>2024-08-15T07:03:18Z</time>
      </trkpt>
      <trkpt lat="42.98097" lon="-0.0425">
        <ele>934.2</ele>
        <time>2024-08-15T07:03:19Z</time>
      </trkpt>
      <trkpt lat="42.98095" lon="-0.04246">
        <ele>934.2</ele>
        <time>2024-08-15T07:03:20Z</time>
      </trkpt>
      <trkpt lat="42.98093" lon="-0.04242">
        <ele>934.2</ele>
        <time>2024-08-15T07:03:21Z</time>
      </trkpt>
      <trkpt lat="42.98091" lon="-0.04239">
        <ele>934.2</ele>
        <time>2024-08-15T07:03:22Z</time>
      </trkpt>
      <trkpt lat="42.9809" lon="-0.04235">
        <ele>934.2</ele>
        <time>2024-08-15T07:03:23Z</time>
      </trkpt>
      <trkpt lat="42.98089" lon="-0.04231">
        <ele>934.2</ele>
        <time>2024-08-15T07:03:24Z</time>
      </trkpt>
      <trkpt lat="42.98088" lon="-0.04227">
        <ele>934.4</ele>
        <time>2024-08-15T07:03:25Z</time>
      </trkpt>
      <trkpt lat="42.98085" lon="-0.04223">
        <ele>934.4</ele>
        <time>2024-08-15T07:03:26Z</time>
      </trkpt>
      <trkpt lat="42.98083" lon="-0.04219">
        <ele>934.4</ele>
        <time>2024-08-15T07:03:27Z</time>
      </trkpt>
      <trkpt lat="42.98082" lon="-0.04216">
        <ele>934.6</ele>
        <time>2024-08-15T07:03:28Z</time>
      </trkpt>
      <trkpt lat="42.98082" lon="-0.04211">
        <ele>934.8</ele>
        <time>2024-08-15T07:03:29Z</time>
      </trkpt>
      <trkpt lat="42.98081" lon="-0.04208">
        <ele>934.8</ele>
        <time>2024-08-15T07:03:30Z</time>
      </trkpt>
      <trkpt lat="42.9808" lon="-0.04203">
        <ele>935</ele>
        <time>2024-08-15T07:03:31Z</time>
      </trkpt>
      <trkpt lat="42.9808" lon="-0.042">
        <ele>935</ele>
        <time>2024-08-15T07:03:32Z</time>
      </trkpt>
      <trkpt lat="42.98079" lon="-0.04197">
        <ele>935.2</ele>
        <time>2024-08-15T07:03:33Z</time>
      </trkpt>
      <trkpt lat="42.98075" lon="-0.04186">
        <ele>935.4</ele>
        <time>2024-08-15T07:03:36Z</time>
      </trkpt>
      <trkpt lat="42.98074" lon="-0.04183">
        <ele>935.6</ele>
        <time>2024-08-15T07:03:37Z</time>
      </trkpt>
      <trkpt lat="42.98074" lon="-0.0418">
        <ele>935.8</ele>
        <time>2024-08-15T07:03:38Z</time>
      </trkpt>
      <trkpt lat="42.98073" lon="-0.04177">
        <ele>935.8</ele>
        <time>2024-08-15T07:03:39Z</time>
      </trkpt>
      <trkpt lat="42.98072" lon="-0.0417">
        <ele>936.2</ele>
        <time>2024-08-15T07:03:41Z</time>
      </trkpt>
      <trkpt lat="42.98071" lon="-0.04167">
        <ele>936.4</ele>
        <time>2024-08-15T07:03:42Z</time>
      </trkpt>
      <trkpt lat="42.98069" lon="-0.04161">
        <ele>937</ele>
        <time>2024-08-15T07:03:44Z</time>
      </trkpt>
      <trkpt lat="42.98068" lon="-0.04157">
        <ele>937.2</ele>
        <time>2024-08-15T07:03:45Z</time>
      </trkpt>
      <trkpt lat="42.98068" lon="-0.04155">
        <ele>937.4</ele>
        <time>2024-08-15T07:03:46Z</time>
      </trkpt>
      <trkpt lat="42.98066" lon="-0.04152">
        <ele>937.6</ele>
        <time>2024-08-15T07:03:47Z</time>
      </trkpt>
      <trkpt lat="42.98065" lon="-0.04148">
        <ele>937.8</ele>
        <time>2024-08-15T07:03:48Z</time>
      </trkpt>
      <trkpt lat="42.98063" lon="-0.04145">
        <ele>938</ele>
        <time>2024-08-15T07:03:49Z</time>
      </trkpt>
      <trkpt lat="42.98062" lon="-0.04142">
        <ele>938.2</ele>
        <time>2024-08-15T07:03:50Z</time>
      </trkpt>
      <trkpt lat="42.98062" lon="-0.04139">
        <ele>938.4</ele>
        <time>2024-08-15T07:03:51Z</time>
      </trkpt>
      <trkpt lat="42.9806" lon="-0.04136">
        <ele>938.6</ele>
        <time>2024-08-15T07:03:52Z</time>
      </trkpt>
      <trkpt lat="42.98059" lon="-0.04134">
        <ele>938.8</ele>
        <time>2024-08-15T07:03:53Z</time>
      </trkpt>
      <trkpt lat="42.98057" lon="-0.04132">
        <ele>939</ele>
        <time>2024-08-15T07:03:54Z</time>
      </trkpt>
      <trkpt lat="42.98055" lon="-0.04131">
        <ele>939</ele>
        <time>2024-08-15T07:03:55Z</time>
      </trkpt>
      <trkpt lat="42.98053" lon="-0.0413">
        <ele>939.2</ele>
        <time>2024-08-15T07:03:56Z</time>
      </trkpt>
      <trkpt lat="42.9805" lon="-0.04129">
        <ele>939.4</ele>
        <time>2024-08-15T07:03:57Z</time>
      </trkpt>
      <trkpt lat="42.98048" lon="-0.04128">
        <ele>939.4</ele>
        <time>2024-08-15T07:03:58Z</time>
      </trkpt>
      <trkpt lat="42.98045" lon="-0.04127">
        <ele>939.4</ele>
        <time>2024-08-15T07:03:59Z</time>
      </trkpt>
      <trkpt lat="42.98044" lon="-0.04126">
        <ele>939.4</ele>
        <time>2024-08-15T07:04:00Z</time>
      </trkpt>
      <trkpt lat="42.98043" lon="-0.04126">
        <ele>939.6</ele>
        <time>2024-08-15T07:04:01Z</time>
      </trkpt>
      <trkpt lat="42.98042" lon="-0.04126">
        <ele>939.6</ele>
        <time>2024-08-15T07:04:02Z</time>
      </trkpt>
      <trkpt lat="42.98039" lon="-0.04126">
        <ele>939.8</ele>
        <time>2024-08-15T07:04:03Z</time>
      </trkpt>
      <trkpt lat="42.98037" lon="-0.04125">
        <ele>940.2</ele>
        <time>2024-08-15T07:04:04Z</time>
      </trkpt>
      <trkpt lat="42.98034" lon="-0.04123">
        <ele>940.2</ele>
        <time>2024-08-15T07:04:05Z</time>
      </trkpt>
      <trkpt lat="42.9803" lon="-0.04122">
        <ele>940.4</ele>
        <time>2024-08-15T07:04:06Z</time>
      </trkpt>
      <trkpt lat="42.98028" lon="-0.0412">
        <ele>940.6</ele>
        <time>2024-08-15T07:04:07Z</time>
      </trkpt>
      <trkpt lat="42.98025" lon="-0.04118">
        <ele>940.6</ele>
        <time>2024-08-15T07:04:08Z</time>
      </trkpt>
      <trkpt lat="42.98023" lon="-0.04117">
        <ele>940.6</ele>
        <time>2024-08-15T07:04:09Z</time>
      </trkpt>
      <trkpt lat="42.9802" lon="-0.04115">
        <ele>940.8</ele>
        <time>2024-08-15T07:04:10Z</time>
      </trkpt>
      <trkpt lat="42.98018" lon="-0.04113">
        <ele>940.8</ele>
        <time>2024-08-15T07:04:11Z</time>
      </trkpt>
      <trkpt lat="42.98015" lon="-0.04111">
        <ele>940.8</ele>
        <time>2024-08-15T07:04:12Z</time>
      </trkpt>
      <trkpt lat="42.98013" lon="-0.04109">
        <ele>940.8</ele>
        <time>2024-08-15T07:04:13Z</time>
      </trkpt>
      <trkpt lat="42.98011" lon="-0.04106">
        <ele>940.8</ele>
        <time>2024-08-15T07:04:14Z</time>
      </trkpt>
      <trkpt lat="42.98009" lon="-0.04102">
        <ele>940.8</ele>
        <time>2024-08-15T07:04:15Z</time>
      </trkpt>
      <trkpt lat="42.98008" lon="-0.04098">
        <ele>940.8</ele>
        <time>2024-08-15T07:04:16Z</time>
      </trkpt>
      <trkpt lat="42.98006" lon="-0.04094">
        <ele>940.8</ele>
        <time>2024-08-15T07:04:17Z</time>
      </trkpt>
      <trkpt lat="42.98004" lon="-0.04091">
        <ele>940.8</ele>
        <time>2024-08-15T07:04:18Z</time>
      </trkpt>
      <trkpt lat="42.98001" lon="-0.04087">
        <ele>940.8</ele>
        <time>2024-08-15T07:04:19Z</time>
      </trkpt>
      <trkpt lat="42.97999" lon="-0.04083">
        <ele>940.8</ele>
        <time>2024-08-15T07:04:20Z</time>
      </trkpt>
      <trkpt lat="42.97999" lon="-0.04078">
        <ele>940.8</ele>
        <time>2024-08-15T07:04:21Z</time>
      </trkpt>
      <trkpt lat="42.97999" lon="-0.04073">
        <ele>940.6</ele>
        <time>2024-08-15T07:04:22Z</time>
      </trkpt>
      <trkpt lat="42.97996" lon="-0.04064">
        <ele>940.6</ele>
        <time>2024-08-15T07:04:24Z</time>
      </trkpt>
      <trkpt lat="42.97982" lon="-0.04037">
        <ele>941</ele>
        <time>2024-08-15T07:04:30Z</time>
      </trkpt>
      <trkpt lat="42.97979" lon="-0.04034">
        <ele>941</ele>
        <time>2024-08-15T07:04:31Z</time>
      </trkpt>
      <trkpt lat="42.97977" lon="-0.04029">
        <ele>941</ele>
        <time>2024-08-15T07:04:32Z</time>
      </trkpt>
      <trkpt lat="42.97975" lon="-0.04026">
        <ele>941</ele>
        <time>2024-08-15T07:04:33Z</time>
      </trkpt>
      <trkpt lat="42.97962" lon="-0.04004">
        <ele>940.8</ele>
        <time>2024-08-15T07:04:38Z</time>
      </trkpt>
      <trkpt lat="42.97957" lon="-0.03992">
        <ele>940.8</ele>
        <time>2024-08-15T07:04:40Z</time>
      </trkpt>
      <trkpt lat="42.97953" lon="-0.03982">
        <ele>940.6</ele>
        <time>2024-08-15T07:04:42Z</time>
      </trkpt>
      <trkpt lat="42.97951" lon="-0.03977">
        <ele>940.6</ele>
        <time>2024-08-15T07:04:43Z</time>
      </trkpt>
      <trkpt lat="42.97947" lon="-0.03973">
        <ele>940.4</ele>
        <time>2024-08-15T07:04:44Z</time>
      </trkpt>
      <trkpt lat="42.97943" lon="-0.03969">
        <ele>940.4</ele>
        <time>2024-08-15T07:04:45Z</time>
      </trkpt>
      <trkpt lat="42.9794" lon="-0.03966">
        <ele>940.4</ele>
        <time>2024-08-15T07:04:46Z</time>
      </trkpt>
      <trkpt lat="42.97937" lon="-0.03963">
        <ele>940.2</ele>
        <time>2024-08-15T07:04:47Z</time>
      </trkpt>
      <trkpt lat="42.97934" lon="-0.0396">
        <ele>940.2</ele>
        <time>2024-08-15T07:04:48Z</time>
      </trkpt>
      <trkpt lat="42.97931" lon="-0.03958">
        <ele>940.2</ele>
        <time>2024-08-15T07:04:49Z</time>
      </trkpt>
      <trkpt lat="42.97929" lon="-0.03956">
        <ele>940.2</ele>
        <time>2024-08-15T07:04:50Z</time>
      </trkpt>
      <trkpt lat="42.97927" lon="-0.03953">
        <ele>940.4</ele>
        <time>2024-08-15T07:04:51Z</time>
      </trkpt>
      <trkpt lat="42.97925" lon="-0.03951">
        <ele>940.4</ele>
        <time>2024-08-15T07:04:52Z</time>
      </trkpt>
      <trkpt lat="42.97924" lon="-0.03949">
        <ele>940.6</ele>
        <time>2024-08-15T07:04:53Z</time>
      </trkpt>
      <trkpt lat="42.97922" lon="-0.03947">
        <ele>941</ele>
        <time>2024-08-15T07:04:54Z</time>
      </trkpt>
      <trkpt lat="42.97921" lon="-0.03945">
        <ele>941</ele>
        <time>2024-08-15T07:04:55Z</time>
      </trkpt>
      <trkpt lat="42.97919" lon="-0.03942">
        <ele>941.2</ele>
        <time>2024-08-15T07:04:56Z</time>
      </trkpt>
      <trkpt lat="42.97918" lon="-0.03941">
        <ele>941.4</ele>
        <time>2024-08-15T07:04:57Z</time>
      </trkpt>
      <trkpt lat="42.97917" lon="-0.03939">
        <ele>941.8</ele>
        <time>2024-08-15T07:04:58Z</time>
      </trkpt>
      <trkpt lat="42.97915" lon="-0.03937">
        <ele>942</ele>
        <time>2024-08-15T07:04:59Z</time>
      </trkpt>
      <trkpt lat="42.97914" lon="-0.03935">
        <ele>942.4</ele>
        <time>2024-08-15T07:05:00Z</time>
      </trkpt>
      <trkpt lat="42.97913" lon="-0.03934">
        <ele>942.8</ele>
        <time>2024-08-15T07:05:01Z</time>
      </trkpt>
      <trkpt lat="42.97912" lon="-0.03932">
        <ele>943</ele>
        <time>2024-08-15T07:05:02Z</time>
      </trkpt>
      <trkpt lat="42.97907" lon="-0.03924">
        <ele>943.8</ele>
        <time>2024-08-15T07:05:06Z</time>
      </trkpt>
      <trkpt lat="42.97905" lon="-0.03922">
        <ele>944</ele>
        <time>2024-08-15T07:05:07Z</time>
      </trkpt>
      <trkpt lat="42.97904" lon="-0.0392">
        <ele>944</ele>
        <time>2024-08-15T07:05:08Z</time>
      </trkpt>
      <trkpt lat="42.97903" lon="-0.03917">
        <ele>944.4</ele>
        <time>2024-08-15T07:05:09Z</time>
      </trkpt>
      <trkpt lat="42.97901" lon="-0.03915">
        <ele>944.6</ele>
        <time>2024-08-15T07:05:10Z</time>
      </trkpt>
      <trkpt lat="42.979" lon="-0.03913">
        <ele>944.8</ele>
        <time>2024-08-15T07:05:11Z</time>
      </trkpt>
      <trkpt lat="42.97899" lon="-0.03911">
        <ele>945</ele>
        <time>2024-08-15T07:05:12Z</time>
      </trkpt>
      <trkpt lat="42.97898" lon="-0.03909">
        <ele>945.2</ele>
        <time>2024-08-15T07:05:13Z</time>
      </trkpt>
      <trkpt lat="42.97896" lon="-0.03907">
        <ele>945.4</ele>
        <time>2024-08-15T07:05:14Z</time>
      </trkpt>
      <trkpt lat="42.97896" lon="-0.03907">
        <ele>945.4</ele>
        <time>2024-08-15T07:05:15Z</time>
      </trkpt>
      <trkpt lat="42.97894" lon="-0.03903">
        <ele>945.6</ele>
        <time>2024-08-15T07:05:16Z</time>
      </trkpt>
      <trkpt lat="42.97892" lon="-0.03901">
        <ele>945.8</ele>
        <time>2024-08-15T07:05:17Z</time>
      </trkpt>
      <trkpt lat="42.97891" lon="-0.03899">
        <ele>945.8</ele>
        <time>2024-08-15T07:05:18Z</time>
      </trkpt>
      <trkpt lat="42.9789" lon="-0.03897">
        <ele>946.2</ele>
        <time>2024-08-15T07:05:19Z</time>
      </trkpt>
      <trkpt lat="42.97887" lon="-0.03895">
        <ele>946.2</ele>
        <time>2024-08-15T07:05:20Z</time>
      </trkpt>
      <trkpt lat="42.97886" lon="-0.03892">
        <ele>946.6</ele>
        <time>2024-08-15T07:05:21Z</time>
      </trkpt>
      <trkpt lat="42.97884" lon="-0.0389">
        <ele>946.8</ele>
        <time>2024-08-15T07:05:22Z</time>
      </trkpt>
      <trkpt lat="42.97882" lon="-0.03887">
        <ele>946.8</ele>
        <time>2024-08-15T07:05:23Z</time>
      </trkpt>
      <trkpt lat="42.97881" lon="-0.03885">
        <ele>947</ele>
        <time>2024-08-15T07:05:24Z</time>
      </trkpt>
      <trkpt lat="42.97879" lon="-0.03882">
        <ele>947.2</ele>
        <time>2024-08-15T07:05:25Z</time>
      </trkpt>
      <trkpt lat="42.97877" lon="-0.0388">
        <ele>947.4</ele>
        <time>2024-08-15T07:05:26Z</time>
      </trkpt>
      <trkpt lat="42.97874" lon="-0.03877">
        <ele>947.4</ele>
        <time>2024-08-15T07:05:27Z</time>
      </trkpt>
      <trkpt lat="42.97871" lon="-0.03875">
        <ele>947.4</ele>
        <time>2024-08-15T07:05:28Z</time>
      </trkpt>
      <trkpt lat="42.97868" lon="-0.03873">
        <ele>947.6</ele>
        <time>2024-08-15T07:05:29Z</time>
      </trkpt>
      <trkpt lat="42.97865" lon="-0.03872">
        <ele>947.8</ele>
        <time>2024-08-15T07:05:30Z</time>
      </trkpt>
      <trkpt lat="42.97862" lon="-0.03871">
        <ele>948</ele>
        <time>2024-08-15T07:05:31Z</time>
      </trkpt>
      <trkpt lat="42.97861" lon="-0.03871">
        <ele>948.2</ele>
        <time>2024-08-15T07:05:32Z</time>
      </trkpt>
      <trkpt lat="42.97859" lon="-0.0387">
        <ele>948.6</ele>
        <time>2024-08-15T07:05:33Z</time>
      </trkpt>
      <trkpt lat="42.97856" lon="-0.03869">
        <ele>948.6</ele>
        <time>2024-08-15T07:05:34Z</time>
      </trkpt>
      <trkpt lat="42.97854" lon="-0.03869">
        <ele>948.8</ele>
        <time>2024-08-15T07:05:35Z</time>
      </trkpt>
      <trkpt lat="42.97851" lon="-0.03868">
        <ele>949</ele>
        <time>2024-08-15T07:05:36Z</time>
      </trkpt>
      <trkpt lat="42.97849" lon="-0.03868">
        <ele>949.2</ele>
        <time>2024-08-15T07:05:37Z</time>
      </trkpt>
      <trkpt lat="42.97849" lon="-0.03868">
        <ele>949.2</ele>
        <time>2024-08-15T07:05:38Z</time>
      </trkpt>
      <trkpt lat="42.97846" lon="-0.03866">
        <ele>949.6</ele>
        <time>2024-08-15T07:05:39Z</time>
      </trkpt>
      <trkpt lat="42.97844" lon="-0.03865">
        <ele>949.8</ele>
        <time>2024-08-15T07:05:40Z</time>
      </trkpt>
      <trkpt lat="42.97843" lon="-0.03864">
        <ele>950.2</ele>
        <time>2024-08-15T07:05:41Z</time>
      </trkpt>
      <trkpt lat="42.97841" lon="-0.03863">
        <ele>950.4</ele>
        <time>2024-08-15T07:05:42Z</time>
      </trkpt>
      <trkpt lat="42.97839" lon="-0.03862">
        <ele>950.8</ele>
        <time>2024-08-15T07:05:43Z</time>
      </trkpt>
      <trkpt lat="42.97837" lon="-0.03861">
        <ele>951.2</ele>
        <time>2024-08-15T07:05:44Z</time>
      </trkpt>
      <trkpt lat="42.97835" lon="-0.03859">
        <ele>951.6</ele>
        <time>2024-08-15T07:05:45Z</time>
      </trkpt>
      <trkpt lat="42.97833" lon="-0.03858">
        <ele>951.8</ele>
        <time>2024-08-15T07:05:46Z</time>
      </trkpt>
      <trkpt lat="42.97831" lon="-0.03856">
        <ele>952</ele>
        <time>2024-08-15T07:05:47Z</time>
      </trkpt>
      <trkpt lat="42.9783" lon="-0.03855">
        <ele>952.2</ele>
        <time>2024-08-15T07:05:48Z</time>
      </trkpt>
      <trkpt lat="42.97828" lon="-0.03854">
        <ele>952.4</ele>
        <time>2024-08-15T07:05:49Z</time>
      </trkpt>
      <trkpt lat="42.97824" lon="-0.03854">
        <ele>952.6</ele>
        <time>2024-08-15T07:05:50Z</time>
      </trkpt>
      <trkpt lat="42.97822" lon="-0.03853">
        <ele>953</ele>
        <time>2024-08-15T07:05:51Z</time>
      </trkpt>
      <trkpt lat="42.9782" lon="-0.03851">
        <ele>953</ele>
        <time>2024-08-15T07:05:52Z</time>
      </trkpt>
      <trkpt lat="42.97817" lon="-0.0385">
        <ele>953.2</ele>
        <time>2024-08-15T07:05:53Z</time>
      </trkpt>
      <trkpt lat="42.97815" lon="-0.03849">
        <ele>953.4</ele>
        <time>2024-08-15T07:05:54Z</time>
      </trkpt>
      <trkpt lat="42.97813" lon="-0.03848">
        <ele>953.6</ele>
        <time>2024-08-15T07:05:55Z</time>
      </trkpt>
      <trkpt lat="42.97812" lon="-0.03848">
        <ele>953.8</ele>
        <time>2024-08-15T07:05:56Z</time>
      </trkpt>
      <trkpt lat="42.9781" lon="-0.03848">
        <ele>954</ele>
        <time>2024-08-15T07:05:57Z</time>
      </trkpt>
      <trkpt lat="42.97808" lon="-0.03847">
        <ele>954.2</ele>
        <time>2024-08-15T07:05:58Z</time>
      </trkpt>
      <trkpt lat="42.97806" lon="-0.03846">
        <ele>954.2</ele>
        <time>2024-08-15T07:05:59Z</time>
      </trkpt>
      <trkpt lat="42.97804" lon="-0.03845">
        <ele>954.6</ele>
        <time>2024-08-15T07:06:00Z</time>
      </trkpt>
      <trkpt lat="42.97802" lon="-0.03846">
        <ele>954.8</ele>
        <time>2024-08-15T07:06:01Z</time>
      </trkpt>
      <trkpt lat="42.978" lon="-0.03846">
        <ele>955</ele>
        <time>2024-08-15T07:06:02Z</time>
      </trkpt>
      <trkpt lat="42.97798" lon="-0.03846">
        <ele>955.2</ele>
        <time>2024-08-15T07:06:03Z</time>
      </trkpt>
      <trkpt lat="42.97796" lon="-0.03847">
        <ele>955.4</ele>
        <time>2024-08-15T07:06:04Z</time>
      </trkpt>
      <trkpt lat="42.97794" lon="-0.03847">
        <ele>955.8</ele>
        <time>2024-08-15T07:06:05Z</time>
      </trkpt>
      <trkpt lat="42.97793" lon="-0.03847">
        <ele>956</ele>
        <time>2024-08-15T07:06:06Z</time>
      </trkpt>
      <trkpt lat="42.97791" lon="-0.03846">
        <ele>956.2</ele>
        <time>2024-08-15T07:06:07Z</time>
      </trkpt>
      <trkpt lat="42.97789" lon="-0.03846">
        <ele>956.2</ele>
        <time>2024-08-15T07:06:08Z</time>
      </trkpt>
      <trkpt lat="42.97788" lon="-0.03846">
        <ele>956.6</ele>
        <time>2024-08-15T07:06:09Z</time>
      </trkpt>
      <trkpt lat="42.97786" lon="-0.03846">
        <ele>956.8</ele>
        <time>2024-08-15T07:06:10Z</time>
      </trkpt>
      <trkpt lat="42.97785" lon="-0.03846">
        <ele>957.2</ele>
        <time>2024-08-15T07:06:11Z</time>
      </trkpt>
      <trkpt lat="42.97783" lon="-0.03846">
        <ele>957.2</ele>
        <time>2024-08-15T07:06:12Z</time>
      </trkpt>
      <trkpt lat="42.97782" lon="-0.03846">
        <ele>957.8</ele>
        <time>2024-08-15T07:06:13Z</time>
      </trkpt>
      <trkpt lat="42.9778" lon="-0.03846">
        <ele>958</ele>
        <time>2024-08-15T07:06:14Z</time>
      </trkpt>
      <trkpt lat="42.97778" lon="-0.03845">
        <ele>958.2</ele>
        <time>2024-08-15T07:06:15Z</time>
      </trkpt>
      <trkpt lat="42.97776" lon="-0.03845">
        <ele>958.4</ele>
        <time>2024-08-15T07:06:16Z</time>
      </trkpt>
      <trkpt lat="42.97774" lon="-0.03845">
        <ele>958.6</ele>
        <time>2024-08-15T07:06:17Z</time>
      </trkpt>
      <trkpt lat="42.97772" lon="-0.03846">
        <ele>959</ele>
        <time>2024-08-15T07:06:18Z</time>
      </trkpt>
      <trkpt lat="42.9777" lon="-0.03846">
        <ele>959.2</ele>
        <time>2024-08-15T07:06:19Z</time>
      </trkpt>
      <trkpt lat="42.97768" lon="-0.03846">
        <ele>959.4</ele>
        <time>2024-08-15T07:06:20Z</time>
      </trkpt>
      <trkpt lat="42.97766" lon="-0.03847">
        <ele>959.8</ele>
        <time>2024-08-15T07:06:21Z</time>
      </trkpt>
      <trkpt lat="42.97764" lon="-0.03847">
        <ele>959.8</ele>
        <time>2024-08-15T07:06:22Z</time>
      </trkpt>
      <trkpt lat="42.97762" lon="-0.03848">
        <ele>960</ele>
        <time>2024-08-15T07:06:23Z</time>
      </trkpt>
      <trkpt lat="42.9776" lon="-0.03848">
        <ele>960.2</ele>
        <time>2024-08-15T07:06:24Z</time>
      </trkpt>
      <trkpt lat="42.97759" lon="-0.03849">
        <ele>960.4</ele>
        <time>2024-08-15T07:06:25Z</time>
      </trkpt>
      <trkpt lat="42.97757" lon="-0.03849">
        <ele>960.6</ele>
        <time>2024-08-15T07:06:26Z</time>
      </trkpt>
      <trkpt lat="42.97755" lon="-0.03849">
        <ele>960.8</ele>
        <time>2024-08-15T07:06:27Z</time>
      </trkpt>
      <trkpt lat="42.97754" lon="-0.03848">
        <ele>961</ele>
        <time>2024-08-15T07:06:28Z</time>
      </trkpt>
      <trkpt lat="42.97752" lon="-0.03847">
        <ele>961.2</ele>
        <time>2024-08-15T07:06:29Z</time>
      </trkpt>
      <trkpt lat="42.9775" lon="-0.03847">
        <ele>961.6</ele>
        <time>2024-08-15T07:06:30Z</time>
      </trkpt>
      <trkpt lat="42.97749" lon="-0.03847">
        <ele>961.6</ele>
        <time>2024-08-15T07:06:31Z</time>
      </trkpt>
      <trkpt lat="42.97747" lon="-0.03846">
        <ele>961.8</ele>
        <time>2024-08-15T07:06:32Z</time>
      </trkpt>
      <trkpt lat="42.97745" lon="-0.03845">
        <ele>961.8</ele>
        <time>2024-08-15T07:06:33Z</time>
      </trkpt>
      <trkpt lat="42.97743" lon="-0.03845">
        <ele>962</ele>
        <time>2024-08-15T07:06:34Z</time>
      </trkpt>
      <trkpt lat="42.97741" lon="-0.03845">
        <ele>962.2</ele>
        <time>2024-08-15T07:06:35Z</time>
      </trkpt>
      <trkpt lat="42.97739" lon="-0.03844">
        <ele>962.4</ele>
        <time>2024-08-15T07:06:36Z</time>
      </trkpt>
      <trkpt lat="42.97738" lon="-0.03842">
        <ele>962.6</ele>
        <time>2024-08-15T07:06:37Z</time>
      </trkpt>
      <trkpt lat="42.97737" lon="-0.03841">
        <ele>962.6</ele>
        <time>2024-08-15T07:06:38Z</time>
      </trkpt>
      <trkpt lat="42.97737" lon="-0.03841">
        <ele>962.8</ele>
        <time>2024-08-15T07:06:39Z</time>
      </trkpt>
      <trkpt lat="42.97734" lon="-0.03837">
        <ele>962.8</ele>
        <time>2024-08-15T07:06:40Z</time>
      </trkpt>
      <trkpt lat="42.97734" lon="-0.03837">
        <ele>963</ele>
        <time>2024-08-15T07:06:41Z</time>
      </trkpt>
      <trkpt lat="42.97731" lon="-0.03834">
        <ele>963.2</ele>
        <time>2024-08-15T07:06:42Z</time>
      </trkpt>
      <trkpt lat="42.9773" lon="-0.03832">
        <ele>963.4</ele>
        <time>2024-08-15T07:06:43Z</time>
      </trkpt>
      <trkpt lat="42.97729" lon="-0.03831">
        <ele>963.8</ele>
        <time>2024-08-15T07:06:44Z</time>
      </trkpt>
      <trkpt lat="42.97727" lon="-0.03829">
        <ele>964</ele>
        <time>2024-08-15T07:06:45Z</time>
      </trkpt>
      <trkpt lat="42.97726" lon="-0.03828">
        <ele>964.4</ele>
        <time>2024-08-15T07:06:46Z</time>
      </trkpt>
      <trkpt lat="42.97725" lon="-0.03827">
        <ele>964.4</ele>
        <time>2024-08-15T07:06:47Z</time>
      </trkpt>
      <trkpt lat="42.97724" lon="-0.03825">
        <ele>964.6</ele>
        <time>2024-08-15T07:06:48Z</time>
      </trkpt>
      <trkpt lat="42.97724" lon="-0.03823">
        <ele>964.8</ele>
        <time>2024-08-15T07:06:49Z</time>
      </trkpt>
      <trkpt lat="42.97724" lon="-0.03821">
        <ele>965</ele>
        <time>2024-08-15T07:06:50Z</time>
      </trkpt>
      <trkpt lat="42.97723" lon="-0.03819">
        <ele>965.2</ele>
        <time>2024-08-15T07:06:51Z</time>
      </trkpt>
      <trkpt lat="42.97724" lon="-0.03816">
        <ele>965.4</ele>
        <time>2024-08-15T07:06:52Z</time>
      </trkpt>
      <trkpt lat="42.97723" lon="-0.03814">
        <ele>965.6</ele>
        <time>2024-08-15T07:06:53Z</time>
      </trkpt>
      <trkpt lat="42.97723" lon="-0.03811">
        <ele>965.8</ele>
        <time>2024-08-15T07:06:54Z</time>
      </trkpt>
      <trkpt lat="42.97723" lon="-0.03809">
        <ele>966</ele>
        <time>2024-08-15T07:06:55Z</time>
      </trkpt>
      <trkpt lat="42.97723" lon="-0.03808">
        <ele>966.2</ele>
        <time>2024-08-15T07:06:56Z</time>
      </trkpt>
      <trkpt lat="42.97724" lon="-0.03806">
        <ele>966.4</ele>
        <time>2024-08-15T07:06:57Z</time>
      </trkpt>
      <trkpt lat="42.97725" lon="-0.03804">
        <ele>966.6</ele>
        <time>2024-08-15T07:06:58Z</time>
      </trkpt>
      <trkpt lat="42.97726" lon="-0.03804">
        <ele>967</ele>
        <time>2024-08-15T07:06:59Z</time>
      </trkpt>
      <trkpt lat="42.97727" lon="-0.03804">
        <ele>967.2</ele>
        <time>2024-08-15T07:07:00Z</time>
      </trkpt>
      <trkpt lat="42.97728" lon="-0.03805">
        <ele>967.4</ele>
        <time>2024-08-15T07:07:01Z</time>
      </trkpt>
      <trkpt lat="42.9773" lon="-0.03805">
        <ele>967.8</ele>
        <time>2024-08-15T07:07:02Z</time>
      </trkpt>
      <trkpt lat="42.97731" lon="-0.03805">
        <ele>967.8</ele>
        <time>2024-08-15T07:07:03Z</time>
      </trkpt>
      <trkpt lat="42.97732" lon="-0.03804">
        <ele>968.2</ele>
        <time>2024-08-15T07:07:04Z</time>
      </trkpt>
      <trkpt lat="42.97733" lon="-0.03805">
        <ele>968.2</ele>
        <time>2024-08-15T07:07:05Z</time>
      </trkpt>
      <trkpt lat="42.97735" lon="-0.03805">
        <ele>968.4</ele>
        <time>2024-08-15T07:07:06Z</time>
      </trkpt>
      <trkpt lat="42.97737" lon="-0.03805">
        <ele>968.6</ele>
        <time>2024-08-15T07:07:07Z</time>
      </trkpt>
      <trkpt lat="42.97738" lon="-0.03805">
        <ele>969</ele>
        <time>2024-08-15T07:07:08Z</time>
      </trkpt>
      <trkpt lat="42.9774" lon="-0.03805">
        <ele>969.2</ele>
        <time>2024-08-15T07:07:09Z</time>
      </trkpt>
      <trkpt lat="42.97741" lon="-0.03805">
        <ele>969.2</ele>
        <time>2024-08-15T07:07:10Z</time>
      </trkpt>
      <trkpt lat="42.97742" lon="-0.03805">
        <ele>969.6</ele>
        <time>2024-08-15T07:07:11Z</time>
      </trkpt>
      <trkpt lat="42.97744" lon="-0.03805">
        <ele>969.8</ele>
        <time>2024-08-15T07:07:12Z</time>
      </trkpt>
      <trkpt lat="42.97746" lon="-0.03805">
        <ele>970</ele>
        <time>2024-08-15T07:07:13Z</time>
      </trkpt>
      <trkpt lat="42.97748" lon="-0.03805">
        <ele>970.2</ele>
        <time>2024-08-15T07:07:14Z</time>
      </trkpt>
      <trkpt lat="42.97749" lon="-0.03805">
        <ele>970.4</ele>
        <time>2024-08-15T07:07:15Z</time>
      </trkpt>
      <trkpt lat="42.97751" lon="-0.03805">
        <ele>970.6</ele>
        <time>2024-08-15T07:07:16Z</time>
      </trkpt>
      <trkpt lat="42.97752" lon="-0.03805">
        <ele>970.8</ele>
        <time>2024-08-15T07:07:17Z</time>
      </trkpt>
      <trkpt lat="42.97753" lon="-0.03805">
        <ele>971</ele>
        <time>2024-08-15T07:07:18Z</time>
      </trkpt>
      <trkpt lat="42.97755" lon="-0.03805">
        <ele>971</ele>
        <time>2024-08-15T07:07:19Z</time>
      </trkpt>
      <trkpt lat="42.97756" lon="-0.03806">
        <ele>971.2</ele>
        <time>2024-08-15T07:07:20Z</time>
      </trkpt>
      <trkpt lat="42.97758" lon="-0.03805">
        <ele>971.4</ele>
        <time>2024-08-15T07:07:21Z</time>
      </trkpt>
      <trkpt lat="42.9776" lon="-0.03805">
        <ele>971.6</ele>
        <time>2024-08-15T07:07:22Z</time>
      </trkpt>
      <trkpt lat="42.97761" lon="-0.03805">
        <ele>971.8</ele>
        <time>2024-08-15T07:07:23Z</time>
      </trkpt>
      <trkpt lat="42.97762" lon="-0.03804">
        <ele>972</ele>
        <time>2024-08-15T07:07:24Z</time>
      </trkpt>
      <trkpt lat="42.97764" lon="-0.03804">
        <ele>972.2</ele>
        <time>2024-08-15T07:07:25Z</time>
      </trkpt>
      <trkpt lat="42.97765" lon="-0.03803">
        <ele>972.4</ele>
        <time>2024-08-15T07:07:26Z</time>
      </trkpt>
      <trkpt lat="42.97767" lon="-0.03803">
        <ele>972.6</ele>
        <time>2024-08-15T07:07:27Z</time>
      </trkpt>
      <trkpt lat="42.97768" lon="-0.03802">
        <ele>972.6</ele>
        <time>2024-08-15T07:07:28Z</time>
      </trkpt>
      <trkpt lat="42.9777" lon="-0.03801">
        <ele>972.8</ele>
        <time>2024-08-15T07:07:29Z</time>
      </trkpt>
      <trkpt lat="42.97771" lon="-0.03801">
        <ele>973</ele>
        <time>2024-08-15T07:07:30Z</time>
      </trkpt>
      <trkpt lat="42.97773" lon="-0.038">
        <ele>973.2</ele>
        <time>2024-08-15T07:07:31Z</time>
      </trkpt>
      <trkpt lat="42.97774" lon="-0.03799">
        <ele>973.6</ele>
        <time>2024-08-15T07:07:32Z</time>
      </trkpt>
      <trkpt lat="42.97776" lon="-0.03797">
        <ele>973.8</ele>
        <time>2024-08-15T07:07:33Z</time>
      </trkpt>
      <trkpt lat="42.97777" lon="-0.03796">
        <ele>974.2</ele>
        <time>2024-08-15T07:07:34Z</time>
      </trkpt>
      <trkpt lat="42.97779" lon="-0.03794">
        <ele>974.2</ele>
        <time>2024-08-15T07:07:35Z</time>
      </trkpt>
      <trkpt lat="42.97779" lon="-0.03793">
        <ele>974.4</ele>
        <time>2024-08-15T07:07:36Z</time>
      </trkpt>
      <trkpt lat="42.9778" lon="-0.03791">
        <ele>974.4</ele>
        <time>2024-08-15T07:07:37Z</time>
      </trkpt>
      <trkpt lat="42.97781" lon="-0.03789">
        <ele>974.6</ele>
        <time>2024-08-15T07:07:38Z</time>
      </trkpt>
      <trkpt lat="42.97781" lon="-0.03787">
        <ele>974.8</ele>
        <time>2024-08-15T07:07:39Z</time>
      </trkpt>
      <trkpt lat="42.97782" lon="-0.03785">
        <ele>975.2</ele>
        <time>2024-08-15T07:07:40Z</time>
      </trkpt>
      <trkpt lat="42.97783" lon="-0.03783">
        <ele>975.4</ele>
        <time>2024-08-15T07:07:41Z</time>
      </trkpt>
      <trkpt lat="42.97783" lon="-0.03781">
        <ele>975.4</ele>
        <time>2024-08-15T07:07:42Z</time>
      </trkpt>
      <trkpt lat="42.97783" lon="-0.03779">
        <ele>975.6</ele>
        <time>2024-08-15T07:07:43Z</time>
      </trkpt>
      <trkpt lat="42.97783" lon="-0.03777">
        <ele>975.8</ele>
        <time>2024-08-15T07:07:44Z</time>
      </trkpt>
      <trkpt lat="42.97783" lon="-0.03776">
        <ele>976.2</ele>
        <time>2024-08-15T07:07:45Z</time>
      </trkpt>
      <trkpt lat="42.97783" lon="-0.03773">
        <ele>976.4</ele>
        <time>2024-08-15T07:07:46Z</time>
      </trkpt>
      <trkpt lat="42.97783" lon="-0.03771">
        <ele>976.6</ele>
        <time>2024-08-15T07:07:47Z</time>
      </trkpt>
      <trkpt lat="42.97784" lon="-0.03768">
        <ele>976.8</ele>
        <time>2024-08-15T07:07:48Z</time>
      </trkpt>
      <trkpt lat="42.97784" lon="-0.03766">
        <ele>977</ele>
        <time>2024-08-15T07:07:49Z</time>
      </trkpt>
      <trkpt lat="42.97784" lon="-0.03764">
        <ele>977.2</ele>
        <time>2024-08-15T07:07:50Z</time>
      </trkpt>
      <trkpt lat="42.97783" lon="-0.03762">
        <ele>977.4</ele>
        <time>2024-08-15T07:07:51Z</time>
      </trkpt>
      <trkpt lat="42.97783" lon="-0.03761">
        <ele>977.6</ele>
        <time>2024-08-15T07:07:52Z</time>
      </trkpt>
      <trkpt lat="42.97782" lon="-0.03759">
        <ele>977.8</ele>
        <time>2024-08-15T07:07:53Z</time>
      </trkpt>
      <trkpt lat="42.97781" lon="-0.03758">
        <ele>978</ele>
        <time>2024-08-15T07:07:54Z</time>
      </trkpt>
      <trkpt lat="42.9778" lon="-0.03756">
        <ele>978</ele>
        <time>2024-08-15T07:07:55Z</time>
      </trkpt>
      <trkpt lat="42.97779" lon="-0.03754">
        <ele>978.2</ele>
        <time>2024-08-15T07:07:56Z</time>
      </trkpt>
      <trkpt lat="42.97778" lon="-0.03753">
        <ele>978.4</ele>
        <time>2024-08-15T07:07:57Z</time>
      </trkpt>
      <trkpt lat="42.97777" lon="-0.03751">
        <ele>978.6</ele>
        <time>2024-08-15T07:07:58Z</time>
      </trkpt>
      <trkpt lat="42.97776" lon="-0.03749">
        <ele>979</ele>
        <time>2024-08-15T07:07:59Z</time>
      </trkpt>
      <trkpt lat="42.97775" lon="-0.03747">
        <ele>979</ele>
        <time>2024-08-15T07:08:00Z</time>
      </trkpt>
      <trkpt lat="42.97774" lon="-0.03744">
        <ele>979.2</ele>
        <time>2024-08-15T07:08:01Z</time>
      </trkpt>
      <trkpt lat="42.97773" lon="-0.03742">
        <ele>979.4</ele>
        <time>2024-08-15T07:08:02Z</time>
      </trkpt>
      <trkpt lat="42.97771" lon="-0.0374">
        <ele>979.4</ele>
        <time>2024-08-15T07:08:03Z</time>
      </trkpt>
      <trkpt lat="42.9777" lon="-0.03737">
        <ele>979.2</ele>
        <time>2024-08-15T07:08:04Z</time>
      </trkpt>
      <trkpt lat="42.97768" lon="-0.03735">
        <ele>979.8</ele>
        <time>2024-08-15T07:08:05Z</time>
      </trkpt>
      <trkpt lat="42.97768" lon="-0.03733">
        <ele>980</ele>
        <time>2024-08-15T07:08:06Z</time>
      </trkpt>
      <trkpt lat="42.97766" lon="-0.0373">
        <ele>980.2</ele>
        <time>2024-08-15T07:08:07Z</time>
      </trkpt>
      <trkpt lat="42.97765" lon="-0.03728">
        <ele>980.4</ele>
        <time>2024-08-15T07:08:08Z</time>
      </trkpt>
      <trkpt lat="42.97763" lon="-0.03726">
        <ele>980.4</ele>
        <time>2024-08-15T07:08:09Z</time>
      </trkpt>
      <trkpt lat="42.97762" lon="-0.03724">
        <ele>980.6</ele>
        <time>2024-08-15T07:08:10Z</time>
      </trkpt>
      <trkpt lat="42.97761" lon="-0.03723">
        <ele>980.8</ele>
        <time>2024-08-15T07:08:11Z</time>
      </trkpt>
      <trkpt lat="42.9776" lon="-0.0372">
        <ele>981</ele>
        <time>2024-08-15T07:08:12Z</time>
      </trkpt>
      <trkpt lat="42.97759" lon="-0.03719">
        <ele>981.2</ele>
        <time>2024-08-15T07:08:13Z</time>
      </trkpt>
      <trkpt lat="42.97757" lon="-0.03717">
        <ele>981.4</ele>
        <time>2024-08-15T07:08:14Z</time>
      </trkpt>
      <trkpt lat="42.97756" lon="-0.03715">
        <ele>981.4</ele>
        <time>2024-08-15T07:08:15Z</time>
      </trkpt>
      <trkpt lat="42.97756" lon="-0.03713">
        <ele>981.6</ele>
        <time>2024-08-15T07:08:16Z</time>
      </trkpt>
      <trkpt lat="42.97755" lon="-0.03711">
        <ele>981.6</ele>
        <time>2024-08-15T07:08:17Z</time>
      </trkpt>
      <trkpt lat="42.97753" lon="-0.03709">
        <ele>981.8</ele>
        <time>2024-08-15T07:08:18Z</time>
      </trkpt>
      <trkpt lat="42.97753" lon="-0.03707">
        <ele>981.8</ele>
        <time>2024-08-15T07:08:19Z</time>
      </trkpt>
      <trkpt lat="42.97753" lon="-0.03705">
        <ele>982</ele>
        <time>2024-08-15T07:08:20Z</time>
      </trkpt>
      <trkpt lat="42.97749" lon="-0.037">
        <ele>982.2</ele>
        <time>2024-08-15T07:08:21Z</time>
      </trkpt>
      <trkpt lat="42.97748" lon="-0.03698">
        <ele>982.4</ele>
        <time>2024-08-15T07:08:22Z</time>
      </trkpt>
      <trkpt lat="42.97747" lon="-0.03697">
        <ele>982.6</ele>
        <time>2024-08-15T07:08:23Z</time>
      </trkpt>
      <trkpt lat="42.97746" lon="-0.03694">
        <ele>982.8</ele>
        <time>2024-08-15T07:08:24Z</time>
      </trkpt>
      <trkpt lat="42.97744" lon="-0.03692">
        <ele>983</ele>
        <time>2024-08-15T07:08:25Z</time>
      </trkpt>
      <trkpt lat="42.97742" lon="-0.0369">
        <ele>983.2</ele>
        <time>2024-08-15T07:08:26Z</time>
      </trkpt>
      <trkpt lat="42.97741" lon="-0.03689">
        <ele>983.4</ele>
        <time>2024-08-15T07:08:27Z</time>
      </trkpt>
      <trkpt lat="42.97739" lon="-0.03689">
        <ele>983.6</ele>
        <time>2024-08-15T07:08:28Z</time>
      </trkpt>
      <trkpt lat="42.97736" lon="-0.03687">
        <ele>983.8</ele>
        <time>2024-08-15T07:08:29Z</time>
      </trkpt>
      <trkpt lat="42.97736" lon="-0.03684">
        <ele>984</ele>
        <time>2024-08-15T07:08:30Z</time>
      </trkpt>
      <trkpt lat="42.97735" lon="-0.03683">
        <ele>984.2</ele>
        <time>2024-08-15T07:08:31Z</time>
      </trkpt>
      <trkpt lat="42.97734" lon="-0.03682">
        <ele>984.4</ele>
        <time>2024-08-15T07:08:32Z</time>
      </trkpt>
      <trkpt lat="42.97732" lon="-0.03681">
        <ele>984.6</ele>
        <time>2024-08-15T07:08:33Z</time>
      </trkpt>
      <trkpt lat="42.97731" lon="-0.0368">
        <ele>984.8</ele>
        <time>2024-08-15T07:08:34Z</time>
      </trkpt>
      <trkpt lat="42.9773" lon="-0.03679">
        <ele>985</ele>
        <time>2024-08-15T07:08:35Z</time>
      </trkpt>
      <trkpt lat="42.97728" lon="-0.03678">
        <ele>985.2</ele>
        <time>2024-08-15T07:08:36Z</time>
      </trkpt>
      <trkpt lat="42.97728" lon="-0.03676">
        <ele>985.4</ele>
        <time>2024-08-15T07:08:37Z</time>
      </trkpt>
      <trkpt lat="42.97727" lon="-0.03675">
        <ele>985.6</ele>
        <time>2024-08-15T07:08:38Z</time>
      </trkpt>
      <trkpt lat="42.97726" lon="-0.03673">
        <ele>985.8</ele>
        <time>2024-08-15T07:08:39Z</time>
      </trkpt>
      <trkpt lat="42.97725" lon="-0.03672">
        <ele>986</ele>
        <time>2024-08-15T07:08:40Z</time>
      </trkpt>
      <trkpt lat="42.97724" lon="-0.03671">
        <ele>986.2</ele>
        <time>2024-08-15T07:08:41Z</time>
      </trkpt>
      <trkpt lat="42.97724" lon="-0.03671">
        <ele>986.4</ele>
        <time>2024-08-15T07:08:42Z</time>
      </trkpt>
      <trkpt lat="42.97722" lon="-0.03669">
        <ele>986.6</ele>
        <time>2024-08-15T07:08:43Z</time>
      </trkpt>
      <trkpt lat="42.97721" lon="-0.03667">
        <ele>986.8</ele>
        <time>2024-08-15T07:08:44Z</time>
      </trkpt>
      <trkpt lat="42.9772" lon="-0.03666">
        <ele>987</ele>
        <time>2024-08-15T07:08:45Z</time>
      </trkpt>
      <trkpt lat="42.97719" lon="-0.03665">
        <ele>987</ele>
        <time>2024-08-15T07:08:46Z</time>
      </trkpt>
      <trkpt lat="42.97718" lon="-0.03664">
        <ele>987.2</ele>
        <time>2024-08-15T07:08:47Z</time>
      </trkpt>
      <trkpt lat="42.97717" lon="-0.03662">
        <ele>987.4</ele>
        <time>2024-08-15T07:08:48Z</time>
      </trkpt>
      <trkpt lat="42.97715" lon="-0.03661">
        <ele>987.6</ele>
        <time>2024-08-15T07:08:49Z</time>
      </trkpt>
      <trkpt lat="42.97714" lon="-0.03659">
        <ele>987.8</ele>
        <time>2024-08-15T07:08:50Z</time>
      </trkpt>
      <trkpt lat="42.97712" lon="-0.03658">
        <ele>988</ele>
        <time>2024-08-15T07:08:51Z</time>
      </trkpt>
      <trkpt lat="42.97711" lon="-0.03657">
        <ele>988</ele>
        <time>2024-08-15T07:08:52Z</time>
      </trkpt>
      <trkpt lat="42.97709" lon="-0.03656">
        <ele>988.4</ele>
        <time>2024-08-15T07:08:53Z</time>
      </trkpt>
      <trkpt lat="42.97708" lon="-0.03654">
        <ele>988.6</ele>
        <time>2024-08-15T07:08:54Z</time>
      </trkpt>
      <trkpt lat="42.97706" lon="-0.03653">
        <ele>988.6</ele>
        <time>2024-08-15T07:08:55Z</time>
      </trkpt>
      <trkpt lat="42.97704" lon="-0.03651">
        <ele>988.8</ele>
        <time>2024-08-15T07:08:56Z</time>
      </trkpt>
      <trkpt lat="42.97703" lon="-0.0365">
        <ele>989</ele>
        <time>2024-08-15T07:08:57Z</time>
      </trkpt>
      <trkpt lat="42.97701" lon="-0.03648">
        <ele>989.4</ele>
        <time>2024-08-15T07:08:58Z</time>
      </trkpt>
      <trkpt lat="42.97699" lon="-0.03647">
        <ele>989.4</ele>
        <time>2024-08-15T07:08:59Z</time>
      </trkpt>
      <trkpt lat="42.97697" lon="-0.03646">
        <ele>989.6</ele>
        <time>2024-08-15T07:09:00Z</time>
      </trkpt>
      <trkpt lat="42.97696" lon="-0.03645">
        <ele>989.8</ele>
        <time>2024-08-15T07:09:01Z</time>
      </trkpt>
      <trkpt lat="42.97694" lon="-0.03644">
        <ele>990</ele>
        <time>2024-08-15T07:09:02Z</time>
      </trkpt>
      <trkpt lat="42.97693" lon="-0.03643">
        <ele>990.4</ele>
        <time>2024-08-15T07:09:03Z</time>
      </trkpt>
      <trkpt lat="42.97692" lon="-0.03642">
        <ele>990.6</ele>
        <time>2024-08-15T07:09:04Z</time>
      </trkpt>
      <trkpt lat="42.9769" lon="-0.03641">
        <ele>990.8</ele>
        <time>2024-08-15T07:09:05Z</time>
      </trkpt>
      <trkpt lat="42.97689" lon="-0.0364">
        <ele>991.2</ele>
        <time>2024-08-15T07:09:06Z</time>
      </trkpt>
      <trkpt lat="42.97687" lon="-0.03638">
        <ele>991.4</ele>
        <time>2024-08-15T07:09:07Z</time>
      </trkpt>
      <trkpt lat="42.97687" lon="-0.03638">
        <ele>991.6</ele>
        <time>2024-08-15T07:09:08Z</time>
      </trkpt>
      <trkpt lat="42.97683" lon="-0.03635">
        <ele>991.8</ele>
        <time>2024-08-15T07:09:09Z</time>
      </trkpt>
      <trkpt lat="42.97682" lon="-0.03633">
        <ele>992</ele>
        <time>2024-08-15T07:09:10Z</time>
      </trkpt>
      <trkpt lat="42.97681" lon="-0.03631">
        <ele>992.2</ele>
        <time>2024-08-15T07:09:11Z</time>
      </trkpt>
      <trkpt lat="42.9768" lon="-0.0363">
        <ele>992.6</ele>
        <time>2024-08-15T07:09:12Z</time>
      </trkpt>
      <trkpt lat="42.97679" lon="-0.03628">
        <ele>992.6</ele>
        <time>2024-08-15T07:09:13Z</time>
      </trkpt>
      <trkpt lat="42.97678" lon="-0.03626">
        <ele>993</ele>
        <time>2024-08-15T07:09:14Z</time>
      </trkpt>
      <trkpt lat="42.97677" lon="-0.03624">
        <ele>993.2</ele>
        <time>2024-08-15T07:09:15Z</time>
      </trkpt>
      <trkpt lat="42.97677" lon="-0.03622">
        <ele>993.4</ele>
        <time>2024-08-15T07:09:16Z</time>
      </trkpt>
      <trkpt lat="42.97676" lon="-0.0362">
        <ele>993.8</ele>
        <time>2024-08-15T07:09:17Z</time>
      </trkpt>
      <trkpt lat="42.97675" lon="-0.03618">
        <ele>993.8</ele>
        <time>2024-08-15T07:09:18Z</time>
      </trkpt>
      <trkpt lat="42.97674" lon="-0.03616">
        <ele>994</ele>
        <time>2024-08-15T07:09:19Z</time>
      </trkpt>
      <trkpt lat="42.97673" lon="-0.03614">
        <ele>994.2</ele>
        <time>2024-08-15T07:09:20Z</time>
      </trkpt>
      <trkpt lat="42.97673" lon="-0.03611">
        <ele>994.4</ele>
        <time>2024-08-15T07:09:21Z</time>
      </trkpt>
      <trkpt lat="42.97672" lon="-0.03609">
        <ele>994.6</ele>
        <time>2024-08-15T07:09:22Z</time>
      </trkpt>
      <trkpt lat="42.97671" lon="-0.03607">
        <ele>994.8</ele>
        <time>2024-08-15T07:09:23Z</time>
      </trkpt>
      <trkpt lat="42.9767" lon="-0.03604">
        <ele>995</ele>
        <time>2024-08-15T07:09:24Z</time>
      </trkpt>
      <trkpt lat="42.97668" lon="-0.03602">
        <ele>995.2</ele>
        <time>2024-08-15T07:09:25Z</time>
      </trkpt>
      <trkpt lat="42.97668" lon="-0.036">
        <ele>995.4</ele>
        <time>2024-08-15T07:09:26Z</time>
      </trkpt>
      <trkpt lat="42.97667" lon="-0.03597">
        <ele>995.4</ele>
        <time>2024-08-15T07:09:27Z</time>
      </trkpt>
      <trkpt lat="42.97667" lon="-0.03595">
        <ele>995.8</ele>
        <time>2024-08-15T07:09:28Z</time>
      </trkpt>
      <trkpt lat="42.97666" lon="-0.03593">
        <ele>996</ele>
        <time>2024-08-15T07:09:29Z</time>
      </trkpt>
      <trkpt lat="42.97666" lon="-0.0359">
        <ele>996.2</ele>
        <time>2024-08-15T07:09:30Z</time>
      </trkpt>
      <trkpt lat="42.97665" lon="-0.03588">
        <ele>996.4</ele>
        <time>2024-08-15T07:09:31Z</time>
      </trkpt>
      <trkpt lat="42.97664" lon="-0.03585">
        <ele>996.8</ele>
        <time>2024-08-15T07:09:32Z</time>
      </trkpt>
      <trkpt lat="42.97664" lon="-0.03582">
        <ele>996.8</ele>
        <time>2024-08-15T07:09:33Z</time>
      </trkpt>
      <trkpt lat="42.97663" lon="-0.0358">
        <ele>997</ele>
        <time>2024-08-15T07:09:34Z</time>
      </trkpt>
      <trkpt lat="42.97663" lon="-0.03577">
        <ele>997.2</ele>
        <time>2024-08-15T07:09:35Z</time>
      </trkpt>
      <trkpt lat="42.97662" lon="-0.03575">
        <ele>997.4</ele>
        <time>2024-08-15T07:09:36Z</time>
      </trkpt>
      <trkpt lat="42.97661" lon="-0.03572">
        <ele>997.6</ele>
        <time>2024-08-15T07:09:37Z</time>
      </trkpt>
      <trkpt lat="42.97661" lon="-0.0357">
        <ele>997.8</ele>
        <time>2024-08-15T07:09:38Z</time>
      </trkpt>
      <trkpt lat="42.97661" lon="-0.0357">
        <ele>997.8</ele>
        <time>2024-08-15T07:09:39Z</time>
      </trkpt>
      <trkpt lat="42.9766" lon="-0.03564">
        <ele>998.2</ele>
        <time>2024-08-15T07:09:40Z</time>
      </trkpt>
      <trkpt lat="42.97659" lon="-0.03562">
        <ele>998.2</ele>
        <time>2024-08-15T07:09:41Z</time>
      </trkpt>
      <trkpt lat="42.97658" lon="-0.03559">
        <ele>998.4</ele>
        <time>2024-08-15T07:09:42Z</time>
      </trkpt>
      <trkpt lat="42.97657" lon="-0.03557">
        <ele>998.6</ele>
        <time>2024-08-15T07:09:43Z</time>
      </trkpt>
      <trkpt lat="42.97657" lon="-0.03554">
        <ele>998.8</ele>
        <time>2024-08-15T07:09:44Z</time>
      </trkpt>
      <trkpt lat="42.97656" lon="-0.03551">
        <ele>998.8</ele>
        <time>2024-08-15T07:09:45Z</time>
      </trkpt>
      <trkpt lat="42.97655" lon="-0.03548">
        <ele>999</ele>
        <time>2024-08-15T07:09:46Z</time>
      </trkpt>
      <trkpt lat="42.97654" lon="-0.03545">
        <ele>999.2</ele>
        <time>2024-08-15T07:09:47Z</time>
      </trkpt>
      <trkpt lat="42.97653" lon="-0.03543">
        <ele>999.6</ele>
        <time>2024-08-15T07:09:48Z</time>
      </trkpt>
      <trkpt lat="42.97652" lon="-0.03541">
        <ele>999.8</ele>
        <time>2024-08-15T07:09:49Z</time>
      </trkpt>
      <trkpt lat="42.97651" lon="-0.03538">
        <ele>999.8</ele>
        <time>2024-08-15T07:09:50Z</time>
      </trkpt>
      <trkpt lat="42.97649" lon="-0.03536">
        <ele>1000</ele>
        <time>2024-08-15T07:09:51Z</time>
      </trkpt>
      <trkpt lat="42.97648" lon="-0.03534">
        <ele>1000.2</ele>
        <time>2024-08-15T07:09:52Z</time>
      </trkpt>
      <trkpt lat="42.97646" lon="-0.03532">
        <ele>1000.2</ele>
        <time>2024-08-15T07:09:53Z</time>
      </trkpt>
      <trkpt lat="42.97644" lon="-0.0353">
        <ele>1000.4</ele>
        <time>2024-08-15T07:09:54Z</time>
      </trkpt>
      <trkpt lat="42.97642" lon="-0.03528">
        <ele>1000.6</ele>
        <time>2024-08-15T07:09:55Z</time>
      </trkpt>
      <trkpt lat="42.9764" lon="-0.03526">
        <ele>1000.6</ele>
        <time>2024-08-15T07:09:56Z</time>
      </trkpt>
      <trkpt lat="42.97638" lon="-0.03525">
        <ele>1000.8</ele>
        <time>2024-08-15T07:09:57Z</time>
      </trkpt>
      <trkpt lat="42.97636" lon="-0.03523">
        <ele>1000.8</ele>
        <time>2024-08-15T07:09:58Z</time>
      </trkpt>
      <trkpt lat="42.97634" lon="-0.03522">
        <ele>1000.8</ele>
        <time>2024-08-15T07:09:59Z</time>
      </trkpt>
      <trkpt lat="42.97632" lon="-0.03521">
        <ele>1001</ele>
        <time>2024-08-15T07:10:00Z</time>
      </trkpt>
      <trkpt lat="42.9763" lon="-0.03522">
        <ele>1001</ele>
        <time>2024-08-15T07:10:01Z</time>
      </trkpt>
      <trkpt lat="42.97628" lon="-0.03522">
        <ele>1001</ele>
        <time>2024-08-15T07:10:02Z</time>
      </trkpt>
      <trkpt lat="42.97626" lon="-0.03522">
        <ele>1001.2</ele>
        <time>2024-08-15T07:10:03Z</time>
      </trkpt>
      <trkpt lat="42.97624" lon="-0.03523">
        <ele>1001.2</ele>
        <time>2024-08-15T07:10:04Z</time>
      </trkpt>
      <trkpt lat="42.97622" lon="-0.03523">
        <ele>1001.4</ele>
        <time>2024-08-15T07:10:05Z</time>
      </trkpt>
      <trkpt lat="42.9762" lon="-0.03523">
        <ele>1001.6</ele>
        <time>2024-08-15T07:10:06Z</time>
      </trkpt>
      <trkpt lat="42.97619" lon="-0.03524">
        <ele>1001.6</ele>
        <time>2024-08-15T07:10:07Z</time>
      </trkpt>
      <trkpt lat="42.97617" lon="-0.03525">
        <ele>1001.8</ele>
        <time>2024-08-15T07:10:08Z</time>
      </trkpt>
      <trkpt lat="42.97615" lon="-0.03525">
        <ele>1002</ele>
        <time>2024-08-15T07:10:09Z</time>
      </trkpt>
      <trkpt lat="42.97612" lon="-0.03525">
        <ele>1002</ele>
        <time>2024-08-15T07:10:10Z</time>
      </trkpt>
      <trkpt lat="42.9761" lon="-0.03524">
        <ele>1002.2</ele>
        <time>2024-08-15T07:10:11Z</time>
      </trkpt>
      <trkpt lat="42.97608" lon="-0.03523">
        <ele>1002.4</ele>
        <time>2024-08-15T07:10:12Z</time>
      </trkpt>
      <trkpt lat="42.97606" lon="-0.03522">
        <ele>1002.4</ele>
        <time>2024-08-15T07:10:13Z</time>
      </trkpt>
      <trkpt lat="42.97604" lon="-0.0352">
        <ele>1002.8</ele>
        <time>2024-08-15T07:10:14Z</time>
      </trkpt>
      <trkpt lat="42.97602" lon="-0.03518">
        <ele>1003</ele>
        <time>2024-08-15T07:10:15Z</time>
      </trkpt>
      <trkpt lat="42.976" lon="-0.03516">
        <ele>1003.2</ele>
        <time>2024-08-15T07:10:16Z</time>
      </trkpt>
      <trkpt lat="42.97598" lon="-0.03513">
        <ele>1003.2</ele>
        <time>2024-08-15T07:10:17Z</time>
      </trkpt>
      <trkpt lat="42.97597" lon="-0.03511">
        <ele>1003.6</ele>
        <time>2024-08-15T07:10:18Z</time>
      </trkpt>
      <trkpt lat="42.97597" lon="-0.03509">
        <ele>1003.8</ele>
        <time>2024-08-15T07:10:19Z</time>
      </trkpt>
      <trkpt lat="42.97596" lon="-0.03507">
        <ele>1004</ele>
        <time>2024-08-15T07:10:20Z</time>
      </trkpt>
      <trkpt lat="42.97596" lon="-0.03505">
        <ele>1004.2</ele>
        <time>2024-08-15T07:10:21Z</time>
      </trkpt>
      <trkpt lat="42.97594" lon="-0.03503">
        <ele>1004.4</ele>
        <time>2024-08-15T07:10:22Z</time>
      </trkpt>
      <trkpt lat="42.97593" lon="-0.03502">
        <ele>1004.6</ele>
        <time>2024-08-15T07:10:23Z</time>
      </trkpt>
      <trkpt lat="42.97591" lon="-0.035">
        <ele>1004.8</ele>
        <time>2024-08-15T07:10:24Z</time>
      </trkpt>
      <trkpt lat="42.9759" lon="-0.03499">
        <ele>1005.2</ele>
        <time>2024-08-15T07:10:25Z</time>
      </trkpt>
      <trkpt lat="42.97588" lon="-0.03497">
        <ele>1005.2</ele>
        <time>2024-08-15T07:10:26Z</time>
      </trkpt>
      <trkpt lat="42.97587" lon="-0.03495">
        <ele>1005.6</ele>
        <time>2024-08-15T07:10:27Z</time>
      </trkpt>
      <trkpt lat="42.97585" lon="-0.03493">
        <ele>1005.8</ele>
        <time>2024-08-15T07:10:28Z</time>
      </trkpt>
      <trkpt lat="42.97584" lon="-0.03492">
        <ele>1006.2</ele>
        <time>2024-08-15T07:10:29Z</time>
      </trkpt>
      <trkpt lat="42.97582" lon="-0.0349">
        <ele>1006.4</ele>
        <time>2024-08-15T07:10:30Z</time>
      </trkpt>
      <trkpt lat="42.97581" lon="-0.03489">
        <ele>1006.4</ele>
        <time>2024-08-15T07:10:31Z</time>
      </trkpt>
      <trkpt lat="42.97579" lon="-0.03488">
        <ele>1006.8</ele>
        <time>2024-08-15T07:10:32Z</time>
      </trkpt>
      <trkpt lat="42.97577" lon="-0.03486">
        <ele>1006.8</ele>
        <time>2024-08-15T07:10:33Z</time>
      </trkpt>
      <trkpt lat="42.97575" lon="-0.03486">
        <ele>1007.2</ele>
        <time>2024-08-15T07:10:34Z</time>
      </trkpt>
      <trkpt lat="42.97573" lon="-0.03484">
        <ele>1007.4</ele>
        <time>2024-08-15T07:10:35Z</time>
      </trkpt>
      <trkpt lat="42.97571" lon="-0.03483">
        <ele>1007.6</ele>
        <time>2024-08-15T07:10:36Z</time>
      </trkpt>
      <trkpt lat="42.9757" lon="-0.03482">
        <ele>1007.8</ele>
        <time>2024-08-15T07:10:37Z</time>
      </trkpt>
      <trkpt lat="42.97567" lon="-0.03481">
        <ele>1008.2</ele>
        <time>2024-08-15T07:10:38Z</time>
      </trkpt>
      <trkpt lat="42.97565" lon="-0.03481">
        <ele>1008.4</ele>
        <time>2024-08-15T07:10:39Z</time>
      </trkpt>
      <trkpt lat="42.97563" lon="-0.0348">
        <ele>1008.4</ele>
        <time>2024-08-15T07:10:40Z</time>
      </trkpt>
      <trkpt lat="42.97562" lon="-0.03479">
        <ele>1008.6</ele>
        <time>2024-08-15T07:10:41Z</time>
      </trkpt>
      <trkpt lat="42.9756" lon="-0.03479">
        <ele>1008.6</ele>
        <time>2024-08-15T07:10:42Z</time>
      </trkpt>
      <trkpt lat="42.97558" lon="-0.03478">
        <ele>1008.8</ele>
        <time>2024-08-15T07:10:43Z</time>
      </trkpt>
      <trkpt lat="42.97556" lon="-0.03478">
        <ele>1009</ele>
        <time>2024-08-15T07:10:44Z</time>
      </trkpt>
      <trkpt lat="42.97554" lon="-0.03478">
        <ele>1009.2</ele>
        <time>2024-08-15T07:10:45Z</time>
      </trkpt>
      <trkpt lat="42.97552" lon="-0.03477">
        <ele>1009.4</ele>
        <time>2024-08-15T07:10:46Z</time>
      </trkpt>
      <trkpt lat="42.97549" lon="-0.03477">
        <ele>1009.6</ele>
        <time>2024-08-15T07:10:47Z</time>
      </trkpt>
      <trkpt lat="42.97547" lon="-0.03477">
        <ele>1009.8</ele>
        <time>2024-08-15T07:10:48Z</time>
      </trkpt>
      <trkpt lat="42.97543" lon="-0.03477">
        <ele>1009.8</ele>
        <time>2024-08-15T07:10:49Z</time>
      </trkpt>
      <trkpt lat="42.9754" lon="-0.03476">
        <ele>1010.2</ele>
        <time>2024-08-15T07:10:50Z</time>
      </trkpt>
      <trkpt lat="42.97537" lon="-0.03476">
        <ele>1010.2</ele>
        <time>2024-08-15T07:10:51Z</time>
      </trkpt>
      <trkpt lat="42.97534" lon="-0.03476">
        <ele>1010.2</ele>
        <time>2024-08-15T07:10:52Z</time>
      </trkpt>
      <trkpt lat="42.97532" lon="-0.03477">
        <ele>1010.4</ele>
        <time>2024-08-15T07:10:53Z</time>
      </trkpt>
      <trkpt lat="42.97529" lon="-0.03477">
        <ele>1010.4</ele>
        <time>2024-08-15T07:10:54Z</time>
      </trkpt>
      <trkpt lat="42.97526" lon="-0.03477">
        <ele>1010.8</ele>
        <time>2024-08-15T07:10:55Z</time>
      </trkpt>
      <trkpt lat="42.97523" lon="-0.03478">
        <ele>1010.8</ele>
        <time>2024-08-15T07:10:56Z</time>
      </trkpt>
      <trkpt lat="42.9752" lon="-0.03478">
        <ele>1011.2</ele>
        <time>2024-08-15T07:10:57Z</time>
      </trkpt>
      <trkpt lat="42.97517" lon="-0.03479">
        <ele>1011.2</ele>
        <time>2024-08-15T07:10:58Z</time>
      </trkpt>
      <trkpt lat="42.97514" lon="-0.0348">
        <ele>1011.4</ele>
        <time>2024-08-15T07:10:59Z</time>
      </trkpt>
      <trkpt lat="42.97511" lon="-0.03481">
        <ele>1011.4</ele>
        <time>2024-08-15T07:11:00Z</time>
      </trkpt>
      <trkpt lat="42.97508" lon="-0.03482">
        <ele>1011.6</ele>
        <time>2024-08-15T07:11:01Z</time>
      </trkpt>
      <trkpt lat="42.97505" lon="-0.03483">
        <ele>1011.8</ele>
        <time>2024-08-15T07:11:02Z</time>
      </trkpt>
      <trkpt lat="42.97503" lon="-0.03485">
        <ele>1011.8</ele>
        <time>2024-08-15T07:11:03Z</time>
      </trkpt>
      <trkpt lat="42.975" lon="-0.03487">
        <ele>1012</ele>
        <time>2024-08-15T07:11:04Z</time>
      </trkpt>
      <trkpt lat="42.97497" lon="-0.03489">
        <ele>1012</ele>
        <time>2024-08-15T07:11:05Z</time>
      </trkpt>
      <trkpt lat="42.97494" lon="-0.03491">
        <ele>1012.2</ele>
        <time>2024-08-15T07:11:06Z</time>
      </trkpt>
      <trkpt lat="42.97491" lon="-0.03493">
        <ele>1012.2</ele>
        <time>2024-08-15T07:11:07Z</time>
      </trkpt>
      <trkpt lat="42.97487" lon="-0.03495">
        <ele>1012.2</ele>
        <time>2024-08-15T07:11:08Z</time>
      </trkpt>
      <trkpt lat="42.97485" lon="-0.03497">
        <ele>1012.4</ele>
        <time>2024-08-15T07:11:09Z</time>
      </trkpt>
      <trkpt lat="42.97482" lon="-0.03499">
        <ele>1012.4</ele>
        <time>2024-08-15T07:11:10Z</time>
      </trkpt>
      <trkpt lat="42.97478" lon="-0.03502">
        <ele>1012.4</ele>
        <time>2024-08-15T07:11:11Z</time>
      </trkpt>
      <trkpt lat="42.97475" lon="-0.03505">
        <ele>1012.4</ele>
        <time>2024-08-15T07:11:12Z</time>
      </trkpt>
      <trkpt lat="42.97473" lon="-0.03507">
        <ele>1012.6</ele>
        <time>2024-08-15T07:11:13Z</time>
      </trkpt>
      <trkpt lat="42.9747" lon="-0.03509">
        <ele>1012.6</ele>
        <time>2024-08-15T07:11:14Z</time>
      </trkpt>
      <trkpt lat="42.97468" lon="-0.03512">
        <ele>1012.8</ele>
        <time>2024-08-15T07:11:15Z</time>
      </trkpt>
      <trkpt lat="42.97465" lon="-0.03515">
        <ele>1012.8</ele>
        <time>2024-08-15T07:11:16Z</time>
      </trkpt>
      <trkpt lat="42.97462" lon="-0.03519">
        <ele>1012.8</ele>
        <time>2024-08-15T07:11:17Z</time>
      </trkpt>
      <trkpt lat="42.9746" lon="-0.03523">
        <ele>1013</ele>
        <time>2024-08-15T07:11:18Z</time>
      </trkpt>
      <trkpt lat="42.97458" lon="-0.03526">
        <ele>1013</ele>
        <time>2024-08-15T07:11:19Z</time>
      </trkpt>
      <trkpt lat="42.97456" lon="-0.0353">
        <ele>1013</ele>
        <time>2024-08-15T07:11:20Z</time>
      </trkpt>
      <trkpt lat="42.97454" lon="-0.03534">
        <ele>1013</ele>
        <time>2024-08-15T07:11:21Z</time>
      </trkpt>
      <trkpt lat="42.97453" lon="-0.03538">
        <ele>1013.2</ele>
        <time>2024-08-15T07:11:22Z</time>
      </trkpt>
      <trkpt lat="42.97452" lon="-0.03541">
        <ele>1013.2</ele>
        <time>2024-08-15T07:11:23Z</time>
      </trkpt>
      <trkpt lat="42.97452" lon="-0.03544">
        <ele>1013.2</ele>
        <time>2024-08-15T07:11:24Z</time>
      </trkpt>
      <trkpt lat="42.9745" lon="-0.03555">
        <ele>1013.4</ele>
        <time>2024-08-15T07:11:27Z</time>
      </trkpt>
      <trkpt lat="42.97447" lon="-0.03561">
        <ele>1013.4</ele>
        <time>2024-08-15T07:11:29Z</time>
      </trkpt>
      <trkpt lat="42.97442" lon="-0.03569">
        <ele>1013.6</ele>
        <time>2024-08-15T07:11:31Z</time>
      </trkpt>
      <trkpt lat="42.9744" lon="-0.03572">
        <ele>1013.6</ele>
        <time>2024-08-15T07:11:32Z</time>
      </trkpt>
      <trkpt lat="42.97438" lon="-0.03575">
        <ele>1013.8</ele>
        <time>2024-08-15T07:11:33Z</time>
      </trkpt>
      <trkpt lat="42.97432" lon="-0.03584">
        <ele>1014</ele>
        <time>2024-08-15T07:11:36Z</time>
      </trkpt>
      <trkpt lat="42.9743" lon="-0.03587">
        <ele>1014</ele>
        <time>2024-08-15T07:11:37Z</time>
      </trkpt>
      <trkpt lat="42.97424" lon="-0.03594">
        <ele>1014.2</ele>
        <time>2024-08-15T07:11:39Z</time>
      </trkpt>
      <trkpt lat="42.97422" lon="-0.03597">
        <ele>1014.2</ele>
        <time>2024-08-15T07:11:40Z</time>
      </trkpt>
      <trkpt lat="42.97418" lon="-0.03601">
        <ele>1014.2</ele>
        <time>2024-08-15T07:11:41Z</time>
      </trkpt>
      <trkpt lat="42.97415" lon="-0.03605">
        <ele>1014.2</ele>
        <time>2024-08-15T07:11:42Z</time>
      </trkpt>
      <trkpt lat="42.97412" lon="-0.0361">
        <ele>1014.4</ele>
        <time>2024-08-15T07:11:44Z</time>
      </trkpt>
      <trkpt lat="42.97411" lon="-0.03613">
        <ele>1014.4</ele>
        <time>2024-08-15T07:11:45Z</time>
      </trkpt>
      <trkpt lat="42.9741" lon="-0.03617">
        <ele>1014.6</ele>
        <time>2024-08-15T07:11:46Z</time>
      </trkpt>
      <trkpt lat="42.97408" lon="-0.03622">
        <ele>1014.6</ele>
        <time>2024-08-15T07:11:47Z</time>
      </trkpt>
      <trkpt lat="42.97406" lon="-0.03626">
        <ele>1014.6</ele>
        <time>2024-08-15T07:11:48Z</time>
      </trkpt>
      <trkpt lat="42.97403" lon="-0.03629">
        <ele>1014.8</ele>
        <time>2024-08-15T07:11:49Z</time>
      </trkpt>
      <trkpt lat="42.97402" lon="-0.03632">
        <ele>1014.8</ele>
        <time>2024-08-15T07:11:50Z</time>
      </trkpt>
      <trkpt lat="42.974" lon="-0.03635">
        <ele>1014.8</ele>
        <time>2024-08-15T07:11:51Z</time>
      </trkpt>
      <trkpt lat="42.97398" lon="-0.0364">
        <ele>1015</ele>
        <time>2024-08-15T07:11:52Z</time>
      </trkpt>
      <trkpt lat="42.97396" lon="-0.03643">
        <ele>1015.2</ele>
        <time>2024-08-15T07:11:53Z</time>
      </trkpt>
      <trkpt lat="42.97394" lon="-0.03647">
        <ele>1015.4</ele>
        <time>2024-08-15T07:11:54Z</time>
      </trkpt>
      <trkpt lat="42.97393" lon="-0.0365">
        <ele>1015.4</ele>
        <time>2024-08-15T07:11:55Z</time>
      </trkpt>
      <trkpt lat="42.97392" lon="-0.03653">
        <ele>1015.6</ele>
        <time>2024-08-15T07:11:56Z</time>
      </trkpt>
      <trkpt lat="42.9739" lon="-0.03657">
        <ele>1015.8</ele>
        <time>2024-08-15T07:11:57Z</time>
      </trkpt>
      <trkpt lat="42.97388" lon="-0.0366">
        <ele>1016</ele>
        <time>2024-08-15T07:11:58Z</time>
      </trkpt>
      <trkpt lat="42.97385" lon="-0.03664">
        <ele>1016.2</ele>
        <time>2024-08-15T07:11:59Z</time>
      </trkpt>
      <trkpt lat="42.97383" lon="-0.03667">
        <ele>1016.4</ele>
        <time>2024-08-15T07:12:00Z</time>
      </trkpt>
      <trkpt lat="42.97378" lon="-0.0367">
        <ele>1016.6</ele>
        <time>2024-08-15T07:12:01Z</time>
      </trkpt>
      <trkpt lat="42.97375" lon="-0.03672">
        <ele>1016.6</ele>
        <time>2024-08-15T07:12:02Z</time>
      </trkpt>
      <trkpt lat="42.97373" lon="-0.03673">
        <ele>1017</ele>
        <time>2024-08-15T07:12:03Z</time>
      </trkpt>
      <trkpt lat="42.97369" lon="-0.03674">
        <ele>1017.4</ele>
        <time>2024-08-15T07:12:04Z</time>
      </trkpt>
      <trkpt lat="42.97366" lon="-0.03674">
        <ele>1017.8</ele>
        <time>2024-08-15T07:12:05Z</time>
      </trkpt>
      <trkpt lat="42.97363" lon="-0.03675">
        <ele>1018</ele>
        <time>2024-08-15T07:12:06Z</time>
      </trkpt>
      <trkpt lat="42.9736" lon="-0.03676">
        <ele>1018.2</ele>
        <time>2024-08-15T07:12:07Z</time>
      </trkpt>
      <trkpt lat="42.97358" lon="-0.03676">
        <ele>1018.4</ele>
        <time>2024-08-15T07:12:08Z</time>
      </trkpt>
      <trkpt lat="42.97354" lon="-0.03677">
        <ele>1018.6</ele>
        <time>2024-08-15T07:12:09Z</time>
      </trkpt>
      <trkpt lat="42.97351" lon="-0.03677">
        <ele>1019</ele>
        <time>2024-08-15T07:12:10Z</time>
      </trkpt>
      <trkpt lat="42.97349" lon="-0.03677">
        <ele>1019.2</ele>
        <time>2024-08-15T07:12:11Z</time>
      </trkpt>
      <trkpt lat="42.97347" lon="-0.03677">
        <ele>1019.4</ele>
        <time>2024-08-15T07:12:12Z</time>
      </trkpt>
      <trkpt lat="42.97345" lon="-0.03677">
        <ele>1019.6</ele>
        <time>2024-08-15T07:12:13Z</time>
      </trkpt>
      <trkpt lat="42.97343" lon="-0.03676">
        <ele>1019.6</ele>
        <time>2024-08-15T07:12:14Z</time>
      </trkpt>
      <trkpt lat="42.97341" lon="-0.03675">
        <ele>1020</ele>
        <time>2024-08-15T07:12:15Z</time>
      </trkpt>
      <trkpt lat="42.97339" lon="-0.03674">
        <ele>1020</ele>
        <time>2024-08-15T07:12:16Z</time>
      </trkpt>
      <trkpt lat="42.97337" lon="-0.03674">
        <ele>1020.4</ele>
        <time>2024-08-15T07:12:17Z</time>
      </trkpt>
      <trkpt lat="42.97335" lon="-0.03672">
        <ele>1020.6</ele>
        <time>2024-08-15T07:12:18Z</time>
      </trkpt>
      <trkpt lat="42.97333" lon="-0.03671">
        <ele>1020.8</ele>
        <time>2024-08-15T07:12:19Z</time>
      </trkpt>
      <trkpt lat="42.97331" lon="-0.0367">
        <ele>1021</ele>
        <time>2024-08-15T07:12:20Z</time>
      </trkpt>
      <trkpt lat="42.9733" lon="-0.03668">
        <ele>1021.2</ele>
        <time>2024-08-15T07:12:21Z</time>
      </trkpt>
      <trkpt lat="42.97328" lon="-0.03667">
        <ele>1021.6</ele>
        <time>2024-08-15T07:12:22Z</time>
      </trkpt>
      <trkpt lat="42.97326" lon="-0.03665">
        <ele>1021.8</ele>
        <time>2024-08-15T07:12:23Z</time>
      </trkpt>
      <trkpt lat="42.97325" lon="-0.03663">
        <ele>1022</ele>
        <time>2024-08-15T07:12:24Z</time>
      </trkpt>
      <trkpt lat="42.97323" lon="-0.03661">
        <ele>1022</ele>
        <time>2024-08-15T07:12:25Z</time>
      </trkpt>
      <trkpt lat="42.97322" lon="-0.03659">
        <ele>1022.2</ele>
        <time>2024-08-15T07:12:26Z</time>
      </trkpt>
      <trkpt lat="42.9732" lon="-0.03657">
        <ele>1022.4</ele>
        <time>2024-08-15T07:12:27Z</time>
      </trkpt>
      <trkpt lat="42.97319" lon="-0.03655">
        <ele>1022.8</ele>
        <time>2024-08-15T07:12:28Z</time>
      </trkpt>
      <trkpt lat="42.97318" lon="-0.03653">
        <ele>1023</ele>
        <time>2024-08-15T07:12:29Z</time>
      </trkpt>
      <trkpt lat="42.97317" lon="-0.03651">
        <ele>1023.2</ele>
        <time>2024-08-15T07:12:30Z</time>
      </trkpt>
      <trkpt lat="42.97316" lon="-0.03649">
        <ele>1023.4</ele>
        <time>2024-08-15T07:12:31Z</time>
      </trkpt>
      <trkpt lat="42.97315" lon="-0.03647">
        <ele>1023.6</ele>
        <time>2024-08-15T07:12:32Z</time>
      </trkpt>
      <trkpt lat="42.97314" lon="-0.03644">
        <ele>1023.8</ele>
        <time>2024-08-15T07:12:33Z</time>
      </trkpt>
      <trkpt lat="42.97313" lon="-0.03641">
        <ele>1024</ele>
        <time>2024-08-15T07:12:34Z</time>
      </trkpt>
      <trkpt lat="42.97311" lon="-0.03639">
        <ele>1024.2</ele>
        <time>2024-08-15T07:12:35Z</time>
      </trkpt>
      <trkpt lat="42.9731" lon="-0.03636">
        <ele>1024.2</ele>
        <time>2024-08-15T07:12:36Z</time>
      </trkpt>
      <trkpt lat="42.97309" lon="-0.03635">
        <ele>1024.6</ele>
        <time>2024-08-15T07:12:37Z</time>
      </trkpt>
      <trkpt lat="42.97308" lon="-0.03632">
        <ele>1024.8</ele>
        <time>2024-08-15T07:12:38Z</time>
      </trkpt>
      <trkpt lat="42.97307" lon="-0.0363">
        <ele>1025</ele>
        <time>2024-08-15T07:12:39Z</time>
      </trkpt>
      <trkpt lat="42.97306" lon="-0.03628">
        <ele>1025.4</ele>
        <time>2024-08-15T07:12:40Z</time>
      </trkpt>
      <trkpt lat="42.97305" lon="-0.03626">
        <ele>1025.8</ele>
        <time>2024-08-15T07:12:41Z</time>
      </trkpt>
      <trkpt lat="42.97304" lon="-0.03623">
        <ele>1026.2</ele>
        <time>2024-08-15T07:12:42Z</time>
      </trkpt>
      <trkpt lat="42.97302" lon="-0.0362">
        <ele>1026.2</ele>
        <time>2024-08-15T07:12:43Z</time>
      </trkpt>
      <trkpt lat="42.97301" lon="-0.03618">
        <ele>1026.6</ele>
        <time>2024-08-15T07:12:44Z</time>
      </trkpt>
      <trkpt lat="42.97299" lon="-0.03615">
        <ele>1027</ele>
        <time>2024-08-15T07:12:45Z</time>
      </trkpt>
      <trkpt lat="42.97298" lon="-0.03613">
        <ele>1027</ele>
        <time>2024-08-15T07:12:46Z</time>
      </trkpt>
      <trkpt lat="42.97297" lon="-0.03611">
        <ele>1027.2</ele>
        <time>2024-08-15T07:12:47Z</time>
      </trkpt>
      <trkpt lat="42.97295" lon="-0.03608">
        <ele>1027.4</ele>
        <time>2024-08-15T07:12:48Z</time>
      </trkpt>
      <trkpt lat="42.97294" lon="-0.03606">
        <ele>1027.8</ele>
        <time>2024-08-15T07:12:49Z</time>
      </trkpt>
      <trkpt lat="42.97293" lon="-0.03604">
        <ele>1028</ele>
        <time>2024-08-15T07:12:50Z</time>
      </trkpt>
      <trkpt lat="42.97292" lon="-0.03602">
        <ele>1028.4</ele>
        <time>2024-08-15T07:12:51Z</time>
      </trkpt>
      <trkpt lat="42.97291" lon="-0.03599">
        <ele>1028.6</ele>
        <time>2024-08-15T07:12:52Z</time>
      </trkpt>
      <trkpt lat="42.9729" lon="-0.03597">
        <ele>1028.6</ele>
        <time>2024-08-15T07:12:53Z</time>
      </trkpt>
      <trkpt lat="42.97288" lon="-0.03595">
        <ele>1028.8</ele>
        <time>2024-08-15T07:12:54Z</time>
      </trkpt>
      <trkpt lat="42.97287" lon="-0.03593">
        <ele>1029</ele>
        <time>2024-08-15T07:12:55Z</time>
      </trkpt>
      <trkpt lat="42.97286" lon="-0.0359">
        <ele>1029.2</ele>
        <time>2024-08-15T07:12:56Z</time>
      </trkpt>
      <trkpt lat="42.97285" lon="-0.03588">
        <ele>1029.4</ele>
        <time>2024-08-15T07:12:57Z</time>
      </trkpt>
      <trkpt lat="42.97283" lon="-0.03586">
        <ele>1029.6</ele>
        <time>2024-08-15T07:12:58Z</time>
      </trkpt>
      <trkpt lat="42.97282" lon="-0.03583">
        <ele>1029.8</ele>
        <time>2024-08-15T07:12:59Z</time>
      </trkpt>
      <trkpt lat="42.97281" lon="-0.03581">
        <ele>1030</ele>
        <time>2024-08-15T07:13:00Z</time>
      </trkpt>
      <trkpt lat="42.9728" lon="-0.03579">
        <ele>1030.2</ele>
        <time>2024-08-15T07:13:01Z</time>
      </trkpt>
      <trkpt lat="42.97279" lon="-0.03576">
        <ele>1030.2</ele>
        <time>2024-08-15T07:13:02Z</time>
      </trkpt>
      <trkpt lat="42.97278" lon="-0.03573">
        <ele>1030.4</ele>
        <time>2024-08-15T07:13:03Z</time>
      </trkpt>
      <trkpt lat="42.97277" lon="-0.03571">
        <ele>1030.6</ele>
        <time>2024-08-15T07:13:04Z</time>
      </trkpt>
      <trkpt lat="42.97276" lon="-0.03569">
        <ele>1030.8</ele>
        <time>2024-08-15T07:13:05Z</time>
      </trkpt>
      <trkpt lat="42.97275" lon="-0.03567">
        <ele>1031</ele>
        <time>2024-08-15T07:13:06Z</time>
      </trkpt>
      <trkpt lat="42.97274" lon="-0.03564">
        <ele>1031.2</ele>
        <time>2024-08-15T07:13:07Z</time>
      </trkpt>
      <trkpt lat="42.97273" lon="-0.03561">
        <ele>1031.4</ele>
        <time>2024-08-15T07:13:08Z</time>
      </trkpt>
      <trkpt lat="42.97272" lon="-0.03559">
        <ele>1031.6</ele>
        <time>2024-08-15T07:13:09Z</time>
      </trkpt>
      <trkpt lat="42.97271" lon="-0.03557">
        <ele>1031.8</ele>
        <time>2024-08-15T07:13:10Z</time>
      </trkpt>
      <trkpt lat="42.9727" lon="-0.03555">
        <ele>1032</ele>
        <time>2024-08-15T07:13:11Z</time>
      </trkpt>
      <trkpt lat="42.97269" lon="-0.03552">
        <ele>1032.2</ele>
        <time>2024-08-15T07:13:12Z</time>
      </trkpt>
      <trkpt lat="42.97268" lon="-0.0355">
        <ele>1032.2</ele>
        <time>2024-08-15T07:13:13Z</time>
      </trkpt>
      <trkpt lat="42.97267" lon="-0.03548">
        <ele>1032.4</ele>
        <time>2024-08-15T07:13:14Z</time>
      </trkpt>
      <trkpt lat="42.97267" lon="-0.03545">
        <ele>1032.4</ele>
        <time>2024-08-15T07:13:15Z</time>
      </trkpt>
      <trkpt lat="42.97266" lon="-0.03543">
        <ele>1032.6</ele>
        <time>2024-08-15T07:13:16Z</time>
      </trkpt>
      <trkpt lat="42.97266" lon="-0.0354">
        <ele>1032.8</ele>
        <time>2024-08-15T07:13:17Z</time>
      </trkpt>
      <trkpt lat="42.97265" lon="-0.03538">
        <ele>1032.8</ele>
        <time>2024-08-15T07:13:18Z</time>
      </trkpt>
      <trkpt lat="42.97264" lon="-0.03535">
        <ele>1033</ele>
        <time>2024-08-15T07:13:19Z</time>
      </trkpt>
      <trkpt lat="42.97262" lon="-0.03533">
        <ele>1033.2</ele>
        <time>2024-08-15T07:13:20Z</time>
      </trkpt>
      <trkpt lat="42.97262" lon="-0.0353">
        <ele>1033.6</ele>
        <time>2024-08-15T07:13:21Z</time>
      </trkpt>
      <trkpt lat="42.97262" lon="-0.03527">
        <ele>1033.6</ele>
        <time>2024-08-15T07:13:22Z</time>
      </trkpt>
      <trkpt lat="42.97261" lon="-0.03524">
        <ele>1033.8</ele>
        <time>2024-08-15T07:13:23Z</time>
      </trkpt>
      <trkpt lat="42.9726" lon="-0.03521">
        <ele>1034</ele>
        <time>2024-08-15T07:13:24Z</time>
      </trkpt>
      <trkpt lat="42.97259" lon="-0.03517">
        <ele>1034</ele>
        <time>2024-08-15T07:13:25Z</time>
      </trkpt>
      <trkpt lat="42.97259" lon="-0.03514">
        <ele>1034.4</ele>
        <time>2024-08-15T07:13:26Z</time>
      </trkpt>
      <trkpt lat="42.9726" lon="-0.03511">
        <ele>1034.4</ele>
        <time>2024-08-15T07:13:27Z</time>
      </trkpt>
      <trkpt lat="42.97259" lon="-0.03509">
        <ele>1034.6</ele>
        <time>2024-08-15T07:13:28Z</time>
      </trkpt>
      <trkpt lat="42.97258" lon="-0.03506">
        <ele>1034.6</ele>
        <time>2024-08-15T07:13:29Z</time>
      </trkpt>
      <trkpt lat="42.97258" lon="-0.03504">
        <ele>1035</ele>
        <time>2024-08-15T07:13:30Z</time>
      </trkpt>
      <trkpt lat="42.97258" lon="-0.03502">
        <ele>1035</ele>
        <time>2024-08-15T07:13:31Z</time>
      </trkpt>
      <trkpt lat="42.97259" lon="-0.03499">
        <ele>1035.2</ele>
        <time>2024-08-15T07:13:32Z</time>
      </trkpt>
      <trkpt lat="42.97259" lon="-0.03494">
        <ele>1035.2</ele>
        <time>2024-08-15T07:13:33Z</time>
      </trkpt>
      <trkpt lat="42.97259" lon="-0.03492">
        <ele>1035.4</ele>
        <time>2024-08-15T07:13:34Z</time>
      </trkpt>
      <trkpt lat="42.97258" lon="-0.03489">
        <ele>1035.6</ele>
        <time>2024-08-15T07:13:35Z</time>
      </trkpt>
      <trkpt lat="42.97258" lon="-0.03486">
        <ele>1035.6</ele>
        <time>2024-08-15T07:13:36Z</time>
      </trkpt>
      <trkpt lat="42.97257" lon="-0.03484">
        <ele>1035.8</ele>
        <time>2024-08-15T07:13:37Z</time>
      </trkpt>
      <trkpt lat="42.97255" lon="-0.03482">
        <ele>1035.8</ele>
        <time>2024-08-15T07:13:38Z</time>
      </trkpt>
      <trkpt lat="42.97254" lon="-0.0348">
        <ele>1036</ele>
        <time>2024-08-15T07:13:39Z</time>
      </trkpt>
      <trkpt lat="42.97253" lon="-0.03478">
        <ele>1036</ele>
        <time>2024-08-15T07:13:40Z</time>
      </trkpt>
      <trkpt lat="42.97252" lon="-0.03475">
        <ele>1036.2</ele>
        <time>2024-08-15T07:13:41Z</time>
      </trkpt>
      <trkpt lat="42.97251" lon="-0.03473">
        <ele>1036.2</ele>
        <time>2024-08-15T07:13:42Z</time>
      </trkpt>
      <trkpt lat="42.9725" lon="-0.03471">
        <ele>1036.4</ele>
        <time>2024-08-15T07:13:43Z</time>
      </trkpt>
      <trkpt lat="42.97249" lon="-0.03469">
        <ele>1036.6</ele>
        <time>2024-08-15T07:13:44Z</time>
      </trkpt>
      <trkpt lat="42.97249" lon="-0.03466">
        <ele>1036.6</ele>
        <time>2024-08-15T07:13:45Z</time>
      </trkpt>
      <trkpt lat="42.97248" lon="-0.03464">
        <ele>1036.8</ele>
        <time>2024-08-15T07:13:46Z</time>
      </trkpt>
      <trkpt lat="42.97247" lon="-0.03462">
        <ele>1036.8</ele>
        <time>2024-08-15T07:13:47Z</time>
      </trkpt>
      <trkpt lat="42.97246" lon="-0.03459">
        <ele>1037</ele>
        <time>2024-08-15T07:13:48Z</time>
      </trkpt>
      <trkpt lat="42.97245" lon="-0.03456">
        <ele>1037.2</ele>
        <time>2024-08-15T07:13:49Z</time>
      </trkpt>
      <trkpt lat="42.97244" lon="-0.03453">
        <ele>1037.4</ele>
        <time>2024-08-15T07:13:50Z</time>
      </trkpt>
      <trkpt lat="42.97244" lon="-0.03451">
        <ele>1037.6</ele>
        <time>2024-08-15T07:13:51Z</time>
      </trkpt>
      <trkpt lat="42.97243" lon="-0.03449">
        <ele>1037.6</ele>
        <time>2024-08-15T07:13:52Z</time>
      </trkpt>
      <trkpt lat="42.97243" lon="-0.03446">
        <ele>1037.8</ele>
        <time>2024-08-15T07:13:53Z</time>
      </trkpt>
      <trkpt lat="42.97243" lon="-0.03444">
        <ele>1038</ele>
        <time>2024-08-15T07:13:54Z</time>
      </trkpt>
      <trkpt lat="42.97243" lon="-0.03442">
        <ele>1038.2</ele>
        <time>2024-08-15T07:13:55Z</time>
      </trkpt>
      <trkpt lat="42.97243" lon="-0.0344">
        <ele>1038.4</ele>
        <time>2024-08-15T07:13:56Z</time>
      </trkpt>
      <trkpt lat="42.97242" lon="-0.03437">
        <ele>1038.6</ele>
        <time>2024-08-15T07:13:57Z</time>
      </trkpt>
      <trkpt lat="42.97243" lon="-0.03436">
        <ele>1038.8</ele>
        <time>2024-08-15T07:13:58Z</time>
      </trkpt>
      <trkpt lat="42.97243" lon="-0.03433">
        <ele>1039</ele>
        <time>2024-08-15T07:13:59Z</time>
      </trkpt>
      <trkpt lat="42.97242" lon="-0.0343">
        <ele>1039.2</ele>
        <time>2024-08-15T07:14:00Z</time>
      </trkpt>
      <trkpt lat="42.97242" lon="-0.03428">
        <ele>1039.4</ele>
        <time>2024-08-15T07:14:01Z</time>
      </trkpt>
      <trkpt lat="42.97241" lon="-0.03426">
        <ele>1039.8</ele>
        <time>2024-08-15T07:14:02Z</time>
      </trkpt>
      <trkpt lat="42.97242" lon="-0.03423">
        <ele>1040</ele>
        <time>2024-08-15T07:14:03Z</time>
      </trkpt>
      <trkpt lat="42.97242" lon="-0.03421">
        <ele>1040.2</ele>
        <time>2024-08-15T07:14:04Z</time>
      </trkpt>
      <trkpt lat="42.97242" lon="-0.03419">
        <ele>1040.4</ele>
        <time>2024-08-15T07:14:05Z</time>
      </trkpt>
      <trkpt lat="42.97242" lon="-0.03416">
        <ele>1040.4</ele>
        <time>2024-08-15T07:14:06Z</time>
      </trkpt>
      <trkpt lat="42.97242" lon="-0.03415">
        <ele>1040.8</ele>
        <time>2024-08-15T07:14:07Z</time>
      </trkpt>
      <trkpt lat="42.97242" lon="-0.03413">
        <ele>1041</ele>
        <time>2024-08-15T07:14:08Z</time>
      </trkpt>
      <trkpt lat="42.97242" lon="-0.0341">
        <ele>1041.2</ele>
        <time>2024-08-15T07:14:09Z</time>
      </trkpt>
      <trkpt lat="42.97242" lon="-0.03408">
        <ele>1041.2</ele>
        <time>2024-08-15T07:14:10Z</time>
      </trkpt>
      <trkpt lat="42.97242" lon="-0.03406">
        <ele>1041.4</ele>
        <time>2024-08-15T07:14:11Z</time>
      </trkpt>
      <trkpt lat="42.97242" lon="-0.03404">
        <ele>1041.6</ele>
        <time>2024-08-15T07:14:12Z</time>
      </trkpt>
      <trkpt lat="42.97242" lon="-0.03402">
        <ele>1041.8</ele>
        <time>2024-08-15T07:14:13Z</time>
      </trkpt>
      <trkpt lat="42.97243" lon="-0.03399">
        <ele>1042.2</ele>
        <time>2024-08-15T07:14:14Z</time>
      </trkpt>
      <trkpt lat="42.97244" lon="-0.03397">
        <ele>1042.4</ele>
        <time>2024-08-15T07:14:15Z</time>
      </trkpt>
      <trkpt lat="42.97244" lon="-0.03395">
        <ele>1042.8</ele>
        <time>2024-08-15T07:14:16Z</time>
      </trkpt>
      <trkpt lat="42.97245" lon="-0.03393">
        <ele>1043</ele>
        <time>2024-08-15T07:14:17Z</time>
      </trkpt>
      <trkpt lat="42.97245" lon="-0.03391">
        <ele>1043.4</ele>
        <time>2024-08-15T07:14:18Z</time>
      </trkpt>
      <trkpt lat="42.97246" lon="-0.03389">
        <ele>1043.6</ele>
        <time>2024-08-15T07:14:19Z</time>
      </trkpt>
      <trkpt lat="42.97247" lon="-0.03387">
        <ele>1044</ele>
        <time>2024-08-15T07:14:20Z</time>
      </trkpt>
      <trkpt lat="42.97248" lon="-0.03386">
        <ele>1044.2</ele>
        <time>2024-08-15T07:14:21Z</time>
      </trkpt>
      <trkpt lat="42.97248" lon="-0.03384">
        <ele>1044.4</ele>
        <time>2024-08-15T07:14:22Z</time>
      </trkpt>
      <trkpt lat="42.97249" lon="-0.03382">
        <ele>1044.6</ele>
        <time>2024-08-15T07:14:23Z</time>
      </trkpt>
      <trkpt lat="42.9725" lon="-0.0338">
        <ele>1044.8</ele>
        <time>2024-08-15T07:14:24Z</time>
      </trkpt>
      <trkpt lat="42.97251" lon="-0.03379">
        <ele>1045.2</ele>
        <time>2024-08-15T07:14:25Z</time>
      </trkpt>
      <trkpt lat="42.97252" lon="-0.03377">
        <ele>1045.2</ele>
        <time>2024-08-15T07:14:26Z</time>
      </trkpt>
      <trkpt lat="42.97253" lon="-0.03375">
        <ele>1045.4</ele>
        <time>2024-08-15T07:14:27Z</time>
      </trkpt>
      <trkpt lat="42.97254" lon="-0.03374">
        <ele>1045.8</ele>
        <time>2024-08-15T07:14:28Z</time>
      </trkpt>
      <trkpt lat="42.97255" lon="-0.03373">
        <ele>1046</ele>
        <time>2024-08-15T07:14:29Z</time>
      </trkpt>
      <trkpt lat="42.97255" lon="-0.03372">
        <ele>1046.4</ele>
        <time>2024-08-15T07:14:30Z</time>
      </trkpt>
      <trkpt lat="42.97256" lon="-0.0337">
        <ele>1046.4</ele>
        <time>2024-08-15T07:14:31Z</time>
      </trkpt>
      <trkpt lat="42.97257" lon="-0.03369">
        <ele>1046.8</ele>
        <time>2024-08-15T07:14:32Z</time>
      </trkpt>
      <trkpt lat="42.97258" lon="-0.03367">
        <ele>1046.8</ele>
        <time>2024-08-15T07:14:33Z</time>
      </trkpt>
      <trkpt lat="42.9726" lon="-0.03365">
        <ele>1047.2</ele>
        <time>2024-08-15T07:14:34Z</time>
      </trkpt>
      <trkpt lat="42.97261" lon="-0.03364">
        <ele>1047.4</ele>
        <time>2024-08-15T07:14:35Z</time>
      </trkpt>
      <trkpt lat="42.97262" lon="-0.03362">
        <ele>1047.6</ele>
        <time>2024-08-15T07:14:36Z</time>
      </trkpt>
      <trkpt lat="42.97263" lon="-0.03361">
        <ele>1048</ele>
        <time>2024-08-15T07:14:37Z</time>
      </trkpt>
      <trkpt lat="42.97264" lon="-0.0336">
        <ele>1048</ele>
        <time>2024-08-15T07:14:38Z</time>
      </trkpt>
      <trkpt lat="42.97266" lon="-0.03359">
        <ele>1048.4</ele>
        <time>2024-08-15T07:14:39Z</time>
      </trkpt>
      <trkpt lat="42.97267" lon="-0.03358">
        <ele>1048.6</ele>
        <time>2024-08-15T07:14:40Z</time>
      </trkpt>
      <trkpt lat="42.97268" lon="-0.03356">
        <ele>1049.2</ele>
        <time>2024-08-15T07:14:41Z</time>
      </trkpt>
      <trkpt lat="42.97269" lon="-0.03356">
        <ele>1049.4</ele>
        <time>2024-08-15T07:14:42Z</time>
      </trkpt>
      <trkpt lat="42.9727" lon="-0.03354">
        <ele>1049.6</ele>
        <time>2024-08-15T07:14:43Z</time>
      </trkpt>
      <trkpt lat="42.97271" lon="-0.03353">
        <ele>1049.8</ele>
        <time>2024-08-15T07:14:44Z</time>
      </trkpt>
      <trkpt lat="42.97272" lon="-0.03352">
        <ele>1049.8</ele>
        <time>2024-08-15T07:14:45Z</time>
      </trkpt>
      <trkpt lat="42.97273" lon="-0.0335">
        <ele>1050</ele>
        <time>2024-08-15T07:14:46Z</time>
      </trkpt>
      <trkpt lat="42.97274" lon="-0.0335">
        <ele>1050.2</ele>
        <time>2024-08-15T07:14:47Z</time>
      </trkpt>
      <trkpt lat="42.97275" lon="-0.03348">
        <ele>1050.4</ele>
        <time>2024-08-15T07:14:48Z</time>
      </trkpt>
      <trkpt lat="42.97276" lon="-0.03346">
        <ele>1050.6</ele>
        <time>2024-08-15T07:14:49Z</time>
      </trkpt>
      <trkpt lat="42.97277" lon="-0.03345">
        <ele>1050.8</ele>
        <time>2024-08-15T07:14:50Z</time>
      </trkpt>
      <trkpt lat="42.97278" lon="-0.03343">
        <ele>1051.4</ele>
        <time>2024-08-15T07:14:51Z</time>
      </trkpt>
      <trkpt lat="42.97278" lon="-0.03342">
        <ele>1051.4</ele>
        <time>2024-08-15T07:14:52Z</time>
      </trkpt>
      <trkpt lat="42.97278" lon="-0.0334">
        <ele>1051.8</ele>
        <time>2024-08-15T07:14:53Z</time>
      </trkpt>
      <trkpt lat="42.97279" lon="-0.03338">
        <ele>1051.8</ele>
        <time>2024-08-15T07:14:54Z</time>
      </trkpt>
      <trkpt lat="42.97281" lon="-0.03337">
        <ele>1051.8</ele>
        <time>2024-08-15T07:14:55Z</time>
      </trkpt>
      <trkpt lat="42.97282" lon="-0.03335">
        <ele>1052.2</ele>
        <time>2024-08-15T07:14:56Z</time>
      </trkpt>
      <trkpt lat="42.97284" lon="-0.03333">
        <ele>1052.4</ele>
        <time>2024-08-15T07:14:57Z</time>
      </trkpt>
      <trkpt lat="42.97285" lon="-0.03332">
        <ele>1052.6</ele>
        <time>2024-08-15T07:14:58Z</time>
      </trkpt>
      <trkpt lat="42.97286" lon="-0.03331">
        <ele>1052.8</ele>
        <time>2024-08-15T07:14:59Z</time>
      </trkpt>
      <trkpt lat="42.97288" lon="-0.0333">
        <ele>1053</ele>
        <time>2024-08-15T07:15:00Z</time>
      </trkpt>
      <trkpt lat="42.97289" lon="-0.03329">
        <ele>1053.2</ele>
        <time>2024-08-15T07:15:01Z</time>
      </trkpt>
      <trkpt lat="42.9729" lon="-0.03328">
        <ele>1053.6</ele>
        <time>2024-08-15T07:15:02Z</time>
      </trkpt>
      <trkpt lat="42.97292" lon="-0.03325">
        <ele>1053.6</ele>
        <time>2024-08-15T07:15:03Z</time>
      </trkpt>
      <trkpt lat="42.97292" lon="-0.03323">
        <ele>1053.8</ele>
        <time>2024-08-15T07:15:04Z</time>
      </trkpt>
      <trkpt lat="42.97292" lon="-0.03321">
        <ele>1053.8</ele>
        <time>2024-08-15T07:15:05Z</time>
      </trkpt>
      <trkpt lat="42.97292" lon="-0.0332">
        <ele>1054</ele>
        <time>2024-08-15T07:15:06Z</time>
      </trkpt>
      <trkpt lat="42.97291" lon="-0.03319">
        <ele>1054.2</ele>
        <time>2024-08-15T07:15:07Z</time>
      </trkpt>
      <trkpt lat="42.9729" lon="-0.03318">
        <ele>1054.2</ele>
        <time>2024-08-15T07:15:08Z</time>
      </trkpt>
      <trkpt lat="42.97288" lon="-0.03318">
        <ele>1054.4</ele>
        <time>2024-08-15T07:15:09Z</time>
      </trkpt>
      <trkpt lat="42.97287" lon="-0.03318">
        <ele>1054.4</ele>
        <time>2024-08-15T07:15:10Z</time>
      </trkpt>
      <trkpt lat="42.97285" lon="-0.03318">
        <ele>1054.6</ele>
        <time>2024-08-15T07:15:11Z</time>
      </trkpt>
      <trkpt lat="42.97284" lon="-0.03319">
        <ele>1054.8</ele>
        <time>2024-08-15T07:15:12Z</time>
      </trkpt>
      <trkpt lat="42.97283" lon="-0.0332">
        <ele>1055.2</ele>
        <time>2024-08-15T07:15:13Z</time>
      </trkpt>
      <trkpt lat="42.97281" lon="-0.0332">
        <ele>1055.2</ele>
        <time>2024-08-15T07:15:14Z</time>
      </trkpt>
      <trkpt lat="42.97279" lon="-0.03321">
        <ele>1055.4</ele>
        <time>2024-08-15T07:15:15Z</time>
      </trkpt>
      <trkpt lat="42.97277" lon="-0.03322">
        <ele>1055.6</ele>
        <time>2024-08-15T07:15:16Z</time>
      </trkpt>
      <trkpt lat="42.97276" lon="-0.03323">
        <ele>1055.6</ele>
        <time>2024-08-15T07:15:17Z</time>
      </trkpt>
      <trkpt lat="42.97275" lon="-0.03323">
        <ele>1055.8</ele>
        <time>2024-08-15T07:15:18Z</time>
      </trkpt>
      <trkpt lat="42.97275" lon="-0.03323">
        <ele>1055.8</ele>
        <time>2024-08-15T07:15:19Z</time>
      </trkpt>
      <trkpt lat="42.97274" lon="-0.03323">
        <ele>1056</ele>
        <time>2024-08-15T07:15:20Z</time>
      </trkpt>
      <trkpt lat="42.97275" lon="-0.03323">
        <ele>1056</ele>
        <time>2024-08-15T07:15:21Z</time>
      </trkpt>
      <trkpt lat="42.97275" lon="-0.03322">
        <ele>1056</ele>
        <time>2024-08-15T07:15:22Z</time>
      </trkpt>
      <trkpt lat="42.97276" lon="-0.03321">
        <ele>1056</ele>
        <time>2024-08-15T07:15:23Z</time>
      </trkpt>
      <trkpt lat="42.97277" lon="-0.03321">
        <ele>1056</ele>
        <time>2024-08-15T07:15:24Z</time>
      </trkpt>
      <trkpt lat="42.97278" lon="-0.0332">
        <ele>1056.2</ele>
        <time>2024-08-15T07:15:25Z</time>
      </trkpt>
      <trkpt lat="42.97279" lon="-0.0332">
        <ele>1056.2</ele>
        <time>2024-08-15T07:15:26Z</time>
      </trkpt>
      <trkpt lat="42.97281" lon="-0.03319">
        <ele>1056.2</ele>
        <time>2024-08-15T07:15:27Z</time>
      </trkpt>
      <trkpt lat="42.97283" lon="-0.03318">
        <ele>1056.2</ele>
        <time>2024-08-15T07:15:28Z</time>
      </trkpt>
      <trkpt lat="42.97286" lon="-0.03317">
        <ele>1056.2</ele>
        <time>2024-08-15T07:15:29Z</time>
      </trkpt>
      <trkpt lat="42.97289" lon="-0.03317">
        <ele>1056.2</ele>
        <time>2024-08-15T07:15:30Z</time>
      </trkpt>
      <trkpt lat="42.97292" lon="-0.03316">
        <ele>1056.2</ele>
        <time>2024-08-15T07:15:31Z</time>
      </trkpt>
      <trkpt lat="42.97295" lon="-0.03316">
        <ele>1056.2</ele>
        <time>2024-08-15T07:15:32Z</time>
      </trkpt>
      <trkpt lat="42.97296" lon="-0.03317">
        <ele>1056.2</ele>
        <time>2024-08-15T07:15:33Z</time>
      </trkpt>
      <trkpt lat="42.97298" lon="-0.03318">
        <ele>1056.2</ele>
        <time>2024-08-15T07:15:34Z</time>
      </trkpt>
      <trkpt lat="42.973" lon="-0.03319">
        <ele>1056.2</ele>
        <time>2024-08-15T07:15:35Z</time>
      </trkpt>
      <trkpt lat="42.97301" lon="-0.03321">
        <ele>1056.2</ele>
        <time>2024-08-15T07:15:36Z</time>
      </trkpt>
      <trkpt lat="42.97303" lon="-0.03321">
        <ele>1056.2</ele>
        <time>2024-08-15T07:15:37Z</time>
      </trkpt>
      <trkpt lat="42.97305" lon="-0.03322">
        <ele>1056.2</ele>
        <time>2024-08-15T07:15:38Z</time>
      </trkpt>
      <trkpt lat="42.97306" lon="-0.03321">
        <ele>1056.4</ele>
        <time>2024-08-15T07:15:39Z</time>
      </trkpt>
      <trkpt lat="42.97309" lon="-0.03319">
        <ele>1056.4</ele>
        <time>2024-08-15T07:15:40Z</time>
      </trkpt>
      <trkpt lat="42.97311" lon="-0.03317">
        <ele>1056.2</ele>
        <time>2024-08-15T07:15:41Z</time>
      </trkpt>
      <trkpt lat="42.97312" lon="-0.03316">
        <ele>1056.4</ele>
        <time>2024-08-15T07:15:42Z</time>
      </trkpt>
      <trkpt lat="42.97311" lon="-0.03314">
        <ele>1056.6</ele>
        <time>2024-08-15T07:15:43Z</time>
      </trkpt>
      <trkpt lat="42.97311" lon="-0.03312">
        <ele>1056.6</ele>
        <time>2024-08-15T07:15:44Z</time>
      </trkpt>
      <trkpt lat="42.97309" lon="-0.0331">
        <ele>1056.8</ele>
        <time>2024-08-15T07:15:45Z</time>
      </trkpt>
      <trkpt lat="42.97307" lon="-0.03307">
        <ele>1057.2</ele>
        <time>2024-08-15T07:15:47Z</time>
      </trkpt>
      <trkpt lat="42.97306" lon="-0.03305">
        <ele>1057.4</ele>
        <time>2024-08-15T07:15:48Z</time>
      </trkpt>
      <trkpt lat="42.97305" lon="-0.03304">
        <ele>1057.6</ele>
        <time>2024-08-15T07:15:49Z</time>
      </trkpt>
      <trkpt lat="42.97304" lon="-0.03301">
        <ele>1058</ele>
        <time>2024-08-15T07:15:51Z</time>
      </trkpt>
      <trkpt lat="42.97303" lon="-0.033">
        <ele>1058.2</ele>
        <time>2024-08-15T07:15:52Z</time>
      </trkpt>
      <trkpt lat="42.97303" lon="-0.03298">
        <ele>1058.4</ele>
        <time>2024-08-15T07:15:53Z</time>
      </trkpt>
      <trkpt lat="42.97302" lon="-0.03296">
        <ele>1058.8</ele>
        <time>2024-08-15T07:15:54Z</time>
      </trkpt>
      <trkpt lat="42.97301" lon="-0.03293">
        <ele>1059.6</ele>
        <time>2024-08-15T07:15:56Z</time>
      </trkpt>
      <trkpt lat="42.97301" lon="-0.03292">
        <ele>1060</ele>
        <time>2024-08-15T07:15:57Z</time>
      </trkpt>
      <trkpt lat="42.97299" lon="-0.03291">
        <ele>1060.2</ele>
        <time>2024-08-15T07:15:58Z</time>
      </trkpt>
      <trkpt lat="42.97297" lon="-0.0329">
        <ele>1060.4</ele>
        <time>2024-08-15T07:15:59Z</time>
      </trkpt>
      <trkpt lat="42.97296" lon="-0.03288">
        <ele>1060.6</ele>
        <time>2024-08-15T07:16:00Z</time>
      </trkpt>
      <trkpt lat="42.97295" lon="-0.03285">
        <ele>1060.8</ele>
        <time>2024-08-15T07:16:01Z</time>
      </trkpt>
      <trkpt lat="42.97297" lon="-0.03283">
        <ele>1061</ele>
        <time>2024-08-15T07:16:02Z</time>
      </trkpt>
      <trkpt lat="42.97297" lon="-0.03279">
        <ele>1061.4</ele>
        <time>2024-08-15T07:16:03Z</time>
      </trkpt>
      <trkpt lat="42.97296" lon="-0.03277">
        <ele>1061.6</ele>
        <time>2024-08-15T07:16:04Z</time>
      </trkpt>
      <trkpt lat="42.97296" lon="-0.03274">
        <ele>1061.6</ele>
        <time>2024-08-15T07:16:05Z</time>
      </trkpt>
      <trkpt lat="42.97296" lon="-0.03273">
        <ele>1062</ele>
        <time>2024-08-15T07:16:06Z</time>
      </trkpt>
      <trkpt lat="42.97296" lon="-0.0327">
        <ele>1062.2</ele>
        <time>2024-08-15T07:16:07Z</time>
      </trkpt>
      <trkpt lat="42.97297" lon="-0.03267">
        <ele>1062.6</ele>
        <time>2024-08-15T07:16:08Z</time>
      </trkpt>
      <trkpt lat="42.97294" lon="-0.03264">
        <ele>1062.8</ele>
        <time>2024-08-15T07:16:09Z</time>
      </trkpt>
      <trkpt lat="42.97292" lon="-0.03261">
        <ele>1063.2</ele>
        <time>2024-08-15T07:16:10Z</time>
      </trkpt>
      <trkpt lat="42.9729" lon="-0.03259">
        <ele>1063.4</ele>
        <time>2024-08-15T07:16:11Z</time>
      </trkpt>
      <trkpt lat="42.97286" lon="-0.03257">
        <ele>1063.6</ele>
        <time>2024-08-15T07:16:12Z</time>
      </trkpt>
      <trkpt lat="42.97283" lon="-0.03254">
        <ele>1064.2</ele>
        <time>2024-08-15T07:16:13Z</time>
      </trkpt>
      <trkpt lat="42.97282" lon="-0.03253">
        <ele>1064.4</ele>
        <time>2024-08-15T07:16:14Z</time>
      </trkpt>
      <trkpt lat="42.9728" lon="-0.03252">
        <ele>1065</ele>
        <time>2024-08-15T07:16:15Z</time>
      </trkpt>
      <trkpt lat="42.97278" lon="-0.03251">
        <ele>1065.2</ele>
        <time>2024-08-15T07:16:16Z</time>
      </trkpt>
      <trkpt lat="42.97276" lon="-0.03249">
        <ele>1065.8</ele>
        <time>2024-08-15T07:16:17Z</time>
      </trkpt>
      <trkpt lat="42.97274" lon="-0.03246">
        <ele>1065.8</ele>
        <time>2024-08-15T07:16:18Z</time>
      </trkpt>
      <trkpt lat="42.97274" lon="-0.03243">
        <ele>1066</ele>
        <time>2024-08-15T07:16:19Z</time>
      </trkpt>
      <trkpt lat="42.97272" lon="-0.03241">
        <ele>1066.2</ele>
        <time>2024-08-15T07:16:20Z</time>
      </trkpt>
      <trkpt lat="42.97271" lon="-0.0324">
        <ele>1066.4</ele>
        <time>2024-08-15T07:16:21Z</time>
      </trkpt>
      <trkpt lat="42.9727" lon="-0.03239">
        <ele>1066.6</ele>
        <time>2024-08-15T07:16:22Z</time>
      </trkpt>
      <trkpt lat="42.97269" lon="-0.03238">
        <ele>1066.8</ele>
        <time>2024-08-15T07:16:23Z</time>
      </trkpt>
      <trkpt lat="42.97271" lon="-0.03238">
        <ele>1067.2</ele>
        <time>2024-08-15T07:16:24Z</time>
      </trkpt>
      <trkpt lat="42.97272" lon="-0.03236">
        <ele>1067.4</ele>
        <time>2024-08-15T07:16:25Z</time>
      </trkpt>
      <trkpt lat="42.9727" lon="-0.03235">
        <ele>1067.8</ele>
        <time>2024-08-15T07:16:26Z</time>
      </trkpt>
      <trkpt lat="42.97271" lon="-0.03233">
        <ele>1068</ele>
        <time>2024-08-15T07:16:27Z</time>
      </trkpt>
      <trkpt lat="42.97272" lon="-0.03232">
        <ele>1068.2</ele>
        <time>2024-08-15T07:16:28Z</time>
      </trkpt>
      <trkpt lat="42.97274" lon="-0.03231">
        <ele>1068.4</ele>
        <time>2024-08-15T07:16:29Z</time>
      </trkpt>
      <trkpt lat="42.97275" lon="-0.0323">
        <ele>1068.6</ele>
        <time>2024-08-15T07:16:30Z</time>
      </trkpt>
      <trkpt lat="42.97275" lon="-0.0323">
        <ele>1068.8</ele>
        <time>2024-08-15T07:16:31Z</time>
      </trkpt>
      <trkpt lat="42.97276" lon="-0.03229">
        <ele>1068.8</ele>
        <time>2024-08-15T07:16:32Z</time>
      </trkpt>
      <trkpt lat="42.97277" lon="-0.03229">
        <ele>1069.2</ele>
        <time>2024-08-15T07:16:33Z</time>
      </trkpt>
      <trkpt lat="42.97279" lon="-0.03228">
        <ele>1069.4</ele>
        <time>2024-08-15T07:16:34Z</time>
      </trkpt>
      <trkpt lat="42.9728" lon="-0.03228">
        <ele>1069.6</ele>
        <time>2024-08-15T07:16:35Z</time>
      </trkpt>
      <trkpt lat="42.97282" lon="-0.03228">
        <ele>1070</ele>
        <time>2024-08-15T07:16:36Z</time>
      </trkpt>
      <trkpt lat="42.97284" lon="-0.03227">
        <ele>1070</ele>
        <time>2024-08-15T07:16:37Z</time>
      </trkpt>
      <trkpt lat="42.97285" lon="-0.03226">
        <ele>1070.2</ele>
        <time>2024-08-15T07:16:38Z</time>
      </trkpt>
      <trkpt lat="42.97287" lon="-0.03226">
        <ele>1070.2</ele>
        <time>2024-08-15T07:16:39Z</time>
      </trkpt>
      <trkpt lat="42.97289" lon="-0.03225">
        <ele>1070.4</ele>
        <time>2024-08-15T07:16:40Z</time>
      </trkpt>
      <trkpt lat="42.9729" lon="-0.03225">
        <ele>1070.6</ele>
        <time>2024-08-15T07:16:41Z</time>
      </trkpt>
      <trkpt lat="42.97292" lon="-0.03225">
        <ele>1070.6</ele>
        <time>2024-08-15T07:16:42Z</time>
      </trkpt>
      <trkpt lat="42.97294" lon="-0.03224">
        <ele>1070.8</ele>
        <time>2024-08-15T07:16:43Z</time>
      </trkpt>
      <trkpt lat="42.97296" lon="-0.03224">
        <ele>1071</ele>
        <time>2024-08-15T07:16:44Z</time>
      </trkpt>
      <trkpt lat="42.97298" lon="-0.03224">
        <ele>1071.2</ele>
        <time>2024-08-15T07:16:45Z</time>
      </trkpt>
      <trkpt lat="42.973" lon="-0.03224">
        <ele>1071.4</ele>
        <time>2024-08-15T07:16:46Z</time>
      </trkpt>
      <trkpt lat="42.97302" lon="-0.03223">
        <ele>1071.6</ele>
        <time>2024-08-15T07:16:47Z</time>
      </trkpt>
      <trkpt lat="42.97305" lon="-0.03223">
        <ele>1071.6</ele>
        <time>2024-08-15T07:16:48Z</time>
      </trkpt>
      <trkpt lat="42.97305" lon="-0.03223">
        <ele>1071.8</ele>
        <time>2024-08-15T07:16:49Z</time>
      </trkpt>
      <trkpt lat="42.97307" lon="-0.03225">
        <ele>1072</ele>
        <time>2024-08-15T07:16:50Z</time>
      </trkpt>
      <trkpt lat="42.97308" lon="-0.03226">
        <ele>1072</ele>
        <time>2024-08-15T07:16:51Z</time>
      </trkpt>
      <trkpt lat="42.97309" lon="-0.03227">
        <ele>1072.2</ele>
        <time>2024-08-15T07:16:52Z</time>
      </trkpt>
      <trkpt lat="42.97311" lon="-0.03227">
        <ele>1072.2</ele>
        <time>2024-08-15T07:16:53Z</time>
      </trkpt>
      <trkpt lat="42.97314" lon="-0.03228">
        <ele>1072.6</ele>
        <time>2024-08-15T07:16:54Z</time>
      </trkpt>
      <trkpt lat="42.97317" lon="-0.03227">
        <ele>1072.6</ele>
        <time>2024-08-15T07:16:55Z</time>
      </trkpt>
      <trkpt lat="42.97318" lon="-0.03225">
        <ele>1072.8</ele>
        <time>2024-08-15T07:16:56Z</time>
      </trkpt>
      <trkpt lat="42.97318" lon="-0.03225">
        <ele>1073</ele>
        <time>2024-08-15T07:16:57Z</time>
      </trkpt>
      <trkpt lat="42.97318" lon="-0.03223">
        <ele>1073</ele>
        <time>2024-08-15T07:16:58Z</time>
      </trkpt>
      <trkpt lat="42.97319" lon="-0.03222">
        <ele>1073.4</ele>
        <time>2024-08-15T07:16:59Z</time>
      </trkpt>
      <trkpt lat="42.97319" lon="-0.03221">
        <ele>1073.4</ele>
        <time>2024-08-15T07:17:00Z</time>
      </trkpt>
      <trkpt lat="42.97319" lon="-0.03221">
        <ele>1073.6</ele>
        <time>2024-08-15T07:17:01Z</time>
      </trkpt>
      <trkpt lat="42.97318" lon="-0.0322">
        <ele>1073.8</ele>
        <time>2024-08-15T07:17:02Z</time>
      </trkpt>
      <trkpt lat="42.97318" lon="-0.03219">
        <ele>1074</ele>
        <time>2024-08-15T07:17:03Z</time>
      </trkpt>
      <trkpt lat="42.97317" lon="-0.03217">
        <ele>1074.2</ele>
        <time>2024-08-15T07:17:04Z</time>
      </trkpt>
      <trkpt lat="42.97317" lon="-0.03217">
        <ele>1074.4</ele>
        <time>2024-08-15T07:17:05Z</time>
      </trkpt>
      <trkpt lat="42.97316" lon="-0.03215">
        <ele>1074.8</ele>
        <time>2024-08-15T07:17:06Z</time>
      </trkpt>
      <trkpt lat="42.97316" lon="-0.03213">
        <ele>1075</ele>
        <time>2024-08-15T07:17:07Z</time>
      </trkpt>
      <trkpt lat="42.97314" lon="-0.03211">
        <ele>1075.2</ele>
        <time>2024-08-15T07:17:08Z</time>
      </trkpt>
      <trkpt lat="42.97313" lon="-0.0321">
        <ele>1075.2</ele>
        <time>2024-08-15T07:17:09Z</time>
      </trkpt>
      <trkpt lat="42.97312" lon="-0.03209">
        <ele>1075.4</ele>
        <time>2024-08-15T07:17:10Z</time>
      </trkpt>
      <trkpt lat="42.9731" lon="-0.03207">
        <ele>1075.6</ele>
        <time>2024-08-15T07:17:11Z</time>
      </trkpt>
      <trkpt lat="42.97309" lon="-0.03206">
        <ele>1075.6</ele>
        <time>2024-08-15T07:17:12Z</time>
      </trkpt>
      <trkpt lat="42.97308" lon="-0.03206">
        <ele>1075.8</ele>
        <time>2024-08-15T07:17:13Z</time>
      </trkpt>
      <trkpt lat="42.97307" lon="-0.03205">
        <ele>1076</ele>
        <time>2024-08-15T07:17:14Z</time>
      </trkpt>
      <trkpt lat="42.97307" lon="-0.03204">
        <ele>1076.2</ele>
        <time>2024-08-15T07:17:15Z</time>
      </trkpt>
      <trkpt lat="42.97307" lon="-0.03203">
        <ele>1076.4</ele>
        <time>2024-08-15T07:17:16Z</time>
      </trkpt>
      <trkpt lat="42.97307" lon="-0.03202">
        <ele>1076.4</ele>
        <time>2024-08-15T07:17:17Z</time>
      </trkpt>
      <trkpt lat="42.97306" lon="-0.03202">
        <ele>1076.6</ele>
        <time>2024-08-15T07:17:18Z</time>
      </trkpt>
      <trkpt lat="42.97306" lon="-0.03201">
        <ele>1077</ele>
        <time>2024-08-15T07:17:19Z</time>
      </trkpt>
      <trkpt lat="42.97305" lon="-0.03201">
        <ele>1077.2</ele>
        <time>2024-08-15T07:17:20Z</time>
      </trkpt>
      <trkpt lat="42.97304" lon="-0.032">
        <ele>1077.4</ele>
        <time>2024-08-15T07:17:21Z</time>
      </trkpt>
      <trkpt lat="42.97303" lon="-0.032">
        <ele>1077.6</ele>
        <time>2024-08-15T07:17:22Z</time>
      </trkpt>
      <trkpt lat="42.97301" lon="-0.032">
        <ele>1077.6</ele>
        <time>2024-08-15T07:17:23Z</time>
      </trkpt>
      <trkpt lat="42.973" lon="-0.03199">
        <ele>1077.8</ele>
        <time>2024-08-15T07:17:24Z</time>
      </trkpt>
      <trkpt lat="42.97299" lon="-0.03199">
        <ele>1078.2</ele>
        <time>2024-08-15T07:17:25Z</time>
      </trkpt>
      <trkpt lat="42.97299" lon="-0.03199">
        <ele>1078.4</ele>
        <time>2024-08-15T07:17:26Z</time>
      </trkpt>
      <trkpt lat="42.97298" lon="-0.03199">
        <ele>1078.6</ele>
        <time>2024-08-15T07:17:27Z</time>
      </trkpt>
      <trkpt lat="42.97297" lon="-0.03198">
        <ele>1078.8</ele>
        <time>2024-08-15T07:17:28Z</time>
      </trkpt>
      <trkpt lat="42.97296" lon="-0.03198">
        <ele>1079</ele>
        <time>2024-08-15T07:17:29Z</time>
      </trkpt>
      <trkpt lat="42.97296" lon="-0.03198">
        <ele>1079</ele>
        <time>2024-08-15T07:17:30Z</time>
      </trkpt>
      <trkpt lat="42.97295" lon="-0.03197">
        <ele>1079.2</ele>
        <time>2024-08-15T07:17:31Z</time>
      </trkpt>
      <trkpt lat="42.97293" lon="-0.03197">
        <ele>1079.4</ele>
        <time>2024-08-15T07:17:32Z</time>
      </trkpt>
      <trkpt lat="42.97291" lon="-0.03195">
        <ele>1079.6</ele>
        <time>2024-08-15T07:17:33Z</time>
      </trkpt>
      <trkpt lat="42.97288" lon="-0.03193">
        <ele>1079.8</ele>
        <time>2024-08-15T07:17:34Z</time>
      </trkpt>
      <trkpt lat="42.97287" lon="-0.03192">
        <ele>1080</ele>
        <time>2024-08-15T07:17:35Z</time>
      </trkpt>
      <trkpt lat="42.97286" lon="-0.03191">
        <ele>1080</ele>
        <time>2024-08-15T07:17:36Z</time>
      </trkpt>
      <trkpt lat="42.97284" lon="-0.03191">
        <ele>1080.2</ele>
        <time>2024-08-15T07:17:37Z</time>
      </trkpt>
      <trkpt lat="42.97283" lon="-0.0319">
        <ele>1080.4</ele>
        <time>2024-08-15T07:17:38Z</time>
      </trkpt>
      <trkpt lat="42.97281" lon="-0.03189">
        <ele>1080.6</ele>
        <time>2024-08-15T07:17:39Z</time>
      </trkpt>
      <trkpt lat="42.9728" lon="-0.03188">
        <ele>1081</ele>
        <time>2024-08-15T07:17:40Z</time>
      </trkpt>
      <trkpt lat="42.97278" lon="-0.03186">
        <ele>1081.2</ele>
        <time>2024-08-15T07:17:41Z</time>
      </trkpt>
      <trkpt lat="42.97277" lon="-0.03185">
        <ele>1081.4</ele>
        <time>2024-08-15T07:17:42Z</time>
      </trkpt>
      <trkpt lat="42.97275" lon="-0.03184">
        <ele>1081.4</ele>
        <time>2024-08-15T07:17:43Z</time>
      </trkpt>
      <trkpt lat="42.97274" lon="-0.03183">
        <ele>1081.8</ele>
        <time>2024-08-15T07:17:44Z</time>
      </trkpt>
      <trkpt lat="42.97272" lon="-0.03182">
        <ele>1081.8</ele>
        <time>2024-08-15T07:17:45Z</time>
      </trkpt>
      <trkpt lat="42.9727" lon="-0.03181">
        <ele>1082</ele>
        <time>2024-08-15T07:17:46Z</time>
      </trkpt>
      <trkpt lat="42.97267" lon="-0.0318">
        <ele>1082.2</ele>
        <time>2024-08-15T07:17:47Z</time>
      </trkpt>
      <trkpt lat="42.97264" lon="-0.03178">
        <ele>1082.2</ele>
        <time>2024-08-15T07:17:48Z</time>
      </trkpt>
      <trkpt lat="42.97261" lon="-0.03177">
        <ele>1082.4</ele>
        <time>2024-08-15T07:17:49Z</time>
      </trkpt>
      <trkpt lat="42.97259" lon="-0.03176">
        <ele>1082.6</ele>
        <time>2024-08-15T07:17:50Z</time>
      </trkpt>
      <trkpt lat="42.97258" lon="-0.03175">
        <ele>1082.8</ele>
        <time>2024-08-15T07:17:51Z</time>
      </trkpt>
      <trkpt lat="42.97256" lon="-0.03174">
        <ele>1082.8</ele>
        <time>2024-08-15T07:17:52Z</time>
      </trkpt>
      <trkpt lat="42.97253" lon="-0.03172">
        <ele>1083</ele>
        <time>2024-08-15T07:17:53Z</time>
      </trkpt>
      <trkpt lat="42.97251" lon="-0.0317">
        <ele>1083.2</ele>
        <time>2024-08-15T07:17:54Z</time>
      </trkpt>
      <trkpt lat="42.97249" lon="-0.03168">
        <ele>1083.2</ele>
        <time>2024-08-15T07:17:55Z</time>
      </trkpt>
      <trkpt lat="42.97248" lon="-0.03166">
        <ele>1083.4</ele>
        <time>2024-08-15T07:17:56Z</time>
      </trkpt>
      <trkpt lat="42.97247" lon="-0.03164">
        <ele>1083.6</ele>
        <time>2024-08-15T07:17:57Z</time>
      </trkpt>
      <trkpt lat="42.97246" lon="-0.03162">
        <ele>1083.8</ele>
        <time>2024-08-15T07:17:58Z</time>
      </trkpt>
      <trkpt lat="42.97244" lon="-0.0316">
        <ele>1084</ele>
        <time>2024-08-15T07:17:59Z</time>
      </trkpt>
      <trkpt lat="42.97243" lon="-0.03159">
        <ele>1084.2</ele>
        <time>2024-08-15T07:18:00Z</time>
      </trkpt>
      <trkpt lat="42.97244" lon="-0.03159">
        <ele>1084.4</ele>
        <time>2024-08-15T07:18:01Z</time>
      </trkpt>
      <trkpt lat="42.97245" lon="-0.03158">
        <ele>1084.6</ele>
        <time>2024-08-15T07:18:02Z</time>
      </trkpt>
      <trkpt lat="42.97245" lon="-0.03158">
        <ele>1084.8</ele>
        <time>2024-08-15T07:18:03Z</time>
      </trkpt>
      <trkpt lat="42.97244" lon="-0.03158">
        <ele>1085</ele>
        <time>2024-08-15T07:18:04Z</time>
      </trkpt>
      <trkpt lat="42.97245" lon="-0.03159">
        <ele>1085.2</ele>
        <time>2024-08-15T07:18:05Z</time>
      </trkpt>
      <trkpt lat="42.97246" lon="-0.03159">
        <ele>1085.4</ele>
        <time>2024-08-15T07:18:06Z</time>
      </trkpt>
      <trkpt lat="42.97248" lon="-0.0316">
        <ele>1085.6</ele>
        <time>2024-08-15T07:18:07Z</time>
      </trkpt>
      <trkpt lat="42.97249" lon="-0.03161">
        <ele>1085.6</ele>
        <time>2024-08-15T07:18:08Z</time>
      </trkpt>
      <trkpt lat="42.9725" lon="-0.03162">
        <ele>1085.8</ele>
        <time>2024-08-15T07:18:09Z</time>
      </trkpt>
      <trkpt lat="42.97252" lon="-0.03162">
        <ele>1086</ele>
        <time>2024-08-15T07:18:10Z</time>
      </trkpt>
      <trkpt lat="42.97253" lon="-0.03163">
        <ele>1086.2</ele>
        <time>2024-08-15T07:18:11Z</time>
      </trkpt>
      <trkpt lat="42.97254" lon="-0.03164">
        <ele>1086.4</ele>
        <time>2024-08-15T07:18:12Z</time>
      </trkpt>
      <trkpt lat="42.97256" lon="-0.03165">
        <ele>1086.4</ele>
        <time>2024-08-15T07:18:13Z</time>
      </trkpt>
      <trkpt lat="42.97256" lon="-0.03165">
        <ele>1086.6</ele>
        <time>2024-08-15T07:18:14Z</time>
      </trkpt>
      <trkpt lat="42.97257" lon="-0.03166">
        <ele>1086.8</ele>
        <time>2024-08-15T07:18:15Z</time>
      </trkpt>
      <trkpt lat="42.97259" lon="-0.03166">
        <ele>1086.8</ele>
        <time>2024-08-15T07:18:16Z</time>
      </trkpt>
      <trkpt lat="42.97261" lon="-0.03166">
        <ele>1087</ele>
        <time>2024-08-15T07:18:17Z</time>
      </trkpt>
      <trkpt lat="42.97262" lon="-0.03166">
        <ele>1087.2</ele>
        <time>2024-08-15T07:18:18Z</time>
      </trkpt>
      <trkpt lat="42.97263" lon="-0.03166">
        <ele>1087.4</ele>
        <time>2024-08-15T07:18:19Z</time>
      </trkpt>
      <trkpt lat="42.97264" lon="-0.03167">
        <ele>1087.4</ele>
        <time>2024-08-15T07:18:20Z</time>
      </trkpt>
      <trkpt lat="42.97265" lon="-0.03167">
        <ele>1087.6</ele>
        <time>2024-08-15T07:18:21Z</time>
      </trkpt>
      <trkpt lat="42.97267" lon="-0.03167">
        <ele>1087.6</ele>
        <time>2024-08-15T07:18:22Z</time>
      </trkpt>
      <trkpt lat="42.97269" lon="-0.03166">
        <ele>1088</ele>
        <time>2024-08-15T07:18:23Z</time>
      </trkpt>
      <trkpt lat="42.97271" lon="-0.03166">
        <ele>1088</ele>
        <time>2024-08-15T07:18:24Z</time>
      </trkpt>
      <trkpt lat="42.97271" lon="-0.03166">
        <ele>1088.2</ele>
        <time>2024-08-15T07:18:25Z</time>
      </trkpt>
      <trkpt lat="42.97272" lon="-0.03165">
        <ele>1088.6</ele>
        <time>2024-08-15T07:18:26Z</time>
      </trkpt>
      <trkpt lat="42.97272" lon="-0.03165">
        <ele>1088.6</ele>
        <time>2024-08-15T07:18:27Z</time>
      </trkpt>
      <trkpt lat="42.97272" lon="-0.03165">
        <ele>1088.8</ele>
        <time>2024-08-15T07:18:28Z</time>
      </trkpt>
      <trkpt lat="42.97273" lon="-0.03164">
        <ele>1089</ele>
        <time>2024-08-15T07:18:29Z</time>
      </trkpt>
      <trkpt lat="42.97274" lon="-0.03164">
        <ele>1089.2</ele>
        <time>2024-08-15T07:18:30Z</time>
      </trkpt>
      <trkpt lat="42.97275" lon="-0.03163">
        <ele>1089.4</ele>
        <time>2024-08-15T07:18:31Z</time>
      </trkpt>
      <trkpt lat="42.97276" lon="-0.03162">
        <ele>1089.6</ele>
        <time>2024-08-15T07:18:32Z</time>
      </trkpt>
      <trkpt lat="42.97278" lon="-0.03161">
        <ele>1089.8</ele>
        <time>2024-08-15T07:18:33Z</time>
      </trkpt>
      <trkpt lat="42.97278" lon="-0.03161">
        <ele>1089.8</ele>
        <time>2024-08-15T07:18:34Z</time>
      </trkpt>
      <trkpt lat="42.97278" lon="-0.03161">
        <ele>1090</ele>
        <time>2024-08-15T07:18:35Z</time>
      </trkpt>
      <trkpt lat="42.97279" lon="-0.03161">
        <ele>1090.2</ele>
        <time>2024-08-15T07:18:36Z</time>
      </trkpt>
      <trkpt lat="42.97281" lon="-0.0316">
        <ele>1090.4</ele>
        <time>2024-08-15T07:18:37Z</time>
      </trkpt>
      <trkpt lat="42.97283" lon="-0.0316">
        <ele>1090.6</ele>
        <time>2024-08-15T07:18:38Z</time>
      </trkpt>
      <trkpt lat="42.97284" lon="-0.0316">
        <ele>1090.8</ele>
        <time>2024-08-15T07:18:39Z</time>
      </trkpt>
      <trkpt lat="42.97284" lon="-0.0316">
        <ele>1090.8</ele>
        <time>2024-08-15T07:18:40Z</time>
      </trkpt>
      <trkpt lat="42.97284" lon="-0.0316">
        <ele>1091</ele>
        <time>2024-08-15T07:18:41Z</time>
      </trkpt>
      <trkpt lat="42.97284" lon="-0.0316">
        <ele>1091.2</ele>
        <time>2024-08-15T07:18:42Z</time>
      </trkpt>
      <trkpt lat="42.97284" lon="-0.0316">
        <ele>1091.4</ele>
        <time>2024-08-15T07:18:43Z</time>
      </trkpt>
      <trkpt lat="42.97284" lon="-0.0316">
        <ele>1091.6</ele>
        <time>2024-08-15T07:18:44Z</time>
      </trkpt>
      <trkpt lat="42.97286" lon="-0.03159">
        <ele>1091.8</ele>
        <time>2024-08-15T07:18:45Z</time>
      </trkpt>
      <trkpt lat="42.97291" lon="-0.03158">
        <ele>1092.2</ele>
        <time>2024-08-15T07:18:46Z</time>
      </trkpt>
      <trkpt lat="42.97292" lon="-0.03158">
        <ele>1092.2</ele>
        <time>2024-08-15T07:18:47Z</time>
      </trkpt>
      <trkpt lat="42.97294" lon="-0.03157">
        <ele>1092.4</ele>
        <time>2024-08-15T07:18:48Z</time>
      </trkpt>
      <trkpt lat="42.97297" lon="-0.03157">
        <ele>1092.6</ele>
        <time>2024-08-15T07:18:49Z</time>
      </trkpt>
      <trkpt lat="42.97298" lon="-0.03157">
        <ele>1092.8</ele>
        <time>2024-08-15T07:18:50Z</time>
      </trkpt>
      <trkpt lat="42.97301" lon="-0.03157">
        <ele>1093.2</ele>
        <time>2024-08-15T07:18:51Z</time>
      </trkpt>
      <trkpt lat="42.97304" lon="-0.03157">
        <ele>1093.4</ele>
        <time>2024-08-15T07:18:52Z</time>
      </trkpt>
      <trkpt lat="42.97305" lon="-0.03157">
        <ele>1093.8</ele>
        <time>2024-08-15T07:18:53Z</time>
      </trkpt>
      <trkpt lat="42.97308" lon="-0.03158">
        <ele>1094</ele>
        <time>2024-08-15T07:18:54Z</time>
      </trkpt>
      <trkpt lat="42.97311" lon="-0.03158">
        <ele>1094.2</ele>
        <time>2024-08-15T07:18:55Z</time>
      </trkpt>
      <trkpt lat="42.97315" lon="-0.03159">
        <ele>1094.4</ele>
        <time>2024-08-15T07:18:56Z</time>
      </trkpt>
      <trkpt lat="42.97316" lon="-0.0316">
        <ele>1094.4</ele>
        <time>2024-08-15T07:18:57Z</time>
      </trkpt>
      <trkpt lat="42.97319" lon="-0.0316">
        <ele>1094.8</ele>
        <time>2024-08-15T07:18:58Z</time>
      </trkpt>
      <trkpt lat="42.97321" lon="-0.03159">
        <ele>1095</ele>
        <time>2024-08-15T07:18:59Z</time>
      </trkpt>
      <trkpt lat="42.97325" lon="-0.03158">
        <ele>1095.2</ele>
        <time>2024-08-15T07:19:00Z</time>
      </trkpt>
      <trkpt lat="42.97329" lon="-0.03158">
        <ele>1095.4</ele>
        <time>2024-08-15T07:19:01Z</time>
      </trkpt>
      <trkpt lat="42.97331" lon="-0.03158">
        <ele>1095.6</ele>
        <time>2024-08-15T07:19:02Z</time>
      </trkpt>
      <trkpt lat="42.97334" lon="-0.03159">
        <ele>1095.8</ele>
        <time>2024-08-15T07:19:03Z</time>
      </trkpt>
      <trkpt lat="42.97336" lon="-0.03158">
        <ele>1096</ele>
        <time>2024-08-15T07:19:04Z</time>
      </trkpt>
      <trkpt lat="42.97339" lon="-0.03158">
        <ele>1096.4</ele>
        <time>2024-08-15T07:19:05Z</time>
      </trkpt>
      <trkpt lat="42.97343" lon="-0.03157">
        <ele>1096.6</ele>
        <time>2024-08-15T07:19:06Z</time>
      </trkpt>
      <trkpt lat="42.97345" lon="-0.03158">
        <ele>1096.8</ele>
        <time>2024-08-15T07:19:07Z</time>
      </trkpt>
      <trkpt lat="42.97346" lon="-0.03158">
        <ele>1097.2</ele>
        <time>2024-08-15T07:19:08Z</time>
      </trkpt>
      <trkpt lat="42.97348" lon="-0.03158">
        <ele>1097.4</ele>
        <time>2024-08-15T07:19:09Z</time>
      </trkpt>
      <trkpt lat="42.97349" lon="-0.03157">
        <ele>1097.6</ele>
        <time>2024-08-15T07:19:10Z</time>
      </trkpt>
      <trkpt lat="42.97351" lon="-0.03158">
        <ele>1097.6</ele>
        <time>2024-08-15T07:19:11Z</time>
      </trkpt>
      <trkpt lat="42.97353" lon="-0.0316">
        <ele>1098</ele>
        <time>2024-08-15T07:19:12Z</time>
      </trkpt>
      <trkpt lat="42.97354" lon="-0.0316">
        <ele>1098</ele>
        <time>2024-08-15T07:19:13Z</time>
      </trkpt>
      <trkpt lat="42.97356" lon="-0.0316">
        <ele>1098.2</ele>
        <time>2024-08-15T07:19:14Z</time>
      </trkpt>
      <trkpt lat="42.97357" lon="-0.03159">
        <ele>1098.4</ele>
        <time>2024-08-15T07:19:15Z</time>
      </trkpt>
      <trkpt lat="42.97359" lon="-0.03159">
        <ele>1098.8</ele>
        <time>2024-08-15T07:19:16Z</time>
      </trkpt>
      <trkpt lat="42.97361" lon="-0.03159">
        <ele>1099</ele>
        <time>2024-08-15T07:19:17Z</time>
      </trkpt>
      <trkpt lat="42.97362" lon="-0.03158">
        <ele>1099.2</ele>
        <time>2024-08-15T07:19:18Z</time>
      </trkpt>
      <trkpt lat="42.97364" lon="-0.03158">
        <ele>1099.4</ele>
        <time>2024-08-15T07:19:19Z</time>
      </trkpt>
      <trkpt lat="42.97365" lon="-0.03157">
        <ele>1099.8</ele>
        <time>2024-08-15T07:19:20Z</time>
      </trkpt>
      <trkpt lat="42.97366" lon="-0.03156">
        <ele>1100</ele>
        <time>2024-08-15T07:19:21Z</time>
      </trkpt>
      <trkpt lat="42.97368" lon="-0.03155">
        <ele>1100.2</ele>
        <time>2024-08-15T07:19:22Z</time>
      </trkpt>
      <trkpt lat="42.97368" lon="-0.03154">
        <ele>1100.4</ele>
        <time>2024-08-15T07:19:23Z</time>
      </trkpt>
      <trkpt lat="42.97369" lon="-0.03153">
        <ele>1100.4</ele>
        <time>2024-08-15T07:19:24Z</time>
      </trkpt>
      <trkpt lat="42.97371" lon="-0.0315">
        <ele>1100.8</ele>
        <time>2024-08-15T07:19:25Z</time>
      </trkpt>
      <trkpt lat="42.97372" lon="-0.03148">
        <ele>1100.8</ele>
        <time>2024-08-15T07:19:26Z</time>
      </trkpt>
      <trkpt lat="42.97372" lon="-0.03146">
        <ele>1101</ele>
        <time>2024-08-15T07:19:27Z</time>
      </trkpt>
      <trkpt lat="42.97372" lon="-0.03144">
        <ele>1101.2</ele>
        <time>2024-08-15T07:19:28Z</time>
      </trkpt>
      <trkpt lat="42.97371" lon="-0.03142">
        <ele>1101.4</ele>
        <time>2024-08-15T07:19:29Z</time>
      </trkpt>
      <trkpt lat="42.9737" lon="-0.03141">
        <ele>1101.6</ele>
        <time>2024-08-15T07:19:30Z</time>
      </trkpt>
      <trkpt lat="42.97369" lon="-0.03139">
        <ele>1101.6</ele>
        <time>2024-08-15T07:19:31Z</time>
      </trkpt>
      <trkpt lat="42.97369" lon="-0.03138">
        <ele>1101.8</ele>
        <time>2024-08-15T07:19:32Z</time>
      </trkpt>
      <trkpt lat="42.97368" lon="-0.03136">
        <ele>1102</ele>
        <time>2024-08-15T07:19:33Z</time>
      </trkpt>
      <trkpt lat="42.97367" lon="-0.03136">
        <ele>1102</ele>
        <time>2024-08-15T07:19:34Z</time>
      </trkpt>
      <trkpt lat="42.97367" lon="-0.03136">
        <ele>1102.2</ele>
        <time>2024-08-15T07:19:35Z</time>
      </trkpt>
      <trkpt lat="42.97366" lon="-0.03136">
        <ele>1102.4</ele>
        <time>2024-08-15T07:19:36Z</time>
      </trkpt>
      <trkpt lat="42.97365" lon="-0.03136">
        <ele>1102.6</ele>
        <time>2024-08-15T07:19:37Z</time>
      </trkpt>
      <trkpt lat="42.97363" lon="-0.03135">
        <ele>1102.8</ele>
        <time>2024-08-15T07:19:38Z</time>
      </trkpt>
      <trkpt lat="42.97362" lon="-0.03135">
        <ele>1103</ele>
        <time>2024-08-15T07:19:39Z</time>
      </trkpt>
      <trkpt lat="42.97361" lon="-0.03135">
        <ele>1103</ele>
        <time>2024-08-15T07:19:40Z</time>
      </trkpt>
      <trkpt lat="42.9736" lon="-0.03135">
        <ele>1103.4</ele>
        <time>2024-08-15T07:19:41Z</time>
      </trkpt>
      <trkpt lat="42.97359" lon="-0.03135">
        <ele>1103.6</ele>
        <time>2024-08-15T07:19:42Z</time>
      </trkpt>
      <trkpt lat="42.97358" lon="-0.03135">
        <ele>1104</ele>
        <time>2024-08-15T07:19:43Z</time>
      </trkpt>
      <trkpt lat="42.97356" lon="-0.03134">
        <ele>1104.2</ele>
        <time>2024-08-15T07:19:44Z</time>
      </trkpt>
      <trkpt lat="42.97355" lon="-0.03134">
        <ele>1104.4</ele>
        <time>2024-08-15T07:19:45Z</time>
      </trkpt>
      <trkpt lat="42.97354" lon="-0.03133">
        <ele>1104.6</ele>
        <time>2024-08-15T07:19:46Z</time>
      </trkpt>
      <trkpt lat="42.97352" lon="-0.03133">
        <ele>1104.8</ele>
        <time>2024-08-15T07:19:47Z</time>
      </trkpt>
      <trkpt lat="42.97351" lon="-0.03133">
        <ele>1105</ele>
        <time>2024-08-15T07:19:48Z</time>
      </trkpt>
      <trkpt lat="42.97349" lon="-0.03133">
        <ele>1105.2</ele>
        <time>2024-08-15T07:19:49Z</time>
      </trkpt>
      <trkpt lat="42.97347" lon="-0.03132">
        <ele>1105.4</ele>
        <time>2024-08-15T07:19:50Z</time>
      </trkpt>
      <trkpt lat="42.97345" lon="-0.03131">
        <ele>1105.6</ele>
        <time>2024-08-15T07:19:51Z</time>
      </trkpt>
      <trkpt lat="42.97344" lon="-0.03131">
        <ele>1105.8</ele>
        <time>2024-08-15T07:19:52Z</time>
      </trkpt>
      <trkpt lat="42.97342" lon="-0.0313">
        <ele>1106</ele>
        <time>2024-08-15T07:19:53Z</time>
      </trkpt>
      <trkpt lat="42.97341" lon="-0.03129">
        <ele>1106</ele>
        <time>2024-08-15T07:19:54Z</time>
      </trkpt>
      <trkpt lat="42.9734" lon="-0.03129">
        <ele>1106.2</ele>
        <time>2024-08-15T07:19:55Z</time>
      </trkpt>
      <trkpt lat="42.97338" lon="-0.03128">
        <ele>1106.4</ele>
        <time>2024-08-15T07:19:56Z</time>
      </trkpt>
      <trkpt lat="42.97336" lon="-0.03128">
        <ele>1106.6</ele>
        <time>2024-08-15T07:19:57Z</time>
      </trkpt>
      <trkpt lat="42.97334" lon="-0.03127">
        <ele>1106.6</ele>
        <time>2024-08-15T07:19:58Z</time>
      </trkpt>
      <trkpt lat="42.97333" lon="-0.03126">
        <ele>1106.8</ele>
        <time>2024-08-15T07:19:59Z</time>
      </trkpt>
      <trkpt lat="42.9733" lon="-0.03124">
        <ele>1107.2</ele>
        <time>2024-08-15T07:20:00Z</time>
      </trkpt>
      <trkpt lat="42.97328" lon="-0.03122">
        <ele>1107.2</ele>
        <time>2024-08-15T07:20:01Z</time>
      </trkpt>
      <trkpt lat="42.97327" lon="-0.0312">
        <ele>1107.4</ele>
        <time>2024-08-15T07:20:02Z</time>
      </trkpt>
      <trkpt lat="42.97325" lon="-0.03118">
        <ele>1107.6</ele>
        <time>2024-08-15T07:20:03Z</time>
      </trkpt>
      <trkpt lat="42.97325" lon="-0.03117">
        <ele>1107.8</ele>
        <time>2024-08-15T07:20:04Z</time>
      </trkpt>
      <trkpt lat="42.97325" lon="-0.03115">
        <ele>1108</ele>
        <time>2024-08-15T07:20:05Z</time>
      </trkpt>
      <trkpt lat="42.97324" lon="-0.03114">
        <ele>1108.4</ele>
        <time>2024-08-15T07:20:06Z</time>
      </trkpt>
      <trkpt lat="42.97324" lon="-0.03114">
        <ele>1108.6</ele>
        <time>2024-08-15T07:20:07Z</time>
      </trkpt>
      <trkpt lat="42.97324" lon="-0.03113">
        <ele>1108.6</ele>
        <time>2024-08-15T07:20:08Z</time>
      </trkpt>
      <trkpt lat="42.97322" lon="-0.03113">
        <ele>1108.8</ele>
        <time>2024-08-15T07:20:09Z</time>
      </trkpt>
      <trkpt lat="42.9732" lon="-0.03112">
        <ele>1108.8</ele>
        <time>2024-08-15T07:20:10Z</time>
      </trkpt>
      <trkpt lat="42.97318" lon="-0.03112">
        <ele>1109</ele>
        <time>2024-08-15T07:20:11Z</time>
      </trkpt>
      <trkpt lat="42.97318" lon="-0.03112">
        <ele>1109</ele>
        <time>2024-08-15T07:20:12Z</time>
      </trkpt>
      <trkpt lat="42.97318" lon="-0.03112">
        <ele>1109.2</ele>
        <time>2024-08-15T07:20:13Z</time>
      </trkpt>
      <trkpt lat="42.97317" lon="-0.03112">
        <ele>1109.4</ele>
        <time>2024-08-15T07:20:14Z</time>
      </trkpt>
      <trkpt lat="42.97314" lon="-0.03114">
        <ele>1109.4</ele>
        <time>2024-08-15T07:20:15Z</time>
      </trkpt>
      <trkpt lat="42.97311" lon="-0.03113">
        <ele>1109.6</ele>
        <time>2024-08-15T07:20:16Z</time>
      </trkpt>
      <trkpt lat="42.9731" lon="-0.03113">
        <ele>1109.8</ele>
        <time>2024-08-15T07:20:17Z</time>
      </trkpt>
      <trkpt lat="42.9731" lon="-0.03112">
        <ele>1110</ele>
        <time>2024-08-15T07:20:18Z</time>
      </trkpt>
      <trkpt lat="42.97307" lon="-0.03113">
        <ele>1110.2</ele>
        <time>2024-08-15T07:20:19Z</time>
      </trkpt>
      <trkpt lat="42.97305" lon="-0.03114">
        <ele>1110.6</ele>
        <time>2024-08-15T07:20:20Z</time>
      </trkpt>
      <trkpt lat="42.97304" lon="-0.03114">
        <ele>1110.6</ele>
        <time>2024-08-15T07:20:21Z</time>
      </trkpt>
      <trkpt lat="42.97301" lon="-0.03114">
        <ele>1110.8</ele>
        <time>2024-08-15T07:20:22Z</time>
      </trkpt>
      <trkpt lat="42.97298" lon="-0.03113">
        <ele>1111</ele>
        <time>2024-08-15T07:20:23Z</time>
      </trkpt>
      <trkpt lat="42.97295" lon="-0.0311">
        <ele>1111</ele>
        <time>2024-08-15T07:20:24Z</time>
      </trkpt>
      <trkpt lat="42.97292" lon="-0.03109">
        <ele>1111.4</ele>
        <time>2024-08-15T07:20:25Z</time>
      </trkpt>
      <trkpt lat="42.97291" lon="-0.03108">
        <ele>1111.6</ele>
        <time>2024-08-15T07:20:26Z</time>
      </trkpt>
      <trkpt lat="42.97289" lon="-0.03107">
        <ele>1111.8</ele>
        <time>2024-08-15T07:20:27Z</time>
      </trkpt>
      <trkpt lat="42.97287" lon="-0.03105">
        <ele>1112</ele>
        <time>2024-08-15T07:20:28Z</time>
      </trkpt>
      <trkpt lat="42.97284" lon="-0.03103">
        <ele>1112.2</ele>
        <time>2024-08-15T07:20:29Z</time>
      </trkpt>
      <trkpt lat="42.97283" lon="-0.03102">
        <ele>1112.4</ele>
        <time>2024-08-15T07:20:30Z</time>
      </trkpt>
      <trkpt lat="42.97283" lon="-0.031">
        <ele>1112.4</ele>
        <time>2024-08-15T07:20:31Z</time>
      </trkpt>
      <trkpt lat="42.97281" lon="-0.03099">
        <ele>1112.6</ele>
        <time>2024-08-15T07:20:32Z</time>
      </trkpt>
      <trkpt lat="42.9728" lon="-0.03098">
        <ele>1112.6</ele>
        <time>2024-08-15T07:20:33Z</time>
      </trkpt>
      <trkpt lat="42.97277" lon="-0.03096">
        <ele>1112.8</ele>
        <time>2024-08-15T07:20:34Z</time>
      </trkpt>
      <trkpt lat="42.97276" lon="-0.03094">
        <ele>1113</ele>
        <time>2024-08-15T07:20:35Z</time>
      </trkpt>
      <trkpt lat="42.97275" lon="-0.03093">
        <ele>1113.2</ele>
        <time>2024-08-15T07:20:36Z</time>
      </trkpt>
      <trkpt lat="42.97273" lon="-0.03092">
        <ele>1113.2</ele>
        <time>2024-08-15T07:20:37Z</time>
      </trkpt>
      <trkpt lat="42.97272" lon="-0.03091">
        <ele>1113.4</ele>
        <time>2024-08-15T07:20:38Z</time>
      </trkpt>
      <trkpt lat="42.97271" lon="-0.03091">
        <ele>1113.6</ele>
        <time>2024-08-15T07:20:39Z</time>
      </trkpt>
      <trkpt lat="42.97269" lon="-0.03092">
        <ele>1113.6</ele>
        <time>2024-08-15T07:20:40Z</time>
      </trkpt>
      <trkpt lat="42.97268" lon="-0.03092">
        <ele>1114</ele>
        <time>2024-08-15T07:20:41Z</time>
      </trkpt>
      <trkpt lat="42.97267" lon="-0.03092">
        <ele>1114.2</ele>
        <time>2024-08-15T07:20:42Z</time>
      </trkpt>
      <trkpt lat="42.97266" lon="-0.03092">
        <ele>1114.4</ele>
        <time>2024-08-15T07:20:43Z</time>
      </trkpt>
      <trkpt lat="42.97266" lon="-0.03092">
        <ele>1114.4</ele>
        <time>2024-08-15T07:20:44Z</time>
      </trkpt>
      <trkpt lat="42.97265" lon="-0.03092">
        <ele>1114.6</ele>
        <time>2024-08-15T07:20:45Z</time>
      </trkpt>
      <trkpt lat="42.97263" lon="-0.03093">
        <ele>1114.8</ele>
        <time>2024-08-15T07:20:46Z</time>
      </trkpt>
      <trkpt lat="42.97261" lon="-0.03093">
        <ele>1115</ele>
        <time>2024-08-15T07:20:47Z</time>
      </trkpt>
      <trkpt lat="42.9726" lon="-0.03093">
        <ele>1115.2</ele>
        <time>2024-08-15T07:20:48Z</time>
      </trkpt>
      <trkpt lat="42.97258" lon="-0.03093">
        <ele>1115.2</ele>
        <time>2024-08-15T07:20:49Z</time>
      </trkpt>
      <trkpt lat="42.97256" lon="-0.03092">
        <ele>1115.4</ele>
        <time>2024-08-15T07:20:50Z</time>
      </trkpt>
      <trkpt lat="42.97254" lon="-0.03092">
        <ele>1115.6</ele>
        <time>2024-08-15T07:20:51Z</time>
      </trkpt>
      <trkpt lat="42.97252" lon="-0.03091">
        <ele>1115.8</ele>
        <time>2024-08-15T07:20:52Z</time>
      </trkpt>
      <trkpt lat="42.9725" lon="-0.03091">
        <ele>1116</ele>
        <time>2024-08-15T07:20:53Z</time>
      </trkpt>
      <trkpt lat="42.97248" lon="-0.0309">
        <ele>1116.2</ele>
        <time>2024-08-15T07:20:54Z</time>
      </trkpt>
      <trkpt lat="42.97246" lon="-0.0309">
        <ele>1116.4</ele>
        <time>2024-08-15T07:20:55Z</time>
      </trkpt>
      <trkpt lat="42.97244" lon="-0.03089">
        <ele>1116.6</ele>
        <time>2024-08-15T07:20:56Z</time>
      </trkpt>
      <trkpt lat="42.97242" lon="-0.03089">
        <ele>1116.8</ele>
        <time>2024-08-15T07:20:57Z</time>
      </trkpt>
      <trkpt lat="42.9724" lon="-0.03088">
        <ele>1117</ele>
        <time>2024-08-15T07:20:58Z</time>
      </trkpt>
      <trkpt lat="42.97239" lon="-0.03088">
        <ele>1117.2</ele>
        <time>2024-08-15T07:20:59Z</time>
      </trkpt>
      <trkpt lat="42.97237" lon="-0.03087">
        <ele>1117.2</ele>
        <time>2024-08-15T07:21:00Z</time>
      </trkpt>
      <trkpt lat="42.97235" lon="-0.03086">
        <ele>1117.4</ele>
        <time>2024-08-15T07:21:01Z</time>
      </trkpt>
      <trkpt lat="42.97232" lon="-0.03085">
        <ele>1117.6</ele>
        <time>2024-08-15T07:21:02Z</time>
      </trkpt>
      <trkpt lat="42.9723" lon="-0.03084">
        <ele>1117.8</ele>
        <time>2024-08-15T07:21:03Z</time>
      </trkpt>
      <trkpt lat="42.97229" lon="-0.03083">
        <ele>1117.8</ele>
        <time>2024-08-15T07:21:04Z</time>
      </trkpt>
      <trkpt lat="42.97228" lon="-0.03082">
        <ele>1117.8</ele>
        <time>2024-08-15T07:21:05Z</time>
      </trkpt>
      <trkpt lat="42.97226" lon="-0.0308">
        <ele>1118.2</ele>
        <time>2024-08-15T07:21:06Z</time>
      </trkpt>
      <trkpt lat="42.97224" lon="-0.03079">
        <ele>1118.2</ele>
        <time>2024-08-15T07:21:07Z</time>
      </trkpt>
      <trkpt lat="42.97222" lon="-0.03076">
        <ele>1118.4</ele>
        <time>2024-08-15T07:21:08Z</time>
      </trkpt>
      <trkpt lat="42.9722" lon="-0.03074">
        <ele>1118.4</ele>
        <time>2024-08-15T07:21:09Z</time>
      </trkpt>
      <trkpt lat="42.97218" lon="-0.03072">
        <ele>1118.6</ele>
        <time>2024-08-15T07:21:10Z</time>
      </trkpt>
      <trkpt lat="42.97216" lon="-0.03071">
        <ele>1118.8</ele>
        <time>2024-08-15T07:21:11Z</time>
      </trkpt>
      <trkpt lat="42.97215" lon="-0.03069">
        <ele>1119</ele>
        <time>2024-08-15T07:21:12Z</time>
      </trkpt>
      <trkpt lat="42.97214" lon="-0.03067">
        <ele>1119.2</ele>
        <time>2024-08-15T07:21:13Z</time>
      </trkpt>
      <trkpt lat="42.97213" lon="-0.03064">
        <ele>1119.2</ele>
        <time>2024-08-15T07:21:14Z</time>
      </trkpt>
      <trkpt lat="42.97213" lon="-0.03062">
        <ele>1119.6</ele>
        <time>2024-08-15T07:21:15Z</time>
      </trkpt>
      <trkpt lat="42.97214" lon="-0.03059">
        <ele>1119.6</ele>
        <time>2024-08-15T07:21:16Z</time>
      </trkpt>
      <trkpt lat="42.97213" lon="-0.03055">
        <ele>1120</ele>
        <time>2024-08-15T07:21:17Z</time>
      </trkpt>
      <trkpt lat="42.97212" lon="-0.03052">
        <ele>1120.2</ele>
        <time>2024-08-15T07:21:18Z</time>
      </trkpt>
      <trkpt lat="42.97212" lon="-0.03049">
        <ele>1120.2</ele>
        <time>2024-08-15T07:21:19Z</time>
      </trkpt>
      <trkpt lat="42.97212" lon="-0.03047">
        <ele>1120.4</ele>
        <time>2024-08-15T07:21:20Z</time>
      </trkpt>
      <trkpt lat="42.97212" lon="-0.03044">
        <ele>1120.4</ele>
        <time>2024-08-15T07:21:21Z</time>
      </trkpt>
      <trkpt lat="42.9721" lon="-0.03041">
        <ele>1120.6</ele>
        <time>2024-08-15T07:21:22Z</time>
      </trkpt>
      <trkpt lat="42.97209" lon="-0.03038">
        <ele>1120.6</ele>
        <time>2024-08-15T07:21:23Z</time>
      </trkpt>
      <trkpt lat="42.97208" lon="-0.03035">
        <ele>1120.8</ele>
        <time>2024-08-15T07:21:24Z</time>
      </trkpt>
      <trkpt lat="42.97206" lon="-0.03032">
        <ele>1121</ele>
        <time>2024-08-15T07:21:25Z</time>
      </trkpt>
      <trkpt lat="42.97204" lon="-0.0303">
        <ele>1121</ele>
        <time>2024-08-15T07:21:26Z</time>
      </trkpt>
      <trkpt lat="42.97203" lon="-0.03028">
        <ele>1121.2</ele>
        <time>2024-08-15T07:21:27Z</time>
      </trkpt>
      <trkpt lat="42.97201" lon="-0.03026">
        <ele>1121.2</ele>
        <time>2024-08-15T07:21:28Z</time>
      </trkpt>
      <trkpt lat="42.972" lon="-0.03024">
        <ele>1121.4</ele>
        <time>2024-08-15T07:21:29Z</time>
      </trkpt>
      <trkpt lat="42.97199" lon="-0.03021">
        <ele>1121.4</ele>
        <time>2024-08-15T07:21:30Z</time>
      </trkpt>
      <trkpt lat="42.97197" lon="-0.03019">
        <ele>1121.4</ele>
        <time>2024-08-15T07:21:31Z</time>
      </trkpt>
      <trkpt lat="42.97196" lon="-0.03017">
        <ele>1121.4</ele>
        <time>2024-08-15T07:21:32Z</time>
      </trkpt>
      <trkpt lat="42.97194" lon="-0.03015">
        <ele>1121.6</ele>
        <time>2024-08-15T07:21:33Z</time>
      </trkpt>
      <trkpt lat="42.97192" lon="-0.03012">
        <ele>1121.8</ele>
        <time>2024-08-15T07:21:34Z</time>
      </trkpt>
      <trkpt lat="42.9719" lon="-0.03009">
        <ele>1122</ele>
        <time>2024-08-15T07:21:35Z</time>
      </trkpt>
      <trkpt lat="42.97188" lon="-0.03007">
        <ele>1122.2</ele>
        <time>2024-08-15T07:21:36Z</time>
      </trkpt>
      <trkpt lat="42.97186" lon="-0.03005">
        <ele>1122.2</ele>
        <time>2024-08-15T07:21:37Z</time>
      </trkpt>
      <trkpt lat="42.97184" lon="-0.03003">
        <ele>1122.4</ele>
        <time>2024-08-15T07:21:38Z</time>
      </trkpt>
      <trkpt lat="42.97182" lon="-0.03002">
        <ele>1122.4</ele>
        <time>2024-08-15T07:21:39Z</time>
      </trkpt>
      <trkpt lat="42.9718" lon="-0.02999">
        <ele>1122.6</ele>
        <time>2024-08-15T07:21:40Z</time>
      </trkpt>
      <trkpt lat="42.97179" lon="-0.02997">
        <ele>1123</ele>
        <time>2024-08-15T07:21:41Z</time>
      </trkpt>
      <trkpt lat="42.97177" lon="-0.02995">
        <ele>1123</ele>
        <time>2024-08-15T07:21:42Z</time>
      </trkpt>
      <trkpt lat="42.97177" lon="-0.02992">
        <ele>1123</ele>
        <time>2024-08-15T07:21:43Z</time>
      </trkpt>
      <trkpt lat="42.97176" lon="-0.0299">
        <ele>1123.2</ele>
        <time>2024-08-15T07:21:44Z</time>
      </trkpt>
      <trkpt lat="42.97174" lon="-0.02988">
        <ele>1123.2</ele>
        <time>2024-08-15T07:21:45Z</time>
      </trkpt>
      <trkpt lat="42.97173" lon="-0.02986">
        <ele>1123.2</ele>
        <time>2024-08-15T07:21:46Z</time>
      </trkpt>
      <trkpt lat="42.97171" lon="-0.02984">
        <ele>1123.4</ele>
        <time>2024-08-15T07:21:47Z</time>
      </trkpt>
      <trkpt lat="42.97169" lon="-0.02981">
        <ele>1123.4</ele>
        <time>2024-08-15T07:21:48Z</time>
      </trkpt>
      <trkpt lat="42.97167" lon="-0.02978">
        <ele>1123.8</ele>
        <time>2024-08-15T07:21:49Z</time>
      </trkpt>
      <trkpt lat="42.97164" lon="-0.02975">
        <ele>1124.2</ele>
        <time>2024-08-15T07:21:50Z</time>
      </trkpt>
      <trkpt lat="42.97163" lon="-0.02971">
        <ele>1124.2</ele>
        <time>2024-08-15T07:21:51Z</time>
      </trkpt>
      <trkpt lat="42.97161" lon="-0.02969">
        <ele>1124.4</ele>
        <time>2024-08-15T07:21:52Z</time>
      </trkpt>
      <trkpt lat="42.97159" lon="-0.02968">
        <ele>1124.4</ele>
        <time>2024-08-15T07:21:53Z</time>
      </trkpt>
      <trkpt lat="42.97157" lon="-0.02967">
        <ele>1124.8</ele>
        <time>2024-08-15T07:21:54Z</time>
      </trkpt>
      <trkpt lat="42.97155" lon="-0.02964">
        <ele>1125</ele>
        <time>2024-08-15T07:21:55Z</time>
      </trkpt>
      <trkpt lat="42.97154" lon="-0.02963">
        <ele>1125.4</ele>
        <time>2024-08-15T07:21:56Z</time>
      </trkpt>
      <trkpt lat="42.9715" lon="-0.02961">
        <ele>1125.6</ele>
        <time>2024-08-15T07:21:57Z</time>
      </trkpt>
      <trkpt lat="42.97147" lon="-0.02959">
        <ele>1125.8</ele>
        <time>2024-08-15T07:21:58Z</time>
      </trkpt>
      <trkpt lat="42.97145" lon="-0.02958">
        <ele>1125.8</ele>
        <time>2024-08-15T07:21:59Z</time>
      </trkpt>
      <trkpt lat="42.97144" lon="-0.02956">
        <ele>1126</ele>
        <time>2024-08-15T07:22:00Z</time>
      </trkpt>
      <trkpt lat="42.97143" lon="-0.02956">
        <ele>1126.2</ele>
        <time>2024-08-15T07:22:01Z</time>
      </trkpt>
      <trkpt lat="42.97143" lon="-0.02955">
        <ele>1126.4</ele>
        <time>2024-08-15T07:22:02Z</time>
      </trkpt>
      <trkpt lat="42.97142" lon="-0.02955">
        <ele>1126.6</ele>
        <time>2024-08-15T07:22:03Z</time>
      </trkpt>
      <trkpt lat="42.9714" lon="-0.02955">
        <ele>1126.8</ele>
        <time>2024-08-15T07:22:04Z</time>
      </trkpt>
      <trkpt lat="42.97139" lon="-0.02955">
        <ele>1126.8</ele>
        <time>2024-08-15T07:22:05Z</time>
      </trkpt>
      <trkpt lat="42.97139" lon="-0.02954">
        <ele>1127</ele>
        <time>2024-08-15T07:22:06Z</time>
      </trkpt>
      <trkpt lat="42.97139" lon="-0.02954">
        <ele>1127.2</ele>
        <time>2024-08-15T07:22:07Z</time>
      </trkpt>
      <trkpt lat="42.97139" lon="-0.02954">
        <ele>1127.2</ele>
        <time>2024-08-15T07:22:08Z</time>
      </trkpt>
      <trkpt lat="42.97138" lon="-0.02954">
        <ele>1127.4</ele>
        <time>2024-08-15T07:22:09Z</time>
      </trkpt>
      <trkpt lat="42.97138" lon="-0.02954">
        <ele>1127.6</ele>
        <time>2024-08-15T07:22:10Z</time>
      </trkpt>
      <trkpt lat="42.97138" lon="-0.02953">
        <ele>1127.8</ele>
        <time>2024-08-15T07:22:11Z</time>
      </trkpt>
      <trkpt lat="42.97138" lon="-0.02953">
        <ele>1128.2</ele>
        <time>2024-08-15T07:22:12Z</time>
      </trkpt>
      <trkpt lat="42.97138" lon="-0.02953">
        <ele>1128.6</ele>
        <time>2024-08-15T07:22:13Z</time>
      </trkpt>
      <trkpt lat="42.97138" lon="-0.02953">
        <ele>1128.8</ele>
        <time>2024-08-15T07:22:14Z</time>
      </trkpt>
      <trkpt lat="42.97138" lon="-0.02953">
        <ele>1129</ele>
        <time>2024-08-15T07:22:15Z</time>
      </trkpt>
      <trkpt lat="42.97138" lon="-0.02953">
        <ele>1129.2</ele>
        <time>2024-08-15T07:22:16Z</time>
      </trkpt>
      <trkpt lat="42.97138" lon="-0.02953">
        <ele>1129.6</ele>
        <time>2024-08-15T07:22:17Z</time>
      </trkpt>
      <trkpt lat="42.97138" lon="-0.02953">
        <ele>1129.6</ele>
        <time>2024-08-15T07:22:18Z</time>
      </trkpt>
      <trkpt lat="42.97138" lon="-0.02953">
        <ele>1130</ele>
        <time>2024-08-15T07:22:19Z</time>
      </trkpt>
      <trkpt lat="42.97138" lon="-0.02953">
        <ele>1130.2</ele>
        <time>2024-08-15T07:22:20Z</time>
      </trkpt>
      <trkpt lat="42.97134" lon="-0.02951">
        <ele>1130.4</ele>
        <time>2024-08-15T07:22:21Z</time>
      </trkpt>
      <trkpt lat="42.9713" lon="-0.02949">
        <ele>1130.8</ele>
        <time>2024-08-15T07:22:22Z</time>
      </trkpt>
      <trkpt lat="42.97129" lon="-0.02949">
        <ele>1130.8</ele>
        <time>2024-08-15T07:22:23Z</time>
      </trkpt>
      <trkpt lat="42.97129" lon="-0.02949">
        <ele>1131.2</ele>
        <time>2024-08-15T07:22:24Z</time>
      </trkpt>
      <trkpt lat="42.97129" lon="-0.02949">
        <ele>1131.2</ele>
        <time>2024-08-15T07:22:25Z</time>
      </trkpt>
      <trkpt lat="42.97129" lon="-0.02949">
        <ele>1131.6</ele>
        <time>2024-08-15T07:22:26Z</time>
      </trkpt>
      <trkpt lat="42.97129" lon="-0.02949">
        <ele>1131.8</ele>
        <time>2024-08-15T07:22:27Z</time>
      </trkpt>
      <trkpt lat="42.97129" lon="-0.02949">
        <ele>1132</ele>
        <time>2024-08-15T07:22:28Z</time>
      </trkpt>
      <trkpt lat="42.97129" lon="-0.02949">
        <ele>1132.4</ele>
        <time>2024-08-15T07:22:29Z</time>
      </trkpt>
      <trkpt lat="42.97129" lon="-0.02949">
        <ele>1132.6</ele>
        <time>2024-08-15T07:22:30Z</time>
      </trkpt>
      <trkpt lat="42.97129" lon="-0.02949">
        <ele>1132.8</ele>
        <time>2024-08-15T07:22:31Z</time>
      </trkpt>
      <trkpt lat="42.97128" lon="-0.02949">
        <ele>1133</ele>
        <time>2024-08-15T07:22:32Z</time>
      </trkpt>
      <trkpt lat="42.97125" lon="-0.02948">
        <ele>1133.2</ele>
        <time>2024-08-15T07:22:33Z</time>
      </trkpt>
      <trkpt lat="42.9712" lon="-0.02948">
        <ele>1133.4</ele>
        <time>2024-08-15T07:22:34Z</time>
      </trkpt>
      <trkpt lat="42.97117" lon="-0.02947">
        <ele>1133.6</ele>
        <time>2024-08-15T07:22:35Z</time>
      </trkpt>
      <trkpt lat="42.97113" lon="-0.02946">
        <ele>1133.6</ele>
        <time>2024-08-15T07:22:36Z</time>
      </trkpt>
      <trkpt lat="42.97111" lon="-0.02945">
        <ele>1133.8</ele>
        <time>2024-08-15T07:22:37Z</time>
      </trkpt>
      <trkpt lat="42.97107" lon="-0.02944">
        <ele>1133.8</ele>
        <time>2024-08-15T07:22:38Z</time>
      </trkpt>
      <trkpt lat="42.97104" lon="-0.02944">
        <ele>1134</ele>
        <time>2024-08-15T07:22:39Z</time>
      </trkpt>
      <trkpt lat="42.97102" lon="-0.02943">
        <ele>1134.2</ele>
        <time>2024-08-15T07:22:40Z</time>
      </trkpt>
      <trkpt lat="42.971" lon="-0.02943">
        <ele>1134.2</ele>
        <time>2024-08-15T07:22:41Z</time>
      </trkpt>
      <trkpt lat="42.97098" lon="-0.02942">
        <ele>1134.4</ele>
        <time>2024-08-15T07:22:42Z</time>
      </trkpt>
      <trkpt lat="42.97096" lon="-0.02942">
        <ele>1134.4</ele>
        <time>2024-08-15T07:22:43Z</time>
      </trkpt>
      <trkpt lat="42.97093" lon="-0.02941">
        <ele>1134.4</ele>
        <time>2024-08-15T07:22:44Z</time>
      </trkpt>
      <trkpt lat="42.97091" lon="-0.0294">
        <ele>1134.6</ele>
        <time>2024-08-15T07:22:45Z</time>
      </trkpt>
      <trkpt lat="42.97089" lon="-0.0294">
        <ele>1134.8</ele>
        <time>2024-08-15T07:22:46Z</time>
      </trkpt>
      <trkpt lat="42.97086" lon="-0.02939">
        <ele>1135</ele>
        <time>2024-08-15T07:22:47Z</time>
      </trkpt>
      <trkpt lat="42.97084" lon="-0.02938">
        <ele>1135.2</ele>
        <time>2024-08-15T07:22:48Z</time>
      </trkpt>
      <trkpt lat="42.97082" lon="-0.02937">
        <ele>1135.2</ele>
        <time>2024-08-15T07:22:49Z</time>
      </trkpt>
      <trkpt lat="42.97082" lon="-0.02936">
        <ele>1135.4</ele>
        <time>2024-08-15T07:22:50Z</time>
      </trkpt>
      <trkpt lat="42.97081" lon="-0.02936">
        <ele>1135.4</ele>
        <time>2024-08-15T07:22:51Z</time>
      </trkpt>
      <trkpt lat="42.9708" lon="-0.02936">
        <ele>1135.6</ele>
        <time>2024-08-15T07:22:52Z</time>
      </trkpt>
      <trkpt lat="42.97077" lon="-0.02935">
        <ele>1135.6</ele>
        <time>2024-08-15T07:22:53Z</time>
      </trkpt>
      <trkpt lat="42.97075" lon="-0.02935">
        <ele>1135.8</ele>
        <time>2024-08-15T07:22:54Z</time>
      </trkpt>
      <trkpt lat="42.97074" lon="-0.02935">
        <ele>1135.8</ele>
        <time>2024-08-15T07:22:55Z</time>
      </trkpt>
      <trkpt lat="42.97072" lon="-0.02935">
        <ele>1136</ele>
        <time>2024-08-15T07:22:56Z</time>
      </trkpt>
      <trkpt lat="42.97069" lon="-0.02934">
        <ele>1136.2</ele>
        <time>2024-08-15T07:22:57Z</time>
      </trkpt>
      <trkpt lat="42.97067" lon="-0.02934">
        <ele>1136.4</ele>
        <time>2024-08-15T07:22:58Z</time>
      </trkpt>
      <trkpt lat="42.97064" lon="-0.02933">
        <ele>1136.4</ele>
        <time>2024-08-15T07:22:59Z</time>
      </trkpt>
      <trkpt lat="42.97063" lon="-0.02932">
        <ele>1136.6</ele>
        <time>2024-08-15T07:23:00Z</time>
      </trkpt>
      <trkpt lat="42.97061" lon="-0.0293">
        <ele>1136.8</ele>
        <time>2024-08-15T07:23:01Z</time>
      </trkpt>
      <trkpt lat="42.97059" lon="-0.0293">
        <ele>1137</ele>
        <time>2024-08-15T07:23:02Z</time>
      </trkpt>
      <trkpt lat="42.97057" lon="-0.02929">
        <ele>1137</ele>
        <time>2024-08-15T07:23:03Z</time>
      </trkpt>
      <trkpt lat="42.97056" lon="-0.02928">
        <ele>1137.2</ele>
        <time>2024-08-15T07:23:04Z</time>
      </trkpt>
      <trkpt lat="42.97054" lon="-0.02926">
        <ele>1137.4</ele>
        <time>2024-08-15T07:23:05Z</time>
      </trkpt>
      <trkpt lat="42.97052" lon="-0.02925">
        <ele>1137.4</ele>
        <time>2024-08-15T07:23:06Z</time>
      </trkpt>
      <trkpt lat="42.9705" lon="-0.02924">
        <ele>1137.8</ele>
        <time>2024-08-15T07:23:07Z</time>
      </trkpt>
      <trkpt lat="42.97048" lon="-0.02923">
        <ele>1138</ele>
        <time>2024-08-15T07:23:08Z</time>
      </trkpt>
      <trkpt lat="42.97045" lon="-0.02922">
        <ele>1138.2</ele>
        <time>2024-08-15T07:23:09Z</time>
      </trkpt>
      <trkpt lat="42.97042" lon="-0.02921">
        <ele>1138.2</ele>
        <time>2024-08-15T07:23:10Z</time>
      </trkpt>
      <trkpt lat="42.9704" lon="-0.0292">
        <ele>1138.4</ele>
        <time>2024-08-15T07:23:11Z</time>
      </trkpt>
      <trkpt lat="42.97038" lon="-0.02919">
        <ele>1138.4</ele>
        <time>2024-08-15T07:23:12Z</time>
      </trkpt>
      <trkpt lat="42.97036" lon="-0.02918">
        <ele>1138.6</ele>
        <time>2024-08-15T07:23:13Z</time>
      </trkpt>
      <trkpt lat="42.97034" lon="-0.02918">
        <ele>1138.8</ele>
        <time>2024-08-15T07:23:14Z</time>
      </trkpt>
      <trkpt lat="42.97032" lon="-0.02918">
        <ele>1138.8</ele>
        <time>2024-08-15T07:23:15Z</time>
      </trkpt>
      <trkpt lat="42.9703" lon="-0.02918">
        <ele>1139</ele>
        <time>2024-08-15T07:23:16Z</time>
      </trkpt>
      <trkpt lat="42.97028" lon="-0.02917">
        <ele>1139.2</ele>
        <time>2024-08-15T07:23:17Z</time>
      </trkpt>
      <trkpt lat="42.97026" lon="-0.02917">
        <ele>1139.4</ele>
        <time>2024-08-15T07:23:18Z</time>
      </trkpt>
      <trkpt lat="42.97023" lon="-0.02917">
        <ele>1139.4</ele>
        <time>2024-08-15T07:23:19Z</time>
      </trkpt>
      <trkpt lat="42.97021" lon="-0.02917">
        <ele>1139.6</ele>
        <time>2024-08-15T07:23:20Z</time>
      </trkpt>
      <trkpt lat="42.97019" lon="-0.02917">
        <ele>1139.8</ele>
        <time>2024-08-15T07:23:21Z</time>
      </trkpt>
      <trkpt lat="42.97018" lon="-0.02917">
        <ele>1140</ele>
        <time>2024-08-15T07:23:22Z</time>
      </trkpt>
      <trkpt lat="42.97016" lon="-0.02916">
        <ele>1140.4</ele>
        <time>2024-08-15T07:23:23Z</time>
      </trkpt>
      <trkpt lat="42.97013" lon="-0.02916">
        <ele>1140.6</ele>
        <time>2024-08-15T07:23:24Z</time>
      </trkpt>
      <trkpt lat="42.97011" lon="-0.02916">
        <ele>1140.6</ele>
        <time>2024-08-15T07:23:25Z</time>
      </trkpt>
      <trkpt lat="42.97009" lon="-0.02916">
        <ele>1140.8</ele>
        <time>2024-08-15T07:23:26Z</time>
      </trkpt>
      <trkpt lat="42.97007" lon="-0.02916">
        <ele>1140.8</ele>
        <time>2024-08-15T07:23:27Z</time>
      </trkpt>
      <trkpt lat="42.97005" lon="-0.02916">
        <ele>1141</ele>
        <time>2024-08-15T07:23:28Z</time>
      </trkpt>
      <trkpt lat="42.97004" lon="-0.02915">
        <ele>1141</ele>
        <time>2024-08-15T07:23:29Z</time>
      </trkpt>
      <trkpt lat="42.97002" lon="-0.02915">
        <ele>1141.6</ele>
        <time>2024-08-15T07:23:30Z</time>
      </trkpt>
      <trkpt lat="42.97001" lon="-0.02915">
        <ele>1141.8</ele>
        <time>2024-08-15T07:23:31Z</time>
      </trkpt>
      <trkpt lat="42.96999" lon="-0.02914">
        <ele>1142</ele>
        <time>2024-08-15T07:23:32Z</time>
      </trkpt>
      <trkpt lat="42.96997" lon="-0.02913">
        <ele>1142</ele>
        <time>2024-08-15T07:23:33Z</time>
      </trkpt>
      <trkpt lat="42.96995" lon="-0.02912">
        <ele>1142.2</ele>
        <time>2024-08-15T07:23:34Z</time>
      </trkpt>
      <trkpt lat="42.96994" lon="-0.02912">
        <ele>1142.4</ele>
        <time>2024-08-15T07:23:35Z</time>
      </trkpt>
      <trkpt lat="42.96993" lon="-0.02911">
        <ele>1142.4</ele>
        <time>2024-08-15T07:23:36Z</time>
      </trkpt>
      <trkpt lat="42.96991" lon="-0.0291">
        <ele>1142.6</ele>
        <time>2024-08-15T07:23:37Z</time>
      </trkpt>
      <trkpt lat="42.96989" lon="-0.0291">
        <ele>1142.6</ele>
        <time>2024-08-15T07:23:38Z</time>
      </trkpt>
      <trkpt lat="42.96988" lon="-0.02908">
        <ele>1142.8</ele>
        <time>2024-08-15T07:23:39Z</time>
      </trkpt>
      <trkpt lat="42.96987" lon="-0.02908">
        <ele>1143</ele>
        <time>2024-08-15T07:23:40Z</time>
      </trkpt>
      <trkpt lat="42.96985" lon="-0.02907">
        <ele>1143</ele>
        <time>2024-08-15T07:23:41Z</time>
      </trkpt>
      <trkpt lat="42.96983" lon="-0.02905">
        <ele>1143.4</ele>
        <time>2024-08-15T07:23:42Z</time>
      </trkpt>
      <trkpt lat="42.96982" lon="-0.02904">
        <ele>1143.4</ele>
        <time>2024-08-15T07:23:43Z</time>
      </trkpt>
      <trkpt lat="42.9698" lon="-0.02903">
        <ele>1143.6</ele>
        <time>2024-08-15T07:23:44Z</time>
      </trkpt>
      <trkpt lat="42.96979" lon="-0.02902">
        <ele>1143.6</ele>
        <time>2024-08-15T07:23:45Z</time>
      </trkpt>
      <trkpt lat="42.96978" lon="-0.02901">
        <ele>1143.8</ele>
        <time>2024-08-15T07:23:46Z</time>
      </trkpt>
      <trkpt lat="42.96976" lon="-0.02899">
        <ele>1144</ele>
        <time>2024-08-15T07:23:47Z</time>
      </trkpt>
      <trkpt lat="42.96975" lon="-0.02897">
        <ele>1144.2</ele>
        <time>2024-08-15T07:23:48Z</time>
      </trkpt>
      <trkpt lat="42.96974" lon="-0.02896">
        <ele>1144.4</ele>
        <time>2024-08-15T07:23:49Z</time>
      </trkpt>
      <trkpt lat="42.96972" lon="-0.02895">
        <ele>1144.6</ele>
        <time>2024-08-15T07:23:50Z</time>
      </trkpt>
      <trkpt lat="42.96971" lon="-0.02893">
        <ele>1144.8</ele>
        <time>2024-08-15T07:23:51Z</time>
      </trkpt>
      <trkpt lat="42.96969" lon="-0.02892">
        <ele>1145</ele>
        <time>2024-08-15T07:23:52Z</time>
      </trkpt>
      <trkpt lat="42.96968" lon="-0.02891">
        <ele>1145</ele>
        <time>2024-08-15T07:23:53Z</time>
      </trkpt>
      <trkpt lat="42.96966" lon="-0.02891">
        <ele>1145.2</ele>
        <time>2024-08-15T07:23:54Z</time>
      </trkpt>
      <trkpt lat="42.96964" lon="-0.0289">
        <ele>1145.4</ele>
        <time>2024-08-15T07:23:55Z</time>
      </trkpt>
      <trkpt lat="42.96962" lon="-0.0289">
        <ele>1145.6</ele>
        <time>2024-08-15T07:23:56Z</time>
      </trkpt>
      <trkpt lat="42.9696" lon="-0.0289">
        <ele>1145.6</ele>
        <time>2024-08-15T07:23:57Z</time>
      </trkpt>
      <trkpt lat="42.96958" lon="-0.0289">
        <ele>1145.6</ele>
        <time>2024-08-15T07:23:58Z</time>
      </trkpt>
      <trkpt lat="42.96956" lon="-0.02889">
        <ele>1145.6</ele>
        <time>2024-08-15T07:23:59Z</time>
      </trkpt>
      <trkpt lat="42.96954" lon="-0.02889">
        <ele>1145.8</ele>
        <time>2024-08-15T07:24:00Z</time>
      </trkpt>
      <trkpt lat="42.96952" lon="-0.02889">
        <ele>1145.8</ele>
        <time>2024-08-15T07:24:01Z</time>
      </trkpt>
      <trkpt lat="42.9695" lon="-0.02889">
        <ele>1145.8</ele>
        <time>2024-08-15T07:24:02Z</time>
      </trkpt>
      <trkpt lat="42.96947" lon="-0.02889">
        <ele>1146</ele>
        <time>2024-08-15T07:24:03Z</time>
      </trkpt>
      <trkpt lat="42.96946" lon="-0.02889">
        <ele>1146</ele>
        <time>2024-08-15T07:24:04Z</time>
      </trkpt>
      <trkpt lat="42.96944" lon="-0.02888">
        <ele>1146.2</ele>
        <time>2024-08-15T07:24:05Z</time>
      </trkpt>
      <trkpt lat="42.96941" lon="-0.02888">
        <ele>1146.2</ele>
        <time>2024-08-15T07:24:06Z</time>
      </trkpt>
      <trkpt lat="42.96939" lon="-0.02887">
        <ele>1146.4</ele>
        <time>2024-08-15T07:24:07Z</time>
      </trkpt>
      <trkpt lat="42.96937" lon="-0.02887">
        <ele>1146.2</ele>
        <time>2024-08-15T07:24:08Z</time>
      </trkpt>
      <trkpt lat="42.96935" lon="-0.02886">
        <ele>1146.4</ele>
        <time>2024-08-15T07:24:09Z</time>
      </trkpt>
      <trkpt lat="42.96933" lon="-0.02885">
        <ele>1146.4</ele>
        <time>2024-08-15T07:24:10Z</time>
      </trkpt>
      <trkpt lat="42.96931" lon="-0.02884">
        <ele>1146.4</ele>
        <time>2024-08-15T07:24:11Z</time>
      </trkpt>
      <trkpt lat="42.96929" lon="-0.02884">
        <ele>1146.4</ele>
        <time>2024-08-15T07:24:12Z</time>
      </trkpt>
      <trkpt lat="42.96927" lon="-0.02883">
        <ele>1146.4</ele>
        <time>2024-08-15T07:24:13Z</time>
      </trkpt>
      <trkpt lat="42.96925" lon="-0.02882">
        <ele>1146.6</ele>
        <time>2024-08-15T07:24:14Z</time>
      </trkpt>
      <trkpt lat="42.96922" lon="-0.02882">
        <ele>1146.8</ele>
        <time>2024-08-15T07:24:15Z</time>
      </trkpt>
      <trkpt lat="42.96921" lon="-0.0288">
        <ele>1147</ele>
        <time>2024-08-15T07:24:16Z</time>
      </trkpt>
      <trkpt lat="42.96919" lon="-0.02879">
        <ele>1147</ele>
        <time>2024-08-15T07:24:17Z</time>
      </trkpt>
      <trkpt lat="42.96918" lon="-0.02877">
        <ele>1147.2</ele>
        <time>2024-08-15T07:24:18Z</time>
      </trkpt>
      <trkpt lat="42.96917" lon="-0.02875">
        <ele>1147.4</ele>
        <time>2024-08-15T07:24:19Z</time>
      </trkpt>
      <trkpt lat="42.96916" lon="-0.0287">
        <ele>1147.8</ele>
        <time>2024-08-15T07:24:21Z</time>
      </trkpt>
      <trkpt lat="42.96916" lon="-0.02868">
        <ele>1147.8</ele>
        <time>2024-08-15T07:24:22Z</time>
      </trkpt>
      <trkpt lat="42.96916" lon="-0.02866">
        <ele>1148.2</ele>
        <time>2024-08-15T07:24:23Z</time>
      </trkpt>
      <trkpt lat="42.96916" lon="-0.02863">
        <ele>1148.2</ele>
        <time>2024-08-15T07:24:24Z</time>
      </trkpt>
      <trkpt lat="42.96916" lon="-0.02861">
        <ele>1148.6</ele>
        <time>2024-08-15T07:24:25Z</time>
      </trkpt>
      <trkpt lat="42.96916" lon="-0.02858">
        <ele>1148.8</ele>
        <time>2024-08-15T07:24:26Z</time>
      </trkpt>
      <trkpt lat="42.96916" lon="-0.02856">
        <ele>1148.8</ele>
        <time>2024-08-15T07:24:27Z</time>
      </trkpt>
      <trkpt lat="42.96917" lon="-0.02854">
        <ele>1149</ele>
        <time>2024-08-15T07:24:28Z</time>
      </trkpt>
      <trkpt lat="42.96918" lon="-0.02852">
        <ele>1149</ele>
        <time>2024-08-15T07:24:29Z</time>
      </trkpt>
      <trkpt lat="42.96918" lon="-0.02849">
        <ele>1149.2</ele>
        <time>2024-08-15T07:24:30Z</time>
      </trkpt>
      <trkpt lat="42.96919" lon="-0.02847">
        <ele>1149.4</ele>
        <time>2024-08-15T07:24:31Z</time>
      </trkpt>
      <trkpt lat="42.96919" lon="-0.02845">
        <ele>1149.6</ele>
        <time>2024-08-15T07:24:32Z</time>
      </trkpt>
      <trkpt lat="42.96918" lon="-0.02842">
        <ele>1149.6</ele>
        <time>2024-08-15T07:24:33Z</time>
      </trkpt>
      <trkpt lat="42.96918" lon="-0.02839">
        <ele>1150.4</ele>
        <time>2024-08-15T07:24:34Z</time>
      </trkpt>
      <trkpt lat="42.96918" lon="-0.02837">
        <ele>1150.6</ele>
        <time>2024-08-15T07:24:35Z</time>
      </trkpt>
      <trkpt lat="42.96918" lon="-0.02835">
        <ele>1150.6</ele>
        <time>2024-08-15T07:24:36Z</time>
      </trkpt>
      <trkpt lat="42.96917" lon="-0.02833">
        <ele>1151</ele>
        <time>2024-08-15T07:24:37Z</time>
      </trkpt>
      <trkpt lat="42.96917" lon="-0.02831">
        <ele>1151</ele>
        <time>2024-08-15T07:24:38Z</time>
      </trkpt>
      <trkpt lat="42.96916" lon="-0.02828">
        <ele>1151.4</ele>
        <time>2024-08-15T07:24:39Z</time>
      </trkpt>
      <trkpt lat="42.96915" lon="-0.02826">
        <ele>1151.4</ele>
        <time>2024-08-15T07:24:40Z</time>
      </trkpt>
      <trkpt lat="42.96914" lon="-0.02824">
        <ele>1151.8</ele>
        <time>2024-08-15T07:24:41Z</time>
      </trkpt>
      <trkpt lat="42.96914" lon="-0.02822">
        <ele>1152.2</ele>
        <time>2024-08-15T07:24:42Z</time>
      </trkpt>
      <trkpt lat="42.96913" lon="-0.0282">
        <ele>1152.2</ele>
        <time>2024-08-15T07:24:43Z</time>
      </trkpt>
      <trkpt lat="42.96912" lon="-0.02818">
        <ele>1152.6</ele>
        <time>2024-08-15T07:24:44Z</time>
      </trkpt>
      <trkpt lat="42.96912" lon="-0.02816">
        <ele>1152.8</ele>
        <time>2024-08-15T07:24:45Z</time>
      </trkpt>
      <trkpt lat="42.96911" lon="-0.02814">
        <ele>1153</ele>
        <time>2024-08-15T07:24:46Z</time>
      </trkpt>
      <trkpt lat="42.96911" lon="-0.02811">
        <ele>1153.2</ele>
        <time>2024-08-15T07:24:47Z</time>
      </trkpt>
      <trkpt lat="42.96911" lon="-0.02809">
        <ele>1153.4</ele>
        <time>2024-08-15T07:24:48Z</time>
      </trkpt>
      <trkpt lat="42.9691" lon="-0.02807">
        <ele>1153.6</ele>
        <time>2024-08-15T07:24:49Z</time>
      </trkpt>
      <trkpt lat="42.96911" lon="-0.02805">
        <ele>1153.8</ele>
        <time>2024-08-15T07:24:50Z</time>
      </trkpt>
      <trkpt lat="42.96911" lon="-0.02803">
        <ele>1154</ele>
        <time>2024-08-15T07:24:51Z</time>
      </trkpt>
      <trkpt lat="42.96911" lon="-0.02801">
        <ele>1154.2</ele>
        <time>2024-08-15T07:24:52Z</time>
      </trkpt>
      <trkpt lat="42.96912" lon="-0.02799">
        <ele>1154.4</ele>
        <time>2024-08-15T07:24:53Z</time>
      </trkpt>
      <trkpt lat="42.96912" lon="-0.02796">
        <ele>1154.6</ele>
        <time>2024-08-15T07:24:54Z</time>
      </trkpt>
      <trkpt lat="42.96913" lon="-0.02794">
        <ele>1155</ele>
        <time>2024-08-15T07:24:55Z</time>
      </trkpt>
      <trkpt lat="42.96913" lon="-0.02791">
        <ele>1155</ele>
        <time>2024-08-15T07:24:56Z</time>
      </trkpt>
      <trkpt lat="42.96914" lon="-0.02789">
        <ele>1155.4</ele>
        <time>2024-08-15T07:24:57Z</time>
      </trkpt>
      <trkpt lat="42.96914" lon="-0.02787">
        <ele>1155.6</ele>
        <time>2024-08-15T07:24:58Z</time>
      </trkpt>
      <trkpt lat="42.96915" lon="-0.02785">
        <ele>1155.8</ele>
        <time>2024-08-15T07:24:59Z</time>
      </trkpt>
      <trkpt lat="42.96916" lon="-0.02782">
        <ele>1156</ele>
        <time>2024-08-15T07:25:00Z</time>
      </trkpt>
      <trkpt lat="42.96916" lon="-0.0278">
        <ele>1156.2</ele>
        <time>2024-08-15T07:25:01Z</time>
      </trkpt>
      <trkpt lat="42.96917" lon="-0.02777">
        <ele>1156.6</ele>
        <time>2024-08-15T07:25:02Z</time>
      </trkpt>
      <trkpt lat="42.96917" lon="-0.02775">
        <ele>1156.6</ele>
        <time>2024-08-15T07:25:03Z</time>
      </trkpt>
      <trkpt lat="42.96917" lon="-0.02773">
        <ele>1156.8</ele>
        <time>2024-08-15T07:25:04Z</time>
      </trkpt>
      <trkpt lat="42.96918" lon="-0.0277">
        <ele>1157</ele>
        <time>2024-08-15T07:25:05Z</time>
      </trkpt>
      <trkpt lat="42.96918" lon="-0.02767">
        <ele>1157.2</ele>
        <time>2024-08-15T07:25:06Z</time>
      </trkpt>
      <trkpt lat="42.96919" lon="-0.02765">
        <ele>1157.4</ele>
        <time>2024-08-15T07:25:07Z</time>
      </trkpt>
      <trkpt lat="42.96919" lon="-0.02762">
        <ele>1157.6</ele>
        <time>2024-08-15T07:25:08Z</time>
      </trkpt>
      <trkpt lat="42.96919" lon="-0.0276">
        <ele>1157.8</ele>
        <time>2024-08-15T07:25:09Z</time>
      </trkpt>
      <trkpt lat="42.96919" lon="-0.02758">
        <ele>1157.8</ele>
        <time>2024-08-15T07:25:10Z</time>
      </trkpt>
      <trkpt lat="42.96919" lon="-0.02755">
        <ele>1158</ele>
        <time>2024-08-15T07:25:11Z</time>
      </trkpt>
      <trkpt lat="42.9692" lon="-0.02753">
        <ele>1158.2</ele>
        <time>2024-08-15T07:25:12Z</time>
      </trkpt>
      <trkpt lat="42.9692" lon="-0.02751">
        <ele>1158.4</ele>
        <time>2024-08-15T07:25:13Z</time>
      </trkpt>
      <trkpt lat="42.9692" lon="-0.02749">
        <ele>1158.4</ele>
        <time>2024-08-15T07:25:14Z</time>
      </trkpt>
      <trkpt lat="42.9692" lon="-0.02746">
        <ele>1158.6</ele>
        <time>2024-08-15T07:25:15Z</time>
      </trkpt>
      <trkpt lat="42.9692" lon="-0.02744">
        <ele>1159</ele>
        <time>2024-08-15T07:25:16Z</time>
      </trkpt>
      <trkpt lat="42.96921" lon="-0.02742">
        <ele>1159</ele>
        <time>2024-08-15T07:25:17Z</time>
      </trkpt>
      <trkpt lat="42.96921" lon="-0.02739">
        <ele>1159.2</ele>
        <time>2024-08-15T07:25:18Z</time>
      </trkpt>
      <trkpt lat="42.96921" lon="-0.02736">
        <ele>1159.2</ele>
        <time>2024-08-15T07:25:19Z</time>
      </trkpt>
      <trkpt lat="42.96921" lon="-0.02733">
        <ele>1159.6</ele>
        <time>2024-08-15T07:25:20Z</time>
      </trkpt>
      <trkpt lat="42.96922" lon="-0.0273">
        <ele>1159.6</ele>
        <time>2024-08-15T07:25:21Z</time>
      </trkpt>
      <trkpt lat="42.96923" lon="-0.02727">
        <ele>1160</ele>
        <time>2024-08-15T07:25:22Z</time>
      </trkpt>
      <trkpt lat="42.96923" lon="-0.02725">
        <ele>1160.2</ele>
        <time>2024-08-15T07:25:23Z</time>
      </trkpt>
      <trkpt lat="42.96923" lon="-0.02722">
        <ele>1160.2</ele>
        <time>2024-08-15T07:25:24Z</time>
      </trkpt>
      <trkpt lat="42.96923" lon="-0.0272">
        <ele>1160.6</ele>
        <time>2024-08-15T07:25:25Z</time>
      </trkpt>
      <trkpt lat="42.96922" lon="-0.02718">
        <ele>1160.6</ele>
        <time>2024-08-15T07:25:26Z</time>
      </trkpt>
      <trkpt lat="42.96921" lon="-0.02716">
        <ele>1160.8</ele>
        <time>2024-08-15T07:25:27Z</time>
      </trkpt>
      <trkpt lat="42.96921" lon="-0.02714">
        <ele>1161</ele>
        <time>2024-08-15T07:25:28Z</time>
      </trkpt>
      <trkpt lat="42.96921" lon="-0.02712">
        <ele>1161.4</ele>
        <time>2024-08-15T07:25:29Z</time>
      </trkpt>
      <trkpt lat="42.9692" lon="-0.02709">
        <ele>1161.6</ele>
        <time>2024-08-15T07:25:30Z</time>
      </trkpt>
      <trkpt lat="42.9692" lon="-0.02705">
        <ele>1161.8</ele>
        <time>2024-08-15T07:25:31Z</time>
      </trkpt>
      <trkpt lat="42.9692" lon="-0.02702">
        <ele>1162</ele>
        <time>2024-08-15T07:25:32Z</time>
      </trkpt>
      <trkpt lat="42.9692" lon="-0.02699">
        <ele>1162</ele>
        <time>2024-08-15T07:25:33Z</time>
      </trkpt>
      <trkpt lat="42.9692" lon="-0.02698">
        <ele>1162.2</ele>
        <time>2024-08-15T07:25:34Z</time>
      </trkpt>
      <trkpt lat="42.96919" lon="-0.02695">
        <ele>1162.2</ele>
        <time>2024-08-15T07:25:35Z</time>
      </trkpt>
      <trkpt lat="42.9692" lon="-0.02693">
        <ele>1162.4</ele>
        <time>2024-08-15T07:25:36Z</time>
      </trkpt>
      <trkpt lat="42.96921" lon="-0.0269">
        <ele>1162.6</ele>
        <time>2024-08-15T07:25:37Z</time>
      </trkpt>
      <trkpt lat="42.96919" lon="-0.02687">
        <ele>1162.8</ele>
        <time>2024-08-15T07:25:38Z</time>
      </trkpt>
      <trkpt lat="42.96918" lon="-0.02684">
        <ele>1163.2</ele>
        <time>2024-08-15T07:25:39Z</time>
      </trkpt>
      <trkpt lat="42.96918" lon="-0.02681">
        <ele>1163.2</ele>
        <time>2024-08-15T07:25:40Z</time>
      </trkpt>
      <trkpt lat="42.96916" lon="-0.02678">
        <ele>1163.4</ele>
        <time>2024-08-15T07:25:41Z</time>
      </trkpt>
      <trkpt lat="42.96916" lon="-0.02676">
        <ele>1163.8</ele>
        <time>2024-08-15T07:25:42Z</time>
      </trkpt>
      <trkpt lat="42.96915" lon="-0.02673">
        <ele>1164</ele>
        <time>2024-08-15T07:25:43Z</time>
      </trkpt>
      <trkpt lat="42.96914" lon="-0.02671">
        <ele>1164</ele>
        <time>2024-08-15T07:25:44Z</time>
      </trkpt>
      <trkpt lat="42.96914" lon="-0.0267">
        <ele>1164.4</ele>
        <time>2024-08-15T07:25:45Z</time>
      </trkpt>
      <trkpt lat="42.96915" lon="-0.02668">
        <ele>1165</ele>
        <time>2024-08-15T07:25:46Z</time>
      </trkpt>
      <trkpt lat="42.96915" lon="-0.02666">
        <ele>1165</ele>
        <time>2024-08-15T07:25:47Z</time>
      </trkpt>
      <trkpt lat="42.96913" lon="-0.02664">
        <ele>1165</ele>
        <time>2024-08-15T07:25:48Z</time>
      </trkpt>
      <trkpt lat="42.96911" lon="-0.02662">
        <ele>1165.2</ele>
        <time>2024-08-15T07:25:49Z</time>
      </trkpt>
      <trkpt lat="42.9691" lon="-0.0266">
        <ele>1165.4</ele>
        <time>2024-08-15T07:25:50Z</time>
      </trkpt>
      <trkpt lat="42.9691" lon="-0.02659">
        <ele>1165.4</ele>
        <time>2024-08-15T07:25:51Z</time>
      </trkpt>
      <trkpt lat="42.9691" lon="-0.02657">
        <ele>1165.8</ele>
        <time>2024-08-15T07:25:52Z</time>
      </trkpt>
      <trkpt lat="42.9691" lon="-0.02655">
        <ele>1165.6</ele>
        <time>2024-08-15T07:25:53Z</time>
      </trkpt>
      <trkpt lat="42.9691" lon="-0.02654">
        <ele>1165.8</ele>
        <time>2024-08-15T07:25:54Z</time>
      </trkpt>
      <trkpt lat="42.9691" lon="-0.02652">
        <ele>1166</ele>
        <time>2024-08-15T07:25:55Z</time>
      </trkpt>
      <trkpt lat="42.96911" lon="-0.02649">
        <ele>1166.2</ele>
        <time>2024-08-15T07:25:56Z</time>
      </trkpt>
      <trkpt lat="42.96912" lon="-0.02647">
        <ele>1166.4</ele>
        <time>2024-08-15T07:25:57Z</time>
      </trkpt>
      <trkpt lat="42.96911" lon="-0.02645">
        <ele>1166.6</ele>
        <time>2024-08-15T07:25:58Z</time>
      </trkpt>
      <trkpt lat="42.96911" lon="-0.02642">
        <ele>1167</ele>
        <time>2024-08-15T07:25:59Z</time>
      </trkpt>
      <trkpt lat="42.9691" lon="-0.0264">
        <ele>1167.2</ele>
        <time>2024-08-15T07:26:00Z</time>
      </trkpt>
      <trkpt lat="42.96909" lon="-0.02637">
        <ele>1167.4</ele>
        <time>2024-08-15T07:26:01Z</time>
      </trkpt>
      <trkpt lat="42.96909" lon="-0.02634">
        <ele>1167.6</ele>
        <time>2024-08-15T07:26:02Z</time>
      </trkpt>
      <trkpt lat="42.96909" lon="-0.02631">
        <ele>1167.6</ele>
        <time>2024-08-15T07:26:03Z</time>
      </trkpt>
      <trkpt lat="42.96908" lon="-0.02629">
        <ele>1167.8</ele>
        <time>2024-08-15T07:26:04Z</time>
      </trkpt>
      <trkpt lat="42.96908" lon="-0.02627">
        <ele>1168</ele>
        <time>2024-08-15T07:26:05Z</time>
      </trkpt>
      <trkpt lat="42.96908" lon="-0.02624">
        <ele>1168.2</ele>
        <time>2024-08-15T07:26:06Z</time>
      </trkpt>
      <trkpt lat="42.96909" lon="-0.02621">
        <ele>1168.2</ele>
        <time>2024-08-15T07:26:07Z</time>
      </trkpt>
      <trkpt lat="42.96908" lon="-0.02617">
        <ele>1168.4</ele>
        <time>2024-08-15T07:26:08Z</time>
      </trkpt>
      <trkpt lat="42.96908" lon="-0.02614">
        <ele>1168.4</ele>
        <time>2024-08-15T07:26:09Z</time>
      </trkpt>
      <trkpt lat="42.96909" lon="-0.02612">
        <ele>1168.6</ele>
        <time>2024-08-15T07:26:10Z</time>
      </trkpt>
      <trkpt lat="42.96909" lon="-0.02609">
        <ele>1168.8</ele>
        <time>2024-08-15T07:26:11Z</time>
      </trkpt>
      <trkpt lat="42.96909" lon="-0.02606">
        <ele>1168.8</ele>
        <time>2024-08-15T07:26:12Z</time>
      </trkpt>
      <trkpt lat="42.96909" lon="-0.02604">
        <ele>1169</ele>
        <time>2024-08-15T07:26:13Z</time>
      </trkpt>
      <trkpt lat="42.9691" lon="-0.02602">
        <ele>1169</ele>
        <time>2024-08-15T07:26:14Z</time>
      </trkpt>
      <trkpt lat="42.96911" lon="-0.02598">
        <ele>1169.2</ele>
        <time>2024-08-15T07:26:15Z</time>
      </trkpt>
      <trkpt lat="42.96911" lon="-0.02596">
        <ele>1169.6</ele>
        <time>2024-08-15T07:26:16Z</time>
      </trkpt>
      <trkpt lat="42.96911" lon="-0.02593">
        <ele>1169.6</ele>
        <time>2024-08-15T07:26:17Z</time>
      </trkpt>
      <trkpt lat="42.9691" lon="-0.02591">
        <ele>1169.8</ele>
        <time>2024-08-15T07:26:18Z</time>
      </trkpt>
      <trkpt lat="42.9691" lon="-0.02587">
        <ele>1169.8</ele>
        <time>2024-08-15T07:26:19Z</time>
      </trkpt>
      <trkpt lat="42.9691" lon="-0.02584">
        <ele>1170.2</ele>
        <time>2024-08-15T07:26:20Z</time>
      </trkpt>
      <trkpt lat="42.96909" lon="-0.0258">
        <ele>1170.2</ele>
        <time>2024-08-15T07:26:21Z</time>
      </trkpt>
      <trkpt lat="42.96909" lon="-0.02577">
        <ele>1170.2</ele>
        <time>2024-08-15T07:26:22Z</time>
      </trkpt>
      <trkpt lat="42.9691" lon="-0.02575">
        <ele>1170.2</ele>
        <time>2024-08-15T07:26:23Z</time>
      </trkpt>
      <trkpt lat="42.96909" lon="-0.02574">
        <ele>1170.4</ele>
        <time>2024-08-15T07:26:24Z</time>
      </trkpt>
      <trkpt lat="42.96907" lon="-0.02573">
        <ele>1170.6</ele>
        <time>2024-08-15T07:26:25Z</time>
      </trkpt>
      <trkpt lat="42.96908" lon="-0.0257">
        <ele>1170.6</ele>
        <time>2024-08-15T07:26:26Z</time>
      </trkpt>
      <trkpt lat="42.96907" lon="-0.02567">
        <ele>1170.8</ele>
        <time>2024-08-15T07:26:27Z</time>
      </trkpt>
      <trkpt lat="42.96906" lon="-0.02563">
        <ele>1171</ele>
        <time>2024-08-15T07:26:28Z</time>
      </trkpt>
      <trkpt lat="42.96905" lon="-0.02561">
        <ele>1171.4</ele>
        <time>2024-08-15T07:26:29Z</time>
      </trkpt>
      <trkpt lat="42.96905" lon="-0.02559">
        <ele>1171.6</ele>
        <time>2024-08-15T07:26:30Z</time>
      </trkpt>
      <trkpt lat="42.96906" lon="-0.02557">
        <ele>1171.8</ele>
        <time>2024-08-15T07:26:31Z</time>
      </trkpt>
      <trkpt lat="42.96907" lon="-0.02556">
        <ele>1172</ele>
        <time>2024-08-15T07:26:32Z</time>
      </trkpt>
      <trkpt lat="42.96909" lon="-0.02556">
        <ele>1172.2</ele>
        <time>2024-08-15T07:26:33Z</time>
      </trkpt>
      <trkpt lat="42.9691" lon="-0.02557">
        <ele>1172.6</ele>
        <time>2024-08-15T07:26:34Z</time>
      </trkpt>
      <trkpt lat="42.96911" lon="-0.02559">
        <ele>1172.6</ele>
        <time>2024-08-15T07:26:35Z</time>
      </trkpt>
      <trkpt lat="42.96912" lon="-0.02561">
        <ele>1172.8</ele>
        <time>2024-08-15T07:26:36Z</time>
      </trkpt>
      <trkpt lat="42.96913" lon="-0.02562">
        <ele>1173</ele>
        <time>2024-08-15T07:26:37Z</time>
      </trkpt>
      <trkpt lat="42.96915" lon="-0.02565">
        <ele>1173.2</ele>
        <time>2024-08-15T07:26:38Z</time>
      </trkpt>
      <trkpt lat="42.96916" lon="-0.02568">
        <ele>1173.2</ele>
        <time>2024-08-15T07:26:39Z</time>
      </trkpt>
      <trkpt lat="42.96917" lon="-0.0257">
        <ele>1173.2</ele>
        <time>2024-08-15T07:26:40Z</time>
      </trkpt>
      <trkpt lat="42.96919" lon="-0.02572">
        <ele>1173.6</ele>
        <time>2024-08-15T07:26:41Z</time>
      </trkpt>
      <trkpt lat="42.96921" lon="-0.02573">
        <ele>1173.6</ele>
        <time>2024-08-15T07:26:42Z</time>
      </trkpt>
      <trkpt lat="42.96922" lon="-0.02575">
        <ele>1173.8</ele>
        <time>2024-08-15T07:26:43Z</time>
      </trkpt>
      <trkpt lat="42.96924" lon="-0.02577">
        <ele>1173.8</ele>
        <time>2024-08-15T07:26:44Z</time>
      </trkpt>
      <trkpt lat="42.96925" lon="-0.02579">
        <ele>1174.2</ele>
        <time>2024-08-15T07:26:45Z</time>
      </trkpt>
      <trkpt lat="42.96926" lon="-0.02581">
        <ele>1174.2</ele>
        <time>2024-08-15T07:26:46Z</time>
      </trkpt>
      <trkpt lat="42.96926" lon="-0.02584">
        <ele>1174.2</ele>
        <time>2024-08-15T07:26:47Z</time>
      </trkpt>
      <trkpt lat="42.96927" lon="-0.02587">
        <ele>1174.4</ele>
        <time>2024-08-15T07:26:48Z</time>
      </trkpt>
      <trkpt lat="42.96928" lon="-0.02589">
        <ele>1174.6</ele>
        <time>2024-08-15T07:26:49Z</time>
      </trkpt>
      <trkpt lat="42.96929" lon="-0.02591">
        <ele>1174.4</ele>
        <time>2024-08-15T07:26:50Z</time>
      </trkpt>
      <trkpt lat="42.9693" lon="-0.02594">
        <ele>1174.4</ele>
        <time>2024-08-15T07:26:51Z</time>
      </trkpt>
      <trkpt lat="42.96931" lon="-0.02596">
        <ele>1174.6</ele>
        <time>2024-08-15T07:26:52Z</time>
      </trkpt>
      <trkpt lat="42.96932" lon="-0.02598">
        <ele>1174.6</ele>
        <time>2024-08-15T07:26:53Z</time>
      </trkpt>
      <trkpt lat="42.96933" lon="-0.026">
        <ele>1174.8</ele>
        <time>2024-08-15T07:26:54Z</time>
      </trkpt>
      <trkpt lat="42.96934" lon="-0.02602">
        <ele>1175</ele>
        <time>2024-08-15T07:26:55Z</time>
      </trkpt>
      <trkpt lat="42.96935" lon="-0.02604">
        <ele>1175.2</ele>
        <time>2024-08-15T07:26:56Z</time>
      </trkpt>
      <trkpt lat="42.96937" lon="-0.02605">
        <ele>1175.4</ele>
        <time>2024-08-15T07:26:57Z</time>
      </trkpt>
      <trkpt lat="42.96938" lon="-0.02607">
        <ele>1175.6</ele>
        <time>2024-08-15T07:26:58Z</time>
      </trkpt>
      <trkpt lat="42.96939" lon="-0.02608">
        <ele>1176</ele>
        <time>2024-08-15T07:26:59Z</time>
      </trkpt>
      <trkpt lat="42.96939" lon="-0.0261">
        <ele>1176</ele>
        <time>2024-08-15T07:27:00Z</time>
      </trkpt>
      <trkpt lat="42.9694" lon="-0.02613">
        <ele>1176.2</ele>
        <time>2024-08-15T07:27:01Z</time>
      </trkpt>
      <trkpt lat="42.96941" lon="-0.02615">
        <ele>1176.4</ele>
        <time>2024-08-15T07:27:02Z</time>
      </trkpt>
      <trkpt lat="42.96942" lon="-0.02617">
        <ele>1176.6</ele>
        <time>2024-08-15T07:27:03Z</time>
      </trkpt>
      <trkpt lat="42.96943" lon="-0.02619">
        <ele>1176.8</ele>
        <time>2024-08-15T07:27:04Z</time>
      </trkpt>
      <trkpt lat="42.96944" lon="-0.02621">
        <ele>1177</ele>
        <time>2024-08-15T07:27:05Z</time>
      </trkpt>
      <trkpt lat="42.96946" lon="-0.02623">
        <ele>1177.2</ele>
        <time>2024-08-15T07:27:06Z</time>
      </trkpt>
      <trkpt lat="42.96947" lon="-0.02625">
        <ele>1177.2</ele>
        <time>2024-08-15T07:27:07Z</time>
      </trkpt>
      <trkpt lat="42.96948" lon="-0.02627">
        <ele>1177.4</ele>
        <time>2024-08-15T07:27:08Z</time>
      </trkpt>
      <trkpt lat="42.96949" lon="-0.02628">
        <ele>1177.6</ele>
        <time>2024-08-15T07:27:09Z</time>
      </trkpt>
      <trkpt lat="42.9695" lon="-0.0263">
        <ele>1177.6</ele>
        <time>2024-08-15T07:27:10Z</time>
      </trkpt>
      <trkpt lat="42.96951" lon="-0.02631">
        <ele>1177.8</ele>
        <time>2024-08-15T07:27:11Z</time>
      </trkpt>
      <trkpt lat="42.96952" lon="-0.02632">
        <ele>1177.8</ele>
        <time>2024-08-15T07:27:12Z</time>
      </trkpt>
      <trkpt lat="42.96953" lon="-0.02633">
        <ele>1178</ele>
        <time>2024-08-15T07:27:13Z</time>
      </trkpt>
      <trkpt lat="42.96955" lon="-0.02633">
        <ele>1178.2</ele>
        <time>2024-08-15T07:27:14Z</time>
      </trkpt>
      <trkpt lat="42.96957" lon="-0.02634">
        <ele>1178.4</ele>
        <time>2024-08-15T07:27:15Z</time>
      </trkpt>
      <trkpt lat="42.96959" lon="-0.02635">
        <ele>1178.4</ele>
        <time>2024-08-15T07:27:16Z</time>
      </trkpt>
      <trkpt lat="42.9696" lon="-0.02636">
        <ele>1178.8</ele>
        <time>2024-08-15T07:27:17Z</time>
      </trkpt>
      <trkpt lat="42.96961" lon="-0.02638">
        <ele>1178.8</ele>
        <time>2024-08-15T07:27:18Z</time>
      </trkpt>
      <trkpt lat="42.96962" lon="-0.02639">
        <ele>1179.2</ele>
        <time>2024-08-15T07:27:19Z</time>
      </trkpt>
      <trkpt lat="42.96965" lon="-0.0264">
        <ele>1179.2</ele>
        <time>2024-08-15T07:27:20Z</time>
      </trkpt>
      <trkpt lat="42.96966" lon="-0.0264">
        <ele>1179.4</ele>
        <time>2024-08-15T07:27:21Z</time>
      </trkpt>
      <trkpt lat="42.96968" lon="-0.0264">
        <ele>1179.6</ele>
        <time>2024-08-15T07:27:22Z</time>
      </trkpt>
      <trkpt lat="42.9697" lon="-0.0264">
        <ele>1179.6</ele>
        <time>2024-08-15T07:27:23Z</time>
      </trkpt>
      <trkpt lat="42.96971" lon="-0.02639">
        <ele>1179.8</ele>
        <time>2024-08-15T07:27:24Z</time>
      </trkpt>
      <trkpt lat="42.96973" lon="-0.02638">
        <ele>1179.8</ele>
        <time>2024-08-15T07:27:25Z</time>
      </trkpt>
      <trkpt lat="42.96974" lon="-0.02638">
        <ele>1180</ele>
        <time>2024-08-15T07:27:26Z</time>
      </trkpt>
      <trkpt lat="42.96976" lon="-0.02637">
        <ele>1180.4</ele>
        <time>2024-08-15T07:27:27Z</time>
      </trkpt>
      <trkpt lat="42.96978" lon="-0.02636">
        <ele>1180.2</ele>
        <time>2024-08-15T07:27:28Z</time>
      </trkpt>
      <trkpt lat="42.9698" lon="-0.02634">
        <ele>1180.4</ele>
        <time>2024-08-15T07:27:29Z</time>
      </trkpt>
      <trkpt lat="42.96982" lon="-0.02633">
        <ele>1180.8</ele>
        <time>2024-08-15T07:27:30Z</time>
      </trkpt>
      <trkpt lat="42.96984" lon="-0.02632">
        <ele>1180.8</ele>
        <time>2024-08-15T07:27:31Z</time>
      </trkpt>
      <trkpt lat="42.96985" lon="-0.02632">
        <ele>1180.8</ele>
        <time>2024-08-15T07:27:32Z</time>
      </trkpt>
      <trkpt lat="42.96987" lon="-0.02631">
        <ele>1181.2</ele>
        <time>2024-08-15T07:27:33Z</time>
      </trkpt>
      <trkpt lat="42.96988" lon="-0.0263">
        <ele>1181.4</ele>
        <time>2024-08-15T07:27:34Z</time>
      </trkpt>
      <trkpt lat="42.9699" lon="-0.02628">
        <ele>1181.6</ele>
        <time>2024-08-15T07:27:35Z</time>
      </trkpt>
      <trkpt lat="42.9699" lon="-0.02628">
        <ele>1181.8</ele>
        <time>2024-08-15T07:27:36Z</time>
      </trkpt>
      <trkpt lat="42.96991" lon="-0.02628">
        <ele>1181.8</ele>
        <time>2024-08-15T07:27:37Z</time>
      </trkpt>
      <trkpt lat="42.96992" lon="-0.02627">
        <ele>1182</ele>
        <time>2024-08-15T07:27:38Z</time>
      </trkpt>
      <trkpt lat="42.96994" lon="-0.02625">
        <ele>1182</ele>
        <time>2024-08-15T07:27:39Z</time>
      </trkpt>
      <trkpt lat="42.96996" lon="-0.02625">
        <ele>1182.2</ele>
        <time>2024-08-15T07:27:40Z</time>
      </trkpt>
      <trkpt lat="42.96998" lon="-0.02624">
        <ele>1182.4</ele>
        <time>2024-08-15T07:27:41Z</time>
      </trkpt>
      <trkpt lat="42.97" lon="-0.02623">
        <ele>1182.6</ele>
        <time>2024-08-15T07:27:42Z</time>
      </trkpt>
      <trkpt lat="42.97002" lon="-0.02622">
        <ele>1183</ele>
        <time>2024-08-15T07:27:43Z</time>
      </trkpt>
      <trkpt lat="42.97003" lon="-0.02622">
        <ele>1183</ele>
        <time>2024-08-15T07:27:44Z</time>
      </trkpt>
      <trkpt lat="42.97004" lon="-0.02622">
        <ele>1183.4</ele>
        <time>2024-08-15T07:27:45Z</time>
      </trkpt>
      <trkpt lat="42.97006" lon="-0.02621">
        <ele>1183.4</ele>
        <time>2024-08-15T07:27:46Z</time>
      </trkpt>
      <trkpt lat="42.97008" lon="-0.02621">
        <ele>1183.8</ele>
        <time>2024-08-15T07:27:47Z</time>
      </trkpt>
      <trkpt lat="42.97011" lon="-0.0262">
        <ele>1184</ele>
        <time>2024-08-15T07:27:48Z</time>
      </trkpt>
      <trkpt lat="42.97013" lon="-0.0262">
        <ele>1184.2</ele>
        <time>2024-08-15T07:27:49Z</time>
      </trkpt>
      <trkpt lat="42.97015" lon="-0.0262">
        <ele>1184.4</ele>
        <time>2024-08-15T07:27:50Z</time>
      </trkpt>
      <trkpt lat="42.97016" lon="-0.0262">
        <ele>1184.6</ele>
        <time>2024-08-15T07:27:51Z</time>
      </trkpt>
      <trkpt lat="42.97017" lon="-0.0262">
        <ele>1184.8</ele>
        <time>2024-08-15T07:27:52Z</time>
      </trkpt>
      <trkpt lat="42.97019" lon="-0.02621">
        <ele>1185</ele>
        <time>2024-08-15T07:27:53Z</time>
      </trkpt>
      <trkpt lat="42.97021" lon="-0.02621">
        <ele>1185.4</ele>
        <time>2024-08-15T07:27:54Z</time>
      </trkpt>
      <trkpt lat="42.97023" lon="-0.02621">
        <ele>1185.6</ele>
        <time>2024-08-15T07:27:55Z</time>
      </trkpt>
      <trkpt lat="42.97024" lon="-0.02622">
        <ele>1186</ele>
        <time>2024-08-15T07:27:56Z</time>
      </trkpt>
      <trkpt lat="42.97026" lon="-0.02623">
        <ele>1186.2</ele>
        <time>2024-08-15T07:27:57Z</time>
      </trkpt>
      <trkpt lat="42.97028" lon="-0.02624">
        <ele>1186.2</ele>
        <time>2024-08-15T07:27:58Z</time>
      </trkpt>
      <trkpt lat="42.97029" lon="-0.02626">
        <ele>1186.4</ele>
        <time>2024-08-15T07:27:59Z</time>
      </trkpt>
      <trkpt lat="42.9703" lon="-0.02627">
        <ele>1186.4</ele>
        <time>2024-08-15T07:28:00Z</time>
      </trkpt>
      <trkpt lat="42.97031" lon="-0.02629">
        <ele>1186.6</ele>
        <time>2024-08-15T07:28:01Z</time>
      </trkpt>
      <trkpt lat="42.97033" lon="-0.02631">
        <ele>1186.6</ele>
        <time>2024-08-15T07:28:02Z</time>
      </trkpt>
      <trkpt lat="42.97035" lon="-0.02633">
        <ele>1186.6</ele>
        <time>2024-08-15T07:28:03Z</time>
      </trkpt>
      <trkpt lat="42.97036" lon="-0.02635">
        <ele>1186.8</ele>
        <time>2024-08-15T07:28:04Z</time>
      </trkpt>
      <trkpt lat="42.97038" lon="-0.02638">
        <ele>1186.8</ele>
        <time>2024-08-15T07:28:05Z</time>
      </trkpt>
      <trkpt lat="42.9704" lon="-0.02641">
        <ele>1186.8</ele>
        <time>2024-08-15T07:28:06Z</time>
      </trkpt>
      <trkpt lat="42.97042" lon="-0.02644">
        <ele>1186.8</ele>
        <time>2024-08-15T07:28:07Z</time>
      </trkpt>
      <trkpt lat="42.97043" lon="-0.02647">
        <ele>1187</ele>
        <time>2024-08-15T07:28:08Z</time>
      </trkpt>
      <trkpt lat="42.97045" lon="-0.02649">
        <ele>1187</ele>
        <time>2024-08-15T07:28:09Z</time>
      </trkpt>
      <trkpt lat="42.97046" lon="-0.02652">
        <ele>1187</ele>
        <time>2024-08-15T07:28:10Z</time>
      </trkpt>
      <trkpt lat="42.97047" lon="-0.02654">
        <ele>1187</ele>
        <time>2024-08-15T07:28:11Z</time>
      </trkpt>
      <trkpt lat="42.97049" lon="-0.02656">
        <ele>1187</ele>
        <time>2024-08-15T07:28:12Z</time>
      </trkpt>
      <trkpt lat="42.97052" lon="-0.02657">
        <ele>1187</ele>
        <time>2024-08-15T07:28:13Z</time>
      </trkpt>
      <trkpt lat="42.97054" lon="-0.02657">
        <ele>1187</ele>
        <time>2024-08-15T07:28:14Z</time>
      </trkpt>
      <trkpt lat="42.97056" lon="-0.02658">
        <ele>1187.2</ele>
        <time>2024-08-15T07:28:15Z</time>
      </trkpt>
      <trkpt lat="42.97059" lon="-0.02658">
        <ele>1187.2</ele>
        <time>2024-08-15T07:28:16Z</time>
      </trkpt>
      <trkpt lat="42.97061" lon="-0.02658">
        <ele>1187.2</ele>
        <time>2024-08-15T07:28:17Z</time>
      </trkpt>
      <trkpt lat="42.97063" lon="-0.02659">
        <ele>1187.2</ele>
        <time>2024-08-15T07:28:18Z</time>
      </trkpt>
      <trkpt lat="42.97065" lon="-0.02659">
        <ele>1187.2</ele>
        <time>2024-08-15T07:28:19Z</time>
      </trkpt>
      <trkpt lat="42.97067" lon="-0.02659">
        <ele>1187.4</ele>
        <time>2024-08-15T07:28:20Z</time>
      </trkpt>
      <trkpt lat="42.97069" lon="-0.02659">
        <ele>1187.4</ele>
        <time>2024-08-15T07:28:21Z</time>
      </trkpt>
      <trkpt lat="42.97071" lon="-0.02658">
        <ele>1187.6</ele>
        <time>2024-08-15T07:28:22Z</time>
      </trkpt>
      <trkpt lat="42.97072" lon="-0.02658">
        <ele>1187.8</ele>
        <time>2024-08-15T07:28:23Z</time>
      </trkpt>
      <trkpt lat="42.97074" lon="-0.02658">
        <ele>1187.8</ele>
        <time>2024-08-15T07:28:24Z</time>
      </trkpt>
      <trkpt lat="42.97077" lon="-0.02658">
        <ele>1188.2</ele>
        <time>2024-08-15T07:28:26Z</time>
      </trkpt>
      <trkpt lat="42.97087" lon="-0.02656">
        <ele>1188.8</ele>
        <time>2024-08-15T07:28:30Z</time>
      </trkpt>
      <trkpt lat="42.97093" lon="-0.02654">
        <ele>1189.6</ele>
        <time>2024-08-15T07:28:33Z</time>
      </trkpt>
      <trkpt lat="42.97095" lon="-0.02654">
        <ele>1189.8</ele>
        <time>2024-08-15T07:28:34Z</time>
      </trkpt>
      <trkpt lat="42.97097" lon="-0.02654">
        <ele>1190</ele>
        <time>2024-08-15T07:28:35Z</time>
      </trkpt>
      <trkpt lat="42.97099" lon="-0.02653">
        <ele>1190.2</ele>
        <time>2024-08-15T07:28:36Z</time>
      </trkpt>
      <trkpt lat="42.971" lon="-0.02653">
        <ele>1190.4</ele>
        <time>2024-08-15T07:28:37Z</time>
      </trkpt>
      <trkpt lat="42.97103" lon="-0.02653">
        <ele>1190.8</ele>
        <time>2024-08-15T07:28:38Z</time>
      </trkpt>
      <trkpt lat="42.97105" lon="-0.02654">
        <ele>1191</ele>
        <time>2024-08-15T07:28:39Z</time>
      </trkpt>
      <trkpt lat="42.97106" lon="-0.02655">
        <ele>1191.2</ele>
        <time>2024-08-15T07:28:40Z</time>
      </trkpt>
      <trkpt lat="42.97108" lon="-0.02656">
        <ele>1191.4</ele>
        <time>2024-08-15T07:28:41Z</time>
      </trkpt>
      <trkpt lat="42.97109" lon="-0.02657">
        <ele>1191.6</ele>
        <time>2024-08-15T07:28:42Z</time>
      </trkpt>
      <trkpt lat="42.97111" lon="-0.02659">
        <ele>1191.8</ele>
        <time>2024-08-15T07:28:43Z</time>
      </trkpt>
      <trkpt lat="42.97113" lon="-0.0266">
        <ele>1192</ele>
        <time>2024-08-15T07:28:44Z</time>
      </trkpt>
      <trkpt lat="42.97114" lon="-0.02662">
        <ele>1192.2</ele>
        <time>2024-08-15T07:28:45Z</time>
      </trkpt>
      <trkpt lat="42.97116" lon="-0.02664">
        <ele>1192.2</ele>
        <time>2024-08-15T07:28:46Z</time>
      </trkpt>
      <trkpt lat="42.97117" lon="-0.02667">
        <ele>1192.4</ele>
        <time>2024-08-15T07:28:47Z</time>
      </trkpt>
      <trkpt lat="42.97118" lon="-0.02669">
        <ele>1192.4</ele>
        <time>2024-08-15T07:28:48Z</time>
      </trkpt>
      <trkpt lat="42.9712" lon="-0.02672">
        <ele>1192.6</ele>
        <time>2024-08-15T07:28:49Z</time>
      </trkpt>
      <trkpt lat="42.97121" lon="-0.02674">
        <ele>1192.8</ele>
        <time>2024-08-15T07:28:50Z</time>
      </trkpt>
      <trkpt lat="42.97122" lon="-0.02677">
        <ele>1192.8</ele>
        <time>2024-08-15T07:28:51Z</time>
      </trkpt>
      <trkpt lat="42.97123" lon="-0.02679">
        <ele>1193</ele>
        <time>2024-08-15T07:28:52Z</time>
      </trkpt>
      <trkpt lat="42.97124" lon="-0.02681">
        <ele>1193.2</ele>
        <time>2024-08-15T07:28:53Z</time>
      </trkpt>
      <trkpt lat="42.97125" lon="-0.02683">
        <ele>1193.4</ele>
        <time>2024-08-15T07:28:54Z</time>
      </trkpt>
      <trkpt lat="42.97126" lon="-0.02686">
        <ele>1193.6</ele>
        <time>2024-08-15T07:28:55Z</time>
      </trkpt>
      <trkpt lat="42.97127" lon="-0.02688">
        <ele>1193.8</ele>
        <time>2024-08-15T07:28:56Z</time>
      </trkpt>
      <trkpt lat="42.97128" lon="-0.0269">
        <ele>1193.8</ele>
        <time>2024-08-15T07:28:57Z</time>
      </trkpt>
      <trkpt lat="42.97129" lon="-0.02692">
        <ele>1194.2</ele>
        <time>2024-08-15T07:28:58Z</time>
      </trkpt>
      <trkpt lat="42.9713" lon="-0.02695">
        <ele>1194.2</ele>
        <time>2024-08-15T07:28:59Z</time>
      </trkpt>
      <trkpt lat="42.97131" lon="-0.02697">
        <ele>1194.4</ele>
        <time>2024-08-15T07:29:00Z</time>
      </trkpt>
      <trkpt lat="42.97132" lon="-0.02699">
        <ele>1194.8</ele>
        <time>2024-08-15T07:29:01Z</time>
      </trkpt>
      <trkpt lat="42.97133" lon="-0.02701">
        <ele>1195</ele>
        <time>2024-08-15T07:29:02Z</time>
      </trkpt>
      <trkpt lat="42.97134" lon="-0.02704">
        <ele>1195.2</ele>
        <time>2024-08-15T07:29:03Z</time>
      </trkpt>
      <trkpt lat="42.97135" lon="-0.02706">
        <ele>1195.2</ele>
        <time>2024-08-15T07:29:04Z</time>
      </trkpt>
      <trkpt lat="42.97136" lon="-0.02708">
        <ele>1195.4</ele>
        <time>2024-08-15T07:29:05Z</time>
      </trkpt>
      <trkpt lat="42.97137" lon="-0.0271">
        <ele>1195.6</ele>
        <time>2024-08-15T07:29:06Z</time>
      </trkpt>
      <trkpt lat="42.97138" lon="-0.02713">
        <ele>1195.8</ele>
        <time>2024-08-15T07:29:07Z</time>
      </trkpt>
      <trkpt lat="42.97139" lon="-0.02715">
        <ele>1195.8</ele>
        <time>2024-08-15T07:29:08Z</time>
      </trkpt>
      <trkpt lat="42.97141" lon="-0.02717">
        <ele>1196</ele>
        <time>2024-08-15T07:29:09Z</time>
      </trkpt>
      <trkpt lat="42.97142" lon="-0.02719">
        <ele>1196.2</ele>
        <time>2024-08-15T07:29:10Z</time>
      </trkpt>
      <trkpt lat="42.97143" lon="-0.02721">
        <ele>1196.4</ele>
        <time>2024-08-15T07:29:11Z</time>
      </trkpt>
      <trkpt lat="42.97144" lon="-0.02724">
        <ele>1196.6</ele>
        <time>2024-08-15T07:29:12Z</time>
      </trkpt>
      <trkpt lat="42.97145" lon="-0.02726">
        <ele>1196.6</ele>
        <time>2024-08-15T07:29:13Z</time>
      </trkpt>
      <trkpt lat="42.97145" lon="-0.02728">
        <ele>1197</ele>
        <time>2024-08-15T07:29:14Z</time>
      </trkpt>
      <trkpt lat="42.97147" lon="-0.02731">
        <ele>1197</ele>
        <time>2024-08-15T07:29:15Z</time>
      </trkpt>
      <trkpt lat="42.97147" lon="-0.02734">
        <ele>1197.2</ele>
        <time>2024-08-15T07:29:16Z</time>
      </trkpt>
      <trkpt lat="42.97148" lon="-0.02736">
        <ele>1197.6</ele>
        <time>2024-08-15T07:29:17Z</time>
      </trkpt>
      <trkpt lat="42.97149" lon="-0.02738">
        <ele>1197.6</ele>
        <time>2024-08-15T07:29:18Z</time>
      </trkpt>
      <trkpt lat="42.9715" lon="-0.0274">
        <ele>1197.8</ele>
        <time>2024-08-15T07:29:19Z</time>
      </trkpt>
      <trkpt lat="42.97151" lon="-0.02743">
        <ele>1198</ele>
        <time>2024-08-15T07:29:20Z</time>
      </trkpt>
      <trkpt lat="42.97152" lon="-0.02745">
        <ele>1198.4</ele>
        <time>2024-08-15T07:29:21Z</time>
      </trkpt>
      <trkpt lat="42.97153" lon="-0.02747">
        <ele>1198.8</ele>
        <time>2024-08-15T07:29:22Z</time>
      </trkpt>
      <trkpt lat="42.97154" lon="-0.0275">
        <ele>1199</ele>
        <time>2024-08-15T07:29:23Z</time>
      </trkpt>
      <trkpt lat="42.97154" lon="-0.02753">
        <ele>1199.2</ele>
        <time>2024-08-15T07:29:24Z</time>
      </trkpt>
      <trkpt lat="42.97155" lon="-0.02755">
        <ele>1199.2</ele>
        <time>2024-08-15T07:29:25Z</time>
      </trkpt>
      <trkpt lat="42.97156" lon="-0.02758">
        <ele>1199.4</ele>
        <time>2024-08-15T07:29:26Z</time>
      </trkpt>
      <trkpt lat="42.97156" lon="-0.02761">
        <ele>1199.4</ele>
        <time>2024-08-15T07:29:27Z</time>
      </trkpt>
      <trkpt lat="42.97156" lon="-0.02763">
        <ele>1199.6</ele>
        <time>2024-08-15T07:29:28Z</time>
      </trkpt>
      <trkpt lat="42.97156" lon="-0.02766">
        <ele>1199.8</ele>
        <time>2024-08-15T07:29:29Z</time>
      </trkpt>
      <trkpt lat="42.97156" lon="-0.02769">
        <ele>1200</ele>
        <time>2024-08-15T07:29:30Z</time>
      </trkpt>
      <trkpt lat="42.97157" lon="-0.02772">
        <ele>1200</ele>
        <time>2024-08-15T07:29:31Z</time>
      </trkpt>
      <trkpt lat="42.97157" lon="-0.02774">
        <ele>1200.4</ele>
        <time>2024-08-15T07:29:32Z</time>
      </trkpt>
      <trkpt lat="42.97157" lon="-0.02778">
        <ele>1200.6</ele>
        <time>2024-08-15T07:29:33Z</time>
      </trkpt>
      <trkpt lat="42.97156" lon="-0.02781">
        <ele>1200.6</ele>
        <time>2024-08-15T07:29:34Z</time>
      </trkpt>
      <trkpt lat="42.97156" lon="-0.02783">
        <ele>1200.8</ele>
        <time>2024-08-15T07:29:35Z</time>
      </trkpt>
      <trkpt lat="42.97155" lon="-0.02786">
        <ele>1201</ele>
        <time>2024-08-15T07:29:36Z</time>
      </trkpt>
      <trkpt lat="42.97155" lon="-0.02788">
        <ele>1201.2</ele>
        <time>2024-08-15T07:29:37Z</time>
      </trkpt>
      <trkpt lat="42.97154" lon="-0.02791">
        <ele>1201.2</ele>
        <time>2024-08-15T07:29:38Z</time>
      </trkpt>
      <trkpt lat="42.97155" lon="-0.02794">
        <ele>1201.4</ele>
        <time>2024-08-15T07:29:39Z</time>
      </trkpt>
      <trkpt lat="42.97156" lon="-0.02796">
        <ele>1201.4</ele>
        <time>2024-08-15T07:29:40Z</time>
      </trkpt>
      <trkpt lat="42.97157" lon="-0.02797">
        <ele>1201.4</ele>
        <time>2024-08-15T07:29:41Z</time>
      </trkpt>
      <trkpt lat="42.9716" lon="-0.02799">
        <ele>1201.6</ele>
        <time>2024-08-15T07:29:42Z</time>
      </trkpt>
      <trkpt lat="42.97161" lon="-0.02799">
        <ele>1201.6</ele>
        <time>2024-08-15T07:29:43Z</time>
      </trkpt>
      <trkpt lat="42.97163" lon="-0.02799">
        <ele>1201.8</ele>
        <time>2024-08-15T07:29:44Z</time>
      </trkpt>
      <trkpt lat="42.97164" lon="-0.02798">
        <ele>1201.8</ele>
        <time>2024-08-15T07:29:45Z</time>
      </trkpt>
      <trkpt lat="42.97164" lon="-0.02796">
        <ele>1202</ele>
        <time>2024-08-15T07:29:46Z</time>
      </trkpt>
      <trkpt lat="42.97165" lon="-0.02793">
        <ele>1202.2</ele>
        <time>2024-08-15T07:29:47Z</time>
      </trkpt>
      <trkpt lat="42.97165" lon="-0.0279">
        <ele>1202.4</ele>
        <time>2024-08-15T07:29:48Z</time>
      </trkpt>
      <trkpt lat="42.97165" lon="-0.02788">
        <ele>1202.6</ele>
        <time>2024-08-15T07:29:49Z</time>
      </trkpt>
      <trkpt lat="42.97164" lon="-0.02785">
        <ele>1202.6</ele>
        <time>2024-08-15T07:29:50Z</time>
      </trkpt>
      <trkpt lat="42.97165" lon="-0.02783">
        <ele>1202.6</ele>
        <time>2024-08-15T07:29:51Z</time>
      </trkpt>
      <trkpt lat="42.97165" lon="-0.0278">
        <ele>1202.8</ele>
        <time>2024-08-15T07:29:52Z</time>
      </trkpt>
      <trkpt lat="42.97165" lon="-0.02778">
        <ele>1203</ele>
        <time>2024-08-15T07:29:53Z</time>
      </trkpt>
      <trkpt lat="42.97164" lon="-0.02774">
        <ele>1203</ele>
        <time>2024-08-15T07:29:54Z</time>
      </trkpt>
      <trkpt lat="42.97164" lon="-0.02771">
        <ele>1203.4</ele>
        <time>2024-08-15T07:29:55Z</time>
      </trkpt>
      <trkpt lat="42.97164" lon="-0.02768">
        <ele>1203.4</ele>
        <time>2024-08-15T07:29:56Z</time>
      </trkpt>
      <trkpt lat="42.97164" lon="-0.02765">
        <ele>1203.6</ele>
        <time>2024-08-15T07:29:57Z</time>
      </trkpt>
      <trkpt lat="42.97164" lon="-0.02762">
        <ele>1204</ele>
        <time>2024-08-15T07:29:58Z</time>
      </trkpt>
      <trkpt lat="42.97164" lon="-0.02759">
        <ele>1204</ele>
        <time>2024-08-15T07:29:59Z</time>
      </trkpt>
      <trkpt lat="42.97164" lon="-0.02756">
        <ele>1204.4</ele>
        <time>2024-08-15T07:30:00Z</time>
      </trkpt>
      <trkpt lat="42.97164" lon="-0.02753">
        <ele>1204.6</ele>
        <time>2024-08-15T07:30:01Z</time>
      </trkpt>
      <trkpt lat="42.97164" lon="-0.02751">
        <ele>1204.8</ele>
        <time>2024-08-15T07:30:02Z</time>
      </trkpt>
      <trkpt lat="42.97164" lon="-0.02748">
        <ele>1205.2</ele>
        <time>2024-08-15T07:30:03Z</time>
      </trkpt>
      <trkpt lat="42.97164" lon="-0.02745">
        <ele>1205.4</ele>
        <time>2024-08-15T07:30:04Z</time>
      </trkpt>
      <trkpt lat="42.97164" lon="-0.02742">
        <ele>1205.8</ele>
        <time>2024-08-15T07:30:05Z</time>
      </trkpt>
      <trkpt lat="42.97164" lon="-0.0274">
        <ele>1205.8</ele>
        <time>2024-08-15T07:30:06Z</time>
      </trkpt>
      <trkpt lat="42.97164" lon="-0.02737">
        <ele>1206.2</ele>
        <time>2024-08-15T07:30:07Z</time>
      </trkpt>
      <trkpt lat="42.97165" lon="-0.02734">
        <ele>1206.4</ele>
        <time>2024-08-15T07:30:08Z</time>
      </trkpt>
      <trkpt lat="42.97165" lon="-0.02731">
        <ele>1206.6</ele>
        <time>2024-08-15T07:30:09Z</time>
      </trkpt>
      <trkpt lat="42.97165" lon="-0.02729">
        <ele>1206.6</ele>
        <time>2024-08-15T07:30:10Z</time>
      </trkpt>
      <trkpt lat="42.97165" lon="-0.02726">
        <ele>1206.8</ele>
        <time>2024-08-15T07:30:11Z</time>
      </trkpt>
      <trkpt lat="42.97164" lon="-0.02724">
        <ele>1207.2</ele>
        <time>2024-08-15T07:30:12Z</time>
      </trkpt>
      <trkpt lat="42.97164" lon="-0.02721">
        <ele>1207.2</ele>
        <time>2024-08-15T07:30:13Z</time>
      </trkpt>
      <trkpt lat="42.97164" lon="-0.02719">
        <ele>1207.4</ele>
        <time>2024-08-15T07:30:14Z</time>
      </trkpt>
      <trkpt lat="42.97164" lon="-0.02716">
        <ele>1207.4</ele>
        <time>2024-08-15T07:30:15Z</time>
      </trkpt>
      <trkpt lat="42.97163" lon="-0.02713">
        <ele>1207.6</ele>
        <time>2024-08-15T07:30:16Z</time>
      </trkpt>
      <trkpt lat="42.97163" lon="-0.0271">
        <ele>1207.6</ele>
        <time>2024-08-15T07:30:17Z</time>
      </trkpt>
      <trkpt lat="42.97163" lon="-0.02708">
        <ele>1207.8</ele>
        <time>2024-08-15T07:30:18Z</time>
      </trkpt>
      <trkpt lat="42.97162" lon="-0.02706">
        <ele>1208</ele>
        <time>2024-08-15T07:30:19Z</time>
      </trkpt>
      <trkpt lat="42.97162" lon="-0.02703">
        <ele>1208.2</ele>
        <time>2024-08-15T07:30:20Z</time>
      </trkpt>
      <trkpt lat="42.97161" lon="-0.027">
        <ele>1208.4</ele>
        <time>2024-08-15T07:30:21Z</time>
      </trkpt>
      <trkpt lat="42.97161" lon="-0.02697">
        <ele>1208.4</ele>
        <time>2024-08-15T07:30:22Z</time>
      </trkpt>
      <trkpt lat="42.9716" lon="-0.02695">
        <ele>1208.8</ele>
        <time>2024-08-15T07:30:23Z</time>
      </trkpt>
      <trkpt lat="42.9716" lon="-0.02692">
        <ele>1208.8</ele>
        <time>2024-08-15T07:30:24Z</time>
      </trkpt>
      <trkpt lat="42.97159" lon="-0.02689">
        <ele>1209</ele>
        <time>2024-08-15T07:30:25Z</time>
      </trkpt>
      <trkpt lat="42.97159" lon="-0.02686">
        <ele>1209.4</ele>
        <time>2024-08-15T07:30:26Z</time>
      </trkpt>
      <trkpt lat="42.97159" lon="-0.02684">
        <ele>1209.4</ele>
        <time>2024-08-15T07:30:27Z</time>
      </trkpt>
      <trkpt lat="42.97159" lon="-0.02682">
        <ele>1209.6</ele>
        <time>2024-08-15T07:30:28Z</time>
      </trkpt>
      <trkpt lat="42.97158" lon="-0.02679">
        <ele>1209.8</ele>
        <time>2024-08-15T07:30:29Z</time>
      </trkpt>
      <trkpt lat="42.97158" lon="-0.02677">
        <ele>1210</ele>
        <time>2024-08-15T07:30:30Z</time>
      </trkpt>
      <trkpt lat="42.97158" lon="-0.02674">
        <ele>1210.2</ele>
        <time>2024-08-15T07:30:31Z</time>
      </trkpt>
      <trkpt lat="42.97157" lon="-0.02672">
        <ele>1210.4</ele>
        <time>2024-08-15T07:30:32Z</time>
      </trkpt>
      <trkpt lat="42.97157" lon="-0.02669">
        <ele>1210.4</ele>
        <time>2024-08-15T07:30:33Z</time>
      </trkpt>
      <trkpt lat="42.97156" lon="-0.02667">
        <ele>1210.6</ele>
        <time>2024-08-15T07:30:34Z</time>
      </trkpt>
      <trkpt lat="42.97156" lon="-0.02664">
        <ele>1210.8</ele>
        <time>2024-08-15T07:30:35Z</time>
      </trkpt>
      <trkpt lat="42.97156" lon="-0.02662">
        <ele>1211</ele>
        <time>2024-08-15T07:30:36Z</time>
      </trkpt>
      <trkpt lat="42.97156" lon="-0.02659">
        <ele>1211</ele>
        <time>2024-08-15T07:30:37Z</time>
      </trkpt>
      <trkpt lat="42.97155" lon="-0.02658">
        <ele>1211.2</ele>
        <time>2024-08-15T07:30:38Z</time>
      </trkpt>
      <trkpt lat="42.97155" lon="-0.02655">
        <ele>1211.4</ele>
        <time>2024-08-15T07:30:39Z</time>
      </trkpt>
      <trkpt lat="42.97155" lon="-0.02653">
        <ele>1211.6</ele>
        <time>2024-08-15T07:30:40Z</time>
      </trkpt>
      <trkpt lat="42.97154" lon="-0.0265">
        <ele>1211.8</ele>
        <time>2024-08-15T07:30:41Z</time>
      </trkpt>
      <trkpt lat="42.97154" lon="-0.02648">
        <ele>1212</ele>
        <time>2024-08-15T07:30:42Z</time>
      </trkpt>
      <trkpt lat="42.97154" lon="-0.02646">
        <ele>1212.2</ele>
        <time>2024-08-15T07:30:43Z</time>
      </trkpt>
      <trkpt lat="42.97154" lon="-0.02643">
        <ele>1212.4</ele>
        <time>2024-08-15T07:30:44Z</time>
      </trkpt>
      <trkpt lat="42.97154" lon="-0.02641">
        <ele>1212.6</ele>
        <time>2024-08-15T07:30:45Z</time>
      </trkpt>
      <trkpt lat="42.97155" lon="-0.02638">
        <ele>1212.8</ele>
        <time>2024-08-15T07:30:46Z</time>
      </trkpt>
      <trkpt lat="42.97155" lon="-0.02636">
        <ele>1212.8</ele>
        <time>2024-08-15T07:30:47Z</time>
      </trkpt>
      <trkpt lat="42.97156" lon="-0.02634">
        <ele>1213</ele>
        <time>2024-08-15T07:30:48Z</time>
      </trkpt>
      <trkpt lat="42.97157" lon="-0.02631">
        <ele>1213.2</ele>
        <time>2024-08-15T07:30:49Z</time>
      </trkpt>
      <trkpt lat="42.97157" lon="-0.0263">
        <ele>1213.4</ele>
        <time>2024-08-15T07:30:50Z</time>
      </trkpt>
      <trkpt lat="42.97158" lon="-0.02627">
        <ele>1213.6</ele>
        <time>2024-08-15T07:30:51Z</time>
      </trkpt>
      <trkpt lat="42.97159" lon="-0.02625">
        <ele>1213.6</ele>
        <time>2024-08-15T07:30:52Z</time>
      </trkpt>
      <trkpt lat="42.9716" lon="-0.02624">
        <ele>1213.8</ele>
        <time>2024-08-15T07:30:53Z</time>
      </trkpt>
      <trkpt lat="42.9716" lon="-0.02622">
        <ele>1214</ele>
        <time>2024-08-15T07:30:54Z</time>
      </trkpt>
      <trkpt lat="42.97161" lon="-0.0262">
        <ele>1214.2</ele>
        <time>2024-08-15T07:30:55Z</time>
      </trkpt>
      <trkpt lat="42.97162" lon="-0.02618">
        <ele>1214.2</ele>
        <time>2024-08-15T07:30:56Z</time>
      </trkpt>
      <trkpt lat="42.97164" lon="-0.02616">
        <ele>1214.6</ele>
        <time>2024-08-15T07:30:57Z</time>
      </trkpt>
      <trkpt lat="42.97164" lon="-0.02614">
        <ele>1214.8</ele>
        <time>2024-08-15T07:30:58Z</time>
      </trkpt>
      <trkpt lat="42.97165" lon="-0.02613">
        <ele>1215</ele>
        <time>2024-08-15T07:30:59Z</time>
      </trkpt>
      <trkpt lat="42.97166" lon="-0.0261">
        <ele>1215.4</ele>
        <time>2024-08-15T07:31:00Z</time>
      </trkpt>
      <trkpt lat="42.97166" lon="-0.02608">
        <ele>1215.4</ele>
        <time>2024-08-15T07:31:01Z</time>
      </trkpt>
      <trkpt lat="42.97167" lon="-0.02606">
        <ele>1215.6</ele>
        <time>2024-08-15T07:31:02Z</time>
      </trkpt>
      <trkpt lat="42.97168" lon="-0.02604">
        <ele>1215.8</ele>
        <time>2024-08-15T07:31:03Z</time>
      </trkpt>
      <trkpt lat="42.97168" lon="-0.02601">
        <ele>1216.2</ele>
        <time>2024-08-15T07:31:04Z</time>
      </trkpt>
      <trkpt lat="42.97168" lon="-0.02598">
        <ele>1216.4</ele>
        <time>2024-08-15T07:31:05Z</time>
      </trkpt>
      <trkpt lat="42.97169" lon="-0.02597">
        <ele>1216.6</ele>
        <time>2024-08-15T07:31:06Z</time>
      </trkpt>
      <trkpt lat="42.97169" lon="-0.02594">
        <ele>1216.8</ele>
        <time>2024-08-15T07:31:07Z</time>
      </trkpt>
      <trkpt lat="42.97169" lon="-0.02592">
        <ele>1217</ele>
        <time>2024-08-15T07:31:08Z</time>
      </trkpt>
      <trkpt lat="42.9717" lon="-0.0259">
        <ele>1217.2</ele>
        <time>2024-08-15T07:31:09Z</time>
      </trkpt>
      <trkpt lat="42.9717" lon="-0.02588">
        <ele>1217.4</ele>
        <time>2024-08-15T07:31:10Z</time>
      </trkpt>
      <trkpt lat="42.97171" lon="-0.02586">
        <ele>1217.6</ele>
        <time>2024-08-15T07:31:11Z</time>
      </trkpt>
      <trkpt lat="42.97171" lon="-0.02584">
        <ele>1217.6</ele>
        <time>2024-08-15T07:31:12Z</time>
      </trkpt>
      <trkpt lat="42.97171" lon="-0.02582">
        <ele>1217.8</ele>
        <time>2024-08-15T07:31:13Z</time>
      </trkpt>
      <trkpt lat="42.97171" lon="-0.0258">
        <ele>1218</ele>
        <time>2024-08-15T07:31:14Z</time>
      </trkpt>
      <trkpt lat="42.97171" lon="-0.02577">
        <ele>1218</ele>
        <time>2024-08-15T07:31:15Z</time>
      </trkpt>
      <trkpt lat="42.97171" lon="-0.02575">
        <ele>1218.2</ele>
        <time>2024-08-15T07:31:16Z</time>
      </trkpt>
      <trkpt lat="42.97171" lon="-0.02572">
        <ele>1218.4</ele>
        <time>2024-08-15T07:31:17Z</time>
      </trkpt>
      <trkpt lat="42.97171" lon="-0.02569">
        <ele>1218.8</ele>
        <time>2024-08-15T07:31:18Z</time>
      </trkpt>
      <trkpt lat="42.97171" lon="-0.02567">
        <ele>1219</ele>
        <time>2024-08-15T07:31:19Z</time>
      </trkpt>
      <trkpt lat="42.97171" lon="-0.02565">
        <ele>1219</ele>
        <time>2024-08-15T07:31:20Z</time>
      </trkpt>
      <trkpt lat="42.97171" lon="-0.02563">
        <ele>1219.2</ele>
        <time>2024-08-15T07:31:21Z</time>
      </trkpt>
      <trkpt lat="42.97171" lon="-0.0256">
        <ele>1219.4</ele>
        <time>2024-08-15T07:31:22Z</time>
      </trkpt>
      <trkpt lat="42.9717" lon="-0.02558">
        <ele>1219.6</ele>
        <time>2024-08-15T07:31:23Z</time>
      </trkpt>
      <trkpt lat="42.97169" lon="-0.02556">
        <ele>1219.8</ele>
        <time>2024-08-15T07:31:24Z</time>
      </trkpt>
      <trkpt lat="42.97169" lon="-0.02554">
        <ele>1219.8</ele>
        <time>2024-08-15T07:31:25Z</time>
      </trkpt>
      <trkpt lat="42.97169" lon="-0.02553">
        <ele>1220</ele>
        <time>2024-08-15T07:31:26Z</time>
      </trkpt>
      <trkpt lat="42.97169" lon="-0.02551">
        <ele>1220.2</ele>
        <time>2024-08-15T07:31:27Z</time>
      </trkpt>
      <trkpt lat="42.97168" lon="-0.02548">
        <ele>1220.4</ele>
        <time>2024-08-15T07:31:28Z</time>
      </trkpt>
      <trkpt lat="42.97168" lon="-0.02545">
        <ele>1220.6</ele>
        <time>2024-08-15T07:31:29Z</time>
      </trkpt>
      <trkpt lat="42.97167" lon="-0.02543">
        <ele>1220.8</ele>
        <time>2024-08-15T07:31:30Z</time>
      </trkpt>
      <trkpt lat="42.97167" lon="-0.02541">
        <ele>1221</ele>
        <time>2024-08-15T07:31:31Z</time>
      </trkpt>
      <trkpt lat="42.97166" lon="-0.02539">
        <ele>1221.2</ele>
        <time>2024-08-15T07:31:32Z</time>
      </trkpt>
      <trkpt lat="42.97165" lon="-0.02537">
        <ele>1221.4</ele>
        <time>2024-08-15T07:31:33Z</time>
      </trkpt>
      <trkpt lat="42.97164" lon="-0.02535">
        <ele>1221.4</ele>
        <time>2024-08-15T07:31:34Z</time>
      </trkpt>
      <trkpt lat="42.97163" lon="-0.02532">
        <ele>1221.6</ele>
        <time>2024-08-15T07:31:35Z</time>
      </trkpt>
      <trkpt lat="42.97163" lon="-0.0253">
        <ele>1222</ele>
        <time>2024-08-15T07:31:36Z</time>
      </trkpt>
      <trkpt lat="42.97162" lon="-0.02528">
        <ele>1222.2</ele>
        <time>2024-08-15T07:31:37Z</time>
      </trkpt>
      <trkpt lat="42.97161" lon="-0.02526">
        <ele>1222.2</ele>
        <time>2024-08-15T07:31:38Z</time>
      </trkpt>
      <trkpt lat="42.9716" lon="-0.02523">
        <ele>1222.6</ele>
        <time>2024-08-15T07:31:39Z</time>
      </trkpt>
      <trkpt lat="42.97159" lon="-0.02521">
        <ele>1222.6</ele>
        <time>2024-08-15T07:31:40Z</time>
      </trkpt>
      <trkpt lat="42.97157" lon="-0.02519">
        <ele>1222.8</ele>
        <time>2024-08-15T07:31:41Z</time>
      </trkpt>
      <trkpt lat="42.97156" lon="-0.02517">
        <ele>1222.8</ele>
        <time>2024-08-15T07:31:42Z</time>
      </trkpt>
      <trkpt lat="42.97155" lon="-0.02514">
        <ele>1223</ele>
        <time>2024-08-15T07:31:43Z</time>
      </trkpt>
      <trkpt lat="42.97154" lon="-0.02513">
        <ele>1223</ele>
        <time>2024-08-15T07:31:44Z</time>
      </trkpt>
      <trkpt lat="42.97153" lon="-0.02511">
        <ele>1223.2</ele>
        <time>2024-08-15T07:31:45Z</time>
      </trkpt>
      <trkpt lat="42.97151" lon="-0.02509">
        <ele>1223.2</ele>
        <time>2024-08-15T07:31:46Z</time>
      </trkpt>
      <trkpt lat="42.9715" lon="-0.02506">
        <ele>1223.4</ele>
        <time>2024-08-15T07:31:47Z</time>
      </trkpt>
      <trkpt lat="42.97148" lon="-0.02505">
        <ele>1223.4</ele>
        <time>2024-08-15T07:31:48Z</time>
      </trkpt>
      <trkpt lat="42.97147" lon="-0.02503">
        <ele>1223.6</ele>
        <time>2024-08-15T07:31:49Z</time>
      </trkpt>
      <trkpt lat="42.97145" lon="-0.02501">
        <ele>1223.8</ele>
        <time>2024-08-15T07:31:50Z</time>
      </trkpt>
      <trkpt lat="42.97144" lon="-0.02499">
        <ele>1223.8</ele>
        <time>2024-08-15T07:31:51Z</time>
      </trkpt>
      <trkpt lat="42.97144" lon="-0.02497">
        <ele>1223.8</ele>
        <time>2024-08-15T07:31:52Z</time>
      </trkpt>
      <trkpt lat="42.97145" lon="-0.02495">
        <ele>1224</ele>
        <time>2024-08-15T07:31:53Z</time>
      </trkpt>
      <trkpt lat="42.97146" lon="-0.02493">
        <ele>1224</ele>
        <time>2024-08-15T07:31:54Z</time>
      </trkpt>
      <trkpt lat="42.97148" lon="-0.02492">
        <ele>1224.2</ele>
        <time>2024-08-15T07:31:55Z</time>
      </trkpt>
      <trkpt lat="42.9715" lon="-0.02492">
        <ele>1224.4</ele>
        <time>2024-08-15T07:31:56Z</time>
      </trkpt>
      <trkpt lat="42.97152" lon="-0.02492">
        <ele>1224.6</ele>
        <time>2024-08-15T07:31:57Z</time>
      </trkpt>
      <trkpt lat="42.97154" lon="-0.02494">
        <ele>1224.6</ele>
        <time>2024-08-15T07:31:58Z</time>
      </trkpt>
      <trkpt lat="42.97155" lon="-0.02496">
        <ele>1224.8</ele>
        <time>2024-08-15T07:31:59Z</time>
      </trkpt>
      <trkpt lat="42.97156" lon="-0.02497">
        <ele>1225</ele>
        <time>2024-08-15T07:32:00Z</time>
      </trkpt>
      <trkpt lat="42.97157" lon="-0.025">
        <ele>1225.2</ele>
        <time>2024-08-15T07:32:01Z</time>
      </trkpt>
      <trkpt lat="42.97159" lon="-0.02502">
        <ele>1225.2</ele>
        <time>2024-08-15T07:32:02Z</time>
      </trkpt>
      <trkpt lat="42.9716" lon="-0.02504">
        <ele>1225.4</ele>
        <time>2024-08-15T07:32:03Z</time>
      </trkpt>
      <trkpt lat="42.97162" lon="-0.02506">
        <ele>1225.6</ele>
        <time>2024-08-15T07:32:04Z</time>
      </trkpt>
      <trkpt lat="42.97163" lon="-0.02508">
        <ele>1225.6</ele>
        <time>2024-08-15T07:32:05Z</time>
      </trkpt>
      <trkpt lat="42.97164" lon="-0.0251">
        <ele>1225.8</ele>
        <time>2024-08-15T07:32:06Z</time>
      </trkpt>
      <trkpt lat="42.97165" lon="-0.02513">
        <ele>1225.8</ele>
        <time>2024-08-15T07:32:07Z</time>
      </trkpt>
      <trkpt lat="42.97166" lon="-0.02515">
        <ele>1226</ele>
        <time>2024-08-15T07:32:08Z</time>
      </trkpt>
      <trkpt lat="42.97168" lon="-0.02516">
        <ele>1226</ele>
        <time>2024-08-15T07:32:09Z</time>
      </trkpt>
      <trkpt lat="42.97169" lon="-0.02518">
        <ele>1226.2</ele>
        <time>2024-08-15T07:32:10Z</time>
      </trkpt>
      <trkpt lat="42.97171" lon="-0.0252">
        <ele>1226.4</ele>
        <time>2024-08-15T07:32:11Z</time>
      </trkpt>
      <trkpt lat="42.97172" lon="-0.02521">
        <ele>1226.4</ele>
        <time>2024-08-15T07:32:12Z</time>
      </trkpt>
      <trkpt lat="42.97173" lon="-0.02523">
        <ele>1226.6</ele>
        <time>2024-08-15T07:32:13Z</time>
      </trkpt>
      <trkpt lat="42.97174" lon="-0.02525">
        <ele>1226.6</ele>
        <time>2024-08-15T07:32:14Z</time>
      </trkpt>
      <trkpt lat="42.97176" lon="-0.02527">
        <ele>1226.8</ele>
        <time>2024-08-15T07:32:15Z</time>
      </trkpt>
      <trkpt lat="42.97177" lon="-0.02529">
        <ele>1227</ele>
        <time>2024-08-15T07:32:16Z</time>
      </trkpt>
      <trkpt lat="42.97179" lon="-0.0253">
        <ele>1227.2</ele>
        <time>2024-08-15T07:32:17Z</time>
      </trkpt>
      <trkpt lat="42.9718" lon="-0.02532">
        <ele>1227.4</ele>
        <time>2024-08-15T07:32:18Z</time>
      </trkpt>
      <trkpt lat="42.97181" lon="-0.02534">
        <ele>1227.6</ele>
        <time>2024-08-15T07:32:19Z</time>
      </trkpt>
      <trkpt lat="42.97183" lon="-0.02536">
        <ele>1227.8</ele>
        <time>2024-08-15T07:32:20Z</time>
      </trkpt>
      <trkpt lat="42.97184" lon="-0.02538">
        <ele>1227.8</ele>
        <time>2024-08-15T07:32:21Z</time>
      </trkpt>
      <trkpt lat="42.97185" lon="-0.0254">
        <ele>1228</ele>
        <time>2024-08-15T07:32:22Z</time>
      </trkpt>
      <trkpt lat="42.97186" lon="-0.02543">
        <ele>1228</ele>
        <time>2024-08-15T07:32:23Z</time>
      </trkpt>
      <trkpt lat="42.97188" lon="-0.02545">
        <ele>1228.4</ele>
        <time>2024-08-15T07:32:24Z</time>
      </trkpt>
      <trkpt lat="42.97189" lon="-0.02547">
        <ele>1228.6</ele>
        <time>2024-08-15T07:32:25Z</time>
      </trkpt>
      <trkpt lat="42.9719" lon="-0.02549">
        <ele>1228.8</ele>
        <time>2024-08-15T07:32:26Z</time>
      </trkpt>
      <trkpt lat="42.97191" lon="-0.02552">
        <ele>1229.2</ele>
        <time>2024-08-15T07:32:27Z</time>
      </trkpt>
      <trkpt lat="42.97192" lon="-0.02554">
        <ele>1229.2</ele>
        <time>2024-08-15T07:32:28Z</time>
      </trkpt>
      <trkpt lat="42.97192" lon="-0.02556">
        <ele>1229.4</ele>
        <time>2024-08-15T07:32:29Z</time>
      </trkpt>
      <trkpt lat="42.97193" lon="-0.02558">
        <ele>1229.4</ele>
        <time>2024-08-15T07:32:30Z</time>
      </trkpt>
      <trkpt lat="42.97194" lon="-0.0256">
        <ele>1229.8</ele>
        <time>2024-08-15T07:32:31Z</time>
      </trkpt>
      <trkpt lat="42.97196" lon="-0.02562">
        <ele>1230</ele>
        <time>2024-08-15T07:32:32Z</time>
      </trkpt>
      <trkpt lat="42.97197" lon="-0.02564">
        <ele>1230</ele>
        <time>2024-08-15T07:32:33Z</time>
      </trkpt>
      <trkpt lat="42.97198" lon="-0.02565">
        <ele>1230.2</ele>
        <time>2024-08-15T07:32:34Z</time>
      </trkpt>
      <trkpt lat="42.97199" lon="-0.02567">
        <ele>1230.4</ele>
        <time>2024-08-15T07:32:35Z</time>
      </trkpt>
      <trkpt lat="42.972" lon="-0.02569">
        <ele>1230.6</ele>
        <time>2024-08-15T07:32:36Z</time>
      </trkpt>
      <trkpt lat="42.97201" lon="-0.02572">
        <ele>1230.6</ele>
        <time>2024-08-15T07:32:37Z</time>
      </trkpt>
      <trkpt lat="42.97202" lon="-0.02573">
        <ele>1231</ele>
        <time>2024-08-15T07:32:38Z</time>
      </trkpt>
      <trkpt lat="42.97203" lon="-0.02575">
        <ele>1231.2</ele>
        <time>2024-08-15T07:32:39Z</time>
      </trkpt>
      <trkpt lat="42.97204" lon="-0.02578">
        <ele>1231.4</ele>
        <time>2024-08-15T07:32:40Z</time>
      </trkpt>
      <trkpt lat="42.97206" lon="-0.0258">
        <ele>1231.4</ele>
        <time>2024-08-15T07:32:41Z</time>
      </trkpt>
      <trkpt lat="42.97207" lon="-0.02582">
        <ele>1231.4</ele>
        <time>2024-08-15T07:32:42Z</time>
      </trkpt>
      <trkpt lat="42.97208" lon="-0.02584">
        <ele>1231.8</ele>
        <time>2024-08-15T07:32:43Z</time>
      </trkpt>
      <trkpt lat="42.97209" lon="-0.02587">
        <ele>1231.8</ele>
        <time>2024-08-15T07:32:44Z</time>
      </trkpt>
      <trkpt lat="42.9721" lon="-0.02589">
        <ele>1232</ele>
        <time>2024-08-15T07:32:45Z</time>
      </trkpt>
      <trkpt lat="42.97211" lon="-0.02591">
        <ele>1232.2</ele>
        <time>2024-08-15T07:32:46Z</time>
      </trkpt>
      <trkpt lat="42.97212" lon="-0.02593">
        <ele>1232.4</ele>
        <time>2024-08-15T07:32:47Z</time>
      </trkpt>
      <trkpt lat="42.97214" lon="-0.02595">
        <ele>1232.6</ele>
        <time>2024-08-15T07:32:48Z</time>
      </trkpt>
      <trkpt lat="42.97215" lon="-0.02597">
        <ele>1232.8</ele>
        <time>2024-08-15T07:32:49Z</time>
      </trkpt>
      <trkpt lat="42.97216" lon="-0.026">
        <ele>1233</ele>
        <time>2024-08-15T07:32:50Z</time>
      </trkpt>
      <trkpt lat="42.97217" lon="-0.02602">
        <ele>1233.2</ele>
        <time>2024-08-15T07:32:51Z</time>
      </trkpt>
      <trkpt lat="42.97219" lon="-0.02604">
        <ele>1233.4</ele>
        <time>2024-08-15T07:32:52Z</time>
      </trkpt>
      <trkpt lat="42.9722" lon="-0.02605">
        <ele>1233.6</ele>
        <time>2024-08-15T07:32:53Z</time>
      </trkpt>
      <trkpt lat="42.97222" lon="-0.02607">
        <ele>1233.6</ele>
        <time>2024-08-15T07:32:54Z</time>
      </trkpt>
      <trkpt lat="42.97223" lon="-0.02609">
        <ele>1233.8</ele>
        <time>2024-08-15T07:32:55Z</time>
      </trkpt>
      <trkpt lat="42.97225" lon="-0.02611">
        <ele>1234</ele>
        <time>2024-08-15T07:32:56Z</time>
      </trkpt>
      <trkpt lat="42.97226" lon="-0.02613">
        <ele>1234</ele>
        <time>2024-08-15T07:32:57Z</time>
      </trkpt>
      <trkpt lat="42.97228" lon="-0.02615">
        <ele>1234.2</ele>
        <time>2024-08-15T07:32:58Z</time>
      </trkpt>
      <trkpt lat="42.97229" lon="-0.02617">
        <ele>1234.2</ele>
        <time>2024-08-15T07:32:59Z</time>
      </trkpt>
      <trkpt lat="42.9723" lon="-0.02619">
        <ele>1234.4</ele>
        <time>2024-08-15T07:33:00Z</time>
      </trkpt>
      <trkpt lat="42.97231" lon="-0.0262">
        <ele>1234.6</ele>
        <time>2024-08-15T07:33:01Z</time>
      </trkpt>
      <trkpt lat="42.97232" lon="-0.02623">
        <ele>1234.8</ele>
        <time>2024-08-15T07:33:02Z</time>
      </trkpt>
      <trkpt lat="42.97234" lon="-0.02625">
        <ele>1235.2</ele>
        <time>2024-08-15T07:33:03Z</time>
      </trkpt>
      <trkpt lat="42.97235" lon="-0.02627">
        <ele>1235.4</ele>
        <time>2024-08-15T07:33:04Z</time>
      </trkpt>
      <trkpt lat="42.97236" lon="-0.02629">
        <ele>1235.4</ele>
        <time>2024-08-15T07:33:05Z</time>
      </trkpt>
      <trkpt lat="42.97238" lon="-0.02631">
        <ele>1235.8</ele>
        <time>2024-08-15T07:33:06Z</time>
      </trkpt>
      <trkpt lat="42.97239" lon="-0.02633">
        <ele>1235.8</ele>
        <time>2024-08-15T07:33:07Z</time>
      </trkpt>
      <trkpt lat="42.9724" lon="-0.02635">
        <ele>1236.2</ele>
        <time>2024-08-15T07:33:08Z</time>
      </trkpt>
      <trkpt lat="42.97241" lon="-0.02637">
        <ele>1236.2</ele>
        <time>2024-08-15T07:33:09Z</time>
      </trkpt>
      <trkpt lat="42.97243" lon="-0.02638">
        <ele>1236.4</ele>
        <time>2024-08-15T07:33:10Z</time>
      </trkpt>
      <trkpt lat="42.97244" lon="-0.0264">
        <ele>1236.6</ele>
        <time>2024-08-15T07:33:11Z</time>
      </trkpt>
      <trkpt lat="42.97245" lon="-0.02643">
        <ele>1236.6</ele>
        <time>2024-08-15T07:33:12Z</time>
      </trkpt>
      <trkpt lat="42.97245" lon="-0.02645">
        <ele>1236.8</ele>
        <time>2024-08-15T07:33:13Z</time>
      </trkpt>
      <trkpt lat="42.97246" lon="-0.02647">
        <ele>1237</ele>
        <time>2024-08-15T07:33:14Z</time>
      </trkpt>
      <trkpt lat="42.97247" lon="-0.0265">
        <ele>1237.2</ele>
        <time>2024-08-15T07:33:15Z</time>
      </trkpt>
      <trkpt lat="42.97248" lon="-0.02652">
        <ele>1237.4</ele>
        <time>2024-08-15T07:33:16Z</time>
      </trkpt>
      <trkpt lat="42.97249" lon="-0.02654">
        <ele>1237.6</ele>
        <time>2024-08-15T07:33:17Z</time>
      </trkpt>
      <trkpt lat="42.9725" lon="-0.02656">
        <ele>1237.8</ele>
        <time>2024-08-15T07:33:18Z</time>
      </trkpt>
      <trkpt lat="42.97251" lon="-0.02658">
        <ele>1238</ele>
        <time>2024-08-15T07:33:19Z</time>
      </trkpt>
      <trkpt lat="42.97252" lon="-0.02659">
        <ele>1238.2</ele>
        <time>2024-08-15T07:33:20Z</time>
      </trkpt>
      <trkpt lat="42.97253" lon="-0.02661">
        <ele>1238.2</ele>
        <time>2024-08-15T07:33:21Z</time>
      </trkpt>
      <trkpt lat="42.97255" lon="-0.02663">
        <ele>1238.4</ele>
        <time>2024-08-15T07:33:22Z</time>
      </trkpt>
      <trkpt lat="42.97256" lon="-0.02664">
        <ele>1238.4</ele>
        <time>2024-08-15T07:33:23Z</time>
      </trkpt>
      <trkpt lat="42.97258" lon="-0.02665">
        <ele>1238.8</ele>
        <time>2024-08-15T07:33:24Z</time>
      </trkpt>
      <trkpt lat="42.97259" lon="-0.02667">
        <ele>1238.8</ele>
        <time>2024-08-15T07:33:25Z</time>
      </trkpt>
      <trkpt lat="42.97261" lon="-0.02668">
        <ele>1239</ele>
        <time>2024-08-15T07:33:26Z</time>
      </trkpt>
      <trkpt lat="42.97263" lon="-0.02669">
        <ele>1239.2</ele>
        <time>2024-08-15T07:33:27Z</time>
      </trkpt>
      <trkpt lat="42.97264" lon="-0.0267">
        <ele>1239.2</ele>
        <time>2024-08-15T07:33:28Z</time>
      </trkpt>
      <trkpt lat="42.97266" lon="-0.02671">
        <ele>1239.4</ele>
        <time>2024-08-15T07:33:29Z</time>
      </trkpt>
      <trkpt lat="42.97268" lon="-0.02672">
        <ele>1239.4</ele>
        <time>2024-08-15T07:33:30Z</time>
      </trkpt>
      <trkpt lat="42.97269" lon="-0.02673">
        <ele>1239.4</ele>
        <time>2024-08-15T07:33:31Z</time>
      </trkpt>
      <trkpt lat="42.97271" lon="-0.02674">
        <ele>1239.4</ele>
        <time>2024-08-15T07:33:32Z</time>
      </trkpt>
      <trkpt lat="42.97272" lon="-0.02675">
        <ele>1239.6</ele>
        <time>2024-08-15T07:33:33Z</time>
      </trkpt>
      <trkpt lat="42.97274" lon="-0.02677">
        <ele>1239.6</ele>
        <time>2024-08-15T07:33:34Z</time>
      </trkpt>
      <trkpt lat="42.97276" lon="-0.02678">
        <ele>1239.8</ele>
        <time>2024-08-15T07:33:35Z</time>
      </trkpt>
      <trkpt lat="42.97277" lon="-0.02679">
        <ele>1240</ele>
        <time>2024-08-15T07:33:36Z</time>
      </trkpt>
      <trkpt lat="42.97279" lon="-0.02681">
        <ele>1240.2</ele>
        <time>2024-08-15T07:33:37Z</time>
      </trkpt>
      <trkpt lat="42.9728" lon="-0.02682">
        <ele>1240.4</ele>
        <time>2024-08-15T07:33:38Z</time>
      </trkpt>
      <trkpt lat="42.97281" lon="-0.02684">
        <ele>1240.6</ele>
        <time>2024-08-15T07:33:39Z</time>
      </trkpt>
      <trkpt lat="42.97283" lon="-0.02686">
        <ele>1240.8</ele>
        <time>2024-08-15T07:33:40Z</time>
      </trkpt>
      <trkpt lat="42.97285" lon="-0.02687">
        <ele>1240.8</ele>
        <time>2024-08-15T07:33:41Z</time>
      </trkpt>
      <trkpt lat="42.97286" lon="-0.02689">
        <ele>1241.2</ele>
        <time>2024-08-15T07:33:42Z</time>
      </trkpt>
      <trkpt lat="42.97287" lon="-0.02691">
        <ele>1241.4</ele>
        <time>2024-08-15T07:33:43Z</time>
      </trkpt>
      <trkpt lat="42.97288" lon="-0.02693">
        <ele>1241.6</ele>
        <time>2024-08-15T07:33:44Z</time>
      </trkpt>
      <trkpt lat="42.97289" lon="-0.02695">
        <ele>1241.8</ele>
        <time>2024-08-15T07:33:45Z</time>
      </trkpt>
      <trkpt lat="42.9729" lon="-0.02698">
        <ele>1242</ele>
        <time>2024-08-15T07:33:46Z</time>
      </trkpt>
      <trkpt lat="42.97291" lon="-0.027">
        <ele>1242</ele>
        <time>2024-08-15T07:33:47Z</time>
      </trkpt>
      <trkpt lat="42.97292" lon="-0.02702">
        <ele>1242.2</ele>
        <time>2024-08-15T07:33:48Z</time>
      </trkpt>
      <trkpt lat="42.97293" lon="-0.02704">
        <ele>1242.2</ele>
        <time>2024-08-15T07:33:49Z</time>
      </trkpt>
      <trkpt lat="42.97294" lon="-0.02706">
        <ele>1242.4</ele>
        <time>2024-08-15T07:33:50Z</time>
      </trkpt>
      <trkpt lat="42.97295" lon="-0.02708">
        <ele>1242.6</ele>
        <time>2024-08-15T07:33:51Z</time>
      </trkpt>
      <trkpt lat="42.97296" lon="-0.0271">
        <ele>1242.8</ele>
        <time>2024-08-15T07:33:52Z</time>
      </trkpt>
      <trkpt lat="42.97297" lon="-0.02713">
        <ele>1243</ele>
        <time>2024-08-15T07:33:53Z</time>
      </trkpt>
      <trkpt lat="42.97298" lon="-0.02715">
        <ele>1243.2</ele>
        <time>2024-08-15T07:33:54Z</time>
      </trkpt>
      <trkpt lat="42.97299" lon="-0.02717">
        <ele>1243.2</ele>
        <time>2024-08-15T07:33:55Z</time>
      </trkpt>
      <trkpt lat="42.973" lon="-0.0272">
        <ele>1243.4</ele>
        <time>2024-08-15T07:33:56Z</time>
      </trkpt>
      <trkpt lat="42.97301" lon="-0.02722">
        <ele>1243.4</ele>
        <time>2024-08-15T07:33:57Z</time>
      </trkpt>
      <trkpt lat="42.97301" lon="-0.02725">
        <ele>1243.8</ele>
        <time>2024-08-15T07:33:58Z</time>
      </trkpt>
      <trkpt lat="42.97302" lon="-0.02727">
        <ele>1244</ele>
        <time>2024-08-15T07:33:59Z</time>
      </trkpt>
      <trkpt lat="42.97303" lon="-0.02729">
        <ele>1244.2</ele>
        <time>2024-08-15T07:34:00Z</time>
      </trkpt>
      <trkpt lat="42.97303" lon="-0.02731">
        <ele>1244.2</ele>
        <time>2024-08-15T07:34:01Z</time>
      </trkpt>
      <trkpt lat="42.97304" lon="-0.02734">
        <ele>1244.4</ele>
        <time>2024-08-15T07:34:02Z</time>
      </trkpt>
      <trkpt lat="42.97305" lon="-0.02736">
        <ele>1244.4</ele>
        <time>2024-08-15T07:34:03Z</time>
      </trkpt>
      <trkpt lat="42.97305" lon="-0.02738">
        <ele>1244.6</ele>
        <time>2024-08-15T07:34:04Z</time>
      </trkpt>
      <trkpt lat="42.97306" lon="-0.02741">
        <ele>1244.8</ele>
        <time>2024-08-15T07:34:05Z</time>
      </trkpt>
      <trkpt lat="42.97307" lon="-0.02743">
        <ele>1245</ele>
        <time>2024-08-15T07:34:06Z</time>
      </trkpt>
      <trkpt lat="42.97308" lon="-0.02746">
        <ele>1245.2</ele>
        <time>2024-08-15T07:34:07Z</time>
      </trkpt>
      <trkpt lat="42.97309" lon="-0.02748">
        <ele>1245.4</ele>
        <time>2024-08-15T07:34:08Z</time>
      </trkpt>
      <trkpt lat="42.9731" lon="-0.0275">
        <ele>1245.4</ele>
        <time>2024-08-15T07:34:09Z</time>
      </trkpt>
      <trkpt lat="42.97311" lon="-0.02752">
        <ele>1245.6</ele>
        <time>2024-08-15T07:34:10Z</time>
      </trkpt>
      <trkpt lat="42.97312" lon="-0.02754">
        <ele>1245.8</ele>
        <time>2024-08-15T07:34:11Z</time>
      </trkpt>
      <trkpt lat="42.97313" lon="-0.02756">
        <ele>1245.8</ele>
        <time>2024-08-15T07:34:12Z</time>
      </trkpt>
      <trkpt lat="42.97314" lon="-0.02758">
        <ele>1246</ele>
        <time>2024-08-15T07:34:13Z</time>
      </trkpt>
      <trkpt lat="42.97315" lon="-0.0276">
        <ele>1246.2</ele>
        <time>2024-08-15T07:34:14Z</time>
      </trkpt>
      <trkpt lat="42.97317" lon="-0.02762">
        <ele>1246.4</ele>
        <time>2024-08-15T07:34:15Z</time>
      </trkpt>
      <trkpt lat="42.97318" lon="-0.02764">
        <ele>1246.4</ele>
        <time>2024-08-15T07:34:16Z</time>
      </trkpt>
      <trkpt lat="42.97319" lon="-0.02766">
        <ele>1246.8</ele>
        <time>2024-08-15T07:34:17Z</time>
      </trkpt>
      <trkpt lat="42.9732" lon="-0.02768">
        <ele>1246.8</ele>
        <time>2024-08-15T07:34:18Z</time>
      </trkpt>
      <trkpt lat="42.97322" lon="-0.02769">
        <ele>1247</ele>
        <time>2024-08-15T07:34:19Z</time>
      </trkpt>
      <trkpt lat="42.97323" lon="-0.0277">
        <ele>1247.2</ele>
        <time>2024-08-15T07:34:20Z</time>
      </trkpt>
      <trkpt lat="42.97324" lon="-0.02771">
        <ele>1247.2</ele>
        <time>2024-08-15T07:34:21Z</time>
      </trkpt>
      <trkpt lat="42.97326" lon="-0.02773">
        <ele>1247.4</ele>
        <time>2024-08-15T07:34:22Z</time>
      </trkpt>
      <trkpt lat="42.97327" lon="-0.02774">
        <ele>1247.4</ele>
        <time>2024-08-15T07:34:23Z</time>
      </trkpt>
      <trkpt lat="42.97329" lon="-0.02773">
        <ele>1247.4</ele>
        <time>2024-08-15T07:34:24Z</time>
      </trkpt>
      <trkpt lat="42.97329" lon="-0.02771">
        <ele>1247.6</ele>
        <time>2024-08-15T07:34:25Z</time>
      </trkpt>
      <trkpt lat="42.9733" lon="-0.02769">
        <ele>1247.8</ele>
        <time>2024-08-15T07:34:26Z</time>
      </trkpt>
      <trkpt lat="42.97329" lon="-0.02767">
        <ele>1247.8</ele>
        <time>2024-08-15T07:34:27Z</time>
      </trkpt>
      <trkpt lat="42.97328" lon="-0.02765">
        <ele>1247.8</ele>
        <time>2024-08-15T07:34:28Z</time>
      </trkpt>
      <trkpt lat="42.97326" lon="-0.02763">
        <ele>1248</ele>
        <time>2024-08-15T07:34:29Z</time>
      </trkpt>
      <trkpt lat="42.97325" lon="-0.02761">
        <ele>1248</ele>
        <time>2024-08-15T07:34:30Z</time>
      </trkpt>
      <trkpt lat="42.97324" lon="-0.02759">
        <ele>1248.2</ele>
        <time>2024-08-15T07:34:31Z</time>
      </trkpt>
      <trkpt lat="42.97323" lon="-0.02756">
        <ele>1248.4</ele>
        <time>2024-08-15T07:34:32Z</time>
      </trkpt>
      <trkpt lat="42.97322" lon="-0.02754">
        <ele>1248.6</ele>
        <time>2024-08-15T07:34:33Z</time>
      </trkpt>
      <trkpt lat="42.97321" lon="-0.02753">
        <ele>1248.6</ele>
        <time>2024-08-15T07:34:34Z</time>
      </trkpt>
      <trkpt lat="42.97321" lon="-0.0275">
        <ele>1248.8</ele>
        <time>2024-08-15T07:34:35Z</time>
      </trkpt>
      <trkpt lat="42.9732" lon="-0.02748">
        <ele>1248.8</ele>
        <time>2024-08-15T07:34:36Z</time>
      </trkpt>
      <trkpt lat="42.9732" lon="-0.02745">
        <ele>1249</ele>
        <time>2024-08-15T07:34:37Z</time>
      </trkpt>
      <trkpt lat="42.9732" lon="-0.02742">
        <ele>1249.2</ele>
        <time>2024-08-15T07:34:38Z</time>
      </trkpt>
      <trkpt lat="42.9732" lon="-0.0274">
        <ele>1249.4</ele>
        <time>2024-08-15T07:34:39Z</time>
      </trkpt>
      <trkpt lat="42.9732" lon="-0.02737">
        <ele>1249.8</ele>
        <time>2024-08-15T07:34:40Z</time>
      </trkpt>
      <trkpt lat="42.9732" lon="-0.02735">
        <ele>1249.8</ele>
        <time>2024-08-15T07:34:41Z</time>
      </trkpt>
      <trkpt lat="42.9732" lon="-0.02732">
        <ele>1250.2</ele>
        <time>2024-08-15T07:34:42Z</time>
      </trkpt>
      <trkpt lat="42.9732" lon="-0.0273">
        <ele>1250.4</ele>
        <time>2024-08-15T07:34:43Z</time>
      </trkpt>
      <trkpt lat="42.97321" lon="-0.02727">
        <ele>1250.6</ele>
        <time>2024-08-15T07:34:44Z</time>
      </trkpt>
      <trkpt lat="42.97321" lon="-0.02724">
        <ele>1250.8</ele>
        <time>2024-08-15T07:34:45Z</time>
      </trkpt>
      <trkpt lat="42.97321" lon="-0.02722">
        <ele>1251.2</ele>
        <time>2024-08-15T07:34:46Z</time>
      </trkpt>
      <trkpt lat="42.97321" lon="-0.02719">
        <ele>1251.6</ele>
        <time>2024-08-15T07:34:47Z</time>
      </trkpt>
      <trkpt lat="42.97322" lon="-0.02717">
        <ele>1251.6</ele>
        <time>2024-08-15T07:34:48Z</time>
      </trkpt>
      <trkpt lat="42.97322" lon="-0.02714">
        <ele>1252</ele>
        <time>2024-08-15T07:34:49Z</time>
      </trkpt>
      <trkpt lat="42.97322" lon="-0.02711">
        <ele>1252</ele>
        <time>2024-08-15T07:34:50Z</time>
      </trkpt>
      <trkpt lat="42.97323" lon="-0.02708">
        <ele>1252.2</ele>
        <time>2024-08-15T07:34:51Z</time>
      </trkpt>
      <trkpt lat="42.97323" lon="-0.02705">
        <ele>1252.4</ele>
        <time>2024-08-15T07:34:52Z</time>
      </trkpt>
      <trkpt lat="42.97324" lon="-0.02703">
        <ele>1252.6</ele>
        <time>2024-08-15T07:34:53Z</time>
      </trkpt>
      <trkpt lat="42.97324" lon="-0.02701">
        <ele>1252.8</ele>
        <time>2024-08-15T07:34:54Z</time>
      </trkpt>
      <trkpt lat="42.97324" lon="-0.02698">
        <ele>1253</ele>
        <time>2024-08-15T07:34:55Z</time>
      </trkpt>
      <trkpt lat="42.97324" lon="-0.02695">
        <ele>1253.4</ele>
        <time>2024-08-15T07:34:56Z</time>
      </trkpt>
      <trkpt lat="42.97324" lon="-0.02692">
        <ele>1253.4</ele>
        <time>2024-08-15T07:34:57Z</time>
      </trkpt>
      <trkpt lat="42.97324" lon="-0.0269">
        <ele>1253.8</ele>
        <time>2024-08-15T07:34:58Z</time>
      </trkpt>
      <trkpt lat="42.97325" lon="-0.02687">
        <ele>1254</ele>
        <time>2024-08-15T07:34:59Z</time>
      </trkpt>
      <trkpt lat="42.97325" lon="-0.02684">
        <ele>1254.4</ele>
        <time>2024-08-15T07:35:00Z</time>
      </trkpt>
      <trkpt lat="42.97325" lon="-0.02682">
        <ele>1254.6</ele>
        <time>2024-08-15T07:35:01Z</time>
      </trkpt>
      <trkpt lat="42.97325" lon="-0.02679">
        <ele>1255</ele>
        <time>2024-08-15T07:35:02Z</time>
      </trkpt>
      <trkpt lat="42.97325" lon="-0.02677">
        <ele>1255.4</ele>
        <time>2024-08-15T07:35:03Z</time>
      </trkpt>
      <trkpt lat="42.97325" lon="-0.02674">
        <ele>1255.4</ele>
        <time>2024-08-15T07:35:04Z</time>
      </trkpt>
      <trkpt lat="42.97325" lon="-0.02672">
        <ele>1256</ele>
        <time>2024-08-15T07:35:05Z</time>
      </trkpt>
      <trkpt lat="42.97325" lon="-0.02669">
        <ele>1256.2</ele>
        <time>2024-08-15T07:35:06Z</time>
      </trkpt>
      <trkpt lat="42.97325" lon="-0.02667">
        <ele>1256.4</ele>
        <time>2024-08-15T07:35:07Z</time>
      </trkpt>
      <trkpt lat="42.97325" lon="-0.02664">
        <ele>1256.6</ele>
        <time>2024-08-15T07:35:08Z</time>
      </trkpt>
      <trkpt lat="42.97325" lon="-0.02662">
        <ele>1257.2</ele>
        <time>2024-08-15T07:35:09Z</time>
      </trkpt>
      <trkpt lat="42.97326" lon="-0.02659">
        <ele>1257.2</ele>
        <time>2024-08-15T07:35:10Z</time>
      </trkpt>
      <trkpt lat="42.97326" lon="-0.02656">
        <ele>1257.2</ele>
        <time>2024-08-15T07:35:11Z</time>
      </trkpt>
      <trkpt lat="42.97326" lon="-0.02654">
        <ele>1257.4</ele>
        <time>2024-08-15T07:35:12Z</time>
      </trkpt>
      <trkpt lat="42.97326" lon="-0.02651">
        <ele>1257.8</ele>
        <time>2024-08-15T07:35:13Z</time>
      </trkpt>
      <trkpt lat="42.97326" lon="-0.02649">
        <ele>1258</ele>
        <time>2024-08-15T07:35:14Z</time>
      </trkpt>
      <trkpt lat="42.97326" lon="-0.02646">
        <ele>1258.2</ele>
        <time>2024-08-15T07:35:15Z</time>
      </trkpt>
      <trkpt lat="42.97326" lon="-0.02644">
        <ele>1258.4</ele>
        <time>2024-08-15T07:35:16Z</time>
      </trkpt>
      <trkpt lat="42.97326" lon="-0.02641">
        <ele>1258.6</ele>
        <time>2024-08-15T07:35:17Z</time>
      </trkpt>
      <trkpt lat="42.97326" lon="-0.02639">
        <ele>1258.8</ele>
        <time>2024-08-15T07:35:18Z</time>
      </trkpt>
      <trkpt lat="42.97326" lon="-0.02636">
        <ele>1259.2</ele>
        <time>2024-08-15T07:35:19Z</time>
      </trkpt>
      <trkpt lat="42.97326" lon="-0.02634">
        <ele>1259.6</ele>
        <time>2024-08-15T07:35:20Z</time>
      </trkpt>
      <trkpt lat="42.97326" lon="-0.02631">
        <ele>1259.8</ele>
        <time>2024-08-15T07:35:21Z</time>
      </trkpt>
      <trkpt lat="42.97326" lon="-0.02628">
        <ele>1259.8</ele>
        <time>2024-08-15T07:35:22Z</time>
      </trkpt>
      <trkpt lat="42.97326" lon="-0.02626">
        <ele>1260.2</ele>
        <time>2024-08-15T07:35:23Z</time>
      </trkpt>
      <trkpt lat="42.97327" lon="-0.02624">
        <ele>1260.2</ele>
        <time>2024-08-15T07:35:24Z</time>
      </trkpt>
      <trkpt lat="42.97327" lon="-0.02621">
        <ele>1260.6</ele>
        <time>2024-08-15T07:35:25Z</time>
      </trkpt>
      <trkpt lat="42.97327" lon="-0.02619">
        <ele>1260.8</ele>
        <time>2024-08-15T07:35:26Z</time>
      </trkpt>
      <trkpt lat="42.97327" lon="-0.02616">
        <ele>1260.8</ele>
        <time>2024-08-15T07:35:27Z</time>
      </trkpt>
      <trkpt lat="42.97327" lon="-0.02614">
        <ele>1261.2</ele>
        <time>2024-08-15T07:35:28Z</time>
      </trkpt>
      <trkpt lat="42.97327" lon="-0.02612">
        <ele>1261.4</ele>
        <time>2024-08-15T07:35:29Z</time>
      </trkpt>
      <trkpt lat="42.97327" lon="-0.02609">
        <ele>1261.6</ele>
        <time>2024-08-15T07:35:30Z</time>
      </trkpt>
      <trkpt lat="42.97327" lon="-0.02607">
        <ele>1261.8</ele>
        <time>2024-08-15T07:35:31Z</time>
      </trkpt>
      <trkpt lat="42.97326" lon="-0.02605">
        <ele>1262</ele>
        <time>2024-08-15T07:35:32Z</time>
      </trkpt>
      <trkpt lat="42.97326" lon="-0.02602">
        <ele>1262.2</ele>
        <time>2024-08-15T07:35:33Z</time>
      </trkpt>
      <trkpt lat="42.97326" lon="-0.02599">
        <ele>1262.4</ele>
        <time>2024-08-15T07:35:34Z</time>
      </trkpt>
      <trkpt lat="42.97326" lon="-0.02597">
        <ele>1262.8</ele>
        <time>2024-08-15T07:35:35Z</time>
      </trkpt>
      <trkpt lat="42.97326" lon="-0.02595">
        <ele>1263</ele>
        <time>2024-08-15T07:35:36Z</time>
      </trkpt>
      <trkpt lat="42.97326" lon="-0.02592">
        <ele>1263.2</ele>
        <time>2024-08-15T07:35:37Z</time>
      </trkpt>
      <trkpt lat="42.97326" lon="-0.0259">
        <ele>1263.4</ele>
        <time>2024-08-15T07:35:38Z</time>
      </trkpt>
      <trkpt lat="42.97326" lon="-0.02587">
        <ele>1263.6</ele>
        <time>2024-08-15T07:35:39Z</time>
      </trkpt>
      <trkpt lat="42.97326" lon="-0.02585">
        <ele>1263.6</ele>
        <time>2024-08-15T07:35:40Z</time>
      </trkpt>
      <trkpt lat="42.97326" lon="-0.02582">
        <ele>1264</ele>
        <time>2024-08-15T07:35:41Z</time>
      </trkpt>
      <trkpt lat="42.97326" lon="-0.0258">
        <ele>1264.2</ele>
        <time>2024-08-15T07:35:42Z</time>
      </trkpt>
      <trkpt lat="42.97325" lon="-0.02578">
        <ele>1264.4</ele>
        <time>2024-08-15T07:35:43Z</time>
      </trkpt>
      <trkpt lat="42.97325" lon="-0.02575">
        <ele>1264.8</ele>
        <time>2024-08-15T07:35:44Z</time>
      </trkpt>
      <trkpt lat="42.97324" lon="-0.02573">
        <ele>1265</ele>
        <time>2024-08-15T07:35:45Z</time>
      </trkpt>
      <trkpt lat="42.97324" lon="-0.0257">
        <ele>1265.4</ele>
        <time>2024-08-15T07:35:46Z</time>
      </trkpt>
      <trkpt lat="42.97324" lon="-0.02568">
        <ele>1265.4</ele>
        <time>2024-08-15T07:35:47Z</time>
      </trkpt>
      <trkpt lat="42.97323" lon="-0.02566">
        <ele>1265.8</ele>
        <time>2024-08-15T07:35:48Z</time>
      </trkpt>
      <trkpt lat="42.97322" lon="-0.02563">
        <ele>1266</ele>
        <time>2024-08-15T07:35:49Z</time>
      </trkpt>
      <trkpt lat="42.97322" lon="-0.02561">
        <ele>1266.2</ele>
        <time>2024-08-15T07:35:50Z</time>
      </trkpt>
      <trkpt lat="42.97321" lon="-0.02559">
        <ele>1266.6</ele>
        <time>2024-08-15T07:35:51Z</time>
      </trkpt>
      <trkpt lat="42.9732" lon="-0.02556">
        <ele>1266.8</ele>
        <time>2024-08-15T07:35:52Z</time>
      </trkpt>
      <trkpt lat="42.9732" lon="-0.02554">
        <ele>1267</ele>
        <time>2024-08-15T07:35:53Z</time>
      </trkpt>
      <trkpt lat="42.97319" lon="-0.02552">
        <ele>1267</ele>
        <time>2024-08-15T07:35:54Z</time>
      </trkpt>
      <trkpt lat="42.97318" lon="-0.02549">
        <ele>1267.2</ele>
        <time>2024-08-15T07:35:55Z</time>
      </trkpt>
      <trkpt lat="42.97318" lon="-0.02547">
        <ele>1267.4</ele>
        <time>2024-08-15T07:35:56Z</time>
      </trkpt>
      <trkpt lat="42.97317" lon="-0.02545">
        <ele>1267.6</ele>
        <time>2024-08-15T07:35:57Z</time>
      </trkpt>
      <trkpt lat="42.97316" lon="-0.02543">
        <ele>1267.8</ele>
        <time>2024-08-15T07:35:58Z</time>
      </trkpt>
      <trkpt lat="42.97315" lon="-0.02541">
        <ele>1268</ele>
        <time>2024-08-15T07:35:59Z</time>
      </trkpt>
      <trkpt lat="42.97314" lon="-0.02538">
        <ele>1268.2</ele>
        <time>2024-08-15T07:36:00Z</time>
      </trkpt>
      <trkpt lat="42.97313" lon="-0.02536">
        <ele>1268.4</ele>
        <time>2024-08-15T07:36:01Z</time>
      </trkpt>
      <trkpt lat="42.97313" lon="-0.02534">
        <ele>1268.8</ele>
        <time>2024-08-15T07:36:02Z</time>
      </trkpt>
      <trkpt lat="42.97313" lon="-0.02531">
        <ele>1269</ele>
        <time>2024-08-15T07:36:03Z</time>
      </trkpt>
      <trkpt lat="42.97312" lon="-0.02529">
        <ele>1269</ele>
        <time>2024-08-15T07:36:04Z</time>
      </trkpt>
      <trkpt lat="42.97312" lon="-0.02526">
        <ele>1269.4</ele>
        <time>2024-08-15T07:36:05Z</time>
      </trkpt>
      <trkpt lat="42.97311" lon="-0.02524">
        <ele>1269.4</ele>
        <time>2024-08-15T07:36:06Z</time>
      </trkpt>
      <trkpt lat="42.97311" lon="-0.02521">
        <ele>1269.6</ele>
        <time>2024-08-15T07:36:07Z</time>
      </trkpt>
      <trkpt lat="42.97311" lon="-0.02519">
        <ele>1269.6</ele>
        <time>2024-08-15T07:36:08Z</time>
      </trkpt>
      <trkpt lat="42.97311" lon="-0.02517">
        <ele>1270</ele>
        <time>2024-08-15T07:36:09Z</time>
      </trkpt>
      <trkpt lat="42.97311" lon="-0.02515">
        <ele>1270</ele>
        <time>2024-08-15T07:36:10Z</time>
      </trkpt>
      <trkpt lat="42.9731" lon="-0.02512">
        <ele>1270.4</ele>
        <time>2024-08-15T07:36:11Z</time>
      </trkpt>
      <trkpt lat="42.97309" lon="-0.02509">
        <ele>1270.6</ele>
        <time>2024-08-15T07:36:12Z</time>
      </trkpt>
      <trkpt lat="42.97309" lon="-0.02507">
        <ele>1270.8</ele>
        <time>2024-08-15T07:36:13Z</time>
      </trkpt>
      <trkpt lat="42.97308" lon="-0.02505">
        <ele>1271</ele>
        <time>2024-08-15T07:36:14Z</time>
      </trkpt>
      <trkpt lat="42.97308" lon="-0.02502">
        <ele>1271.2</ele>
        <time>2024-08-15T07:36:15Z</time>
      </trkpt>
      <trkpt lat="42.97308" lon="-0.02499">
        <ele>1271.4</ele>
        <time>2024-08-15T07:36:16Z</time>
      </trkpt>
      <trkpt lat="42.97308" lon="-0.02497">
        <ele>1271.6</ele>
        <time>2024-08-15T07:36:17Z</time>
      </trkpt>
      <trkpt lat="42.97308" lon="-0.02494">
        <ele>1271.8</ele>
        <time>2024-08-15T07:36:18Z</time>
      </trkpt>
      <trkpt lat="42.97308" lon="-0.02492">
        <ele>1272</ele>
        <time>2024-08-15T07:36:19Z</time>
      </trkpt>
      <trkpt lat="42.97307" lon="-0.02489">
        <ele>1272.2</ele>
        <time>2024-08-15T07:36:20Z</time>
      </trkpt>
      <trkpt lat="42.97307" lon="-0.02487">
        <ele>1272.4</ele>
        <time>2024-08-15T07:36:21Z</time>
      </trkpt>
      <trkpt lat="42.97306" lon="-0.02485">
        <ele>1272.6</ele>
        <time>2024-08-15T07:36:22Z</time>
      </trkpt>
      <trkpt lat="42.97306" lon="-0.02482">
        <ele>1273</ele>
        <time>2024-08-15T07:36:23Z</time>
      </trkpt>
      <trkpt lat="42.97305" lon="-0.02479">
        <ele>1273</ele>
        <time>2024-08-15T07:36:24Z</time>
      </trkpt>
      <trkpt lat="42.97305" lon="-0.02477">
        <ele>1273.4</ele>
        <time>2024-08-15T07:36:25Z</time>
      </trkpt>
      <trkpt lat="42.97305" lon="-0.02474">
        <ele>1273.6</ele>
        <time>2024-08-15T07:36:26Z</time>
      </trkpt>
      <trkpt lat="42.97305" lon="-0.02472">
        <ele>1273.8</ele>
        <time>2024-08-15T07:36:27Z</time>
      </trkpt>
      <trkpt lat="42.97305" lon="-0.0247">
        <ele>1273.8</ele>
        <time>2024-08-15T07:36:28Z</time>
      </trkpt>
      <trkpt lat="42.97305" lon="-0.02468">
        <ele>1274</ele>
        <time>2024-08-15T07:36:29Z</time>
      </trkpt>
      <trkpt lat="42.97305" lon="-0.02465">
        <ele>1274.2</ele>
        <time>2024-08-15T07:36:30Z</time>
      </trkpt>
      <trkpt lat="42.97305" lon="-0.02463">
        <ele>1274.4</ele>
        <time>2024-08-15T07:36:31Z</time>
      </trkpt>
      <trkpt lat="42.97304" lon="-0.02461">
        <ele>1274.6</ele>
        <time>2024-08-15T07:36:32Z</time>
      </trkpt>
      <trkpt lat="42.97305" lon="-0.02458">
        <ele>1274.8</ele>
        <time>2024-08-15T07:36:33Z</time>
      </trkpt>
      <trkpt lat="42.97304" lon="-0.02456">
        <ele>1275</ele>
        <time>2024-08-15T07:36:34Z</time>
      </trkpt>
      <trkpt lat="42.97304" lon="-0.02454">
        <ele>1275</ele>
        <time>2024-08-15T07:36:35Z</time>
      </trkpt>
      <trkpt lat="42.97304" lon="-0.02451">
        <ele>1275.2</ele>
        <time>2024-08-15T07:36:36Z</time>
      </trkpt>
      <trkpt lat="42.97304" lon="-0.02448">
        <ele>1275.4</ele>
        <time>2024-08-15T07:36:37Z</time>
      </trkpt>
      <trkpt lat="42.97303" lon="-0.02446">
        <ele>1275.4</ele>
        <time>2024-08-15T07:36:38Z</time>
      </trkpt>
      <trkpt lat="42.97303" lon="-0.02443">
        <ele>1275.8</ele>
        <time>2024-08-15T07:36:39Z</time>
      </trkpt>
      <trkpt lat="42.97302" lon="-0.02441">
        <ele>1276</ele>
        <time>2024-08-15T07:36:40Z</time>
      </trkpt>
      <trkpt lat="42.97302" lon="-0.02438">
        <ele>1276.2</ele>
        <time>2024-08-15T07:36:41Z</time>
      </trkpt>
      <trkpt lat="42.97302" lon="-0.02435">
        <ele>1276.4</ele>
        <time>2024-08-15T07:36:42Z</time>
      </trkpt>
      <trkpt lat="42.97301" lon="-0.02433">
        <ele>1276.6</ele>
        <time>2024-08-15T07:36:43Z</time>
      </trkpt>
      <trkpt lat="42.973" lon="-0.02431">
        <ele>1276.8</ele>
        <time>2024-08-15T07:36:44Z</time>
      </trkpt>
      <trkpt lat="42.973" lon="-0.02429">
        <ele>1277</ele>
        <time>2024-08-15T07:36:45Z</time>
      </trkpt>
      <trkpt lat="42.97299" lon="-0.02427">
        <ele>1277.2</ele>
        <time>2024-08-15T07:36:46Z</time>
      </trkpt>
      <trkpt lat="42.97299" lon="-0.02424">
        <ele>1277.4</ele>
        <time>2024-08-15T07:36:47Z</time>
      </trkpt>
      <trkpt lat="42.97298" lon="-0.02422">
        <ele>1277.6</ele>
        <time>2024-08-15T07:36:48Z</time>
      </trkpt>
      <trkpt lat="42.97298" lon="-0.02419">
        <ele>1277.6</ele>
        <time>2024-08-15T07:36:49Z</time>
      </trkpt>
      <trkpt lat="42.97297" lon="-0.02417">
        <ele>1278</ele>
        <time>2024-08-15T07:36:50Z</time>
      </trkpt>
      <trkpt lat="42.97296" lon="-0.02415">
        <ele>1278.2</ele>
        <time>2024-08-15T07:36:51Z</time>
      </trkpt>
      <trkpt lat="42.97296" lon="-0.02412">
        <ele>1278.4</ele>
        <time>2024-08-15T07:36:52Z</time>
      </trkpt>
      <trkpt lat="42.97295" lon="-0.0241">
        <ele>1278.6</ele>
        <time>2024-08-15T07:36:53Z</time>
      </trkpt>
      <trkpt lat="42.97295" lon="-0.02408">
        <ele>1278.8</ele>
        <time>2024-08-15T07:36:54Z</time>
      </trkpt>
      <trkpt lat="42.97295" lon="-0.02405">
        <ele>1279</ele>
        <time>2024-08-15T07:36:55Z</time>
      </trkpt>
      <trkpt lat="42.97295" lon="-0.02403">
        <ele>1279</ele>
        <time>2024-08-15T07:36:56Z</time>
      </trkpt>
      <trkpt lat="42.97294" lon="-0.024">
        <ele>1279.6</ele>
        <time>2024-08-15T07:36:57Z</time>
      </trkpt>
      <trkpt lat="42.97293" lon="-0.02398">
        <ele>1279.6</ele>
        <time>2024-08-15T07:36:58Z</time>
      </trkpt>
      <trkpt lat="42.97293" lon="-0.02396">
        <ele>1279.8</ele>
        <time>2024-08-15T07:36:59Z</time>
      </trkpt>
      <trkpt lat="42.97292" lon="-0.02394">
        <ele>1280.2</ele>
        <time>2024-08-15T07:37:00Z</time>
      </trkpt>
      <trkpt lat="42.97291" lon="-0.02392">
        <ele>1280.4</ele>
        <time>2024-08-15T07:37:01Z</time>
      </trkpt>
      <trkpt lat="42.9729" lon="-0.02389">
        <ele>1280.6</ele>
        <time>2024-08-15T07:37:02Z</time>
      </trkpt>
      <trkpt lat="42.9729" lon="-0.02387">
        <ele>1280.8</ele>
        <time>2024-08-15T07:37:03Z</time>
      </trkpt>
      <trkpt lat="42.97289" lon="-0.02384">
        <ele>1281</ele>
        <time>2024-08-15T07:37:04Z</time>
      </trkpt>
      <trkpt lat="42.97289" lon="-0.02381">
        <ele>1281</ele>
        <time>2024-08-15T07:37:05Z</time>
      </trkpt>
      <trkpt lat="42.97288" lon="-0.02379">
        <ele>1281.4</ele>
        <time>2024-08-15T07:37:06Z</time>
      </trkpt>
      <trkpt lat="42.97287" lon="-0.02376">
        <ele>1281.8</ele>
        <time>2024-08-15T07:37:07Z</time>
      </trkpt>
      <trkpt lat="42.97286" lon="-0.02374">
        <ele>1281.8</ele>
        <time>2024-08-15T07:37:08Z</time>
      </trkpt>
      <trkpt lat="42.97286" lon="-0.02371">
        <ele>1282.2</ele>
        <time>2024-08-15T07:37:09Z</time>
      </trkpt>
      <trkpt lat="42.97285" lon="-0.02368">
        <ele>1282.4</ele>
        <time>2024-08-15T07:37:10Z</time>
      </trkpt>
      <trkpt lat="42.97285" lon="-0.02365">
        <ele>1282.6</ele>
        <time>2024-08-15T07:37:11Z</time>
      </trkpt>
      <trkpt lat="42.97285" lon="-0.02363">
        <ele>1282.6</ele>
        <time>2024-08-15T07:37:12Z</time>
      </trkpt>
      <trkpt lat="42.97284" lon="-0.0236">
        <ele>1283</ele>
        <time>2024-08-15T07:37:13Z</time>
      </trkpt>
      <trkpt lat="42.97284" lon="-0.02357">
        <ele>1283.2</ele>
        <time>2024-08-15T07:37:14Z</time>
      </trkpt>
      <trkpt lat="42.97283" lon="-0.02354">
        <ele>1283.4</ele>
        <time>2024-08-15T07:37:15Z</time>
      </trkpt>
      <trkpt lat="42.97283" lon="-0.02352">
        <ele>1283.6</ele>
        <time>2024-08-15T07:37:16Z</time>
      </trkpt>
      <trkpt lat="42.97282" lon="-0.0235">
        <ele>1283.8</ele>
        <time>2024-08-15T07:37:17Z</time>
      </trkpt>
      <trkpt lat="42.97282" lon="-0.02347">
        <ele>1284.2</ele>
        <time>2024-08-15T07:37:18Z</time>
      </trkpt>
      <trkpt lat="42.97282" lon="-0.02345">
        <ele>1284.4</ele>
        <time>2024-08-15T07:37:19Z</time>
      </trkpt>
      <trkpt lat="42.97281" lon="-0.02342">
        <ele>1284.8</ele>
        <time>2024-08-15T07:37:20Z</time>
      </trkpt>
      <trkpt lat="42.97281" lon="-0.0234">
        <ele>1285</ele>
        <time>2024-08-15T07:37:21Z</time>
      </trkpt>
      <trkpt lat="42.9728" lon="-0.02338">
        <ele>1285.2</ele>
        <time>2024-08-15T07:37:22Z</time>
      </trkpt>
      <trkpt lat="42.9728" lon="-0.02335">
        <ele>1285.4</ele>
        <time>2024-08-15T07:37:23Z</time>
      </trkpt>
      <trkpt lat="42.9728" lon="-0.02333">
        <ele>1285.4</ele>
        <time>2024-08-15T07:37:24Z</time>
      </trkpt>
      <trkpt lat="42.97279" lon="-0.02331">
        <ele>1285.8</ele>
        <time>2024-08-15T07:37:25Z</time>
      </trkpt>
      <trkpt lat="42.97279" lon="-0.02328">
        <ele>1286</ele>
        <time>2024-08-15T07:37:26Z</time>
      </trkpt>
      <trkpt lat="42.97278" lon="-0.02326">
        <ele>1286.2</ele>
        <time>2024-08-15T07:37:27Z</time>
      </trkpt>
      <trkpt lat="42.97278" lon="-0.02324">
        <ele>1286.4</ele>
        <time>2024-08-15T07:37:28Z</time>
      </trkpt>
      <trkpt lat="42.97278" lon="-0.02321">
        <ele>1286.6</ele>
        <time>2024-08-15T07:37:29Z</time>
      </trkpt>
      <trkpt lat="42.97278" lon="-0.02319">
        <ele>1286.8</ele>
        <time>2024-08-15T07:37:30Z</time>
      </trkpt>
      <trkpt lat="42.97277" lon="-0.02316">
        <ele>1287</ele>
        <time>2024-08-15T07:37:31Z</time>
      </trkpt>
      <trkpt lat="42.97277" lon="-0.02314">
        <ele>1287.2</ele>
        <time>2024-08-15T07:37:32Z</time>
      </trkpt>
      <trkpt lat="42.97276" lon="-0.02312">
        <ele>1287.4</ele>
        <time>2024-08-15T07:37:33Z</time>
      </trkpt>
      <trkpt lat="42.97276" lon="-0.0231">
        <ele>1287.6</ele>
        <time>2024-08-15T07:37:34Z</time>
      </trkpt>
      <trkpt lat="42.97276" lon="-0.02307">
        <ele>1287.6</ele>
        <time>2024-08-15T07:37:35Z</time>
      </trkpt>
      <trkpt lat="42.97275" lon="-0.02305">
        <ele>1287.8</ele>
        <time>2024-08-15T07:37:36Z</time>
      </trkpt>
      <trkpt lat="42.97275" lon="-0.02302">
        <ele>1288</ele>
        <time>2024-08-15T07:37:37Z</time>
      </trkpt>
      <trkpt lat="42.97274" lon="-0.023">
        <ele>1288.2</ele>
        <time>2024-08-15T07:37:38Z</time>
      </trkpt>
      <trkpt lat="42.97274" lon="-0.02298">
        <ele>1288.6</ele>
        <time>2024-08-15T07:37:39Z</time>
      </trkpt>
      <trkpt lat="42.97273" lon="-0.02296">
        <ele>1288.8</ele>
        <time>2024-08-15T07:37:40Z</time>
      </trkpt>
      <trkpt lat="42.97273" lon="-0.02293">
        <ele>1289</ele>
        <time>2024-08-15T07:37:41Z</time>
      </trkpt>
      <trkpt lat="42.97272" lon="-0.02291">
        <ele>1289.2</ele>
        <time>2024-08-15T07:37:42Z</time>
      </trkpt>
      <trkpt lat="42.97272" lon="-0.02289">
        <ele>1289.4</ele>
        <time>2024-08-15T07:37:43Z</time>
      </trkpt>
      <trkpt lat="42.97271" lon="-0.02287">
        <ele>1289.4</ele>
        <time>2024-08-15T07:37:44Z</time>
      </trkpt>
      <trkpt lat="42.9727" lon="-0.02285">
        <ele>1289.8</ele>
        <time>2024-08-15T07:37:45Z</time>
      </trkpt>
      <trkpt lat="42.9727" lon="-0.02283">
        <ele>1290</ele>
        <time>2024-08-15T07:37:46Z</time>
      </trkpt>
      <trkpt lat="42.97269" lon="-0.0228">
        <ele>1290.2</ele>
        <time>2024-08-15T07:37:47Z</time>
      </trkpt>
      <trkpt lat="42.97269" lon="-0.02278">
        <ele>1290.4</ele>
        <time>2024-08-15T07:37:48Z</time>
      </trkpt>
      <trkpt lat="42.97268" lon="-0.02275">
        <ele>1290.6</ele>
        <time>2024-08-15T07:37:49Z</time>
      </trkpt>
      <trkpt lat="42.97268" lon="-0.02273">
        <ele>1290.8</ele>
        <time>2024-08-15T07:37:50Z</time>
      </trkpt>
      <trkpt lat="42.97267" lon="-0.02271">
        <ele>1290.8</ele>
        <time>2024-08-15T07:37:51Z</time>
      </trkpt>
      <trkpt lat="42.97267" lon="-0.02269">
        <ele>1291.2</ele>
        <time>2024-08-15T07:37:52Z</time>
      </trkpt>
      <trkpt lat="42.97266" lon="-0.02267">
        <ele>1291.4</ele>
        <time>2024-08-15T07:37:53Z</time>
      </trkpt>
      <trkpt lat="42.97265" lon="-0.02265">
        <ele>1291.6</ele>
        <time>2024-08-15T07:37:54Z</time>
      </trkpt>
      <trkpt lat="42.97264" lon="-0.02263">
        <ele>1291.8</ele>
        <time>2024-08-15T07:37:55Z</time>
      </trkpt>
      <trkpt lat="42.97264" lon="-0.02261">
        <ele>1292</ele>
        <time>2024-08-15T07:37:56Z</time>
      </trkpt>
      <trkpt lat="42.97263" lon="-0.02259">
        <ele>1292.2</ele>
        <time>2024-08-15T07:37:57Z</time>
      </trkpt>
      <trkpt lat="42.97263" lon="-0.02257">
        <ele>1292.2</ele>
        <time>2024-08-15T07:37:58Z</time>
      </trkpt>
      <trkpt lat="42.97262" lon="-0.02255">
        <ele>1292.6</ele>
        <time>2024-08-15T07:37:59Z</time>
      </trkpt>
      <trkpt lat="42.97261" lon="-0.02253">
        <ele>1292.6</ele>
        <time>2024-08-15T07:38:00Z</time>
      </trkpt>
      <trkpt lat="42.97261" lon="-0.02251">
        <ele>1293</ele>
        <time>2024-08-15T07:38:01Z</time>
      </trkpt>
      <trkpt lat="42.9726" lon="-0.02248">
        <ele>1293.2</ele>
        <time>2024-08-15T07:38:02Z</time>
      </trkpt>
      <trkpt lat="42.9726" lon="-0.02246">
        <ele>1293.2</ele>
        <time>2024-08-15T07:38:03Z</time>
      </trkpt>
      <trkpt lat="42.97259" lon="-0.02244">
        <ele>1293.6</ele>
        <time>2024-08-15T07:38:04Z</time>
      </trkpt>
      <trkpt lat="42.97258" lon="-0.02242">
        <ele>1293.8</ele>
        <time>2024-08-15T07:38:05Z</time>
      </trkpt>
      <trkpt lat="42.97257" lon="-0.02239">
        <ele>1294.2</ele>
        <time>2024-08-15T07:38:06Z</time>
      </trkpt>
      <trkpt lat="42.97256" lon="-0.02237">
        <ele>1294.4</ele>
        <time>2024-08-15T07:38:07Z</time>
      </trkpt>
      <trkpt lat="42.97256" lon="-0.02234">
        <ele>1294.6</ele>
        <time>2024-08-15T07:38:08Z</time>
      </trkpt>
      <trkpt lat="42.97256" lon="-0.02231">
        <ele>1294.8</ele>
        <time>2024-08-15T07:38:09Z</time>
      </trkpt>
      <trkpt lat="42.97255" lon="-0.02229">
        <ele>1295</ele>
        <time>2024-08-15T07:38:10Z</time>
      </trkpt>
      <trkpt lat="42.97255" lon="-0.02226">
        <ele>1295.2</ele>
        <time>2024-08-15T07:38:11Z</time>
      </trkpt>
      <trkpt lat="42.97255" lon="-0.02224">
        <ele>1295.4</ele>
        <time>2024-08-15T07:38:12Z</time>
      </trkpt>
      <trkpt lat="42.97255" lon="-0.02221">
        <ele>1295.8</ele>
        <time>2024-08-15T07:38:13Z</time>
      </trkpt>
      <trkpt lat="42.97254" lon="-0.02219">
        <ele>1296</ele>
        <time>2024-08-15T07:38:14Z</time>
      </trkpt>
      <trkpt lat="42.97254" lon="-0.02217">
        <ele>1296</ele>
        <time>2024-08-15T07:38:15Z</time>
      </trkpt>
      <trkpt lat="42.97254" lon="-0.02214">
        <ele>1296.2</ele>
        <time>2024-08-15T07:38:16Z</time>
      </trkpt>
      <trkpt lat="42.97253" lon="-0.02212">
        <ele>1296.6</ele>
        <time>2024-08-15T07:38:17Z</time>
      </trkpt>
      <trkpt lat="42.97253" lon="-0.0221">
        <ele>1296.8</ele>
        <time>2024-08-15T07:38:18Z</time>
      </trkpt>
      <trkpt lat="42.97253" lon="-0.02208">
        <ele>1296.8</ele>
        <time>2024-08-15T07:38:19Z</time>
      </trkpt>
      <trkpt lat="42.97252" lon="-0.02206">
        <ele>1297.2</ele>
        <time>2024-08-15T07:38:20Z</time>
      </trkpt>
      <trkpt lat="42.97252" lon="-0.02203">
        <ele>1297.2</ele>
        <time>2024-08-15T07:38:21Z</time>
      </trkpt>
      <trkpt lat="42.97251" lon="-0.02201">
        <ele>1297.6</ele>
        <time>2024-08-15T07:38:22Z</time>
      </trkpt>
      <trkpt lat="42.9725" lon="-0.02199">
        <ele>1297.8</ele>
        <time>2024-08-15T07:38:23Z</time>
      </trkpt>
      <trkpt lat="42.9725" lon="-0.02197">
        <ele>1298</ele>
        <time>2024-08-15T07:38:24Z</time>
      </trkpt>
      <trkpt lat="42.97249" lon="-0.02195">
        <ele>1298.2</ele>
        <time>2024-08-15T07:38:25Z</time>
      </trkpt>
      <trkpt lat="42.97249" lon="-0.02193">
        <ele>1298.4</ele>
        <time>2024-08-15T07:38:26Z</time>
      </trkpt>
      <trkpt lat="42.97248" lon="-0.0219">
        <ele>1298.8</ele>
        <time>2024-08-15T07:38:27Z</time>
      </trkpt>
      <trkpt lat="42.97247" lon="-0.02188">
        <ele>1299</ele>
        <time>2024-08-15T07:38:28Z</time>
      </trkpt>
      <trkpt lat="42.97247" lon="-0.02186">
        <ele>1299.2</ele>
        <time>2024-08-15T07:38:29Z</time>
      </trkpt>
      <trkpt lat="42.97246" lon="-0.02184">
        <ele>1299.4</ele>
        <time>2024-08-15T07:38:30Z</time>
      </trkpt>
      <trkpt lat="42.97245" lon="-0.02182">
        <ele>1299.6</ele>
        <time>2024-08-15T07:38:31Z</time>
      </trkpt>
      <trkpt lat="42.97245" lon="-0.0218">
        <ele>1299.8</ele>
        <time>2024-08-15T07:38:32Z</time>
      </trkpt>
      <trkpt lat="42.97244" lon="-0.02178">
        <ele>1300.2</ele>
        <time>2024-08-15T07:38:33Z</time>
      </trkpt>
      <trkpt lat="42.97243" lon="-0.02176">
        <ele>1300.4</ele>
        <time>2024-08-15T07:38:34Z</time>
      </trkpt>
      <trkpt lat="42.97242" lon="-0.02174">
        <ele>1300.6</ele>
        <time>2024-08-15T07:38:35Z</time>
      </trkpt>
      <trkpt lat="42.97241" lon="-0.02173">
        <ele>1301</ele>
        <time>2024-08-15T07:38:36Z</time>
      </trkpt>
      <trkpt lat="42.97241" lon="-0.02171">
        <ele>1301</ele>
        <time>2024-08-15T07:38:37Z</time>
      </trkpt>
      <trkpt lat="42.97239" lon="-0.0217">
        <ele>1301.2</ele>
        <time>2024-08-15T07:38:38Z</time>
      </trkpt>
      <trkpt lat="42.97238" lon="-0.02168">
        <ele>1301.4</ele>
        <time>2024-08-15T07:38:39Z</time>
      </trkpt>
      <trkpt lat="42.97237" lon="-0.02167">
        <ele>1301.8</ele>
        <time>2024-08-15T07:38:40Z</time>
      </trkpt>
      <trkpt lat="42.97236" lon="-0.02165">
        <ele>1302</ele>
        <time>2024-08-15T07:38:41Z</time>
      </trkpt>
      <trkpt lat="42.97235" lon="-0.02164">
        <ele>1302.2</ele>
        <time>2024-08-15T07:38:42Z</time>
      </trkpt>
      <trkpt lat="42.97234" lon="-0.02163">
        <ele>1302.4</ele>
        <time>2024-08-15T07:38:43Z</time>
      </trkpt>
      <trkpt lat="42.97233" lon="-0.02162">
        <ele>1302.6</ele>
        <time>2024-08-15T07:38:44Z</time>
      </trkpt>
      <trkpt lat="42.97232" lon="-0.0216">
        <ele>1303</ele>
        <time>2024-08-15T07:38:45Z</time>
      </trkpt>
      <trkpt lat="42.97231" lon="-0.02158">
        <ele>1303.2</ele>
        <time>2024-08-15T07:38:46Z</time>
      </trkpt>
      <trkpt lat="42.9723" lon="-0.02157">
        <ele>1303.4</ele>
        <time>2024-08-15T07:38:47Z</time>
      </trkpt>
      <trkpt lat="42.97228" lon="-0.02155">
        <ele>1303.8</ele>
        <time>2024-08-15T07:38:48Z</time>
      </trkpt>
      <trkpt lat="42.97227" lon="-0.02154">
        <ele>1304</ele>
        <time>2024-08-15T07:38:49Z</time>
      </trkpt>
      <trkpt lat="42.97226" lon="-0.02152">
        <ele>1304.2</ele>
        <time>2024-08-15T07:38:50Z</time>
      </trkpt>
      <trkpt lat="42.97225" lon="-0.02151">
        <ele>1304.2</ele>
        <time>2024-08-15T07:38:51Z</time>
      </trkpt>
      <trkpt lat="42.97223" lon="-0.0215">
        <ele>1304.6</ele>
        <time>2024-08-15T07:38:52Z</time>
      </trkpt>
      <trkpt lat="42.97222" lon="-0.02148">
        <ele>1304.8</ele>
        <time>2024-08-15T07:38:53Z</time>
      </trkpt>
      <trkpt lat="42.97221" lon="-0.02147">
        <ele>1305</ele>
        <time>2024-08-15T07:38:54Z</time>
      </trkpt>
      <trkpt lat="42.9722" lon="-0.02145">
        <ele>1305.4</ele>
        <time>2024-08-15T07:38:55Z</time>
      </trkpt>
      <trkpt lat="42.97219" lon="-0.02143">
        <ele>1305.6</ele>
        <time>2024-08-15T07:38:56Z</time>
      </trkpt>
      <trkpt lat="42.97218" lon="-0.02142">
        <ele>1305.8</ele>
        <time>2024-08-15T07:38:57Z</time>
      </trkpt>
      <trkpt lat="42.97218" lon="-0.0214">
        <ele>1305.6</ele>
        <time>2024-08-15T07:38:58Z</time>
      </trkpt>
      <trkpt lat="42.97217" lon="-0.02138">
        <ele>1305.8</ele>
        <time>2024-08-15T07:38:59Z</time>
      </trkpt>
      <trkpt lat="42.97216" lon="-0.02136">
        <ele>1306</ele>
        <time>2024-08-15T07:39:00Z</time>
      </trkpt>
      <trkpt lat="42.97215" lon="-0.02134">
        <ele>1306.2</ele>
        <time>2024-08-15T07:39:01Z</time>
      </trkpt>
      <trkpt lat="42.97214" lon="-0.02132">
        <ele>1306.2</ele>
        <time>2024-08-15T07:39:02Z</time>
      </trkpt>
      <trkpt lat="42.97214" lon="-0.0213">
        <ele>1306.4</ele>
        <time>2024-08-15T07:39:03Z</time>
      </trkpt>
      <trkpt lat="42.97213" lon="-0.02129">
        <ele>1306.8</ele>
        <time>2024-08-15T07:39:04Z</time>
      </trkpt>
      <trkpt lat="42.97212" lon="-0.02127">
        <ele>1306.8</ele>
        <time>2024-08-15T07:39:05Z</time>
      </trkpt>
      <trkpt lat="42.97211" lon="-0.02125">
        <ele>1307.2</ele>
        <time>2024-08-15T07:39:06Z</time>
      </trkpt>
      <trkpt lat="42.97211" lon="-0.02122">
        <ele>1307.4</ele>
        <time>2024-08-15T07:39:07Z</time>
      </trkpt>
      <trkpt lat="42.9721" lon="-0.0212">
        <ele>1307.6</ele>
        <time>2024-08-15T07:39:08Z</time>
      </trkpt>
      <trkpt lat="42.9721" lon="-0.02118">
        <ele>1307.6</ele>
        <time>2024-08-15T07:39:09Z</time>
      </trkpt>
      <trkpt lat="42.97209" lon="-0.02115">
        <ele>1308</ele>
        <time>2024-08-15T07:39:10Z</time>
      </trkpt>
      <trkpt lat="42.97208" lon="-0.02113">
        <ele>1308.2</ele>
        <time>2024-08-15T07:39:11Z</time>
      </trkpt>
      <trkpt lat="42.97208" lon="-0.02111">
        <ele>1308.4</ele>
        <time>2024-08-15T07:39:12Z</time>
      </trkpt>
      <trkpt lat="42.97207" lon="-0.02109">
        <ele>1308.6</ele>
        <time>2024-08-15T07:39:13Z</time>
      </trkpt>
      <trkpt lat="42.97207" lon="-0.02106">
        <ele>1308.6</ele>
        <time>2024-08-15T07:39:14Z</time>
      </trkpt>
      <trkpt lat="42.97206" lon="-0.02104">
        <ele>1309</ele>
        <time>2024-08-15T07:39:15Z</time>
      </trkpt>
      <trkpt lat="42.97205" lon="-0.02102">
        <ele>1309</ele>
        <time>2024-08-15T07:39:16Z</time>
      </trkpt>
      <trkpt lat="42.97205" lon="-0.021">
        <ele>1309.4</ele>
        <time>2024-08-15T07:39:17Z</time>
      </trkpt>
      <trkpt lat="42.97204" lon="-0.02097">
        <ele>1309.8</ele>
        <time>2024-08-15T07:39:18Z</time>
      </trkpt>
      <trkpt lat="42.97203" lon="-0.02095">
        <ele>1310</ele>
        <time>2024-08-15T07:39:19Z</time>
      </trkpt>
      <trkpt lat="42.97203" lon="-0.02092">
        <ele>1310.4</ele>
        <time>2024-08-15T07:39:20Z</time>
      </trkpt>
      <trkpt lat="42.97203" lon="-0.0209">
        <ele>1310.4</ele>
        <time>2024-08-15T07:39:21Z</time>
      </trkpt>
      <trkpt lat="42.97202" lon="-0.02087">
        <ele>1310.8</ele>
        <time>2024-08-15T07:39:22Z</time>
      </trkpt>
      <trkpt lat="42.97202" lon="-0.02085">
        <ele>1310.8</ele>
        <time>2024-08-15T07:39:23Z</time>
      </trkpt>
      <trkpt lat="42.97202" lon="-0.02083">
        <ele>1311</ele>
        <time>2024-08-15T07:39:24Z</time>
      </trkpt>
      <trkpt lat="42.97201" lon="-0.0208">
        <ele>1311.2</ele>
        <time>2024-08-15T07:39:25Z</time>
      </trkpt>
      <trkpt lat="42.97201" lon="-0.02078">
        <ele>1311.4</ele>
        <time>2024-08-15T07:39:26Z</time>
      </trkpt>
      <trkpt lat="42.972" lon="-0.02076">
        <ele>1311.6</ele>
        <time>2024-08-15T07:39:27Z</time>
      </trkpt>
      <trkpt lat="42.972" lon="-0.02074">
        <ele>1311.6</ele>
        <time>2024-08-15T07:39:28Z</time>
      </trkpt>
      <trkpt lat="42.972" lon="-0.02071">
        <ele>1312</ele>
        <time>2024-08-15T07:39:29Z</time>
      </trkpt>
      <trkpt lat="42.97199" lon="-0.02068">
        <ele>1312</ele>
        <time>2024-08-15T07:39:30Z</time>
      </trkpt>
      <trkpt lat="42.97199" lon="-0.02066">
        <ele>1312.2</ele>
        <time>2024-08-15T07:39:31Z</time>
      </trkpt>
      <trkpt lat="42.97199" lon="-0.02063">
        <ele>1312.4</ele>
        <time>2024-08-15T07:39:32Z</time>
      </trkpt>
      <trkpt lat="42.97199" lon="-0.0206">
        <ele>1312.6</ele>
        <time>2024-08-15T07:39:33Z</time>
      </trkpt>
      <trkpt lat="42.97199" lon="-0.02057">
        <ele>1312.8</ele>
        <time>2024-08-15T07:39:34Z</time>
      </trkpt>
      <trkpt lat="42.97198" lon="-0.02055">
        <ele>1312.8</ele>
        <time>2024-08-15T07:39:35Z</time>
      </trkpt>
      <trkpt lat="42.97198" lon="-0.02052">
        <ele>1313</ele>
        <time>2024-08-15T07:39:36Z</time>
      </trkpt>
      <trkpt lat="42.97197" lon="-0.02049">
        <ele>1313.2</ele>
        <time>2024-08-15T07:39:37Z</time>
      </trkpt>
      <trkpt lat="42.97197" lon="-0.02046">
        <ele>1313.2</ele>
        <time>2024-08-15T07:39:38Z</time>
      </trkpt>
      <trkpt lat="42.97197" lon="-0.02043">
        <ele>1313.2</ele>
        <time>2024-08-15T07:39:39Z</time>
      </trkpt>
      <trkpt lat="42.97197" lon="-0.0204">
        <ele>1313.6</ele>
        <time>2024-08-15T07:39:40Z</time>
      </trkpt>
      <trkpt lat="42.97197" lon="-0.02036">
        <ele>1313.6</ele>
        <time>2024-08-15T07:39:41Z</time>
      </trkpt>
      <trkpt lat="42.97197" lon="-0.02033">
        <ele>1313.8</ele>
        <time>2024-08-15T07:39:42Z</time>
      </trkpt>
      <trkpt lat="42.97197" lon="-0.02029">
        <ele>1314</ele>
        <time>2024-08-15T07:39:43Z</time>
      </trkpt>
      <trkpt lat="42.97197" lon="-0.02025">
        <ele>1314.2</ele>
        <time>2024-08-15T07:39:44Z</time>
      </trkpt>
      <trkpt lat="42.97198" lon="-0.02021">
        <ele>1314.2</ele>
        <time>2024-08-15T07:39:45Z</time>
      </trkpt>
      <trkpt lat="42.97197" lon="-0.02018">
        <ele>1314.4</ele>
        <time>2024-08-15T07:39:46Z</time>
      </trkpt>
      <trkpt lat="42.97197" lon="-0.02015">
        <ele>1314.6</ele>
        <time>2024-08-15T07:39:47Z</time>
      </trkpt>
      <trkpt lat="42.97198" lon="-0.02011">
        <ele>1314.8</ele>
        <time>2024-08-15T07:39:48Z</time>
      </trkpt>
      <trkpt lat="42.97198" lon="-0.02008">
        <ele>1315</ele>
        <time>2024-08-15T07:39:49Z</time>
      </trkpt>
      <trkpt lat="42.97198" lon="-0.02004">
        <ele>1315.2</ele>
        <time>2024-08-15T07:39:50Z</time>
      </trkpt>
      <trkpt lat="42.97198" lon="-0.02001">
        <ele>1315.4</ele>
        <time>2024-08-15T07:39:51Z</time>
      </trkpt>
      <trkpt lat="42.97198" lon="-0.01997">
        <ele>1315.4</ele>
        <time>2024-08-15T07:39:52Z</time>
      </trkpt>
      <trkpt lat="42.97198" lon="-0.01994">
        <ele>1315.6</ele>
        <time>2024-08-15T07:39:53Z</time>
      </trkpt>
      <trkpt lat="42.97198" lon="-0.01991">
        <ele>1316</ele>
        <time>2024-08-15T07:39:54Z</time>
      </trkpt>
      <trkpt lat="42.97198" lon="-0.01988">
        <ele>1316</ele>
        <time>2024-08-15T07:39:55Z</time>
      </trkpt>
      <trkpt lat="42.97197" lon="-0.01985">
        <ele>1316.4</ele>
        <time>2024-08-15T07:39:56Z</time>
      </trkpt>
      <trkpt lat="42.97197" lon="-0.01982">
        <ele>1316.6</ele>
        <time>2024-08-15T07:39:57Z</time>
      </trkpt>
      <trkpt lat="42.97196" lon="-0.01979">
        <ele>1316.6</ele>
        <time>2024-08-15T07:39:58Z</time>
      </trkpt>
      <trkpt lat="42.97196" lon="-0.01975">
        <ele>1317</ele>
        <time>2024-08-15T07:39:59Z</time>
      </trkpt>
      <trkpt lat="42.97196" lon="-0.01972">
        <ele>1317.2</ele>
        <time>2024-08-15T07:40:00Z</time>
      </trkpt>
      <trkpt lat="42.97195" lon="-0.01969">
        <ele>1317.2</ele>
        <time>2024-08-15T07:40:01Z</time>
      </trkpt>
      <trkpt lat="42.97195" lon="-0.01966">
        <ele>1317.4</ele>
        <time>2024-08-15T07:40:02Z</time>
      </trkpt>
      <trkpt lat="42.97194" lon="-0.01963">
        <ele>1317.4</ele>
        <time>2024-08-15T07:40:03Z</time>
      </trkpt>
      <trkpt lat="42.97194" lon="-0.0196">
        <ele>1317.6</ele>
        <time>2024-08-15T07:40:04Z</time>
      </trkpt>
      <trkpt lat="42.97194" lon="-0.01957">
        <ele>1317.8</ele>
        <time>2024-08-15T07:40:05Z</time>
      </trkpt>
      <trkpt lat="42.97193" lon="-0.01954">
        <ele>1318</ele>
        <time>2024-08-15T07:40:06Z</time>
      </trkpt>
      <trkpt lat="42.97193" lon="-0.01951">
        <ele>1318.2</ele>
        <time>2024-08-15T07:40:07Z</time>
      </trkpt>
      <trkpt lat="42.97192" lon="-0.01948">
        <ele>1318.4</ele>
        <time>2024-08-15T07:40:08Z</time>
      </trkpt>
      <trkpt lat="42.97191" lon="-0.01946">
        <ele>1318.4</ele>
        <time>2024-08-15T07:40:09Z</time>
      </trkpt>
      <trkpt lat="42.97191" lon="-0.01943">
        <ele>1318.8</ele>
        <time>2024-08-15T07:40:10Z</time>
      </trkpt>
      <trkpt lat="42.9719" lon="-0.0194">
        <ele>1318.8</ele>
        <time>2024-08-15T07:40:11Z</time>
      </trkpt>
      <trkpt lat="42.97189" lon="-0.01937">
        <ele>1319.2</ele>
        <time>2024-08-15T07:40:12Z</time>
      </trkpt>
      <trkpt lat="42.97189" lon="-0.01934">
        <ele>1319.4</ele>
        <time>2024-08-15T07:40:13Z</time>
      </trkpt>
      <trkpt lat="42.97188" lon="-0.01931">
        <ele>1319.4</ele>
        <time>2024-08-15T07:40:14Z</time>
      </trkpt>
      <trkpt lat="42.97187" lon="-0.01928">
        <ele>1319.6</ele>
        <time>2024-08-15T07:40:15Z</time>
      </trkpt>
      <trkpt lat="42.97187" lon="-0.01925">
        <ele>1319.8</ele>
        <time>2024-08-15T07:40:16Z</time>
      </trkpt>
      <trkpt lat="42.97186" lon="-0.01923">
        <ele>1320.2</ele>
        <time>2024-08-15T07:40:17Z</time>
      </trkpt>
      <trkpt lat="42.97186" lon="-0.01921">
        <ele>1320.2</ele>
        <time>2024-08-15T07:40:18Z</time>
      </trkpt>
      <trkpt lat="42.97186" lon="-0.01919">
        <ele>1320.6</ele>
        <time>2024-08-15T07:40:19Z</time>
      </trkpt>
      <trkpt lat="42.97185" lon="-0.01917">
        <ele>1320.8</ele>
        <time>2024-08-15T07:40:20Z</time>
      </trkpt>
      <trkpt lat="42.97185" lon="-0.01916">
        <ele>1321</ele>
        <time>2024-08-15T07:40:21Z</time>
      </trkpt>
      <trkpt lat="42.97184" lon="-0.01914">
        <ele>1321.2</ele>
        <time>2024-08-15T07:40:22Z</time>
      </trkpt>
      <trkpt lat="42.97184" lon="-0.01912">
        <ele>1321.4</ele>
        <time>2024-08-15T07:40:23Z</time>
      </trkpt>
      <trkpt lat="42.97183" lon="-0.01911">
        <ele>1321.6</ele>
        <time>2024-08-15T07:40:24Z</time>
      </trkpt>
      <trkpt lat="42.97182" lon="-0.01909">
        <ele>1321.8</ele>
        <time>2024-08-15T07:40:25Z</time>
      </trkpt>
      <trkpt lat="42.97181" lon="-0.01907">
        <ele>1322</ele>
        <time>2024-08-15T07:40:26Z</time>
      </trkpt>
      <trkpt lat="42.9718" lon="-0.01906">
        <ele>1322.2</ele>
        <time>2024-08-15T07:40:27Z</time>
      </trkpt>
      <trkpt lat="42.9718" lon="-0.01904">
        <ele>1322.6</ele>
        <time>2024-08-15T07:40:28Z</time>
      </trkpt>
      <trkpt lat="42.97179" lon="-0.01902">
        <ele>1322.8</ele>
        <time>2024-08-15T07:40:29Z</time>
      </trkpt>
      <trkpt lat="42.97179" lon="-0.019">
        <ele>1322.8</ele>
        <time>2024-08-15T07:40:30Z</time>
      </trkpt>
      <trkpt lat="42.97178" lon="-0.01898">
        <ele>1323</ele>
        <time>2024-08-15T07:40:31Z</time>
      </trkpt>
      <trkpt lat="42.97178" lon="-0.01897">
        <ele>1323.2</ele>
        <time>2024-08-15T07:40:32Z</time>
      </trkpt>
      <trkpt lat="42.97177" lon="-0.01895">
        <ele>1323.4</ele>
        <time>2024-08-15T07:40:33Z</time>
      </trkpt>
      <trkpt lat="42.97176" lon="-0.01893">
        <ele>1323.6</ele>
        <time>2024-08-15T07:40:34Z</time>
      </trkpt>
      <trkpt lat="42.97176" lon="-0.01891">
        <ele>1324</ele>
        <time>2024-08-15T07:40:35Z</time>
      </trkpt>
      <trkpt lat="42.97175" lon="-0.01889">
        <ele>1324.2</ele>
        <time>2024-08-15T07:40:36Z</time>
      </trkpt>
      <trkpt lat="42.97174" lon="-0.01887">
        <ele>1324.4</ele>
        <time>2024-08-15T07:40:37Z</time>
      </trkpt>
      <trkpt lat="42.97173" lon="-0.01885">
        <ele>1324.8</ele>
        <time>2024-08-15T07:40:38Z</time>
      </trkpt>
      <trkpt lat="42.97173" lon="-0.01883">
        <ele>1324.8</ele>
        <time>2024-08-15T07:40:39Z</time>
      </trkpt>
      <trkpt lat="42.97173" lon="-0.01881">
        <ele>1325.2</ele>
        <time>2024-08-15T07:40:40Z</time>
      </trkpt>
      <trkpt lat="42.97173" lon="-0.01879">
        <ele>1325.4</ele>
        <time>2024-08-15T07:40:41Z</time>
      </trkpt>
      <trkpt lat="42.97172" lon="-0.01876">
        <ele>1325.6</ele>
        <time>2024-08-15T07:40:42Z</time>
      </trkpt>
      <trkpt lat="42.97172" lon="-0.01874">
        <ele>1325.8</ele>
        <time>2024-08-15T07:40:43Z</time>
      </trkpt>
      <trkpt lat="42.97172" lon="-0.01872">
        <ele>1326</ele>
        <time>2024-08-15T07:40:44Z</time>
      </trkpt>
      <trkpt lat="42.97172" lon="-0.0187">
        <ele>1326.2</ele>
        <time>2024-08-15T07:40:45Z</time>
      </trkpt>
      <trkpt lat="42.97172" lon="-0.01868">
        <ele>1326.4</ele>
        <time>2024-08-15T07:40:46Z</time>
      </trkpt>
      <trkpt lat="42.97172" lon="-0.01866">
        <ele>1326.8</ele>
        <time>2024-08-15T07:40:47Z</time>
      </trkpt>
      <trkpt lat="42.97172" lon="-0.01864">
        <ele>1327</ele>
        <time>2024-08-15T07:40:48Z</time>
      </trkpt>
      <trkpt lat="42.97172" lon="-0.01862">
        <ele>1327.4</ele>
        <time>2024-08-15T07:40:49Z</time>
      </trkpt>
      <trkpt lat="42.97171" lon="-0.0186">
        <ele>1327.4</ele>
        <time>2024-08-15T07:40:50Z</time>
      </trkpt>
      <trkpt lat="42.97171" lon="-0.01858">
        <ele>1327.6</ele>
        <time>2024-08-15T07:40:51Z</time>
      </trkpt>
      <trkpt lat="42.97171" lon="-0.01856">
        <ele>1328</ele>
        <time>2024-08-15T07:40:52Z</time>
      </trkpt>
      <trkpt lat="42.9717" lon="-0.01854">
        <ele>1328</ele>
        <time>2024-08-15T07:40:53Z</time>
      </trkpt>
      <trkpt lat="42.9717" lon="-0.01852">
        <ele>1328.2</ele>
        <time>2024-08-15T07:40:54Z</time>
      </trkpt>
      <trkpt lat="42.9717" lon="-0.0185">
        <ele>1328.4</ele>
        <time>2024-08-15T07:40:55Z</time>
      </trkpt>
      <trkpt lat="42.9717" lon="-0.01848">
        <ele>1328.6</ele>
        <time>2024-08-15T07:40:56Z</time>
      </trkpt>
      <trkpt lat="42.9717" lon="-0.01847">
        <ele>1328.8</ele>
        <time>2024-08-15T07:40:57Z</time>
      </trkpt>
      <trkpt lat="42.9717" lon="-0.01845">
        <ele>1329</ele>
        <time>2024-08-15T07:40:58Z</time>
      </trkpt>
      <trkpt lat="42.97171" lon="-0.01843">
        <ele>1329.2</ele>
        <time>2024-08-15T07:40:59Z</time>
      </trkpt>
      <trkpt lat="42.97171" lon="-0.01841">
        <ele>1329.4</ele>
        <time>2024-08-15T07:41:00Z</time>
      </trkpt>
      <trkpt lat="42.97171" lon="-0.01839">
        <ele>1329.6</ele>
        <time>2024-08-15T07:41:01Z</time>
      </trkpt>
      <trkpt lat="42.97172" lon="-0.01837">
        <ele>1329.8</ele>
        <time>2024-08-15T07:41:02Z</time>
      </trkpt>
      <trkpt lat="42.97172" lon="-0.01835">
        <ele>1330</ele>
        <time>2024-08-15T07:41:03Z</time>
      </trkpt>
      <trkpt lat="42.97172" lon="-0.01833">
        <ele>1330.2</ele>
        <time>2024-08-15T07:41:04Z</time>
      </trkpt>
      <trkpt lat="42.97172" lon="-0.01831">
        <ele>1330.4</ele>
        <time>2024-08-15T07:41:05Z</time>
      </trkpt>
      <trkpt lat="42.97173" lon="-0.01829">
        <ele>1330.8</ele>
        <time>2024-08-15T07:41:06Z</time>
      </trkpt>
      <trkpt lat="42.97173" lon="-0.01827">
        <ele>1330.8</ele>
        <time>2024-08-15T07:41:07Z</time>
      </trkpt>
      <trkpt lat="42.97174" lon="-0.01825">
        <ele>1331</ele>
        <time>2024-08-15T07:41:08Z</time>
      </trkpt>
      <trkpt lat="42.97174" lon="-0.01823">
        <ele>1331</ele>
        <time>2024-08-15T07:41:09Z</time>
      </trkpt>
      <trkpt lat="42.97175" lon="-0.01821">
        <ele>1331.4</ele>
        <time>2024-08-15T07:41:10Z</time>
      </trkpt>
      <trkpt lat="42.97176" lon="-0.01819">
        <ele>1331.6</ele>
        <time>2024-08-15T07:41:11Z</time>
      </trkpt>
      <trkpt lat="42.97176" lon="-0.01817">
        <ele>1332</ele>
        <time>2024-08-15T07:41:12Z</time>
      </trkpt>
      <trkpt lat="42.97177" lon="-0.01815">
        <ele>1332.2</ele>
        <time>2024-08-15T07:41:13Z</time>
      </trkpt>
      <trkpt lat="42.97178" lon="-0.01813">
        <ele>1332.4</ele>
        <time>2024-08-15T07:41:14Z</time>
      </trkpt>
      <trkpt lat="42.97178" lon="-0.01811">
        <ele>1332.6</ele>
        <time>2024-08-15T07:41:15Z</time>
      </trkpt>
      <trkpt lat="42.97179" lon="-0.01809">
        <ele>1332.8</ele>
        <time>2024-08-15T07:41:16Z</time>
      </trkpt>
      <trkpt lat="42.9718" lon="-0.01808">
        <ele>1333.2</ele>
        <time>2024-08-15T07:41:17Z</time>
      </trkpt>
      <trkpt lat="42.97181" lon="-0.01806">
        <ele>1333.4</ele>
        <time>2024-08-15T07:41:18Z</time>
      </trkpt>
      <trkpt lat="42.97183" lon="-0.01805">
        <ele>1333.8</ele>
        <time>2024-08-15T07:41:19Z</time>
      </trkpt>
      <trkpt lat="42.97184" lon="-0.01804">
        <ele>1334</ele>
        <time>2024-08-15T07:41:20Z</time>
      </trkpt>
      <trkpt lat="42.97185" lon="-0.01802">
        <ele>1334.2</ele>
        <time>2024-08-15T07:41:21Z</time>
      </trkpt>
      <trkpt lat="42.97186" lon="-0.01801">
        <ele>1334.4</ele>
        <time>2024-08-15T07:41:22Z</time>
      </trkpt>
      <trkpt lat="42.97188" lon="-0.01799">
        <ele>1334.6</ele>
        <time>2024-08-15T07:41:23Z</time>
      </trkpt>
      <trkpt lat="42.97189" lon="-0.01798">
        <ele>1334.8</ele>
        <time>2024-08-15T07:41:24Z</time>
      </trkpt>
      <trkpt lat="42.97191" lon="-0.01797">
        <ele>1335</ele>
        <time>2024-08-15T07:41:25Z</time>
      </trkpt>
      <trkpt lat="42.97192" lon="-0.01796">
        <ele>1335.4</ele>
        <time>2024-08-15T07:41:26Z</time>
      </trkpt>
      <trkpt lat="42.97194" lon="-0.01795">
        <ele>1335.2</ele>
        <time>2024-08-15T07:41:27Z</time>
      </trkpt>
      <trkpt lat="42.97195" lon="-0.01794">
        <ele>1335.8</ele>
        <time>2024-08-15T07:41:28Z</time>
      </trkpt>
      <trkpt lat="42.97197" lon="-0.01793">
        <ele>1335.8</ele>
        <time>2024-08-15T07:41:29Z</time>
      </trkpt>
      <trkpt lat="42.97199" lon="-0.01793">
        <ele>1336.2</ele>
        <time>2024-08-15T07:41:30Z</time>
      </trkpt>
      <trkpt lat="42.972" lon="-0.01793">
        <ele>1336.4</ele>
        <time>2024-08-15T07:41:31Z</time>
      </trkpt>
      <trkpt lat="42.97202" lon="-0.01793">
        <ele>1336.6</ele>
        <time>2024-08-15T07:41:32Z</time>
      </trkpt>
      <trkpt lat="42.97204" lon="-0.01792">
        <ele>1337</ele>
        <time>2024-08-15T07:41:33Z</time>
      </trkpt>
      <trkpt lat="42.97206" lon="-0.01792">
        <ele>1337</ele>
        <time>2024-08-15T07:41:34Z</time>
      </trkpt>
      <trkpt lat="42.97208" lon="-0.01792">
        <ele>1337.2</ele>
        <time>2024-08-15T07:41:35Z</time>
      </trkpt>
      <trkpt lat="42.9721" lon="-0.01792">
        <ele>1337.4</ele>
        <time>2024-08-15T07:41:36Z</time>
      </trkpt>
      <trkpt lat="42.97212" lon="-0.01793">
        <ele>1337.6</ele>
        <time>2024-08-15T07:41:37Z</time>
      </trkpt>
      <trkpt lat="42.97214" lon="-0.01793">
        <ele>1338</ele>
        <time>2024-08-15T07:41:38Z</time>
      </trkpt>
      <trkpt lat="42.97216" lon="-0.01794">
        <ele>1338</ele>
        <time>2024-08-15T07:41:39Z</time>
      </trkpt>
      <trkpt lat="42.97218" lon="-0.01794">
        <ele>1338.2</ele>
        <time>2024-08-15T07:41:40Z</time>
      </trkpt>
      <trkpt lat="42.9722" lon="-0.01796">
        <ele>1338.2</ele>
        <time>2024-08-15T07:41:41Z</time>
      </trkpt>
      <trkpt lat="42.97222" lon="-0.01798">
        <ele>1338.4</ele>
        <time>2024-08-15T07:41:42Z</time>
      </trkpt>
      <trkpt lat="42.97224" lon="-0.01799">
        <ele>1338.6</ele>
        <time>2024-08-15T07:41:43Z</time>
      </trkpt>
      <trkpt lat="42.97225" lon="-0.01802">
        <ele>1338.8</ele>
        <time>2024-08-15T07:41:44Z</time>
      </trkpt>
      <trkpt lat="42.97226" lon="-0.01804">
        <ele>1339</ele>
        <time>2024-08-15T07:41:45Z</time>
      </trkpt>
      <trkpt lat="42.97227" lon="-0.01806">
        <ele>1339.2</ele>
        <time>2024-08-15T07:41:46Z</time>
      </trkpt>
      <trkpt lat="42.97228" lon="-0.01808">
        <ele>1339.4</ele>
        <time>2024-08-15T07:41:47Z</time>
      </trkpt>
      <trkpt lat="42.97229" lon="-0.01811">
        <ele>1339.6</ele>
        <time>2024-08-15T07:41:48Z</time>
      </trkpt>
      <trkpt lat="42.9723" lon="-0.01813">
        <ele>1339.8</ele>
        <time>2024-08-15T07:41:49Z</time>
      </trkpt>
      <trkpt lat="42.97231" lon="-0.01816">
        <ele>1339.8</ele>
        <time>2024-08-15T07:41:50Z</time>
      </trkpt>
      <trkpt lat="42.97231" lon="-0.01819">
        <ele>1340</ele>
        <time>2024-08-15T07:41:51Z</time>
      </trkpt>
      <trkpt lat="42.97231" lon="-0.01822">
        <ele>1340</ele>
        <time>2024-08-15T07:41:52Z</time>
      </trkpt>
      <trkpt lat="42.97232" lon="-0.01825">
        <ele>1340.2</ele>
        <time>2024-08-15T07:41:53Z</time>
      </trkpt>
      <trkpt lat="42.97233" lon="-0.01828">
        <ele>1340.4</ele>
        <time>2024-08-15T07:41:54Z</time>
      </trkpt>
      <trkpt lat="42.97234" lon="-0.01831">
        <ele>1340.4</ele>
        <time>2024-08-15T07:41:55Z</time>
      </trkpt>
      <trkpt lat="42.97234" lon="-0.01834">
        <ele>1340.6</ele>
        <time>2024-08-15T07:41:56Z</time>
      </trkpt>
      <trkpt lat="42.97235" lon="-0.01837">
        <ele>1340.8</ele>
        <time>2024-08-15T07:41:57Z</time>
      </trkpt>
      <trkpt lat="42.97236" lon="-0.0184">
        <ele>1341</ele>
        <time>2024-08-15T07:41:58Z</time>
      </trkpt>
      <trkpt lat="42.97237" lon="-0.01842">
        <ele>1341.2</ele>
        <time>2024-08-15T07:41:59Z</time>
      </trkpt>
      <trkpt lat="42.97237" lon="-0.01845">
        <ele>1341.4</ele>
        <time>2024-08-15T07:42:00Z</time>
      </trkpt>
      <trkpt lat="42.97237" lon="-0.01848">
        <ele>1341.6</ele>
        <time>2024-08-15T07:42:01Z</time>
      </trkpt>
      <trkpt lat="42.97238" lon="-0.01851">
        <ele>1341.6</ele>
        <time>2024-08-15T07:42:02Z</time>
      </trkpt>
      <trkpt lat="42.97238" lon="-0.01854">
        <ele>1341.8</ele>
        <time>2024-08-15T07:42:03Z</time>
      </trkpt>
      <trkpt lat="42.97239" lon="-0.01857">
        <ele>1341.8</ele>
        <time>2024-08-15T07:42:04Z</time>
      </trkpt>
      <trkpt lat="42.9724" lon="-0.0186">
        <ele>1342</ele>
        <time>2024-08-15T07:42:05Z</time>
      </trkpt>
      <trkpt lat="42.9724" lon="-0.01863">
        <ele>1342.2</ele>
        <time>2024-08-15T07:42:06Z</time>
      </trkpt>
      <trkpt lat="42.97241" lon="-0.01866">
        <ele>1342.4</ele>
        <time>2024-08-15T07:42:07Z</time>
      </trkpt>
      <trkpt lat="42.97242" lon="-0.01868">
        <ele>1342.8</ele>
        <time>2024-08-15T07:42:08Z</time>
      </trkpt>
      <trkpt lat="42.97242" lon="-0.01871">
        <ele>1342.8</ele>
        <time>2024-08-15T07:42:09Z</time>
      </trkpt>
      <trkpt lat="42.97243" lon="-0.01873">
        <ele>1343.2</ele>
        <time>2024-08-15T07:42:10Z</time>
      </trkpt>
      <trkpt lat="42.97244" lon="-0.01876">
        <ele>1343.2</ele>
        <time>2024-08-15T07:42:11Z</time>
      </trkpt>
      <trkpt lat="42.97244" lon="-0.01879">
        <ele>1343.4</ele>
        <time>2024-08-15T07:42:12Z</time>
      </trkpt>
      <trkpt lat="42.97245" lon="-0.01882">
        <ele>1343.6</ele>
        <time>2024-08-15T07:42:13Z</time>
      </trkpt>
      <trkpt lat="42.97246" lon="-0.01884">
        <ele>1343.8</ele>
        <time>2024-08-15T07:42:14Z</time>
      </trkpt>
      <trkpt lat="42.97247" lon="-0.01886">
        <ele>1343.8</ele>
        <time>2024-08-15T07:42:15Z</time>
      </trkpt>
      <trkpt lat="42.97249" lon="-0.01888">
        <ele>1344.2</ele>
        <time>2024-08-15T07:42:16Z</time>
      </trkpt>
      <trkpt lat="42.97251" lon="-0.0189">
        <ele>1344.4</ele>
        <time>2024-08-15T07:42:17Z</time>
      </trkpt>
      <trkpt lat="42.97252" lon="-0.01892">
        <ele>1344.6</ele>
        <time>2024-08-15T07:42:18Z</time>
      </trkpt>
      <trkpt lat="42.97253" lon="-0.01894">
        <ele>1345</ele>
        <time>2024-08-15T07:42:19Z</time>
      </trkpt>
      <trkpt lat="42.97255" lon="-0.01896">
        <ele>1345</ele>
        <time>2024-08-15T07:42:20Z</time>
      </trkpt>
      <trkpt lat="42.97257" lon="-0.01898">
        <ele>1345.4</ele>
        <time>2024-08-15T07:42:21Z</time>
      </trkpt>
      <trkpt lat="42.97258" lon="-0.01899">
        <ele>1345.6</ele>
        <time>2024-08-15T07:42:22Z</time>
      </trkpt>
      <trkpt lat="42.9726" lon="-0.01901">
        <ele>1345.8</ele>
        <time>2024-08-15T07:42:23Z</time>
      </trkpt>
      <trkpt lat="42.97261" lon="-0.01903">
        <ele>1346</ele>
        <time>2024-08-15T07:42:24Z</time>
      </trkpt>
      <trkpt lat="42.97263" lon="-0.01904">
        <ele>1346.2</ele>
        <time>2024-08-15T07:42:25Z</time>
      </trkpt>
      <trkpt lat="42.97265" lon="-0.01906">
        <ele>1346.6</ele>
        <time>2024-08-15T07:42:26Z</time>
      </trkpt>
      <trkpt lat="42.97266" lon="-0.01908">
        <ele>1346.8</ele>
        <time>2024-08-15T07:42:27Z</time>
      </trkpt>
      <trkpt lat="42.97268" lon="-0.01909">
        <ele>1347.2</ele>
        <time>2024-08-15T07:42:28Z</time>
      </trkpt>
      <trkpt lat="42.9727" lon="-0.01911">
        <ele>1347.2</ele>
        <time>2024-08-15T07:42:29Z</time>
      </trkpt>
      <trkpt lat="42.97272" lon="-0.01912">
        <ele>1347.6</ele>
        <time>2024-08-15T07:42:30Z</time>
      </trkpt>
      <trkpt lat="42.97274" lon="-0.01914">
        <ele>1347.6</ele>
        <time>2024-08-15T07:42:31Z</time>
      </trkpt>
      <trkpt lat="42.97275" lon="-0.01915">
        <ele>1348</ele>
        <time>2024-08-15T07:42:32Z</time>
      </trkpt>
      <trkpt lat="42.97277" lon="-0.01917">
        <ele>1348.2</ele>
        <time>2024-08-15T07:42:33Z</time>
      </trkpt>
      <trkpt lat="42.97279" lon="-0.01919">
        <ele>1348.2</ele>
        <time>2024-08-15T07:42:34Z</time>
      </trkpt>
      <trkpt lat="42.97281" lon="-0.0192">
        <ele>1348.4</ele>
        <time>2024-08-15T07:42:35Z</time>
      </trkpt>
      <trkpt lat="42.97282" lon="-0.01921">
        <ele>1348.6</ele>
        <time>2024-08-15T07:42:36Z</time>
      </trkpt>
      <trkpt lat="42.97284" lon="-0.01923">
        <ele>1348.8</ele>
        <time>2024-08-15T07:42:37Z</time>
      </trkpt>
      <trkpt lat="42.97286" lon="-0.01925">
        <ele>1348.8</ele>
        <time>2024-08-15T07:42:38Z</time>
      </trkpt>
      <trkpt lat="42.97287" lon="-0.01926">
        <ele>1349.2</ele>
        <time>2024-08-15T07:42:39Z</time>
      </trkpt>
      <trkpt lat="42.97289" lon="-0.01928">
        <ele>1349.6</ele>
        <time>2024-08-15T07:42:40Z</time>
      </trkpt>
      <trkpt lat="42.97291" lon="-0.01929">
        <ele>1349.6</ele>
        <time>2024-08-15T07:42:41Z</time>
      </trkpt>
      <trkpt lat="42.97293" lon="-0.01931">
        <ele>1349.8</ele>
        <time>2024-08-15T07:42:42Z</time>
      </trkpt>
      <trkpt lat="42.97294" lon="-0.01932">
        <ele>1350</ele>
        <time>2024-08-15T07:42:43Z</time>
      </trkpt>
      <trkpt lat="42.97296" lon="-0.01933">
        <ele>1350.4</ele>
        <time>2024-08-15T07:42:44Z</time>
      </trkpt>
      <trkpt lat="42.97298" lon="-0.01935">
        <ele>1350.6</ele>
        <time>2024-08-15T07:42:45Z</time>
      </trkpt>
      <trkpt lat="42.973" lon="-0.01936">
        <ele>1350.8</ele>
        <time>2024-08-15T07:42:46Z</time>
      </trkpt>
      <trkpt lat="42.97302" lon="-0.01938">
        <ele>1351.2</ele>
        <time>2024-08-15T07:42:47Z</time>
      </trkpt>
      <trkpt lat="42.97304" lon="-0.0194">
        <ele>1351.2</ele>
        <time>2024-08-15T07:42:48Z</time>
      </trkpt>
      <trkpt lat="42.97305" lon="-0.01942">
        <ele>1351.4</ele>
        <time>2024-08-15T07:42:49Z</time>
      </trkpt>
      <trkpt lat="42.97307" lon="-0.01943">
        <ele>1351.6</ele>
        <time>2024-08-15T07:42:50Z</time>
      </trkpt>
      <trkpt lat="42.97309" lon="-0.01944">
        <ele>1351.8</ele>
        <time>2024-08-15T07:42:51Z</time>
      </trkpt>
      <trkpt lat="42.97312" lon="-0.01945">
        <ele>1352</ele>
        <time>2024-08-15T07:42:52Z</time>
      </trkpt>
      <trkpt lat="42.97314" lon="-0.01946">
        <ele>1352.2</ele>
        <time>2024-08-15T07:42:53Z</time>
      </trkpt>
      <trkpt lat="42.97316" lon="-0.01947">
        <ele>1352.4</ele>
        <time>2024-08-15T07:42:54Z</time>
      </trkpt>
      <trkpt lat="42.97318" lon="-0.01948">
        <ele>1352.6</ele>
        <time>2024-08-15T07:42:55Z</time>
      </trkpt>
      <trkpt lat="42.9732" lon="-0.01949">
        <ele>1352.8</ele>
        <time>2024-08-15T07:42:56Z</time>
      </trkpt>
      <trkpt lat="42.97323" lon="-0.0195">
        <ele>1352.8</ele>
        <time>2024-08-15T07:42:57Z</time>
      </trkpt>
      <trkpt lat="42.97325" lon="-0.01951">
        <ele>1352.8</ele>
        <time>2024-08-15T07:42:58Z</time>
      </trkpt>
      <trkpt lat="42.97328" lon="-0.01951">
        <ele>1353.2</ele>
        <time>2024-08-15T07:42:59Z</time>
      </trkpt>
      <trkpt lat="42.9733" lon="-0.01952">
        <ele>1353.4</ele>
        <time>2024-08-15T07:43:00Z</time>
      </trkpt>
      <trkpt lat="42.97333" lon="-0.01951">
        <ele>1353.4</ele>
        <time>2024-08-15T07:43:01Z</time>
      </trkpt>
      <trkpt lat="42.97336" lon="-0.01951">
        <ele>1353.6</ele>
        <time>2024-08-15T07:43:02Z</time>
      </trkpt>
      <trkpt lat="42.97338" lon="-0.0195">
        <ele>1353.8</ele>
        <time>2024-08-15T07:43:03Z</time>
      </trkpt>
      <trkpt lat="42.97341" lon="-0.01949">
        <ele>1353.8</ele>
        <time>2024-08-15T07:43:04Z</time>
      </trkpt>
      <trkpt lat="42.97343" lon="-0.01949">
        <ele>1354</ele>
        <time>2024-08-15T07:43:05Z</time>
      </trkpt>
      <trkpt lat="42.97345" lon="-0.01948">
        <ele>1354.2</ele>
        <time>2024-08-15T07:43:06Z</time>
      </trkpt>
      <trkpt lat="42.97348" lon="-0.01946">
        <ele>1354.2</ele>
        <time>2024-08-15T07:43:07Z</time>
      </trkpt>
      <trkpt lat="42.9735" lon="-0.01945">
        <ele>1354.4</ele>
        <time>2024-08-15T07:43:08Z</time>
      </trkpt>
      <trkpt lat="42.97352" lon="-0.01943">
        <ele>1354.6</ele>
        <time>2024-08-15T07:43:09Z</time>
      </trkpt>
      <trkpt lat="42.97354" lon="-0.01942">
        <ele>1354.8</ele>
        <time>2024-08-15T07:43:10Z</time>
      </trkpt>
      <trkpt lat="42.97356" lon="-0.0194">
        <ele>1355</ele>
        <time>2024-08-15T07:43:11Z</time>
      </trkpt>
      <trkpt lat="42.97357" lon="-0.01938">
        <ele>1355.2</ele>
        <time>2024-08-15T07:43:12Z</time>
      </trkpt>
      <trkpt lat="42.97359" lon="-0.01936">
        <ele>1355.4</ele>
        <time>2024-08-15T07:43:13Z</time>
      </trkpt>
      <trkpt lat="42.97361" lon="-0.01935">
        <ele>1355.8</ele>
        <time>2024-08-15T07:43:14Z</time>
      </trkpt>
      <trkpt lat="42.97363" lon="-0.01933">
        <ele>1355.8</ele>
        <time>2024-08-15T07:43:15Z</time>
      </trkpt>
      <trkpt lat="42.97365" lon="-0.01931">
        <ele>1356</ele>
        <time>2024-08-15T07:43:16Z</time>
      </trkpt>
      <trkpt lat="42.97367" lon="-0.01928">
        <ele>1356.2</ele>
        <time>2024-08-15T07:43:17Z</time>
      </trkpt>
      <trkpt lat="42.97369" lon="-0.01927">
        <ele>1356.6</ele>
        <time>2024-08-15T07:43:18Z</time>
      </trkpt>
      <trkpt lat="42.97371" lon="-0.01924">
        <ele>1356.8</ele>
        <time>2024-08-15T07:43:19Z</time>
      </trkpt>
      <trkpt lat="42.97373" lon="-0.01922">
        <ele>1356.8</ele>
        <time>2024-08-15T07:43:20Z</time>
      </trkpt>
      <trkpt lat="42.97375" lon="-0.0192">
        <ele>1357.2</ele>
        <time>2024-08-15T07:43:21Z</time>
      </trkpt>
      <trkpt lat="42.97376" lon="-0.01918">
        <ele>1357.4</ele>
        <time>2024-08-15T07:43:22Z</time>
      </trkpt>
      <trkpt lat="42.97378" lon="-0.01915">
        <ele>1357.8</ele>
        <time>2024-08-15T07:43:23Z</time>
      </trkpt>
      <trkpt lat="42.9738" lon="-0.01913">
        <ele>1358</ele>
        <time>2024-08-15T07:43:24Z</time>
      </trkpt>
      <trkpt lat="42.97382" lon="-0.01911">
        <ele>1358.4</ele>
        <time>2024-08-15T07:43:25Z</time>
      </trkpt>
      <trkpt lat="42.97383" lon="-0.01909">
        <ele>1358.6</ele>
        <time>2024-08-15T07:43:26Z</time>
      </trkpt>
      <trkpt lat="42.97385" lon="-0.01906">
        <ele>1358.8</ele>
        <time>2024-08-15T07:43:27Z</time>
      </trkpt>
      <trkpt lat="42.97386" lon="-0.01903">
        <ele>1359.2</ele>
        <time>2024-08-15T07:43:28Z</time>
      </trkpt>
      <trkpt lat="42.97388" lon="-0.01901">
        <ele>1359.4</ele>
        <time>2024-08-15T07:43:29Z</time>
      </trkpt>
      <trkpt lat="42.97389" lon="-0.01898">
        <ele>1359.6</ele>
        <time>2024-08-15T07:43:30Z</time>
      </trkpt>
      <trkpt lat="42.97391" lon="-0.01896">
        <ele>1359.6</ele>
        <time>2024-08-15T07:43:31Z</time>
      </trkpt>
      <trkpt lat="42.97392" lon="-0.01893">
        <ele>1360</ele>
        <time>2024-08-15T07:43:32Z</time>
      </trkpt>
      <trkpt lat="42.97393" lon="-0.01891">
        <ele>1360.2</ele>
        <time>2024-08-15T07:43:33Z</time>
      </trkpt>
      <trkpt lat="42.97394" lon="-0.01888">
        <ele>1360.6</ele>
        <time>2024-08-15T07:43:34Z</time>
      </trkpt>
      <trkpt lat="42.97395" lon="-0.01885">
        <ele>1360.8</ele>
        <time>2024-08-15T07:43:35Z</time>
      </trkpt>
      <trkpt lat="42.97396" lon="-0.01883">
        <ele>1360.8</ele>
        <time>2024-08-15T07:43:36Z</time>
      </trkpt>
      <trkpt lat="42.97397" lon="-0.0188">
        <ele>1361.2</ele>
        <time>2024-08-15T07:43:37Z</time>
      </trkpt>
      <trkpt lat="42.97399" lon="-0.01877">
        <ele>1361.2</ele>
        <time>2024-08-15T07:43:38Z</time>
      </trkpt>
      <trkpt lat="42.97399" lon="-0.01874">
        <ele>1361.6</ele>
        <time>2024-08-15T07:43:39Z</time>
      </trkpt>
      <trkpt lat="42.97401" lon="-0.01871">
        <ele>1361.8</ele>
        <time>2024-08-15T07:43:40Z</time>
      </trkpt>
      <trkpt lat="42.97401" lon="-0.01868">
        <ele>1362.2</ele>
        <time>2024-08-15T07:43:41Z</time>
      </trkpt>
      <trkpt lat="42.97402" lon="-0.01864">
        <ele>1362.4</ele>
        <time>2024-08-15T07:43:42Z</time>
      </trkpt>
      <trkpt lat="42.97403" lon="-0.01861">
        <ele>1362.8</ele>
        <time>2024-08-15T07:43:43Z</time>
      </trkpt>
      <trkpt lat="42.97404" lon="-0.01858">
        <ele>1363</ele>
        <time>2024-08-15T07:43:44Z</time>
      </trkpt>
      <trkpt lat="42.97405" lon="-0.01855">
        <ele>1363.2</ele>
        <time>2024-08-15T07:43:45Z</time>
      </trkpt>
      <trkpt lat="42.97406" lon="-0.01852">
        <ele>1363.6</ele>
        <time>2024-08-15T07:43:46Z</time>
      </trkpt>
      <trkpt lat="42.97406" lon="-0.01849">
        <ele>1363.8</ele>
        <time>2024-08-15T07:43:47Z</time>
      </trkpt>
      <trkpt lat="42.97407" lon="-0.01846">
        <ele>1364</ele>
        <time>2024-08-15T07:43:48Z</time>
      </trkpt>
      <trkpt lat="42.97408" lon="-0.01843">
        <ele>1364.2</ele>
        <time>2024-08-15T07:43:49Z</time>
      </trkpt>
      <trkpt lat="42.97409" lon="-0.0184">
        <ele>1364.4</ele>
        <time>2024-08-15T07:43:50Z</time>
      </trkpt>
      <trkpt lat="42.9741" lon="-0.01837">
        <ele>1364.8</ele>
        <time>2024-08-15T07:43:51Z</time>
      </trkpt>
      <trkpt lat="42.97411" lon="-0.01834">
        <ele>1365</ele>
        <time>2024-08-15T07:43:52Z</time>
      </trkpt>
      <trkpt lat="42.97413" lon="-0.01831">
        <ele>1365.6</ele>
        <time>2024-08-15T07:43:53Z</time>
      </trkpt>
      <trkpt lat="42.97414" lon="-0.01828">
        <ele>1365.6</ele>
        <time>2024-08-15T07:43:54Z</time>
      </trkpt>
      <trkpt lat="42.97416" lon="-0.01825">
        <ele>1365.8</ele>
        <time>2024-08-15T07:43:55Z</time>
      </trkpt>
      <trkpt lat="42.97417" lon="-0.01822">
        <ele>1366.2</ele>
        <time>2024-08-15T07:43:56Z</time>
      </trkpt>
      <trkpt lat="42.97418" lon="-0.01819">
        <ele>1366.4</ele>
        <time>2024-08-15T07:43:57Z</time>
      </trkpt>
      <trkpt lat="42.9742" lon="-0.01817">
        <ele>1367</ele>
        <time>2024-08-15T07:43:58Z</time>
      </trkpt>
      <trkpt lat="42.97422" lon="-0.01814">
        <ele>1367</ele>
        <time>2024-08-15T07:43:59Z</time>
      </trkpt>
      <trkpt lat="42.97424" lon="-0.01812">
        <ele>1367.6</ele>
        <time>2024-08-15T07:44:00Z</time>
      </trkpt>
      <trkpt lat="42.97426" lon="-0.0181">
        <ele>1367.8</ele>
        <time>2024-08-15T07:44:01Z</time>
      </trkpt>
      <trkpt lat="42.97428" lon="-0.01808">
        <ele>1368.2</ele>
        <time>2024-08-15T07:44:02Z</time>
      </trkpt>
      <trkpt lat="42.9743" lon="-0.01806">
        <ele>1368.2</ele>
        <time>2024-08-15T07:44:03Z</time>
      </trkpt>
      <trkpt lat="42.97432" lon="-0.01804">
        <ele>1368.4</ele>
        <time>2024-08-15T07:44:04Z</time>
      </trkpt>
      <trkpt lat="42.97434" lon="-0.01802">
        <ele>1368.6</ele>
        <time>2024-08-15T07:44:05Z</time>
      </trkpt>
      <trkpt lat="42.97436" lon="-0.01801">
        <ele>1368.6</ele>
        <time>2024-08-15T07:44:06Z</time>
      </trkpt>
      <trkpt lat="42.97438" lon="-0.01799">
        <ele>1369</ele>
        <time>2024-08-15T07:44:07Z</time>
      </trkpt>
      <trkpt lat="42.9744" lon="-0.01797">
        <ele>1369.2</ele>
        <time>2024-08-15T07:44:08Z</time>
      </trkpt>
      <trkpt lat="42.97442" lon="-0.01796">
        <ele>1369.6</ele>
        <time>2024-08-15T07:44:09Z</time>
      </trkpt>
      <trkpt lat="42.97444" lon="-0.01795">
        <ele>1369.8</ele>
        <time>2024-08-15T07:44:10Z</time>
      </trkpt>
      <trkpt lat="42.97446" lon="-0.01793">
        <ele>1370</ele>
        <time>2024-08-15T07:44:11Z</time>
      </trkpt>
      <trkpt lat="42.97448" lon="-0.01792">
        <ele>1370.2</ele>
        <time>2024-08-15T07:44:12Z</time>
      </trkpt>
      <trkpt lat="42.9745" lon="-0.01791">
        <ele>1370.4</ele>
        <time>2024-08-15T07:44:13Z</time>
      </trkpt>
      <trkpt lat="42.97452" lon="-0.01789">
        <ele>1370.6</ele>
        <time>2024-08-15T07:44:14Z</time>
      </trkpt>
      <trkpt lat="42.97454" lon="-0.01788">
        <ele>1370.8</ele>
        <time>2024-08-15T07:44:15Z</time>
      </trkpt>
      <trkpt lat="42.97456" lon="-0.01787">
        <ele>1371.2</ele>
        <time>2024-08-15T07:44:16Z</time>
      </trkpt>
      <trkpt lat="42.97458" lon="-0.01786">
        <ele>1371.4</ele>
        <time>2024-08-15T07:44:17Z</time>
      </trkpt>
      <trkpt lat="42.9746" lon="-0.01785">
        <ele>1371.6</ele>
        <time>2024-08-15T07:44:18Z</time>
      </trkpt>
      <trkpt lat="42.97462" lon="-0.01784">
        <ele>1371.8</ele>
        <time>2024-08-15T07:44:19Z</time>
      </trkpt>
      <trkpt lat="42.97464" lon="-0.01782">
        <ele>1372</ele>
        <time>2024-08-15T07:44:20Z</time>
      </trkpt>
      <trkpt lat="42.97466" lon="-0.01781">
        <ele>1372.2</ele>
        <time>2024-08-15T07:44:21Z</time>
      </trkpt>
      <trkpt lat="42.97469" lon="-0.01779">
        <ele>1372.4</ele>
        <time>2024-08-15T07:44:22Z</time>
      </trkpt>
      <trkpt lat="42.97471" lon="-0.01778">
        <ele>1372.6</ele>
        <time>2024-08-15T07:44:23Z</time>
      </trkpt>
      <trkpt lat="42.97473" lon="-0.01777">
        <ele>1372.8</ele>
        <time>2024-08-15T07:44:24Z</time>
      </trkpt>
      <trkpt lat="42.97475" lon="-0.01775">
        <ele>1373</ele>
        <time>2024-08-15T07:44:25Z</time>
      </trkpt>
      <trkpt lat="42.97477" lon="-0.01774">
        <ele>1373.2</ele>
        <time>2024-08-15T07:44:26Z</time>
      </trkpt>
      <trkpt lat="42.97479" lon="-0.01773">
        <ele>1373.4</ele>
        <time>2024-08-15T07:44:27Z</time>
      </trkpt>
      <trkpt lat="42.97481" lon="-0.01772">
        <ele>1373.6</ele>
        <time>2024-08-15T07:44:28Z</time>
      </trkpt>
      <trkpt lat="42.97483" lon="-0.01771">
        <ele>1373.8</ele>
        <time>2024-08-15T07:44:29Z</time>
      </trkpt>
      <trkpt lat="42.97485" lon="-0.01769">
        <ele>1374</ele>
        <time>2024-08-15T07:44:30Z</time>
      </trkpt>
      <trkpt lat="42.97487" lon="-0.01768">
        <ele>1374.2</ele>
        <time>2024-08-15T07:44:31Z</time>
      </trkpt>
      <trkpt lat="42.97489" lon="-0.01766">
        <ele>1374.6</ele>
        <time>2024-08-15T07:44:32Z</time>
      </trkpt>
      <trkpt lat="42.97491" lon="-0.01765">
        <ele>1374.6</ele>
        <time>2024-08-15T07:44:33Z</time>
      </trkpt>
      <trkpt lat="42.97493" lon="-0.01763">
        <ele>1374.8</ele>
        <time>2024-08-15T07:44:34Z</time>
      </trkpt>
      <trkpt lat="42.97495" lon="-0.01762">
        <ele>1375</ele>
        <time>2024-08-15T07:44:35Z</time>
      </trkpt>
      <trkpt lat="42.97497" lon="-0.01761">
        <ele>1375</ele>
        <time>2024-08-15T07:44:36Z</time>
      </trkpt>
      <trkpt lat="42.97499" lon="-0.0176">
        <ele>1375.2</ele>
        <time>2024-08-15T07:44:37Z</time>
      </trkpt>
      <trkpt lat="42.97501" lon="-0.01759">
        <ele>1375.4</ele>
        <time>2024-08-15T07:44:38Z</time>
      </trkpt>
      <trkpt lat="42.97504" lon="-0.01757">
        <ele>1375.6</ele>
        <time>2024-08-15T07:44:39Z</time>
      </trkpt>
      <trkpt lat="42.97506" lon="-0.01756">
        <ele>1375.6</ele>
        <time>2024-08-15T07:44:40Z</time>
      </trkpt>
      <trkpt lat="42.97508" lon="-0.01755">
        <ele>1376</ele>
        <time>2024-08-15T07:44:41Z</time>
      </trkpt>
      <trkpt lat="42.9751" lon="-0.01753">
        <ele>1376.2</ele>
        <time>2024-08-15T07:44:42Z</time>
      </trkpt>
      <trkpt lat="42.97512" lon="-0.01752">
        <ele>1376.6</ele>
        <time>2024-08-15T07:44:43Z</time>
      </trkpt>
      <trkpt lat="42.97514" lon="-0.01751">
        <ele>1376.8</ele>
        <time>2024-08-15T07:44:44Z</time>
      </trkpt>
      <trkpt lat="42.97516" lon="-0.0175">
        <ele>1376.8</ele>
        <time>2024-08-15T07:44:45Z</time>
      </trkpt>
      <trkpt lat="42.97518" lon="-0.01749">
        <ele>1376.8</ele>
        <time>2024-08-15T07:44:46Z</time>
      </trkpt>
      <trkpt lat="42.9752" lon="-0.01747">
        <ele>1377</ele>
        <time>2024-08-15T07:44:47Z</time>
      </trkpt>
      <trkpt lat="42.97522" lon="-0.01746">
        <ele>1377.2</ele>
        <time>2024-08-15T07:44:48Z</time>
      </trkpt>
      <trkpt lat="42.97524" lon="-0.01745">
        <ele>1377.4</ele>
        <time>2024-08-15T07:44:49Z</time>
      </trkpt>
      <trkpt lat="42.97527" lon="-0.01743">
        <ele>1377.6</ele>
        <time>2024-08-15T07:44:50Z</time>
      </trkpt>
      <trkpt lat="42.97529" lon="-0.01742">
        <ele>1377.8</ele>
        <time>2024-08-15T07:44:51Z</time>
      </trkpt>
      <trkpt lat="42.9753" lon="-0.0174">
        <ele>1377.8</ele>
        <time>2024-08-15T07:44:52Z</time>
      </trkpt>
      <trkpt lat="42.97532" lon="-0.01739">
        <ele>1378.2</ele>
        <time>2024-08-15T07:44:53Z</time>
      </trkpt>
      <trkpt lat="42.97534" lon="-0.01737">
        <ele>1378.2</ele>
        <time>2024-08-15T07:44:54Z</time>
      </trkpt>
      <trkpt lat="42.97536" lon="-0.01736">
        <ele>1378.4</ele>
        <time>2024-08-15T07:44:55Z</time>
      </trkpt>
      <trkpt lat="42.97538" lon="-0.01734">
        <ele>1378.4</ele>
        <time>2024-08-15T07:44:56Z</time>
      </trkpt>
      <trkpt lat="42.9754" lon="-0.01733">
        <ele>1378.6</ele>
        <time>2024-08-15T07:44:57Z</time>
      </trkpt>
      <trkpt lat="42.97542" lon="-0.01731">
        <ele>1378.8</ele>
        <time>2024-08-15T07:44:58Z</time>
      </trkpt>
      <trkpt lat="42.97544" lon="-0.01729">
        <ele>1379</ele>
        <time>2024-08-15T07:44:59Z</time>
      </trkpt>
      <trkpt lat="42.97547" lon="-0.01727">
        <ele>1379.4</ele>
        <time>2024-08-15T07:45:00Z</time>
      </trkpt>
      <trkpt lat="42.97548" lon="-0.01726">
        <ele>1379.4</ele>
        <time>2024-08-15T07:45:01Z</time>
      </trkpt>
      <trkpt lat="42.9755" lon="-0.01725">
        <ele>1379.8</ele>
        <time>2024-08-15T07:45:02Z</time>
      </trkpt>
      <trkpt lat="42.97552" lon="-0.01723">
        <ele>1379.8</ele>
        <time>2024-08-15T07:45:03Z</time>
      </trkpt>
      <trkpt lat="42.97554" lon="-0.01722">
        <ele>1380.2</ele>
        <time>2024-08-15T07:45:04Z</time>
      </trkpt>
      <trkpt lat="42.97556" lon="-0.0172">
        <ele>1380.4</ele>
        <time>2024-08-15T07:45:05Z</time>
      </trkpt>
      <trkpt lat="42.97556" lon="-0.0172">
        <ele>1380.4</ele>
        <time>2024-08-15T07:45:06Z</time>
      </trkpt>
      <trkpt lat="42.97559" lon="-0.01718">
        <ele>1380.8</ele>
        <time>2024-08-15T07:45:07Z</time>
      </trkpt>
      <trkpt lat="42.97561" lon="-0.01716">
        <ele>1380.8</ele>
        <time>2024-08-15T07:45:08Z</time>
      </trkpt>
      <trkpt lat="42.97563" lon="-0.01714">
        <ele>1381</ele>
        <time>2024-08-15T07:45:09Z</time>
      </trkpt>
      <trkpt lat="42.97565" lon="-0.01713">
        <ele>1381.2</ele>
        <time>2024-08-15T07:45:10Z</time>
      </trkpt>
      <trkpt lat="42.97567" lon="-0.01711">
        <ele>1381.4</ele>
        <time>2024-08-15T07:45:11Z</time>
      </trkpt>
      <trkpt lat="42.9757" lon="-0.01709">
        <ele>1381.6</ele>
        <time>2024-08-15T07:45:12Z</time>
      </trkpt>
      <trkpt lat="42.97572" lon="-0.01708">
        <ele>1381.8</ele>
        <time>2024-08-15T07:45:13Z</time>
      </trkpt>
      <trkpt lat="42.97574" lon="-0.01706">
        <ele>1382</ele>
        <time>2024-08-15T07:45:14Z</time>
      </trkpt>
      <trkpt lat="42.97575" lon="-0.01704">
        <ele>1382.2</ele>
        <time>2024-08-15T07:45:15Z</time>
      </trkpt>
      <trkpt lat="42.97578" lon="-0.01701">
        <ele>1382.4</ele>
        <time>2024-08-15T07:45:16Z</time>
      </trkpt>
      <trkpt lat="42.97579" lon="-0.017">
        <ele>1382.6</ele>
        <time>2024-08-15T07:45:17Z</time>
      </trkpt>
      <trkpt lat="42.97581" lon="-0.01698">
        <ele>1382.6</ele>
        <time>2024-08-15T07:45:18Z</time>
      </trkpt>
      <trkpt lat="42.97582" lon="-0.01696">
        <ele>1382.8</ele>
        <time>2024-08-15T07:45:19Z</time>
      </trkpt>
      <trkpt lat="42.97584" lon="-0.01694">
        <ele>1383.2</ele>
        <time>2024-08-15T07:45:20Z</time>
      </trkpt>
      <trkpt lat="42.97586" lon="-0.01692">
        <ele>1383.2</ele>
        <time>2024-08-15T07:45:21Z</time>
      </trkpt>
      <trkpt lat="42.97587" lon="-0.0169">
        <ele>1383.4</ele>
        <time>2024-08-15T07:45:22Z</time>
      </trkpt>
      <trkpt lat="42.97589" lon="-0.01688">
        <ele>1383.8</ele>
        <time>2024-08-15T07:45:23Z</time>
      </trkpt>
      <trkpt lat="42.9759" lon="-0.01686">
        <ele>1383.6</ele>
        <time>2024-08-15T07:45:24Z</time>
      </trkpt>
      <trkpt lat="42.97591" lon="-0.01683">
        <ele>1384</ele>
        <time>2024-08-15T07:45:25Z</time>
      </trkpt>
      <trkpt lat="42.97592" lon="-0.0168">
        <ele>1384</ele>
        <time>2024-08-15T07:45:26Z</time>
      </trkpt>
      <trkpt lat="42.97593" lon="-0.01678">
        <ele>1384.2</ele>
        <time>2024-08-15T07:45:27Z</time>
      </trkpt>
      <trkpt lat="42.97594" lon="-0.01675">
        <ele>1384.4</ele>
        <time>2024-08-15T07:45:28Z</time>
      </trkpt>
      <trkpt lat="42.97595" lon="-0.01673">
        <ele>1384.6</ele>
        <time>2024-08-15T07:45:29Z</time>
      </trkpt>
      <trkpt lat="42.97596" lon="-0.0167">
        <ele>1385</ele>
        <time>2024-08-15T07:45:30Z</time>
      </trkpt>
      <trkpt lat="42.97597" lon="-0.01668">
        <ele>1385.2</ele>
        <time>2024-08-15T07:45:31Z</time>
      </trkpt>
      <trkpt lat="42.97598" lon="-0.01665">
        <ele>1385.4</ele>
        <time>2024-08-15T07:45:32Z</time>
      </trkpt>
      <trkpt lat="42.97599" lon="-0.01663">
        <ele>1385.6</ele>
        <time>2024-08-15T07:45:33Z</time>
      </trkpt>
      <trkpt lat="42.976" lon="-0.0166">
        <ele>1386</ele>
        <time>2024-08-15T07:45:34Z</time>
      </trkpt>
      <trkpt lat="42.97601" lon="-0.01657">
        <ele>1386</ele>
        <time>2024-08-15T07:45:35Z</time>
      </trkpt>
      <trkpt lat="42.97602" lon="-0.01655">
        <ele>1386.4</ele>
        <time>2024-08-15T07:45:36Z</time>
      </trkpt>
      <trkpt lat="42.97602" lon="-0.01652">
        <ele>1386.4</ele>
        <time>2024-08-15T07:45:37Z</time>
      </trkpt>
      <trkpt lat="42.97603" lon="-0.01649">
        <ele>1386.6</ele>
        <time>2024-08-15T07:45:38Z</time>
      </trkpt>
      <trkpt lat="42.97604" lon="-0.01647">
        <ele>1386.6</ele>
        <time>2024-08-15T07:45:39Z</time>
      </trkpt>
      <trkpt lat="42.97605" lon="-0.01644">
        <ele>1386.8</ele>
        <time>2024-08-15T07:45:40Z</time>
      </trkpt>
      <trkpt lat="42.97606" lon="-0.01641">
        <ele>1387</ele>
        <time>2024-08-15T07:45:41Z</time>
      </trkpt>
      <trkpt lat="42.97607" lon="-0.01638">
        <ele>1387.2</ele>
        <time>2024-08-15T07:45:42Z</time>
      </trkpt>
      <trkpt lat="42.97608" lon="-0.01635">
        <ele>1387.6</ele>
        <time>2024-08-15T07:45:43Z</time>
      </trkpt>
      <trkpt lat="42.97609" lon="-0.01632">
        <ele>1387.6</ele>
        <time>2024-08-15T07:45:44Z</time>
      </trkpt>
      <trkpt lat="42.9761" lon="-0.01629">
        <ele>1387.8</ele>
        <time>2024-08-15T07:45:45Z</time>
      </trkpt>
      <trkpt lat="42.97611" lon="-0.01626">
        <ele>1388</ele>
        <time>2024-08-15T07:45:46Z</time>
      </trkpt>
      <trkpt lat="42.97612" lon="-0.01623">
        <ele>1388.2</ele>
        <time>2024-08-15T07:45:47Z</time>
      </trkpt>
      <trkpt lat="42.97613" lon="-0.0162">
        <ele>1388.2</ele>
        <time>2024-08-15T07:45:48Z</time>
      </trkpt>
      <trkpt lat="42.97614" lon="-0.01617">
        <ele>1388.4</ele>
        <time>2024-08-15T07:45:49Z</time>
      </trkpt>
      <trkpt lat="42.97615" lon="-0.01614">
        <ele>1388.6</ele>
        <time>2024-08-15T07:45:50Z</time>
      </trkpt>
      <trkpt lat="42.97616" lon="-0.01611">
        <ele>1388.6</ele>
        <time>2024-08-15T07:45:51Z</time>
      </trkpt>
      <trkpt lat="42.97617" lon="-0.01608">
        <ele>1389</ele>
        <time>2024-08-15T07:45:52Z</time>
      </trkpt>
      <trkpt lat="42.97618" lon="-0.01606">
        <ele>1389.2</ele>
        <time>2024-08-15T07:45:53Z</time>
      </trkpt>
      <trkpt lat="42.97619" lon="-0.01603">
        <ele>1389.2</ele>
        <time>2024-08-15T07:45:54Z</time>
      </trkpt>
      <trkpt lat="42.9762" lon="-0.01599">
        <ele>1389.6</ele>
        <time>2024-08-15T07:45:55Z</time>
      </trkpt>
      <trkpt lat="42.97621" lon="-0.01596">
        <ele>1389.6</ele>
        <time>2024-08-15T07:45:56Z</time>
      </trkpt>
      <trkpt lat="42.97622" lon="-0.01593">
        <ele>1390</ele>
        <time>2024-08-15T07:45:57Z</time>
      </trkpt>
      <trkpt lat="42.97624" lon="-0.01591">
        <ele>1390</ele>
        <time>2024-08-15T07:45:58Z</time>
      </trkpt>
      <trkpt lat="42.97625" lon="-0.01588">
        <ele>1390.4</ele>
        <time>2024-08-15T07:45:59Z</time>
      </trkpt>
      <trkpt lat="42.97626" lon="-0.01585">
        <ele>1390.4</ele>
        <time>2024-08-15T07:46:00Z</time>
      </trkpt>
      <trkpt lat="42.97627" lon="-0.01582">
        <ele>1390.6</ele>
        <time>2024-08-15T07:46:01Z</time>
      </trkpt>
      <trkpt lat="42.97628" lon="-0.01579">
        <ele>1391</ele>
        <time>2024-08-15T07:46:02Z</time>
      </trkpt>
      <trkpt lat="42.97629" lon="-0.01577">
        <ele>1391</ele>
        <time>2024-08-15T07:46:03Z</time>
      </trkpt>
      <trkpt lat="42.9763" lon="-0.01574">
        <ele>1391.6</ele>
        <time>2024-08-15T07:46:04Z</time>
      </trkpt>
      <trkpt lat="42.97631" lon="-0.01571">
        <ele>1391.6</ele>
        <time>2024-08-15T07:46:05Z</time>
      </trkpt>
      <trkpt lat="42.97632" lon="-0.01569">
        <ele>1391.8</ele>
        <time>2024-08-15T07:46:06Z</time>
      </trkpt>
      <trkpt lat="42.97633" lon="-0.01566">
        <ele>1391.8</ele>
        <time>2024-08-15T07:46:07Z</time>
      </trkpt>
      <trkpt lat="42.97635" lon="-0.01564">
        <ele>1392.2</ele>
        <time>2024-08-15T07:46:08Z</time>
      </trkpt>
      <trkpt lat="42.97635" lon="-0.01564">
        <ele>1392.6</ele>
        <time>2024-08-15T07:46:09Z</time>
      </trkpt>
      <trkpt lat="42.97637" lon="-0.01557">
        <ele>1392.6</ele>
        <time>2024-08-15T07:46:10Z</time>
      </trkpt>
      <trkpt lat="42.97638" lon="-0.01555">
        <ele>1392.8</ele>
        <time>2024-08-15T07:46:11Z</time>
      </trkpt>
      <trkpt lat="42.97639" lon="-0.01552">
        <ele>1393</ele>
        <time>2024-08-15T07:46:12Z</time>
      </trkpt>
      <trkpt lat="42.9764" lon="-0.01549">
        <ele>1393.2</ele>
        <time>2024-08-15T07:46:13Z</time>
      </trkpt>
      <trkpt lat="42.97641" lon="-0.01546">
        <ele>1393.2</ele>
        <time>2024-08-15T07:46:14Z</time>
      </trkpt>
      <trkpt lat="42.97642" lon="-0.01542">
        <ele>1393.6</ele>
        <time>2024-08-15T07:46:15Z</time>
      </trkpt>
      <trkpt lat="42.97643" lon="-0.01539">
        <ele>1393.8</ele>
        <time>2024-08-15T07:46:16Z</time>
      </trkpt>
      <trkpt lat="42.97644" lon="-0.01536">
        <ele>1394</ele>
        <time>2024-08-15T07:46:17Z</time>
      </trkpt>
      <trkpt lat="42.97645" lon="-0.01533">
        <ele>1394.2</ele>
        <time>2024-08-15T07:46:18Z</time>
      </trkpt>
      <trkpt lat="42.97646" lon="-0.0153">
        <ele>1394.4</ele>
        <time>2024-08-15T07:46:19Z</time>
      </trkpt>
      <trkpt lat="42.97648" lon="-0.01527">
        <ele>1394.8</ele>
        <time>2024-08-15T07:46:20Z</time>
      </trkpt>
      <trkpt lat="42.97649" lon="-0.01525">
        <ele>1394.6</ele>
        <time>2024-08-15T07:46:21Z</time>
      </trkpt>
      <trkpt lat="42.9765" lon="-0.01522">
        <ele>1394.8</ele>
        <time>2024-08-15T07:46:22Z</time>
      </trkpt>
      <trkpt lat="42.97651" lon="-0.01519">
        <ele>1395</ele>
        <time>2024-08-15T07:46:23Z</time>
      </trkpt>
      <trkpt lat="42.97653" lon="-0.01517">
        <ele>1395.2</ele>
        <time>2024-08-15T07:46:24Z</time>
      </trkpt>
      <trkpt lat="42.97654" lon="-0.01514">
        <ele>1395.6</ele>
        <time>2024-08-15T07:46:25Z</time>
      </trkpt>
      <trkpt lat="42.97656" lon="-0.01512">
        <ele>1395.6</ele>
        <time>2024-08-15T07:46:26Z</time>
      </trkpt>
      <trkpt lat="42.97657" lon="-0.01509">
        <ele>1396</ele>
        <time>2024-08-15T07:46:27Z</time>
      </trkpt>
      <trkpt lat="42.97659" lon="-0.01507">
        <ele>1396</ele>
        <time>2024-08-15T07:46:28Z</time>
      </trkpt>
      <trkpt lat="42.97661" lon="-0.01505">
        <ele>1396.4</ele>
        <time>2024-08-15T07:46:29Z</time>
      </trkpt>
      <trkpt lat="42.97663" lon="-0.01503">
        <ele>1396.4</ele>
        <time>2024-08-15T07:46:30Z</time>
      </trkpt>
      <trkpt lat="42.97665" lon="-0.01501">
        <ele>1396.6</ele>
        <time>2024-08-15T07:46:31Z</time>
      </trkpt>
      <trkpt lat="42.97667" lon="-0.01499">
        <ele>1396.8</ele>
        <time>2024-08-15T07:46:32Z</time>
      </trkpt>
      <trkpt lat="42.97669" lon="-0.01497">
        <ele>1397</ele>
        <time>2024-08-15T07:46:33Z</time>
      </trkpt>
      <trkpt lat="42.97671" lon="-0.01495">
        <ele>1397.2</ele>
        <time>2024-08-15T07:46:34Z</time>
      </trkpt>
      <trkpt lat="42.97674" lon="-0.01493">
        <ele>1397.2</ele>
        <time>2024-08-15T07:46:35Z</time>
      </trkpt>
      <trkpt lat="42.97676" lon="-0.01491">
        <ele>1397.6</ele>
        <time>2024-08-15T07:46:36Z</time>
      </trkpt>
      <trkpt lat="42.97679" lon="-0.0149">
        <ele>1397.6</ele>
        <time>2024-08-15T07:46:37Z</time>
      </trkpt>
      <trkpt lat="42.97681" lon="-0.01488">
        <ele>1397.8</ele>
        <time>2024-08-15T07:46:38Z</time>
      </trkpt>
      <trkpt lat="42.97683" lon="-0.01487">
        <ele>1398</ele>
        <time>2024-08-15T07:46:39Z</time>
      </trkpt>
      <trkpt lat="42.97685" lon="-0.01486">
        <ele>1398.2</ele>
        <time>2024-08-15T07:46:40Z</time>
      </trkpt>
      <trkpt lat="42.97687" lon="-0.01484">
        <ele>1398.2</ele>
        <time>2024-08-15T07:46:41Z</time>
      </trkpt>
      <trkpt lat="42.97689" lon="-0.01483">
        <ele>1398.4</ele>
        <time>2024-08-15T07:46:42Z</time>
      </trkpt>
      <trkpt lat="42.97691" lon="-0.01481">
        <ele>1398.6</ele>
        <time>2024-08-15T07:46:43Z</time>
      </trkpt>
      <trkpt lat="42.97694" lon="-0.0148">
        <ele>1398.6</ele>
        <time>2024-08-15T07:46:44Z</time>
      </trkpt>
      <trkpt lat="42.97697" lon="-0.01478">
        <ele>1398.8</ele>
        <time>2024-08-15T07:46:45Z</time>
      </trkpt>
      <trkpt lat="42.97699" lon="-0.01477">
        <ele>1399</ele>
        <time>2024-08-15T07:46:46Z</time>
      </trkpt>
      <trkpt lat="42.97701" lon="-0.01475">
        <ele>1399.2</ele>
        <time>2024-08-15T07:46:47Z</time>
      </trkpt>
      <trkpt lat="42.97703" lon="-0.01474">
        <ele>1399.2</ele>
        <time>2024-08-15T07:46:48Z</time>
      </trkpt>
      <trkpt lat="42.97705" lon="-0.01472">
        <ele>1399.4</ele>
        <time>2024-08-15T07:46:49Z</time>
      </trkpt>
      <trkpt lat="42.97708" lon="-0.01471">
        <ele>1399.4</ele>
        <time>2024-08-15T07:46:50Z</time>
      </trkpt>
      <trkpt lat="42.9771" lon="-0.0147">
        <ele>1399.6</ele>
        <time>2024-08-15T07:46:51Z</time>
      </trkpt>
      <trkpt lat="42.97712" lon="-0.01468">
        <ele>1400</ele>
        <time>2024-08-15T07:46:52Z</time>
      </trkpt>
      <trkpt lat="42.97714" lon="-0.01466">
        <ele>1399.8</ele>
        <time>2024-08-15T07:46:53Z</time>
      </trkpt>
      <trkpt lat="42.97716" lon="-0.01465">
        <ele>1400.2</ele>
        <time>2024-08-15T07:46:54Z</time>
      </trkpt>
      <trkpt lat="42.97718" lon="-0.01463">
        <ele>1400.2</ele>
        <time>2024-08-15T07:46:55Z</time>
      </trkpt>
      <trkpt lat="42.9772" lon="-0.01461">
        <ele>1400.4</ele>
        <time>2024-08-15T07:46:56Z</time>
      </trkpt>
      <trkpt lat="42.97722" lon="-0.0146">
        <ele>1400.6</ele>
        <time>2024-08-15T07:46:57Z</time>
      </trkpt>
      <trkpt lat="42.97724" lon="-0.01458">
        <ele>1400.4</ele>
        <time>2024-08-15T07:46:58Z</time>
      </trkpt>
      <trkpt lat="42.97727" lon="-0.01457">
        <ele>1400.6</ele>
        <time>2024-08-15T07:46:59Z</time>
      </trkpt>
      <trkpt lat="42.97729" lon="-0.01455">
        <ele>1400.6</ele>
        <time>2024-08-15T07:47:00Z</time>
      </trkpt>
      <trkpt lat="42.97731" lon="-0.01453">
        <ele>1400.8</ele>
        <time>2024-08-15T07:47:01Z</time>
      </trkpt>
      <trkpt lat="42.97733" lon="-0.01451">
        <ele>1400.8</ele>
        <time>2024-08-15T07:47:02Z</time>
      </trkpt>
      <trkpt lat="42.97735" lon="-0.01449">
        <ele>1401</ele>
        <time>2024-08-15T07:47:03Z</time>
      </trkpt>
      <trkpt lat="42.97738" lon="-0.01447">
        <ele>1401</ele>
        <time>2024-08-15T07:47:04Z</time>
      </trkpt>
      <trkpt lat="42.9774" lon="-0.01444">
        <ele>1401.2</ele>
        <time>2024-08-15T07:47:05Z</time>
      </trkpt>
      <trkpt lat="42.97742" lon="-0.01441">
        <ele>1401.2</ele>
        <time>2024-08-15T07:47:06Z</time>
      </trkpt>
      <trkpt lat="42.97743" lon="-0.01438">
        <ele>1401.2</ele>
        <time>2024-08-15T07:47:07Z</time>
      </trkpt>
      <trkpt lat="42.97744" lon="-0.01436">
        <ele>1401.4</ele>
        <time>2024-08-15T07:47:08Z</time>
      </trkpt>
      <trkpt lat="42.97745" lon="-0.01433">
        <ele>1401.4</ele>
        <time>2024-08-15T07:47:09Z</time>
      </trkpt>
      <trkpt lat="42.97745" lon="-0.0143">
        <ele>1401.6</ele>
        <time>2024-08-15T07:47:10Z</time>
      </trkpt>
      <trkpt lat="42.97745" lon="-0.01427">
        <ele>1402</ele>
        <time>2024-08-15T07:47:11Z</time>
      </trkpt>
      <trkpt lat="42.97745" lon="-0.01424">
        <ele>1402.2</ele>
        <time>2024-08-15T07:47:12Z</time>
      </trkpt>
      <trkpt lat="42.97744" lon="-0.01421">
        <ele>1402.4</ele>
        <time>2024-08-15T07:47:13Z</time>
      </trkpt>
      <trkpt lat="42.97742" lon="-0.01417">
        <ele>1402.6</ele>
        <time>2024-08-15T07:47:14Z</time>
      </trkpt>
      <trkpt lat="42.9774" lon="-0.01415">
        <ele>1402.8</ele>
        <time>2024-08-15T07:47:15Z</time>
      </trkpt>
      <trkpt lat="42.97737" lon="-0.01414">
        <ele>1403</ele>
        <time>2024-08-15T07:47:16Z</time>
      </trkpt>
      <trkpt lat="42.97734" lon="-0.01414">
        <ele>1403.2</ele>
        <time>2024-08-15T07:47:17Z</time>
      </trkpt>
      <trkpt lat="42.97731" lon="-0.01413">
        <ele>1403.4</ele>
        <time>2024-08-15T07:47:18Z</time>
      </trkpt>
      <trkpt lat="42.97729" lon="-0.01413">
        <ele>1404</ele>
        <time>2024-08-15T07:47:19Z</time>
      </trkpt>
      <trkpt lat="42.97726" lon="-0.01414">
        <ele>1404.6</ele>
        <time>2024-08-15T07:47:20Z</time>
      </trkpt>
      <trkpt lat="42.97724" lon="-0.01415">
        <ele>1404.8</ele>
        <time>2024-08-15T07:47:21Z</time>
      </trkpt>
      <trkpt lat="42.97721" lon="-0.01417">
        <ele>1405</ele>
        <time>2024-08-15T07:47:22Z</time>
      </trkpt>
      <trkpt lat="42.97719" lon="-0.01418">
        <ele>1405.2</ele>
        <time>2024-08-15T07:47:23Z</time>
      </trkpt>
      <trkpt lat="42.97716" lon="-0.0142">
        <ele>1405.8</ele>
        <time>2024-08-15T07:47:24Z</time>
      </trkpt>
      <trkpt lat="42.97714" lon="-0.01421">
        <ele>1406</ele>
        <time>2024-08-15T07:47:25Z</time>
      </trkpt>
      <trkpt lat="42.97711" lon="-0.01422">
        <ele>1406.2</ele>
        <time>2024-08-15T07:47:26Z</time>
      </trkpt>
      <trkpt lat="42.97709" lon="-0.01423">
        <ele>1406.4</ele>
        <time>2024-08-15T07:47:27Z</time>
      </trkpt>
      <trkpt lat="42.97707" lon="-0.01424">
        <ele>1406.6</ele>
        <time>2024-08-15T07:47:28Z</time>
      </trkpt>
      <trkpt lat="42.97704" lon="-0.01425">
        <ele>1407</ele>
        <time>2024-08-15T07:47:29Z</time>
      </trkpt>
      <trkpt lat="42.97702" lon="-0.01426">
        <ele>1407</ele>
        <time>2024-08-15T07:47:30Z</time>
      </trkpt>
      <trkpt lat="42.97699" lon="-0.01427">
        <ele>1407.2</ele>
        <time>2024-08-15T07:47:31Z</time>
      </trkpt>
      <trkpt lat="42.97696" lon="-0.01428">
        <ele>1407.4</ele>
        <time>2024-08-15T07:47:32Z</time>
      </trkpt>
      <trkpt lat="42.97694" lon="-0.01429">
        <ele>1407.8</ele>
        <time>2024-08-15T07:47:33Z</time>
      </trkpt>
      <trkpt lat="42.97691" lon="-0.01429">
        <ele>1408</ele>
        <time>2024-08-15T07:47:34Z</time>
      </trkpt>
      <trkpt lat="42.97688" lon="-0.0143">
        <ele>1408.2</ele>
        <time>2024-08-15T07:47:35Z</time>
      </trkpt>
      <trkpt lat="42.97685" lon="-0.0143">
        <ele>1408.4</ele>
        <time>2024-08-15T07:47:36Z</time>
      </trkpt>
      <trkpt lat="42.97682" lon="-0.01431">
        <ele>1408.6</ele>
        <time>2024-08-15T07:47:37Z</time>
      </trkpt>
      <trkpt lat="42.97679" lon="-0.01431">
        <ele>1408.8</ele>
        <time>2024-08-15T07:47:38Z</time>
      </trkpt>
      <trkpt lat="42.97677" lon="-0.01432">
        <ele>1409</ele>
        <time>2024-08-15T07:47:39Z</time>
      </trkpt>
      <trkpt lat="42.97674" lon="-0.01433">
        <ele>1409.4</ele>
        <time>2024-08-15T07:47:40Z</time>
      </trkpt>
      <trkpt lat="42.97671" lon="-0.01433">
        <ele>1409.4</ele>
        <time>2024-08-15T07:47:41Z</time>
      </trkpt>
      <trkpt lat="42.97668" lon="-0.01434">
        <ele>1409.8</ele>
        <time>2024-08-15T07:47:42Z</time>
      </trkpt>
      <trkpt lat="42.97666" lon="-0.01434">
        <ele>1410</ele>
        <time>2024-08-15T07:47:43Z</time>
      </trkpt>
      <trkpt lat="42.97663" lon="-0.01434">
        <ele>1410.2</ele>
        <time>2024-08-15T07:47:44Z</time>
      </trkpt>
      <trkpt lat="42.9766" lon="-0.01435">
        <ele>1410.4</ele>
        <time>2024-08-15T07:47:45Z</time>
      </trkpt>
      <trkpt lat="42.97657" lon="-0.01435">
        <ele>1410.6</ele>
        <time>2024-08-15T07:47:46Z</time>
      </trkpt>
      <trkpt lat="42.97655" lon="-0.01436">
        <ele>1410.8</ele>
        <time>2024-08-15T07:47:47Z</time>
      </trkpt>
      <trkpt lat="42.97653" lon="-0.01436">
        <ele>1411</ele>
        <time>2024-08-15T07:47:48Z</time>
      </trkpt>
      <trkpt lat="42.9765" lon="-0.01436">
        <ele>1411.2</ele>
        <time>2024-08-15T07:47:49Z</time>
      </trkpt>
      <trkpt lat="42.97647" lon="-0.01437">
        <ele>1411.4</ele>
        <time>2024-08-15T07:47:50Z</time>
      </trkpt>
      <trkpt lat="42.97645" lon="-0.01437">
        <ele>1411.4</ele>
        <time>2024-08-15T07:47:51Z</time>
      </trkpt>
      <trkpt lat="42.97642" lon="-0.01437">
        <ele>1411.8</ele>
        <time>2024-08-15T07:47:52Z</time>
      </trkpt>
      <trkpt lat="42.97639" lon="-0.01438">
        <ele>1412</ele>
        <time>2024-08-15T07:47:53Z</time>
      </trkpt>
      <trkpt lat="42.97637" lon="-0.01438">
        <ele>1412</ele>
        <time>2024-08-15T07:47:54Z</time>
      </trkpt>
      <trkpt lat="42.97634" lon="-0.01439">
        <ele>1412.2</ele>
        <time>2024-08-15T07:47:55Z</time>
      </trkpt>
      <trkpt lat="42.97631" lon="-0.01439">
        <ele>1412.4</ele>
        <time>2024-08-15T07:47:56Z</time>
      </trkpt>
      <trkpt lat="42.97629" lon="-0.0144">
        <ele>1412.6</ele>
        <time>2024-08-15T07:47:57Z</time>
      </trkpt>
      <trkpt lat="42.97627" lon="-0.0144">
        <ele>1413</ele>
        <time>2024-08-15T07:47:58Z</time>
      </trkpt>
      <trkpt lat="42.97624" lon="-0.01441">
        <ele>1413.2</ele>
        <time>2024-08-15T07:47:59Z</time>
      </trkpt>
      <trkpt lat="42.97621" lon="-0.01441">
        <ele>1413.4</ele>
        <time>2024-08-15T07:48:00Z</time>
      </trkpt>
      <trkpt lat="42.97619" lon="-0.01442">
        <ele>1413.6</ele>
        <time>2024-08-15T07:48:01Z</time>
      </trkpt>
      <trkpt lat="42.97616" lon="-0.01442">
        <ele>1413.6</ele>
        <time>2024-08-15T07:48:02Z</time>
      </trkpt>
      <trkpt lat="42.97614" lon="-0.01442">
        <ele>1413.8</ele>
        <time>2024-08-15T07:48:03Z</time>
      </trkpt>
      <trkpt lat="42.97611" lon="-0.01443">
        <ele>1413.8</ele>
        <time>2024-08-15T07:48:04Z</time>
      </trkpt>
      <trkpt lat="42.97609" lon="-0.01443">
        <ele>1414.4</ele>
        <time>2024-08-15T07:48:05Z</time>
      </trkpt>
      <trkpt lat="42.97606" lon="-0.01443">
        <ele>1414.8</ele>
        <time>2024-08-15T07:48:06Z</time>
      </trkpt>
      <trkpt lat="42.97603" lon="-0.01444">
        <ele>1415</ele>
        <time>2024-08-15T07:48:07Z</time>
      </trkpt>
      <trkpt lat="42.97601" lon="-0.01444">
        <ele>1415.2</ele>
        <time>2024-08-15T07:48:08Z</time>
      </trkpt>
      <trkpt lat="42.97598" lon="-0.01445">
        <ele>1415.2</ele>
        <time>2024-08-15T07:48:09Z</time>
      </trkpt>
      <trkpt lat="42.97595" lon="-0.01445">
        <ele>1415.4</ele>
        <time>2024-08-15T07:48:10Z</time>
      </trkpt>
      <trkpt lat="42.97593" lon="-0.01446">
        <ele>1415.4</ele>
        <time>2024-08-15T07:48:11Z</time>
      </trkpt>
      <trkpt lat="42.9759" lon="-0.01447">
        <ele>1415.8</ele>
        <time>2024-08-15T07:48:12Z</time>
      </trkpt>
      <trkpt lat="42.97587" lon="-0.01448">
        <ele>1416.2</ele>
        <time>2024-08-15T07:48:13Z</time>
      </trkpt>
      <trkpt lat="42.97585" lon="-0.01448">
        <ele>1416.2</ele>
        <time>2024-08-15T07:48:14Z</time>
      </trkpt>
      <trkpt lat="42.97582" lon="-0.01449">
        <ele>1416.4</ele>
        <time>2024-08-15T07:48:15Z</time>
      </trkpt>
      <trkpt lat="42.9758" lon="-0.01449">
        <ele>1416.6</ele>
        <time>2024-08-15T07:48:16Z</time>
      </trkpt>
      <trkpt lat="42.97577" lon="-0.0145">
        <ele>1416.8</ele>
        <time>2024-08-15T07:48:17Z</time>
      </trkpt>
      <trkpt lat="42.97574" lon="-0.01452">
        <ele>1417</ele>
        <time>2024-08-15T07:48:18Z</time>
      </trkpt>
      <trkpt lat="42.97572" lon="-0.01453">
        <ele>1417.4</ele>
        <time>2024-08-15T07:48:19Z</time>
      </trkpt>
      <trkpt lat="42.97569" lon="-0.01455">
        <ele>1417.4</ele>
        <time>2024-08-15T07:48:20Z</time>
      </trkpt>
      <trkpt lat="42.97567" lon="-0.01456">
        <ele>1417.6</ele>
        <time>2024-08-15T07:48:21Z</time>
      </trkpt>
      <trkpt lat="42.97564" lon="-0.01458">
        <ele>1417.8</ele>
        <time>2024-08-15T07:48:22Z</time>
      </trkpt>
      <trkpt lat="42.97562" lon="-0.0146">
        <ele>1418</ele>
        <time>2024-08-15T07:48:23Z</time>
      </trkpt>
      <trkpt lat="42.9756" lon="-0.01462">
        <ele>1418.2</ele>
        <time>2024-08-15T07:48:24Z</time>
      </trkpt>
      <trkpt lat="42.97558" lon="-0.01463">
        <ele>1418.4</ele>
        <time>2024-08-15T07:48:25Z</time>
      </trkpt>
      <trkpt lat="42.97555" lon="-0.01465">
        <ele>1418.6</ele>
        <time>2024-08-15T07:48:26Z</time>
      </trkpt>
      <trkpt lat="42.97554" lon="-0.01467">
        <ele>1418.8</ele>
        <time>2024-08-15T07:48:27Z</time>
      </trkpt>
      <trkpt lat="42.97552" lon="-0.01469">
        <ele>1419</ele>
        <time>2024-08-15T07:48:28Z</time>
      </trkpt>
      <trkpt lat="42.9755" lon="-0.0147">
        <ele>1419.4</ele>
        <time>2024-08-15T07:48:29Z</time>
      </trkpt>
      <trkpt lat="42.97548" lon="-0.01472">
        <ele>1419.6</ele>
        <time>2024-08-15T07:48:30Z</time>
      </trkpt>
      <trkpt lat="42.97546" lon="-0.01474">
        <ele>1419.8</ele>
        <time>2024-08-15T07:48:31Z</time>
      </trkpt>
      <trkpt lat="42.97544" lon="-0.01476">
        <ele>1420</ele>
        <time>2024-08-15T07:48:32Z</time>
      </trkpt>
      <trkpt lat="42.97542" lon="-0.01478">
        <ele>1420.4</ele>
        <time>2024-08-15T07:48:33Z</time>
      </trkpt>
      <trkpt lat="42.97539" lon="-0.0148">
        <ele>1420.6</ele>
        <time>2024-08-15T07:48:34Z</time>
      </trkpt>
      <trkpt lat="42.97537" lon="-0.01482">
        <ele>1420.8</ele>
        <time>2024-08-15T07:48:35Z</time>
      </trkpt>
      <trkpt lat="42.97535" lon="-0.01483">
        <ele>1421</ele>
        <time>2024-08-15T07:48:36Z</time>
      </trkpt>
      <trkpt lat="42.97532" lon="-0.01485">
        <ele>1421.2</ele>
        <time>2024-08-15T07:48:37Z</time>
      </trkpt>
      <trkpt lat="42.9753" lon="-0.01486">
        <ele>1421.4</ele>
        <time>2024-08-15T07:48:38Z</time>
      </trkpt>
      <trkpt lat="42.97528" lon="-0.01487">
        <ele>1421.6</ele>
        <time>2024-08-15T07:48:39Z</time>
      </trkpt>
      <trkpt lat="42.97525" lon="-0.01488">
        <ele>1422</ele>
        <time>2024-08-15T07:48:40Z</time>
      </trkpt>
      <trkpt lat="42.97523" lon="-0.01489">
        <ele>1422.2</ele>
        <time>2024-08-15T07:48:41Z</time>
      </trkpt>
      <trkpt lat="42.9752" lon="-0.0149">
        <ele>1422.4</ele>
        <time>2024-08-15T07:48:42Z</time>
      </trkpt>
      <trkpt lat="42.97518" lon="-0.0149">
        <ele>1422.6</ele>
        <time>2024-08-15T07:48:43Z</time>
      </trkpt>
      <trkpt lat="42.97515" lon="-0.01491">
        <ele>1422.6</ele>
        <time>2024-08-15T07:48:44Z</time>
      </trkpt>
      <trkpt lat="42.97513" lon="-0.01491">
        <ele>1422.8</ele>
        <time>2024-08-15T07:48:45Z</time>
      </trkpt>
      <trkpt lat="42.9751" lon="-0.0149">
        <ele>1422.8</ele>
        <time>2024-08-15T07:48:46Z</time>
      </trkpt>
      <trkpt lat="42.97508" lon="-0.0149">
        <ele>1423</ele>
        <time>2024-08-15T07:48:47Z</time>
      </trkpt>
      <trkpt lat="42.97505" lon="-0.01489">
        <ele>1423.2</ele>
        <time>2024-08-15T07:48:48Z</time>
      </trkpt>
      <trkpt lat="42.97503" lon="-0.01488">
        <ele>1423.2</ele>
        <time>2024-08-15T07:48:49Z</time>
      </trkpt>
      <trkpt lat="42.97501" lon="-0.01486">
        <ele>1423.4</ele>
        <time>2024-08-15T07:48:50Z</time>
      </trkpt>
      <trkpt lat="42.97499" lon="-0.01485">
        <ele>1423.8</ele>
        <time>2024-08-15T07:48:51Z</time>
      </trkpt>
      <trkpt lat="42.97497" lon="-0.01483">
        <ele>1424</ele>
        <time>2024-08-15T07:48:52Z</time>
      </trkpt>
      <trkpt lat="42.97495" lon="-0.0148">
        <ele>1424</ele>
        <time>2024-08-15T07:48:53Z</time>
      </trkpt>
      <trkpt lat="42.97493" lon="-0.01478">
        <ele>1424.2</ele>
        <time>2024-08-15T07:48:54Z</time>
      </trkpt>
      <trkpt lat="42.97492" lon="-0.01475">
        <ele>1424.4</ele>
        <time>2024-08-15T07:48:55Z</time>
      </trkpt>
      <trkpt lat="42.97491" lon="-0.01472">
        <ele>1424.6</ele>
        <time>2024-08-15T07:48:56Z</time>
      </trkpt>
      <trkpt lat="42.97491" lon="-0.01469">
        <ele>1424.6</ele>
        <time>2024-08-15T07:48:57Z</time>
      </trkpt>
      <trkpt lat="42.9749" lon="-0.01466">
        <ele>1424.8</ele>
        <time>2024-08-15T07:48:58Z</time>
      </trkpt>
      <trkpt lat="42.9749" lon="-0.01462">
        <ele>1425.2</ele>
        <time>2024-08-15T07:48:59Z</time>
      </trkpt>
      <trkpt lat="42.9749" lon="-0.01459">
        <ele>1425.2</ele>
        <time>2024-08-15T07:49:00Z</time>
      </trkpt>
      <trkpt lat="42.9749" lon="-0.01456">
        <ele>1425.4</ele>
        <time>2024-08-15T07:49:01Z</time>
      </trkpt>
      <trkpt lat="42.97491" lon="-0.01452">
        <ele>1425.6</ele>
        <time>2024-08-15T07:49:02Z</time>
      </trkpt>
      <trkpt lat="42.97492" lon="-0.01449">
        <ele>1425.8</ele>
        <time>2024-08-15T07:49:03Z</time>
      </trkpt>
      <trkpt lat="42.97493" lon="-0.01446">
        <ele>1426</ele>
        <time>2024-08-15T07:49:04Z</time>
      </trkpt>
      <trkpt lat="42.97494" lon="-0.01443">
        <ele>1426.2</ele>
        <time>2024-08-15T07:49:05Z</time>
      </trkpt>
      <trkpt lat="42.97495" lon="-0.0144">
        <ele>1426.4</ele>
        <time>2024-08-15T07:49:06Z</time>
      </trkpt>
      <trkpt lat="42.97497" lon="-0.01438">
        <ele>1426.6</ele>
        <time>2024-08-15T07:49:07Z</time>
      </trkpt>
      <trkpt lat="42.97498" lon="-0.01436">
        <ele>1427</ele>
        <time>2024-08-15T07:49:08Z</time>
      </trkpt>
      <trkpt lat="42.975" lon="-0.01434">
        <ele>1427.2</ele>
        <time>2024-08-15T07:49:09Z</time>
      </trkpt>
      <trkpt lat="42.97502" lon="-0.01432">
        <ele>1427.4</ele>
        <time>2024-08-15T07:49:10Z</time>
      </trkpt>
      <trkpt lat="42.97504" lon="-0.0143">
        <ele>1427.4</ele>
        <time>2024-08-15T07:49:11Z</time>
      </trkpt>
      <trkpt lat="42.97506" lon="-0.01428">
        <ele>1427.8</ele>
        <time>2024-08-15T07:49:12Z</time>
      </trkpt>
      <trkpt lat="42.97509" lon="-0.01426">
        <ele>1427.8</ele>
        <time>2024-08-15T07:49:13Z</time>
      </trkpt>
      <trkpt lat="42.97511" lon="-0.01424">
        <ele>1428</ele>
        <time>2024-08-15T07:49:14Z</time>
      </trkpt>
      <trkpt lat="42.97513" lon="-0.01423">
        <ele>1428.4</ele>
        <time>2024-08-15T07:49:15Z</time>
      </trkpt>
      <trkpt lat="42.97515" lon="-0.01421">
        <ele>1428.4</ele>
        <time>2024-08-15T07:49:16Z</time>
      </trkpt>
      <trkpt lat="42.97518" lon="-0.01419">
        <ele>1428.6</ele>
        <time>2024-08-15T07:49:17Z</time>
      </trkpt>
      <trkpt lat="42.9752" lon="-0.01417">
        <ele>1428.8</ele>
        <time>2024-08-15T07:49:18Z</time>
      </trkpt>
      <trkpt lat="42.97522" lon="-0.01415">
        <ele>1429</ele>
        <time>2024-08-15T07:49:19Z</time>
      </trkpt>
      <trkpt lat="42.97524" lon="-0.01414">
        <ele>1429</ele>
        <time>2024-08-15T07:49:20Z</time>
      </trkpt>
      <trkpt lat="42.97526" lon="-0.01412">
        <ele>1429.2</ele>
        <time>2024-08-15T07:49:21Z</time>
      </trkpt>
      <trkpt lat="42.97528" lon="-0.0141">
        <ele>1429.6</ele>
        <time>2024-08-15T07:49:22Z</time>
      </trkpt>
      <trkpt lat="42.9753" lon="-0.01408">
        <ele>1429.6</ele>
        <time>2024-08-15T07:49:23Z</time>
      </trkpt>
      <trkpt lat="42.97533" lon="-0.01407">
        <ele>1429.8</ele>
        <time>2024-08-15T07:49:24Z</time>
      </trkpt>
      <trkpt lat="42.97535" lon="-0.01405">
        <ele>1430</ele>
        <time>2024-08-15T07:49:25Z</time>
      </trkpt>
      <trkpt lat="42.97537" lon="-0.01403">
        <ele>1430.2</ele>
        <time>2024-08-15T07:49:26Z</time>
      </trkpt>
      <trkpt lat="42.9754" lon="-0.01401">
        <ele>1430.2</ele>
        <time>2024-08-15T07:49:27Z</time>
      </trkpt>
      <trkpt lat="42.97542" lon="-0.014">
        <ele>1430.4</ele>
        <time>2024-08-15T07:49:28Z</time>
      </trkpt>
      <trkpt lat="42.97544" lon="-0.01398">
        <ele>1430.6</ele>
        <time>2024-08-15T07:49:29Z</time>
      </trkpt>
      <trkpt lat="42.97547" lon="-0.01397">
        <ele>1430.8</ele>
        <time>2024-08-15T07:49:30Z</time>
      </trkpt>
      <trkpt lat="42.97549" lon="-0.01395">
        <ele>1431</ele>
        <time>2024-08-15T07:49:31Z</time>
      </trkpt>
      <trkpt lat="42.97551" lon="-0.01394">
        <ele>1431.2</ele>
        <time>2024-08-15T07:49:32Z</time>
      </trkpt>
      <trkpt lat="42.97553" lon="-0.01392">
        <ele>1431.4</ele>
        <time>2024-08-15T07:49:33Z</time>
      </trkpt>
      <trkpt lat="42.97556" lon="-0.0139">
        <ele>1431.4</ele>
        <time>2024-08-15T07:49:34Z</time>
      </trkpt>
      <trkpt lat="42.97558" lon="-0.01389">
        <ele>1431.6</ele>
        <time>2024-08-15T07:49:35Z</time>
      </trkpt>
      <trkpt lat="42.97559" lon="-0.01387">
        <ele>1431.8</ele>
        <time>2024-08-15T07:49:36Z</time>
      </trkpt>
      <trkpt lat="42.97562" lon="-0.01385">
        <ele>1432</ele>
        <time>2024-08-15T07:49:37Z</time>
      </trkpt>
      <trkpt lat="42.97565" lon="-0.01384">
        <ele>1432.2</ele>
        <time>2024-08-15T07:49:38Z</time>
      </trkpt>
      <trkpt lat="42.97566" lon="-0.01383">
        <ele>1432.4</ele>
        <time>2024-08-15T07:49:39Z</time>
      </trkpt>
      <trkpt lat="42.97569" lon="-0.01381">
        <ele>1432.6</ele>
        <time>2024-08-15T07:49:40Z</time>
      </trkpt>
      <trkpt lat="42.97571" lon="-0.0138">
        <ele>1432.6</ele>
        <time>2024-08-15T07:49:41Z</time>
      </trkpt>
      <trkpt lat="42.97574" lon="-0.01378">
        <ele>1432.8</ele>
        <time>2024-08-15T07:49:42Z</time>
      </trkpt>
      <trkpt lat="42.97576" lon="-0.01376">
        <ele>1433</ele>
        <time>2024-08-15T07:49:43Z</time>
      </trkpt>
      <trkpt lat="42.97578" lon="-0.01375">
        <ele>1433.2</ele>
        <time>2024-08-15T07:49:44Z</time>
      </trkpt>
      <trkpt lat="42.9758" lon="-0.01374">
        <ele>1433.4</ele>
        <time>2024-08-15T07:49:45Z</time>
      </trkpt>
      <trkpt lat="42.97583" lon="-0.01372">
        <ele>1433.4</ele>
        <time>2024-08-15T07:49:46Z</time>
      </trkpt>
      <trkpt lat="42.97585" lon="-0.01371">
        <ele>1433.4</ele>
        <time>2024-08-15T07:49:47Z</time>
      </trkpt>
      <trkpt lat="42.97588" lon="-0.01369">
        <ele>1433.6</ele>
        <time>2024-08-15T07:49:48Z</time>
      </trkpt>
      <trkpt lat="42.9759" lon="-0.01367">
        <ele>1434</ele>
        <time>2024-08-15T07:49:49Z</time>
      </trkpt>
      <trkpt lat="42.97592" lon="-0.01366">
        <ele>1434.2</ele>
        <time>2024-08-15T07:49:50Z</time>
      </trkpt>
      <trkpt lat="42.97594" lon="-0.01364">
        <ele>1434.4</ele>
        <time>2024-08-15T07:49:51Z</time>
      </trkpt>
      <trkpt lat="42.97597" lon="-0.01362">
        <ele>1434.6</ele>
        <time>2024-08-15T07:49:52Z</time>
      </trkpt>
      <trkpt lat="42.97599" lon="-0.01361">
        <ele>1434.8</ele>
        <time>2024-08-15T07:49:53Z</time>
      </trkpt>
      <trkpt lat="42.97602" lon="-0.01359">
        <ele>1435</ele>
        <time>2024-08-15T07:49:54Z</time>
      </trkpt>
      <trkpt lat="42.97604" lon="-0.01357">
        <ele>1435.2</ele>
        <time>2024-08-15T07:49:55Z</time>
      </trkpt>
      <trkpt lat="42.97606" lon="-0.01356">
        <ele>1435.6</ele>
        <time>2024-08-15T07:49:56Z</time>
      </trkpt>
      <trkpt lat="42.97609" lon="-0.01354">
        <ele>1435.6</ele>
        <time>2024-08-15T07:49:57Z</time>
      </trkpt>
      <trkpt lat="42.97611" lon="-0.01352">
        <ele>1435.8</ele>
        <time>2024-08-15T07:49:58Z</time>
      </trkpt>
      <trkpt lat="42.97614" lon="-0.0135">
        <ele>1435.8</ele>
        <time>2024-08-15T07:49:59Z</time>
      </trkpt>
      <trkpt lat="42.97616" lon="-0.01349">
        <ele>1436.4</ele>
        <time>2024-08-15T07:50:00Z</time>
      </trkpt>
      <trkpt lat="42.97618" lon="-0.01347">
        <ele>1436.6</ele>
        <time>2024-08-15T07:50:01Z</time>
      </trkpt>
      <trkpt lat="42.9762" lon="-0.01345">
        <ele>1436.8</ele>
        <time>2024-08-15T07:50:02Z</time>
      </trkpt>
      <trkpt lat="42.97622" lon="-0.01343">
        <ele>1437</ele>
        <time>2024-08-15T07:50:03Z</time>
      </trkpt>
      <trkpt lat="42.97624" lon="-0.01342">
        <ele>1437</ele>
        <time>2024-08-15T07:50:04Z</time>
      </trkpt>
      <trkpt lat="42.97626" lon="-0.0134">
        <ele>1437.2</ele>
        <time>2024-08-15T07:50:05Z</time>
      </trkpt>
      <trkpt lat="42.97628" lon="-0.01338">
        <ele>1437.2</ele>
        <time>2024-08-15T07:50:06Z</time>
      </trkpt>
      <trkpt lat="42.97631" lon="-0.01336">
        <ele>1437.6</ele>
        <time>2024-08-15T07:50:07Z</time>
      </trkpt>
      <trkpt lat="42.97633" lon="-0.01334">
        <ele>1437.8</ele>
        <time>2024-08-15T07:50:08Z</time>
      </trkpt>
      <trkpt lat="42.97635" lon="-0.01333">
        <ele>1437.8</ele>
        <time>2024-08-15T07:50:09Z</time>
      </trkpt>
      <trkpt lat="42.97638" lon="-0.01331">
        <ele>1438.2</ele>
        <time>2024-08-15T07:50:10Z</time>
      </trkpt>
      <trkpt lat="42.9764" lon="-0.01329">
        <ele>1438.4</ele>
        <time>2024-08-15T07:50:11Z</time>
      </trkpt>
      <trkpt lat="42.97643" lon="-0.01327">
        <ele>1438.8</ele>
        <time>2024-08-15T07:50:12Z</time>
      </trkpt>
      <trkpt lat="42.97645" lon="-0.01326">
        <ele>1439</ele>
        <time>2024-08-15T07:50:13Z</time>
      </trkpt>
      <trkpt lat="42.97648" lon="-0.01324">
        <ele>1439.2</ele>
        <time>2024-08-15T07:50:14Z</time>
      </trkpt>
      <trkpt lat="42.9765" lon="-0.01323">
        <ele>1439.2</ele>
        <time>2024-08-15T07:50:15Z</time>
      </trkpt>
      <trkpt lat="42.97652" lon="-0.01322">
        <ele>1439.4</ele>
        <time>2024-08-15T07:50:16Z</time>
      </trkpt>
      <trkpt lat="42.97655" lon="-0.0132">
        <ele>1439.8</ele>
        <time>2024-08-15T07:50:17Z</time>
      </trkpt>
      <trkpt lat="42.97657" lon="-0.01318">
        <ele>1440</ele>
        <time>2024-08-15T07:50:18Z</time>
      </trkpt>
      <trkpt lat="42.97659" lon="-0.01317">
        <ele>1440.2</ele>
        <time>2024-08-15T07:50:19Z</time>
      </trkpt>
      <trkpt lat="42.97661" lon="-0.01316">
        <ele>1440.4</ele>
        <time>2024-08-15T07:50:20Z</time>
      </trkpt>
      <trkpt lat="42.97664" lon="-0.01314">
        <ele>1440.6</ele>
        <time>2024-08-15T07:50:21Z</time>
      </trkpt>
      <trkpt lat="42.97666" lon="-0.01313">
        <ele>1440.8</ele>
        <time>2024-08-15T07:50:22Z</time>
      </trkpt>
      <trkpt lat="42.97668" lon="-0.01311">
        <ele>1441.2</ele>
        <time>2024-08-15T07:50:23Z</time>
      </trkpt>
      <trkpt lat="42.97671" lon="-0.0131">
        <ele>1441.4</ele>
        <time>2024-08-15T07:50:24Z</time>
      </trkpt>
      <trkpt lat="42.97673" lon="-0.01308">
        <ele>1441.6</ele>
        <time>2024-08-15T07:50:25Z</time>
      </trkpt>
      <trkpt lat="42.97675" lon="-0.01307">
        <ele>1441.8</ele>
        <time>2024-08-15T07:50:26Z</time>
      </trkpt>
      <trkpt lat="42.97677" lon="-0.01305">
        <ele>1442</ele>
        <time>2024-08-15T07:50:27Z</time>
      </trkpt>
      <trkpt lat="42.9768" lon="-0.01304">
        <ele>1442.2</ele>
        <time>2024-08-15T07:50:28Z</time>
      </trkpt>
      <trkpt lat="42.97682" lon="-0.01302">
        <ele>1442.4</ele>
        <time>2024-08-15T07:50:29Z</time>
      </trkpt>
      <trkpt lat="42.97684" lon="-0.013">
        <ele>1442.6</ele>
        <time>2024-08-15T07:50:30Z</time>
      </trkpt>
      <trkpt lat="42.97686" lon="-0.01298">
        <ele>1442.6</ele>
        <time>2024-08-15T07:50:31Z</time>
      </trkpt>
      <trkpt lat="42.97688" lon="-0.01297">
        <ele>1442.8</ele>
        <time>2024-08-15T07:50:32Z</time>
      </trkpt>
      <trkpt lat="42.9769" lon="-0.01295">
        <ele>1443</ele>
        <time>2024-08-15T07:50:33Z</time>
      </trkpt>
      <trkpt lat="42.97692" lon="-0.01292">
        <ele>1443.2</ele>
        <time>2024-08-15T07:50:34Z</time>
      </trkpt>
      <trkpt lat="42.97694" lon="-0.0129">
        <ele>1443.6</ele>
        <time>2024-08-15T07:50:35Z</time>
      </trkpt>
      <trkpt lat="42.97696" lon="-0.01288">
        <ele>1443.6</ele>
        <time>2024-08-15T07:50:36Z</time>
      </trkpt>
      <trkpt lat="42.97698" lon="-0.01286">
        <ele>1444</ele>
        <time>2024-08-15T07:50:37Z</time>
      </trkpt>
      <trkpt lat="42.977" lon="-0.01284">
        <ele>1444.4</ele>
        <time>2024-08-15T07:50:38Z</time>
      </trkpt>
      <trkpt lat="42.97701" lon="-0.01282">
        <ele>1444.6</ele>
        <time>2024-08-15T07:50:39Z</time>
      </trkpt>
      <trkpt lat="42.97703" lon="-0.01279">
        <ele>1445</ele>
        <time>2024-08-15T07:50:40Z</time>
      </trkpt>
      <trkpt lat="42.97705" lon="-0.01277">
        <ele>1445</ele>
        <time>2024-08-15T07:50:41Z</time>
      </trkpt>
      <trkpt lat="42.97707" lon="-0.01275">
        <ele>1445.2</ele>
        <time>2024-08-15T07:50:42Z</time>
      </trkpt>
      <trkpt lat="42.97709" lon="-0.01272">
        <ele>1445.4</ele>
        <time>2024-08-15T07:50:43Z</time>
      </trkpt>
      <trkpt lat="42.9771" lon="-0.0127">
        <ele>1445.6</ele>
        <time>2024-08-15T07:50:44Z</time>
      </trkpt>
      <trkpt lat="42.97712" lon="-0.01267">
        <ele>1445.8</ele>
        <time>2024-08-15T07:50:45Z</time>
      </trkpt>
      <trkpt lat="42.97714" lon="-0.01264">
        <ele>1446</ele>
        <time>2024-08-15T07:50:46Z</time>
      </trkpt>
      <trkpt lat="42.97715" lon="-0.01262">
        <ele>1446.2</ele>
        <time>2024-08-15T07:50:47Z</time>
      </trkpt>
      <trkpt lat="42.97717" lon="-0.0126">
        <ele>1446.4</ele>
        <time>2024-08-15T07:50:48Z</time>
      </trkpt>
      <trkpt lat="42.97719" lon="-0.01257">
        <ele>1446.8</ele>
        <time>2024-08-15T07:50:49Z</time>
      </trkpt>
      <trkpt lat="42.9772" lon="-0.01254">
        <ele>1447</ele>
        <time>2024-08-15T07:50:50Z</time>
      </trkpt>
      <trkpt lat="42.97721" lon="-0.01252">
        <ele>1447.4</ele>
        <time>2024-08-15T07:50:51Z</time>
      </trkpt>
      <trkpt lat="42.97723" lon="-0.01249">
        <ele>1447.4</ele>
        <time>2024-08-15T07:50:52Z</time>
      </trkpt>
      <trkpt lat="42.97724" lon="-0.01246">
        <ele>1447.6</ele>
        <time>2024-08-15T07:50:53Z</time>
      </trkpt>
      <trkpt lat="42.97726" lon="-0.01243">
        <ele>1448</ele>
        <time>2024-08-15T07:50:54Z</time>
      </trkpt>
      <trkpt lat="42.97727" lon="-0.01241">
        <ele>1447.8</ele>
        <time>2024-08-15T07:50:55Z</time>
      </trkpt>
      <trkpt lat="42.97728" lon="-0.01238">
        <ele>1448.2</ele>
        <time>2024-08-15T07:50:56Z</time>
      </trkpt>
      <trkpt lat="42.97729" lon="-0.01235">
        <ele>1448.6</ele>
        <time>2024-08-15T07:50:57Z</time>
      </trkpt>
      <trkpt lat="42.97731" lon="-0.01232">
        <ele>1448.8</ele>
        <time>2024-08-15T07:50:58Z</time>
      </trkpt>
      <trkpt lat="42.97732" lon="-0.01229">
        <ele>1449</ele>
        <time>2024-08-15T07:50:59Z</time>
      </trkpt>
      <trkpt lat="42.97733" lon="-0.01226">
        <ele>1449</ele>
        <time>2024-08-15T07:51:00Z</time>
      </trkpt>
      <trkpt lat="42.97734" lon="-0.01223">
        <ele>1449.4</ele>
        <time>2024-08-15T07:51:01Z</time>
      </trkpt>
      <trkpt lat="42.97735" lon="-0.0122">
        <ele>1449.4</ele>
        <time>2024-08-15T07:51:02Z</time>
      </trkpt>
      <trkpt lat="42.97735" lon="-0.01217">
        <ele>1449.8</ele>
        <time>2024-08-15T07:51:03Z</time>
      </trkpt>
      <trkpt lat="42.97736" lon="-0.01214">
        <ele>1450</ele>
        <time>2024-08-15T07:51:04Z</time>
      </trkpt>
      <trkpt lat="42.97737" lon="-0.0121">
        <ele>1450.2</ele>
        <time>2024-08-15T07:51:05Z</time>
      </trkpt>
      <trkpt lat="42.97737" lon="-0.01208">
        <ele>1450.4</ele>
        <time>2024-08-15T07:51:06Z</time>
      </trkpt>
      <trkpt lat="42.97737" lon="-0.01204">
        <ele>1450.8</ele>
        <time>2024-08-15T07:51:07Z</time>
      </trkpt>
      <trkpt lat="42.97737" lon="-0.01201">
        <ele>1450.8</ele>
        <time>2024-08-15T07:51:08Z</time>
      </trkpt>
      <trkpt lat="42.97736" lon="-0.01198">
        <ele>1451.2</ele>
        <time>2024-08-15T07:51:09Z</time>
      </trkpt>
      <trkpt lat="42.97736" lon="-0.01194">
        <ele>1451.4</ele>
        <time>2024-08-15T07:51:10Z</time>
      </trkpt>
      <trkpt lat="42.97735" lon="-0.01192">
        <ele>1451.6</ele>
        <time>2024-08-15T07:51:11Z</time>
      </trkpt>
      <trkpt lat="42.97734" lon="-0.01188">
        <ele>1451.8</ele>
        <time>2024-08-15T07:51:12Z</time>
      </trkpt>
      <trkpt lat="42.97733" lon="-0.01185">
        <ele>1452</ele>
        <time>2024-08-15T07:51:13Z</time>
      </trkpt>
      <trkpt lat="42.97732" lon="-0.01183">
        <ele>1452.4</ele>
        <time>2024-08-15T07:51:14Z</time>
      </trkpt>
      <trkpt lat="42.97731" lon="-0.0118">
        <ele>1452.6</ele>
        <time>2024-08-15T07:51:15Z</time>
      </trkpt>
      <trkpt lat="42.9773" lon="-0.01177">
        <ele>1452.8</ele>
        <time>2024-08-15T07:51:16Z</time>
      </trkpt>
      <trkpt lat="42.97728" lon="-0.01174">
        <ele>1453</ele>
        <time>2024-08-15T07:51:17Z</time>
      </trkpt>
      <trkpt lat="42.97727" lon="-0.01171">
        <ele>1453.2</ele>
        <time>2024-08-15T07:51:18Z</time>
      </trkpt>
      <trkpt lat="42.97726" lon="-0.01169">
        <ele>1453.6</ele>
        <time>2024-08-15T07:51:19Z</time>
      </trkpt>
      <trkpt lat="42.97725" lon="-0.01167">
        <ele>1453.6</ele>
        <time>2024-08-15T07:51:20Z</time>
      </trkpt>
      <trkpt lat="42.97724" lon="-0.01164">
        <ele>1454</ele>
        <time>2024-08-15T07:51:21Z</time>
      </trkpt>
      <trkpt lat="42.97723" lon="-0.01161">
        <ele>1454.2</ele>
        <time>2024-08-15T07:51:22Z</time>
      </trkpt>
      <trkpt lat="42.97721" lon="-0.01158">
        <ele>1454.4</ele>
        <time>2024-08-15T07:51:23Z</time>
      </trkpt>
      <trkpt lat="42.9772" lon="-0.01156">
        <ele>1454.6</ele>
        <time>2024-08-15T07:51:24Z</time>
      </trkpt>
      <trkpt lat="42.97719" lon="-0.01153">
        <ele>1454.8</ele>
        <time>2024-08-15T07:51:25Z</time>
      </trkpt>
      <trkpt lat="42.97718" lon="-0.01151">
        <ele>1455</ele>
        <time>2024-08-15T07:51:26Z</time>
      </trkpt>
      <trkpt lat="42.97717" lon="-0.01148">
        <ele>1455.2</ele>
        <time>2024-08-15T07:51:27Z</time>
      </trkpt>
      <trkpt lat="42.97715" lon="-0.01145">
        <ele>1455.4</ele>
        <time>2024-08-15T07:51:28Z</time>
      </trkpt>
      <trkpt lat="42.97714" lon="-0.01143">
        <ele>1455.6</ele>
        <time>2024-08-15T07:51:29Z</time>
      </trkpt>
      <trkpt lat="42.97713" lon="-0.0114">
        <ele>1455.8</ele>
        <time>2024-08-15T07:51:30Z</time>
      </trkpt>
      <trkpt lat="42.97712" lon="-0.01137">
        <ele>1456</ele>
        <time>2024-08-15T07:51:31Z</time>
      </trkpt>
      <trkpt lat="42.97711" lon="-0.01135">
        <ele>1456.2</ele>
        <time>2024-08-15T07:51:32Z</time>
      </trkpt>
      <trkpt lat="42.9771" lon="-0.01132">
        <ele>1456.6</ele>
        <time>2024-08-15T07:51:33Z</time>
      </trkpt>
      <trkpt lat="42.9771" lon="-0.01129">
        <ele>1456.8</ele>
        <time>2024-08-15T07:51:34Z</time>
      </trkpt>
      <trkpt lat="42.97709" lon="-0.01127">
        <ele>1457.2</ele>
        <time>2024-08-15T07:51:35Z</time>
      </trkpt>
      <trkpt lat="42.97708" lon="-0.01123">
        <ele>1457.2</ele>
        <time>2024-08-15T07:51:36Z</time>
      </trkpt>
      <trkpt lat="42.97707" lon="-0.0112">
        <ele>1457.6</ele>
        <time>2024-08-15T07:51:37Z</time>
      </trkpt>
      <trkpt lat="42.97706" lon="-0.01116">
        <ele>1457.6</ele>
        <time>2024-08-15T07:51:38Z</time>
      </trkpt>
      <trkpt lat="42.97705" lon="-0.01114">
        <ele>1458</ele>
        <time>2024-08-15T07:51:39Z</time>
      </trkpt>
      <trkpt lat="42.97704" lon="-0.01111">
        <ele>1458</ele>
        <time>2024-08-15T07:51:40Z</time>
      </trkpt>
      <trkpt lat="42.97703" lon="-0.01107">
        <ele>1458.2</ele>
        <time>2024-08-15T07:51:41Z</time>
      </trkpt>
      <trkpt lat="42.97703" lon="-0.01104">
        <ele>1458.6</ele>
        <time>2024-08-15T07:51:42Z</time>
      </trkpt>
      <trkpt lat="42.97702" lon="-0.01101">
        <ele>1458.8</ele>
        <time>2024-08-15T07:51:43Z</time>
      </trkpt>
      <trkpt lat="42.97702" lon="-0.01098">
        <ele>1459</ele>
        <time>2024-08-15T07:51:44Z</time>
      </trkpt>
      <trkpt lat="42.97701" lon="-0.01094">
        <ele>1459.4</ele>
        <time>2024-08-15T07:51:45Z</time>
      </trkpt>
      <trkpt lat="42.977" lon="-0.01091">
        <ele>1459.8</ele>
        <time>2024-08-15T07:51:46Z</time>
      </trkpt>
      <trkpt lat="42.977" lon="-0.01089">
        <ele>1460</ele>
        <time>2024-08-15T07:51:47Z</time>
      </trkpt>
      <trkpt lat="42.97699" lon="-0.01085">
        <ele>1460.2</ele>
        <time>2024-08-15T07:51:48Z</time>
      </trkpt>
      <trkpt lat="42.97698" lon="-0.01082">
        <ele>1460.6</ele>
        <time>2024-08-15T07:51:49Z</time>
      </trkpt>
      <trkpt lat="42.97698" lon="-0.01079">
        <ele>1460.8</ele>
        <time>2024-08-15T07:51:50Z</time>
      </trkpt>
      <trkpt lat="42.97697" lon="-0.01076">
        <ele>1461.2</ele>
        <time>2024-08-15T07:51:51Z</time>
      </trkpt>
      <trkpt lat="42.97696" lon="-0.01073">
        <ele>1461.2</ele>
        <time>2024-08-15T07:51:52Z</time>
      </trkpt>
      <trkpt lat="42.97695" lon="-0.0107">
        <ele>1461.4</ele>
        <time>2024-08-15T07:51:53Z</time>
      </trkpt>
      <trkpt lat="42.97695" lon="-0.01068">
        <ele>1461.6</ele>
        <time>2024-08-15T07:51:54Z</time>
      </trkpt>
      <trkpt lat="42.97694" lon="-0.01065">
        <ele>1461.8</ele>
        <time>2024-08-15T07:51:55Z</time>
      </trkpt>
      <trkpt lat="42.97693" lon="-0.01061">
        <ele>1462.2</ele>
        <time>2024-08-15T07:51:56Z</time>
      </trkpt>
      <trkpt lat="42.97692" lon="-0.01059">
        <ele>1462.4</ele>
        <time>2024-08-15T07:51:57Z</time>
      </trkpt>
      <trkpt lat="42.97692" lon="-0.01056">
        <ele>1462.8</ele>
        <time>2024-08-15T07:51:58Z</time>
      </trkpt>
      <trkpt lat="42.97691" lon="-0.01053">
        <ele>1463</ele>
        <time>2024-08-15T07:51:59Z</time>
      </trkpt>
      <trkpt lat="42.97691" lon="-0.0105">
        <ele>1463.2</ele>
        <time>2024-08-15T07:52:00Z</time>
      </trkpt>
      <trkpt lat="42.9769" lon="-0.01047">
        <ele>1463.4</ele>
        <time>2024-08-15T07:52:01Z</time>
      </trkpt>
      <trkpt lat="42.97689" lon="-0.01044">
        <ele>1463.8</ele>
        <time>2024-08-15T07:52:02Z</time>
      </trkpt>
      <trkpt lat="42.97689" lon="-0.0104">
        <ele>1464</ele>
        <time>2024-08-15T07:52:03Z</time>
      </trkpt>
      <trkpt lat="42.97688" lon="-0.01038">
        <ele>1464.2</ele>
        <time>2024-08-15T07:52:04Z</time>
      </trkpt>
      <trkpt lat="42.97688" lon="-0.01035">
        <ele>1464.6</ele>
        <time>2024-08-15T07:52:05Z</time>
      </trkpt>
      <trkpt lat="42.97687" lon="-0.01031">
        <ele>1464.8</ele>
        <time>2024-08-15T07:52:06Z</time>
      </trkpt>
      <trkpt lat="42.97686" lon="-0.01029">
        <ele>1465</ele>
        <time>2024-08-15T07:52:07Z</time>
      </trkpt>
      <trkpt lat="42.97685" lon="-0.01026">
        <ele>1465.2</ele>
        <time>2024-08-15T07:52:08Z</time>
      </trkpt>
      <trkpt lat="42.97685" lon="-0.01024">
        <ele>1465.4</ele>
        <time>2024-08-15T07:52:09Z</time>
      </trkpt>
      <trkpt lat="42.97684" lon="-0.01022">
        <ele>1465.6</ele>
        <time>2024-08-15T07:52:10Z</time>
      </trkpt>
      <trkpt lat="42.97683" lon="-0.01019">
        <ele>1466</ele>
        <time>2024-08-15T07:52:11Z</time>
      </trkpt>
      <trkpt lat="42.97681" lon="-0.01016">
        <ele>1466.2</ele>
        <time>2024-08-15T07:52:12Z</time>
      </trkpt>
      <trkpt lat="42.9768" lon="-0.01014">
        <ele>1466.4</ele>
        <time>2024-08-15T07:52:13Z</time>
      </trkpt>
      <trkpt lat="42.97679" lon="-0.01012">
        <ele>1466.8</ele>
        <time>2024-08-15T07:52:14Z</time>
      </trkpt>
      <trkpt lat="42.97678" lon="-0.01009">
        <ele>1466.8</ele>
        <time>2024-08-15T07:52:15Z</time>
      </trkpt>
      <trkpt lat="42.97677" lon="-0.01007">
        <ele>1467.2</ele>
        <time>2024-08-15T07:52:16Z</time>
      </trkpt>
      <trkpt lat="42.97676" lon="-0.01004">
        <ele>1467.4</ele>
        <time>2024-08-15T07:52:17Z</time>
      </trkpt>
      <trkpt lat="42.97674" lon="-0.01002">
        <ele>1467.6</ele>
        <time>2024-08-15T07:52:18Z</time>
      </trkpt>
      <trkpt lat="42.97673" lon="-0.00999">
        <ele>1467.8</ele>
        <time>2024-08-15T07:52:19Z</time>
      </trkpt>
      <trkpt lat="42.97672" lon="-0.00997">
        <ele>1468</ele>
        <time>2024-08-15T07:52:20Z</time>
      </trkpt>
      <trkpt lat="42.9767" lon="-0.00994">
        <ele>1468.2</ele>
        <time>2024-08-15T07:52:21Z</time>
      </trkpt>
      <trkpt lat="42.97669" lon="-0.00992">
        <ele>1468.2</ele>
        <time>2024-08-15T07:52:22Z</time>
      </trkpt>
      <trkpt lat="42.97667" lon="-0.0099">
        <ele>1468.6</ele>
        <time>2024-08-15T07:52:23Z</time>
      </trkpt>
      <trkpt lat="42.97666" lon="-0.00987">
        <ele>1468.6</ele>
        <time>2024-08-15T07:52:24Z</time>
      </trkpt>
      <trkpt lat="42.97665" lon="-0.00984">
        <ele>1469</ele>
        <time>2024-08-15T07:52:25Z</time>
      </trkpt>
      <trkpt lat="42.97664" lon="-0.00981">
        <ele>1469</ele>
        <time>2024-08-15T07:52:26Z</time>
      </trkpt>
      <trkpt lat="42.97663" lon="-0.00978">
        <ele>1469.2</ele>
        <time>2024-08-15T07:52:27Z</time>
      </trkpt>
      <trkpt lat="42.97662" lon="-0.00974">
        <ele>1469.4</ele>
        <time>2024-08-15T07:52:28Z</time>
      </trkpt>
      <trkpt lat="42.97661" lon="-0.00971">
        <ele>1469.4</ele>
        <time>2024-08-15T07:52:29Z</time>
      </trkpt>
      <trkpt lat="42.9766" lon="-0.00969">
        <ele>1469.6</ele>
        <time>2024-08-15T07:52:30Z</time>
      </trkpt>
      <trkpt lat="42.9766" lon="-0.00965">
        <ele>1469.8</ele>
        <time>2024-08-15T07:52:31Z</time>
      </trkpt>
      <trkpt lat="42.97659" lon="-0.00962">
        <ele>1470</ele>
        <time>2024-08-15T07:52:32Z</time>
      </trkpt>
      <trkpt lat="42.97659" lon="-0.00958">
        <ele>1470</ele>
        <time>2024-08-15T07:52:33Z</time>
      </trkpt>
      <trkpt lat="42.9766" lon="-0.00955">
        <ele>1470.2</ele>
        <time>2024-08-15T07:52:34Z</time>
      </trkpt>
      <trkpt lat="42.9766" lon="-0.00952">
        <ele>1470.2</ele>
        <time>2024-08-15T07:52:35Z</time>
      </trkpt>
      <trkpt lat="42.97661" lon="-0.00948">
        <ele>1470</ele>
        <time>2024-08-15T07:52:36Z</time>
      </trkpt>
      <trkpt lat="42.97662" lon="-0.00945">
        <ele>1470.2</ele>
        <time>2024-08-15T07:52:37Z</time>
      </trkpt>
      <trkpt lat="42.97663" lon="-0.00942">
        <ele>1470.4</ele>
        <time>2024-08-15T07:52:38Z</time>
      </trkpt>
      <trkpt lat="42.97664" lon="-0.00939">
        <ele>1470.4</ele>
        <time>2024-08-15T07:52:39Z</time>
      </trkpt>
      <trkpt lat="42.97666" lon="-0.00936">
        <ele>1470.4</ele>
        <time>2024-08-15T07:52:40Z</time>
      </trkpt>
      <trkpt lat="42.97667" lon="-0.00933">
        <ele>1470.6</ele>
        <time>2024-08-15T07:52:41Z</time>
      </trkpt>
      <trkpt lat="42.97669" lon="-0.00931">
        <ele>1470.6</ele>
        <time>2024-08-15T07:52:42Z</time>
      </trkpt>
      <trkpt lat="42.97671" lon="-0.00929">
        <ele>1470.8</ele>
        <time>2024-08-15T07:52:43Z</time>
      </trkpt>
      <trkpt lat="42.97672" lon="-0.00927">
        <ele>1471</ele>
        <time>2024-08-15T07:52:44Z</time>
      </trkpt>
      <trkpt lat="42.97674" lon="-0.00926">
        <ele>1471</ele>
        <time>2024-08-15T07:52:45Z</time>
      </trkpt>
      <trkpt lat="42.97676" lon="-0.00924">
        <ele>1471.2</ele>
        <time>2024-08-15T07:52:46Z</time>
      </trkpt>
      <trkpt lat="42.97679" lon="-0.00922">
        <ele>1471.4</ele>
        <time>2024-08-15T07:52:47Z</time>
      </trkpt>
      <trkpt lat="42.97681" lon="-0.0092">
        <ele>1471.6</ele>
        <time>2024-08-15T07:52:48Z</time>
      </trkpt>
      <trkpt lat="42.97682" lon="-0.00918">
        <ele>1471.6</ele>
        <time>2024-08-15T07:52:49Z</time>
      </trkpt>
      <trkpt lat="42.97684" lon="-0.00916">
        <ele>1472</ele>
        <time>2024-08-15T07:52:50Z</time>
      </trkpt>
      <trkpt lat="42.97686" lon="-0.00914">
        <ele>1472.2</ele>
        <time>2024-08-15T07:52:51Z</time>
      </trkpt>
      <trkpt lat="42.97688" lon="-0.00913">
        <ele>1472.2</ele>
        <time>2024-08-15T07:52:52Z</time>
      </trkpt>
      <trkpt lat="42.9769" lon="-0.00911">
        <ele>1472.4</ele>
        <time>2024-08-15T07:52:53Z</time>
      </trkpt>
      <trkpt lat="42.97691" lon="-0.00909">
        <ele>1472.6</ele>
        <time>2024-08-15T07:52:54Z</time>
      </trkpt>
      <trkpt lat="42.97693" lon="-0.00908">
        <ele>1472.8</ele>
        <time>2024-08-15T07:52:55Z</time>
      </trkpt>
      <trkpt lat="42.97695" lon="-0.00906">
        <ele>1473</ele>
        <time>2024-08-15T07:52:56Z</time>
      </trkpt>
      <trkpt lat="42.97697" lon="-0.00903">
        <ele>1473.2</ele>
        <time>2024-08-15T07:52:57Z</time>
      </trkpt>
      <trkpt lat="42.97699" lon="-0.00901">
        <ele>1473.2</ele>
        <time>2024-08-15T07:52:58Z</time>
      </trkpt>
      <trkpt lat="42.977" lon="-0.00899">
        <ele>1473.4</ele>
        <time>2024-08-15T07:52:59Z</time>
      </trkpt>
      <trkpt lat="42.97701" lon="-0.00897">
        <ele>1473.6</ele>
        <time>2024-08-15T07:53:00Z</time>
      </trkpt>
      <trkpt lat="42.97702" lon="-0.00894">
        <ele>1473.8</ele>
        <time>2024-08-15T07:53:01Z</time>
      </trkpt>
      <trkpt lat="42.97703" lon="-0.00891">
        <ele>1474</ele>
        <time>2024-08-15T07:53:02Z</time>
      </trkpt>
      <trkpt lat="42.97704" lon="-0.00888">
        <ele>1474</ele>
        <time>2024-08-15T07:53:03Z</time>
      </trkpt>
      <trkpt lat="42.97705" lon="-0.00886">
        <ele>1474.2</ele>
        <time>2024-08-15T07:53:04Z</time>
      </trkpt>
      <trkpt lat="42.97705" lon="-0.00883">
        <ele>1474.4</ele>
        <time>2024-08-15T07:53:05Z</time>
      </trkpt>
      <trkpt lat="42.97705" lon="-0.00879">
        <ele>1474.6</ele>
        <time>2024-08-15T07:53:06Z</time>
      </trkpt>
      <trkpt lat="42.97704" lon="-0.00877">
        <ele>1474.8</ele>
        <time>2024-08-15T07:53:07Z</time>
      </trkpt>
      <trkpt lat="42.97703" lon="-0.00873">
        <ele>1475</ele>
        <time>2024-08-15T07:53:08Z</time>
      </trkpt>
      <trkpt lat="42.97702" lon="-0.0087">
        <ele>1475.2</ele>
        <time>2024-08-15T07:53:09Z</time>
      </trkpt>
      <trkpt lat="42.977" lon="-0.00867">
        <ele>1475.4</ele>
        <time>2024-08-15T07:53:10Z</time>
      </trkpt>
      <trkpt lat="42.97698" lon="-0.00864">
        <ele>1475.6</ele>
        <time>2024-08-15T07:53:11Z</time>
      </trkpt>
      <trkpt lat="42.97696" lon="-0.00863">
        <ele>1475.8</ele>
        <time>2024-08-15T07:53:12Z</time>
      </trkpt>
      <trkpt lat="42.97694" lon="-0.00861">
        <ele>1476.2</ele>
        <time>2024-08-15T07:53:13Z</time>
      </trkpt>
      <trkpt lat="42.97692" lon="-0.0086">
        <ele>1476.6</ele>
        <time>2024-08-15T07:53:14Z</time>
      </trkpt>
      <trkpt lat="42.97689" lon="-0.00859">
        <ele>1476.8</ele>
        <time>2024-08-15T07:53:15Z</time>
      </trkpt>
      <trkpt lat="42.97687" lon="-0.00857">
        <ele>1477.4</ele>
        <time>2024-08-15T07:53:16Z</time>
      </trkpt>
      <trkpt lat="42.97684" lon="-0.00856">
        <ele>1477.6</ele>
        <time>2024-08-15T07:53:17Z</time>
      </trkpt>
      <trkpt lat="42.97682" lon="-0.00855">
        <ele>1478</ele>
        <time>2024-08-15T07:53:18Z</time>
      </trkpt>
      <trkpt lat="42.9768" lon="-0.00855">
        <ele>1478</ele>
        <time>2024-08-15T07:53:19Z</time>
      </trkpt>
      <trkpt lat="42.97678" lon="-0.00854">
        <ele>1478.4</ele>
        <time>2024-08-15T07:53:20Z</time>
      </trkpt>
      <trkpt lat="42.97675" lon="-0.00854">
        <ele>1478.6</ele>
        <time>2024-08-15T07:53:21Z</time>
      </trkpt>
      <trkpt lat="42.97672" lon="-0.00853">
        <ele>1479.2</ele>
        <time>2024-08-15T07:53:22Z</time>
      </trkpt>
      <trkpt lat="42.9767" lon="-0.00852">
        <ele>1479.6</ele>
        <time>2024-08-15T07:53:23Z</time>
      </trkpt>
      <trkpt lat="42.97668" lon="-0.00852">
        <ele>1479.6</ele>
        <time>2024-08-15T07:53:24Z</time>
      </trkpt>
      <trkpt lat="42.97665" lon="-0.00852">
        <ele>1480</ele>
        <time>2024-08-15T07:53:25Z</time>
      </trkpt>
      <trkpt lat="42.97662" lon="-0.00851">
        <ele>1480</ele>
        <time>2024-08-15T07:53:26Z</time>
      </trkpt>
      <trkpt lat="42.9766" lon="-0.00851">
        <ele>1480.2</ele>
        <time>2024-08-15T07:53:27Z</time>
      </trkpt>
      <trkpt lat="42.97657" lon="-0.00851">
        <ele>1480.2</ele>
        <time>2024-08-15T07:53:28Z</time>
      </trkpt>
      <trkpt lat="42.97654" lon="-0.00851">
        <ele>1480.6</ele>
        <time>2024-08-15T07:53:29Z</time>
      </trkpt>
      <trkpt lat="42.97652" lon="-0.00851">
        <ele>1480.8</ele>
        <time>2024-08-15T07:53:30Z</time>
      </trkpt>
      <trkpt lat="42.97649" lon="-0.00851">
        <ele>1480.8</ele>
        <time>2024-08-15T07:53:31Z</time>
      </trkpt>
      <trkpt lat="42.97647" lon="-0.00852">
        <ele>1481.2</ele>
        <time>2024-08-15T07:53:32Z</time>
      </trkpt>
      <trkpt lat="42.97644" lon="-0.00853">
        <ele>1481.2</ele>
        <time>2024-08-15T07:53:33Z</time>
      </trkpt>
      <trkpt lat="42.97642" lon="-0.00854">
        <ele>1481.4</ele>
        <time>2024-08-15T07:53:34Z</time>
      </trkpt>
      <trkpt lat="42.9764" lon="-0.00856">
        <ele>1481.4</ele>
        <time>2024-08-15T07:53:35Z</time>
      </trkpt>
      <trkpt lat="42.97638" lon="-0.00859">
        <ele>1481.6</ele>
        <time>2024-08-15T07:53:36Z</time>
      </trkpt>
      <trkpt lat="42.97636" lon="-0.00862">
        <ele>1481.8</ele>
        <time>2024-08-15T07:53:37Z</time>
      </trkpt>
      <trkpt lat="42.97634" lon="-0.00865">
        <ele>1481.8</ele>
        <time>2024-08-15T07:53:38Z</time>
      </trkpt>
      <trkpt lat="42.97633" lon="-0.00869">
        <ele>1482</ele>
        <time>2024-08-15T07:53:39Z</time>
      </trkpt>
      <trkpt lat="42.97632" lon="-0.00871">
        <ele>1482.2</ele>
        <time>2024-08-15T07:53:40Z</time>
      </trkpt>
      <trkpt lat="42.97632" lon="-0.00875">
        <ele>1482.4</ele>
        <time>2024-08-15T07:53:41Z</time>
      </trkpt>
      <trkpt lat="42.97631" lon="-0.00879">
        <ele>1482.4</ele>
        <time>2024-08-15T07:53:42Z</time>
      </trkpt>
      <trkpt lat="42.9763" lon="-0.00883">
        <ele>1482.6</ele>
        <time>2024-08-15T07:53:43Z</time>
      </trkpt>
      <trkpt lat="42.9763" lon="-0.00886">
        <ele>1482.6</ele>
        <time>2024-08-15T07:53:44Z</time>
      </trkpt>
      <trkpt lat="42.97629" lon="-0.0089">
        <ele>1482.8</ele>
        <time>2024-08-15T07:53:45Z</time>
      </trkpt>
      <trkpt lat="42.97629" lon="-0.00893">
        <ele>1483</ele>
        <time>2024-08-15T07:53:46Z</time>
      </trkpt>
      <trkpt lat="42.97629" lon="-0.00897">
        <ele>1483</ele>
        <time>2024-08-15T07:53:47Z</time>
      </trkpt>
      <trkpt lat="42.97629" lon="-0.009">
        <ele>1483.4</ele>
        <time>2024-08-15T07:53:48Z</time>
      </trkpt>
      <trkpt lat="42.97629" lon="-0.00905">
        <ele>1483.4</ele>
        <time>2024-08-15T07:53:49Z</time>
      </trkpt>
      <trkpt lat="42.97629" lon="-0.00908">
        <ele>1483.8</ele>
        <time>2024-08-15T07:53:50Z</time>
      </trkpt>
      <trkpt lat="42.97629" lon="-0.00912">
        <ele>1483.8</ele>
        <time>2024-08-15T07:53:51Z</time>
      </trkpt>
      <trkpt lat="42.97629" lon="-0.00915">
        <ele>1484</ele>
        <time>2024-08-15T07:53:52Z</time>
      </trkpt>
      <trkpt lat="42.97629" lon="-0.00919">
        <ele>1484.2</ele>
        <time>2024-08-15T07:53:53Z</time>
      </trkpt>
      <trkpt lat="42.97629" lon="-0.00924">
        <ele>1484.4</ele>
        <time>2024-08-15T07:53:54Z</time>
      </trkpt>
      <trkpt lat="42.97629" lon="-0.00927">
        <ele>1484.6</ele>
        <time>2024-08-15T07:53:55Z</time>
      </trkpt>
      <trkpt lat="42.97629" lon="-0.00931">
        <ele>1484.8</ele>
        <time>2024-08-15T07:53:56Z</time>
      </trkpt>
      <trkpt lat="42.97629" lon="-0.00934">
        <ele>1485</ele>
        <time>2024-08-15T07:53:57Z</time>
      </trkpt>
      <trkpt lat="42.97629" lon="-0.00938">
        <ele>1485.2</ele>
        <time>2024-08-15T07:53:58Z</time>
      </trkpt>
      <trkpt lat="42.97629" lon="-0.00942">
        <ele>1485.6</ele>
        <time>2024-08-15T07:53:59Z</time>
      </trkpt>
      <trkpt lat="42.97628" lon="-0.00945">
        <ele>1486</ele>
        <time>2024-08-15T07:54:00Z</time>
      </trkpt>
      <trkpt lat="42.97628" lon="-0.00949">
        <ele>1486</ele>
        <time>2024-08-15T07:54:01Z</time>
      </trkpt>
      <trkpt lat="42.97628" lon="-0.00953">
        <ele>1486.2</ele>
        <time>2024-08-15T07:54:02Z</time>
      </trkpt>
      <trkpt lat="42.97628" lon="-0.00957">
        <ele>1486.4</ele>
        <time>2024-08-15T07:54:03Z</time>
      </trkpt>
      <trkpt lat="42.97628" lon="-0.00961">
        <ele>1486.8</ele>
        <time>2024-08-15T07:54:04Z</time>
      </trkpt>
      <trkpt lat="42.97628" lon="-0.00965">
        <ele>1486.8</ele>
        <time>2024-08-15T07:54:05Z</time>
      </trkpt>
      <trkpt lat="42.97628" lon="-0.00969">
        <ele>1487</ele>
        <time>2024-08-15T07:54:06Z</time>
      </trkpt>
      <trkpt lat="42.97628" lon="-0.00974">
        <ele>1487.2</ele>
        <time>2024-08-15T07:54:07Z</time>
      </trkpt>
      <trkpt lat="42.97627" lon="-0.00978">
        <ele>1487.6</ele>
        <time>2024-08-15T07:54:08Z</time>
      </trkpt>
      <trkpt lat="42.97628" lon="-0.00983">
        <ele>1487.8</ele>
        <time>2024-08-15T07:54:09Z</time>
      </trkpt>
      <trkpt lat="42.97627" lon="-0.00987">
        <ele>1487.8</ele>
        <time>2024-08-15T07:54:10Z</time>
      </trkpt>
      <trkpt lat="42.97627" lon="-0.00992">
        <ele>1488.2</ele>
        <time>2024-08-15T07:54:11Z</time>
      </trkpt>
      <trkpt lat="42.97627" lon="-0.00996">
        <ele>1488.4</ele>
        <time>2024-08-15T07:54:12Z</time>
      </trkpt>
      <trkpt lat="42.97626" lon="-0.01">
        <ele>1488.6</ele>
        <time>2024-08-15T07:54:13Z</time>
      </trkpt>
      <trkpt lat="42.97626" lon="-0.01005">
        <ele>1488.8</ele>
        <time>2024-08-15T07:54:14Z</time>
      </trkpt>
      <trkpt lat="42.97626" lon="-0.01009">
        <ele>1489</ele>
        <time>2024-08-15T07:54:15Z</time>
      </trkpt>
      <trkpt lat="42.97625" lon="-0.01013">
        <ele>1489.2</ele>
        <time>2024-08-15T07:54:16Z</time>
      </trkpt>
      <trkpt lat="42.97624" lon="-0.01018">
        <ele>1489.2</ele>
        <time>2024-08-15T07:54:17Z</time>
      </trkpt>
      <trkpt lat="42.97624" lon="-0.01023">
        <ele>1489.6</ele>
        <time>2024-08-15T07:54:18Z</time>
      </trkpt>
      <trkpt lat="42.97623" lon="-0.01028">
        <ele>1489.6</ele>
        <time>2024-08-15T07:54:19Z</time>
      </trkpt>
      <trkpt lat="42.97622" lon="-0.01032">
        <ele>1490</ele>
        <time>2024-08-15T07:54:20Z</time>
      </trkpt>
      <trkpt lat="42.97621" lon="-0.01037">
        <ele>1490.2</ele>
        <time>2024-08-15T07:54:21Z</time>
      </trkpt>
      <trkpt lat="42.97621" lon="-0.01041">
        <ele>1490.4</ele>
        <time>2024-08-15T07:54:22Z</time>
      </trkpt>
      <trkpt lat="42.9762" lon="-0.01046">
        <ele>1490.6</ele>
        <time>2024-08-15T07:54:23Z</time>
      </trkpt>
      <trkpt lat="42.97619" lon="-0.01051">
        <ele>1490.8</ele>
        <time>2024-08-15T07:54:24Z</time>
      </trkpt>
      <trkpt lat="42.97618" lon="-0.01056">
        <ele>1490.8</ele>
        <time>2024-08-15T07:54:25Z</time>
      </trkpt>
      <trkpt lat="42.97617" lon="-0.01061">
        <ele>1491</ele>
        <time>2024-08-15T07:54:26Z</time>
      </trkpt>
      <trkpt lat="42.97616" lon="-0.01066">
        <ele>1491</ele>
        <time>2024-08-15T07:54:27Z</time>
      </trkpt>
      <trkpt lat="42.97614" lon="-0.01071">
        <ele>1491</ele>
        <time>2024-08-15T07:54:28Z</time>
      </trkpt>
      <trkpt lat="42.97613" lon="-0.01077">
        <ele>1491.2</ele>
        <time>2024-08-15T07:54:29Z</time>
      </trkpt>
      <trkpt lat="42.97612" lon="-0.01083">
        <ele>1491.2</ele>
        <time>2024-08-15T07:54:30Z</time>
      </trkpt>
      <trkpt lat="42.97611" lon="-0.01088">
        <ele>1491.2</ele>
        <time>2024-08-15T07:54:31Z</time>
      </trkpt>
      <trkpt lat="42.9761" lon="-0.01094">
        <ele>1491.2</ele>
        <time>2024-08-15T07:54:32Z</time>
      </trkpt>
      <trkpt lat="42.97609" lon="-0.01099">
        <ele>1491.2</ele>
        <time>2024-08-15T07:54:33Z</time>
      </trkpt>
      <trkpt lat="42.97608" lon="-0.01104">
        <ele>1491.4</ele>
        <time>2024-08-15T07:54:34Z</time>
      </trkpt>
      <trkpt lat="42.97607" lon="-0.01109">
        <ele>1491.4</ele>
        <time>2024-08-15T07:54:35Z</time>
      </trkpt>
      <trkpt lat="42.97606" lon="-0.01114">
        <ele>1491.2</ele>
        <time>2024-08-15T07:54:36Z</time>
      </trkpt>
      <trkpt lat="42.97605" lon="-0.01119">
        <ele>1491.6</ele>
        <time>2024-08-15T07:54:37Z</time>
      </trkpt>
      <trkpt lat="42.97604" lon="-0.01124">
        <ele>1491.6</ele>
        <time>2024-08-15T07:54:38Z</time>
      </trkpt>
      <trkpt lat="42.97603" lon="-0.01129">
        <ele>1491.6</ele>
        <time>2024-08-15T07:54:39Z</time>
      </trkpt>
      <trkpt lat="42.97601" lon="-0.01134">
        <ele>1491.8</ele>
        <time>2024-08-15T07:54:40Z</time>
      </trkpt>
      <trkpt lat="42.976" lon="-0.01138">
        <ele>1491.8</ele>
        <time>2024-08-15T07:54:41Z</time>
      </trkpt>
      <trkpt lat="42.97598" lon="-0.01143">
        <ele>1491.8</ele>
        <time>2024-08-15T07:54:42Z</time>
      </trkpt>
      <trkpt lat="42.97596" lon="-0.01147">
        <ele>1492</ele>
        <time>2024-08-15T07:54:43Z</time>
      </trkpt>
      <trkpt lat="42.97594" lon="-0.01151">
        <ele>1492</ele>
        <time>2024-08-15T07:54:44Z</time>
      </trkpt>
      <trkpt lat="42.97591" lon="-0.01155">
        <ele>1492.2</ele>
        <time>2024-08-15T07:54:45Z</time>
      </trkpt>
      <trkpt lat="42.97588" lon="-0.01158">
        <ele>1492.2</ele>
        <time>2024-08-15T07:54:46Z</time>
      </trkpt>
      <trkpt lat="42.97584" lon="-0.0116">
        <ele>1492.4</ele>
        <time>2024-08-15T07:54:47Z</time>
      </trkpt>
      <trkpt lat="42.97581" lon="-0.01163">
        <ele>1492.4</ele>
        <time>2024-08-15T07:54:48Z</time>
      </trkpt>
      <trkpt lat="42.97578" lon="-0.01164">
        <ele>1492.4</ele>
        <time>2024-08-15T07:54:49Z</time>
      </trkpt>
      <trkpt lat="42.97574" lon="-0.01165">
        <ele>1492.4</ele>
        <time>2024-08-15T07:54:50Z</time>
      </trkpt>
      <trkpt lat="42.97571" lon="-0.01166">
        <ele>1492.6</ele>
        <time>2024-08-15T07:54:51Z</time>
      </trkpt>
      <trkpt lat="42.97567" lon="-0.01166">
        <ele>1492.6</ele>
        <time>2024-08-15T07:54:52Z</time>
      </trkpt>
      <trkpt lat="42.97564" lon="-0.01165">
        <ele>1492.6</ele>
        <time>2024-08-15T07:54:53Z</time>
      </trkpt>
      <trkpt lat="42.9756" lon="-0.01164">
        <ele>1492.8</ele>
        <time>2024-08-15T07:54:54Z</time>
      </trkpt>
      <trkpt lat="42.97557" lon="-0.01162">
        <ele>1493</ele>
        <time>2024-08-15T07:54:55Z</time>
      </trkpt>
      <trkpt lat="42.97555" lon="-0.0116">
        <ele>1493</ele>
        <time>2024-08-15T07:54:56Z</time>
      </trkpt>
      <trkpt lat="42.97553" lon="-0.01158">
        <ele>1493.2</ele>
        <time>2024-08-15T07:54:57Z</time>
      </trkpt>
      <trkpt lat="42.9755" lon="-0.01156">
        <ele>1493.2</ele>
        <time>2024-08-15T07:54:58Z</time>
      </trkpt>
      <trkpt lat="42.97548" lon="-0.01153">
        <ele>1493.4</ele>
        <time>2024-08-15T07:54:59Z</time>
      </trkpt>
      <trkpt lat="42.97547" lon="-0.0115">
        <ele>1493.6</ele>
        <time>2024-08-15T07:55:00Z</time>
      </trkpt>
      <trkpt lat="42.97545" lon="-0.01147">
        <ele>1494</ele>
        <time>2024-08-15T07:55:01Z</time>
      </trkpt>
      <trkpt lat="42.97544" lon="-0.01143">
        <ele>1494.2</ele>
        <time>2024-08-15T07:55:02Z</time>
      </trkpt>
      <trkpt lat="42.97543" lon="-0.0114">
        <ele>1494.4</ele>
        <time>2024-08-15T07:55:03Z</time>
      </trkpt>
      <trkpt lat="42.97542" lon="-0.01136">
        <ele>1494.6</ele>
        <time>2024-08-15T07:55:04Z</time>
      </trkpt>
      <trkpt lat="42.97542" lon="-0.01132">
        <ele>1494.6</ele>
        <time>2024-08-15T07:55:05Z</time>
      </trkpt>
      <trkpt lat="42.97541" lon="-0.01129">
        <ele>1495.2</ele>
        <time>2024-08-15T07:55:06Z</time>
      </trkpt>
      <trkpt lat="42.97542" lon="-0.01125">
        <ele>1495.2</ele>
        <time>2024-08-15T07:55:07Z</time>
      </trkpt>
      <trkpt lat="42.97542" lon="-0.01121">
        <ele>1495.6</ele>
        <time>2024-08-15T07:55:08Z</time>
      </trkpt>
      <trkpt lat="42.97542" lon="-0.01118">
        <ele>1496</ele>
        <time>2024-08-15T07:55:09Z</time>
      </trkpt>
      <trkpt lat="42.97542" lon="-0.01114">
        <ele>1496.2</ele>
        <time>2024-08-15T07:55:10Z</time>
      </trkpt>
      <trkpt lat="42.97542" lon="-0.0111">
        <ele>1496.4</ele>
        <time>2024-08-15T07:55:11Z</time>
      </trkpt>
      <trkpt lat="42.97542" lon="-0.01107">
        <ele>1496.6</ele>
        <time>2024-08-15T07:55:12Z</time>
      </trkpt>
      <trkpt lat="42.97542" lon="-0.01104">
        <ele>1497</ele>
        <time>2024-08-15T07:55:13Z</time>
      </trkpt>
      <trkpt lat="42.97542" lon="-0.01101">
        <ele>1497.2</ele>
        <time>2024-08-15T07:55:14Z</time>
      </trkpt>
      <trkpt lat="42.97541" lon="-0.01097">
        <ele>1497.6</ele>
        <time>2024-08-15T07:55:15Z</time>
      </trkpt>
      <trkpt lat="42.97541" lon="-0.01094">
        <ele>1497.8</ele>
        <time>2024-08-15T07:55:16Z</time>
      </trkpt>
      <trkpt lat="42.97541" lon="-0.0109">
        <ele>1498.2</ele>
        <time>2024-08-15T07:55:17Z</time>
      </trkpt>
      <trkpt lat="42.97541" lon="-0.01086">
        <ele>1498.4</ele>
        <time>2024-08-15T07:55:18Z</time>
      </trkpt>
      <trkpt lat="42.97541" lon="-0.01083">
        <ele>1498.4</ele>
        <time>2024-08-15T07:55:19Z</time>
      </trkpt>
      <trkpt lat="42.9754" lon="-0.01079">
        <ele>1498.8</ele>
        <time>2024-08-15T07:55:20Z</time>
      </trkpt>
      <trkpt lat="42.97539" lon="-0.01076">
        <ele>1499</ele>
        <time>2024-08-15T07:55:21Z</time>
      </trkpt>
      <trkpt lat="42.97538" lon="-0.01073">
        <ele>1499.4</ele>
        <time>2024-08-15T07:55:22Z</time>
      </trkpt>
      <trkpt lat="42.97537" lon="-0.0107">
        <ele>1499.4</ele>
        <time>2024-08-15T07:55:23Z</time>
      </trkpt>
      <trkpt lat="42.97535" lon="-0.01067">
        <ele>1500</ele>
        <time>2024-08-15T07:55:24Z</time>
      </trkpt>
      <trkpt lat="42.97533" lon="-0.01065">
        <ele>1500.2</ele>
        <time>2024-08-15T07:55:25Z</time>
      </trkpt>
      <trkpt lat="42.97531" lon="-0.01063">
        <ele>1500.4</ele>
        <time>2024-08-15T07:55:26Z</time>
      </trkpt>
      <trkpt lat="42.97529" lon="-0.01061">
        <ele>1500.8</ele>
        <time>2024-08-15T07:55:27Z</time>
      </trkpt>
      <trkpt lat="42.97526" lon="-0.01059">
        <ele>1501</ele>
        <time>2024-08-15T07:55:28Z</time>
      </trkpt>
      <trkpt lat="42.97524" lon="-0.01057">
        <ele>1501.2</ele>
        <time>2024-08-15T07:55:29Z</time>
      </trkpt>
      <trkpt lat="42.97522" lon="-0.01055">
        <ele>1501.2</ele>
        <time>2024-08-15T07:55:30Z</time>
      </trkpt>
      <trkpt lat="42.9752" lon="-0.01052">
        <ele>1501.6</ele>
        <time>2024-08-15T07:55:31Z</time>
      </trkpt>
      <trkpt lat="42.97517" lon="-0.0105">
        <ele>1501.8</ele>
        <time>2024-08-15T07:55:32Z</time>
      </trkpt>
      <trkpt lat="42.97515" lon="-0.01048">
        <ele>1502</ele>
        <time>2024-08-15T07:55:33Z</time>
      </trkpt>
      <trkpt lat="42.97513" lon="-0.01046">
        <ele>1502</ele>
        <time>2024-08-15T07:55:34Z</time>
      </trkpt>
      <trkpt lat="42.97511" lon="-0.01044">
        <ele>1502.2</ele>
        <time>2024-08-15T07:55:35Z</time>
      </trkpt>
      <trkpt lat="42.97509" lon="-0.01042">
        <ele>1502.4</ele>
        <time>2024-08-15T07:55:36Z</time>
      </trkpt>
      <trkpt lat="42.97507" lon="-0.0104">
        <ele>1502.6</ele>
        <time>2024-08-15T07:55:37Z</time>
      </trkpt>
      <trkpt lat="42.97505" lon="-0.01038">
        <ele>1502.6</ele>
        <time>2024-08-15T07:55:38Z</time>
      </trkpt>
      <trkpt lat="42.97503" lon="-0.01036">
        <ele>1502.8</ele>
        <time>2024-08-15T07:55:39Z</time>
      </trkpt>
      <trkpt lat="42.97501" lon="-0.01034">
        <ele>1503</ele>
        <time>2024-08-15T07:55:40Z</time>
      </trkpt>
      <trkpt lat="42.97498" lon="-0.01031">
        <ele>1503.4</ele>
        <time>2024-08-15T07:55:41Z</time>
      </trkpt>
      <trkpt lat="42.97496" lon="-0.01029">
        <ele>1503.4</ele>
        <time>2024-08-15T07:55:42Z</time>
      </trkpt>
      <trkpt lat="42.97494" lon="-0.01027">
        <ele>1503.8</ele>
        <time>2024-08-15T07:55:43Z</time>
      </trkpt>
      <trkpt lat="42.97492" lon="-0.01025">
        <ele>1503.8</ele>
        <time>2024-08-15T07:55:44Z</time>
      </trkpt>
      <trkpt lat="42.9749" lon="-0.01023">
        <ele>1504</ele>
        <time>2024-08-15T07:55:45Z</time>
      </trkpt>
      <trkpt lat="42.97488" lon="-0.01021">
        <ele>1504.2</ele>
        <time>2024-08-15T07:55:46Z</time>
      </trkpt>
      <trkpt lat="42.97486" lon="-0.01018">
        <ele>1504.4</ele>
        <time>2024-08-15T07:55:47Z</time>
      </trkpt>
      <trkpt lat="42.97483" lon="-0.01016">
        <ele>1504.6</ele>
        <time>2024-08-15T07:55:48Z</time>
      </trkpt>
      <trkpt lat="42.97481" lon="-0.01014">
        <ele>1504.8</ele>
        <time>2024-08-15T07:55:49Z</time>
      </trkpt>
      <trkpt lat="42.97479" lon="-0.01012">
        <ele>1504.8</ele>
        <time>2024-08-15T07:55:50Z</time>
      </trkpt>
      <trkpt lat="42.97477" lon="-0.0101">
        <ele>1504.8</ele>
        <time>2024-08-15T07:55:51Z</time>
      </trkpt>
      <trkpt lat="42.97475" lon="-0.01007">
        <ele>1505</ele>
        <time>2024-08-15T07:55:52Z</time>
      </trkpt>
      <trkpt lat="42.97472" lon="-0.01005">
        <ele>1505.2</ele>
        <time>2024-08-15T07:55:53Z</time>
      </trkpt>
      <trkpt lat="42.9747" lon="-0.01003">
        <ele>1505.2</ele>
        <time>2024-08-15T07:55:54Z</time>
      </trkpt>
      <trkpt lat="42.97467" lon="-0.01001">
        <ele>1505.2</ele>
        <time>2024-08-15T07:55:55Z</time>
      </trkpt>
      <trkpt lat="42.97465" lon="-0.00999">
        <ele>1505.2</ele>
        <time>2024-08-15T07:55:56Z</time>
      </trkpt>
      <trkpt lat="42.97463" lon="-0.00996">
        <ele>1505.6</ele>
        <time>2024-08-15T07:55:57Z</time>
      </trkpt>
      <trkpt lat="42.97461" lon="-0.00994">
        <ele>1505.6</ele>
        <time>2024-08-15T07:55:58Z</time>
      </trkpt>
      <trkpt lat="42.97458" lon="-0.00992">
        <ele>1505.8</ele>
        <time>2024-08-15T07:55:59Z</time>
      </trkpt>
      <trkpt lat="42.97456" lon="-0.0099">
        <ele>1505.8</ele>
        <time>2024-08-15T07:56:00Z</time>
      </trkpt>
      <trkpt lat="42.97454" lon="-0.00988">
        <ele>1505.8</ele>
        <time>2024-08-15T07:56:01Z</time>
      </trkpt>
      <trkpt lat="42.97451" lon="-0.00986">
        <ele>1506</ele>
        <time>2024-08-15T07:56:02Z</time>
      </trkpt>
      <trkpt lat="42.97449" lon="-0.00984">
        <ele>1506</ele>
        <time>2024-08-15T07:56:03Z</time>
      </trkpt>
      <trkpt lat="42.97447" lon="-0.00982">
        <ele>1506.2</ele>
        <time>2024-08-15T07:56:04Z</time>
      </trkpt>
      <trkpt lat="42.97444" lon="-0.0098">
        <ele>1506.2</ele>
        <time>2024-08-15T07:56:05Z</time>
      </trkpt>
      <trkpt lat="42.97442" lon="-0.00977">
        <ele>1506.4</ele>
        <time>2024-08-15T07:56:06Z</time>
      </trkpt>
      <trkpt lat="42.9744" lon="-0.00975">
        <ele>1506.6</ele>
        <time>2024-08-15T07:56:07Z</time>
      </trkpt>
      <trkpt lat="42.97438" lon="-0.00973">
        <ele>1506.6</ele>
        <time>2024-08-15T07:56:08Z</time>
      </trkpt>
      <trkpt lat="42.97436" lon="-0.00971">
        <ele>1506.8</ele>
        <time>2024-08-15T07:56:09Z</time>
      </trkpt>
      <trkpt lat="42.97433" lon="-0.00969">
        <ele>1507</ele>
        <time>2024-08-15T07:56:10Z</time>
      </trkpt>
      <trkpt lat="42.97431" lon="-0.00967">
        <ele>1507.2</ele>
        <time>2024-08-15T07:56:11Z</time>
      </trkpt>
      <trkpt lat="42.97428" lon="-0.00965">
        <ele>1507.2</ele>
        <time>2024-08-15T07:56:12Z</time>
      </trkpt>
      <trkpt lat="42.97426" lon="-0.00963">
        <ele>1507.4</ele>
        <time>2024-08-15T07:56:13Z</time>
      </trkpt>
      <trkpt lat="42.97424" lon="-0.00961">
        <ele>1507.4</ele>
        <time>2024-08-15T07:56:14Z</time>
      </trkpt>
      <trkpt lat="42.97422" lon="-0.00959">
        <ele>1507.6</ele>
        <time>2024-08-15T07:56:15Z</time>
      </trkpt>
      <trkpt lat="42.97419" lon="-0.00957">
        <ele>1507.6</ele>
        <time>2024-08-15T07:56:16Z</time>
      </trkpt>
      <trkpt lat="42.97417" lon="-0.00955">
        <ele>1507.8</ele>
        <time>2024-08-15T07:56:17Z</time>
      </trkpt>
      <trkpt lat="42.97415" lon="-0.00952">
        <ele>1508</ele>
        <time>2024-08-15T07:56:18Z</time>
      </trkpt>
      <trkpt lat="42.97413" lon="-0.0095">
        <ele>1508</ele>
        <time>2024-08-15T07:56:19Z</time>
      </trkpt>
      <trkpt lat="42.97412" lon="-0.00946">
        <ele>1508.2</ele>
        <time>2024-08-15T07:56:20Z</time>
      </trkpt>
      <trkpt lat="42.9741" lon="-0.00943">
        <ele>1508.4</ele>
        <time>2024-08-15T07:56:21Z</time>
      </trkpt>
      <trkpt lat="42.97409" lon="-0.0094">
        <ele>1508.6</ele>
        <time>2024-08-15T07:56:22Z</time>
      </trkpt>
      <trkpt lat="42.97409" lon="-0.00936">
        <ele>1508.6</ele>
        <time>2024-08-15T07:56:23Z</time>
      </trkpt>
      <trkpt lat="42.9741" lon="-0.00933">
        <ele>1508.8</ele>
        <time>2024-08-15T07:56:24Z</time>
      </trkpt>
      <trkpt lat="42.97413" lon="-0.00931">
        <ele>1508.8</ele>
        <time>2024-08-15T07:56:25Z</time>
      </trkpt>
      <trkpt lat="42.97415" lon="-0.00931">
        <ele>1509</ele>
        <time>2024-08-15T07:56:26Z</time>
      </trkpt>
      <trkpt lat="42.97418" lon="-0.00932">
        <ele>1509.2</ele>
        <time>2024-08-15T07:56:27Z</time>
      </trkpt>
      <trkpt lat="42.9742" lon="-0.00932">
        <ele>1509.2</ele>
        <time>2024-08-15T07:56:28Z</time>
      </trkpt>
      <trkpt lat="42.97423" lon="-0.00933">
        <ele>1509.6</ele>
        <time>2024-08-15T07:56:29Z</time>
      </trkpt>
      <trkpt lat="42.97426" lon="-0.00934">
        <ele>1509.6</ele>
        <time>2024-08-15T07:56:30Z</time>
      </trkpt>
      <trkpt lat="42.97428" lon="-0.00936">
        <ele>1509.8</ele>
        <time>2024-08-15T07:56:31Z</time>
      </trkpt>
      <trkpt lat="42.9743" lon="-0.00937">
        <ele>1510</ele>
        <time>2024-08-15T07:56:32Z</time>
      </trkpt>
      <trkpt lat="42.97433" lon="-0.00938">
        <ele>1510.2</ele>
        <time>2024-08-15T07:56:33Z</time>
      </trkpt>
      <trkpt lat="42.97435" lon="-0.0094">
        <ele>1510.4</ele>
        <time>2024-08-15T07:56:34Z</time>
      </trkpt>
      <trkpt lat="42.97437" lon="-0.00941">
        <ele>1510.6</ele>
        <time>2024-08-15T07:56:35Z</time>
      </trkpt>
      <trkpt lat="42.97439" lon="-0.00942">
        <ele>1510.8</ele>
        <time>2024-08-15T07:56:36Z</time>
      </trkpt>
      <trkpt lat="42.97442" lon="-0.00944">
        <ele>1510.8</ele>
        <time>2024-08-15T07:56:37Z</time>
      </trkpt>
      <trkpt lat="42.97444" lon="-0.00945">
        <ele>1511.2</ele>
        <time>2024-08-15T07:56:38Z</time>
      </trkpt>
      <trkpt lat="42.97447" lon="-0.00946">
        <ele>1511.4</ele>
        <time>2024-08-15T07:56:39Z</time>
      </trkpt>
      <trkpt lat="42.97449" lon="-0.00947">
        <ele>1511.6</ele>
        <time>2024-08-15T07:56:40Z</time>
      </trkpt>
      <trkpt lat="42.97451" lon="-0.00948">
        <ele>1511.8</ele>
        <time>2024-08-15T07:56:41Z</time>
      </trkpt>
      <trkpt lat="42.97454" lon="-0.00949">
        <ele>1511.8</ele>
        <time>2024-08-15T07:56:42Z</time>
      </trkpt>
      <trkpt lat="42.97456" lon="-0.00949">
        <ele>1512.2</ele>
        <time>2024-08-15T07:56:43Z</time>
      </trkpt>
      <trkpt lat="42.97458" lon="-0.0095">
        <ele>1512.4</ele>
        <time>2024-08-15T07:56:44Z</time>
      </trkpt>
      <trkpt lat="42.97461" lon="-0.0095">
        <ele>1512.6</ele>
        <time>2024-08-15T07:56:45Z</time>
      </trkpt>
      <trkpt lat="42.97463" lon="-0.0095">
        <ele>1512.8</ele>
        <time>2024-08-15T07:56:46Z</time>
      </trkpt>
      <trkpt lat="42.97466" lon="-0.00949">
        <ele>1513.2</ele>
        <time>2024-08-15T07:56:47Z</time>
      </trkpt>
      <trkpt lat="42.97468" lon="-0.00949">
        <ele>1513.4</ele>
        <time>2024-08-15T07:56:48Z</time>
      </trkpt>
      <trkpt lat="42.9747" lon="-0.00948">
        <ele>1513.6</ele>
        <time>2024-08-15T07:56:49Z</time>
      </trkpt>
      <trkpt lat="42.97473" lon="-0.00947">
        <ele>1513.8</ele>
        <time>2024-08-15T07:56:50Z</time>
      </trkpt>
      <trkpt lat="42.97475" lon="-0.00946">
        <ele>1513.8</ele>
        <time>2024-08-15T07:56:51Z</time>
      </trkpt>
      <trkpt lat="42.97477" lon="-0.00944">
        <ele>1514.4</ele>
        <time>2024-08-15T07:56:52Z</time>
      </trkpt>
      <trkpt lat="42.97479" lon="-0.00943">
        <ele>1514.6</ele>
        <time>2024-08-15T07:56:53Z</time>
      </trkpt>
      <trkpt lat="42.97481" lon="-0.00942">
        <ele>1514.8</ele>
        <time>2024-08-15T07:56:54Z</time>
      </trkpt>
      <trkpt lat="42.97483" lon="-0.0094">
        <ele>1515</ele>
        <time>2024-08-15T07:56:55Z</time>
      </trkpt>
      <trkpt lat="42.97486" lon="-0.00939">
        <ele>1515.4</ele>
        <time>2024-08-15T07:56:56Z</time>
      </trkpt>
      <trkpt lat="42.97488" lon="-0.00938">
        <ele>1515.6</ele>
        <time>2024-08-15T07:56:57Z</time>
      </trkpt>
      <trkpt lat="42.9749" lon="-0.00937">
        <ele>1515.6</ele>
        <time>2024-08-15T07:56:58Z</time>
      </trkpt>
      <trkpt lat="42.97492" lon="-0.00935">
        <ele>1516</ele>
        <time>2024-08-15T07:56:59Z</time>
      </trkpt>
      <trkpt lat="42.97494" lon="-0.00934">
        <ele>1516.2</ele>
        <time>2024-08-15T07:57:00Z</time>
      </trkpt>
      <trkpt lat="42.97496" lon="-0.00932">
        <ele>1516.4</ele>
        <time>2024-08-15T07:57:01Z</time>
      </trkpt>
      <trkpt lat="42.97498" lon="-0.0093">
        <ele>1516.6</ele>
        <time>2024-08-15T07:57:02Z</time>
      </trkpt>
      <trkpt lat="42.97499" lon="-0.00929">
        <ele>1516.8</ele>
        <time>2024-08-15T07:57:03Z</time>
      </trkpt>
      <trkpt lat="42.97501" lon="-0.00927">
        <ele>1517.2</ele>
        <time>2024-08-15T07:57:04Z</time>
      </trkpt>
      <trkpt lat="42.97502" lon="-0.00925">
        <ele>1517.4</ele>
        <time>2024-08-15T07:57:05Z</time>
      </trkpt>
      <trkpt lat="42.97504" lon="-0.00923">
        <ele>1517.6</ele>
        <time>2024-08-15T07:57:06Z</time>
      </trkpt>
      <trkpt lat="42.97506" lon="-0.00921">
        <ele>1517.4</ele>
        <time>2024-08-15T07:57:07Z</time>
      </trkpt>
      <trkpt lat="42.97508" lon="-0.00919">
        <ele>1517.6</ele>
        <time>2024-08-15T07:57:08Z</time>
      </trkpt>
      <trkpt lat="42.97509" lon="-0.00917">
        <ele>1517.8</ele>
        <time>2024-08-15T07:57:09Z</time>
      </trkpt>
      <trkpt lat="42.97511" lon="-0.00916">
        <ele>1518.2</ele>
        <time>2024-08-15T07:57:10Z</time>
      </trkpt>
      <trkpt lat="42.97513" lon="-0.00914">
        <ele>1518.4</ele>
        <time>2024-08-15T07:57:11Z</time>
      </trkpt>
      <trkpt lat="42.97514" lon="-0.00912">
        <ele>1518.6</ele>
        <time>2024-08-15T07:57:12Z</time>
      </trkpt>
      <trkpt lat="42.97516" lon="-0.00911">
        <ele>1518.8</ele>
        <time>2024-08-15T07:57:13Z</time>
      </trkpt>
      <trkpt lat="42.97517" lon="-0.00909">
        <ele>1518.8</ele>
        <time>2024-08-15T07:57:14Z</time>
      </trkpt>
      <trkpt lat="42.97519" lon="-0.00907">
        <ele>1519.2</ele>
        <time>2024-08-15T07:57:15Z</time>
      </trkpt>
      <trkpt lat="42.9752" lon="-0.00906">
        <ele>1519.2</ele>
        <time>2024-08-15T07:57:16Z</time>
      </trkpt>
      <trkpt lat="42.97522" lon="-0.00904">
        <ele>1519.6</ele>
        <time>2024-08-15T07:57:17Z</time>
      </trkpt>
      <trkpt lat="42.97523" lon="-0.00902">
        <ele>1519.8</ele>
        <time>2024-08-15T07:57:18Z</time>
      </trkpt>
      <trkpt lat="42.97525" lon="-0.009">
        <ele>1520</ele>
        <time>2024-08-15T07:57:19Z</time>
      </trkpt>
      <trkpt lat="42.97526" lon="-0.00898">
        <ele>1520.4</ele>
        <time>2024-08-15T07:57:20Z</time>
      </trkpt>
      <trkpt lat="42.97527" lon="-0.00896">
        <ele>1520.6</ele>
        <time>2024-08-15T07:57:21Z</time>
      </trkpt>
      <trkpt lat="42.97529" lon="-0.00894">
        <ele>1520.8</ele>
        <time>2024-08-15T07:57:22Z</time>
      </trkpt>
      <trkpt lat="42.9753" lon="-0.00892">
        <ele>1521</ele>
        <time>2024-08-15T07:57:23Z</time>
      </trkpt>
      <trkpt lat="42.97531" lon="-0.0089">
        <ele>1521.4</ele>
        <time>2024-08-15T07:57:24Z</time>
      </trkpt>
      <trkpt lat="42.97532" lon="-0.00887">
        <ele>1521.4</ele>
        <time>2024-08-15T07:57:25Z</time>
      </trkpt>
      <trkpt lat="42.97533" lon="-0.00885">
        <ele>1521.8</ele>
        <time>2024-08-15T07:57:26Z</time>
      </trkpt>
      <trkpt lat="42.97534" lon="-0.00882">
        <ele>1522</ele>
        <time>2024-08-15T07:57:27Z</time>
      </trkpt>
      <trkpt lat="42.97534" lon="-0.00879">
        <ele>1522.2</ele>
        <time>2024-08-15T07:57:28Z</time>
      </trkpt>
      <trkpt lat="42.97534" lon="-0.00877">
        <ele>1522.6</ele>
        <time>2024-08-15T07:57:29Z</time>
      </trkpt>
      <trkpt lat="42.97534" lon="-0.00874">
        <ele>1522.8</ele>
        <time>2024-08-15T07:57:30Z</time>
      </trkpt>
      <trkpt lat="42.97535" lon="-0.00871">
        <ele>1523</ele>
        <time>2024-08-15T07:57:31Z</time>
      </trkpt>
      <trkpt lat="42.97535" lon="-0.00868">
        <ele>1523</ele>
        <time>2024-08-15T07:57:32Z</time>
      </trkpt>
      <trkpt lat="42.97534" lon="-0.00864">
        <ele>1523.2</ele>
        <time>2024-08-15T07:57:33Z</time>
      </trkpt>
      <trkpt lat="42.97534" lon="-0.00861">
        <ele>1523.6</ele>
        <time>2024-08-15T07:57:34Z</time>
      </trkpt>
      <trkpt lat="42.97533" lon="-0.00859">
        <ele>1523.8</ele>
        <time>2024-08-15T07:57:35Z</time>
      </trkpt>
      <trkpt lat="42.97531" lon="-0.00857">
        <ele>1524.2</ele>
        <time>2024-08-15T07:57:36Z</time>
      </trkpt>
      <trkpt lat="42.9753" lon="-0.00855">
        <ele>1524.2</ele>
        <time>2024-08-15T07:57:37Z</time>
      </trkpt>
      <trkpt lat="42.97529" lon="-0.00854">
        <ele>1524.6</ele>
        <time>2024-08-15T07:57:38Z</time>
      </trkpt>
      <trkpt lat="42.97527" lon="-0.00852">
        <ele>1524.8</ele>
        <time>2024-08-15T07:57:39Z</time>
      </trkpt>
      <trkpt lat="42.97525" lon="-0.00851">
        <ele>1525</ele>
        <time>2024-08-15T07:57:40Z</time>
      </trkpt>
      <trkpt lat="42.97523" lon="-0.0085">
        <ele>1525.2</ele>
        <time>2024-08-15T07:57:41Z</time>
      </trkpt>
      <trkpt lat="42.97521" lon="-0.0085">
        <ele>1525.6</ele>
        <time>2024-08-15T07:57:42Z</time>
      </trkpt>
      <trkpt lat="42.97519" lon="-0.0085">
        <ele>1525.8</ele>
        <time>2024-08-15T07:57:43Z</time>
      </trkpt>
      <trkpt lat="42.97517" lon="-0.0085">
        <ele>1525.8</ele>
        <time>2024-08-15T07:57:44Z</time>
      </trkpt>
      <trkpt lat="42.97514" lon="-0.0085">
        <ele>1526.2</ele>
        <time>2024-08-15T07:57:45Z</time>
      </trkpt>
      <trkpt lat="42.97513" lon="-0.0085">
        <ele>1526.4</ele>
        <time>2024-08-15T07:57:46Z</time>
      </trkpt>
      <trkpt lat="42.9751" lon="-0.0085">
        <ele>1526.4</ele>
        <time>2024-08-15T07:57:47Z</time>
      </trkpt>
      <trkpt lat="42.97508" lon="-0.0085">
        <ele>1526.6</ele>
        <time>2024-08-15T07:57:48Z</time>
      </trkpt>
      <trkpt lat="42.97506" lon="-0.0085">
        <ele>1527</ele>
        <time>2024-08-15T07:57:49Z</time>
      </trkpt>
      <trkpt lat="42.97504" lon="-0.0085">
        <ele>1527.4</ele>
        <time>2024-08-15T07:57:50Z</time>
      </trkpt>
      <trkpt lat="42.97502" lon="-0.00849">
        <ele>1527.6</ele>
        <time>2024-08-15T07:57:51Z</time>
      </trkpt>
      <trkpt lat="42.975" lon="-0.00849">
        <ele>1527.8</ele>
        <time>2024-08-15T07:57:52Z</time>
      </trkpt>
      <trkpt lat="42.97498" lon="-0.00849">
        <ele>1527.8</ele>
        <time>2024-08-15T07:57:53Z</time>
      </trkpt>
      <trkpt lat="42.97496" lon="-0.00848">
        <ele>1528.2</ele>
        <time>2024-08-15T07:57:54Z</time>
      </trkpt>
      <trkpt lat="42.97494" lon="-0.00848">
        <ele>1528.2</ele>
        <time>2024-08-15T07:57:55Z</time>
      </trkpt>
      <trkpt lat="42.97492" lon="-0.00848">
        <ele>1528.4</ele>
        <time>2024-08-15T07:57:56Z</time>
      </trkpt>
      <trkpt lat="42.9749" lon="-0.00847">
        <ele>1528.8</ele>
        <time>2024-08-15T07:57:57Z</time>
      </trkpt>
      <trkpt lat="42.97488" lon="-0.00847">
        <ele>1528.8</ele>
        <time>2024-08-15T07:57:58Z</time>
      </trkpt>
      <trkpt lat="42.97486" lon="-0.00847">
        <ele>1529</ele>
        <time>2024-08-15T07:57:59Z</time>
      </trkpt>
      <trkpt lat="42.97484" lon="-0.00846">
        <ele>1529.2</ele>
        <time>2024-08-15T07:58:00Z</time>
      </trkpt>
      <trkpt lat="42.97482" lon="-0.00846">
        <ele>1529.4</ele>
        <time>2024-08-15T07:58:01Z</time>
      </trkpt>
      <trkpt lat="42.9748" lon="-0.00845">
        <ele>1529.6</ele>
        <time>2024-08-15T07:58:02Z</time>
      </trkpt>
      <trkpt lat="42.97478" lon="-0.00845">
        <ele>1529.8</ele>
        <time>2024-08-15T07:58:03Z</time>
      </trkpt>
      <trkpt lat="42.97476" lon="-0.00844">
        <ele>1530</ele>
        <time>2024-08-15T07:58:04Z</time>
      </trkpt>
      <trkpt lat="42.97474" lon="-0.00844">
        <ele>1530.2</ele>
        <time>2024-08-15T07:58:05Z</time>
      </trkpt>
      <trkpt lat="42.97472" lon="-0.00843">
        <ele>1530.4</ele>
        <time>2024-08-15T07:58:06Z</time>
      </trkpt>
      <trkpt lat="42.9747" lon="-0.00843">
        <ele>1530.6</ele>
        <time>2024-08-15T07:58:07Z</time>
      </trkpt>
      <trkpt lat="42.97468" lon="-0.00844">
        <ele>1530.8</ele>
        <time>2024-08-15T07:58:08Z</time>
      </trkpt>
      <trkpt lat="42.97466" lon="-0.00843">
        <ele>1531</ele>
        <time>2024-08-15T07:58:09Z</time>
      </trkpt>
      <trkpt lat="42.97463" lon="-0.00843">
        <ele>1531.2</ele>
        <time>2024-08-15T07:58:10Z</time>
      </trkpt>
      <trkpt lat="42.97462" lon="-0.00842">
        <ele>1531.2</ele>
        <time>2024-08-15T07:58:11Z</time>
      </trkpt>
      <trkpt lat="42.9746" lon="-0.00841">
        <ele>1531.4</ele>
        <time>2024-08-15T07:58:12Z</time>
      </trkpt>
      <trkpt lat="42.97458" lon="-0.0084">
        <ele>1531.6</ele>
        <time>2024-08-15T07:58:13Z</time>
      </trkpt>
      <trkpt lat="42.97456" lon="-0.00839">
        <ele>1531.8</ele>
        <time>2024-08-15T07:58:14Z</time>
      </trkpt>
      <trkpt lat="42.97454" lon="-0.00838">
        <ele>1532</ele>
        <time>2024-08-15T07:58:15Z</time>
      </trkpt>
      <trkpt lat="42.97452" lon="-0.00837">
        <ele>1532</ele>
        <time>2024-08-15T07:58:16Z</time>
      </trkpt>
      <trkpt lat="42.97451" lon="-0.00836">
        <ele>1532.2</ele>
        <time>2024-08-15T07:58:17Z</time>
      </trkpt>
      <trkpt lat="42.97449" lon="-0.00835">
        <ele>1532.2</ele>
        <time>2024-08-15T07:58:18Z</time>
      </trkpt>
      <trkpt lat="42.97447" lon="-0.00834">
        <ele>1532.8</ele>
        <time>2024-08-15T07:58:19Z</time>
      </trkpt>
      <trkpt lat="42.97445" lon="-0.00833">
        <ele>1533</ele>
        <time>2024-08-15T07:58:20Z</time>
      </trkpt>
      <trkpt lat="42.97443" lon="-0.00831">
        <ele>1533.2</ele>
        <time>2024-08-15T07:58:21Z</time>
      </trkpt>
      <trkpt lat="42.97442" lon="-0.0083">
        <ele>1533.4</ele>
        <time>2024-08-15T07:58:22Z</time>
      </trkpt>
      <trkpt lat="42.9744" lon="-0.00828">
        <ele>1533.6</ele>
        <time>2024-08-15T07:58:23Z</time>
      </trkpt>
      <trkpt lat="42.97438" lon="-0.00827">
        <ele>1533.8</ele>
        <time>2024-08-15T07:58:24Z</time>
      </trkpt>
      <trkpt lat="42.97436" lon="-0.00826">
        <ele>1534</ele>
        <time>2024-08-15T07:58:25Z</time>
      </trkpt>
      <trkpt lat="42.97434" lon="-0.00824">
        <ele>1534.2</ele>
        <time>2024-08-15T07:58:26Z</time>
      </trkpt>
      <trkpt lat="42.97432" lon="-0.00822">
        <ele>1534.4</ele>
        <time>2024-08-15T07:58:27Z</time>
      </trkpt>
      <trkpt lat="42.97431" lon="-0.00821">
        <ele>1534.6</ele>
        <time>2024-08-15T07:58:28Z</time>
      </trkpt>
      <trkpt lat="42.97429" lon="-0.00819">
        <ele>1534.8</ele>
        <time>2024-08-15T07:58:29Z</time>
      </trkpt>
      <trkpt lat="42.97427" lon="-0.00818">
        <ele>1535</ele>
        <time>2024-08-15T07:58:30Z</time>
      </trkpt>
      <trkpt lat="42.97426" lon="-0.00816">
        <ele>1535.2</ele>
        <time>2024-08-15T07:58:31Z</time>
      </trkpt>
      <trkpt lat="42.97424" lon="-0.00815">
        <ele>1535.2</ele>
        <time>2024-08-15T07:58:32Z</time>
      </trkpt>
      <trkpt lat="42.97422" lon="-0.00813">
        <ele>1535.4</ele>
        <time>2024-08-15T07:58:33Z</time>
      </trkpt>
      <trkpt lat="42.9742" lon="-0.00812">
        <ele>1535.6</ele>
        <time>2024-08-15T07:58:34Z</time>
      </trkpt>
      <trkpt lat="42.97418" lon="-0.00811">
        <ele>1536.2</ele>
        <time>2024-08-15T07:58:35Z</time>
      </trkpt>
      <trkpt lat="42.97417" lon="-0.0081">
        <ele>1536.6</ele>
        <time>2024-08-15T07:58:36Z</time>
      </trkpt>
      <trkpt lat="42.97414" lon="-0.00809">
        <ele>1536.6</ele>
        <time>2024-08-15T07:58:37Z</time>
      </trkpt>
      <trkpt lat="42.97413" lon="-0.00808">
        <ele>1537</ele>
        <time>2024-08-15T07:58:38Z</time>
      </trkpt>
      <trkpt lat="42.97411" lon="-0.00807">
        <ele>1537</ele>
        <time>2024-08-15T07:58:39Z</time>
      </trkpt>
      <trkpt lat="42.97409" lon="-0.00806">
        <ele>1537.4</ele>
        <time>2024-08-15T07:58:40Z</time>
      </trkpt>
      <trkpt lat="42.97407" lon="-0.00806">
        <ele>1537.6</ele>
        <time>2024-08-15T07:58:41Z</time>
      </trkpt>
      <trkpt lat="42.97405" lon="-0.00805">
        <ele>1538</ele>
        <time>2024-08-15T07:58:42Z</time>
      </trkpt>
      <trkpt lat="42.97403" lon="-0.00803">
        <ele>1538.4</ele>
        <time>2024-08-15T07:58:43Z</time>
      </trkpt>
      <trkpt lat="42.97402" lon="-0.00802">
        <ele>1538.4</ele>
        <time>2024-08-15T07:58:44Z</time>
      </trkpt>
      <trkpt lat="42.97401" lon="-0.008">
        <ele>1538.8</ele>
        <time>2024-08-15T07:58:45Z</time>
      </trkpt>
      <trkpt lat="42.97401" lon="-0.00797">
        <ele>1538.8</ele>
        <time>2024-08-15T07:58:46Z</time>
      </trkpt>
      <trkpt lat="42.97401" lon="-0.00794">
        <ele>1539.2</ele>
        <time>2024-08-15T07:58:47Z</time>
      </trkpt>
      <trkpt lat="42.97401" lon="-0.00791">
        <ele>1539.2</ele>
        <time>2024-08-15T07:58:48Z</time>
      </trkpt>
      <trkpt lat="42.97402" lon="-0.00788">
        <ele>1539.4</ele>
        <time>2024-08-15T07:58:49Z</time>
      </trkpt>
      <trkpt lat="42.97403" lon="-0.00786">
        <ele>1539.8</ele>
        <time>2024-08-15T07:58:50Z</time>
      </trkpt>
      <trkpt lat="42.97404" lon="-0.00784">
        <ele>1539.8</ele>
        <time>2024-08-15T07:58:51Z</time>
      </trkpt>
      <trkpt lat="42.97406" lon="-0.00782">
        <ele>1540</ele>
        <time>2024-08-15T07:58:52Z</time>
      </trkpt>
      <trkpt lat="42.97408" lon="-0.0078">
        <ele>1540</ele>
        <time>2024-08-15T07:58:53Z</time>
      </trkpt>
      <trkpt lat="42.9741" lon="-0.00779">
        <ele>1540.4</ele>
        <time>2024-08-15T07:58:54Z</time>
      </trkpt>
      <trkpt lat="42.97413" lon="-0.00779">
        <ele>1540.4</ele>
        <time>2024-08-15T07:58:55Z</time>
      </trkpt>
      <trkpt lat="42.97415" lon="-0.00778">
        <ele>1540.4</ele>
        <time>2024-08-15T07:58:56Z</time>
      </trkpt>
      <trkpt lat="42.97418" lon="-0.00778">
        <ele>1540.6</ele>
        <time>2024-08-15T07:58:57Z</time>
      </trkpt>
      <trkpt lat="42.9742" lon="-0.00778">
        <ele>1540.6</ele>
        <time>2024-08-15T07:58:58Z</time>
      </trkpt>
      <trkpt lat="42.97422" lon="-0.00778">
        <ele>1540.8</ele>
        <time>2024-08-15T07:58:59Z</time>
      </trkpt>
      <trkpt lat="42.97425" lon="-0.00778">
        <ele>1540.8</ele>
        <time>2024-08-15T07:59:00Z</time>
      </trkpt>
      <trkpt lat="42.97427" lon="-0.00778">
        <ele>1541</ele>
        <time>2024-08-15T07:59:01Z</time>
      </trkpt>
      <trkpt lat="42.97429" lon="-0.00777">
        <ele>1541</ele>
        <time>2024-08-15T07:59:02Z</time>
      </trkpt>
      <trkpt lat="42.97431" lon="-0.00776">
        <ele>1541.2</ele>
        <time>2024-08-15T07:59:03Z</time>
      </trkpt>
      <trkpt lat="42.97434" lon="-0.00775">
        <ele>1541.2</ele>
        <time>2024-08-15T07:59:04Z</time>
      </trkpt>
      <trkpt lat="42.97436" lon="-0.00775">
        <ele>1541.4</ele>
        <time>2024-08-15T07:59:05Z</time>
      </trkpt>
      <trkpt lat="42.97438" lon="-0.00774">
        <ele>1541.6</ele>
        <time>2024-08-15T07:59:06Z</time>
      </trkpt>
      <trkpt lat="42.9744" lon="-0.00773">
        <ele>1541.6</ele>
        <time>2024-08-15T07:59:07Z</time>
      </trkpt>
      <trkpt lat="42.97442" lon="-0.00772">
        <ele>1541.8</ele>
        <time>2024-08-15T07:59:08Z</time>
      </trkpt>
      <trkpt lat="42.97444" lon="-0.00771">
        <ele>1542</ele>
        <time>2024-08-15T07:59:09Z</time>
      </trkpt>
      <trkpt lat="42.97446" lon="-0.00769">
        <ele>1542.2</ele>
        <time>2024-08-15T07:59:10Z</time>
      </trkpt>
      <trkpt lat="42.97448" lon="-0.00767">
        <ele>1542.4</ele>
        <time>2024-08-15T07:59:11Z</time>
      </trkpt>
      <trkpt lat="42.9745" lon="-0.00765">
        <ele>1542.6</ele>
        <time>2024-08-15T07:59:12Z</time>
      </trkpt>
      <trkpt lat="42.97451" lon="-0.00763">
        <ele>1542.8</ele>
        <time>2024-08-15T07:59:13Z</time>
      </trkpt>
      <trkpt lat="42.97453" lon="-0.00761">
        <ele>1543</ele>
        <time>2024-08-15T07:59:14Z</time>
      </trkpt>
      <trkpt lat="42.97454" lon="-0.00759">
        <ele>1543.2</ele>
        <time>2024-08-15T07:59:15Z</time>
      </trkpt>
      <trkpt lat="42.97456" lon="-0.00757">
        <ele>1543.4</ele>
        <time>2024-08-15T07:59:16Z</time>
      </trkpt>
      <trkpt lat="42.97457" lon="-0.00755">
        <ele>1543.8</ele>
        <time>2024-08-15T07:59:17Z</time>
      </trkpt>
      <trkpt lat="42.97458" lon="-0.00754">
        <ele>1543.8</ele>
        <time>2024-08-15T07:59:18Z</time>
      </trkpt>
      <trkpt lat="42.9746" lon="-0.00752">
        <ele>1544.2</ele>
        <time>2024-08-15T07:59:19Z</time>
      </trkpt>
      <trkpt lat="42.97461" lon="-0.0075">
        <ele>1544.4</ele>
        <time>2024-08-15T07:59:20Z</time>
      </trkpt>
      <trkpt lat="42.97463" lon="-0.00748">
        <ele>1544.8</ele>
        <time>2024-08-15T07:59:21Z</time>
      </trkpt>
      <trkpt lat="42.97464" lon="-0.00746">
        <ele>1545</ele>
        <time>2024-08-15T07:59:22Z</time>
      </trkpt>
      <trkpt lat="42.97465" lon="-0.00744">
        <ele>1545.2</ele>
        <time>2024-08-15T07:59:23Z</time>
      </trkpt>
      <trkpt lat="42.97467" lon="-0.00742">
        <ele>1545.4</ele>
        <time>2024-08-15T07:59:24Z</time>
      </trkpt>
      <trkpt lat="42.97468" lon="-0.00739">
        <ele>1545.6</ele>
        <time>2024-08-15T07:59:25Z</time>
      </trkpt>
      <trkpt lat="42.97469" lon="-0.00737">
        <ele>1545.8</ele>
        <time>2024-08-15T07:59:26Z</time>
      </trkpt>
      <trkpt lat="42.97471" lon="-0.00735">
        <ele>1545.8</ele>
        <time>2024-08-15T07:59:27Z</time>
      </trkpt>
      <trkpt lat="42.97472" lon="-0.00733">
        <ele>1546.2</ele>
        <time>2024-08-15T07:59:28Z</time>
      </trkpt>
      <trkpt lat="42.97473" lon="-0.00731">
        <ele>1546.2</ele>
        <time>2024-08-15T07:59:29Z</time>
      </trkpt>
      <trkpt lat="42.97474" lon="-0.00728">
        <ele>1546.4</ele>
        <time>2024-08-15T07:59:30Z</time>
      </trkpt>
      <trkpt lat="42.97476" lon="-0.00726">
        <ele>1546.8</ele>
        <time>2024-08-15T07:59:31Z</time>
      </trkpt>
      <trkpt lat="42.97477" lon="-0.00724">
        <ele>1546.8</ele>
        <time>2024-08-15T07:59:32Z</time>
      </trkpt>
      <trkpt lat="42.97478" lon="-0.00722">
        <ele>1547.2</ele>
        <time>2024-08-15T07:59:33Z</time>
      </trkpt>
      <trkpt lat="42.97479" lon="-0.00719">
        <ele>1547.2</ele>
        <time>2024-08-15T07:59:34Z</time>
      </trkpt>
      <trkpt lat="42.9748" lon="-0.00717">
        <ele>1547.6</ele>
        <time>2024-08-15T07:59:35Z</time>
      </trkpt>
      <trkpt lat="42.97481" lon="-0.00715">
        <ele>1547.8</ele>
        <time>2024-08-15T07:59:36Z</time>
      </trkpt>
      <trkpt lat="42.97482" lon="-0.00713">
        <ele>1548</ele>
        <time>2024-08-15T07:59:37Z</time>
      </trkpt>
      <trkpt lat="42.97484" lon="-0.00711">
        <ele>1548.2</ele>
        <time>2024-08-15T07:59:38Z</time>
      </trkpt>
      <trkpt lat="42.97485" lon="-0.0071">
        <ele>1548.4</ele>
        <time>2024-08-15T07:59:39Z</time>
      </trkpt>
      <trkpt lat="42.97487" lon="-0.00708">
        <ele>1548.6</ele>
        <time>2024-08-15T07:59:40Z</time>
      </trkpt>
      <trkpt lat="42.97488" lon="-0.00706">
        <ele>1548.6</ele>
        <time>2024-08-15T07:59:41Z</time>
      </trkpt>
      <trkpt lat="42.97489" lon="-0.00704">
        <ele>1549</ele>
        <time>2024-08-15T07:59:42Z</time>
      </trkpt>
      <trkpt lat="42.97491" lon="-0.00702">
        <ele>1549</ele>
        <time>2024-08-15T07:59:43Z</time>
      </trkpt>
      <trkpt lat="42.97492" lon="-0.00701">
        <ele>1549.2</ele>
        <time>2024-08-15T07:59:44Z</time>
      </trkpt>
      <trkpt lat="42.97494" lon="-0.00699">
        <ele>1549.4</ele>
        <time>2024-08-15T07:59:45Z</time>
      </trkpt>
      <trkpt lat="42.97495" lon="-0.00698">
        <ele>1549.6</ele>
        <time>2024-08-15T07:59:46Z</time>
      </trkpt>
      <trkpt lat="42.97497" lon="-0.00696">
        <ele>1549.8</ele>
        <time>2024-08-15T07:59:47Z</time>
      </trkpt>
      <trkpt lat="42.97498" lon="-0.00694">
        <ele>1550</ele>
        <time>2024-08-15T07:59:48Z</time>
      </trkpt>
      <trkpt lat="42.97499" lon="-0.00692">
        <ele>1550.2</ele>
        <time>2024-08-15T07:59:49Z</time>
      </trkpt>
      <trkpt lat="42.975" lon="-0.00689">
        <ele>1550.4</ele>
        <time>2024-08-15T07:59:50Z</time>
      </trkpt>
      <trkpt lat="42.975" lon="-0.00686">
        <ele>1550.6</ele>
        <time>2024-08-15T07:59:51Z</time>
      </trkpt>
      <trkpt lat="42.97499" lon="-0.00683">
        <ele>1550.8</ele>
        <time>2024-08-15T07:59:52Z</time>
      </trkpt>
      <trkpt lat="42.97497" lon="-0.00681">
        <ele>1550.6</ele>
        <time>2024-08-15T07:59:53Z</time>
      </trkpt>
      <trkpt lat="42.97495" lon="-0.0068">
        <ele>1550.8</ele>
        <time>2024-08-15T07:59:54Z</time>
      </trkpt>
      <trkpt lat="42.97493" lon="-0.0068">
        <ele>1551</ele>
        <time>2024-08-15T07:59:55Z</time>
      </trkpt>
      <trkpt lat="42.97492" lon="-0.00681">
        <ele>1551.2</ele>
        <time>2024-08-15T07:59:56Z</time>
      </trkpt>
      <trkpt lat="42.9749" lon="-0.00682">
        <ele>1551.4</ele>
        <time>2024-08-15T07:59:57Z</time>
      </trkpt>
      <trkpt lat="42.97488" lon="-0.00683">
        <ele>1551.8</ele>
        <time>2024-08-15T07:59:58Z</time>
      </trkpt>
      <trkpt lat="42.97486" lon="-0.00685">
        <ele>1552</ele>
        <time>2024-08-15T07:59:59Z</time>
      </trkpt>
      <trkpt lat="42.97485" lon="-0.00686">
        <ele>1552.2</ele>
        <time>2024-08-15T08:00:00Z</time>
      </trkpt>
      <trkpt lat="42.97483" lon="-0.00688">
        <ele>1552.4</ele>
        <time>2024-08-15T08:00:01Z</time>
      </trkpt>
      <trkpt lat="42.97481" lon="-0.0069">
        <ele>1552.6</ele>
        <time>2024-08-15T08:00:02Z</time>
      </trkpt>
      <trkpt lat="42.9748" lon="-0.00692">
        <ele>1552.8</ele>
        <time>2024-08-15T08:00:03Z</time>
      </trkpt>
      <trkpt lat="42.97478" lon="-0.00694">
        <ele>1553</ele>
        <time>2024-08-15T08:00:04Z</time>
      </trkpt>
      <trkpt lat="42.97476" lon="-0.00696">
        <ele>1553.2</ele>
        <time>2024-08-15T08:00:05Z</time>
      </trkpt>
      <trkpt lat="42.97475" lon="-0.00697">
        <ele>1553.4</ele>
        <time>2024-08-15T08:00:06Z</time>
      </trkpt>
      <trkpt lat="42.97473" lon="-0.00698">
        <ele>1553.6</ele>
        <time>2024-08-15T08:00:07Z</time>
      </trkpt>
      <trkpt lat="42.97471" lon="-0.00699">
        <ele>1553.6</ele>
        <time>2024-08-15T08:00:08Z</time>
      </trkpt>
      <trkpt lat="42.97469" lon="-0.007">
        <ele>1553.6</ele>
        <time>2024-08-15T08:00:09Z</time>
      </trkpt>
      <trkpt lat="42.97467" lon="-0.00702">
        <ele>1553.8</ele>
        <time>2024-08-15T08:00:10Z</time>
      </trkpt>
      <trkpt lat="42.97466" lon="-0.00703">
        <ele>1553.8</ele>
        <time>2024-08-15T08:00:11Z</time>
      </trkpt>
      <trkpt lat="42.97464" lon="-0.00704">
        <ele>1554.2</ele>
        <time>2024-08-15T08:00:12Z</time>
      </trkpt>
      <trkpt lat="42.97462" lon="-0.00704">
        <ele>1554.4</ele>
        <time>2024-08-15T08:00:13Z</time>
      </trkpt>
      <trkpt lat="42.9746" lon="-0.00705">
        <ele>1554.4</ele>
        <time>2024-08-15T08:00:14Z</time>
      </trkpt>
      <trkpt lat="42.97458" lon="-0.00705">
        <ele>1554.8</ele>
        <time>2024-08-15T08:00:15Z</time>
      </trkpt>
      <trkpt lat="42.97456" lon="-0.00705">
        <ele>1554.8</ele>
        <time>2024-08-15T08:00:16Z</time>
      </trkpt>
      <trkpt lat="42.97454" lon="-0.00705">
        <ele>1555</ele>
        <time>2024-08-15T08:00:17Z</time>
      </trkpt>
      <trkpt lat="42.97452" lon="-0.00705">
        <ele>1555</ele>
        <time>2024-08-15T08:00:18Z</time>
      </trkpt>
      <trkpt lat="42.9745" lon="-0.00705">
        <ele>1555.2</ele>
        <time>2024-08-15T08:00:19Z</time>
      </trkpt>
      <trkpt lat="42.97448" lon="-0.00705">
        <ele>1555.4</ele>
        <time>2024-08-15T08:00:20Z</time>
      </trkpt>
      <trkpt lat="42.97446" lon="-0.00705">
        <ele>1555.6</ele>
        <time>2024-08-15T08:00:21Z</time>
      </trkpt>
      <trkpt lat="42.97443" lon="-0.00705">
        <ele>1556</ele>
        <time>2024-08-15T08:00:22Z</time>
      </trkpt>
      <trkpt lat="42.97441" lon="-0.00704">
        <ele>1556</ele>
        <time>2024-08-15T08:00:23Z</time>
      </trkpt>
      <trkpt lat="42.9744" lon="-0.00704">
        <ele>1556.4</ele>
        <time>2024-08-15T08:00:24Z</time>
      </trkpt>
      <trkpt lat="42.97438" lon="-0.00703">
        <ele>1556.6</ele>
        <time>2024-08-15T08:00:25Z</time>
      </trkpt>
      <trkpt lat="42.97435" lon="-0.00703">
        <ele>1557</ele>
        <time>2024-08-15T08:00:26Z</time>
      </trkpt>
      <trkpt lat="42.97433" lon="-0.00703">
        <ele>1557</ele>
        <time>2024-08-15T08:00:27Z</time>
      </trkpt>
      <trkpt lat="42.97431" lon="-0.00703">
        <ele>1557.4</ele>
        <time>2024-08-15T08:00:28Z</time>
      </trkpt>
      <trkpt lat="42.97429" lon="-0.00703">
        <ele>1557.6</ele>
        <time>2024-08-15T08:00:29Z</time>
      </trkpt>
      <trkpt lat="42.97427" lon="-0.00702">
        <ele>1557.6</ele>
        <time>2024-08-15T08:00:30Z</time>
      </trkpt>
      <trkpt lat="42.97425" lon="-0.00702">
        <ele>1558</ele>
        <time>2024-08-15T08:00:31Z</time>
      </trkpt>
      <trkpt lat="42.97423" lon="-0.00701">
        <ele>1558.2</ele>
        <time>2024-08-15T08:00:32Z</time>
      </trkpt>
      <trkpt lat="42.97421" lon="-0.00701">
        <ele>1558.4</ele>
        <time>2024-08-15T08:00:33Z</time>
      </trkpt>
      <trkpt lat="42.97418" lon="-0.007">
        <ele>1558.8</ele>
        <time>2024-08-15T08:00:34Z</time>
      </trkpt>
      <trkpt lat="42.97416" lon="-0.007">
        <ele>1558.8</ele>
        <time>2024-08-15T08:00:35Z</time>
      </trkpt>
      <trkpt lat="42.97414" lon="-0.00699">
        <ele>1559</ele>
        <time>2024-08-15T08:00:36Z</time>
      </trkpt>
      <trkpt lat="42.97412" lon="-0.00699">
        <ele>1559.2</ele>
        <time>2024-08-15T08:00:37Z</time>
      </trkpt>
      <trkpt lat="42.9741" lon="-0.00698">
        <ele>1559.4</ele>
        <time>2024-08-15T08:00:38Z</time>
      </trkpt>
      <trkpt lat="42.97408" lon="-0.00698">
        <ele>1559.6</ele>
        <time>2024-08-15T08:00:39Z</time>
      </trkpt>
      <trkpt lat="42.97406" lon="-0.00697">
        <ele>1560</ele>
        <time>2024-08-15T08:00:40Z</time>
      </trkpt>
      <trkpt lat="42.97404" lon="-0.00697">
        <ele>1560</ele>
        <time>2024-08-15T08:00:41Z</time>
      </trkpt>
      <trkpt lat="42.97402" lon="-0.00696">
        <ele>1560.2</ele>
        <time>2024-08-15T08:00:42Z</time>
      </trkpt>
      <trkpt lat="42.974" lon="-0.00696">
        <ele>1560.2</ele>
        <time>2024-08-15T08:00:43Z</time>
      </trkpt>
      <trkpt lat="42.97398" lon="-0.00695">
        <ele>1560.6</ele>
        <time>2024-08-15T08:00:44Z</time>
      </trkpt>
      <trkpt lat="42.97396" lon="-0.00694">
        <ele>1560.8</ele>
        <time>2024-08-15T08:00:45Z</time>
      </trkpt>
      <trkpt lat="42.97395" lon="-0.00693">
        <ele>1560.8</ele>
        <time>2024-08-15T08:00:46Z</time>
      </trkpt>
      <trkpt lat="42.97393" lon="-0.00693">
        <ele>1561.4</ele>
        <time>2024-08-15T08:00:47Z</time>
      </trkpt>
      <trkpt lat="42.97391" lon="-0.00692">
        <ele>1561.4</ele>
        <time>2024-08-15T08:00:48Z</time>
      </trkpt>
      <trkpt lat="42.97389" lon="-0.00691">
        <ele>1561.6</ele>
        <time>2024-08-15T08:00:49Z</time>
      </trkpt>
      <trkpt lat="42.97387" lon="-0.0069">
        <ele>1562</ele>
        <time>2024-08-15T08:00:50Z</time>
      </trkpt>
      <trkpt lat="42.97386" lon="-0.00689">
        <ele>1562.2</ele>
        <time>2024-08-15T08:00:51Z</time>
      </trkpt>
      <trkpt lat="42.97384" lon="-0.00688">
        <ele>1562.6</ele>
        <time>2024-08-15T08:00:52Z</time>
      </trkpt>
      <trkpt lat="42.97382" lon="-0.00687">
        <ele>1562.6</ele>
        <time>2024-08-15T08:00:53Z</time>
      </trkpt>
      <trkpt lat="42.97381" lon="-0.00685">
        <ele>1562.8</ele>
        <time>2024-08-15T08:00:54Z</time>
      </trkpt>
      <trkpt lat="42.97379" lon="-0.00684">
        <ele>1563.2</ele>
        <time>2024-08-15T08:00:55Z</time>
      </trkpt>
      <trkpt lat="42.97378" lon="-0.00682">
        <ele>1563.4</ele>
        <time>2024-08-15T08:00:56Z</time>
      </trkpt>
      <trkpt lat="42.97376" lon="-0.00681">
        <ele>1563.4</ele>
        <time>2024-08-15T08:00:57Z</time>
      </trkpt>
      <trkpt lat="42.97374" lon="-0.00679">
        <ele>1563.6</ele>
        <time>2024-08-15T08:00:58Z</time>
      </trkpt>
      <trkpt lat="42.97373" lon="-0.00677">
        <ele>1563.8</ele>
        <time>2024-08-15T08:00:59Z</time>
      </trkpt>
      <trkpt lat="42.97371" lon="-0.00676">
        <ele>1564</ele>
        <time>2024-08-15T08:01:00Z</time>
      </trkpt>
      <trkpt lat="42.9737" lon="-0.00674">
        <ele>1564.4</ele>
        <time>2024-08-15T08:01:01Z</time>
      </trkpt>
      <trkpt lat="42.97368" lon="-0.00673">
        <ele>1564.6</ele>
        <time>2024-08-15T08:01:02Z</time>
      </trkpt>
      <trkpt lat="42.97367" lon="-0.00672">
        <ele>1564.8</ele>
        <time>2024-08-15T08:01:03Z</time>
      </trkpt>
      <trkpt lat="42.97366" lon="-0.0067">
        <ele>1565</ele>
        <time>2024-08-15T08:01:04Z</time>
      </trkpt>
      <trkpt lat="42.97364" lon="-0.00669">
        <ele>1565.4</ele>
        <time>2024-08-15T08:01:05Z</time>
      </trkpt>
      <trkpt lat="42.97363" lon="-0.00668">
        <ele>1565.6</ele>
        <time>2024-08-15T08:01:06Z</time>
      </trkpt>
      <trkpt lat="42.97361" lon="-0.00666">
        <ele>1566</ele>
        <time>2024-08-15T08:01:07Z</time>
      </trkpt>
      <trkpt lat="42.9736" lon="-0.00665">
        <ele>1566.2</ele>
        <time>2024-08-15T08:01:08Z</time>
      </trkpt>
      <trkpt lat="42.97359" lon="-0.00663">
        <ele>1566.4</ele>
        <time>2024-08-15T08:01:09Z</time>
      </trkpt>
      <trkpt lat="42.97357" lon="-0.00662">
        <ele>1566.6</ele>
        <time>2024-08-15T08:01:10Z</time>
      </trkpt>
      <trkpt lat="42.97356" lon="-0.0066">
        <ele>1566.6</ele>
        <time>2024-08-15T08:01:11Z</time>
      </trkpt>
      <trkpt lat="42.97355" lon="-0.00658">
        <ele>1567</ele>
        <time>2024-08-15T08:01:12Z</time>
      </trkpt>
      <trkpt lat="42.97354" lon="-0.00656">
        <ele>1567</ele>
        <time>2024-08-15T08:01:13Z</time>
      </trkpt>
      <trkpt lat="42.97353" lon="-0.00654">
        <ele>1567.4</ele>
        <time>2024-08-15T08:01:14Z</time>
      </trkpt>
      <trkpt lat="42.97352" lon="-0.00652">
        <ele>1567.6</ele>
        <time>2024-08-15T08:01:15Z</time>
      </trkpt>
      <trkpt lat="42.97351" lon="-0.0065">
        <ele>1567.8</ele>
        <time>2024-08-15T08:01:16Z</time>
      </trkpt>
      <trkpt lat="42.97349" lon="-0.00647">
        <ele>1568.2</ele>
        <time>2024-08-15T08:01:17Z</time>
      </trkpt>
      <trkpt lat="42.97348" lon="-0.00645">
        <ele>1568.2</ele>
        <time>2024-08-15T08:01:18Z</time>
      </trkpt>
      <trkpt lat="42.97347" lon="-0.00643">
        <ele>1568.6</ele>
        <time>2024-08-15T08:01:19Z</time>
      </trkpt>
      <trkpt lat="42.97346" lon="-0.00641">
        <ele>1568.6</ele>
        <time>2024-08-15T08:01:20Z</time>
      </trkpt>
      <trkpt lat="42.97346" lon="-0.00639">
        <ele>1569</ele>
        <time>2024-08-15T08:01:21Z</time>
      </trkpt>
      <trkpt lat="42.97345" lon="-0.00636">
        <ele>1569.2</ele>
        <time>2024-08-15T08:01:22Z</time>
      </trkpt>
      <trkpt lat="42.97344" lon="-0.00634">
        <ele>1569.4</ele>
        <time>2024-08-15T08:01:23Z</time>
      </trkpt>
      <trkpt lat="42.97343" lon="-0.00631">
        <ele>1569.8</ele>
        <time>2024-08-15T08:01:24Z</time>
      </trkpt>
      <trkpt lat="42.97343" lon="-0.00629">
        <ele>1569.8</ele>
        <time>2024-08-15T08:01:25Z</time>
      </trkpt>
      <trkpt lat="42.97342" lon="-0.00627">
        <ele>1569.8</ele>
        <time>2024-08-15T08:01:26Z</time>
      </trkpt>
      <trkpt lat="42.97341" lon="-0.00625">
        <ele>1570</ele>
        <time>2024-08-15T08:01:27Z</time>
      </trkpt>
      <trkpt lat="42.9734" lon="-0.00623">
        <ele>1570.4</ele>
        <time>2024-08-15T08:01:28Z</time>
      </trkpt>
      <trkpt lat="42.97339" lon="-0.0062">
        <ele>1570.4</ele>
        <time>2024-08-15T08:01:29Z</time>
      </trkpt>
      <trkpt lat="42.97338" lon="-0.00618">
        <ele>1570.6</ele>
        <time>2024-08-15T08:01:30Z</time>
      </trkpt>
      <trkpt lat="42.97338" lon="-0.00615">
        <ele>1570.8</ele>
        <time>2024-08-15T08:01:31Z</time>
      </trkpt>
      <trkpt lat="42.97337" lon="-0.00613">
        <ele>1571</ele>
        <time>2024-08-15T08:01:32Z</time>
      </trkpt>
      <trkpt lat="42.97336" lon="-0.0061">
        <ele>1571.2</ele>
        <time>2024-08-15T08:01:33Z</time>
      </trkpt>
      <trkpt lat="42.97335" lon="-0.00608">
        <ele>1571.4</ele>
        <time>2024-08-15T08:01:34Z</time>
      </trkpt>
      <trkpt lat="42.97334" lon="-0.00606">
        <ele>1571.6</ele>
        <time>2024-08-15T08:01:35Z</time>
      </trkpt>
      <trkpt lat="42.97333" lon="-0.00604">
        <ele>1571.8</ele>
        <time>2024-08-15T08:01:36Z</time>
      </trkpt>
      <trkpt lat="42.97332" lon="-0.00602">
        <ele>1572</ele>
        <time>2024-08-15T08:01:37Z</time>
      </trkpt>
      <trkpt lat="42.97331" lon="-0.006">
        <ele>1572.2</ele>
        <time>2024-08-15T08:01:38Z</time>
      </trkpt>
      <trkpt lat="42.9733" lon="-0.00598">
        <ele>1572.4</ele>
        <time>2024-08-15T08:01:39Z</time>
      </trkpt>
      <trkpt lat="42.97329" lon="-0.00596">
        <ele>1572.8</ele>
        <time>2024-08-15T08:01:40Z</time>
      </trkpt>
      <trkpt lat="42.97328" lon="-0.00594">
        <ele>1572.8</ele>
        <time>2024-08-15T08:01:41Z</time>
      </trkpt>
      <trkpt lat="42.97327" lon="-0.00592">
        <ele>1573</ele>
        <time>2024-08-15T08:01:42Z</time>
      </trkpt>
      <trkpt lat="42.97326" lon="-0.0059">
        <ele>1573</ele>
        <time>2024-08-15T08:01:43Z</time>
      </trkpt>
      <trkpt lat="42.97325" lon="-0.00588">
        <ele>1573.4</ele>
        <time>2024-08-15T08:01:44Z</time>
      </trkpt>
      <trkpt lat="42.97323" lon="-0.00585">
        <ele>1573.6</ele>
        <time>2024-08-15T08:01:45Z</time>
      </trkpt>
      <trkpt lat="42.97322" lon="-0.00583">
        <ele>1573.8</ele>
        <time>2024-08-15T08:01:46Z</time>
      </trkpt>
      <trkpt lat="42.97321" lon="-0.00582">
        <ele>1574</ele>
        <time>2024-08-15T08:01:47Z</time>
      </trkpt>
      <trkpt lat="42.9732" lon="-0.0058">
        <ele>1574.2</ele>
        <time>2024-08-15T08:01:48Z</time>
      </trkpt>
      <trkpt lat="42.97319" lon="-0.00578">
        <ele>1574.4</ele>
        <time>2024-08-15T08:01:49Z</time>
      </trkpt>
      <trkpt lat="42.97318" lon="-0.00577">
        <ele>1574.6</ele>
        <time>2024-08-15T08:01:50Z</time>
      </trkpt>
      <trkpt lat="42.97317" lon="-0.00575">
        <ele>1575</ele>
        <time>2024-08-15T08:01:51Z</time>
      </trkpt>
      <trkpt lat="42.97315" lon="-0.00573">
        <ele>1575</ele>
        <time>2024-08-15T08:01:52Z</time>
      </trkpt>
      <trkpt lat="42.97314" lon="-0.00571">
        <ele>1575.2</ele>
        <time>2024-08-15T08:01:53Z</time>
      </trkpt>
      <trkpt lat="42.97313" lon="-0.00569">
        <ele>1575.4</ele>
        <time>2024-08-15T08:01:54Z</time>
      </trkpt>
      <trkpt lat="42.97311" lon="-0.00567">
        <ele>1575.6</ele>
        <time>2024-08-15T08:01:55Z</time>
      </trkpt>
      <trkpt lat="42.9731" lon="-0.00565">
        <ele>1576</ele>
        <time>2024-08-15T08:01:56Z</time>
      </trkpt>
      <trkpt lat="42.97308" lon="-0.00563">
        <ele>1576.2</ele>
        <time>2024-08-15T08:01:57Z</time>
      </trkpt>
      <trkpt lat="42.97306" lon="-0.00562">
        <ele>1576.4</ele>
        <time>2024-08-15T08:01:58Z</time>
      </trkpt>
      <trkpt lat="42.97305" lon="-0.0056">
        <ele>1576.6</ele>
        <time>2024-08-15T08:01:59Z</time>
      </trkpt>
      <trkpt lat="42.97303" lon="-0.00558">
        <ele>1577</ele>
        <time>2024-08-15T08:02:00Z</time>
      </trkpt>
      <trkpt lat="42.97301" lon="-0.00556">
        <ele>1577.2</ele>
        <time>2024-08-15T08:02:01Z</time>
      </trkpt>
      <trkpt lat="42.973" lon="-0.00555">
        <ele>1577.4</ele>
        <time>2024-08-15T08:02:02Z</time>
      </trkpt>
      <trkpt lat="42.97298" lon="-0.00553">
        <ele>1577.6</ele>
        <time>2024-08-15T08:02:03Z</time>
      </trkpt>
      <trkpt lat="42.97297" lon="-0.00551">
        <ele>1577.8</ele>
        <time>2024-08-15T08:02:04Z</time>
      </trkpt>
      <trkpt lat="42.97295" lon="-0.0055">
        <ele>1578.2</ele>
        <time>2024-08-15T08:02:05Z</time>
      </trkpt>
      <trkpt lat="42.97293" lon="-0.00548">
        <ele>1578.4</ele>
        <time>2024-08-15T08:02:06Z</time>
      </trkpt>
      <trkpt lat="42.97292" lon="-0.00547">
        <ele>1578.6</ele>
        <time>2024-08-15T08:02:07Z</time>
      </trkpt>
      <trkpt lat="42.9729" lon="-0.00546">
        <ele>1579</ele>
        <time>2024-08-15T08:02:08Z</time>
      </trkpt>
      <trkpt lat="42.97289" lon="-0.00544">
        <ele>1579</ele>
        <time>2024-08-15T08:02:09Z</time>
      </trkpt>
      <trkpt lat="42.97287" lon="-0.00543">
        <ele>1579.4</ele>
        <time>2024-08-15T08:02:10Z</time>
      </trkpt>
      <trkpt lat="42.97286" lon="-0.00541">
        <ele>1579.8</ele>
        <time>2024-08-15T08:02:11Z</time>
      </trkpt>
      <trkpt lat="42.97284" lon="-0.0054">
        <ele>1580</ele>
        <time>2024-08-15T08:02:12Z</time>
      </trkpt>
      <trkpt lat="42.97283" lon="-0.00538">
        <ele>1580.2</ele>
        <time>2024-08-15T08:02:13Z</time>
      </trkpt>
      <trkpt lat="42.97281" lon="-0.00536">
        <ele>1580.6</ele>
        <time>2024-08-15T08:02:14Z</time>
      </trkpt>
      <trkpt lat="42.9728" lon="-0.00535">
        <ele>1580.8</ele>
        <time>2024-08-15T08:02:15Z</time>
      </trkpt>
      <trkpt lat="42.97278" lon="-0.00533">
        <ele>1581</ele>
        <time>2024-08-15T08:02:16Z</time>
      </trkpt>
      <trkpt lat="42.97277" lon="-0.00531">
        <ele>1581.2</ele>
        <time>2024-08-15T08:02:17Z</time>
      </trkpt>
      <trkpt lat="42.97275" lon="-0.0053">
        <ele>1581.2</ele>
        <time>2024-08-15T08:02:18Z</time>
      </trkpt>
      <trkpt lat="42.97273" lon="-0.00528">
        <ele>1581.6</ele>
        <time>2024-08-15T08:02:19Z</time>
      </trkpt>
      <trkpt lat="42.97271" lon="-0.00527">
        <ele>1581.8</ele>
        <time>2024-08-15T08:02:20Z</time>
      </trkpt>
      <trkpt lat="42.9727" lon="-0.00525">
        <ele>1582</ele>
        <time>2024-08-15T08:02:21Z</time>
      </trkpt>
      <trkpt lat="42.97268" lon="-0.00523">
        <ele>1582</ele>
        <time>2024-08-15T08:02:22Z</time>
      </trkpt>
      <trkpt lat="42.97267" lon="-0.00521">
        <ele>1582.2</ele>
        <time>2024-08-15T08:02:23Z</time>
      </trkpt>
      <trkpt lat="42.97266" lon="-0.0052">
        <ele>1582.4</ele>
        <time>2024-08-15T08:02:24Z</time>
      </trkpt>
      <trkpt lat="42.97264" lon="-0.00518">
        <ele>1582.4</ele>
        <time>2024-08-15T08:02:25Z</time>
      </trkpt>
      <trkpt lat="42.97263" lon="-0.00516">
        <ele>1582.6</ele>
        <time>2024-08-15T08:02:26Z</time>
      </trkpt>
      <trkpt lat="42.97262" lon="-0.00514">
        <ele>1582.8</ele>
        <time>2024-08-15T08:02:27Z</time>
      </trkpt>
      <trkpt lat="42.9726" lon="-0.00512">
        <ele>1583</ele>
        <time>2024-08-15T08:02:28Z</time>
      </trkpt>
      <trkpt lat="42.97259" lon="-0.0051">
        <ele>1583.2</ele>
        <time>2024-08-15T08:02:29Z</time>
      </trkpt>
      <trkpt lat="42.97258" lon="-0.00508">
        <ele>1583.6</ele>
        <time>2024-08-15T08:02:30Z</time>
      </trkpt>
      <trkpt lat="42.97257" lon="-0.00506">
        <ele>1583.8</ele>
        <time>2024-08-15T08:02:31Z</time>
      </trkpt>
      <trkpt lat="42.97255" lon="-0.00504">
        <ele>1583.8</ele>
        <time>2024-08-15T08:02:32Z</time>
      </trkpt>
      <trkpt lat="42.97253" lon="-0.00502">
        <ele>1584.2</ele>
        <time>2024-08-15T08:02:33Z</time>
      </trkpt>
      <trkpt lat="42.97252" lon="-0.005">
        <ele>1584.2</ele>
        <time>2024-08-15T08:02:34Z</time>
      </trkpt>
      <trkpt lat="42.9725" lon="-0.00498">
        <ele>1584.6</ele>
        <time>2024-08-15T08:02:35Z</time>
      </trkpt>
      <trkpt lat="42.97249" lon="-0.00497">
        <ele>1584.8</ele>
        <time>2024-08-15T08:02:36Z</time>
      </trkpt>
      <trkpt lat="42.97247" lon="-0.00495">
        <ele>1585</ele>
        <time>2024-08-15T08:02:37Z</time>
      </trkpt>
      <trkpt lat="42.97246" lon="-0.00493">
        <ele>1585.2</ele>
        <time>2024-08-15T08:02:38Z</time>
      </trkpt>
      <trkpt lat="42.97244" lon="-0.00491">
        <ele>1585.4</ele>
        <time>2024-08-15T08:02:39Z</time>
      </trkpt>
      <trkpt lat="42.97243" lon="-0.00489">
        <ele>1585.6</ele>
        <time>2024-08-15T08:02:40Z</time>
      </trkpt>
      <trkpt lat="42.97242" lon="-0.00487">
        <ele>1585.8</ele>
        <time>2024-08-15T08:02:41Z</time>
      </trkpt>
      <trkpt lat="42.9724" lon="-0.00485">
        <ele>1585.8</ele>
        <time>2024-08-15T08:02:42Z</time>
      </trkpt>
      <trkpt lat="42.97239" lon="-0.00483">
        <ele>1586</ele>
        <time>2024-08-15T08:02:43Z</time>
      </trkpt>
      <trkpt lat="42.97238" lon="-0.00481">
        <ele>1586.2</ele>
        <time>2024-08-15T08:02:44Z</time>
      </trkpt>
      <trkpt lat="42.97236" lon="-0.00479">
        <ele>1586.4</ele>
        <time>2024-08-15T08:02:45Z</time>
      </trkpt>
      <trkpt lat="42.97235" lon="-0.00478">
        <ele>1586.6</ele>
        <time>2024-08-15T08:02:46Z</time>
      </trkpt>
      <trkpt lat="42.97233" lon="-0.00476">
        <ele>1587</ele>
        <time>2024-08-15T08:02:47Z</time>
      </trkpt>
      <trkpt lat="42.97232" lon="-0.00475">
        <ele>1587</ele>
        <time>2024-08-15T08:02:48Z</time>
      </trkpt>
      <trkpt lat="42.9723" lon="-0.00474">
        <ele>1587.4</ele>
        <time>2024-08-15T08:02:49Z</time>
      </trkpt>
      <trkpt lat="42.97229" lon="-0.00472">
        <ele>1587.6</ele>
        <time>2024-08-15T08:02:50Z</time>
      </trkpt>
      <trkpt lat="42.97227" lon="-0.0047">
        <ele>1587.8</ele>
        <time>2024-08-15T08:02:51Z</time>
      </trkpt>
      <trkpt lat="42.97226" lon="-0.00468">
        <ele>1587.8</ele>
        <time>2024-08-15T08:02:52Z</time>
      </trkpt>
      <trkpt lat="42.97225" lon="-0.00467">
        <ele>1588</ele>
        <time>2024-08-15T08:02:53Z</time>
      </trkpt>
      <trkpt lat="42.97223" lon="-0.00465">
        <ele>1588.2</ele>
        <time>2024-08-15T08:02:54Z</time>
      </trkpt>
      <trkpt lat="42.97222" lon="-0.00463">
        <ele>1588.4</ele>
        <time>2024-08-15T08:02:55Z</time>
      </trkpt>
      <trkpt lat="42.97221" lon="-0.00461">
        <ele>1588.6</ele>
        <time>2024-08-15T08:02:56Z</time>
      </trkpt>
      <trkpt lat="42.97219" lon="-0.0046">
        <ele>1588.6</ele>
        <time>2024-08-15T08:02:57Z</time>
      </trkpt>
      <trkpt lat="42.97218" lon="-0.00458">
        <ele>1588.8</ele>
        <time>2024-08-15T08:02:58Z</time>
      </trkpt>
      <trkpt lat="42.97216" lon="-0.00456">
        <ele>1589</ele>
        <time>2024-08-15T08:02:59Z</time>
      </trkpt>
      <trkpt lat="42.97215" lon="-0.00454">
        <ele>1589.4</ele>
        <time>2024-08-15T08:03:00Z</time>
      </trkpt>
      <trkpt lat="42.97213" lon="-0.00452">
        <ele>1589.4</ele>
        <time>2024-08-15T08:03:01Z</time>
      </trkpt>
      <trkpt lat="42.97212" lon="-0.0045">
        <ele>1589.8</ele>
        <time>2024-08-15T08:03:02Z</time>
      </trkpt>
      <trkpt lat="42.97211" lon="-0.00449">
        <ele>1590</ele>
        <time>2024-08-15T08:03:03Z</time>
      </trkpt>
      <trkpt lat="42.97209" lon="-0.00447">
        <ele>1590.2</ele>
        <time>2024-08-15T08:03:04Z</time>
      </trkpt>
      <trkpt lat="42.97208" lon="-0.00445">
        <ele>1590.4</ele>
        <time>2024-08-15T08:03:05Z</time>
      </trkpt>
      <trkpt lat="42.97207" lon="-0.00443">
        <ele>1590.2</ele>
        <time>2024-08-15T08:03:06Z</time>
      </trkpt>
      <trkpt lat="42.97206" lon="-0.00441">
        <ele>1590.6</ele>
        <time>2024-08-15T08:03:07Z</time>
      </trkpt>
      <trkpt lat="42.97204" lon="-0.00439">
        <ele>1590.8</ele>
        <time>2024-08-15T08:03:08Z</time>
      </trkpt>
      <trkpt lat="42.97203" lon="-0.00437">
        <ele>1591</ele>
        <time>2024-08-15T08:03:09Z</time>
      </trkpt>
      <trkpt lat="42.97201" lon="-0.00435">
        <ele>1591.2</ele>
        <time>2024-08-15T08:03:10Z</time>
      </trkpt>
      <trkpt lat="42.972" lon="-0.00433">
        <ele>1591.4</ele>
        <time>2024-08-15T08:03:11Z</time>
      </trkpt>
      <trkpt lat="42.97199" lon="-0.00431">
        <ele>1591.6</ele>
        <time>2024-08-15T08:03:12Z</time>
      </trkpt>
      <trkpt lat="42.97197" lon="-0.00429">
        <ele>1591.8</ele>
        <time>2024-08-15T08:03:13Z</time>
      </trkpt>
      <trkpt lat="42.97196" lon="-0.00427">
        <ele>1592</ele>
        <time>2024-08-15T08:03:14Z</time>
      </trkpt>
      <trkpt lat="42.97195" lon="-0.00425">
        <ele>1592.2</ele>
        <time>2024-08-15T08:03:15Z</time>
      </trkpt>
      <trkpt lat="42.97193" lon="-0.00423">
        <ele>1592.2</ele>
        <time>2024-08-15T08:03:16Z</time>
      </trkpt>
      <trkpt lat="42.97192" lon="-0.00421">
        <ele>1592.4</ele>
        <time>2024-08-15T08:03:17Z</time>
      </trkpt>
      <trkpt lat="42.97191" lon="-0.00419">
        <ele>1592.6</ele>
        <time>2024-08-15T08:03:18Z</time>
      </trkpt>
      <trkpt lat="42.9719" lon="-0.00417">
        <ele>1592.8</ele>
        <time>2024-08-15T08:03:19Z</time>
      </trkpt>
      <trkpt lat="42.97188" lon="-0.00415">
        <ele>1593</ele>
        <time>2024-08-15T08:03:20Z</time>
      </trkpt>
      <trkpt lat="42.97187" lon="-0.00412">
        <ele>1593.2</ele>
        <time>2024-08-15T08:03:21Z</time>
      </trkpt>
      <trkpt lat="42.97186" lon="-0.00411">
        <ele>1593.2</ele>
        <time>2024-08-15T08:03:22Z</time>
      </trkpt>
      <trkpt lat="42.97185" lon="-0.00409">
        <ele>1593.6</ele>
        <time>2024-08-15T08:03:23Z</time>
      </trkpt>
      <trkpt lat="42.97184" lon="-0.00406">
        <ele>1593.6</ele>
        <time>2024-08-15T08:03:24Z</time>
      </trkpt>
      <trkpt lat="42.97183" lon="-0.00404">
        <ele>1594</ele>
        <time>2024-08-15T08:03:25Z</time>
      </trkpt>
      <trkpt lat="42.97182" lon="-0.00401">
        <ele>1594</ele>
        <time>2024-08-15T08:03:26Z</time>
      </trkpt>
      <trkpt lat="42.97181" lon="-0.00399">
        <ele>1594.2</ele>
        <time>2024-08-15T08:03:27Z</time>
      </trkpt>
      <trkpt lat="42.9718" lon="-0.00396">
        <ele>1594.6</ele>
        <time>2024-08-15T08:03:28Z</time>
      </trkpt>
      <trkpt lat="42.97179" lon="-0.00394">
        <ele>1594.8</ele>
        <time>2024-08-15T08:03:29Z</time>
      </trkpt>
      <trkpt lat="42.97178" lon="-0.00392">
        <ele>1595</ele>
        <time>2024-08-15T08:03:30Z</time>
      </trkpt>
      <trkpt lat="42.97176" lon="-0.0039">
        <ele>1595</ele>
        <time>2024-08-15T08:03:31Z</time>
      </trkpt>
      <trkpt lat="42.97175" lon="-0.00388">
        <ele>1595.2</ele>
        <time>2024-08-15T08:03:32Z</time>
      </trkpt>
      <trkpt lat="42.97174" lon="-0.00385">
        <ele>1595.2</ele>
        <time>2024-08-15T08:03:33Z</time>
      </trkpt>
      <trkpt lat="42.97173" lon="-0.00383">
        <ele>1595.4</ele>
        <time>2024-08-15T08:03:34Z</time>
      </trkpt>
      <trkpt lat="42.97172" lon="-0.00381">
        <ele>1595.6</ele>
        <time>2024-08-15T08:03:35Z</time>
      </trkpt>
      <trkpt lat="42.97171" lon="-0.00379">
        <ele>1595.8</ele>
        <time>2024-08-15T08:03:36Z</time>
      </trkpt>
      <trkpt lat="42.9717" lon="-0.00378">
        <ele>1596</ele>
        <time>2024-08-15T08:03:37Z</time>
      </trkpt>
      <trkpt lat="42.97169" lon="-0.00375">
        <ele>1596.2</ele>
        <time>2024-08-15T08:03:38Z</time>
      </trkpt>
      <trkpt lat="42.97168" lon="-0.00372">
        <ele>1596.4</ele>
        <time>2024-08-15T08:03:39Z</time>
      </trkpt>
      <trkpt lat="42.97167" lon="-0.0037">
        <ele>1596.6</ele>
        <time>2024-08-15T08:03:40Z</time>
      </trkpt>
      <trkpt lat="42.97166" lon="-0.00368">
        <ele>1596.8</ele>
        <time>2024-08-15T08:03:41Z</time>
      </trkpt>
      <trkpt lat="42.97165" lon="-0.00366">
        <ele>1597</ele>
        <time>2024-08-15T08:03:42Z</time>
      </trkpt>
      <trkpt lat="42.97164" lon="-0.00363">
        <ele>1597.2</ele>
        <time>2024-08-15T08:03:43Z</time>
      </trkpt>
      <trkpt lat="42.97163" lon="-0.00361">
        <ele>1597.4</ele>
        <time>2024-08-15T08:03:44Z</time>
      </trkpt>
      <trkpt lat="42.97162" lon="-0.00358">
        <ele>1597.6</ele>
        <time>2024-08-15T08:03:45Z</time>
      </trkpt>
      <trkpt lat="42.97161" lon="-0.00356">
        <ele>1598</ele>
        <time>2024-08-15T08:03:46Z</time>
      </trkpt>
      <trkpt lat="42.9716" lon="-0.00353">
        <ele>1598.2</ele>
        <time>2024-08-15T08:03:47Z</time>
      </trkpt>
      <trkpt lat="42.97159" lon="-0.00351">
        <ele>1598.4</ele>
        <time>2024-08-15T08:03:48Z</time>
      </trkpt>
      <trkpt lat="42.97158" lon="-0.00349">
        <ele>1598.6</ele>
        <time>2024-08-15T08:03:49Z</time>
      </trkpt>
      <trkpt lat="42.97157" lon="-0.00347">
        <ele>1598.8</ele>
        <time>2024-08-15T08:03:50Z</time>
      </trkpt>
      <trkpt lat="42.97156" lon="-0.00345">
        <ele>1599.2</ele>
        <time>2024-08-15T08:03:51Z</time>
      </trkpt>
      <trkpt lat="42.97155" lon="-0.00343">
        <ele>1599.4</ele>
        <time>2024-08-15T08:03:52Z</time>
      </trkpt>
      <trkpt lat="42.97154" lon="-0.00341">
        <ele>1599.6</ele>
        <time>2024-08-15T08:03:53Z</time>
      </trkpt>
      <trkpt lat="42.97153" lon="-0.00338">
        <ele>1599.6</ele>
        <time>2024-08-15T08:03:54Z</time>
      </trkpt>
      <trkpt lat="42.97152" lon="-0.00336">
        <ele>1599.8</ele>
        <time>2024-08-15T08:03:55Z</time>
      </trkpt>
      <trkpt lat="42.97151" lon="-0.00334">
        <ele>1600.2</ele>
        <time>2024-08-15T08:03:56Z</time>
      </trkpt>
      <trkpt lat="42.97151" lon="-0.00331">
        <ele>1600.4</ele>
        <time>2024-08-15T08:03:57Z</time>
      </trkpt>
      <trkpt lat="42.97151" lon="-0.00329">
        <ele>1600.6</ele>
        <time>2024-08-15T08:03:58Z</time>
      </trkpt>
      <trkpt lat="42.9715" lon="-0.00326">
        <ele>1600.8</ele>
        <time>2024-08-15T08:03:59Z</time>
      </trkpt>
      <trkpt lat="42.9715" lon="-0.00324">
        <ele>1601</ele>
        <time>2024-08-15T08:04:00Z</time>
      </trkpt>
      <trkpt lat="42.97151" lon="-0.00321">
        <ele>1601.2</ele>
        <time>2024-08-15T08:04:01Z</time>
      </trkpt>
      <trkpt lat="42.97152" lon="-0.00319">
        <ele>1601.4</ele>
        <time>2024-08-15T08:04:02Z</time>
      </trkpt>
      <trkpt lat="42.97154" lon="-0.00318">
        <ele>1601.6</ele>
        <time>2024-08-15T08:04:03Z</time>
      </trkpt>
      <trkpt lat="42.97157" lon="-0.00318">
        <ele>1601.6</ele>
        <time>2024-08-15T08:04:04Z</time>
      </trkpt>
      <trkpt lat="42.97159" lon="-0.00318">
        <ele>1601.8</ele>
        <time>2024-08-15T08:04:05Z</time>
      </trkpt>
      <trkpt lat="42.97161" lon="-0.00319">
        <ele>1601.8</ele>
        <time>2024-08-15T08:04:06Z</time>
      </trkpt>
      <trkpt lat="42.97163" lon="-0.00321">
        <ele>1602</ele>
        <time>2024-08-15T08:04:07Z</time>
      </trkpt>
      <trkpt lat="42.97164" lon="-0.00323">
        <ele>1602</ele>
        <time>2024-08-15T08:04:08Z</time>
      </trkpt>
      <trkpt lat="42.97167" lon="-0.00326">
        <ele>1602.2</ele>
        <time>2024-08-15T08:04:09Z</time>
      </trkpt>
      <trkpt lat="42.97168" lon="-0.00327">
        <ele>1602.2</ele>
        <time>2024-08-15T08:04:10Z</time>
      </trkpt>
      <trkpt lat="42.9717" lon="-0.00329">
        <ele>1602.4</ele>
        <time>2024-08-15T08:04:11Z</time>
      </trkpt>
      <trkpt lat="42.97173" lon="-0.00333">
        <ele>1602.4</ele>
        <time>2024-08-15T08:04:12Z</time>
      </trkpt>
      <trkpt lat="42.97175" lon="-0.00335">
        <ele>1602.4</ele>
        <time>2024-08-15T08:04:13Z</time>
      </trkpt>
      <trkpt lat="42.97177" lon="-0.00338">
        <ele>1602.4</ele>
        <time>2024-08-15T08:04:14Z</time>
      </trkpt>
      <trkpt lat="42.97178" lon="-0.00341">
        <ele>1602.4</ele>
        <time>2024-08-15T08:04:15Z</time>
      </trkpt>
      <trkpt lat="42.9718" lon="-0.00343">
        <ele>1602.4</ele>
        <time>2024-08-15T08:04:16Z</time>
      </trkpt>
      <trkpt lat="42.97181" lon="-0.00345">
        <ele>1602.4</ele>
        <time>2024-08-15T08:04:17Z</time>
      </trkpt>
      <trkpt lat="42.97183" lon="-0.00347">
        <ele>1602.6</ele>
        <time>2024-08-15T08:04:18Z</time>
      </trkpt>
      <trkpt lat="42.97185" lon="-0.0035">
        <ele>1602.8</ele>
        <time>2024-08-15T08:04:19Z</time>
      </trkpt>
      <trkpt lat="42.97186" lon="-0.00352">
        <ele>1602.8</ele>
        <time>2024-08-15T08:04:20Z</time>
      </trkpt>
      <trkpt lat="42.97188" lon="-0.00355">
        <ele>1603</ele>
        <time>2024-08-15T08:04:21Z</time>
      </trkpt>
      <trkpt lat="42.9719" lon="-0.00357">
        <ele>1603</ele>
        <time>2024-08-15T08:04:22Z</time>
      </trkpt>
      <trkpt lat="42.97192" lon="-0.00359">
        <ele>1603.4</ele>
        <time>2024-08-15T08:04:23Z</time>
      </trkpt>
      <trkpt lat="42.97194" lon="-0.00361">
        <ele>1603.4</ele>
        <time>2024-08-15T08:04:24Z</time>
      </trkpt>
      <trkpt lat="42.97196" lon="-0.00363">
        <ele>1603.6</ele>
        <time>2024-08-15T08:04:25Z</time>
      </trkpt>
      <trkpt lat="42.97198" lon="-0.00365">
        <ele>1603.6</ele>
        <time>2024-08-15T08:04:26Z</time>
      </trkpt>
      <trkpt lat="42.97199" lon="-0.00368">
        <ele>1603.8</ele>
        <time>2024-08-15T08:04:27Z</time>
      </trkpt>
      <trkpt lat="42.97201" lon="-0.0037">
        <ele>1604.2</ele>
        <time>2024-08-15T08:04:28Z</time>
      </trkpt>
      <trkpt lat="42.97203" lon="-0.00372">
        <ele>1604.4</ele>
        <time>2024-08-15T08:04:29Z</time>
      </trkpt>
      <trkpt lat="42.97204" lon="-0.00374">
        <ele>1604.6</ele>
        <time>2024-08-15T08:04:30Z</time>
      </trkpt>
      <trkpt lat="42.97206" lon="-0.00377">
        <ele>1604.6</ele>
        <time>2024-08-15T08:04:31Z</time>
      </trkpt>
      <trkpt lat="42.97208" lon="-0.00379">
        <ele>1604.8</ele>
        <time>2024-08-15T08:04:32Z</time>
      </trkpt>
      <trkpt lat="42.9721" lon="-0.0038">
        <ele>1604.8</ele>
        <time>2024-08-15T08:04:33Z</time>
      </trkpt>
      <trkpt lat="42.97212" lon="-0.00382">
        <ele>1605.2</ele>
        <time>2024-08-15T08:04:34Z</time>
      </trkpt>
      <trkpt lat="42.97214" lon="-0.00384">
        <ele>1605.4</ele>
        <time>2024-08-15T08:04:35Z</time>
      </trkpt>
      <trkpt lat="42.97216" lon="-0.00386">
        <ele>1605.6</ele>
        <time>2024-08-15T08:04:36Z</time>
      </trkpt>
      <trkpt lat="42.97218" lon="-0.00387">
        <ele>1605.6</ele>
        <time>2024-08-15T08:04:37Z</time>
      </trkpt>
      <trkpt lat="42.9722" lon="-0.00388">
        <ele>1605.8</ele>
        <time>2024-08-15T08:04:38Z</time>
      </trkpt>
      <trkpt lat="42.97222" lon="-0.0039">
        <ele>1606</ele>
        <time>2024-08-15T08:04:39Z</time>
      </trkpt>
      <trkpt lat="42.97224" lon="-0.00391">
        <ele>1606</ele>
        <time>2024-08-15T08:04:40Z</time>
      </trkpt>
      <trkpt lat="42.97226" lon="-0.00393">
        <ele>1606.2</ele>
        <time>2024-08-15T08:04:41Z</time>
      </trkpt>
      <trkpt lat="42.97228" lon="-0.00394">
        <ele>1606.4</ele>
        <time>2024-08-15T08:04:42Z</time>
      </trkpt>
      <trkpt lat="42.9723" lon="-0.00396">
        <ele>1606.4</ele>
        <time>2024-08-15T08:04:43Z</time>
      </trkpt>
      <trkpt lat="42.97232" lon="-0.00397">
        <ele>1606.6</ele>
        <time>2024-08-15T08:04:44Z</time>
      </trkpt>
      <trkpt lat="42.97235" lon="-0.00399">
        <ele>1606.6</ele>
        <time>2024-08-15T08:04:45Z</time>
      </trkpt>
      <trkpt lat="42.97238" lon="-0.00401">
        <ele>1606.8</ele>
        <time>2024-08-15T08:04:46Z</time>
      </trkpt>
      <trkpt lat="42.9724" lon="-0.00402">
        <ele>1606.8</ele>
        <time>2024-08-15T08:04:47Z</time>
      </trkpt>
      <trkpt lat="42.97242" lon="-0.00403">
        <ele>1606.8</ele>
        <time>2024-08-15T08:04:48Z</time>
      </trkpt>
      <trkpt lat="42.97244" lon="-0.00405">
        <ele>1607</ele>
        <time>2024-08-15T08:04:49Z</time>
      </trkpt>
      <trkpt lat="42.97247" lon="-0.00406">
        <ele>1607.2</ele>
        <time>2024-08-15T08:04:50Z</time>
      </trkpt>
      <trkpt lat="42.97249" lon="-0.00407">
        <ele>1607.4</ele>
        <time>2024-08-15T08:04:51Z</time>
      </trkpt>
      <trkpt lat="42.97251" lon="-0.00408">
        <ele>1607.4</ele>
        <time>2024-08-15T08:04:52Z</time>
      </trkpt>
      <trkpt lat="42.97253" lon="-0.00409">
        <ele>1607.6</ele>
        <time>2024-08-15T08:04:53Z</time>
      </trkpt>
      <trkpt lat="42.97255" lon="-0.0041">
        <ele>1607.6</ele>
        <time>2024-08-15T08:04:54Z</time>
      </trkpt>
      <trkpt lat="42.97258" lon="-0.00411">
        <ele>1607.8</ele>
        <time>2024-08-15T08:04:55Z</time>
      </trkpt>
      <trkpt lat="42.9726" lon="-0.00412">
        <ele>1608</ele>
        <time>2024-08-15T08:04:56Z</time>
      </trkpt>
      <trkpt lat="42.97262" lon="-0.00414">
        <ele>1608.2</ele>
        <time>2024-08-15T08:04:57Z</time>
      </trkpt>
      <trkpt lat="42.97264" lon="-0.00415">
        <ele>1608.4</ele>
        <time>2024-08-15T08:04:58Z</time>
      </trkpt>
      <trkpt lat="42.97267" lon="-0.00416">
        <ele>1608.6</ele>
        <time>2024-08-15T08:04:59Z</time>
      </trkpt>
      <trkpt lat="42.97269" lon="-0.00417">
        <ele>1608.6</ele>
        <time>2024-08-15T08:05:00Z</time>
      </trkpt>
      <trkpt lat="42.97271" lon="-0.00417">
        <ele>1608.8</ele>
        <time>2024-08-15T08:05:01Z</time>
      </trkpt>
      <trkpt lat="42.97273" lon="-0.00418">
        <ele>1608.8</ele>
        <time>2024-08-15T08:05:02Z</time>
      </trkpt>
      <trkpt lat="42.97276" lon="-0.00419">
        <ele>1609</ele>
        <time>2024-08-15T08:05:03Z</time>
      </trkpt>
      <trkpt lat="42.97278" lon="-0.0042">
        <ele>1609.2</ele>
        <time>2024-08-15T08:05:04Z</time>
      </trkpt>
      <trkpt lat="42.9728" lon="-0.00421">
        <ele>1609.4</ele>
        <time>2024-08-15T08:05:05Z</time>
      </trkpt>
      <trkpt lat="42.97282" lon="-0.00421">
        <ele>1609.6</ele>
        <time>2024-08-15T08:05:06Z</time>
      </trkpt>
      <trkpt lat="42.97284" lon="-0.00421">
        <ele>1609.8</ele>
        <time>2024-08-15T08:05:07Z</time>
      </trkpt>
      <trkpt lat="42.97287" lon="-0.00421">
        <ele>1609.8</ele>
        <time>2024-08-15T08:05:08Z</time>
      </trkpt>
      <trkpt lat="42.97289" lon="-0.00421">
        <ele>1610</ele>
        <time>2024-08-15T08:05:09Z</time>
      </trkpt>
      <trkpt lat="42.97291" lon="-0.0042">
        <ele>1610</ele>
        <time>2024-08-15T08:05:10Z</time>
      </trkpt>
      <trkpt lat="42.97292" lon="-0.00417">
        <ele>1610.2</ele>
        <time>2024-08-15T08:05:11Z</time>
      </trkpt>
      <trkpt lat="42.97293" lon="-0.00415">
        <ele>1610.4</ele>
        <time>2024-08-15T08:05:12Z</time>
      </trkpt>
      <trkpt lat="42.97292" lon="-0.00411">
        <ele>1610.4</ele>
        <time>2024-08-15T08:05:13Z</time>
      </trkpt>
      <trkpt lat="42.97291" lon="-0.00409">
        <ele>1610.8</ele>
        <time>2024-08-15T08:05:14Z</time>
      </trkpt>
      <trkpt lat="42.97289" lon="-0.00406">
        <ele>1610.8</ele>
        <time>2024-08-15T08:05:15Z</time>
      </trkpt>
      <trkpt lat="42.97287" lon="-0.00405">
        <ele>1611.2</ele>
        <time>2024-08-15T08:05:16Z</time>
      </trkpt>
      <trkpt lat="42.97285" lon="-0.00403">
        <ele>1611.2</ele>
        <time>2024-08-15T08:05:17Z</time>
      </trkpt>
      <trkpt lat="42.97282" lon="-0.00402">
        <ele>1611.6</ele>
        <time>2024-08-15T08:05:18Z</time>
      </trkpt>
      <trkpt lat="42.9728" lon="-0.00401">
        <ele>1611.8</ele>
        <time>2024-08-15T08:05:19Z</time>
      </trkpt>
      <trkpt lat="42.97278" lon="-0.004">
        <ele>1612</ele>
        <time>2024-08-15T08:05:20Z</time>
      </trkpt>
      <trkpt lat="42.97276" lon="-0.00398">
        <ele>1612.2</ele>
        <time>2024-08-15T08:05:21Z</time>
      </trkpt>
      <trkpt lat="42.97273" lon="-0.00396">
        <ele>1612.2</ele>
        <time>2024-08-15T08:05:22Z</time>
      </trkpt>
      <trkpt lat="42.97271" lon="-0.00395">
        <ele>1612.4</ele>
        <time>2024-08-15T08:05:23Z</time>
      </trkpt>
      <trkpt lat="42.97269" lon="-0.00393">
        <ele>1612.4</ele>
        <time>2024-08-15T08:05:24Z</time>
      </trkpt>
      <trkpt lat="42.97267" lon="-0.00392">
        <ele>1612.6</ele>
        <time>2024-08-15T08:05:25Z</time>
      </trkpt>
      <trkpt lat="42.97265" lon="-0.0039">
        <ele>1612.6</ele>
        <time>2024-08-15T08:05:26Z</time>
      </trkpt>
      <trkpt lat="42.97263" lon="-0.00388">
        <ele>1612.8</ele>
        <time>2024-08-15T08:05:27Z</time>
      </trkpt>
      <trkpt lat="42.97261" lon="-0.00386">
        <ele>1612.8</ele>
        <time>2024-08-15T08:05:28Z</time>
      </trkpt>
      <trkpt lat="42.97259" lon="-0.00384">
        <ele>1613</ele>
        <time>2024-08-15T08:05:29Z</time>
      </trkpt>
      <trkpt lat="42.97257" lon="-0.00383">
        <ele>1613.2</ele>
        <time>2024-08-15T08:05:30Z</time>
      </trkpt>
      <trkpt lat="42.97255" lon="-0.00382">
        <ele>1613.2</ele>
        <time>2024-08-15T08:05:31Z</time>
      </trkpt>
      <trkpt lat="42.97253" lon="-0.0038">
        <ele>1613.4</ele>
        <time>2024-08-15T08:05:32Z</time>
      </trkpt>
      <trkpt lat="42.97252" lon="-0.00378">
        <ele>1613.4</ele>
        <time>2024-08-15T08:05:33Z</time>
      </trkpt>
      <trkpt lat="42.97251" lon="-0.00377">
        <ele>1613.6</ele>
        <time>2024-08-15T08:05:34Z</time>
      </trkpt>
      <trkpt lat="42.9725" lon="-0.00375">
        <ele>1613.6</ele>
        <time>2024-08-15T08:05:35Z</time>
      </trkpt>
      <trkpt lat="42.97248" lon="-0.00374">
        <ele>1613.8</ele>
        <time>2024-08-15T08:05:36Z</time>
      </trkpt>
      <trkpt lat="42.97246" lon="-0.00372">
        <ele>1613.8</ele>
        <time>2024-08-15T08:05:37Z</time>
      </trkpt>
      <trkpt lat="42.97244" lon="-0.0037">
        <ele>1613.8</ele>
        <time>2024-08-15T08:05:38Z</time>
      </trkpt>
      <trkpt lat="42.97243" lon="-0.00368">
        <ele>1613.8</ele>
        <time>2024-08-15T08:05:39Z</time>
      </trkpt>
      <trkpt lat="42.97241" lon="-0.00365">
        <ele>1613.8</ele>
        <time>2024-08-15T08:05:40Z</time>
      </trkpt>
      <trkpt lat="42.97241" lon="-0.00362">
        <ele>1614</ele>
        <time>2024-08-15T08:05:41Z</time>
      </trkpt>
      <trkpt lat="42.97241" lon="-0.00358">
        <ele>1614</ele>
        <time>2024-08-15T08:05:42Z</time>
      </trkpt>
      <trkpt lat="42.97241" lon="-0.00355">
        <ele>1614</ele>
        <time>2024-08-15T08:05:43Z</time>
      </trkpt>
      <trkpt lat="42.97242" lon="-0.00352">
        <ele>1614</ele>
        <time>2024-08-15T08:05:44Z</time>
      </trkpt>
      <trkpt lat="42.97243" lon="-0.00349">
        <ele>1614</ele>
        <time>2024-08-15T08:05:45Z</time>
      </trkpt>
      <trkpt lat="42.97245" lon="-0.00347">
        <ele>1614</ele>
        <time>2024-08-15T08:05:46Z</time>
      </trkpt>
      <trkpt lat="42.97247" lon="-0.00345">
        <ele>1614</ele>
        <time>2024-08-15T08:05:47Z</time>
      </trkpt>
      <trkpt lat="42.97248" lon="-0.00343">
        <ele>1614</ele>
        <time>2024-08-15T08:05:48Z</time>
      </trkpt>
      <trkpt lat="42.9725" lon="-0.00341">
        <ele>1614</ele>
        <time>2024-08-15T08:05:49Z</time>
      </trkpt>
      <trkpt lat="42.97254" lon="-0.00338">
        <ele>1614.2</ele>
        <time>2024-08-15T08:05:51Z</time>
      </trkpt>
      <trkpt lat="42.97256" lon="-0.00337">
        <ele>1614.2</ele>
        <time>2024-08-15T08:05:52Z</time>
      </trkpt>
      <trkpt lat="42.97257" lon="-0.00336">
        <ele>1614.2</ele>
        <time>2024-08-15T08:05:53Z</time>
      </trkpt>
      <trkpt lat="42.97258" lon="-0.00335">
        <ele>1614.2</ele>
        <time>2024-08-15T08:05:54Z</time>
      </trkpt>
      <trkpt lat="42.9726" lon="-0.00335">
        <ele>1614.2</ele>
        <time>2024-08-15T08:05:55Z</time>
      </trkpt>
      <trkpt lat="42.97258" lon="-0.00335">
        <ele>1614.2</ele>
        <time>2024-08-15T08:06:49Z</time>
      </trkpt>
      <trkpt lat="42.97258" lon="-0.00335">
        <ele>1614.2</ele>
        <time>2024-08-15T08:06:50Z</time>
      </trkpt>
      <trkpt lat="42.97256" lon="-0.00335">
        <ele>1614</ele>
        <time>2024-08-15T08:08:09Z</time>
      </trkpt>
      <trkpt lat="42.97256" lon="-0.00335">
        <ele>1614</ele>
        <time>2024-08-15T08:08:10Z</time>
      </trkpt>
      <trkpt lat="42.97256" lon="-0.00335">
        <ele>1614</ele>
        <time>2024-08-15T08:08:11Z</time>
      </trkpt>
      <trkpt lat="42.97252" lon="-0.00337">
        <ele>1614</ele>
        <time>2024-08-15T08:08:13Z</time>
      </trkpt>
      <trkpt lat="42.97238" lon="-0.0035">
        <ele>1613.8</ele>
        <time>2024-08-15T08:08:19Z</time>
      </trkpt>
      <trkpt lat="42.97234" lon="-0.00352">
        <ele>1613.8</ele>
        <time>2024-08-15T08:08:20Z</time>
      </trkpt>
      <trkpt lat="42.97232" lon="-0.00352">
        <ele>1613.8</ele>
        <time>2024-08-15T08:08:21Z</time>
      </trkpt>
      <trkpt lat="42.97229" lon="-0.00352">
        <ele>1613.8</ele>
        <time>2024-08-15T08:08:22Z</time>
      </trkpt>
      <trkpt lat="42.97227" lon="-0.00352">
        <ele>1613.8</ele>
        <time>2024-08-15T08:08:23Z</time>
      </trkpt>
      <trkpt lat="42.97225" lon="-0.00353">
        <ele>1613.8</ele>
        <time>2024-08-15T08:08:24Z</time>
      </trkpt>
      <trkpt lat="42.97224" lon="-0.00356">
        <ele>1613.8</ele>
        <time>2024-08-15T08:08:25Z</time>
      </trkpt>
      <trkpt lat="42.97225" lon="-0.00357">
        <ele>1613.6</ele>
        <time>2024-08-15T08:08:26Z</time>
      </trkpt>
      <trkpt lat="42.97227" lon="-0.00359">
        <ele>1613.6</ele>
        <time>2024-08-15T08:08:27Z</time>
      </trkpt>
      <trkpt lat="42.97229" lon="-0.00359">
        <ele>1613.6</ele>
        <time>2024-08-15T08:08:28Z</time>
      </trkpt>
      <trkpt lat="42.9723" lon="-0.0036">
        <ele>1613.6</ele>
        <time>2024-08-15T08:08:29Z</time>
      </trkpt>
      <trkpt lat="42.97233" lon="-0.00361">
        <ele>1613.6</ele>
        <time>2024-08-15T08:08:30Z</time>
      </trkpt>
      <trkpt lat="42.97235" lon="-0.00362">
        <ele>1613.6</ele>
        <time>2024-08-15T08:08:31Z</time>
      </trkpt>
      <trkpt lat="42.97246" lon="-0.00372">
        <ele>1613.6</ele>
        <time>2024-08-15T08:08:36Z</time>
      </trkpt>
      <trkpt lat="42.97253" lon="-0.00378">
        <ele>1613.8</ele>
        <time>2024-08-15T08:08:39Z</time>
      </trkpt>
      <trkpt lat="42.97261" lon="-0.00384">
        <ele>1613.8</ele>
        <time>2024-08-15T08:08:42Z</time>
      </trkpt>
      <trkpt lat="42.97263" lon="-0.00385">
        <ele>1613.8</ele>
        <time>2024-08-15T08:08:43Z</time>
      </trkpt>
      <trkpt lat="42.97281" lon="-0.00396">
        <ele>1613.8</ele>
        <time>2024-08-15T08:08:49Z</time>
      </trkpt>
      <trkpt lat="42.97289" lon="-0.00398">
        <ele>1613.6</ele>
        <time>2024-08-15T08:08:51Z</time>
      </trkpt>
      <trkpt lat="42.97293" lon="-0.00401">
        <ele>1613.6</ele>
        <time>2024-08-15T08:08:52Z</time>
      </trkpt>
      <trkpt lat="42.97295" lon="-0.00405">
        <ele>1613.6</ele>
        <time>2024-08-15T08:08:53Z</time>
      </trkpt>
      <trkpt lat="42.97296" lon="-0.00411">
        <ele>1613.4</ele>
        <time>2024-08-15T08:08:54Z</time>
      </trkpt>
      <trkpt lat="42.97296" lon="-0.00417">
        <ele>1613.4</ele>
        <time>2024-08-15T08:08:55Z</time>
      </trkpt>
      <trkpt lat="42.97289" lon="-0.00424">
        <ele>1613</ele>
        <time>2024-08-15T08:08:57Z</time>
      </trkpt>
      <trkpt lat="42.97284" lon="-0.00424">
        <ele>1613</ele>
        <time>2024-08-15T08:08:58Z</time>
      </trkpt>
      <trkpt lat="42.97278" lon="-0.00423">
        <ele>1612.6</ele>
        <time>2024-08-15T08:08:59Z</time>
      </trkpt>
      <trkpt lat="42.97266" lon="-0.00418">
        <ele>1612.2</ele>
        <time>2024-08-15T08:09:01Z</time>
      </trkpt>
      <trkpt lat="42.9726" lon="-0.00415">
        <ele>1612</ele>
        <time>2024-08-15T08:09:02Z</time>
      </trkpt>
      <trkpt lat="42.97233" lon="-0.004">
        <ele>1610.6</ele>
        <time>2024-08-15T08:09:06Z</time>
      </trkpt>
      <trkpt lat="42.97219" lon="-0.00391">
        <ele>1610</ele>
        <time>2024-08-15T08:09:08Z</time>
      </trkpt>
      <trkpt lat="42.97213" lon="-0.00386">
        <ele>1609.8</ele>
        <time>2024-08-15T08:09:09Z</time>
      </trkpt>
      <trkpt lat="42.97207" lon="-0.00381">
        <ele>1609.2</ele>
        <time>2024-08-15T08:09:10Z</time>
      </trkpt>
      <trkpt lat="42.97195" lon="-0.00369">
        <ele>1608.6</ele>
        <time>2024-08-15T08:09:12Z</time>
      </trkpt>
      <trkpt lat="42.9719" lon="-0.00362">
        <ele>1608.2</ele>
        <time>2024-08-15T08:09:13Z</time>
      </trkpt>
      <trkpt lat="42.97185" lon="-0.00355">
        <ele>1608</ele>
        <time>2024-08-15T08:09:14Z</time>
      </trkpt>
      <trkpt lat="42.9718" lon="-0.00348">
        <ele>1607.4</ele>
        <time>2024-08-15T08:09:15Z</time>
      </trkpt>
      <trkpt lat="42.97175" lon="-0.00341">
        <ele>1607.2</ele>
        <time>2024-08-15T08:09:16Z</time>
      </trkpt>
      <trkpt lat="42.97171" lon="-0.00336">
        <ele>1606.4</ele>
        <time>2024-08-15T08:09:17Z</time>
      </trkpt>
      <trkpt lat="42.97167" lon="-0.0033">
        <ele>1606.2</ele>
        <time>2024-08-15T08:09:18Z</time>
      </trkpt>
      <trkpt lat="42.97163" lon="-0.00326">
        <ele>1605.4</ele>
        <time>2024-08-15T08:09:19Z</time>
      </trkpt>
      <trkpt lat="42.9716" lon="-0.00322">
        <ele>1605</ele>
        <time>2024-08-15T08:09:20Z</time>
      </trkpt>
      <trkpt lat="42.97156" lon="-0.00321">
        <ele>1604.6</ele>
        <time>2024-08-15T08:09:21Z</time>
      </trkpt>
      <trkpt lat="42.97153" lon="-0.00323">
        <ele>1604</ele>
        <time>2024-08-15T08:09:22Z</time>
      </trkpt>
      <trkpt lat="42.97153" lon="-0.00333">
        <ele>1603.2</ele>
        <time>2024-08-15T08:09:24Z</time>
      </trkpt>
      <trkpt lat="42.97154" lon="-0.00339">
        <ele>1603.2</ele>
        <time>2024-08-15T08:09:25Z</time>
      </trkpt>
      <trkpt lat="42.97157" lon="-0.00345">
        <ele>1602.8</ele>
        <time>2024-08-15T08:09:26Z</time>
      </trkpt>
      <trkpt lat="42.97159" lon="-0.00351">
        <ele>1602.6</ele>
        <time>2024-08-15T08:09:27Z</time>
      </trkpt>
      <trkpt lat="42.97162" lon="-0.00357">
        <ele>1602.4</ele>
        <time>2024-08-15T08:09:28Z</time>
      </trkpt>
      <trkpt lat="42.97164" lon="-0.00362">
        <ele>1602</ele>
        <time>2024-08-15T08:09:29Z</time>
      </trkpt>
      <trkpt lat="42.97167" lon="-0.00366">
        <ele>1601.8</ele>
        <time>2024-08-15T08:09:30Z</time>
      </trkpt>
      <trkpt lat="42.97168" lon="-0.0037">
        <ele>1601.4</ele>
        <time>2024-08-15T08:09:31Z</time>
      </trkpt>
      <trkpt lat="42.97169" lon="-0.00374">
        <ele>1601</ele>
        <time>2024-08-15T08:09:32Z</time>
      </trkpt>
      <trkpt lat="42.97169" lon="-0.00376">
        <ele>1600.4</ele>
        <time>2024-08-15T08:09:33Z</time>
      </trkpt>
      <trkpt lat="42.97167" lon="-0.00378">
        <ele>1600</ele>
        <time>2024-08-15T08:09:34Z</time>
      </trkpt>
      <trkpt lat="42.97165" lon="-0.00377">
        <ele>1599.4</ele>
        <time>2024-08-15T08:09:35Z</time>
      </trkpt>
      <trkpt lat="42.97163" lon="-0.00375">
        <ele>1599</ele>
        <time>2024-08-15T08:09:36Z</time>
      </trkpt>
      <trkpt lat="42.9716" lon="-0.00369">
        <ele>1598.2</ele>
        <time>2024-08-15T08:09:38Z</time>
      </trkpt>
      <trkpt lat="42.97157" lon="-0.00366">
        <ele>1598</ele>
        <time>2024-08-15T08:09:39Z</time>
      </trkpt>
      <trkpt lat="42.97155" lon="-0.00362">
        <ele>1597.8</ele>
        <time>2024-08-15T08:09:40Z</time>
      </trkpt>
      <trkpt lat="42.97149" lon="-0.00356">
        <ele>1597.4</ele>
        <time>2024-08-15T08:09:42Z</time>
      </trkpt>
      <trkpt lat="42.97145" lon="-0.00352">
        <ele>1597.2</ele>
        <time>2024-08-15T08:09:43Z</time>
      </trkpt>
      <trkpt lat="42.97142" lon="-0.00349">
        <ele>1597.2</ele>
        <time>2024-08-15T08:09:44Z</time>
      </trkpt>
      <trkpt lat="42.97139" lon="-0.00346">
        <ele>1597</ele>
        <time>2024-08-15T08:09:45Z</time>
      </trkpt>
      <trkpt lat="42.97136" lon="-0.00343">
        <ele>1597</ele>
        <time>2024-08-15T08:09:46Z</time>
      </trkpt>
      <trkpt lat="42.97134" lon="-0.00339">
        <ele>1597</ele>
        <time>2024-08-15T08:09:47Z</time>
      </trkpt>
      <trkpt lat="42.97132" lon="-0.00336">
        <ele>1597</ele>
        <time>2024-08-15T08:09:48Z</time>
      </trkpt>
      <trkpt lat="42.9713" lon="-0.00332">
        <ele>1597</ele>
        <time>2024-08-15T08:09:49Z</time>
      </trkpt>
      <trkpt lat="42.97129" lon="-0.00329">
        <ele>1597</ele>
        <time>2024-08-15T08:09:50Z</time>
      </trkpt>
      <trkpt lat="42.97127" lon="-0.00326">
        <ele>1597</ele>
        <time>2024-08-15T08:09:51Z</time>
      </trkpt>
      <trkpt lat="42.97126" lon="-0.00323">
        <ele>1597.2</ele>
        <time>2024-08-15T08:09:52Z</time>
      </trkpt>
      <trkpt lat="42.97124" lon="-0.0032">
        <ele>1597.2</ele>
        <time>2024-08-15T08:09:53Z</time>
      </trkpt>
      <trkpt lat="42.97123" lon="-0.00317">
        <ele>1597.4</ele>
        <time>2024-08-15T08:09:54Z</time>
      </trkpt>
      <trkpt lat="42.97122" lon="-0.00314">
        <ele>1597.4</ele>
        <time>2024-08-15T08:09:55Z</time>
      </trkpt>
      <trkpt lat="42.9712" lon="-0.00312">
        <ele>1597.6</ele>
        <time>2024-08-15T08:09:56Z</time>
      </trkpt>
      <trkpt lat="42.97119" lon="-0.0031">
        <ele>1597.8</ele>
        <time>2024-08-15T08:09:57Z</time>
      </trkpt>
      <trkpt lat="42.97118" lon="-0.00309">
        <ele>1598</ele>
        <time>2024-08-15T08:09:58Z</time>
      </trkpt>
      <trkpt lat="42.97117" lon="-0.00307">
        <ele>1598.2</ele>
        <time>2024-08-15T08:09:59Z</time>
      </trkpt>
      <trkpt lat="42.97114" lon="-0.00305">
        <ele>1598.4</ele>
        <time>2024-08-15T08:10:01Z</time>
      </trkpt>
      <trkpt lat="42.97106" lon="-0.00302">
        <ele>1598.6</ele>
        <time>2024-08-15T08:10:05Z</time>
      </trkpt>
      <trkpt lat="42.97104" lon="-0.00301">
        <ele>1598.6</ele>
        <time>2024-08-15T08:10:06Z</time>
      </trkpt>
      <trkpt lat="42.97102" lon="-0.00301">
        <ele>1598.6</ele>
        <time>2024-08-15T08:10:07Z</time>
      </trkpt>
      <trkpt lat="42.971" lon="-0.003">
        <ele>1598.6</ele>
        <time>2024-08-15T08:10:08Z</time>
      </trkpt>
      <trkpt lat="42.97099" lon="-0.003">
        <ele>1598.6</ele>
        <time>2024-08-15T08:10:09Z</time>
      </trkpt>
      <trkpt lat="42.97097" lon="-0.003">
        <ele>1598.8</ele>
        <time>2024-08-15T08:10:10Z</time>
      </trkpt>
      <trkpt lat="42.97093" lon="-0.00298">
        <ele>1599</ele>
        <time>2024-08-15T08:10:13Z</time>
      </trkpt>
      <trkpt lat="42.97092" lon="-0.00298">
        <ele>1599.2</ele>
        <time>2024-08-15T08:10:14Z</time>
      </trkpt>
      <trkpt lat="42.97089" lon="-0.00298">
        <ele>1599.4</ele>
        <time>2024-08-15T08:10:16Z</time>
      </trkpt>
      <trkpt lat="42.97088" lon="-0.00298">
        <ele>1599.6</ele>
        <time>2024-08-15T08:10:17Z</time>
      </trkpt>
      <trkpt lat="42.97084" lon="-0.00299">
        <ele>1600.2</ele>
        <time>2024-08-15T08:10:19Z</time>
      </trkpt>
      <trkpt lat="42.97081" lon="-0.00301">
        <ele>1600.2</ele>
        <time>2024-08-15T08:10:21Z</time>
      </trkpt>
      <trkpt lat="42.97078" lon="-0.00302">
        <ele>1600.6</ele>
        <time>2024-08-15T08:10:23Z</time>
      </trkpt>
      <trkpt lat="42.97075" lon="-0.00303">
        <ele>1601</ele>
        <time>2024-08-15T08:10:25Z</time>
      </trkpt>
      <trkpt lat="42.97074" lon="-0.00304">
        <ele>1601.4</ele>
        <time>2024-08-15T08:10:26Z</time>
      </trkpt>
      <trkpt lat="42.97072" lon="-0.00304">
        <ele>1601.6</ele>
        <time>2024-08-15T08:10:27Z</time>
      </trkpt>
      <trkpt lat="42.97071" lon="-0.00305">
        <ele>1601.8</ele>
        <time>2024-08-15T08:10:28Z</time>
      </trkpt>
      <trkpt lat="42.97069" lon="-0.00306">
        <ele>1602.2</ele>
        <time>2024-08-15T08:10:29Z</time>
      </trkpt>
      <trkpt lat="42.97068" lon="-0.00306">
        <ele>1602.4</ele>
        <time>2024-08-15T08:10:30Z</time>
      </trkpt>
      <trkpt lat="42.97067" lon="-0.00307">
        <ele>1602.8</ele>
        <time>2024-08-15T08:10:31Z</time>
      </trkpt>
      <trkpt lat="42.97065" lon="-0.00308">
        <ele>1602.8</ele>
        <time>2024-08-15T08:10:32Z</time>
      </trkpt>
      <trkpt lat="42.97064" lon="-0.00309">
        <ele>1603</ele>
        <time>2024-08-15T08:10:33Z</time>
      </trkpt>
      <trkpt lat="42.97063" lon="-0.0031">
        <ele>1603.2</ele>
        <time>2024-08-15T08:10:34Z</time>
      </trkpt>
      <trkpt lat="42.97062" lon="-0.00311">
        <ele>1603.4</ele>
        <time>2024-08-15T08:10:35Z</time>
      </trkpt>
      <trkpt lat="42.9706" lon="-0.00312">
        <ele>1603.6</ele>
        <time>2024-08-15T08:10:36Z</time>
      </trkpt>
      <trkpt lat="42.97059" lon="-0.00313">
        <ele>1603.6</ele>
        <time>2024-08-15T08:10:37Z</time>
      </trkpt>
      <trkpt lat="42.97058" lon="-0.00314">
        <ele>1603.8</ele>
        <time>2024-08-15T08:10:38Z</time>
      </trkpt>
      <trkpt lat="42.97057" lon="-0.00315">
        <ele>1604</ele>
        <time>2024-08-15T08:10:39Z</time>
      </trkpt>
      <trkpt lat="42.97056" lon="-0.00317">
        <ele>1604.2</ele>
        <time>2024-08-15T08:10:40Z</time>
      </trkpt>
      <trkpt lat="42.97055" lon="-0.00318">
        <ele>1604.2</ele>
        <time>2024-08-15T08:10:41Z</time>
      </trkpt>
      <trkpt lat="42.97054" lon="-0.00319">
        <ele>1604.4</ele>
        <time>2024-08-15T08:10:42Z</time>
      </trkpt>
      <trkpt lat="42.97053" lon="-0.0032">
        <ele>1604.6</ele>
        <time>2024-08-15T08:10:43Z</time>
      </trkpt>
      <trkpt lat="42.97052" lon="-0.00321">
        <ele>1604.8</ele>
        <time>2024-08-15T08:10:44Z</time>
      </trkpt>
      <trkpt lat="42.97051" lon="-0.00322">
        <ele>1605</ele>
        <time>2024-08-15T08:10:45Z</time>
      </trkpt>
      <trkpt lat="42.9705" lon="-0.00324">
        <ele>1605</ele>
        <time>2024-08-15T08:10:46Z</time>
      </trkpt>
      <trkpt lat="42.97049" lon="-0.00325">
        <ele>1605.2</ele>
        <time>2024-08-15T08:10:47Z</time>
      </trkpt>
      <trkpt lat="42.97048" lon="-0.00326">
        <ele>1605.4</ele>
        <time>2024-08-15T08:10:48Z</time>
      </trkpt>
      <trkpt lat="42.97047" lon="-0.00327">
        <ele>1605.8</ele>
        <time>2024-08-15T08:10:49Z</time>
      </trkpt>
      <trkpt lat="42.97045" lon="-0.00328">
        <ele>1606</ele>
        <time>2024-08-15T08:10:50Z</time>
      </trkpt>
      <trkpt lat="42.97044" lon="-0.00329">
        <ele>1606.2</ele>
        <time>2024-08-15T08:10:51Z</time>
      </trkpt>
      <trkpt lat="42.97043" lon="-0.0033">
        <ele>1606.4</ele>
        <time>2024-08-15T08:10:52Z</time>
      </trkpt>
      <trkpt lat="42.97042" lon="-0.00331">
        <ele>1606.6</ele>
        <time>2024-08-15T08:10:53Z</time>
      </trkpt>
      <trkpt lat="42.97041" lon="-0.00333">
        <ele>1606.8</ele>
        <time>2024-08-15T08:10:54Z</time>
      </trkpt>
      <trkpt lat="42.9704" lon="-0.00334">
        <ele>1607</ele>
        <time>2024-08-15T08:10:55Z</time>
      </trkpt>
      <trkpt lat="42.9704" lon="-0.00335">
        <ele>1607.2</ele>
        <time>2024-08-15T08:10:56Z</time>
      </trkpt>
      <trkpt lat="42.97039" lon="-0.00337">
        <ele>1607.4</ele>
        <time>2024-08-15T08:10:57Z</time>
      </trkpt>
      <trkpt lat="42.97038" lon="-0.00338">
        <ele>1607.6</ele>
        <time>2024-08-15T08:10:58Z</time>
      </trkpt>
      <trkpt lat="42.97037" lon="-0.0034">
        <ele>1608</ele>
        <time>2024-08-15T08:10:59Z</time>
      </trkpt>
      <trkpt lat="42.97036" lon="-0.00341">
        <ele>1608.2</ele>
        <time>2024-08-15T08:11:00Z</time>
      </trkpt>
      <trkpt lat="42.97036" lon="-0.00342">
        <ele>1608.4</ele>
        <time>2024-08-15T08:11:01Z</time>
      </trkpt>
      <trkpt lat="42.97035" lon="-0.00343">
        <ele>1608.4</ele>
        <time>2024-08-15T08:11:02Z</time>
      </trkpt>
      <trkpt lat="42.97034" lon="-0.00344">
        <ele>1608.8</ele>
        <time>2024-08-15T08:11:03Z</time>
      </trkpt>
      <trkpt lat="42.97033" lon="-0.00345">
        <ele>1609</ele>
        <time>2024-08-15T08:11:04Z</time>
      </trkpt>
      <trkpt lat="42.97032" lon="-0.00346">
        <ele>1609.4</ele>
        <time>2024-08-15T08:11:05Z</time>
      </trkpt>
      <trkpt lat="42.97031" lon="-0.00347">
        <ele>1609.4</ele>
        <time>2024-08-15T08:11:06Z</time>
      </trkpt>
      <trkpt lat="42.9703" lon="-0.00348">
        <ele>1609.6</ele>
        <time>2024-08-15T08:11:07Z</time>
      </trkpt>
      <trkpt lat="42.97029" lon="-0.0035">
        <ele>1609.8</ele>
        <time>2024-08-15T08:11:08Z</time>
      </trkpt>
      <trkpt lat="42.97029" lon="-0.00351">
        <ele>1609.8</ele>
        <time>2024-08-15T08:11:09Z</time>
      </trkpt>
      <trkpt lat="42.97028" lon="-0.00353">
        <ele>1610.4</ele>
        <time>2024-08-15T08:11:10Z</time>
      </trkpt>
      <trkpt lat="42.97027" lon="-0.00354">
        <ele>1610.6</ele>
        <time>2024-08-15T08:11:11Z</time>
      </trkpt>
      <trkpt lat="42.97026" lon="-0.00356">
        <ele>1610.8</ele>
        <time>2024-08-15T08:11:12Z</time>
      </trkpt>
      <trkpt lat="42.97026" lon="-0.00357">
        <ele>1611</ele>
        <time>2024-08-15T08:11:13Z</time>
      </trkpt>
      <trkpt lat="42.97025" lon="-0.00358">
        <ele>1611.2</ele>
        <time>2024-08-15T08:11:14Z</time>
      </trkpt>
      <trkpt lat="42.97024" lon="-0.0036">
        <ele>1611.4</ele>
        <time>2024-08-15T08:11:15Z</time>
      </trkpt>
      <trkpt lat="42.97023" lon="-0.00361">
        <ele>1611.6</ele>
        <time>2024-08-15T08:11:16Z</time>
      </trkpt>
      <trkpt lat="42.97023" lon="-0.00362">
        <ele>1611.8</ele>
        <time>2024-08-15T08:11:17Z</time>
      </trkpt>
      <trkpt lat="42.97022" lon="-0.00364">
        <ele>1612</ele>
        <time>2024-08-15T08:11:18Z</time>
      </trkpt>
      <trkpt lat="42.97022" lon="-0.00365">
        <ele>1612.2</ele>
        <time>2024-08-15T08:11:19Z</time>
      </trkpt>
      <trkpt lat="42.97021" lon="-0.00366">
        <ele>1612.4</ele>
        <time>2024-08-15T08:11:20Z</time>
      </trkpt>
      <trkpt lat="42.9702" lon="-0.00367">
        <ele>1612.6</ele>
        <time>2024-08-15T08:11:21Z</time>
      </trkpt>
      <trkpt lat="42.9702" lon="-0.00369">
        <ele>1613</ele>
        <time>2024-08-15T08:11:22Z</time>
      </trkpt>
      <trkpt lat="42.97019" lon="-0.0037">
        <ele>1613.2</ele>
        <time>2024-08-15T08:11:23Z</time>
      </trkpt>
      <trkpt lat="42.97018" lon="-0.00371">
        <ele>1613.4</ele>
        <time>2024-08-15T08:11:24Z</time>
      </trkpt>
      <trkpt lat="42.97018" lon="-0.00373">
        <ele>1613.4</ele>
        <time>2024-08-15T08:11:25Z</time>
      </trkpt>
      <trkpt lat="42.97017" lon="-0.00374">
        <ele>1613.8</ele>
        <time>2024-08-15T08:11:26Z</time>
      </trkpt>
      <trkpt lat="42.97017" lon="-0.00375">
        <ele>1614</ele>
        <time>2024-08-15T08:11:27Z</time>
      </trkpt>
      <trkpt lat="42.97016" lon="-0.00377">
        <ele>1614.4</ele>
        <time>2024-08-15T08:11:28Z</time>
      </trkpt>
      <trkpt lat="42.97015" lon="-0.00378">
        <ele>1614.4</ele>
        <time>2024-08-15T08:11:29Z</time>
      </trkpt>
      <trkpt lat="42.97015" lon="-0.00379">
        <ele>1614.6</ele>
        <time>2024-08-15T08:11:30Z</time>
      </trkpt>
      <trkpt lat="42.97014" lon="-0.0038">
        <ele>1614.6</ele>
        <time>2024-08-15T08:11:31Z</time>
      </trkpt>
      <trkpt lat="42.97014" lon="-0.00382">
        <ele>1614.8</ele>
        <time>2024-08-15T08:11:32Z</time>
      </trkpt>
      <trkpt lat="42.97013" lon="-0.00383">
        <ele>1615</ele>
        <time>2024-08-15T08:11:33Z</time>
      </trkpt>
      <trkpt lat="42.97012" lon="-0.00385">
        <ele>1615.2</ele>
        <time>2024-08-15T08:11:34Z</time>
      </trkpt>
      <trkpt lat="42.97011" lon="-0.00386">
        <ele>1615.4</ele>
        <time>2024-08-15T08:11:35Z</time>
      </trkpt>
      <trkpt lat="42.9701" lon="-0.00387">
        <ele>1615.6</ele>
        <time>2024-08-15T08:11:36Z</time>
      </trkpt>
      <trkpt lat="42.97009" lon="-0.00388">
        <ele>1615.8</ele>
        <time>2024-08-15T08:11:37Z</time>
      </trkpt>
      <trkpt lat="42.97008" lon="-0.00389">
        <ele>1616</ele>
        <time>2024-08-15T08:11:38Z</time>
      </trkpt>
      <trkpt lat="42.97007" lon="-0.0039">
        <ele>1616</ele>
        <time>2024-08-15T08:11:39Z</time>
      </trkpt>
      <trkpt lat="42.97006" lon="-0.00391">
        <ele>1616.2</ele>
        <time>2024-08-15T08:11:40Z</time>
      </trkpt>
      <trkpt lat="42.97005" lon="-0.00392">
        <ele>1616.4</ele>
        <time>2024-08-15T08:11:41Z</time>
      </trkpt>
      <trkpt lat="42.97005" lon="-0.00393">
        <ele>1616.6</ele>
        <time>2024-08-15T08:11:42Z</time>
      </trkpt>
      <trkpt lat="42.97004" lon="-0.00394">
        <ele>1616.8</ele>
        <time>2024-08-15T08:11:43Z</time>
      </trkpt>
      <trkpt lat="42.97003" lon="-0.00395">
        <ele>1617</ele>
        <time>2024-08-15T08:11:44Z</time>
      </trkpt>
      <trkpt lat="42.97002" lon="-0.00397">
        <ele>1617.2</ele>
        <time>2024-08-15T08:11:45Z</time>
      </trkpt>
      <trkpt lat="42.97" lon="-0.00398">
        <ele>1617.4</ele>
        <time>2024-08-15T08:11:46Z</time>
      </trkpt>
      <trkpt lat="42.96999" lon="-0.00399">
        <ele>1617.6</ele>
        <time>2024-08-15T08:11:47Z</time>
      </trkpt>
      <trkpt lat="42.96998" lon="-0.004">
        <ele>1617.6</ele>
        <time>2024-08-15T08:11:48Z</time>
      </trkpt>
      <trkpt lat="42.96997" lon="-0.00401">
        <ele>1617.8</ele>
        <time>2024-08-15T08:11:49Z</time>
      </trkpt>
      <trkpt lat="42.96996" lon="-0.00402">
        <ele>1617.8</ele>
        <time>2024-08-15T08:11:50Z</time>
      </trkpt>
      <trkpt lat="42.96995" lon="-0.00403">
        <ele>1618</ele>
        <time>2024-08-15T08:11:51Z</time>
      </trkpt>
      <trkpt lat="42.96994" lon="-0.00403">
        <ele>1618.2</ele>
        <time>2024-08-15T08:11:52Z</time>
      </trkpt>
      <trkpt lat="42.96993" lon="-0.00404">
        <ele>1618.6</ele>
        <time>2024-08-15T08:11:53Z</time>
      </trkpt>
      <trkpt lat="42.96991" lon="-0.00405">
        <ele>1618.8</ele>
        <time>2024-08-15T08:11:54Z</time>
      </trkpt>
      <trkpt lat="42.9699" lon="-0.00406">
        <ele>1619</ele>
        <time>2024-08-15T08:11:55Z</time>
      </trkpt>
      <trkpt lat="42.96989" lon="-0.00406">
        <ele>1619</ele>
        <time>2024-08-15T08:11:56Z</time>
      </trkpt>
      <trkpt lat="42.96987" lon="-0.00407">
        <ele>1619.2</ele>
        <time>2024-08-15T08:11:57Z</time>
      </trkpt>
      <trkpt lat="42.96986" lon="-0.00408">
        <ele>1619.4</ele>
        <time>2024-08-15T08:11:58Z</time>
      </trkpt>
      <trkpt lat="42.96985" lon="-0.00409">
        <ele>1619.6</ele>
        <time>2024-08-15T08:11:59Z</time>
      </trkpt>
      <trkpt lat="42.96984" lon="-0.00409">
        <ele>1619.8</ele>
        <time>2024-08-15T08:12:00Z</time>
      </trkpt>
      <trkpt lat="42.96982" lon="-0.0041">
        <ele>1620.2</ele>
        <time>2024-08-15T08:12:01Z</time>
      </trkpt>
      <trkpt lat="42.96981" lon="-0.00411">
        <ele>1620.2</ele>
        <time>2024-08-15T08:12:02Z</time>
      </trkpt>
      <trkpt lat="42.9698" lon="-0.00412">
        <ele>1620.4</ele>
        <time>2024-08-15T08:12:03Z</time>
      </trkpt>
      <trkpt lat="42.96979" lon="-0.00412">
        <ele>1620.4</ele>
        <time>2024-08-15T08:12:04Z</time>
      </trkpt>
      <trkpt lat="42.96978" lon="-0.00413">
        <ele>1620.6</ele>
        <time>2024-08-15T08:12:05Z</time>
      </trkpt>
      <trkpt lat="42.96977" lon="-0.00414">
        <ele>1620.8</ele>
        <time>2024-08-15T08:12:06Z</time>
      </trkpt>
      <trkpt lat="42.96976" lon="-0.00415">
        <ele>1620.8</ele>
        <time>2024-08-15T08:12:07Z</time>
      </trkpt>
      <trkpt lat="42.96974" lon="-0.00416">
        <ele>1621</ele>
        <time>2024-08-15T08:12:08Z</time>
      </trkpt>
      <trkpt lat="42.96973" lon="-0.00416">
        <ele>1621.2</ele>
        <time>2024-08-15T08:12:09Z</time>
      </trkpt>
      <trkpt lat="42.96972" lon="-0.00417">
        <ele>1621.2</ele>
        <time>2024-08-15T08:12:10Z</time>
      </trkpt>
      <trkpt lat="42.9697" lon="-0.00418">
        <ele>1621.4</ele>
        <time>2024-08-15T08:12:11Z</time>
      </trkpt>
      <trkpt lat="42.96969" lon="-0.00419">
        <ele>1621.6</ele>
        <time>2024-08-15T08:12:12Z</time>
      </trkpt>
      <trkpt lat="42.96968" lon="-0.00419">
        <ele>1621.6</ele>
        <time>2024-08-15T08:12:13Z</time>
      </trkpt>
      <trkpt lat="42.96966" lon="-0.0042">
        <ele>1621.8</ele>
        <time>2024-08-15T08:12:14Z</time>
      </trkpt>
      <trkpt lat="42.96965" lon="-0.00421">
        <ele>1622.2</ele>
        <time>2024-08-15T08:12:15Z</time>
      </trkpt>
      <trkpt lat="42.96964" lon="-0.00421">
        <ele>1622.4</ele>
        <time>2024-08-15T08:12:16Z</time>
      </trkpt>
      <trkpt lat="42.96962" lon="-0.00422">
        <ele>1622.6</ele>
        <time>2024-08-15T08:12:17Z</time>
      </trkpt>
      <trkpt lat="42.96961" lon="-0.00422">
        <ele>1622.8</ele>
        <time>2024-08-15T08:12:18Z</time>
      </trkpt>
      <trkpt lat="42.9696" lon="-0.00422">
        <ele>1622.8</ele>
        <time>2024-08-15T08:12:19Z</time>
      </trkpt>
      <trkpt lat="42.96958" lon="-0.00423">
        <ele>1623</ele>
        <time>2024-08-15T08:12:20Z</time>
      </trkpt>
      <trkpt lat="42.96957" lon="-0.00423">
        <ele>1623</ele>
        <time>2024-08-15T08:12:21Z</time>
      </trkpt>
      <trkpt lat="42.96955" lon="-0.00424">
        <ele>1623.2</ele>
        <time>2024-08-15T08:12:22Z</time>
      </trkpt>
      <trkpt lat="42.96954" lon="-0.00425">
        <ele>1623.4</ele>
        <time>2024-08-15T08:12:23Z</time>
      </trkpt>
      <trkpt lat="42.96953" lon="-0.00425">
        <ele>1623.4</ele>
        <time>2024-08-15T08:12:24Z</time>
      </trkpt>
      <trkpt lat="42.96951" lon="-0.00426">
        <ele>1623.6</ele>
        <time>2024-08-15T08:12:25Z</time>
      </trkpt>
      <trkpt lat="42.9695" lon="-0.00427">
        <ele>1623.8</ele>
        <time>2024-08-15T08:12:26Z</time>
      </trkpt>
      <trkpt lat="42.96949" lon="-0.00428">
        <ele>1623.8</ele>
        <time>2024-08-15T08:12:27Z</time>
      </trkpt>
      <trkpt lat="42.96947" lon="-0.00428">
        <ele>1624.2</ele>
        <time>2024-08-15T08:12:28Z</time>
      </trkpt>
      <trkpt lat="42.96946" lon="-0.00429">
        <ele>1624.4</ele>
        <time>2024-08-15T08:12:29Z</time>
      </trkpt>
      <trkpt lat="42.96944" lon="-0.00429">
        <ele>1624.4</ele>
        <time>2024-08-15T08:12:30Z</time>
      </trkpt>
      <trkpt lat="42.96943" lon="-0.0043">
        <ele>1624.6</ele>
        <time>2024-08-15T08:12:31Z</time>
      </trkpt>
      <trkpt lat="42.96942" lon="-0.00431">
        <ele>1624.6</ele>
        <time>2024-08-15T08:12:32Z</time>
      </trkpt>
      <trkpt lat="42.96941" lon="-0.00432">
        <ele>1624.8</ele>
        <time>2024-08-15T08:12:33Z</time>
      </trkpt>
      <trkpt lat="42.96939" lon="-0.00433">
        <ele>1625</ele>
        <time>2024-08-15T08:12:34Z</time>
      </trkpt>
      <trkpt lat="42.96938" lon="-0.00434">
        <ele>1625.2</ele>
        <time>2024-08-15T08:12:35Z</time>
      </trkpt>
      <trkpt lat="42.96936" lon="-0.00435">
        <ele>1625.2</ele>
        <time>2024-08-15T08:12:36Z</time>
      </trkpt>
      <trkpt lat="42.96935" lon="-0.00436">
        <ele>1625.6</ele>
        <time>2024-08-15T08:12:37Z</time>
      </trkpt>
      <trkpt lat="42.96933" lon="-0.00436">
        <ele>1625.6</ele>
        <time>2024-08-15T08:12:38Z</time>
      </trkpt>
      <trkpt lat="42.96932" lon="-0.00437">
        <ele>1625.8</ele>
        <time>2024-08-15T08:12:39Z</time>
      </trkpt>
      <trkpt lat="42.9693" lon="-0.00437">
        <ele>1626</ele>
        <time>2024-08-15T08:12:40Z</time>
      </trkpt>
      <trkpt lat="42.96929" lon="-0.00438">
        <ele>1626</ele>
        <time>2024-08-15T08:12:41Z</time>
      </trkpt>
      <trkpt lat="42.96927" lon="-0.00439">
        <ele>1626.2</ele>
        <time>2024-08-15T08:12:42Z</time>
      </trkpt>
      <trkpt lat="42.96925" lon="-0.0044">
        <ele>1626.4</ele>
        <time>2024-08-15T08:12:43Z</time>
      </trkpt>
      <trkpt lat="42.96924" lon="-0.0044">
        <ele>1626.6</ele>
        <time>2024-08-15T08:12:44Z</time>
      </trkpt>
      <trkpt lat="42.96922" lon="-0.00441">
        <ele>1626.6</ele>
        <time>2024-08-15T08:12:45Z</time>
      </trkpt>
      <trkpt lat="42.96921" lon="-0.00442">
        <ele>1626.8</ele>
        <time>2024-08-15T08:12:46Z</time>
      </trkpt>
      <trkpt lat="42.96919" lon="-0.00443">
        <ele>1627</ele>
        <time>2024-08-15T08:12:47Z</time>
      </trkpt>
      <trkpt lat="42.96918" lon="-0.00443">
        <ele>1627.2</ele>
        <time>2024-08-15T08:12:48Z</time>
      </trkpt>
      <trkpt lat="42.96916" lon="-0.00444">
        <ele>1627.4</ele>
        <time>2024-08-15T08:12:49Z</time>
      </trkpt>
      <trkpt lat="42.96914" lon="-0.00444">
        <ele>1627.6</ele>
        <time>2024-08-15T08:12:50Z</time>
      </trkpt>
      <trkpt lat="42.96913" lon="-0.00445">
        <ele>1627.8</ele>
        <time>2024-08-15T08:12:51Z</time>
      </trkpt>
      <trkpt lat="42.96911" lon="-0.00445">
        <ele>1628</ele>
        <time>2024-08-15T08:12:52Z</time>
      </trkpt>
      <trkpt lat="42.96909" lon="-0.00446">
        <ele>1628.2</ele>
        <time>2024-08-15T08:12:53Z</time>
      </trkpt>
      <trkpt lat="42.96908" lon="-0.00446">
        <ele>1628.4</ele>
        <time>2024-08-15T08:12:54Z</time>
      </trkpt>
      <trkpt lat="42.96906" lon="-0.00446">
        <ele>1628.4</ele>
        <time>2024-08-15T08:12:55Z</time>
      </trkpt>
      <trkpt lat="42.96904" lon="-0.00446">
        <ele>1628.6</ele>
        <time>2024-08-15T08:12:56Z</time>
      </trkpt>
      <trkpt lat="42.96903" lon="-0.00447">
        <ele>1628.6</ele>
        <time>2024-08-15T08:12:57Z</time>
      </trkpt>
      <trkpt lat="42.96901" lon="-0.00447">
        <ele>1628.8</ele>
        <time>2024-08-15T08:12:58Z</time>
      </trkpt>
      <trkpt lat="42.96899" lon="-0.00448">
        <ele>1628.8</ele>
        <time>2024-08-15T08:12:59Z</time>
      </trkpt>
      <trkpt lat="42.96898" lon="-0.00448">
        <ele>1629</ele>
        <time>2024-08-15T08:13:00Z</time>
      </trkpt>
      <trkpt lat="42.96896" lon="-0.00448">
        <ele>1629.2</ele>
        <time>2024-08-15T08:13:01Z</time>
      </trkpt>
      <trkpt lat="42.96894" lon="-0.00449">
        <ele>1629.2</ele>
        <time>2024-08-15T08:13:02Z</time>
      </trkpt>
      <trkpt lat="42.96892" lon="-0.00449">
        <ele>1629.4</ele>
        <time>2024-08-15T08:13:03Z</time>
      </trkpt>
      <trkpt lat="42.96891" lon="-0.0045">
        <ele>1629.6</ele>
        <time>2024-08-15T08:13:04Z</time>
      </trkpt>
      <trkpt lat="42.96889" lon="-0.00451">
        <ele>1629.8</ele>
        <time>2024-08-15T08:13:05Z</time>
      </trkpt>
      <trkpt lat="42.96887" lon="-0.00451">
        <ele>1629.8</ele>
        <time>2024-08-15T08:13:06Z</time>
      </trkpt>
      <trkpt lat="42.96885" lon="-0.00452">
        <ele>1630</ele>
        <time>2024-08-15T08:13:07Z</time>
      </trkpt>
      <trkpt lat="42.96883" lon="-0.00453">
        <ele>1630.4</ele>
        <time>2024-08-15T08:13:08Z</time>
      </trkpt>
      <trkpt lat="42.96881" lon="-0.00454">
        <ele>1630.6</ele>
        <time>2024-08-15T08:13:09Z</time>
      </trkpt>
      <trkpt lat="42.96879" lon="-0.00455">
        <ele>1630.8</ele>
        <time>2024-08-15T08:13:10Z</time>
      </trkpt>
      <trkpt lat="42.96877" lon="-0.00456">
        <ele>1631</ele>
        <time>2024-08-15T08:13:11Z</time>
      </trkpt>
      <trkpt lat="42.96875" lon="-0.00457">
        <ele>1631.2</ele>
        <time>2024-08-15T08:13:12Z</time>
      </trkpt>
      <trkpt lat="42.96874" lon="-0.00458">
        <ele>1631.4</ele>
        <time>2024-08-15T08:13:13Z</time>
      </trkpt>
      <trkpt lat="42.96872" lon="-0.00459">
        <ele>1631.6</ele>
        <time>2024-08-15T08:13:14Z</time>
      </trkpt>
      <trkpt lat="42.9687" lon="-0.0046">
        <ele>1631.6</ele>
        <time>2024-08-15T08:13:15Z</time>
      </trkpt>
      <trkpt lat="42.96868" lon="-0.00461">
        <ele>1632</ele>
        <time>2024-08-15T08:13:16Z</time>
      </trkpt>
      <trkpt lat="42.96866" lon="-0.00462">
        <ele>1632.2</ele>
        <time>2024-08-15T08:13:17Z</time>
      </trkpt>
      <trkpt lat="42.96864" lon="-0.00463">
        <ele>1632.4</ele>
        <time>2024-08-15T08:13:18Z</time>
      </trkpt>
      <trkpt lat="42.96862" lon="-0.00464">
        <ele>1632.8</ele>
        <time>2024-08-15T08:13:19Z</time>
      </trkpt>
      <trkpt lat="42.9686" lon="-0.00464">
        <ele>1632.8</ele>
        <time>2024-08-15T08:13:20Z</time>
      </trkpt>
      <trkpt lat="42.96859" lon="-0.00466">
        <ele>1633</ele>
        <time>2024-08-15T08:13:21Z</time>
      </trkpt>
      <trkpt lat="42.96857" lon="-0.00467">
        <ele>1633</ele>
        <time>2024-08-15T08:13:22Z</time>
      </trkpt>
      <trkpt lat="42.96855" lon="-0.00467">
        <ele>1633.2</ele>
        <time>2024-08-15T08:13:23Z</time>
      </trkpt>
      <trkpt lat="42.96853" lon="-0.00468">
        <ele>1633.4</ele>
        <time>2024-08-15T08:13:24Z</time>
      </trkpt>
      <trkpt lat="42.96851" lon="-0.00469">
        <ele>1633.4</ele>
        <time>2024-08-15T08:13:25Z</time>
      </trkpt>
      <trkpt lat="42.96849" lon="-0.0047">
        <ele>1633.8</ele>
        <time>2024-08-15T08:13:26Z</time>
      </trkpt>
      <trkpt lat="42.96847" lon="-0.00471">
        <ele>1633.8</ele>
        <time>2024-08-15T08:13:27Z</time>
      </trkpt>
      <trkpt lat="42.96845" lon="-0.00472">
        <ele>1634</ele>
        <time>2024-08-15T08:13:28Z</time>
      </trkpt>
      <trkpt lat="42.96843" lon="-0.00473">
        <ele>1634</ele>
        <time>2024-08-15T08:13:29Z</time>
      </trkpt>
      <trkpt lat="42.96842" lon="-0.00474">
        <ele>1634.2</ele>
        <time>2024-08-15T08:13:30Z</time>
      </trkpt>
      <trkpt lat="42.9684" lon="-0.00476">
        <ele>1634.2</ele>
        <time>2024-08-15T08:13:31Z</time>
      </trkpt>
      <trkpt lat="42.96838" lon="-0.00477">
        <ele>1634.2</ele>
        <time>2024-08-15T08:13:32Z</time>
      </trkpt>
      <trkpt lat="42.96836" lon="-0.00478">
        <ele>1634.6</ele>
        <time>2024-08-15T08:13:33Z</time>
      </trkpt>
      <trkpt lat="42.96835" lon="-0.00479">
        <ele>1634.6</ele>
        <time>2024-08-15T08:13:34Z</time>
      </trkpt>
      <trkpt lat="42.96833" lon="-0.0048">
        <ele>1635</ele>
        <time>2024-08-15T08:13:35Z</time>
      </trkpt>
      <trkpt lat="42.96831" lon="-0.00482">
        <ele>1635</ele>
        <time>2024-08-15T08:13:36Z</time>
      </trkpt>
      <trkpt lat="42.9683" lon="-0.00483">
        <ele>1635.4</ele>
        <time>2024-08-15T08:13:37Z</time>
      </trkpt>
      <trkpt lat="42.96828" lon="-0.00485">
        <ele>1635.6</ele>
        <time>2024-08-15T08:13:38Z</time>
      </trkpt>
      <trkpt lat="42.96827" lon="-0.00487">
        <ele>1635.8</ele>
        <time>2024-08-15T08:13:39Z</time>
      </trkpt>
      <trkpt lat="42.96825" lon="-0.00489">
        <ele>1636.2</ele>
        <time>2024-08-15T08:13:40Z</time>
      </trkpt>
      <trkpt lat="42.96823" lon="-0.0049">
        <ele>1636.2</ele>
        <time>2024-08-15T08:13:41Z</time>
      </trkpt>
      <trkpt lat="42.96822" lon="-0.00492">
        <ele>1636.4</ele>
        <time>2024-08-15T08:13:42Z</time>
      </trkpt>
      <trkpt lat="42.96821" lon="-0.00494">
        <ele>1636.6</ele>
        <time>2024-08-15T08:13:43Z</time>
      </trkpt>
      <trkpt lat="42.96819" lon="-0.00496">
        <ele>1636.6</ele>
        <time>2024-08-15T08:13:44Z</time>
      </trkpt>
      <trkpt lat="42.96818" lon="-0.00499">
        <ele>1636.8</ele>
        <time>2024-08-15T08:13:45Z</time>
      </trkpt>
      <trkpt lat="42.96817" lon="-0.00501">
        <ele>1637</ele>
        <time>2024-08-15T08:13:46Z</time>
      </trkpt>
      <trkpt lat="42.96815" lon="-0.00502">
        <ele>1637.2</ele>
        <time>2024-08-15T08:13:47Z</time>
      </trkpt>
      <trkpt lat="42.96814" lon="-0.00504">
        <ele>1637.2</ele>
        <time>2024-08-15T08:13:48Z</time>
      </trkpt>
      <trkpt lat="42.96812" lon="-0.00506">
        <ele>1637.4</ele>
        <time>2024-08-15T08:13:49Z</time>
      </trkpt>
      <trkpt lat="42.96811" lon="-0.00508">
        <ele>1637.4</ele>
        <time>2024-08-15T08:13:50Z</time>
      </trkpt>
      <trkpt lat="42.9681" lon="-0.0051">
        <ele>1637.6</ele>
        <time>2024-08-15T08:13:51Z</time>
      </trkpt>
      <trkpt lat="42.96809" lon="-0.00512">
        <ele>1637.8</ele>
        <time>2024-08-15T08:13:52Z</time>
      </trkpt>
      <trkpt lat="42.96808" lon="-0.00514">
        <ele>1638</ele>
        <time>2024-08-15T08:13:53Z</time>
      </trkpt>
      <trkpt lat="42.96807" lon="-0.00515">
        <ele>1638.4</ele>
        <time>2024-08-15T08:13:54Z</time>
      </trkpt>
      <trkpt lat="42.96805" lon="-0.00517">
        <ele>1638.4</ele>
        <time>2024-08-15T08:13:55Z</time>
      </trkpt>
      <trkpt lat="42.96804" lon="-0.00519">
        <ele>1638.6</ele>
        <time>2024-08-15T08:13:56Z</time>
      </trkpt>
      <trkpt lat="42.96802" lon="-0.00521">
        <ele>1638.6</ele>
        <time>2024-08-15T08:13:57Z</time>
      </trkpt>
      <trkpt lat="42.96801" lon="-0.00523">
        <ele>1638.8</ele>
        <time>2024-08-15T08:13:58Z</time>
      </trkpt>
      <trkpt lat="42.968" lon="-0.00525">
        <ele>1639</ele>
        <time>2024-08-15T08:13:59Z</time>
      </trkpt>
      <trkpt lat="42.96799" lon="-0.00526">
        <ele>1639.2</ele>
        <time>2024-08-15T08:14:00Z</time>
      </trkpt>
      <trkpt lat="42.96797" lon="-0.00528">
        <ele>1639.4</ele>
        <time>2024-08-15T08:14:01Z</time>
      </trkpt>
      <trkpt lat="42.96796" lon="-0.00529">
        <ele>1639.6</ele>
        <time>2024-08-15T08:14:02Z</time>
      </trkpt>
      <trkpt lat="42.96795" lon="-0.00531">
        <ele>1639.8</ele>
        <time>2024-08-15T08:14:03Z</time>
      </trkpt>
      <trkpt lat="42.96794" lon="-0.00533">
        <ele>1639.8</ele>
        <time>2024-08-15T08:14:04Z</time>
      </trkpt>
      <trkpt lat="42.96794" lon="-0.00536">
        <ele>1640.2</ele>
        <time>2024-08-15T08:14:05Z</time>
      </trkpt>
      <trkpt lat="42.96793" lon="-0.00538">
        <ele>1640.4</ele>
        <time>2024-08-15T08:14:06Z</time>
      </trkpt>
      <trkpt lat="42.96792" lon="-0.0054">
        <ele>1640.6</ele>
        <time>2024-08-15T08:14:07Z</time>
      </trkpt>
      <trkpt lat="42.96791" lon="-0.00542">
        <ele>1640.6</ele>
        <time>2024-08-15T08:14:08Z</time>
      </trkpt>
      <trkpt lat="42.9679" lon="-0.00544">
        <ele>1640.8</ele>
        <time>2024-08-15T08:14:09Z</time>
      </trkpt>
      <trkpt lat="42.96789" lon="-0.00545">
        <ele>1641</ele>
        <time>2024-08-15T08:14:10Z</time>
      </trkpt>
      <trkpt lat="42.96787" lon="-0.00547">
        <ele>1641</ele>
        <time>2024-08-15T08:14:11Z</time>
      </trkpt>
      <trkpt lat="42.96786" lon="-0.00549">
        <ele>1641.4</ele>
        <time>2024-08-15T08:14:12Z</time>
      </trkpt>
      <trkpt lat="42.96785" lon="-0.00551">
        <ele>1641.4</ele>
        <time>2024-08-15T08:14:13Z</time>
      </trkpt>
      <trkpt lat="42.96784" lon="-0.00553">
        <ele>1641.6</ele>
        <time>2024-08-15T08:14:14Z</time>
      </trkpt>
      <trkpt lat="42.96783" lon="-0.00556">
        <ele>1641.8</ele>
        <time>2024-08-15T08:14:15Z</time>
      </trkpt>
      <trkpt lat="42.96782" lon="-0.00559">
        <ele>1641.8</ele>
        <time>2024-08-15T08:14:16Z</time>
      </trkpt>
      <trkpt lat="42.96781" lon="-0.0056">
        <ele>1642</ele>
        <time>2024-08-15T08:14:17Z</time>
      </trkpt>
      <trkpt lat="42.96779" lon="-0.00562">
        <ele>1642</ele>
        <time>2024-08-15T08:14:18Z</time>
      </trkpt>
      <trkpt lat="42.96778" lon="-0.00564">
        <ele>1642</ele>
        <time>2024-08-15T08:14:19Z</time>
      </trkpt>
      <trkpt lat="42.96776" lon="-0.00566">
        <ele>1642.2</ele>
        <time>2024-08-15T08:14:20Z</time>
      </trkpt>
      <trkpt lat="42.96775" lon="-0.00569">
        <ele>1642.4</ele>
        <time>2024-08-15T08:14:21Z</time>
      </trkpt>
      <trkpt lat="42.96773" lon="-0.0057">
        <ele>1642.4</ele>
        <time>2024-08-15T08:14:22Z</time>
      </trkpt>
      <trkpt lat="42.96772" lon="-0.00572">
        <ele>1642.8</ele>
        <time>2024-08-15T08:14:23Z</time>
      </trkpt>
      <trkpt lat="42.9677" lon="-0.00574">
        <ele>1642.8</ele>
        <time>2024-08-15T08:14:24Z</time>
      </trkpt>
      <trkpt lat="42.96768" lon="-0.00575">
        <ele>1643</ele>
        <time>2024-08-15T08:14:25Z</time>
      </trkpt>
      <trkpt lat="42.96767" lon="-0.00577">
        <ele>1643.4</ele>
        <time>2024-08-15T08:14:26Z</time>
      </trkpt>
      <trkpt lat="42.96765" lon="-0.00578">
        <ele>1643.2</ele>
        <time>2024-08-15T08:14:27Z</time>
      </trkpt>
      <trkpt lat="42.96764" lon="-0.00579">
        <ele>1643.4</ele>
        <time>2024-08-15T08:14:28Z</time>
      </trkpt>
      <trkpt lat="42.96761" lon="-0.00579">
        <ele>1643.4</ele>
        <time>2024-08-15T08:14:29Z</time>
      </trkpt>
      <trkpt lat="42.9676" lon="-0.00579">
        <ele>1643.4</ele>
        <time>2024-08-15T08:14:30Z</time>
      </trkpt>
      <trkpt lat="42.96758" lon="-0.00579">
        <ele>1643.4</ele>
        <time>2024-08-15T08:14:31Z</time>
      </trkpt>
      <trkpt lat="42.96757" lon="-0.00578">
        <ele>1643.8</ele>
        <time>2024-08-15T08:14:32Z</time>
      </trkpt>
      <trkpt lat="42.96756" lon="-0.00575">
        <ele>1644</ele>
        <time>2024-08-15T08:14:33Z</time>
      </trkpt>
      <trkpt lat="42.96756" lon="-0.00572">
        <ele>1644</ele>
        <time>2024-08-15T08:14:34Z</time>
      </trkpt>
      <trkpt lat="42.96755" lon="-0.00569">
        <ele>1644</ele>
        <time>2024-08-15T08:14:35Z</time>
      </trkpt>
      <trkpt lat="42.96755" lon="-0.00566">
        <ele>1644</ele>
        <time>2024-08-15T08:14:36Z</time>
      </trkpt>
      <trkpt lat="42.96756" lon="-0.00563">
        <ele>1644.2</ele>
        <time>2024-08-15T08:14:37Z</time>
      </trkpt>
      <trkpt lat="42.96756" lon="-0.0056">
        <ele>1644.2</ele>
        <time>2024-08-15T08:14:38Z</time>
      </trkpt>
      <trkpt lat="42.96757" lon="-0.00556">
        <ele>1644.4</ele>
        <time>2024-08-15T08:14:39Z</time>
      </trkpt>
      <trkpt lat="42.96758" lon="-0.00553">
        <ele>1644.4</ele>
        <time>2024-08-15T08:14:40Z</time>
      </trkpt>
      <trkpt lat="42.96759" lon="-0.00549">
        <ele>1644.4</ele>
        <time>2024-08-15T08:14:41Z</time>
      </trkpt>
      <trkpt lat="42.9676" lon="-0.00547">
        <ele>1644.6</ele>
        <time>2024-08-15T08:14:42Z</time>
      </trkpt>
      <trkpt lat="42.96761" lon="-0.00544">
        <ele>1644.6</ele>
        <time>2024-08-15T08:14:43Z</time>
      </trkpt>
      <trkpt lat="42.96762" lon="-0.0054">
        <ele>1644.6</ele>
        <time>2024-08-15T08:14:44Z</time>
      </trkpt>
      <trkpt lat="42.96763" lon="-0.00537">
        <ele>1644.8</ele>
        <time>2024-08-15T08:14:45Z</time>
      </trkpt>
      <trkpt lat="42.96764" lon="-0.00535">
        <ele>1645</ele>
        <time>2024-08-15T08:14:46Z</time>
      </trkpt>
      <trkpt lat="42.96766" lon="-0.00532">
        <ele>1645.2</ele>
        <time>2024-08-15T08:14:47Z</time>
      </trkpt>
      <trkpt lat="42.96768" lon="-0.00526">
        <ele>1645.2</ele>
        <time>2024-08-15T08:14:49Z</time>
      </trkpt>
      <trkpt lat="42.96775" lon="-0.0051">
        <ele>1645.8</ele>
        <time>2024-08-15T08:14:54Z</time>
      </trkpt>
      <trkpt lat="42.96776" lon="-0.00508">
        <ele>1645.8</ele>
        <time>2024-08-15T08:14:55Z</time>
      </trkpt>
      <trkpt lat="42.96778" lon="-0.00506">
        <ele>1645.8</ele>
        <time>2024-08-15T08:14:56Z</time>
      </trkpt>
      <trkpt lat="42.96783" lon="-0.00497">
        <ele>1646</ele>
        <time>2024-08-15T08:14:59Z</time>
      </trkpt>
      <trkpt lat="42.96784" lon="-0.00494">
        <ele>1646</ele>
        <time>2024-08-15T08:15:00Z</time>
      </trkpt>
      <trkpt lat="42.96785" lon="-0.00492">
        <ele>1646</ele>
        <time>2024-08-15T08:15:01Z</time>
      </trkpt>
      <trkpt lat="42.96787" lon="-0.00484">
        <ele>1646.4</ele>
        <time>2024-08-15T08:15:03Z</time>
      </trkpt>
      <trkpt lat="42.96788" lon="-0.00481">
        <ele>1646.4</ele>
        <time>2024-08-15T08:15:04Z</time>
      </trkpt>
      <trkpt lat="42.96788" lon="-0.00464">
        <ele>1647.2</ele>
        <time>2024-08-15T08:15:09Z</time>
      </trkpt>
      <trkpt lat="42.96787" lon="-0.00461">
        <ele>1647.2</ele>
        <time>2024-08-15T08:15:10Z</time>
      </trkpt>
      <trkpt lat="42.96787" lon="-0.00458">
        <ele>1647.2</ele>
        <time>2024-08-15T08:15:11Z</time>
      </trkpt>
      <trkpt lat="42.96788" lon="-0.00451">
        <ele>1647.4</ele>
        <time>2024-08-15T08:15:13Z</time>
      </trkpt>
      <trkpt lat="42.96788" lon="-0.00444">
        <ele>1647.6</ele>
        <time>2024-08-15T08:15:15Z</time>
      </trkpt>
      <trkpt lat="42.96789" lon="-0.0043">
        <ele>1648.2</ele>
        <time>2024-08-15T08:15:19Z</time>
      </trkpt>
      <trkpt lat="42.96791" lon="-0.0042">
        <ele>1648.4</ele>
        <time>2024-08-15T08:15:22Z</time>
      </trkpt>
      <trkpt lat="42.96793" lon="-0.00415">
        <ele>1648.6</ele>
        <time>2024-08-15T08:15:23Z</time>
      </trkpt>
      <trkpt lat="42.96794" lon="-0.00412">
        <ele>1648.8</ele>
        <time>2024-08-15T08:15:24Z</time>
      </trkpt>
      <trkpt lat="42.96795" lon="-0.00408">
        <ele>1648.8</ele>
        <time>2024-08-15T08:15:25Z</time>
      </trkpt>
      <trkpt lat="42.96795" lon="-0.00405">
        <ele>1648.8</ele>
        <time>2024-08-15T08:15:26Z</time>
      </trkpt>
      <trkpt lat="42.96796" lon="-0.00401">
        <ele>1649</ele>
        <time>2024-08-15T08:15:27Z</time>
      </trkpt>
      <trkpt lat="42.96798" lon="-0.00397">
        <ele>1649</ele>
        <time>2024-08-15T08:15:28Z</time>
      </trkpt>
      <trkpt lat="42.96799" lon="-0.00394">
        <ele>1649.2</ele>
        <time>2024-08-15T08:15:29Z</time>
      </trkpt>
      <trkpt lat="42.968" lon="-0.0039">
        <ele>1649.6</ele>
        <time>2024-08-15T08:15:30Z</time>
      </trkpt>
      <trkpt lat="42.96801" lon="-0.00388">
        <ele>1649.8</ele>
        <time>2024-08-15T08:15:31Z</time>
      </trkpt>
      <trkpt lat="42.96803" lon="-0.00385">
        <ele>1650</ele>
        <time>2024-08-15T08:15:32Z</time>
      </trkpt>
      <trkpt lat="42.96804" lon="-0.0038">
        <ele>1650</ele>
        <time>2024-08-15T08:15:33Z</time>
      </trkpt>
      <trkpt lat="42.96805" lon="-0.00377">
        <ele>1650.2</ele>
        <time>2024-08-15T08:15:34Z</time>
      </trkpt>
      <trkpt lat="42.96806" lon="-0.00374">
        <ele>1650.2</ele>
        <time>2024-08-15T08:15:35Z</time>
      </trkpt>
      <trkpt lat="42.96808" lon="-0.00371">
        <ele>1650.4</ele>
        <time>2024-08-15T08:15:36Z</time>
      </trkpt>
      <trkpt lat="42.96809" lon="-0.00368">
        <ele>1650.4</ele>
        <time>2024-08-15T08:15:37Z</time>
      </trkpt>
      <trkpt lat="42.96811" lon="-0.00364">
        <ele>1650.4</ele>
        <time>2024-08-15T08:15:38Z</time>
      </trkpt>
      <trkpt lat="42.96813" lon="-0.0036">
        <ele>1650.8</ele>
        <time>2024-08-15T08:15:39Z</time>
      </trkpt>
      <trkpt lat="42.96814" lon="-0.00358">
        <ele>1651</ele>
        <time>2024-08-15T08:15:40Z</time>
      </trkpt>
      <trkpt lat="42.96817" lon="-0.00355">
        <ele>1651.2</ele>
        <time>2024-08-15T08:15:41Z</time>
      </trkpt>
      <trkpt lat="42.96818" lon="-0.00352">
        <ele>1651.2</ele>
        <time>2024-08-15T08:15:42Z</time>
      </trkpt>
      <trkpt lat="42.96821" lon="-0.00349">
        <ele>1651.4</ele>
        <time>2024-08-15T08:15:43Z</time>
      </trkpt>
      <trkpt lat="42.96822" lon="-0.00346">
        <ele>1651.4</ele>
        <time>2024-08-15T08:15:44Z</time>
      </trkpt>
      <trkpt lat="42.96824" lon="-0.00343">
        <ele>1651.4</ele>
        <time>2024-08-15T08:15:45Z</time>
      </trkpt>
      <trkpt lat="42.96826" lon="-0.00341">
        <ele>1651.6</ele>
        <time>2024-08-15T08:15:46Z</time>
      </trkpt>
      <trkpt lat="42.96828" lon="-0.00337">
        <ele>1651.6</ele>
        <time>2024-08-15T08:15:47Z</time>
      </trkpt>
      <trkpt lat="42.9683" lon="-0.00334">
        <ele>1651.6</ele>
        <time>2024-08-15T08:15:48Z</time>
      </trkpt>
      <trkpt lat="42.96831" lon="-0.0033">
        <ele>1651.6</ele>
        <time>2024-08-15T08:15:49Z</time>
      </trkpt>
      <trkpt lat="42.96832" lon="-0.00327">
        <ele>1651.8</ele>
        <time>2024-08-15T08:15:50Z</time>
      </trkpt>
      <trkpt lat="42.96833" lon="-0.00324">
        <ele>1651.8</ele>
        <time>2024-08-15T08:15:51Z</time>
      </trkpt>
      <trkpt lat="42.96834" lon="-0.00319">
        <ele>1651.8</ele>
        <time>2024-08-15T08:15:52Z</time>
      </trkpt>
      <trkpt lat="42.96835" lon="-0.00315">
        <ele>1652</ele>
        <time>2024-08-15T08:15:53Z</time>
      </trkpt>
      <trkpt lat="42.96836" lon="-0.00311">
        <ele>1652</ele>
        <time>2024-08-15T08:15:54Z</time>
      </trkpt>
      <trkpt lat="42.96837" lon="-0.00309">
        <ele>1652.2</ele>
        <time>2024-08-15T08:15:55Z</time>
      </trkpt>
      <trkpt lat="42.96838" lon="-0.00305">
        <ele>1652.2</ele>
        <time>2024-08-15T08:15:56Z</time>
      </trkpt>
      <trkpt lat="42.96838" lon="-0.003">
        <ele>1652.4</ele>
        <time>2024-08-15T08:15:57Z</time>
      </trkpt>
      <trkpt lat="42.96839" lon="-0.00296">
        <ele>1652.6</ele>
        <time>2024-08-15T08:15:58Z</time>
      </trkpt>
      <trkpt lat="42.96839" lon="-0.00292">
        <ele>1652.6</ele>
        <time>2024-08-15T08:15:59Z</time>
      </trkpt>
      <trkpt lat="42.96839" lon="-0.00289">
        <ele>1652.8</ele>
        <time>2024-08-15T08:16:00Z</time>
      </trkpt>
      <trkpt lat="42.96839" lon="-0.00285">
        <ele>1652.8</ele>
        <time>2024-08-15T08:16:01Z</time>
      </trkpt>
      <trkpt lat="42.9684" lon="-0.00281">
        <ele>1652.8</ele>
        <time>2024-08-15T08:16:02Z</time>
      </trkpt>
      <trkpt lat="42.9684" lon="-0.00276">
        <ele>1652.8</ele>
        <time>2024-08-15T08:16:03Z</time>
      </trkpt>
      <trkpt lat="42.9684" lon="-0.00272">
        <ele>1653</ele>
        <time>2024-08-15T08:16:04Z</time>
      </trkpt>
      <trkpt lat="42.96841" lon="-0.0026">
        <ele>1653.4</ele>
        <time>2024-08-15T08:16:07Z</time>
      </trkpt>
      <trkpt lat="42.96841" lon="-0.00255">
        <ele>1653.4</ele>
        <time>2024-08-15T08:16:08Z</time>
      </trkpt>
      <trkpt lat="42.96841" lon="-0.00251">
        <ele>1653.4</ele>
        <time>2024-08-15T08:16:09Z</time>
      </trkpt>
      <trkpt lat="42.96842" lon="-0.0024">
        <ele>1653.6</ele>
        <time>2024-08-15T08:16:12Z</time>
      </trkpt>
      <trkpt lat="42.96841" lon="-0.00211">
        <ele>1653.8</ele>
        <time>2024-08-15T08:16:18Z</time>
      </trkpt>
      <trkpt lat="42.96841" lon="-0.00201">
        <ele>1654</ele>
        <time>2024-08-15T08:16:20Z</time>
      </trkpt>
      <trkpt lat="42.96841" lon="-0.00197">
        <ele>1654.2</ele>
        <time>2024-08-15T08:16:21Z</time>
      </trkpt>
      <trkpt lat="42.96841" lon="-0.00192">
        <ele>1654.4</ele>
        <time>2024-08-15T08:16:22Z</time>
      </trkpt>
      <trkpt lat="42.96841" lon="-0.00187">
        <ele>1654.6</ele>
        <time>2024-08-15T08:16:23Z</time>
      </trkpt>
      <trkpt lat="42.96841" lon="-0.00182">
        <ele>1654.6</ele>
        <time>2024-08-15T08:16:24Z</time>
      </trkpt>
      <trkpt lat="42.96841" lon="-0.00177">
        <ele>1654.8</ele>
        <time>2024-08-15T08:16:25Z</time>
      </trkpt>
      <trkpt lat="42.96841" lon="-0.00174">
        <ele>1654.8</ele>
        <time>2024-08-15T08:16:26Z</time>
      </trkpt>
      <trkpt lat="42.96841" lon="-0.00169">
        <ele>1654.8</ele>
        <time>2024-08-15T08:16:27Z</time>
      </trkpt>
      <trkpt lat="42.96841" lon="-0.00164">
        <ele>1655</ele>
        <time>2024-08-15T08:16:28Z</time>
      </trkpt>
      <trkpt lat="42.96842" lon="-0.0016">
        <ele>1655</ele>
        <time>2024-08-15T08:16:29Z</time>
      </trkpt>
      <trkpt lat="42.96842" lon="-0.00152">
        <ele>1655</ele>
        <time>2024-08-15T08:16:31Z</time>
      </trkpt>
      <trkpt lat="42.96842" lon="-0.00148">
        <ele>1655.2</ele>
        <time>2024-08-15T08:16:32Z</time>
      </trkpt>
      <trkpt lat="42.96844" lon="-0.00138">
        <ele>1655.4</ele>
        <time>2024-08-15T08:16:34Z</time>
      </trkpt>
      <trkpt lat="42.96845" lon="-0.0013">
        <ele>1655.6</ele>
        <time>2024-08-15T08:16:36Z</time>
      </trkpt>
      <trkpt lat="42.96845" lon="-0.00126">
        <ele>1656</ele>
        <time>2024-08-15T08:16:37Z</time>
      </trkpt>
      <trkpt lat="42.96848" lon="-0.00104">
        <ele>1656.4</ele>
        <time>2024-08-15T08:16:42Z</time>
      </trkpt>
      <trkpt lat="42.9685" lon="-0.00095">
        <ele>1656.6</ele>
        <time>2024-08-15T08:16:44Z</time>
      </trkpt>
      <trkpt lat="42.96851" lon="-0.0009">
        <ele>1656.6</ele>
        <time>2024-08-15T08:16:45Z</time>
      </trkpt>
      <trkpt lat="42.96852" lon="-0.00085">
        <ele>1656.8</ele>
        <time>2024-08-15T08:16:46Z</time>
      </trkpt>
      <trkpt lat="42.96853" lon="-0.0008">
        <ele>1656.8</ele>
        <time>2024-08-15T08:16:47Z</time>
      </trkpt>
      <trkpt lat="42.96854" lon="-0.00076">
        <ele>1657</ele>
        <time>2024-08-15T08:16:48Z</time>
      </trkpt>
      <trkpt lat="42.96855" lon="-0.00072">
        <ele>1657.2</ele>
        <time>2024-08-15T08:16:49Z</time>
      </trkpt>
      <trkpt lat="42.96856" lon="-0.00068">
        <ele>1657.6</ele>
        <time>2024-08-15T08:16:50Z</time>
      </trkpt>
      <trkpt lat="42.96858" lon="-0.00063">
        <ele>1657.8</ele>
        <time>2024-08-15T08:16:51Z</time>
      </trkpt>
      <trkpt lat="42.9686" lon="-0.00059">
        <ele>1658</ele>
        <time>2024-08-15T08:16:52Z</time>
      </trkpt>
      <trkpt lat="42.96861" lon="-0.00055">
        <ele>1658.4</ele>
        <time>2024-08-15T08:16:53Z</time>
      </trkpt>
      <trkpt lat="42.96863" lon="-0.00051">
        <ele>1658.4</ele>
        <time>2024-08-15T08:16:54Z</time>
      </trkpt>
      <trkpt lat="42.96865" lon="-0.00048">
        <ele>1658.6</ele>
        <time>2024-08-15T08:16:55Z</time>
      </trkpt>
      <trkpt lat="42.96867" lon="-0.00044">
        <ele>1658.8</ele>
        <time>2024-08-15T08:16:56Z</time>
      </trkpt>
      <trkpt lat="42.96869" lon="-0.00041">
        <ele>1659</ele>
        <time>2024-08-15T08:16:57Z</time>
      </trkpt>
      <trkpt lat="42.96871" lon="-0.00037">
        <ele>1659.4</ele>
        <time>2024-08-15T08:16:58Z</time>
      </trkpt>
      <trkpt lat="42.96872" lon="-0.00033">
        <ele>1659.6</ele>
        <time>2024-08-15T08:16:59Z</time>
      </trkpt>
      <trkpt lat="42.96874" lon="-0.00028">
        <ele>1659.8</ele>
        <time>2024-08-15T08:17:00Z</time>
      </trkpt>
      <trkpt lat="42.96874" lon="-0.00024">
        <ele>1660</ele>
        <time>2024-08-15T08:17:01Z</time>
      </trkpt>
      <trkpt lat="42.96875" lon="-0.00019">
        <ele>1660</ele>
        <time>2024-08-15T08:17:02Z</time>
      </trkpt>
      <trkpt lat="42.96875" lon="-0.00014">
        <ele>1660.2</ele>
        <time>2024-08-15T08:17:03Z</time>
      </trkpt>
      <trkpt lat="42.96874" lon="-9.0E-5">
        <ele>1660.2</ele>
        <time>2024-08-15T08:17:04Z</time>
      </trkpt>
      <trkpt lat="42.96873" lon="-5.0E-5">
        <ele>1660.2</ele>
        <time>2024-08-15T08:17:05Z</time>
      </trkpt>
      <trkpt lat="42.96871" lon="-1.0E-5">
        <ele>1660.4</ele>
        <time>2024-08-15T08:17:06Z</time>
      </trkpt>
      <trkpt lat="42.9687" lon="3.0E-5">
        <ele>1660.4</ele>
        <time>2024-08-15T08:17:07Z</time>
      </trkpt>
      <trkpt lat="42.96869" lon="8.0E-5">
        <ele>1660.4</ele>
        <time>2024-08-15T08:17:08Z</time>
      </trkpt>
      <trkpt lat="42.96869" lon="0.00013">
        <ele>1660.4</ele>
        <time>2024-08-15T08:17:09Z</time>
      </trkpt>
      <trkpt lat="42.96868" lon="0.00018">
        <ele>1660.4</ele>
        <time>2024-08-15T08:17:10Z</time>
      </trkpt>
      <trkpt lat="42.96868" lon="0.00023">
        <ele>1660.4</ele>
        <time>2024-08-15T08:17:11Z</time>
      </trkpt>
      <trkpt lat="42.96867" lon="0.00028">
        <ele>1660.4</ele>
        <time>2024-08-15T08:17:12Z</time>
      </trkpt>
      <trkpt lat="42.96868" lon="0.00033">
        <ele>1660.4</ele>
        <time>2024-08-15T08:17:13Z</time>
      </trkpt>
      <trkpt lat="42.96868" lon="0.00038">
        <ele>1660.4</ele>
        <time>2024-08-15T08:17:14Z</time>
      </trkpt>
      <trkpt lat="42.96868" lon="0.00043">
        <ele>1660.2</ele>
        <time>2024-08-15T08:17:15Z</time>
      </trkpt>
      <trkpt lat="42.96869" lon="0.00049">
        <ele>1660.2</ele>
        <time>2024-08-15T08:17:16Z</time>
      </trkpt>
      <trkpt lat="42.9687" lon="0.00054">
        <ele>1660.2</ele>
        <time>2024-08-15T08:17:17Z</time>
      </trkpt>
      <trkpt lat="42.96872" lon="0.0006">
        <ele>1660</ele>
        <time>2024-08-15T08:17:18Z</time>
      </trkpt>
      <trkpt lat="42.96873" lon="0.00065">
        <ele>1660</ele>
        <time>2024-08-15T08:17:19Z</time>
      </trkpt>
      <trkpt lat="42.96875" lon="0.0007">
        <ele>1660</ele>
        <time>2024-08-15T08:17:20Z</time>
      </trkpt>
      <trkpt lat="42.96877" lon="0.00076">
        <ele>1660</ele>
        <time>2024-08-15T08:17:21Z</time>
      </trkpt>
      <trkpt lat="42.96876" lon="0.00083">
        <ele>1660</ele>
        <time>2024-08-15T08:17:22Z</time>
      </trkpt>
      <trkpt lat="42.96871" lon="0.00093">
        <ele>1660</ele>
        <time>2024-08-15T08:17:24Z</time>
      </trkpt>
      <trkpt lat="42.96869" lon="0.00097">
        <ele>1660</ele>
        <time>2024-08-15T08:17:25Z</time>
      </trkpt>
      <trkpt lat="42.96866" lon="0.00102">
        <ele>1660</ele>
        <time>2024-08-15T08:17:26Z</time>
      </trkpt>
      <trkpt lat="42.96864" lon="0.00106">
        <ele>1660</ele>
        <time>2024-08-15T08:17:27Z</time>
      </trkpt>
      <trkpt lat="42.96862" lon="0.00111">
        <ele>1660</ele>
        <time>2024-08-15T08:17:28Z</time>
      </trkpt>
      <trkpt lat="42.96856" lon="0.00126">
        <ele>1660.2</ele>
        <time>2024-08-15T08:17:31Z</time>
      </trkpt>
      <trkpt lat="42.96854" lon="0.00131">
        <ele>1660.2</ele>
        <time>2024-08-15T08:17:32Z</time>
      </trkpt>
      <trkpt lat="42.96852" lon="0.00135">
        <ele>1660.4</ele>
        <time>2024-08-15T08:17:33Z</time>
      </trkpt>
      <trkpt lat="42.9685" lon="0.00139">
        <ele>1660.4</ele>
        <time>2024-08-15T08:17:34Z</time>
      </trkpt>
      <trkpt lat="42.96847" lon="0.00143">
        <ele>1660.4</ele>
        <time>2024-08-15T08:17:35Z</time>
      </trkpt>
      <trkpt lat="42.96845" lon="0.00146">
        <ele>1660.6</ele>
        <time>2024-08-15T08:17:36Z</time>
      </trkpt>
      <trkpt lat="42.96844" lon="0.0015">
        <ele>1660.6</ele>
        <time>2024-08-15T08:17:37Z</time>
      </trkpt>
      <trkpt lat="42.96843" lon="0.00155">
        <ele>1660.6</ele>
        <time>2024-08-15T08:17:38Z</time>
      </trkpt>
      <trkpt lat="42.96843" lon="0.00159">
        <ele>1661</ele>
        <time>2024-08-15T08:17:39Z</time>
      </trkpt>
      <trkpt lat="42.96844" lon="0.00164">
        <ele>1661</ele>
        <time>2024-08-15T08:17:40Z</time>
      </trkpt>
      <trkpt lat="42.96844" lon="0.00169">
        <ele>1661.2</ele>
        <time>2024-08-15T08:17:41Z</time>
      </trkpt>
      <trkpt lat="42.96847" lon="0.00183">
        <ele>1661.6</ele>
        <time>2024-08-15T08:17:44Z</time>
      </trkpt>
      <trkpt lat="42.9685" lon="0.00192">
        <ele>1661.8</ele>
        <time>2024-08-15T08:17:46Z</time>
      </trkpt>
      <trkpt lat="42.96853" lon="0.00201">
        <ele>1661.8</ele>
        <time>2024-08-15T08:17:48Z</time>
      </trkpt>
      <trkpt lat="42.96854" lon="0.00206">
        <ele>1661.8</ele>
        <time>2024-08-15T08:17:49Z</time>
      </trkpt>
      <trkpt lat="42.9686" lon="0.00225">
        <ele>1662</ele>
        <time>2024-08-15T08:17:53Z</time>
      </trkpt>
      <trkpt lat="42.96864" lon="0.00239">
        <ele>1662</ele>
        <time>2024-08-15T08:17:56Z</time>
      </trkpt>
      <trkpt lat="42.96866" lon="0.00253">
        <ele>1662</ele>
        <time>2024-08-15T08:17:59Z</time>
      </trkpt>
      <trkpt lat="42.96872" lon="0.0027">
        <ele>1662.2</ele>
        <time>2024-08-15T08:18:03Z</time>
      </trkpt>
      <trkpt lat="42.96874" lon="0.00274">
        <ele>1662.2</ele>
        <time>2024-08-15T08:18:04Z</time>
      </trkpt>
      <trkpt lat="42.96877" lon="0.00277">
        <ele>1662.4</ele>
        <time>2024-08-15T08:18:05Z</time>
      </trkpt>
      <trkpt lat="42.96887" lon="0.00287">
        <ele>1662.8</ele>
        <time>2024-08-15T08:18:08Z</time>
      </trkpt>
      <trkpt lat="42.96902" lon="0.00299">
        <ele>1662.6</ele>
        <time>2024-08-15T08:18:12Z</time>
      </trkpt>
      <trkpt lat="42.96904" lon="0.00304">
        <ele>1662.6</ele>
        <time>2024-08-15T08:18:13Z</time>
      </trkpt>
      <trkpt lat="42.96905" lon="0.0031">
        <ele>1662.6</ele>
        <time>2024-08-15T08:18:14Z</time>
      </trkpt>
      <trkpt lat="42.96904" lon="0.00314">
        <ele>1662.6</ele>
        <time>2024-08-15T08:18:15Z</time>
      </trkpt>
      <trkpt lat="42.96903" lon="0.00319">
        <ele>1662.6</ele>
        <time>2024-08-15T08:18:16Z</time>
      </trkpt>
      <trkpt lat="42.96902" lon="0.00324">
        <ele>1662.6</ele>
        <time>2024-08-15T08:18:17Z</time>
      </trkpt>
      <trkpt lat="42.969" lon="0.0033">
        <ele>1662.4</ele>
        <time>2024-08-15T08:18:18Z</time>
      </trkpt>
      <trkpt lat="42.96896" lon="0.0035">
        <ele>1662.6</ele>
        <time>2024-08-15T08:18:22Z</time>
      </trkpt>
      <trkpt lat="42.96894" lon="0.00356">
        <ele>1662.8</ele>
        <time>2024-08-15T08:18:23Z</time>
      </trkpt>
      <trkpt lat="42.96893" lon="0.00361">
        <ele>1662.8</ele>
        <time>2024-08-15T08:18:24Z</time>
      </trkpt>
      <trkpt lat="42.96892" lon="0.00366">
        <ele>1663</ele>
        <time>2024-08-15T08:18:25Z</time>
      </trkpt>
      <trkpt lat="42.96891" lon="0.00371">
        <ele>1663</ele>
        <time>2024-08-15T08:18:26Z</time>
      </trkpt>
      <trkpt lat="42.9689" lon="0.00375">
        <ele>1663.2</ele>
        <time>2024-08-15T08:18:27Z</time>
      </trkpt>
      <trkpt lat="42.96889" lon="0.00386">
        <ele>1663.6</ele>
        <time>2024-08-15T08:18:29Z</time>
      </trkpt>
      <trkpt lat="42.96889" lon="0.00391">
        <ele>1663.8</ele>
        <time>2024-08-15T08:18:30Z</time>
      </trkpt>
      <trkpt lat="42.96889" lon="0.00406">
        <ele>1664.4</ele>
        <time>2024-08-15T08:18:33Z</time>
      </trkpt>
      <trkpt lat="42.96888" lon="0.00421">
        <ele>1665</ele>
        <time>2024-08-15T08:18:36Z</time>
      </trkpt>
      <trkpt lat="42.96888" lon="0.00426">
        <ele>1665</ele>
        <time>2024-08-15T08:18:37Z</time>
      </trkpt>
      <trkpt lat="42.96889" lon="0.00441">
        <ele>1665.4</ele>
        <time>2024-08-15T08:18:40Z</time>
      </trkpt>
      <trkpt lat="42.96889" lon="0.00446">
        <ele>1665.4</ele>
        <time>2024-08-15T08:18:41Z</time>
      </trkpt>
      <trkpt lat="42.96889" lon="0.00452">
        <ele>1665.2</ele>
        <time>2024-08-15T08:18:42Z</time>
      </trkpt>
      <trkpt lat="42.96889" lon="0.00458">
        <ele>1665.2</ele>
        <time>2024-08-15T08:18:43Z</time>
      </trkpt>
      <trkpt lat="42.9689" lon="0.00463">
        <ele>1665.2</ele>
        <time>2024-08-15T08:18:44Z</time>
      </trkpt>
      <trkpt lat="42.9689" lon="0.00468">
        <ele>1665.2</ele>
        <time>2024-08-15T08:18:45Z</time>
      </trkpt>
      <trkpt lat="42.9689" lon="0.00472">
        <ele>1665.2</ele>
        <time>2024-08-15T08:18:46Z</time>
      </trkpt>
      <trkpt lat="42.96888" lon="0.00477">
        <ele>1665.2</ele>
        <time>2024-08-15T08:18:47Z</time>
      </trkpt>
      <trkpt lat="42.96887" lon="0.00483">
        <ele>1665.2</ele>
        <time>2024-08-15T08:18:48Z</time>
      </trkpt>
      <trkpt lat="42.96886" lon="0.00488">
        <ele>1665.4</ele>
        <time>2024-08-15T08:18:49Z</time>
      </trkpt>
      <trkpt lat="42.96884" lon="0.00502">
        <ele>1665.4</ele>
        <time>2024-08-15T08:18:52Z</time>
      </trkpt>
      <trkpt lat="42.9688" lon="0.00513">
        <ele>1665.6</ele>
        <time>2024-08-15T08:18:54Z</time>
      </trkpt>
      <trkpt lat="42.96877" lon="0.00522">
        <ele>1665.6</ele>
        <time>2024-08-15T08:18:56Z</time>
      </trkpt>
      <trkpt lat="42.96874" lon="0.00526">
        <ele>1665.6</ele>
        <time>2024-08-15T08:18:57Z</time>
      </trkpt>
      <trkpt lat="42.96872" lon="0.00531">
        <ele>1665.6</ele>
        <time>2024-08-15T08:18:58Z</time>
      </trkpt>
      <trkpt lat="42.96871" lon="0.00534">
        <ele>1665.8</ele>
        <time>2024-08-15T08:18:59Z</time>
      </trkpt>
      <trkpt lat="42.96864" lon="0.00547">
        <ele>1665.6</ele>
        <time>2024-08-15T08:19:02Z</time>
      </trkpt>
      <trkpt lat="42.96862" lon="0.00552">
        <ele>1665.6</ele>
        <time>2024-08-15T08:19:03Z</time>
      </trkpt>
      <trkpt lat="42.96858" lon="0.00566">
        <ele>1665.4</ele>
        <time>2024-08-15T08:19:06Z</time>
      </trkpt>
      <trkpt lat="42.96856" lon="0.00571">
        <ele>1665.2</ele>
        <time>2024-08-15T08:19:07Z</time>
      </trkpt>
      <trkpt lat="42.96854" lon="0.00576">
        <ele>1665.2</ele>
        <time>2024-08-15T08:19:08Z</time>
      </trkpt>
      <trkpt lat="42.96853" lon="0.00579">
        <ele>1665</ele>
        <time>2024-08-15T08:19:09Z</time>
      </trkpt>
      <trkpt lat="42.96851" lon="0.00584">
        <ele>1665</ele>
        <time>2024-08-15T08:19:10Z</time>
      </trkpt>
      <trkpt lat="42.96851" lon="0.00587">
        <ele>1665</ele>
        <time>2024-08-15T08:19:11Z</time>
      </trkpt>
      <trkpt lat="42.96851" lon="0.00591">
        <ele>1664.8</ele>
        <time>2024-08-15T08:19:12Z</time>
      </trkpt>
      <trkpt lat="42.96852" lon="0.00595">
        <ele>1664.8</ele>
        <time>2024-08-15T08:19:13Z</time>
      </trkpt>
      <trkpt lat="42.96852" lon="0.00608">
        <ele>1664.8</ele>
        <time>2024-08-15T08:19:16Z</time>
      </trkpt>
      <trkpt lat="42.96852" lon="0.00612">
        <ele>1664.6</ele>
        <time>2024-08-15T08:19:17Z</time>
      </trkpt>
      <trkpt lat="42.96852" lon="0.00623">
        <ele>1664.6</ele>
        <time>2024-08-15T08:19:19Z</time>
      </trkpt>
      <trkpt lat="42.9685" lon="0.00647">
        <ele>1664</ele>
        <time>2024-08-15T08:19:23Z</time>
      </trkpt>
      <trkpt lat="42.9685" lon="0.00661">
        <ele>1663.8</ele>
        <time>2024-08-15T08:19:25Z</time>
      </trkpt>
      <trkpt lat="42.9685" lon="0.00668">
        <ele>1663.6</ele>
        <time>2024-08-15T08:19:26Z</time>
      </trkpt>
      <trkpt lat="42.96851" lon="0.00683">
        <ele>1663</ele>
        <time>2024-08-15T08:19:28Z</time>
      </trkpt>
      <trkpt lat="42.96851" lon="0.00691">
        <ele>1662.4</ele>
        <time>2024-08-15T08:19:29Z</time>
      </trkpt>
      <trkpt lat="42.96851" lon="0.00697">
        <ele>1661.8</ele>
        <time>2024-08-15T08:19:30Z</time>
      </trkpt>
      <trkpt lat="42.96851" lon="0.00702">
        <ele>1660.8</ele>
        <time>2024-08-15T08:19:31Z</time>
      </trkpt>
      <trkpt lat="42.96851" lon="0.00705">
        <ele>1660.6</ele>
        <time>2024-08-15T08:19:32Z</time>
      </trkpt>
      <trkpt lat="42.9685" lon="0.00708">
        <ele>1659.6</ele>
        <time>2024-08-15T08:19:33Z</time>
      </trkpt>
      <trkpt lat="42.9685" lon="0.00712">
        <ele>1658.8</ele>
        <time>2024-08-15T08:19:34Z</time>
      </trkpt>
      <trkpt lat="42.96849" lon="0.00715">
        <ele>1658.4</ele>
        <time>2024-08-15T08:19:35Z</time>
      </trkpt>
      <trkpt lat="42.96847" lon="0.00717">
        <ele>1657.6</ele>
        <time>2024-08-15T08:19:36Z</time>
      </trkpt>
      <trkpt lat="42.96845" lon="0.00718">
        <ele>1657.4</ele>
        <time>2024-08-15T08:19:37Z</time>
      </trkpt>
      <trkpt lat="42.96844" lon="0.00719">
        <ele>1657</ele>
        <time>2024-08-15T08:19:38Z</time>
      </trkpt>
      <trkpt lat="42.96842" lon="0.0072">
        <ele>1656.8</ele>
        <time>2024-08-15T08:19:39Z</time>
      </trkpt>
      <trkpt lat="42.96841" lon="0.00721">
        <ele>1656.6</ele>
        <time>2024-08-15T08:19:40Z</time>
      </trkpt>
      <trkpt lat="42.96834" lon="0.00726">
        <ele>1656.2</ele>
        <time>2024-08-15T08:19:43Z</time>
      </trkpt>
      <trkpt lat="42.96828" lon="0.00729">
        <ele>1656.2</ele>
        <time>2024-08-15T08:19:45Z</time>
      </trkpt>
      <trkpt lat="42.96826" lon="0.00732">
        <ele>1656.2</ele>
        <time>2024-08-15T08:19:46Z</time>
      </trkpt>
      <trkpt lat="42.96825" lon="0.00734">
        <ele>1656</ele>
        <time>2024-08-15T08:19:47Z</time>
      </trkpt>
      <trkpt lat="42.96824" lon="0.00737">
        <ele>1656</ele>
        <time>2024-08-15T08:19:48Z</time>
      </trkpt>
      <trkpt lat="42.96822" lon="0.00741">
        <ele>1656</ele>
        <time>2024-08-15T08:19:49Z</time>
      </trkpt>
      <trkpt lat="42.96821" lon="0.00743">
        <ele>1656</ele>
        <time>2024-08-15T08:19:50Z</time>
      </trkpt>
      <trkpt lat="42.96821" lon="0.00746">
        <ele>1656</ele>
        <time>2024-08-15T08:19:51Z</time>
      </trkpt>
      <trkpt lat="42.9682" lon="0.00748">
        <ele>1656</ele>
        <time>2024-08-15T08:19:52Z</time>
      </trkpt>
      <trkpt lat="42.9682" lon="0.00751">
        <ele>1656.2</ele>
        <time>2024-08-15T08:19:53Z</time>
      </trkpt>
      <trkpt lat="42.9682" lon="0.00753">
        <ele>1656.6</ele>
        <time>2024-08-15T08:19:55Z</time>
      </trkpt>
      <trkpt lat="42.9682" lon="0.00753">
        <ele>1656.8</ele>
        <time>2024-08-15T08:19:56Z</time>
      </trkpt>
      <trkpt lat="42.9682" lon="0.00754">
        <ele>1657.2</ele>
        <time>2024-08-15T08:19:58Z</time>
      </trkpt>
      <trkpt lat="42.9682" lon="0.00754">
        <ele>1657.2</ele>
        <time>2024-08-15T08:19:59Z</time>
      </trkpt>
      <trkpt lat="42.96819" lon="0.00755">
        <ele>1657.4</ele>
        <time>2024-08-15T08:20:00Z</time>
      </trkpt>
      <trkpt lat="42.96819" lon="0.00756">
        <ele>1657.4</ele>
        <time>2024-08-15T08:20:01Z</time>
      </trkpt>
      <trkpt lat="42.96818" lon="0.00757">
        <ele>1657.4</ele>
        <time>2024-08-15T08:20:02Z</time>
      </trkpt>
      <trkpt lat="42.96816" lon="0.00758">
        <ele>1657.6</ele>
        <time>2024-08-15T08:20:03Z</time>
      </trkpt>
      <trkpt lat="42.96814" lon="0.00759">
        <ele>1657.6</ele>
        <time>2024-08-15T08:20:04Z</time>
      </trkpt>
      <trkpt lat="42.96812" lon="0.0076">
        <ele>1657.6</ele>
        <time>2024-08-15T08:20:05Z</time>
      </trkpt>
      <trkpt lat="42.9681" lon="0.00761">
        <ele>1657.6</ele>
        <time>2024-08-15T08:20:06Z</time>
      </trkpt>
      <trkpt lat="42.96808" lon="0.00762">
        <ele>1657.6</ele>
        <time>2024-08-15T08:20:07Z</time>
      </trkpt>
      <trkpt lat="42.96807" lon="0.00764">
        <ele>1657.6</ele>
        <time>2024-08-15T08:20:08Z</time>
      </trkpt>
      <trkpt lat="42.96805" lon="0.00766">
        <ele>1657.8</ele>
        <time>2024-08-15T08:20:09Z</time>
      </trkpt>
      <trkpt lat="42.96803" lon="0.00769">
        <ele>1657.6</ele>
        <time>2024-08-15T08:20:10Z</time>
      </trkpt>
      <trkpt lat="42.96798" lon="0.0078">
        <ele>1657.6</ele>
        <time>2024-08-15T08:20:13Z</time>
      </trkpt>
      <trkpt lat="42.96796" lon="0.00782">
        <ele>1657.6</ele>
        <time>2024-08-15T08:20:14Z</time>
      </trkpt>
      <trkpt lat="42.96796" lon="0.00784">
        <ele>1657.6</ele>
        <time>2024-08-15T08:20:15Z</time>
      </trkpt>
      <trkpt lat="42.96795" lon="0.00786">
        <ele>1657.6</ele>
        <time>2024-08-15T08:20:16Z</time>
      </trkpt>
      <trkpt lat="42.96794" lon="0.00791">
        <ele>1657.8</ele>
        <time>2024-08-15T08:20:23Z</time>
      </trkpt>
      <trkpt lat="42.96793" lon="0.00792">
        <ele>1657.8</ele>
        <time>2024-08-15T08:20:24Z</time>
      </trkpt>
      <trkpt lat="42.96792" lon="0.00793">
        <ele>1657.8</ele>
        <time>2024-08-15T08:20:25Z</time>
      </trkpt>
      <trkpt lat="42.96785" lon="0.0081">
        <ele>1658.2</ele>
        <time>2024-08-15T08:20:31Z</time>
      </trkpt>
      <trkpt lat="42.96784" lon="0.00813">
        <ele>1658.2</ele>
        <time>2024-08-15T08:20:32Z</time>
      </trkpt>
      <trkpt lat="42.96783" lon="0.00816">
        <ele>1658.2</ele>
        <time>2024-08-15T08:20:33Z</time>
      </trkpt>
      <trkpt lat="42.96782" lon="0.0082">
        <ele>1658.2</ele>
        <time>2024-08-15T08:20:34Z</time>
      </trkpt>
      <trkpt lat="42.96779" lon="0.00829">
        <ele>1658.6</ele>
        <time>2024-08-15T08:20:37Z</time>
      </trkpt>
      <trkpt lat="42.96771" lon="0.00852">
        <ele>1659.8</ele>
        <time>2024-08-15T08:20:44Z</time>
      </trkpt>
      <trkpt lat="42.9677" lon="0.00855">
        <ele>1659.8</ele>
        <time>2024-08-15T08:20:45Z</time>
      </trkpt>
      <trkpt lat="42.96769" lon="0.00858">
        <ele>1660</ele>
        <time>2024-08-15T08:20:46Z</time>
      </trkpt>
      <trkpt lat="42.96769" lon="0.00861">
        <ele>1660</ele>
        <time>2024-08-15T08:20:47Z</time>
      </trkpt>
      <trkpt lat="42.96766" lon="0.00867">
        <ele>1660.2</ele>
        <time>2024-08-15T08:20:49Z</time>
      </trkpt>
      <trkpt lat="42.96763" lon="0.00873">
        <ele>1660.2</ele>
        <time>2024-08-15T08:20:51Z</time>
      </trkpt>
      <trkpt lat="42.96758" lon="0.00883">
        <ele>1660.4</ele>
        <time>2024-08-15T08:20:54Z</time>
      </trkpt>
      <trkpt lat="42.96756" lon="0.00887">
        <ele>1660.4</ele>
        <time>2024-08-15T08:20:55Z</time>
      </trkpt>
      <trkpt lat="42.96753" lon="0.00893">
        <ele>1660.4</ele>
        <time>2024-08-15T08:20:57Z</time>
      </trkpt>
      <trkpt lat="42.96749" lon="0.00902">
        <ele>1660.2</ele>
        <time>2024-08-15T08:20:59Z</time>
      </trkpt>
      <trkpt lat="42.96744" lon="0.0091">
        <ele>1660.2</ele>
        <time>2024-08-15T08:21:02Z</time>
      </trkpt>
      <trkpt lat="42.96741" lon="0.00914">
        <ele>1660.2</ele>
        <time>2024-08-15T08:21:03Z</time>
      </trkpt>
      <trkpt lat="42.96735" lon="0.00922">
        <ele>1660.4</ele>
        <time>2024-08-15T08:21:06Z</time>
      </trkpt>
      <trkpt lat="42.96733" lon="0.00925">
        <ele>1660.6</ele>
        <time>2024-08-15T08:21:07Z</time>
      </trkpt>
      <trkpt lat="42.96731" lon="0.00929">
        <ele>1660.6</ele>
        <time>2024-08-15T08:21:08Z</time>
      </trkpt>
      <trkpt lat="42.9673" lon="0.00932">
        <ele>1660.6</ele>
        <time>2024-08-15T08:21:09Z</time>
      </trkpt>
      <trkpt lat="42.96728" lon="0.00934">
        <ele>1660.8</ele>
        <time>2024-08-15T08:21:10Z</time>
      </trkpt>
      <trkpt lat="42.96726" lon="0.00937">
        <ele>1661</ele>
        <time>2024-08-15T08:21:11Z</time>
      </trkpt>
      <trkpt lat="42.96724" lon="0.00939">
        <ele>1661</ele>
        <time>2024-08-15T08:21:12Z</time>
      </trkpt>
      <trkpt lat="42.96716" lon="0.00958">
        <ele>1661.6</ele>
        <time>2024-08-15T08:21:17Z</time>
      </trkpt>
      <trkpt lat="42.96707" lon="0.00977">
        <ele>1661.6</ele>
        <time>2024-08-15T08:21:21Z</time>
      </trkpt>
      <trkpt lat="42.96704" lon="0.00981">
        <ele>1661.4</ele>
        <time>2024-08-15T08:21:22Z</time>
      </trkpt>
      <trkpt lat="42.96701" lon="0.00985">
        <ele>1661.4</ele>
        <time>2024-08-15T08:21:23Z</time>
      </trkpt>
      <trkpt lat="42.96699" lon="0.00989">
        <ele>1661.4</ele>
        <time>2024-08-15T08:21:24Z</time>
      </trkpt>
      <trkpt lat="42.96697" lon="0.00992">
        <ele>1661.4</ele>
        <time>2024-08-15T08:21:25Z</time>
      </trkpt>
      <trkpt lat="42.96695" lon="0.00995">
        <ele>1661.2</ele>
        <time>2024-08-15T08:21:26Z</time>
      </trkpt>
      <trkpt lat="42.96693" lon="0.00997">
        <ele>1661.2</ele>
        <time>2024-08-15T08:21:27Z</time>
      </trkpt>
      <trkpt lat="42.96691" lon="0.01">
        <ele>1661.2</ele>
        <time>2024-08-15T08:21:28Z</time>
      </trkpt>
      <trkpt lat="42.9669" lon="0.01002">
        <ele>1661.2</ele>
        <time>2024-08-15T08:21:29Z</time>
      </trkpt>
      <trkpt lat="42.96689" lon="0.01004">
        <ele>1661</ele>
        <time>2024-08-15T08:21:30Z</time>
      </trkpt>
      <trkpt lat="42.96687" lon="0.01006">
        <ele>1660.8</ele>
        <time>2024-08-15T08:21:31Z</time>
      </trkpt>
      <trkpt lat="42.96686" lon="0.01007">
        <ele>1660.8</ele>
        <time>2024-08-15T08:21:32Z</time>
      </trkpt>
      <trkpt lat="42.96683" lon="0.01011">
        <ele>1660.6</ele>
        <time>2024-08-15T08:21:34Z</time>
      </trkpt>
      <trkpt lat="42.96677" lon="0.0102">
        <ele>1659.6</ele>
        <time>2024-08-15T08:21:37Z</time>
      </trkpt>
      <trkpt lat="42.9667" lon="0.0103">
        <ele>1658.2</ele>
        <time>2024-08-15T08:21:40Z</time>
      </trkpt>
      <trkpt lat="42.96665" lon="0.01038">
        <ele>1657.2</ele>
        <time>2024-08-15T08:21:42Z</time>
      </trkpt>
      <trkpt lat="42.96658" lon="0.01049">
        <ele>1655.8</ele>
        <time>2024-08-15T08:21:45Z</time>
      </trkpt>
      <trkpt lat="42.96654" lon="0.01054">
        <ele>1655.2</ele>
        <time>2024-08-15T08:21:46Z</time>
      </trkpt>
      <trkpt lat="42.96652" lon="0.01058">
        <ele>1654.8</ele>
        <time>2024-08-15T08:21:47Z</time>
      </trkpt>
      <trkpt lat="42.96649" lon="0.01063">
        <ele>1654.6</ele>
        <time>2024-08-15T08:21:48Z</time>
      </trkpt>
      <trkpt lat="42.96646" lon="0.01068">
        <ele>1654.2</ele>
        <time>2024-08-15T08:21:49Z</time>
      </trkpt>
      <trkpt lat="42.96644" lon="0.01071">
        <ele>1654</ele>
        <time>2024-08-15T08:21:50Z</time>
      </trkpt>
      <trkpt lat="42.96643" lon="0.01075">
        <ele>1653.4</ele>
        <time>2024-08-15T08:21:51Z</time>
      </trkpt>
      <trkpt lat="42.96639" lon="0.0109">
        <ele>1652.2</ele>
        <time>2024-08-15T08:21:54Z</time>
      </trkpt>
      <trkpt lat="42.96638" lon="0.01096">
        <ele>1652</ele>
        <time>2024-08-15T08:21:55Z</time>
      </trkpt>
      <trkpt lat="42.96635" lon="0.01109">
        <ele>1651</ele>
        <time>2024-08-15T08:21:57Z</time>
      </trkpt>
      <trkpt lat="42.96634" lon="0.01115">
        <ele>1650.4</ele>
        <time>2024-08-15T08:21:58Z</time>
      </trkpt>
      <trkpt lat="42.96634" lon="0.01122">
        <ele>1650.2</ele>
        <time>2024-08-15T08:21:59Z</time>
      </trkpt>
      <trkpt lat="42.96634" lon="0.01128">
        <ele>1650</ele>
        <time>2024-08-15T08:22:00Z</time>
      </trkpt>
      <trkpt lat="42.96634" lon="0.01133">
        <ele>1649.8</ele>
        <time>2024-08-15T08:22:01Z</time>
      </trkpt>
      <trkpt lat="42.96633" lon="0.01143">
        <ele>1649.4</ele>
        <time>2024-08-15T08:22:03Z</time>
      </trkpt>
      <trkpt lat="42.96632" lon="0.0115">
        <ele>1649.2</ele>
        <time>2024-08-15T08:22:04Z</time>
      </trkpt>
      <trkpt lat="42.96631" lon="0.01155">
        <ele>1648.4</ele>
        <time>2024-08-15T08:22:05Z</time>
      </trkpt>
      <trkpt lat="42.9663" lon="0.01159">
        <ele>1648</ele>
        <time>2024-08-15T08:22:06Z</time>
      </trkpt>
      <trkpt lat="42.96628" lon="0.01169">
        <ele>1646.8</ele>
        <time>2024-08-15T08:22:08Z</time>
      </trkpt>
      <trkpt lat="42.96627" lon="0.01175">
        <ele>1646.4</ele>
        <time>2024-08-15T08:22:09Z</time>
      </trkpt>
      <trkpt lat="42.96624" lon="0.01191">
        <ele>1645.2</ele>
        <time>2024-08-15T08:22:11Z</time>
      </trkpt>
      <trkpt lat="42.96624" lon="0.01198">
        <ele>1644.4</ele>
        <time>2024-08-15T08:22:12Z</time>
      </trkpt>
      <trkpt lat="42.96623" lon="0.01207">
        <ele>1644</ele>
        <time>2024-08-15T08:22:13Z</time>
      </trkpt>
      <trkpt lat="42.96621" lon="0.01219">
        <ele>1643.6</ele>
        <time>2024-08-15T08:22:14Z</time>
      </trkpt>
      <trkpt lat="42.96619" lon="0.01229">
        <ele>1643.2</ele>
        <time>2024-08-15T08:22:15Z</time>
      </trkpt>
      <trkpt lat="42.96616" lon="0.01239">
        <ele>1642.2</ele>
        <time>2024-08-15T08:22:16Z</time>
      </trkpt>
      <trkpt lat="42.96613" lon="0.01247">
        <ele>1641.4</ele>
        <time>2024-08-15T08:22:17Z</time>
      </trkpt>
      <trkpt lat="42.96609" lon="0.01255">
        <ele>1641</ele>
        <time>2024-08-15T08:22:18Z</time>
      </trkpt>
      <trkpt lat="42.96604" lon="0.01263">
        <ele>1640.2</ele>
        <time>2024-08-15T08:22:19Z</time>
      </trkpt>
      <trkpt lat="42.96599" lon="0.01269">
        <ele>1639.6</ele>
        <time>2024-08-15T08:22:20Z</time>
      </trkpt>
      <trkpt lat="42.96595" lon="0.01275">
        <ele>1638.8</ele>
        <time>2024-08-15T08:22:21Z</time>
      </trkpt>
      <trkpt lat="42.9659" lon="0.01281">
        <ele>1638.4</ele>
        <time>2024-08-15T08:22:22Z</time>
      </trkpt>
      <trkpt lat="42.9658" lon="0.01294">
        <ele>1637.4</ele>
        <time>2024-08-15T08:22:24Z</time>
      </trkpt>
      <trkpt lat="42.96576" lon="0.013">
        <ele>1637.2</ele>
        <time>2024-08-15T08:22:25Z</time>
      </trkpt>
      <trkpt lat="42.96572" lon="0.01306">
        <ele>1637</ele>
        <time>2024-08-15T08:22:26Z</time>
      </trkpt>
      <trkpt lat="42.96568" lon="0.01312">
        <ele>1636.6</ele>
        <time>2024-08-15T08:22:27Z</time>
      </trkpt>
      <trkpt lat="42.96565" lon="0.01318">
        <ele>1636.2</ele>
        <time>2024-08-15T08:22:28Z</time>
      </trkpt>
      <trkpt lat="42.96559" lon="0.01333">
        <ele>1635.8</ele>
        <time>2024-08-15T08:22:30Z</time>
      </trkpt>
      <trkpt lat="42.96552" lon="0.01349">
        <ele>1635.2</ele>
        <time>2024-08-15T08:22:32Z</time>
      </trkpt>
      <trkpt lat="42.96547" lon="0.01356">
        <ele>1634.8</ele>
        <time>2024-08-15T08:22:33Z</time>
      </trkpt>
      <trkpt lat="42.96541" lon="0.01362">
        <ele>1634.4</ele>
        <time>2024-08-15T08:22:34Z</time>
      </trkpt>
      <trkpt lat="42.96534" lon="0.01365">
        <ele>1633.8</ele>
        <time>2024-08-15T08:22:35Z</time>
      </trkpt>
      <trkpt lat="42.96528" lon="0.01369">
        <ele>1633.2</ele>
        <time>2024-08-15T08:22:36Z</time>
      </trkpt>
      <trkpt lat="42.96522" lon="0.01371">
        <ele>1632.8</ele>
        <time>2024-08-15T08:22:37Z</time>
      </trkpt>
      <trkpt lat="42.96516" lon="0.01373">
        <ele>1632.8</ele>
        <time>2024-08-15T08:22:38Z</time>
      </trkpt>
      <trkpt lat="42.96508" lon="0.01375">
        <ele>1632.6</ele>
        <time>2024-08-15T08:22:39Z</time>
      </trkpt>
      <trkpt lat="42.96502" lon="0.01376">
        <ele>1632.4</ele>
        <time>2024-08-15T08:22:40Z</time>
      </trkpt>
      <trkpt lat="42.96495" lon="0.01378">
        <ele>1632.2</ele>
        <time>2024-08-15T08:22:41Z</time>
      </trkpt>
      <trkpt lat="42.9649" lon="0.0138">
        <ele>1632</ele>
        <time>2024-08-15T08:22:42Z</time>
      </trkpt>
      <trkpt lat="42.96476" lon="0.01386">
        <ele>1631.8</ele>
        <time>2024-08-15T08:22:44Z</time>
      </trkpt>
      <trkpt lat="42.9647" lon="0.01391">
        <ele>1631.4</ele>
        <time>2024-08-15T08:22:45Z</time>
      </trkpt>
      <trkpt lat="42.96465" lon="0.01396">
        <ele>1631.2</ele>
        <time>2024-08-15T08:22:46Z</time>
      </trkpt>
      <trkpt lat="42.9646" lon="0.01401">
        <ele>1630.8</ele>
        <time>2024-08-15T08:22:47Z</time>
      </trkpt>
      <trkpt lat="42.96455" lon="0.01406">
        <ele>1630.6</ele>
        <time>2024-08-15T08:22:48Z</time>
      </trkpt>
      <trkpt lat="42.96451" lon="0.01411">
        <ele>1630.4</ele>
        <time>2024-08-15T08:22:49Z</time>
      </trkpt>
      <trkpt lat="42.96448" lon="0.01416">
        <ele>1630.4</ele>
        <time>2024-08-15T08:22:50Z</time>
      </trkpt>
      <trkpt lat="42.96445" lon="0.01422">
        <ele>1630.2</ele>
        <time>2024-08-15T08:22:51Z</time>
      </trkpt>
      <trkpt lat="42.96442" lon="0.01427">
        <ele>1630.2</ele>
        <time>2024-08-15T08:22:52Z</time>
      </trkpt>
      <trkpt lat="42.9644" lon="0.01433">
        <ele>1630.2</ele>
        <time>2024-08-15T08:22:53Z</time>
      </trkpt>
      <trkpt lat="42.96438" lon="0.01438">
        <ele>1630</ele>
        <time>2024-08-15T08:22:54Z</time>
      </trkpt>
      <trkpt lat="42.96436" lon="0.01444">
        <ele>1630</ele>
        <time>2024-08-15T08:22:55Z</time>
      </trkpt>
      <trkpt lat="42.96433" lon="0.01449">
        <ele>1630</ele>
        <time>2024-08-15T08:22:56Z</time>
      </trkpt>
      <trkpt lat="42.96431" lon="0.01452">
        <ele>1630</ele>
        <time>2024-08-15T08:22:57Z</time>
      </trkpt>
      <trkpt lat="42.96429" lon="0.01455">
        <ele>1630</ele>
        <time>2024-08-15T08:22:58Z</time>
      </trkpt>
      <trkpt lat="42.96425" lon="0.01463">
        <ele>1629.8</ele>
        <time>2024-08-15T08:23:00Z</time>
      </trkpt>
      <trkpt lat="42.96422" lon="0.01474">
        <ele>1629.8</ele>
        <time>2024-08-15T08:23:02Z</time>
      </trkpt>
      <trkpt lat="42.96421" lon="0.01478">
        <ele>1629.8</ele>
        <time>2024-08-15T08:23:03Z</time>
      </trkpt>
      <trkpt lat="42.96419" lon="0.01485">
        <ele>1629.8</ele>
        <time>2024-08-15T08:23:04Z</time>
      </trkpt>
      <trkpt lat="42.96417" lon="0.01491">
        <ele>1629.8</ele>
        <time>2024-08-15T08:23:05Z</time>
      </trkpt>
      <trkpt lat="42.96412" lon="0.01505">
        <ele>1629.6</ele>
        <time>2024-08-15T08:23:07Z</time>
      </trkpt>
      <trkpt lat="42.96405" lon="0.01518">
        <ele>1629</ele>
        <time>2024-08-15T08:23:09Z</time>
      </trkpt>
      <trkpt lat="42.96402" lon="0.01525">
        <ele>1628.4</ele>
        <time>2024-08-15T08:23:10Z</time>
      </trkpt>
      <trkpt lat="42.96399" lon="0.0153">
        <ele>1628.2</ele>
        <time>2024-08-15T08:23:11Z</time>
      </trkpt>
      <trkpt lat="42.96396" lon="0.01536">
        <ele>1628</ele>
        <time>2024-08-15T08:23:12Z</time>
      </trkpt>
      <trkpt lat="42.9639" lon="0.01546">
        <ele>1627.6</ele>
        <time>2024-08-15T08:23:14Z</time>
      </trkpt>
      <trkpt lat="42.96388" lon="0.01553">
        <ele>1627.6</ele>
        <time>2024-08-15T08:23:15Z</time>
      </trkpt>
      <trkpt lat="42.96387" lon="0.01559">
        <ele>1627.2</ele>
        <time>2024-08-15T08:23:16Z</time>
      </trkpt>
      <trkpt lat="42.96386" lon="0.01565">
        <ele>1627.2</ele>
        <time>2024-08-15T08:23:17Z</time>
      </trkpt>
      <trkpt lat="42.96382" lon="0.01577">
        <ele>1626.8</ele>
        <time>2024-08-15T08:23:19Z</time>
      </trkpt>
      <trkpt lat="42.96381" lon="0.01582">
        <ele>1626.8</ele>
        <time>2024-08-15T08:23:20Z</time>
      </trkpt>
      <trkpt lat="42.96373" lon="0.01602">
        <ele>1626.6</ele>
        <time>2024-08-15T08:23:23Z</time>
      </trkpt>
      <trkpt lat="42.96371" lon="0.01607">
        <ele>1626.2</ele>
        <time>2024-08-15T08:23:24Z</time>
      </trkpt>
      <trkpt lat="42.96369" lon="0.01613">
        <ele>1626</ele>
        <time>2024-08-15T08:23:25Z</time>
      </trkpt>
      <trkpt lat="42.96366" lon="0.0162">
        <ele>1625.8</ele>
        <time>2024-08-15T08:23:26Z</time>
      </trkpt>
      <trkpt lat="42.96364" lon="0.01625">
        <ele>1625.8</ele>
        <time>2024-08-15T08:23:27Z</time>
      </trkpt>
      <trkpt lat="42.9636" lon="0.01637">
        <ele>1625.4</ele>
        <time>2024-08-15T08:23:29Z</time>
      </trkpt>
      <trkpt lat="42.96358" lon="0.01642">
        <ele>1625.2</ele>
        <time>2024-08-15T08:23:30Z</time>
      </trkpt>
      <trkpt lat="42.96355" lon="0.01648">
        <ele>1625</ele>
        <time>2024-08-15T08:23:31Z</time>
      </trkpt>
      <trkpt lat="42.96353" lon="0.01652">
        <ele>1625</ele>
        <time>2024-08-15T08:23:32Z</time>
      </trkpt>
      <trkpt lat="42.96351" lon="0.01655">
        <ele>1625</ele>
        <time>2024-08-15T08:23:33Z</time>
      </trkpt>
      <trkpt lat="42.96348" lon="0.01658">
        <ele>1625</ele>
        <time>2024-08-15T08:23:34Z</time>
      </trkpt>
      <trkpt lat="42.96346" lon="0.01661">
        <ele>1624.8</ele>
        <time>2024-08-15T08:23:35Z</time>
      </trkpt>
      <trkpt lat="42.96332" lon="0.01682">
        <ele>1624.2</ele>
        <time>2024-08-15T08:23:40Z</time>
      </trkpt>
      <trkpt lat="42.96325" lon="0.0169">
        <ele>1623.8</ele>
        <time>2024-08-15T08:23:42Z</time>
      </trkpt>
      <trkpt lat="42.96318" lon="0.01699">
        <ele>1623.6</ele>
        <time>2024-08-15T08:23:44Z</time>
      </trkpt>
      <trkpt lat="42.96306" lon="0.01712">
        <ele>1623</ele>
        <time>2024-08-15T08:23:47Z</time>
      </trkpt>
      <trkpt lat="42.96297" lon="0.01724">
        <ele>1622.4</ele>
        <time>2024-08-15T08:23:49Z</time>
      </trkpt>
      <trkpt lat="42.96293" lon="0.01729">
        <ele>1622.2</ele>
        <time>2024-08-15T08:23:50Z</time>
      </trkpt>
      <trkpt lat="42.96288" lon="0.01735">
        <ele>1621.6</ele>
        <time>2024-08-15T08:23:51Z</time>
      </trkpt>
      <trkpt lat="42.96284" lon="0.01739">
        <ele>1621.4</ele>
        <time>2024-08-15T08:23:52Z</time>
      </trkpt>
      <trkpt lat="42.9628" lon="0.01744">
        <ele>1621.2</ele>
        <time>2024-08-15T08:23:53Z</time>
      </trkpt>
      <trkpt lat="42.96276" lon="0.01748">
        <ele>1620.8</ele>
        <time>2024-08-15T08:23:54Z</time>
      </trkpt>
      <trkpt lat="42.96272" lon="0.01752">
        <ele>1620.8</ele>
        <time>2024-08-15T08:23:55Z</time>
      </trkpt>
      <trkpt lat="42.96269" lon="0.01755">
        <ele>1620.8</ele>
        <time>2024-08-15T08:23:56Z</time>
      </trkpt>
      <trkpt lat="42.96266" lon="0.01757">
        <ele>1620.6</ele>
        <time>2024-08-15T08:23:57Z</time>
      </trkpt>
      <trkpt lat="42.9626" lon="0.01763">
        <ele>1620.6</ele>
        <time>2024-08-15T08:23:59Z</time>
      </trkpt>
      <trkpt lat="42.96259" lon="0.01766">
        <ele>1620.4</ele>
        <time>2024-08-15T08:24:00Z</time>
      </trkpt>
      <trkpt lat="42.96257" lon="0.01769">
        <ele>1620.4</ele>
        <time>2024-08-15T08:24:01Z</time>
      </trkpt>
      <trkpt lat="42.96256" lon="0.01772">
        <ele>1620.4</ele>
        <time>2024-08-15T08:24:02Z</time>
      </trkpt>
      <trkpt lat="42.96251" lon="0.0178">
        <ele>1620.4</ele>
        <time>2024-08-15T08:24:05Z</time>
      </trkpt>
      <trkpt lat="42.96245" lon="0.01794">
        <ele>1620.2</ele>
        <time>2024-08-15T08:24:09Z</time>
      </trkpt>
      <trkpt lat="42.96237" lon="0.01816">
        <ele>1619.6</ele>
        <time>2024-08-15T08:24:13Z</time>
      </trkpt>
      <trkpt lat="42.96234" lon="0.01821">
        <ele>1619.2</ele>
        <time>2024-08-15T08:24:14Z</time>
      </trkpt>
      <trkpt lat="42.96231" lon="0.01827">
        <ele>1618.8</ele>
        <time>2024-08-15T08:24:15Z</time>
      </trkpt>
      <trkpt lat="42.96229" lon="0.01831">
        <ele>1618.4</ele>
        <time>2024-08-15T08:24:16Z</time>
      </trkpt>
      <trkpt lat="42.96227" lon="0.01838">
        <ele>1618</ele>
        <time>2024-08-15T08:24:17Z</time>
      </trkpt>
      <trkpt lat="42.96209" lon="0.01871">
        <ele>1617.6</ele>
        <time>2024-08-15T08:24:23Z</time>
      </trkpt>
      <trkpt lat="42.96206" lon="0.01876">
        <ele>1617.4</ele>
        <time>2024-08-15T08:24:24Z</time>
      </trkpt>
      <trkpt lat="42.96203" lon="0.01881">
        <ele>1617.4</ele>
        <time>2024-08-15T08:24:25Z</time>
      </trkpt>
      <trkpt lat="42.96201" lon="0.01885">
        <ele>1617.4</ele>
        <time>2024-08-15T08:24:26Z</time>
      </trkpt>
      <trkpt lat="42.96197" lon="0.01891">
        <ele>1617.6</ele>
        <time>2024-08-15T08:24:27Z</time>
      </trkpt>
      <trkpt lat="42.96195" lon="0.01896">
        <ele>1617.6</ele>
        <time>2024-08-15T08:24:28Z</time>
      </trkpt>
      <trkpt lat="42.96193" lon="0.019">
        <ele>1617.6</ele>
        <time>2024-08-15T08:24:29Z</time>
      </trkpt>
      <trkpt lat="42.96191" lon="0.01904">
        <ele>1617.8</ele>
        <time>2024-08-15T08:24:30Z</time>
      </trkpt>
      <trkpt lat="42.96187" lon="0.01914">
        <ele>1617.6</ele>
        <time>2024-08-15T08:24:32Z</time>
      </trkpt>
      <trkpt lat="42.96185" lon="0.01919">
        <ele>1617.8</ele>
        <time>2024-08-15T08:24:33Z</time>
      </trkpt>
      <trkpt lat="42.96182" lon="0.01923">
        <ele>1617.8</ele>
        <time>2024-08-15T08:24:34Z</time>
      </trkpt>
      <trkpt lat="42.96179" lon="0.01926">
        <ele>1618.2</ele>
        <time>2024-08-15T08:24:35Z</time>
      </trkpt>
      <trkpt lat="42.96177" lon="0.01929">
        <ele>1618.2</ele>
        <time>2024-08-15T08:24:36Z</time>
      </trkpt>
      <trkpt lat="42.96175" lon="0.01931">
        <ele>1618.6</ele>
        <time>2024-08-15T08:24:37Z</time>
      </trkpt>
      <trkpt lat="42.96173" lon="0.01934">
        <ele>1618.8</ele>
        <time>2024-08-15T08:24:38Z</time>
      </trkpt>
      <trkpt lat="42.96172" lon="0.01936">
        <ele>1619</ele>
        <time>2024-08-15T08:24:39Z</time>
      </trkpt>
      <trkpt lat="42.96171" lon="0.0194">
        <ele>1619.4</ele>
        <time>2024-08-15T08:24:40Z</time>
      </trkpt>
      <trkpt lat="42.96171" lon="0.01942">
        <ele>1619.8</ele>
        <time>2024-08-15T08:25:02Z</time>
      </trkpt>
      <trkpt lat="42.96171" lon="0.01944">
        <ele>1619.8</ele>
        <time>2024-08-15T08:25:03Z</time>
      </trkpt>
      <trkpt lat="42.96164" lon="0.01967">
        <ele>1619.4</ele>
        <time>2024-08-15T08:25:07Z</time>
      </trkpt>
      <trkpt lat="42.96161" lon="0.01976">
        <ele>1619.2</ele>
        <time>2024-08-15T08:25:08Z</time>
      </trkpt>
      <trkpt lat="42.96159" lon="0.01983">
        <ele>1618.8</ele>
        <time>2024-08-15T08:25:09Z</time>
      </trkpt>
      <trkpt lat="42.96156" lon="0.01989">
        <ele>1618.6</ele>
        <time>2024-08-15T08:25:10Z</time>
      </trkpt>
      <trkpt lat="42.96154" lon="0.01994">
        <ele>1618</ele>
        <time>2024-08-15T08:25:11Z</time>
      </trkpt>
      <trkpt lat="42.96152" lon="0.02">
        <ele>1617</ele>
        <time>2024-08-15T08:25:12Z</time>
      </trkpt>
      <trkpt lat="42.96151" lon="0.02005">
        <ele>1616.4</ele>
        <time>2024-08-15T08:25:13Z</time>
      </trkpt>
      <trkpt lat="42.96148" lon="0.02017">
        <ele>1614.8</ele>
        <time>2024-08-15T08:25:15Z</time>
      </trkpt>
      <trkpt lat="42.96146" lon="0.02023">
        <ele>1614.2</ele>
        <time>2024-08-15T08:25:16Z</time>
      </trkpt>
      <trkpt lat="42.96145" lon="0.02027">
        <ele>1614</ele>
        <time>2024-08-15T08:25:17Z</time>
      </trkpt>
      <trkpt lat="42.96142" lon="0.02032">
        <ele>1613</ele>
        <time>2024-08-15T08:25:18Z</time>
      </trkpt>
      <trkpt lat="42.96136" lon="0.02041">
        <ele>1611.6</ele>
        <time>2024-08-15T08:25:20Z</time>
      </trkpt>
      <trkpt lat="42.96128" lon="0.02051">
        <ele>1610.8</ele>
        <time>2024-08-15T08:25:22Z</time>
      </trkpt>
      <trkpt lat="42.96126" lon="0.02055">
        <ele>1610.2</ele>
        <time>2024-08-15T08:25:23Z</time>
      </trkpt>
      <trkpt lat="42.96123" lon="0.02058">
        <ele>1609.8</ele>
        <time>2024-08-15T08:25:24Z</time>
      </trkpt>
      <trkpt lat="42.96121" lon="0.0206">
        <ele>1609.4</ele>
        <time>2024-08-15T08:25:25Z</time>
      </trkpt>
      <trkpt lat="42.96119" lon="0.02062">
        <ele>1609</ele>
        <time>2024-08-15T08:25:26Z</time>
      </trkpt>
      <trkpt lat="42.96116" lon="0.02063">
        <ele>1609</ele>
        <time>2024-08-15T08:25:27Z</time>
      </trkpt>
      <trkpt lat="42.96114" lon="0.02065">
        <ele>1608.8</ele>
        <time>2024-08-15T08:25:28Z</time>
      </trkpt>
      <trkpt lat="42.96113" lon="0.02067">
        <ele>1608.8</ele>
        <time>2024-08-15T08:25:29Z</time>
      </trkpt>
      <trkpt lat="42.96112" lon="0.02068">
        <ele>1608.6</ele>
        <time>2024-08-15T08:25:30Z</time>
      </trkpt>
      <trkpt lat="42.9611" lon="0.02069">
        <ele>1608.4</ele>
        <time>2024-08-15T08:25:31Z</time>
      </trkpt>
      <trkpt lat="42.96109" lon="0.02071">
        <ele>1608.4</ele>
        <time>2024-08-15T08:25:32Z</time>
      </trkpt>
      <trkpt lat="42.96109" lon="0.02072">
        <ele>1608.2</ele>
        <time>2024-08-15T08:25:34Z</time>
      </trkpt>
      <trkpt lat="42.96107" lon="0.02073">
        <ele>1608</ele>
        <time>2024-08-15T08:25:36Z</time>
      </trkpt>
      <trkpt lat="42.96106" lon="0.02075">
        <ele>1608</ele>
        <time>2024-08-15T08:25:37Z</time>
      </trkpt>
      <trkpt lat="42.96104" lon="0.02077">
        <ele>1607.8</ele>
        <time>2024-08-15T08:25:38Z</time>
      </trkpt>
      <trkpt lat="42.961" lon="0.02082">
        <ele>1607.6</ele>
        <time>2024-08-15T08:25:40Z</time>
      </trkpt>
      <trkpt lat="42.96094" lon="0.02088">
        <ele>1607.4</ele>
        <time>2024-08-15T08:25:42Z</time>
      </trkpt>
      <trkpt lat="42.96082" lon="0.02101">
        <ele>1607.4</ele>
        <time>2024-08-15T08:25:45Z</time>
      </trkpt>
      <trkpt lat="42.96074" lon="0.02111">
        <ele>1606.8</ele>
        <time>2024-08-15T08:25:47Z</time>
      </trkpt>
      <trkpt lat="42.9607" lon="0.02115">
        <ele>1606.4</ele>
        <time>2024-08-15T08:25:48Z</time>
      </trkpt>
      <trkpt lat="42.9606" lon="0.02125">
        <ele>1605.8</ele>
        <time>2024-08-15T08:25:50Z</time>
      </trkpt>
      <trkpt lat="42.96055" lon="0.0213">
        <ele>1605.6</ele>
        <time>2024-08-15T08:25:51Z</time>
      </trkpt>
      <trkpt lat="42.96045" lon="0.0214">
        <ele>1605.4</ele>
        <time>2024-08-15T08:25:53Z</time>
      </trkpt>
      <trkpt lat="42.96039" lon="0.02146">
        <ele>1605.4</ele>
        <time>2024-08-15T08:25:54Z</time>
      </trkpt>
      <trkpt lat="42.96034" lon="0.02151">
        <ele>1604.8</ele>
        <time>2024-08-15T08:25:55Z</time>
      </trkpt>
      <trkpt lat="42.96029" lon="0.02156">
        <ele>1604.8</ele>
        <time>2024-08-15T08:25:56Z</time>
      </trkpt>
      <trkpt lat="42.96026" lon="0.0216">
        <ele>1604.4</ele>
        <time>2024-08-15T08:25:57Z</time>
      </trkpt>
      <trkpt lat="42.96018" lon="0.02171">
        <ele>1604</ele>
        <time>2024-08-15T08:25:59Z</time>
      </trkpt>
      <trkpt lat="42.96014" lon="0.02177">
        <ele>1603.8</ele>
        <time>2024-08-15T08:26:00Z</time>
      </trkpt>
      <trkpt lat="42.96" lon="0.02193">
        <ele>1603.4</ele>
        <time>2024-08-15T08:26:03Z</time>
      </trkpt>
      <trkpt lat="42.95989" lon="0.02204">
        <ele>1602.6</ele>
        <time>2024-08-15T08:26:05Z</time>
      </trkpt>
      <trkpt lat="42.95984" lon="0.02208">
        <ele>1602.4</ele>
        <time>2024-08-15T08:26:06Z</time>
      </trkpt>
      <trkpt lat="42.95981" lon="0.02211">
        <ele>1602</ele>
        <time>2024-08-15T08:26:07Z</time>
      </trkpt>
      <trkpt lat="42.95978" lon="0.02214">
        <ele>1601.8</ele>
        <time>2024-08-15T08:26:08Z</time>
      </trkpt>
      <trkpt lat="42.95973" lon="0.02216">
        <ele>1601.4</ele>
        <time>2024-08-15T08:26:09Z</time>
      </trkpt>
      <trkpt lat="42.95969" lon="0.02218">
        <ele>1601.2</ele>
        <time>2024-08-15T08:26:10Z</time>
      </trkpt>
      <trkpt lat="42.95965" lon="0.0222">
        <ele>1601</ele>
        <time>2024-08-15T08:26:11Z</time>
      </trkpt>
      <trkpt lat="42.95962" lon="0.02223">
        <ele>1600.8</ele>
        <time>2024-08-15T08:26:12Z</time>
      </trkpt>
      <trkpt lat="42.95959" lon="0.02225">
        <ele>1600.6</ele>
        <time>2024-08-15T08:26:13Z</time>
      </trkpt>
      <trkpt lat="42.95956" lon="0.02227">
        <ele>1600.4</ele>
        <time>2024-08-15T08:26:14Z</time>
      </trkpt>
      <trkpt lat="42.95952" lon="0.02229">
        <ele>1600.4</ele>
        <time>2024-08-15T08:26:15Z</time>
      </trkpt>
      <trkpt lat="42.95949" lon="0.02231">
        <ele>1600.2</ele>
        <time>2024-08-15T08:26:16Z</time>
      </trkpt>
      <trkpt lat="42.95946" lon="0.02233">
        <ele>1600</ele>
        <time>2024-08-15T08:26:17Z</time>
      </trkpt>
      <trkpt lat="42.95944" lon="0.02235">
        <ele>1599.6</ele>
        <time>2024-08-15T08:26:18Z</time>
      </trkpt>
      <trkpt lat="42.95942" lon="0.02236">
        <ele>1599.4</ele>
        <time>2024-08-15T08:26:19Z</time>
      </trkpt>
      <trkpt lat="42.9594" lon="0.02238">
        <ele>1599.2</ele>
        <time>2024-08-15T08:26:20Z</time>
      </trkpt>
      <trkpt lat="42.95938" lon="0.02239">
        <ele>1599</ele>
        <time>2024-08-15T08:26:21Z</time>
      </trkpt>
      <trkpt lat="42.95936" lon="0.0224">
        <ele>1599</ele>
        <time>2024-08-15T08:26:22Z</time>
      </trkpt>
      <trkpt lat="42.9593" lon="0.02244">
        <ele>1598.2</ele>
        <time>2024-08-15T08:26:25Z</time>
      </trkpt>
      <trkpt lat="42.95928" lon="0.02245">
        <ele>1598.2</ele>
        <time>2024-08-15T08:26:26Z</time>
      </trkpt>
      <trkpt lat="42.95926" lon="0.02246">
        <ele>1598</ele>
        <time>2024-08-15T08:26:27Z</time>
      </trkpt>
      <trkpt lat="42.95926" lon="0.02246">
        <ele>1597.6</ele>
        <time>2024-08-15T08:26:28Z</time>
      </trkpt>
      <trkpt lat="42.95924" lon="0.02247">
        <ele>1597.6</ele>
        <time>2024-08-15T08:26:29Z</time>
      </trkpt>
      <trkpt lat="42.95923" lon="0.02247">
        <ele>1597.4</ele>
        <time>2024-08-15T08:26:30Z</time>
      </trkpt>
      <trkpt lat="42.95923" lon="0.02248">
        <ele>1597.2</ele>
        <time>2024-08-15T08:26:31Z</time>
      </trkpt>
      <trkpt lat="42.95921" lon="0.02248">
        <ele>1597.2</ele>
        <time>2024-08-15T08:26:33Z</time>
      </trkpt>
      <trkpt lat="42.95918" lon="0.02248">
        <ele>1597</ele>
        <time>2024-08-15T08:26:35Z</time>
      </trkpt>
      <trkpt lat="42.95916" lon="0.02248">
        <ele>1596.4</ele>
        <time>2024-08-15T08:26:40Z</time>
      </trkpt>
      <trkpt lat="42.95915" lon="0.02247">
        <ele>1596.2</ele>
        <time>2024-08-15T08:26:41Z</time>
      </trkpt>
      <trkpt lat="42.95912" lon="0.02248">
        <ele>1596</ele>
        <time>2024-08-15T08:26:43Z</time>
      </trkpt>
      <trkpt lat="42.95912" lon="0.02249">
        <ele>1595.4</ele>
        <time>2024-08-15T08:26:48Z</time>
      </trkpt>
      <trkpt lat="42.95911" lon="0.0225">
        <ele>1595.4</ele>
        <time>2024-08-15T08:26:49Z</time>
      </trkpt>
      <trkpt lat="42.95909" lon="0.02251">
        <ele>1595.4</ele>
        <time>2024-08-15T08:26:51Z</time>
      </trkpt>
      <trkpt lat="42.95904" lon="0.0225">
        <ele>1595.2</ele>
        <time>2024-08-15T08:26:54Z</time>
      </trkpt>
      <trkpt lat="42.95903" lon="0.0225">
        <ele>1595.2</ele>
        <time>2024-08-15T08:26:55Z</time>
      </trkpt>
      <trkpt lat="42.95901" lon="0.0225">
        <ele>1595.2</ele>
        <time>2024-08-15T08:26:56Z</time>
      </trkpt>
      <trkpt lat="42.959" lon="0.02251">
        <ele>1594.8</ele>
        <time>2024-08-15T08:26:57Z</time>
      </trkpt>
      <trkpt lat="42.95899" lon="0.02251">
        <ele>1594.6</ele>
        <time>2024-08-15T08:26:58Z</time>
      </trkpt>
      <trkpt lat="42.95895" lon="0.02253">
        <ele>1594.4</ele>
        <time>2024-08-15T08:27:01Z</time>
      </trkpt>
      <trkpt lat="42.95894" lon="0.02254">
        <ele>1594.4</ele>
        <time>2024-08-15T08:27:02Z</time>
      </trkpt>
      <trkpt lat="42.95893" lon="0.02254">
        <ele>1594</ele>
        <time>2024-08-15T08:27:07Z</time>
      </trkpt>
      <trkpt lat="42.95892" lon="0.02254">
        <ele>1594</ele>
        <time>2024-08-15T08:27:08Z</time>
      </trkpt>
      <trkpt lat="42.95891" lon="0.02254">
        <ele>1594</ele>
        <time>2024-08-15T08:27:09Z</time>
      </trkpt>
      <trkpt lat="42.95887" lon="0.02256">
        <ele>1594</ele>
        <time>2024-08-15T08:27:11Z</time>
      </trkpt>
      <trkpt lat="42.95885" lon="0.02257">
        <ele>1594</ele>
        <time>2024-08-15T08:27:12Z</time>
      </trkpt>
      <trkpt lat="42.95884" lon="0.02259">
        <ele>1594</ele>
        <time>2024-08-15T08:27:13Z</time>
      </trkpt>
      <trkpt lat="42.9588" lon="0.02263">
        <ele>1594</ele>
        <time>2024-08-15T08:27:15Z</time>
      </trkpt>
      <trkpt lat="42.95865" lon="0.02275">
        <ele>1593.8</ele>
        <time>2024-08-15T08:27:20Z</time>
      </trkpt>
      <trkpt lat="42.95858" lon="0.02278">
        <ele>1593.8</ele>
        <time>2024-08-15T08:27:22Z</time>
      </trkpt>
      <trkpt lat="42.95855" lon="0.0228">
        <ele>1593.8</ele>
        <time>2024-08-15T08:27:23Z</time>
      </trkpt>
      <trkpt lat="42.95852" lon="0.02282">
        <ele>1593.8</ele>
        <time>2024-08-15T08:27:24Z</time>
      </trkpt>
      <trkpt lat="42.9585" lon="0.02283">
        <ele>1593.6</ele>
        <time>2024-08-15T08:27:25Z</time>
      </trkpt>
      <trkpt lat="42.95848" lon="0.02284">
        <ele>1593.6</ele>
        <time>2024-08-15T08:27:26Z</time>
      </trkpt>
      <trkpt lat="42.95846" lon="0.02284">
        <ele>1593.4</ele>
        <time>2024-08-15T08:27:27Z</time>
      </trkpt>
      <trkpt lat="42.95844" lon="0.02285">
        <ele>1593.4</ele>
        <time>2024-08-15T08:27:28Z</time>
      </trkpt>
      <trkpt lat="42.95843" lon="0.02285">
        <ele>1593.2</ele>
        <time>2024-08-15T08:27:29Z</time>
      </trkpt>
      <trkpt lat="42.95841" lon="0.02286">
        <ele>1593</ele>
        <time>2024-08-15T08:27:30Z</time>
      </trkpt>
      <trkpt lat="42.9584" lon="0.02286">
        <ele>1592.8</ele>
        <time>2024-08-15T08:27:31Z</time>
      </trkpt>
      <trkpt lat="42.95838" lon="0.02287">
        <ele>1592.8</ele>
        <time>2024-08-15T08:27:32Z</time>
      </trkpt>
      <trkpt lat="42.95837" lon="0.02288">
        <ele>1592.8</ele>
        <time>2024-08-15T08:27:33Z</time>
      </trkpt>
      <trkpt lat="42.95835" lon="0.02289">
        <ele>1592.6</ele>
        <time>2024-08-15T08:27:35Z</time>
      </trkpt>
      <trkpt lat="42.95825" lon="0.02295">
        <ele>1592.4</ele>
        <time>2024-08-15T08:27:39Z</time>
      </trkpt>
      <trkpt lat="42.95814" lon="0.02306">
        <ele>1592.6</ele>
        <time>2024-08-15T08:27:43Z</time>
      </trkpt>
      <trkpt lat="42.9581" lon="0.02309">
        <ele>1592.6</ele>
        <time>2024-08-15T08:27:44Z</time>
      </trkpt>
      <trkpt lat="42.95801" lon="0.02316">
        <ele>1592.8</ele>
        <time>2024-08-15T08:27:47Z</time>
      </trkpt>
      <trkpt lat="42.95798" lon="0.02319">
        <ele>1592.8</ele>
        <time>2024-08-15T08:27:48Z</time>
      </trkpt>
      <trkpt lat="42.95793" lon="0.02325">
        <ele>1593</ele>
        <time>2024-08-15T08:27:50Z</time>
      </trkpt>
      <trkpt lat="42.9579" lon="0.02327">
        <ele>1593.2</ele>
        <time>2024-08-15T08:27:51Z</time>
      </trkpt>
      <trkpt lat="42.95778" lon="0.02345">
        <ele>1593.2</ele>
        <time>2024-08-15T08:27:56Z</time>
      </trkpt>
      <trkpt lat="42.95775" lon="0.02349">
        <ele>1593</ele>
        <time>2024-08-15T08:27:57Z</time>
      </trkpt>
      <trkpt lat="42.95769" lon="0.02354">
        <ele>1593</ele>
        <time>2024-08-15T08:27:59Z</time>
      </trkpt>
      <trkpt lat="42.95763" lon="0.02358">
        <ele>1592.8</ele>
        <time>2024-08-15T08:28:01Z</time>
      </trkpt>
      <trkpt lat="42.95759" lon="0.02359">
        <ele>1592.8</ele>
        <time>2024-08-15T08:28:02Z</time>
      </trkpt>
      <trkpt lat="42.95756" lon="0.0236">
        <ele>1592.6</ele>
        <time>2024-08-15T08:28:03Z</time>
      </trkpt>
      <trkpt lat="42.95753" lon="0.02361">
        <ele>1592.6</ele>
        <time>2024-08-15T08:28:04Z</time>
      </trkpt>
      <trkpt lat="42.9575" lon="0.02362">
        <ele>1592.6</ele>
        <time>2024-08-15T08:28:05Z</time>
      </trkpt>
      <trkpt lat="42.95743" lon="0.02361">
        <ele>1592.6</ele>
        <time>2024-08-15T08:28:07Z</time>
      </trkpt>
      <trkpt lat="42.95736" lon="0.02358">
        <ele>1592.6</ele>
        <time>2024-08-15T08:28:14Z</time>
      </trkpt>
      <trkpt lat="42.95733" lon="0.02357">
        <ele>1592.8</ele>
        <time>2024-08-15T08:28:17Z</time>
      </trkpt>
      <trkpt lat="42.95728" lon="0.02356">
        <ele>1593.2</ele>
        <time>2024-08-15T08:28:20Z</time>
      </trkpt>
      <trkpt lat="42.95715" lon="0.02356">
        <ele>1593.4</ele>
        <time>2024-08-15T08:28:25Z</time>
      </trkpt>
      <trkpt lat="42.957" lon="0.0236">
        <ele>1593.4</ele>
        <time>2024-08-15T08:28:29Z</time>
      </trkpt>
      <trkpt lat="42.95696" lon="0.02361">
        <ele>1593.2</ele>
        <time>2024-08-15T08:28:30Z</time>
      </trkpt>
      <trkpt lat="42.95673" lon="0.02365">
        <ele>1592.2</ele>
        <time>2024-08-15T08:28:34Z</time>
      </trkpt>
      <trkpt lat="42.95668" lon="0.02364">
        <ele>1592.2</ele>
        <time>2024-08-15T08:28:35Z</time>
      </trkpt>
      <trkpt lat="42.95662" lon="0.02363">
        <ele>1592</ele>
        <time>2024-08-15T08:28:36Z</time>
      </trkpt>
      <trkpt lat="42.95657" lon="0.02362">
        <ele>1591.8</ele>
        <time>2024-08-15T08:28:37Z</time>
      </trkpt>
      <trkpt lat="42.95648" lon="0.02361">
        <ele>1591.6</ele>
        <time>2024-08-15T08:28:39Z</time>
      </trkpt>
      <trkpt lat="42.95638" lon="0.02363">
        <ele>1591.4</ele>
        <time>2024-08-15T08:28:41Z</time>
      </trkpt>
      <trkpt lat="42.95634" lon="0.02364">
        <ele>1591</ele>
        <time>2024-08-15T08:28:42Z</time>
      </trkpt>
      <trkpt lat="42.9563" lon="0.02366">
        <ele>1590.8</ele>
        <time>2024-08-15T08:28:43Z</time>
      </trkpt>
      <trkpt lat="42.95626" lon="0.02367">
        <ele>1590.8</ele>
        <time>2024-08-15T08:28:44Z</time>
      </trkpt>
      <trkpt lat="42.95617" lon="0.0237">
        <ele>1590.6</ele>
        <time>2024-08-15T08:28:46Z</time>
      </trkpt>
      <trkpt lat="42.95613" lon="0.02371">
        <ele>1590.4</ele>
        <time>2024-08-15T08:28:47Z</time>
      </trkpt>
      <trkpt lat="42.9561" lon="0.02372">
        <ele>1590</ele>
        <time>2024-08-15T08:28:48Z</time>
      </trkpt>
      <trkpt lat="42.95606" lon="0.02373">
        <ele>1589.8</ele>
        <time>2024-08-15T08:28:49Z</time>
      </trkpt>
      <trkpt lat="42.95603" lon="0.02375">
        <ele>1589.2</ele>
        <time>2024-08-15T08:28:50Z</time>
      </trkpt>
      <trkpt lat="42.956" lon="0.02375">
        <ele>1588.8</ele>
        <time>2024-08-15T08:28:51Z</time>
      </trkpt>
      <trkpt lat="42.95589" lon="0.02375">
        <ele>1588.2</ele>
        <time>2024-08-15T08:28:54Z</time>
      </trkpt>
      <trkpt lat="42.95582" lon="0.02373">
        <ele>1588</ele>
        <time>2024-08-15T08:28:56Z</time>
      </trkpt>
      <trkpt lat="42.95579" lon="0.02372">
        <ele>1587.8</ele>
        <time>2024-08-15T08:28:57Z</time>
      </trkpt>
      <trkpt lat="42.95577" lon="0.02372">
        <ele>1587.8</ele>
        <time>2024-08-15T08:28:58Z</time>
      </trkpt>
      <trkpt lat="42.95575" lon="0.02371">
        <ele>1587.8</ele>
        <time>2024-08-15T08:28:59Z</time>
      </trkpt>
      <trkpt lat="42.95573" lon="0.02371">
        <ele>1587.8</ele>
        <time>2024-08-15T08:29:00Z</time>
      </trkpt>
      <trkpt lat="42.95572" lon="0.02371">
        <ele>1587.8</ele>
        <time>2024-08-15T08:29:01Z</time>
      </trkpt>
      <trkpt lat="42.9557" lon="0.0237">
        <ele>1587.8</ele>
        <time>2024-08-15T08:29:02Z</time>
      </trkpt>
      <trkpt lat="42.95567" lon="0.02369">
        <ele>1588</ele>
        <time>2024-08-15T08:29:04Z</time>
      </trkpt>
      <trkpt lat="42.95563" lon="0.02367">
        <ele>1588</ele>
        <time>2024-08-15T08:29:06Z</time>
      </trkpt>
      <trkpt lat="42.95557" lon="0.02368">
        <ele>1588.2</ele>
        <time>2024-08-15T08:29:08Z</time>
      </trkpt>
      <trkpt lat="42.95554" lon="0.02369">
        <ele>1588.2</ele>
        <time>2024-08-15T08:29:09Z</time>
      </trkpt>
      <trkpt lat="42.95552" lon="0.02371">
        <ele>1588.2</ele>
        <time>2024-08-15T08:29:10Z</time>
      </trkpt>
      <trkpt lat="42.9555" lon="0.02372">
        <ele>1588.2</ele>
        <time>2024-08-15T08:29:11Z</time>
      </trkpt>
      <trkpt lat="42.95541" lon="0.02377">
        <ele>1587.8</ele>
        <time>2024-08-15T08:29:14Z</time>
      </trkpt>
      <trkpt lat="42.95535" lon="0.02376">
        <ele>1587</ele>
        <time>2024-08-15T08:29:16Z</time>
      </trkpt>
      <trkpt lat="42.95532" lon="0.02376">
        <ele>1586.6</ele>
        <time>2024-08-15T08:29:17Z</time>
      </trkpt>
      <trkpt lat="42.95529" lon="0.02377">
        <ele>1586.6</ele>
        <time>2024-08-15T08:29:18Z</time>
      </trkpt>
      <trkpt lat="42.95513" lon="0.02384">
        <ele>1586.2</ele>
        <time>2024-08-15T08:29:23Z</time>
      </trkpt>
      <trkpt lat="42.95509" lon="0.02386">
        <ele>1586</ele>
        <time>2024-08-15T08:29:24Z</time>
      </trkpt>
      <trkpt lat="42.95507" lon="0.02386">
        <ele>1586</ele>
        <time>2024-08-15T08:29:25Z</time>
      </trkpt>
      <trkpt lat="42.95491" lon="0.02392">
        <ele>1585.6</ele>
        <time>2024-08-15T08:29:30Z</time>
      </trkpt>
      <trkpt lat="42.95488" lon="0.02393">
        <ele>1585.4</ele>
        <time>2024-08-15T08:29:31Z</time>
      </trkpt>
      <trkpt lat="42.95486" lon="0.02395">
        <ele>1585.2</ele>
        <time>2024-08-15T08:29:32Z</time>
      </trkpt>
      <trkpt lat="42.95484" lon="0.02396">
        <ele>1585</ele>
        <time>2024-08-15T08:29:33Z</time>
      </trkpt>
      <trkpt lat="42.95483" lon="0.02396">
        <ele>1584.4</ele>
        <time>2024-08-15T08:29:34Z</time>
      </trkpt>
      <trkpt lat="42.95483" lon="0.02396">
        <ele>1583.4</ele>
        <time>2024-08-15T08:29:38Z</time>
      </trkpt>
      <trkpt lat="42.95482" lon="0.02396">
        <ele>1583.2</ele>
        <time>2024-08-15T08:29:40Z</time>
      </trkpt>
      <trkpt lat="42.95478" lon="0.02398">
        <ele>1582.8</ele>
        <time>2024-08-15T08:29:44Z</time>
      </trkpt>
      <trkpt lat="42.95475" lon="0.02399">
        <ele>1582.4</ele>
        <time>2024-08-15T08:29:47Z</time>
      </trkpt>
      <trkpt lat="42.95473" lon="0.02401">
        <ele>1580.8</ele>
        <time>2024-08-15T08:29:53Z</time>
      </trkpt>
      <trkpt lat="42.95468" lon="0.02407">
        <ele>1579.8</ele>
        <time>2024-08-15T08:29:58Z</time>
      </trkpt>
      <trkpt lat="42.95467" lon="0.02408">
        <ele>1579.8</ele>
        <time>2024-08-15T08:29:59Z</time>
      </trkpt>
      <trkpt lat="42.95462" lon="0.0241">
        <ele>1579.6</ele>
        <time>2024-08-15T08:30:03Z</time>
      </trkpt>
      <trkpt lat="42.95461" lon="0.0241">
        <ele>1579.6</ele>
        <time>2024-08-15T08:30:04Z</time>
      </trkpt>
      <trkpt lat="42.95461" lon="0.02411">
        <ele>1579.6</ele>
        <time>2024-08-15T08:30:05Z</time>
      </trkpt>
      <trkpt lat="42.9546" lon="0.02411">
        <ele>1579.6</ele>
        <time>2024-08-15T08:30:06Z</time>
      </trkpt>
      <trkpt lat="42.95459" lon="0.02412">
        <ele>1579.4</ele>
        <time>2024-08-15T08:30:07Z</time>
      </trkpt>
      <trkpt lat="42.95458" lon="0.02413">
        <ele>1579.2</ele>
        <time>2024-08-15T08:30:08Z</time>
      </trkpt>
      <trkpt lat="42.95458" lon="0.02413">
        <ele>1579.2</ele>
        <time>2024-08-15T08:30:09Z</time>
      </trkpt>
      <trkpt lat="42.95457" lon="0.02413">
        <ele>1579</ele>
        <time>2024-08-15T08:30:10Z</time>
      </trkpt>
      <trkpt lat="42.95456" lon="0.02412">
        <ele>1578.6</ele>
        <time>2024-08-15T08:30:11Z</time>
      </trkpt>
      <trkpt lat="42.95455" lon="0.02412">
        <ele>1578.6</ele>
        <time>2024-08-15T08:30:12Z</time>
      </trkpt>
      <trkpt lat="42.95455" lon="0.02412">
        <ele>1578.2</ele>
        <time>2024-08-15T08:30:13Z</time>
      </trkpt>
      <trkpt lat="42.95454" lon="0.02413">
        <ele>1578.2</ele>
        <time>2024-08-15T08:30:14Z</time>
      </trkpt>
      <trkpt lat="42.95453" lon="0.02414">
        <ele>1578</ele>
        <time>2024-08-15T08:30:15Z</time>
      </trkpt>
      <trkpt lat="42.95451" lon="0.02415">
        <ele>1577.8</ele>
        <time>2024-08-15T08:30:16Z</time>
      </trkpt>
      <trkpt lat="42.95449" lon="0.02416">
        <ele>1577.4</ele>
        <time>2024-08-15T08:30:17Z</time>
      </trkpt>
      <trkpt lat="42.95446" lon="0.02421">
        <ele>1577</ele>
        <time>2024-08-15T08:30:19Z</time>
      </trkpt>
      <trkpt lat="42.95444" lon="0.02423">
        <ele>1576.8</ele>
        <time>2024-08-15T08:30:20Z</time>
      </trkpt>
      <trkpt lat="42.9544" lon="0.02428">
        <ele>1576.2</ele>
        <time>2024-08-15T08:30:22Z</time>
      </trkpt>
      <trkpt lat="42.95434" lon="0.0244">
        <ele>1575.6</ele>
        <time>2024-08-15T08:30:25Z</time>
      </trkpt>
      <trkpt lat="42.95432" lon="0.02444">
        <ele>1575.2</ele>
        <time>2024-08-15T08:30:26Z</time>
      </trkpt>
      <trkpt lat="42.95423" lon="0.02455">
        <ele>1574.6</ele>
        <time>2024-08-15T08:30:29Z</time>
      </trkpt>
      <trkpt lat="42.95421" lon="0.02458">
        <ele>1574.6</ele>
        <time>2024-08-15T08:30:30Z</time>
      </trkpt>
      <trkpt lat="42.95419" lon="0.02461">
        <ele>1574.2</ele>
        <time>2024-08-15T08:30:31Z</time>
      </trkpt>
      <trkpt lat="42.95416" lon="0.02465">
        <ele>1574.2</ele>
        <time>2024-08-15T08:30:32Z</time>
      </trkpt>
      <trkpt lat="42.95415" lon="0.02467">
        <ele>1573.8</ele>
        <time>2024-08-15T08:30:33Z</time>
      </trkpt>
      <trkpt lat="42.95413" lon="0.02468">
        <ele>1573.6</ele>
        <time>2024-08-15T08:30:34Z</time>
      </trkpt>
      <trkpt lat="42.9541" lon="0.02468">
        <ele>1573.6</ele>
        <time>2024-08-15T08:30:35Z</time>
      </trkpt>
      <trkpt lat="42.95408" lon="0.02468">
        <ele>1573.4</ele>
        <time>2024-08-15T08:30:36Z</time>
      </trkpt>
      <trkpt lat="42.95406" lon="0.02468">
        <ele>1573.4</ele>
        <time>2024-08-15T08:30:37Z</time>
      </trkpt>
      <trkpt lat="42.95404" lon="0.02467">
        <ele>1573.2</ele>
        <time>2024-08-15T08:30:38Z</time>
      </trkpt>
      <trkpt lat="42.95403" lon="0.02465">
        <ele>1573.2</ele>
        <time>2024-08-15T08:30:39Z</time>
      </trkpt>
      <trkpt lat="42.95402" lon="0.02463">
        <ele>1572.8</ele>
        <time>2024-08-15T08:30:40Z</time>
      </trkpt>
      <trkpt lat="42.954" lon="0.02463">
        <ele>1572.8</ele>
        <time>2024-08-15T08:30:41Z</time>
      </trkpt>
      <trkpt lat="42.95396" lon="0.02465">
        <ele>1572.8</ele>
        <time>2024-08-15T08:30:43Z</time>
      </trkpt>
      <trkpt lat="42.95395" lon="0.02466">
        <ele>1572.8</ele>
        <time>2024-08-15T08:30:44Z</time>
      </trkpt>
      <trkpt lat="42.95393" lon="0.02466">
        <ele>1572.8</ele>
        <time>2024-08-15T08:30:45Z</time>
      </trkpt>
      <trkpt lat="42.95391" lon="0.02465">
        <ele>1572.8</ele>
        <time>2024-08-15T08:30:46Z</time>
      </trkpt>
      <trkpt lat="42.95389" lon="0.02464">
        <ele>1572.8</ele>
        <time>2024-08-15T08:30:47Z</time>
      </trkpt>
      <trkpt lat="42.95387" lon="0.02463">
        <ele>1572.8</ele>
        <time>2024-08-15T08:30:48Z</time>
      </trkpt>
      <trkpt lat="42.95375" lon="0.0246">
        <ele>1572.8</ele>
        <time>2024-08-15T08:30:53Z</time>
      </trkpt>
      <trkpt lat="42.95368" lon="0.02459">
        <ele>1573</ele>
        <time>2024-08-15T08:30:56Z</time>
      </trkpt>
      <trkpt lat="42.95366" lon="0.02458">
        <ele>1573</ele>
        <time>2024-08-15T08:30:57Z</time>
      </trkpt>
      <trkpt lat="42.95364" lon="0.02457">
        <ele>1573</ele>
        <time>2024-08-15T08:30:58Z</time>
      </trkpt>
      <trkpt lat="42.9536" lon="0.02459">
        <ele>1573.4</ele>
        <time>2024-08-15T08:31:00Z</time>
      </trkpt>
      <trkpt lat="42.95358" lon="0.02459">
        <ele>1573.8</ele>
        <time>2024-08-15T08:31:01Z</time>
      </trkpt>
      <trkpt lat="42.95356" lon="0.02459">
        <ele>1574.2</ele>
        <time>2024-08-15T08:31:02Z</time>
      </trkpt>
      <trkpt lat="42.95354" lon="0.0246">
        <ele>1574.4</ele>
        <time>2024-08-15T08:31:03Z</time>
      </trkpt>
      <trkpt lat="42.95336" lon="0.02467">
        <ele>1574.8</ele>
        <time>2024-08-15T08:31:09Z</time>
      </trkpt>
      <trkpt lat="42.95333" lon="0.02468">
        <ele>1574.8</ele>
        <time>2024-08-15T08:31:10Z</time>
      </trkpt>
      <trkpt lat="42.95323" lon="0.02469">
        <ele>1574.8</ele>
        <time>2024-08-15T08:31:13Z</time>
      </trkpt>
      <trkpt lat="42.9531" lon="0.02471">
        <ele>1574.6</ele>
        <time>2024-08-15T08:31:17Z</time>
      </trkpt>
      <trkpt lat="42.95307" lon="0.02472">
        <ele>1574.6</ele>
        <time>2024-08-15T08:31:18Z</time>
      </trkpt>
      <trkpt lat="42.95304" lon="0.02472">
        <ele>1574.6</ele>
        <time>2024-08-15T08:31:19Z</time>
      </trkpt>
      <trkpt lat="42.95301" lon="0.02473">
        <ele>1574.8</ele>
        <time>2024-08-15T08:31:20Z</time>
      </trkpt>
      <trkpt lat="42.95298" lon="0.02474">
        <ele>1575</ele>
        <time>2024-08-15T08:31:21Z</time>
      </trkpt>
      <trkpt lat="42.95296" lon="0.02474">
        <ele>1575.4</ele>
        <time>2024-08-15T08:31:22Z</time>
      </trkpt>
      <trkpt lat="42.95289" lon="0.02478">
        <ele>1575.8</ele>
        <time>2024-08-15T08:31:25Z</time>
      </trkpt>
      <trkpt lat="42.95286" lon="0.0248">
        <ele>1576</ele>
        <time>2024-08-15T08:31:26Z</time>
      </trkpt>
      <trkpt lat="42.95283" lon="0.02481">
        <ele>1576</ele>
        <time>2024-08-15T08:31:27Z</time>
      </trkpt>
      <trkpt lat="42.9527" lon="0.02482">
        <ele>1576</ele>
        <time>2024-08-15T08:31:31Z</time>
      </trkpt>
      <trkpt lat="42.95267" lon="0.02481">
        <ele>1576</ele>
        <time>2024-08-15T08:31:32Z</time>
      </trkpt>
      <trkpt lat="42.95264" lon="0.0248">
        <ele>1575.8</ele>
        <time>2024-08-15T08:31:33Z</time>
      </trkpt>
      <trkpt lat="42.95262" lon="0.02478">
        <ele>1575.6</ele>
        <time>2024-08-15T08:31:34Z</time>
      </trkpt>
      <trkpt lat="42.95259" lon="0.02476">
        <ele>1575.4</ele>
        <time>2024-08-15T08:31:35Z</time>
      </trkpt>
      <trkpt lat="42.95257" lon="0.02472">
        <ele>1575.2</ele>
        <time>2024-08-15T08:31:36Z</time>
      </trkpt>
      <trkpt lat="42.95255" lon="0.02469">
        <ele>1575.2</ele>
        <time>2024-08-15T08:31:37Z</time>
      </trkpt>
      <trkpt lat="42.95253" lon="0.02465">
        <ele>1575</ele>
        <time>2024-08-15T08:31:38Z</time>
      </trkpt>
      <trkpt lat="42.95252" lon="0.02462">
        <ele>1574.8</ele>
        <time>2024-08-15T08:31:39Z</time>
      </trkpt>
      <trkpt lat="42.95251" lon="0.0246">
        <ele>1574.6</ele>
        <time>2024-08-15T08:31:40Z</time>
      </trkpt>
      <trkpt lat="42.9525" lon="0.02457">
        <ele>1574.4</ele>
        <time>2024-08-15T08:31:41Z</time>
      </trkpt>
      <trkpt lat="42.95246" lon="0.02449">
        <ele>1573.4</ele>
        <time>2024-08-15T08:31:43Z</time>
      </trkpt>
      <trkpt lat="42.95243" lon="0.02438">
        <ele>1572.8</ele>
        <time>2024-08-15T08:31:45Z</time>
      </trkpt>
      <trkpt lat="42.95237" lon="0.02421">
        <ele>1572</ele>
        <time>2024-08-15T08:31:47Z</time>
      </trkpt>
      <trkpt lat="42.95234" lon="0.02415">
        <ele>1571.8</ele>
        <time>2024-08-15T08:31:48Z</time>
      </trkpt>
      <trkpt lat="42.9523" lon="0.02409">
        <ele>1570.6</ele>
        <time>2024-08-15T08:31:49Z</time>
      </trkpt>
      <trkpt lat="42.95227" lon="0.02404">
        <ele>1569.8</ele>
        <time>2024-08-15T08:31:50Z</time>
      </trkpt>
      <trkpt lat="42.95224" lon="0.02399">
        <ele>1568.8</ele>
        <time>2024-08-15T08:31:51Z</time>
      </trkpt>
      <trkpt lat="42.9522" lon="0.02395">
        <ele>1568</ele>
        <time>2024-08-15T08:31:52Z</time>
      </trkpt>
      <trkpt lat="42.95218" lon="0.02391">
        <ele>1567</ele>
        <time>2024-08-15T08:31:53Z</time>
      </trkpt>
      <trkpt lat="42.95216" lon="0.02388">
        <ele>1565.6</ele>
        <time>2024-08-15T08:31:54Z</time>
      </trkpt>
      <trkpt lat="42.95215" lon="0.02384">
        <ele>1565.2</ele>
        <time>2024-08-15T08:31:55Z</time>
      </trkpt>
      <trkpt lat="42.95214" lon="0.02381">
        <ele>1564.2</ele>
        <time>2024-08-15T08:31:56Z</time>
      </trkpt>
      <trkpt lat="42.95213" lon="0.02375">
        <ele>1560.8</ele>
        <time>2024-08-15T08:33:19Z</time>
      </trkpt>
      <trkpt lat="42.95211" lon="0.02372">
        <ele>1560.6</ele>
        <time>2024-08-15T08:33:20Z</time>
      </trkpt>
      <trkpt lat="42.95207" lon="0.02363">
        <ele>1560.4</ele>
        <time>2024-08-15T08:33:23Z</time>
      </trkpt>
      <trkpt lat="42.95206" lon="0.02361">
        <ele>1560.2</ele>
        <time>2024-08-15T08:33:24Z</time>
      </trkpt>
      <trkpt lat="42.95205" lon="0.02358">
        <ele>1559.6</ele>
        <time>2024-08-15T08:33:25Z</time>
      </trkpt>
      <trkpt lat="42.95204" lon="0.02356">
        <ele>1559</ele>
        <time>2024-08-15T08:33:26Z</time>
      </trkpt>
      <trkpt lat="42.95204" lon="0.02354">
        <ele>1558.8</ele>
        <time>2024-08-15T08:33:27Z</time>
      </trkpt>
      <trkpt lat="42.95203" lon="0.02351">
        <ele>1557.4</ele>
        <time>2024-08-15T08:33:31Z</time>
      </trkpt>
      <trkpt lat="42.95203" lon="0.02349">
        <ele>1557.2</ele>
        <time>2024-08-15T08:33:33Z</time>
      </trkpt>
      <trkpt lat="42.95201" lon="0.02338">
        <ele>1556.4</ele>
        <time>2024-08-15T08:33:38Z</time>
      </trkpt>
      <trkpt lat="42.95201" lon="0.02334">
        <ele>1556.2</ele>
        <time>2024-08-15T08:33:39Z</time>
      </trkpt>
      <trkpt lat="42.95201" lon="0.02328">
        <ele>1556</ele>
        <time>2024-08-15T08:33:41Z</time>
      </trkpt>
      <trkpt lat="42.952" lon="0.02325">
        <ele>1555.4</ele>
        <time>2024-08-15T08:33:42Z</time>
      </trkpt>
      <trkpt lat="42.952" lon="0.02322">
        <ele>1555</ele>
        <time>2024-08-15T08:33:43Z</time>
      </trkpt>
      <trkpt lat="42.95199" lon="0.02319">
        <ele>1554.6</ele>
        <time>2024-08-15T08:33:44Z</time>
      </trkpt>
      <trkpt lat="42.95198" lon="0.02317">
        <ele>1554.6</ele>
        <time>2024-08-15T08:33:45Z</time>
      </trkpt>
      <trkpt lat="42.95197" lon="0.02315">
        <ele>1553.8</ele>
        <time>2024-08-15T08:33:46Z</time>
      </trkpt>
      <trkpt lat="42.95197" lon="0.02313">
        <ele>1553.2</ele>
        <time>2024-08-15T08:33:47Z</time>
      </trkpt>
      <trkpt lat="42.95197" lon="0.02311">
        <ele>1552.6</ele>
        <time>2024-08-15T08:33:48Z</time>
      </trkpt>
      <trkpt lat="42.95197" lon="0.0231">
        <ele>1552</ele>
        <time>2024-08-15T08:33:49Z</time>
      </trkpt>
      <trkpt lat="42.95193" lon="0.02301">
        <ele>1549.8</ele>
        <time>2024-08-15T08:33:53Z</time>
      </trkpt>
      <trkpt lat="42.95191" lon="0.02299">
        <ele>1549.6</ele>
        <time>2024-08-15T08:33:54Z</time>
      </trkpt>
      <trkpt lat="42.9519" lon="0.02296">
        <ele>1548.6</ele>
        <time>2024-08-15T08:33:55Z</time>
      </trkpt>
      <trkpt lat="42.9519" lon="0.02294">
        <ele>1547.8</ele>
        <time>2024-08-15T08:33:56Z</time>
      </trkpt>
      <trkpt lat="42.9519" lon="0.02292">
        <ele>1547.4</ele>
        <time>2024-08-15T08:33:57Z</time>
      </trkpt>
      <trkpt lat="42.95193" lon="0.02287">
        <ele>1546</ele>
        <time>2024-08-15T08:33:59Z</time>
      </trkpt>
      <trkpt lat="42.95196" lon="0.02281">
        <ele>1544.8</ele>
        <time>2024-08-15T08:34:01Z</time>
      </trkpt>
      <trkpt lat="42.95198" lon="0.02279">
        <ele>1544.4</ele>
        <time>2024-08-15T08:34:02Z</time>
      </trkpt>
      <trkpt lat="42.95205" lon="0.02272">
        <ele>1543.8</ele>
        <time>2024-08-15T08:34:05Z</time>
      </trkpt>
      <trkpt lat="42.95213" lon="0.02266">
        <ele>1543.6</ele>
        <time>2024-08-15T08:34:08Z</time>
      </trkpt>
      <trkpt lat="42.95221" lon="0.02261">
        <ele>1543.6</ele>
        <time>2024-08-15T08:34:11Z</time>
      </trkpt>
      <trkpt lat="42.95223" lon="0.0226">
        <ele>1543.4</ele>
        <time>2024-08-15T08:34:12Z</time>
      </trkpt>
      <trkpt lat="42.95229" lon="0.02252">
        <ele>1543.2</ele>
        <time>2024-08-15T08:34:15Z</time>
      </trkpt>
      <trkpt lat="42.9523" lon="0.02249">
        <ele>1543.2</ele>
        <time>2024-08-15T08:34:16Z</time>
      </trkpt>
      <trkpt lat="42.95231" lon="0.02245">
        <ele>1543.2</ele>
        <time>2024-08-15T08:34:17Z</time>
      </trkpt>
      <trkpt lat="42.95231" lon="0.02241">
        <ele>1543.2</ele>
        <time>2024-08-15T08:34:18Z</time>
      </trkpt>
      <trkpt lat="42.95231" lon="0.02237">
        <ele>1543.2</ele>
        <time>2024-08-15T08:34:19Z</time>
      </trkpt>
      <trkpt lat="42.95231" lon="0.02232">
        <ele>1543.2</ele>
        <time>2024-08-15T08:34:20Z</time>
      </trkpt>
      <trkpt lat="42.95231" lon="0.02228">
        <ele>1543.2</ele>
        <time>2024-08-15T08:34:21Z</time>
      </trkpt>
      <trkpt lat="42.95231" lon="0.02224">
        <ele>1543.2</ele>
        <time>2024-08-15T08:34:22Z</time>
      </trkpt>
      <trkpt lat="42.95232" lon="0.02215">
        <ele>1543.2</ele>
        <time>2024-08-15T08:34:24Z</time>
      </trkpt>
      <trkpt lat="42.95236" lon="0.022">
        <ele>1543</ele>
        <time>2024-08-15T08:34:28Z</time>
      </trkpt>
      <trkpt lat="42.95238" lon="0.02196">
        <ele>1543</ele>
        <time>2024-08-15T08:34:29Z</time>
      </trkpt>
      <trkpt lat="42.95241" lon="0.02185">
        <ele>1543</ele>
        <time>2024-08-15T08:34:32Z</time>
      </trkpt>
      <trkpt lat="42.95246" lon="0.02173">
        <ele>1543.2</ele>
        <time>2024-08-15T08:34:35Z</time>
      </trkpt>
      <trkpt lat="42.95252" lon="0.02157">
        <ele>1543.4</ele>
        <time>2024-08-15T08:34:39Z</time>
      </trkpt>
      <trkpt lat="42.95254" lon="0.02154">
        <ele>1543.4</ele>
        <time>2024-08-15T08:34:40Z</time>
      </trkpt>
      <trkpt lat="42.95257" lon="0.02146">
        <ele>1543.4</ele>
        <time>2024-08-15T08:34:42Z</time>
      </trkpt>
      <trkpt lat="42.9526" lon="0.02138">
        <ele>1543.6</ele>
        <time>2024-08-15T08:34:44Z</time>
      </trkpt>
      <trkpt lat="42.95261" lon="0.02134">
        <ele>1543.6</ele>
        <time>2024-08-15T08:34:45Z</time>
      </trkpt>
      <trkpt lat="42.95262" lon="0.02131">
        <ele>1543.6</ele>
        <time>2024-08-15T08:34:46Z</time>
      </trkpt>
      <trkpt lat="42.95263" lon="0.02128">
        <ele>1543.6</ele>
        <time>2024-08-15T08:34:47Z</time>
      </trkpt>
      <trkpt lat="42.95263" lon="0.02125">
        <ele>1543.4</ele>
        <time>2024-08-15T08:34:50Z</time>
      </trkpt>
      <trkpt lat="42.95264" lon="0.02125">
        <ele>1543.4</ele>
        <time>2024-08-15T08:34:51Z</time>
      </trkpt>
      <trkpt lat="42.95264" lon="0.02122">
        <ele>1543.8</ele>
        <time>2024-08-15T08:34:55Z</time>
      </trkpt>
      <trkpt lat="42.95265" lon="0.02121">
        <ele>1543.8</ele>
        <time>2024-08-15T08:34:56Z</time>
      </trkpt>
      <trkpt lat="42.95264" lon="0.02119">
        <ele>1543.6</ele>
        <time>2024-08-15T08:35:00Z</time>
      </trkpt>
      <trkpt lat="42.95265" lon="0.02115">
        <ele>1543.8</ele>
        <time>2024-08-15T08:35:03Z</time>
      </trkpt>
      <trkpt lat="42.95266" lon="0.02114">
        <ele>1543.8</ele>
        <time>2024-08-15T08:35:04Z</time>
      </trkpt>
      <trkpt lat="42.95266" lon="0.02113">
        <ele>1543.8</ele>
        <time>2024-08-15T08:35:05Z</time>
      </trkpt>
      <trkpt lat="42.95266" lon="0.02112">
        <ele>1544</ele>
        <time>2024-08-15T08:35:06Z</time>
      </trkpt>
      <trkpt lat="42.95267" lon="0.0211">
        <ele>1544.2</ele>
        <time>2024-08-15T08:35:07Z</time>
      </trkpt>
      <trkpt lat="42.95268" lon="0.02107">
        <ele>1544.2</ele>
        <time>2024-08-15T08:35:09Z</time>
      </trkpt>
      <trkpt lat="42.95269" lon="0.02104">
        <ele>1544.4</ele>
        <time>2024-08-15T08:35:11Z</time>
      </trkpt>
      <trkpt lat="42.95269" lon="0.02103">
        <ele>1544.4</ele>
        <time>2024-08-15T08:35:12Z</time>
      </trkpt>
      <trkpt lat="42.9527" lon="0.02102">
        <ele>1544.4</ele>
        <time>2024-08-15T08:35:13Z</time>
      </trkpt>
      <trkpt lat="42.9527" lon="0.021">
        <ele>1544.6</ele>
        <time>2024-08-15T08:35:14Z</time>
      </trkpt>
      <trkpt lat="42.95271" lon="0.02099">
        <ele>1544.6</ele>
        <time>2024-08-15T08:35:15Z</time>
      </trkpt>
      <trkpt lat="42.95272" lon="0.02096">
        <ele>1544.4</ele>
        <time>2024-08-15T08:35:17Z</time>
      </trkpt>
      <trkpt lat="42.95273" lon="0.02095">
        <ele>1544.4</ele>
        <time>2024-08-15T08:35:18Z</time>
      </trkpt>
      <trkpt lat="42.95275" lon="0.02091">
        <ele>1544.4</ele>
        <time>2024-08-15T08:35:21Z</time>
      </trkpt>
      <trkpt lat="42.95275" lon="0.02089">
        <ele>1544.4</ele>
        <time>2024-08-15T08:35:22Z</time>
      </trkpt>
      <trkpt lat="42.95276" lon="0.02088">
        <ele>1544.4</ele>
        <time>2024-08-15T08:35:23Z</time>
      </trkpt>
      <trkpt lat="42.95279" lon="0.02083">
        <ele>1544</ele>
        <time>2024-08-15T08:35:27Z</time>
      </trkpt>
      <trkpt lat="42.9528" lon="0.02082">
        <ele>1543.8</ele>
        <time>2024-08-15T08:35:28Z</time>
      </trkpt>
      <trkpt lat="42.95281" lon="0.02079">
        <ele>1543.8</ele>
        <time>2024-08-15T08:35:30Z</time>
      </trkpt>
      <trkpt lat="42.95282" lon="0.02078">
        <ele>1543.8</ele>
        <time>2024-08-15T08:35:31Z</time>
      </trkpt>
      <trkpt lat="42.95286" lon="0.02072">
        <ele>1543.6</ele>
        <time>2024-08-15T08:35:36Z</time>
      </trkpt>
      <trkpt lat="42.95286" lon="0.0207">
        <ele>1543.4</ele>
        <time>2024-08-15T08:35:37Z</time>
      </trkpt>
      <trkpt lat="42.95287" lon="0.02068">
        <ele>1543.4</ele>
        <time>2024-08-15T08:35:38Z</time>
      </trkpt>
      <trkpt lat="42.95287" lon="0.02066">
        <ele>1543.4</ele>
        <time>2024-08-15T08:35:39Z</time>
      </trkpt>
      <trkpt lat="42.9529" lon="0.02062">
        <ele>1543.2</ele>
        <time>2024-08-15T08:35:42Z</time>
      </trkpt>
      <trkpt lat="42.95291" lon="0.0206">
        <ele>1543.2</ele>
        <time>2024-08-15T08:35:44Z</time>
      </trkpt>
      <trkpt lat="42.95292" lon="0.02059">
        <ele>1543</ele>
        <time>2024-08-15T08:35:47Z</time>
      </trkpt>
      <trkpt lat="42.95293" lon="0.02058">
        <ele>1543</ele>
        <time>2024-08-15T08:35:49Z</time>
      </trkpt>
      <trkpt lat="42.95294" lon="0.02057">
        <ele>1543</ele>
        <time>2024-08-15T08:35:50Z</time>
      </trkpt>
      <trkpt lat="42.95294" lon="0.02056">
        <ele>1543</ele>
        <time>2024-08-15T08:35:51Z</time>
      </trkpt>
      <trkpt lat="42.95295" lon="0.02054">
        <ele>1543</ele>
        <time>2024-08-15T08:35:52Z</time>
      </trkpt>
      <trkpt lat="42.95299" lon="0.02046">
        <ele>1543</ele>
        <time>2024-08-15T08:35:55Z</time>
      </trkpt>
      <trkpt lat="42.95303" lon="0.02041">
        <ele>1543</ele>
        <time>2024-08-15T08:35:57Z</time>
      </trkpt>
      <trkpt lat="42.95304" lon="0.02039">
        <ele>1543</ele>
        <time>2024-08-15T08:35:58Z</time>
      </trkpt>
      <trkpt lat="42.95307" lon="0.02036">
        <ele>1543.2</ele>
        <time>2024-08-15T08:35:59Z</time>
      </trkpt>
      <trkpt lat="42.95309" lon="0.02034">
        <ele>1543.2</ele>
        <time>2024-08-15T08:36:00Z</time>
      </trkpt>
      <trkpt lat="42.95317" lon="0.02027">
        <ele>1543.2</ele>
        <time>2024-08-15T08:36:03Z</time>
      </trkpt>
      <trkpt lat="42.95322" lon="0.02025">
        <ele>1543.2</ele>
        <time>2024-08-15T08:36:05Z</time>
      </trkpt>
      <trkpt lat="42.95323" lon="0.02024">
        <ele>1543.2</ele>
        <time>2024-08-15T08:36:06Z</time>
      </trkpt>
      <trkpt lat="42.95325" lon="0.02024">
        <ele>1543.2</ele>
        <time>2024-08-15T08:36:07Z</time>
      </trkpt>
      <trkpt lat="42.95328" lon="0.02023">
        <ele>1543.2</ele>
        <time>2024-08-15T08:36:08Z</time>
      </trkpt>
      <trkpt lat="42.95335" lon="0.0202">
        <ele>1543.2</ele>
        <time>2024-08-15T08:36:12Z</time>
      </trkpt>
      <trkpt lat="42.95336" lon="0.02019">
        <ele>1543.2</ele>
        <time>2024-08-15T08:36:13Z</time>
      </trkpt>
      <trkpt lat="42.95338" lon="0.02018">
        <ele>1543.2</ele>
        <time>2024-08-15T08:36:14Z</time>
      </trkpt>
      <trkpt lat="42.95339" lon="0.02018">
        <ele>1543</ele>
        <time>2024-08-15T08:36:17Z</time>
      </trkpt>
      <trkpt lat="42.9534" lon="0.02017">
        <ele>1543</ele>
        <time>2024-08-15T08:36:19Z</time>
      </trkpt>
      <trkpt lat="42.95341" lon="0.02017">
        <ele>1543</ele>
        <time>2024-08-15T08:36:20Z</time>
      </trkpt>
      <trkpt lat="42.95342" lon="0.02017">
        <ele>1543</ele>
        <time>2024-08-15T08:36:21Z</time>
      </trkpt>
      <trkpt lat="42.95344" lon="0.02017">
        <ele>1543.2</ele>
        <time>2024-08-15T08:36:23Z</time>
      </trkpt>
      <trkpt lat="42.95345" lon="0.02018">
        <ele>1543.2</ele>
        <time>2024-08-15T08:36:24Z</time>
      </trkpt>
      <trkpt lat="42.95346" lon="0.02019">
        <ele>1543.2</ele>
        <time>2024-08-15T08:36:26Z</time>
      </trkpt>
      <trkpt lat="42.95348" lon="0.0202">
        <ele>1543.2</ele>
        <time>2024-08-15T08:36:27Z</time>
      </trkpt>
      <trkpt lat="42.95356" lon="0.02021">
        <ele>1543.4</ele>
        <time>2024-08-15T08:36:31Z</time>
      </trkpt>
      <trkpt lat="42.95366" lon="0.02023">
        <ele>1543.2</ele>
        <time>2024-08-15T08:36:34Z</time>
      </trkpt>
      <trkpt lat="42.95369" lon="0.02024">
        <ele>1543.2</ele>
        <time>2024-08-15T08:36:35Z</time>
      </trkpt>
      <trkpt lat="42.95372" lon="0.02024">
        <ele>1543</ele>
        <time>2024-08-15T08:36:36Z</time>
      </trkpt>
      <trkpt lat="42.95375" lon="0.02023">
        <ele>1543</ele>
        <time>2024-08-15T08:36:37Z</time>
      </trkpt>
      <trkpt lat="42.95389" lon="0.02022">
        <ele>1542.4</ele>
        <time>2024-08-15T08:36:41Z</time>
      </trkpt>
      <trkpt lat="42.95393" lon="0.02021">
        <ele>1542.2</ele>
        <time>2024-08-15T08:36:42Z</time>
      </trkpt>
      <trkpt lat="42.95396" lon="0.0202">
        <ele>1542.2</ele>
        <time>2024-08-15T08:36:43Z</time>
      </trkpt>
      <trkpt lat="42.95399" lon="0.02021">
        <ele>1542</ele>
        <time>2024-08-15T08:36:44Z</time>
      </trkpt>
      <trkpt lat="42.95402" lon="0.02021">
        <ele>1541.8</ele>
        <time>2024-08-15T08:36:45Z</time>
      </trkpt>
      <trkpt lat="42.95405" lon="0.02022">
        <ele>1541.8</ele>
        <time>2024-08-15T08:36:46Z</time>
      </trkpt>
      <trkpt lat="42.95407" lon="0.02023">
        <ele>1541.6</ele>
        <time>2024-08-15T08:36:47Z</time>
      </trkpt>
      <trkpt lat="42.95409" lon="0.02025">
        <ele>1541.6</ele>
        <time>2024-08-15T08:36:48Z</time>
      </trkpt>
      <trkpt lat="42.95412" lon="0.02026">
        <ele>1541.2</ele>
        <time>2024-08-15T08:36:49Z</time>
      </trkpt>
      <trkpt lat="42.95414" lon="0.02027">
        <ele>1541.2</ele>
        <time>2024-08-15T08:36:50Z</time>
      </trkpt>
      <trkpt lat="42.95416" lon="0.02028">
        <ele>1540.8</ele>
        <time>2024-08-15T08:36:51Z</time>
      </trkpt>
      <trkpt lat="42.95418" lon="0.02028">
        <ele>1540.8</ele>
        <time>2024-08-15T08:36:52Z</time>
      </trkpt>
      <trkpt lat="42.9542" lon="0.02027">
        <ele>1540.8</ele>
        <time>2024-08-15T08:36:53Z</time>
      </trkpt>
      <trkpt lat="42.95422" lon="0.02024">
        <ele>1540.6</ele>
        <time>2024-08-15T08:36:54Z</time>
      </trkpt>
      <trkpt lat="42.95424" lon="0.02022">
        <ele>1540.6</ele>
        <time>2024-08-15T08:36:55Z</time>
      </trkpt>
      <trkpt lat="42.95428" lon="0.02018">
        <ele>1540.6</ele>
        <time>2024-08-15T08:36:56Z</time>
      </trkpt>
      <trkpt lat="42.9543" lon="0.02016">
        <ele>1540.6</ele>
        <time>2024-08-15T08:36:57Z</time>
      </trkpt>
      <trkpt lat="42.95432" lon="0.02014">
        <ele>1540.6</ele>
        <time>2024-08-15T08:36:59Z</time>
      </trkpt>
      <trkpt lat="42.95434" lon="0.02013">
        <ele>1540.6</ele>
        <time>2024-08-15T08:37:00Z</time>
      </trkpt>
      <trkpt lat="42.95438" lon="0.02011">
        <ele>1540.6</ele>
        <time>2024-08-15T08:37:01Z</time>
      </trkpt>
      <trkpt lat="42.95441" lon="0.02011">
        <ele>1540.6</ele>
        <time>2024-08-15T08:37:03Z</time>
      </trkpt>
      <trkpt lat="42.95444" lon="0.02011">
        <ele>1540.4</ele>
        <time>2024-08-15T08:37:04Z</time>
      </trkpt>
      <trkpt lat="42.95446" lon="0.02012">
        <ele>1540.4</ele>
        <time>2024-08-15T08:37:05Z</time>
      </trkpt>
      <trkpt lat="42.95448" lon="0.02012">
        <ele>1540.4</ele>
        <time>2024-08-15T08:37:06Z</time>
      </trkpt>
      <trkpt lat="42.9545" lon="0.02012">
        <ele>1540.4</ele>
        <time>2024-08-15T08:37:07Z</time>
      </trkpt>
      <trkpt lat="42.95452" lon="0.02012">
        <ele>1540.4</ele>
        <time>2024-08-15T08:37:08Z</time>
      </trkpt>
      <trkpt lat="42.95453" lon="0.02012">
        <ele>1540.4</ele>
        <time>2024-08-15T08:37:09Z</time>
      </trkpt>
      <trkpt lat="42.95454" lon="0.02013">
        <ele>1540.2</ele>
        <time>2024-08-15T08:37:10Z</time>
      </trkpt>
      <trkpt lat="42.95458" lon="0.02023">
        <ele>1538</ele>
        <time>2024-08-15T08:37:57Z</time>
      </trkpt>
      <trkpt lat="42.95458" lon="0.02025">
        <ele>1537.8</ele>
        <time>2024-08-15T08:37:58Z</time>
      </trkpt>
      <trkpt lat="42.95459" lon="0.02034">
        <ele>1536.8</ele>
        <time>2024-08-15T08:38:02Z</time>
      </trkpt>
      <trkpt lat="42.9546" lon="0.02038">
        <ele>1536.6</ele>
        <time>2024-08-15T08:38:04Z</time>
      </trkpt>
      <trkpt lat="42.95462" lon="0.02056">
        <ele>1536.4</ele>
        <time>2024-08-15T08:38:08Z</time>
      </trkpt>
      <trkpt lat="42.95465" lon="0.02062">
        <ele>1536.2</ele>
        <time>2024-08-15T08:38:10Z</time>
      </trkpt>
      <trkpt lat="42.95465" lon="0.02062">
        <ele>1536.2</ele>
        <time>2024-08-15T08:38:11Z</time>
      </trkpt>
      <trkpt lat="42.95467" lon="0.02065">
        <ele>1536.2</ele>
        <time>2024-08-15T08:38:12Z</time>
      </trkpt>
      <trkpt lat="42.95469" lon="0.02069">
        <ele>1536.4</ele>
        <time>2024-08-15T08:38:13Z</time>
      </trkpt>
      <trkpt lat="42.9547" lon="0.0207">
        <ele>1536.4</ele>
        <time>2024-08-15T08:38:14Z</time>
      </trkpt>
      <trkpt lat="42.9547" lon="0.02072">
        <ele>1536.4</ele>
        <time>2024-08-15T08:38:15Z</time>
      </trkpt>
      <trkpt lat="42.9547" lon="0.02072">
        <ele>1536.4</ele>
        <time>2024-08-15T08:38:16Z</time>
      </trkpt>
      <trkpt lat="42.95471" lon="0.02074">
        <ele>1536.4</ele>
        <time>2024-08-15T08:38:17Z</time>
      </trkpt>
      <trkpt lat="42.95472" lon="0.02074">
        <ele>1536.4</ele>
        <time>2024-08-15T08:38:22Z</time>
      </trkpt>
      <trkpt lat="42.95474" lon="0.02074">
        <ele>1536.4</ele>
        <time>2024-08-15T08:38:24Z</time>
      </trkpt>
      <trkpt lat="42.95476" lon="0.02079">
        <ele>1536.4</ele>
        <time>2024-08-15T08:38:29Z</time>
      </trkpt>
      <trkpt lat="42.95477" lon="0.0209">
        <ele>1536.4</ele>
        <time>2024-08-15T08:38:35Z</time>
      </trkpt>
      <trkpt lat="42.95477" lon="0.0209">
        <ele>1536.4</ele>
        <time>2024-08-15T08:38:36Z</time>
      </trkpt>
      <trkpt lat="42.95478" lon="0.02092">
        <ele>1536.4</ele>
        <time>2024-08-15T08:38:37Z</time>
      </trkpt>
      <trkpt lat="42.95481" lon="0.02093">
        <ele>1536.6</ele>
        <time>2024-08-15T08:38:38Z</time>
      </trkpt>
      <trkpt lat="42.95484" lon="0.02091">
        <ele>1536.6</ele>
        <time>2024-08-15T08:38:40Z</time>
      </trkpt>
      <trkpt lat="42.95485" lon="0.0209">
        <ele>1536.6</ele>
        <time>2024-08-15T08:38:41Z</time>
      </trkpt>
      <trkpt lat="42.95487" lon="0.02089">
        <ele>1536.6</ele>
        <time>2024-08-15T08:38:42Z</time>
      </trkpt>
      <trkpt lat="42.95488" lon="0.02089">
        <ele>1536.4</ele>
        <time>2024-08-15T08:38:43Z</time>
      </trkpt>
      <trkpt lat="42.95489" lon="0.02088">
        <ele>1536.6</ele>
        <time>2024-08-15T08:38:44Z</time>
      </trkpt>
      <trkpt lat="42.9549" lon="0.02087">
        <ele>1536.8</ele>
        <time>2024-08-15T08:38:46Z</time>
      </trkpt>
      <trkpt lat="42.95493" lon="0.02085">
        <ele>1537</ele>
        <time>2024-08-15T08:38:47Z</time>
      </trkpt>
      <trkpt lat="42.95494" lon="0.02084">
        <ele>1537</ele>
        <time>2024-08-15T08:38:48Z</time>
      </trkpt>
      <trkpt lat="42.95497" lon="0.02082">
        <ele>1537.4</ele>
        <time>2024-08-15T08:38:50Z</time>
      </trkpt>
      <trkpt lat="42.955" lon="0.0208">
        <ele>1538</ele>
        <time>2024-08-15T08:38:52Z</time>
      </trkpt>
      <trkpt lat="42.95501" lon="0.02079">
        <ele>1538.2</ele>
        <time>2024-08-15T08:38:53Z</time>
      </trkpt>
      <trkpt lat="42.95502" lon="0.02079">
        <ele>1538.2</ele>
        <time>2024-08-15T08:38:54Z</time>
      </trkpt>
      <trkpt lat="42.95503" lon="0.02077">
        <ele>1538.6</ele>
        <time>2024-08-15T08:38:55Z</time>
      </trkpt>
      <trkpt lat="42.95503" lon="0.02077">
        <ele>1538.8</ele>
        <time>2024-08-15T08:38:56Z</time>
      </trkpt>
      <trkpt lat="42.95506" lon="0.02075">
        <ele>1539.2</ele>
        <time>2024-08-15T08:38:57Z</time>
      </trkpt>
      <trkpt lat="42.9551" lon="0.02074">
        <ele>1540</ele>
        <time>2024-08-15T08:39:00Z</time>
      </trkpt>
      <trkpt lat="42.9551" lon="0.02074">
        <ele>1540.4</ele>
        <time>2024-08-15T08:39:01Z</time>
      </trkpt>
      <trkpt lat="42.95512" lon="0.02074">
        <ele>1540.8</ele>
        <time>2024-08-15T08:39:02Z</time>
      </trkpt>
      <trkpt lat="42.95513" lon="0.02075">
        <ele>1541</ele>
        <time>2024-08-15T08:39:03Z</time>
      </trkpt>
      <trkpt lat="42.95513" lon="0.02075">
        <ele>1542</ele>
        <time>2024-08-15T08:39:05Z</time>
      </trkpt>
      <trkpt lat="42.95514" lon="0.02076">
        <ele>1542.6</ele>
        <time>2024-08-15T08:39:06Z</time>
      </trkpt>
      <trkpt lat="42.95514" lon="0.02076">
        <ele>1543</ele>
        <time>2024-08-15T08:39:07Z</time>
      </trkpt>
      <trkpt lat="42.95514" lon="0.02076">
        <ele>1543.4</ele>
        <time>2024-08-15T08:39:08Z</time>
      </trkpt>
      <trkpt lat="42.95515" lon="0.02078">
        <ele>1543.8</ele>
        <time>2024-08-15T08:39:09Z</time>
      </trkpt>
      <trkpt lat="42.95516" lon="0.02079">
        <ele>1543.8</ele>
        <time>2024-08-15T08:39:10Z</time>
      </trkpt>
      <trkpt lat="42.95516" lon="0.0208">
        <ele>1544</ele>
        <time>2024-08-15T08:39:11Z</time>
      </trkpt>
      <trkpt lat="42.95516" lon="0.0208">
        <ele>1544.2</ele>
        <time>2024-08-15T08:39:12Z</time>
      </trkpt>
      <trkpt lat="42.95517" lon="0.0208">
        <ele>1544.6</ele>
        <time>2024-08-15T08:39:13Z</time>
      </trkpt>
      <trkpt lat="42.95519" lon="0.02081">
        <ele>1544.8</ele>
        <time>2024-08-15T08:39:14Z</time>
      </trkpt>
      <trkpt lat="42.95519" lon="0.02081">
        <ele>1545.2</ele>
        <time>2024-08-15T08:39:15Z</time>
      </trkpt>
      <trkpt lat="42.95519" lon="0.02081">
        <ele>1545.4</ele>
        <time>2024-08-15T08:39:16Z</time>
      </trkpt>
      <trkpt lat="42.95521" lon="0.02083">
        <ele>1545.6</ele>
        <time>2024-08-15T08:39:17Z</time>
      </trkpt>
      <trkpt lat="42.95522" lon="0.02083">
        <ele>1546</ele>
        <time>2024-08-15T08:39:18Z</time>
      </trkpt>
      <trkpt lat="42.95524" lon="0.02084">
        <ele>1546.2</ele>
        <time>2024-08-15T08:39:19Z</time>
      </trkpt>
      <trkpt lat="42.95525" lon="0.02084">
        <ele>1546.4</ele>
        <time>2024-08-15T08:39:20Z</time>
      </trkpt>
      <trkpt lat="42.95526" lon="0.02085">
        <ele>1546.6</ele>
        <time>2024-08-15T08:39:21Z</time>
      </trkpt>
      <trkpt lat="42.95527" lon="0.02085">
        <ele>1546.8</ele>
        <time>2024-08-15T08:39:22Z</time>
      </trkpt>
      <trkpt lat="42.95528" lon="0.02085">
        <ele>1546.8</ele>
        <time>2024-08-15T08:39:23Z</time>
      </trkpt>
      <trkpt lat="42.9553" lon="0.02085">
        <ele>1547</ele>
        <time>2024-08-15T08:39:24Z</time>
      </trkpt>
      <trkpt lat="42.95531" lon="0.02084">
        <ele>1547.2</ele>
        <time>2024-08-15T08:39:25Z</time>
      </trkpt>
      <trkpt lat="42.95533" lon="0.02084">
        <ele>1547.2</ele>
        <time>2024-08-15T08:39:26Z</time>
      </trkpt>
      <trkpt lat="42.95533" lon="0.02084">
        <ele>1547.4</ele>
        <time>2024-08-15T08:39:27Z</time>
      </trkpt>
      <trkpt lat="42.95535" lon="0.02084">
        <ele>1547.4</ele>
        <time>2024-08-15T08:39:28Z</time>
      </trkpt>
      <trkpt lat="42.95538" lon="0.02084">
        <ele>1547.2</ele>
        <time>2024-08-15T08:39:29Z</time>
      </trkpt>
      <trkpt lat="42.9554" lon="0.02084">
        <ele>1547.2</ele>
        <time>2024-08-15T08:39:30Z</time>
      </trkpt>
      <trkpt lat="42.95546" lon="0.02083">
        <ele>1547.2</ele>
        <time>2024-08-15T08:39:31Z</time>
      </trkpt>
      <trkpt lat="42.95549" lon="0.02082">
        <ele>1547.2</ele>
        <time>2024-08-15T08:39:32Z</time>
      </trkpt>
      <trkpt lat="42.95551" lon="0.0208">
        <ele>1547</ele>
        <time>2024-08-15T08:39:33Z</time>
      </trkpt>
      <trkpt lat="42.95551" lon="0.0208">
        <ele>1546.8</ele>
        <time>2024-08-15T08:39:34Z</time>
      </trkpt>
      <trkpt lat="42.95556" lon="0.02077">
        <ele>1546.6</ele>
        <time>2024-08-15T08:39:35Z</time>
      </trkpt>
      <trkpt lat="42.95558" lon="0.02075">
        <ele>1546.2</ele>
        <time>2024-08-15T08:39:36Z</time>
      </trkpt>
      <trkpt lat="42.95558" lon="0.02075">
        <ele>1546.2</ele>
        <time>2024-08-15T08:39:37Z</time>
      </trkpt>
      <trkpt lat="42.9556" lon="0.02068">
        <ele>1545.8</ele>
        <time>2024-08-15T08:39:38Z</time>
      </trkpt>
      <trkpt lat="42.95561" lon="0.02065">
        <ele>1545.4</ele>
        <time>2024-08-15T08:39:39Z</time>
      </trkpt>
      <trkpt lat="42.95562" lon="0.02061">
        <ele>1545</ele>
        <time>2024-08-15T08:39:40Z</time>
      </trkpt>
      <trkpt lat="42.95563" lon="0.02057">
        <ele>1544.6</ele>
        <time>2024-08-15T08:39:41Z</time>
      </trkpt>
      <trkpt lat="42.95564" lon="0.02054">
        <ele>1544.4</ele>
        <time>2024-08-15T08:39:42Z</time>
      </trkpt>
      <trkpt lat="42.95565" lon="0.02051">
        <ele>1544</ele>
        <time>2024-08-15T08:39:43Z</time>
      </trkpt>
      <trkpt lat="42.95565" lon="0.02048">
        <ele>1543.8</ele>
        <time>2024-08-15T08:39:44Z</time>
      </trkpt>
      <trkpt lat="42.95565" lon="0.02048">
        <ele>1543.4</ele>
        <time>2024-08-15T08:39:45Z</time>
      </trkpt>
      <trkpt lat="42.95566" lon="0.0204">
        <ele>1543.2</ele>
        <time>2024-08-15T08:39:46Z</time>
      </trkpt>
      <trkpt lat="42.95566" lon="0.0204">
        <ele>1542.6</ele>
        <time>2024-08-15T08:39:47Z</time>
      </trkpt>
      <trkpt lat="42.95567" lon="0.02032">
        <ele>1542.6</ele>
        <time>2024-08-15T08:39:48Z</time>
      </trkpt>
      <trkpt lat="42.95568" lon="0.02024">
        <ele>1541.4</ele>
        <time>2024-08-15T08:39:50Z</time>
      </trkpt>
      <trkpt lat="42.95571" lon="0.02017">
        <ele>1540.8</ele>
        <time>2024-08-15T08:39:52Z</time>
      </trkpt>
      <trkpt lat="42.95573" lon="0.02015">
        <ele>1540.4</ele>
        <time>2024-08-15T08:39:53Z</time>
      </trkpt>
      <trkpt lat="42.95574" lon="0.02014">
        <ele>1540</ele>
        <time>2024-08-15T08:39:54Z</time>
      </trkpt>
      <trkpt lat="42.95574" lon="0.02014">
        <ele>1539.8</ele>
        <time>2024-08-15T08:39:55Z</time>
      </trkpt>
      <trkpt lat="42.95575" lon="0.02013">
        <ele>1539.4</ele>
        <time>2024-08-15T08:39:56Z</time>
      </trkpt>
      <trkpt lat="42.95578" lon="0.0201">
        <ele>1539</ele>
        <time>2024-08-15T08:39:57Z</time>
      </trkpt>
      <trkpt lat="42.95582" lon="0.02">
        <ele>1538.4</ele>
        <time>2024-08-15T08:40:00Z</time>
      </trkpt>
      <trkpt lat="42.95583" lon="0.01996">
        <ele>1537.8</ele>
        <time>2024-08-15T08:40:01Z</time>
      </trkpt>
      <trkpt lat="42.95583" lon="0.01993">
        <ele>1537.6</ele>
        <time>2024-08-15T08:40:02Z</time>
      </trkpt>
      <trkpt lat="42.95584" lon="0.01992">
        <ele>1537</ele>
        <time>2024-08-15T08:40:03Z</time>
      </trkpt>
      <trkpt lat="42.95584" lon="0.01992">
        <ele>1536.6</ele>
        <time>2024-08-15T08:40:04Z</time>
      </trkpt>
      <trkpt lat="42.95584" lon="0.0199">
        <ele>1536.2</ele>
        <time>2024-08-15T08:40:05Z</time>
      </trkpt>
      <trkpt lat="42.95585" lon="0.01989">
        <ele>1535.4</ele>
        <time>2024-08-15T08:40:06Z</time>
      </trkpt>
      <trkpt lat="42.95585" lon="0.01989">
        <ele>1535.2</ele>
        <time>2024-08-15T08:40:07Z</time>
      </trkpt>
      <trkpt lat="42.95586" lon="0.01987">
        <ele>1534.6</ele>
        <time>2024-08-15T08:40:08Z</time>
      </trkpt>
      <trkpt lat="42.95587" lon="0.01986">
        <ele>1534.4</ele>
        <time>2024-08-15T08:40:09Z</time>
      </trkpt>
      <trkpt lat="42.95595" lon="0.01974">
        <ele>1533.6</ele>
        <time>2024-08-15T08:40:12Z</time>
      </trkpt>
      <trkpt lat="42.95597" lon="0.01971">
        <ele>1533</ele>
        <time>2024-08-15T08:40:13Z</time>
      </trkpt>
      <trkpt lat="42.95605" lon="0.01962">
        <ele>1531.8</ele>
        <time>2024-08-15T08:40:17Z</time>
      </trkpt>
      <trkpt lat="42.9561" lon="0.01957">
        <ele>1531.4</ele>
        <time>2024-08-15T08:40:18Z</time>
      </trkpt>
      <trkpt lat="42.95613" lon="0.01954">
        <ele>1531</ele>
        <time>2024-08-15T08:40:19Z</time>
      </trkpt>
      <trkpt lat="42.95613" lon="0.01954">
        <ele>1530.2</ele>
        <time>2024-08-15T08:40:20Z</time>
      </trkpt>
      <trkpt lat="42.95617" lon="0.01948">
        <ele>1529.8</ele>
        <time>2024-08-15T08:40:21Z</time>
      </trkpt>
      <trkpt lat="42.95618" lon="0.01945">
        <ele>1529</ele>
        <time>2024-08-15T08:40:22Z</time>
      </trkpt>
      <trkpt lat="42.95619" lon="0.01942">
        <ele>1528.8</ele>
        <time>2024-08-15T08:40:23Z</time>
      </trkpt>
      <trkpt lat="42.9562" lon="0.0194">
        <ele>1528.4</ele>
        <time>2024-08-15T08:40:24Z</time>
      </trkpt>
      <trkpt lat="42.9562" lon="0.01939">
        <ele>1528.2</ele>
        <time>2024-08-15T08:40:25Z</time>
      </trkpt>
      <trkpt lat="42.95621" lon="0.01936">
        <ele>1526.8</ele>
        <time>2024-08-15T08:40:31Z</time>
      </trkpt>
      <trkpt lat="42.95621" lon="0.01936">
        <ele>1526.6</ele>
        <time>2024-08-15T08:40:32Z</time>
      </trkpt>
      <trkpt lat="42.95622" lon="0.01924">
        <ele>1526.4</ele>
        <time>2024-08-15T08:40:36Z</time>
      </trkpt>
      <trkpt lat="42.95622" lon="0.01921">
        <ele>1526.2</ele>
        <time>2024-08-15T08:40:37Z</time>
      </trkpt>
      <trkpt lat="42.95623" lon="0.01916">
        <ele>1526</ele>
        <time>2024-08-15T08:40:39Z</time>
      </trkpt>
      <trkpt lat="42.95624" lon="0.01911">
        <ele>1525.8</ele>
        <time>2024-08-15T08:40:40Z</time>
      </trkpt>
      <trkpt lat="42.95625" lon="0.01904">
        <ele>1525.6</ele>
        <time>2024-08-15T08:40:42Z</time>
      </trkpt>
      <trkpt lat="42.95625" lon="0.01896">
        <ele>1525.4</ele>
        <time>2024-08-15T08:40:44Z</time>
      </trkpt>
      <trkpt lat="42.95625" lon="0.01893">
        <ele>1525.4</ele>
        <time>2024-08-15T08:40:45Z</time>
      </trkpt>
      <trkpt lat="42.95626" lon="0.0189">
        <ele>1525.4</ele>
        <time>2024-08-15T08:40:46Z</time>
      </trkpt>
      <trkpt lat="42.95626" lon="0.0189">
        <ele>1525.2</ele>
        <time>2024-08-15T08:40:47Z</time>
      </trkpt>
      <trkpt lat="42.95628" lon="0.0188">
        <ele>1524.8</ele>
        <time>2024-08-15T08:40:49Z</time>
      </trkpt>
      <trkpt lat="42.95628" lon="0.01877">
        <ele>1524.6</ele>
        <time>2024-08-15T08:40:50Z</time>
      </trkpt>
      <trkpt lat="42.95629" lon="0.01874">
        <ele>1524.6</ele>
        <time>2024-08-15T08:40:51Z</time>
      </trkpt>
      <trkpt lat="42.95628" lon="0.01864">
        <ele>1524.2</ele>
        <time>2024-08-15T08:40:54Z</time>
      </trkpt>
      <trkpt lat="42.95628" lon="0.01864">
        <ele>1524</ele>
        <time>2024-08-15T08:40:55Z</time>
      </trkpt>
      <trkpt lat="42.95628" lon="0.01857">
        <ele>1523.6</ele>
        <time>2024-08-15T08:40:56Z</time>
      </trkpt>
      <trkpt lat="42.95628" lon="0.01854">
        <ele>1523.4</ele>
        <time>2024-08-15T08:40:57Z</time>
      </trkpt>
      <trkpt lat="42.95628" lon="0.01848">
        <ele>1523</ele>
        <time>2024-08-15T08:40:59Z</time>
      </trkpt>
      <trkpt lat="42.95628" lon="0.01845">
        <ele>1522.6</ele>
        <time>2024-08-15T08:41:00Z</time>
      </trkpt>
      <trkpt lat="42.95628" lon="0.01845">
        <ele>1522.2</ele>
        <time>2024-08-15T08:41:01Z</time>
      </trkpt>
      <trkpt lat="42.95627" lon="0.01843">
        <ele>1522</ele>
        <time>2024-08-15T08:41:02Z</time>
      </trkpt>
      <trkpt lat="42.95627" lon="0.0184">
        <ele>1521.8</ele>
        <time>2024-08-15T08:41:03Z</time>
      </trkpt>
      <trkpt lat="42.95627" lon="0.01839">
        <ele>1521.4</ele>
        <time>2024-08-15T08:41:04Z</time>
      </trkpt>
      <trkpt lat="42.95625" lon="0.01837">
        <ele>1520.4</ele>
        <time>2024-08-15T08:41:07Z</time>
      </trkpt>
      <trkpt lat="42.95625" lon="0.01837">
        <ele>1520</ele>
        <time>2024-08-15T08:41:08Z</time>
      </trkpt>
      <trkpt lat="42.95624" lon="0.01836">
        <ele>1520</ele>
        <time>2024-08-15T08:41:09Z</time>
      </trkpt>
      <trkpt lat="42.95623" lon="0.01835">
        <ele>1519.8</ele>
        <time>2024-08-15T08:41:10Z</time>
      </trkpt>
      <trkpt lat="42.95623" lon="0.01833">
        <ele>1519.6</ele>
        <time>2024-08-15T08:41:11Z</time>
      </trkpt>
      <trkpt lat="42.95622" lon="0.01833">
        <ele>1519.2</ele>
        <time>2024-08-15T08:41:12Z</time>
      </trkpt>
      <trkpt lat="42.95622" lon="0.01833">
        <ele>1519.2</ele>
        <time>2024-08-15T08:41:13Z</time>
      </trkpt>
      <trkpt lat="42.95621" lon="0.01832">
        <ele>1518.8</ele>
        <time>2024-08-15T08:41:14Z</time>
      </trkpt>
      <trkpt lat="42.95621" lon="0.01829">
        <ele>1518.8</ele>
        <time>2024-08-15T08:41:15Z</time>
      </trkpt>
      <trkpt lat="42.95621" lon="0.01828">
        <ele>1518.4</ele>
        <time>2024-08-15T08:41:16Z</time>
      </trkpt>
      <trkpt lat="42.95621" lon="0.01826">
        <ele>1518</ele>
        <time>2024-08-15T08:41:17Z</time>
      </trkpt>
      <trkpt lat="42.95621" lon="0.01825">
        <ele>1517.8</ele>
        <time>2024-08-15T08:41:18Z</time>
      </trkpt>
      <trkpt lat="42.95621" lon="0.01824">
        <ele>1517.6</ele>
        <time>2024-08-15T08:41:19Z</time>
      </trkpt>
      <trkpt lat="42.95621" lon="0.01822">
        <ele>1517</ele>
        <time>2024-08-15T08:41:21Z</time>
      </trkpt>
      <trkpt lat="42.95622" lon="0.01821">
        <ele>1516.8</ele>
        <time>2024-08-15T08:41:22Z</time>
      </trkpt>
      <trkpt lat="42.95621" lon="0.01819">
        <ele>1516.4</ele>
        <time>2024-08-15T08:41:24Z</time>
      </trkpt>
      <trkpt lat="42.9562" lon="0.01814">
        <ele>1512.6</ele>
        <time>2024-08-15T08:42:06Z</time>
      </trkpt>
      <trkpt lat="42.95622" lon="0.0181">
        <ele>1512.4</ele>
        <time>2024-08-15T08:42:10Z</time>
      </trkpt>
      <trkpt lat="42.95623" lon="0.01809">
        <ele>1512.6</ele>
        <time>2024-08-15T08:42:11Z</time>
      </trkpt>
      <trkpt lat="42.95623" lon="0.01809">
        <ele>1513</ele>
        <time>2024-08-15T08:42:17Z</time>
      </trkpt>
      <trkpt lat="42.95623" lon="0.01809">
        <ele>1513.4</ele>
        <time>2024-08-15T08:42:18Z</time>
      </trkpt>
      <trkpt lat="42.95625" lon="0.01806">
        <ele>1513.8</ele>
        <time>2024-08-15T08:42:20Z</time>
      </trkpt>
      <trkpt lat="42.95625" lon="0.01806">
        <ele>1514.2</ele>
        <time>2024-08-15T08:42:21Z</time>
      </trkpt>
      <trkpt lat="42.95625" lon="0.01806">
        <ele>1514.4</ele>
        <time>2024-08-15T08:42:22Z</time>
      </trkpt>
      <trkpt lat="42.95625" lon="0.01806">
        <ele>1514.6</ele>
        <time>2024-08-15T08:42:23Z</time>
      </trkpt>
      <trkpt lat="42.95627" lon="0.018">
        <ele>1515</ele>
        <time>2024-08-15T08:42:26Z</time>
      </trkpt>
      <trkpt lat="42.95629" lon="0.01797">
        <ele>1515.2</ele>
        <time>2024-08-15T08:42:27Z</time>
      </trkpt>
      <trkpt lat="42.9563" lon="0.01794">
        <ele>1515.4</ele>
        <time>2024-08-15T08:42:28Z</time>
      </trkpt>
      <trkpt lat="42.95631" lon="0.01791">
        <ele>1515.4</ele>
        <time>2024-08-15T08:42:29Z</time>
      </trkpt>
      <trkpt lat="42.95632" lon="0.01788">
        <ele>1515.6</ele>
        <time>2024-08-15T08:42:30Z</time>
      </trkpt>
      <trkpt lat="42.95634" lon="0.0178">
        <ele>1515.8</ele>
        <time>2024-08-15T08:42:32Z</time>
      </trkpt>
      <trkpt lat="42.95636" lon="0.01776">
        <ele>1515.8</ele>
        <time>2024-08-15T08:42:33Z</time>
      </trkpt>
      <trkpt lat="42.95637" lon="0.01771">
        <ele>1516</ele>
        <time>2024-08-15T08:42:34Z</time>
      </trkpt>
      <trkpt lat="42.95637" lon="0.01771">
        <ele>1516</ele>
        <time>2024-08-15T08:42:35Z</time>
      </trkpt>
      <trkpt lat="42.95639" lon="0.01764">
        <ele>1516</ele>
        <time>2024-08-15T08:42:36Z</time>
      </trkpt>
      <trkpt lat="42.95641" lon="0.0176">
        <ele>1516.2</ele>
        <time>2024-08-15T08:42:37Z</time>
      </trkpt>
      <trkpt lat="42.95643" lon="0.01756">
        <ele>1516.2</ele>
        <time>2024-08-15T08:42:38Z</time>
      </trkpt>
      <trkpt lat="42.95643" lon="0.01756">
        <ele>1516.2</ele>
        <time>2024-08-15T08:42:39Z</time>
      </trkpt>
      <trkpt lat="42.95643" lon="0.01748">
        <ele>1516.2</ele>
        <time>2024-08-15T08:42:40Z</time>
      </trkpt>
      <trkpt lat="42.95643" lon="0.01745">
        <ele>1516</ele>
        <time>2024-08-15T08:42:41Z</time>
      </trkpt>
      <trkpt lat="42.95643" lon="0.01742">
        <ele>1516</ele>
        <time>2024-08-15T08:42:42Z</time>
      </trkpt>
      <trkpt lat="42.95644" lon="0.01738">
        <ele>1516</ele>
        <time>2024-08-15T08:42:43Z</time>
      </trkpt>
      <trkpt lat="42.95645" lon="0.01732">
        <ele>1515.8</ele>
        <time>2024-08-15T08:42:44Z</time>
      </trkpt>
      <trkpt lat="42.95646" lon="0.01728">
        <ele>1515.6</ele>
        <time>2024-08-15T08:42:45Z</time>
      </trkpt>
      <trkpt lat="42.9565" lon="0.01714">
        <ele>1515.2</ele>
        <time>2024-08-15T08:42:48Z</time>
      </trkpt>
      <trkpt lat="42.9565" lon="0.01714">
        <ele>1515.2</ele>
        <time>2024-08-15T08:42:49Z</time>
      </trkpt>
      <trkpt lat="42.95651" lon="0.01696">
        <ele>1515</ele>
        <time>2024-08-15T08:42:51Z</time>
      </trkpt>
      <trkpt lat="42.95648" lon="0.01691">
        <ele>1514.8</ele>
        <time>2024-08-15T08:42:52Z</time>
      </trkpt>
      <trkpt lat="42.95646" lon="0.01686">
        <ele>1514.6</ele>
        <time>2024-08-15T08:42:53Z</time>
      </trkpt>
      <trkpt lat="42.95644" lon="0.01682">
        <ele>1514.4</ele>
        <time>2024-08-15T08:42:54Z</time>
      </trkpt>
      <trkpt lat="42.95643" lon="0.01676">
        <ele>1514.2</ele>
        <time>2024-08-15T08:42:55Z</time>
      </trkpt>
      <trkpt lat="42.95643" lon="0.01676">
        <ele>1514</ele>
        <time>2024-08-15T08:42:56Z</time>
      </trkpt>
      <trkpt lat="42.95641" lon="0.01667">
        <ele>1514</ele>
        <time>2024-08-15T08:42:57Z</time>
      </trkpt>
      <trkpt lat="42.95641" lon="0.01664">
        <ele>1514</ele>
        <time>2024-08-15T08:42:58Z</time>
      </trkpt>
      <trkpt lat="42.95641" lon="0.01658">
        <ele>1513.8</ele>
        <time>2024-08-15T08:42:59Z</time>
      </trkpt>
      <trkpt lat="42.95641" lon="0.01654">
        <ele>1513.4</ele>
        <time>2024-08-15T08:43:00Z</time>
      </trkpt>
      <trkpt lat="42.95641" lon="0.01654">
        <ele>1513.2</ele>
        <time>2024-08-15T08:43:01Z</time>
      </trkpt>
      <trkpt lat="42.95643" lon="0.01644">
        <ele>1512.6</ele>
        <time>2024-08-15T08:43:02Z</time>
      </trkpt>
      <trkpt lat="42.95646" lon="0.0164">
        <ele>1512.4</ele>
        <time>2024-08-15T08:43:03Z</time>
      </trkpt>
      <trkpt lat="42.95646" lon="0.01635">
        <ele>1512.2</ele>
        <time>2024-08-15T08:43:04Z</time>
      </trkpt>
      <trkpt lat="42.95644" lon="0.01628">
        <ele>1512</ele>
        <time>2024-08-15T08:43:05Z</time>
      </trkpt>
      <trkpt lat="42.95644" lon="0.01628">
        <ele>1511.4</ele>
        <time>2024-08-15T08:43:06Z</time>
      </trkpt>
      <trkpt lat="42.95643" lon="0.01621">
        <ele>1510.8</ele>
        <time>2024-08-15T08:43:07Z</time>
      </trkpt>
      <trkpt lat="42.95641" lon="0.01611">
        <ele>1510.6</ele>
        <time>2024-08-15T08:43:08Z</time>
      </trkpt>
      <trkpt lat="42.95639" lon="0.01607">
        <ele>1510</ele>
        <time>2024-08-15T08:43:09Z</time>
      </trkpt>
      <trkpt lat="42.95638" lon="0.01603">
        <ele>1509.6</ele>
        <time>2024-08-15T08:43:10Z</time>
      </trkpt>
      <trkpt lat="42.95638" lon="0.01603">
        <ele>1508.6</ele>
        <time>2024-08-15T08:43:11Z</time>
      </trkpt>
      <trkpt lat="42.9564" lon="0.01595">
        <ele>1508</ele>
        <time>2024-08-15T08:43:12Z</time>
      </trkpt>
      <trkpt lat="42.95641" lon="0.01592">
        <ele>1507.4</ele>
        <time>2024-08-15T08:43:13Z</time>
      </trkpt>
      <trkpt lat="42.95643" lon="0.01589">
        <ele>1506.6</ele>
        <time>2024-08-15T08:43:14Z</time>
      </trkpt>
      <trkpt lat="42.95644" lon="0.01586">
        <ele>1506.4</ele>
        <time>2024-08-15T08:43:15Z</time>
      </trkpt>
      <trkpt lat="42.95644" lon="0.01586">
        <ele>1505.4</ele>
        <time>2024-08-15T08:43:16Z</time>
      </trkpt>
      <trkpt lat="42.95646" lon="0.01584">
        <ele>1505</ele>
        <time>2024-08-15T08:43:17Z</time>
      </trkpt>
      <trkpt lat="42.95647" lon="0.01581">
        <ele>1504.6</ele>
        <time>2024-08-15T08:43:18Z</time>
      </trkpt>
      <trkpt lat="42.95647" lon="0.0158">
        <ele>1504.4</ele>
        <time>2024-08-15T08:43:19Z</time>
      </trkpt>
      <trkpt lat="42.95648" lon="0.01579">
        <ele>1503.8</ele>
        <time>2024-08-15T08:43:20Z</time>
      </trkpt>
      <trkpt lat="42.95648" lon="0.01579">
        <ele>1503.4</ele>
        <time>2024-08-15T08:43:21Z</time>
      </trkpt>
      <trkpt lat="42.95649" lon="0.01578">
        <ele>1503.2</ele>
        <time>2024-08-15T08:43:22Z</time>
      </trkpt>
      <trkpt lat="42.9565" lon="0.01578">
        <ele>1503</ele>
        <time>2024-08-15T08:43:23Z</time>
      </trkpt>
      <trkpt lat="42.9565" lon="0.01577">
        <ele>1502.6</ele>
        <time>2024-08-15T08:43:24Z</time>
      </trkpt>
      <trkpt lat="42.95652" lon="0.01573">
        <ele>1502.4</ele>
        <time>2024-08-15T08:43:25Z</time>
      </trkpt>
      <trkpt lat="42.95652" lon="0.01573">
        <ele>1502.2</ele>
        <time>2024-08-15T08:43:26Z</time>
      </trkpt>
      <trkpt lat="42.95654" lon="0.01571">
        <ele>1502.2</ele>
        <time>2024-08-15T08:43:27Z</time>
      </trkpt>
      <trkpt lat="42.95655" lon="0.0157">
        <ele>1502</ele>
        <time>2024-08-15T08:43:28Z</time>
      </trkpt>
      <trkpt lat="42.95655" lon="0.01568">
        <ele>1501.8</ele>
        <time>2024-08-15T08:43:29Z</time>
      </trkpt>
      <trkpt lat="42.95657" lon="0.01566">
        <ele>1501.6</ele>
        <time>2024-08-15T08:43:30Z</time>
      </trkpt>
      <trkpt lat="42.95658" lon="0.01562">
        <ele>1501.6</ele>
        <time>2024-08-15T08:43:31Z</time>
      </trkpt>
      <trkpt lat="42.95659" lon="0.01559">
        <ele>1501.4</ele>
        <time>2024-08-15T08:43:32Z</time>
      </trkpt>
      <trkpt lat="42.9566" lon="0.01556">
        <ele>1501.2</ele>
        <time>2024-08-15T08:43:33Z</time>
      </trkpt>
      <trkpt lat="42.9566" lon="0.01556">
        <ele>1501</ele>
        <time>2024-08-15T08:43:34Z</time>
      </trkpt>
      <trkpt lat="42.95661" lon="0.01553">
        <ele>1501</ele>
        <time>2024-08-15T08:43:35Z</time>
      </trkpt>
      <trkpt lat="42.95663" lon="0.01546">
        <ele>1501</ele>
        <time>2024-08-15T08:43:36Z</time>
      </trkpt>
      <trkpt lat="42.95664" lon="0.01543">
        <ele>1500.8</ele>
        <time>2024-08-15T08:43:37Z</time>
      </trkpt>
      <trkpt lat="42.95665" lon="0.01541">
        <ele>1500.6</ele>
        <time>2024-08-15T08:43:38Z</time>
      </trkpt>
      <trkpt lat="42.95665" lon="0.01541">
        <ele>1500.6</ele>
        <time>2024-08-15T08:43:39Z</time>
      </trkpt>
      <trkpt lat="42.95669" lon="0.01536">
        <ele>1500.6</ele>
        <time>2024-08-15T08:43:40Z</time>
      </trkpt>
      <trkpt lat="42.95672" lon="0.01533">
        <ele>1500.4</ele>
        <time>2024-08-15T08:43:41Z</time>
      </trkpt>
      <trkpt lat="42.95673" lon="0.01532">
        <ele>1500.4</ele>
        <time>2024-08-15T08:43:42Z</time>
      </trkpt>
      <trkpt lat="42.95675" lon="0.0153">
        <ele>1500.4</ele>
        <time>2024-08-15T08:43:43Z</time>
      </trkpt>
      <trkpt lat="42.95675" lon="0.01529">
        <ele>1500.2</ele>
        <time>2024-08-15T08:43:44Z</time>
      </trkpt>
      <trkpt lat="42.95676" lon="0.01525">
        <ele>1498.4</ele>
        <time>2024-08-15T08:43:52Z</time>
      </trkpt>
      <trkpt lat="42.95677" lon="0.01523">
        <ele>1498.4</ele>
        <time>2024-08-15T08:43:53Z</time>
      </trkpt>
      <trkpt lat="42.95684" lon="0.01512">
        <ele>1497.8</ele>
        <time>2024-08-15T08:43:57Z</time>
      </trkpt>
      <trkpt lat="42.95686" lon="0.01508">
        <ele>1497.4</ele>
        <time>2024-08-15T08:44:00Z</time>
      </trkpt>
      <trkpt lat="42.95696" lon="0.01483">
        <ele>1497.2</ele>
        <time>2024-08-15T08:44:03Z</time>
      </trkpt>
      <trkpt lat="42.95699" lon="0.01475">
        <ele>1497</ele>
        <time>2024-08-15T08:44:05Z</time>
      </trkpt>
      <trkpt lat="42.95705" lon="0.01452">
        <ele>1496.6</ele>
        <time>2024-08-15T08:44:07Z</time>
      </trkpt>
      <trkpt lat="42.95705" lon="0.01447">
        <ele>1496.4</ele>
        <time>2024-08-15T08:44:08Z</time>
      </trkpt>
      <trkpt lat="42.95705" lon="0.01443">
        <ele>1496</ele>
        <time>2024-08-15T08:44:09Z</time>
      </trkpt>
      <trkpt lat="42.95705" lon="0.01443">
        <ele>1496</ele>
        <time>2024-08-15T08:44:10Z</time>
      </trkpt>
      <trkpt lat="42.95707" lon="0.0143">
        <ele>1495.6</ele>
        <time>2024-08-15T08:44:11Z</time>
      </trkpt>
      <trkpt lat="42.9571" lon="0.01419">
        <ele>1495.4</ele>
        <time>2024-08-15T08:44:13Z</time>
      </trkpt>
      <trkpt lat="42.95712" lon="0.01414">
        <ele>1495.2</ele>
        <time>2024-08-15T08:44:14Z</time>
      </trkpt>
      <trkpt lat="42.95712" lon="0.01414">
        <ele>1495</ele>
        <time>2024-08-15T08:44:15Z</time>
      </trkpt>
      <trkpt lat="42.95714" lon="0.01404">
        <ele>1494.8</ele>
        <time>2024-08-15T08:44:16Z</time>
      </trkpt>
      <trkpt lat="42.95716" lon="0.014">
        <ele>1494.8</ele>
        <time>2024-08-15T08:44:17Z</time>
      </trkpt>
      <trkpt lat="42.95717" lon="0.01396">
        <ele>1494.6</ele>
        <time>2024-08-15T08:44:18Z</time>
      </trkpt>
      <trkpt lat="42.95717" lon="0.01396">
        <ele>1494.6</ele>
        <time>2024-08-15T08:44:19Z</time>
      </trkpt>
      <trkpt lat="42.95718" lon="0.01391">
        <ele>1494.6</ele>
        <time>2024-08-15T08:44:20Z</time>
      </trkpt>
      <trkpt lat="42.95718" lon="0.01383">
        <ele>1494.6</ele>
        <time>2024-08-15T08:44:21Z</time>
      </trkpt>
      <trkpt lat="42.95717" lon="0.01374">
        <ele>1494.4</ele>
        <time>2024-08-15T08:44:23Z</time>
      </trkpt>
      <trkpt lat="42.95728" lon="0.01336">
        <ele>1494</ele>
        <time>2024-08-15T08:44:31Z</time>
      </trkpt>
      <trkpt lat="42.9573" lon="0.01332">
        <ele>1494</ele>
        <time>2024-08-15T08:44:32Z</time>
      </trkpt>
      <trkpt lat="42.95732" lon="0.01328">
        <ele>1494</ele>
        <time>2024-08-15T08:44:33Z</time>
      </trkpt>
      <trkpt lat="42.95733" lon="0.01326">
        <ele>1493.8</ele>
        <time>2024-08-15T08:44:34Z</time>
      </trkpt>
      <trkpt lat="42.95733" lon="0.01326">
        <ele>1493.8</ele>
        <time>2024-08-15T08:44:35Z</time>
      </trkpt>
      <trkpt lat="42.95735" lon="0.01322">
        <ele>1493.8</ele>
        <time>2024-08-15T08:44:36Z</time>
      </trkpt>
      <trkpt lat="42.95736" lon="0.0132">
        <ele>1493.6</ele>
        <time>2024-08-15T08:44:37Z</time>
      </trkpt>
      <trkpt lat="42.95737" lon="0.01317">
        <ele>1493.4</ele>
        <time>2024-08-15T08:44:38Z</time>
      </trkpt>
      <trkpt lat="42.95738" lon="0.01315">
        <ele>1493</ele>
        <time>2024-08-15T08:44:40Z</time>
      </trkpt>
      <trkpt lat="42.95741" lon="0.01308">
        <ele>1492.6</ele>
        <time>2024-08-15T08:44:42Z</time>
      </trkpt>
      <trkpt lat="42.95743" lon="0.01305">
        <ele>1492.4</ele>
        <time>2024-08-15T08:44:44Z</time>
      </trkpt>
      <trkpt lat="42.95745" lon="0.01303">
        <ele>1492.2</ele>
        <time>2024-08-15T08:44:45Z</time>
      </trkpt>
      <trkpt lat="42.95747" lon="0.013">
        <ele>1492.2</ele>
        <time>2024-08-15T08:44:46Z</time>
      </trkpt>
      <trkpt lat="42.95748" lon="0.01296">
        <ele>1492</ele>
        <time>2024-08-15T08:44:47Z</time>
      </trkpt>
      <trkpt lat="42.95749" lon="0.01293">
        <ele>1491.8</ele>
        <time>2024-08-15T08:44:48Z</time>
      </trkpt>
      <trkpt lat="42.95751" lon="0.01289">
        <ele>1491.6</ele>
        <time>2024-08-15T08:44:49Z</time>
      </trkpt>
      <trkpt lat="42.95751" lon="0.01289">
        <ele>1491.2</ele>
        <time>2024-08-15T08:44:50Z</time>
      </trkpt>
      <trkpt lat="42.95755" lon="0.01279">
        <ele>1491</ele>
        <time>2024-08-15T08:44:51Z</time>
      </trkpt>
      <trkpt lat="42.95756" lon="0.01272">
        <ele>1490.8</ele>
        <time>2024-08-15T08:44:52Z</time>
      </trkpt>
      <trkpt lat="42.95757" lon="0.01269">
        <ele>1490.6</ele>
        <time>2024-08-15T08:44:53Z</time>
      </trkpt>
      <trkpt lat="42.95758" lon="0.01265">
        <ele>1490.4</ele>
        <time>2024-08-15T08:44:54Z</time>
      </trkpt>
      <trkpt lat="42.95758" lon="0.01261">
        <ele>1489.8</ele>
        <time>2024-08-15T08:44:55Z</time>
      </trkpt>
      <trkpt lat="42.95761" lon="0.0125">
        <ele>1489.4</ele>
        <time>2024-08-15T08:44:57Z</time>
      </trkpt>
      <trkpt lat="42.95765" lon="0.01239">
        <ele>1489.2</ele>
        <time>2024-08-15T08:44:59Z</time>
      </trkpt>
      <trkpt lat="42.95767" lon="0.01235">
        <ele>1489.2</ele>
        <time>2024-08-15T08:45:00Z</time>
      </trkpt>
      <trkpt lat="42.95768" lon="0.01232">
        <ele>1489</ele>
        <time>2024-08-15T08:45:01Z</time>
      </trkpt>
      <trkpt lat="42.9577" lon="0.01229">
        <ele>1488.8</ele>
        <time>2024-08-15T08:45:02Z</time>
      </trkpt>
      <trkpt lat="42.95772" lon="0.0122">
        <ele>1487.2</ele>
        <time>2024-08-15T08:45:04Z</time>
      </trkpt>
      <trkpt lat="42.95772" lon="0.01215">
        <ele>1487.2</ele>
        <time>2024-08-15T08:45:05Z</time>
      </trkpt>
      <trkpt lat="42.95774" lon="0.0121">
        <ele>1486.8</ele>
        <time>2024-08-15T08:45:06Z</time>
      </trkpt>
      <trkpt lat="42.95775" lon="0.01208">
        <ele>1486.4</ele>
        <time>2024-08-15T08:45:07Z</time>
      </trkpt>
      <trkpt lat="42.95777" lon="0.01205">
        <ele>1485.8</ele>
        <time>2024-08-15T08:45:08Z</time>
      </trkpt>
      <trkpt lat="42.95778" lon="0.01201">
        <ele>1485.4</ele>
        <time>2024-08-15T08:45:09Z</time>
      </trkpt>
      <trkpt lat="42.9578" lon="0.01197">
        <ele>1484.4</ele>
        <time>2024-08-15T08:45:10Z</time>
      </trkpt>
      <trkpt lat="42.95788" lon="0.01188">
        <ele>1482.6</ele>
        <time>2024-08-15T08:45:13Z</time>
      </trkpt>
      <trkpt lat="42.95791" lon="0.01184">
        <ele>1482</ele>
        <time>2024-08-15T08:45:14Z</time>
      </trkpt>
      <trkpt lat="42.95794" lon="0.01178">
        <ele>1481</ele>
        <time>2024-08-15T08:45:15Z</time>
      </trkpt>
      <trkpt lat="42.95796" lon="0.01171">
        <ele>1480.2</ele>
        <time>2024-08-15T08:45:16Z</time>
      </trkpt>
      <trkpt lat="42.95797" lon="0.01168">
        <ele>1479.4</ele>
        <time>2024-08-15T08:45:17Z</time>
      </trkpt>
      <trkpt lat="42.95799" lon="0.01165">
        <ele>1478.4</ele>
        <time>2024-08-15T08:45:18Z</time>
      </trkpt>
      <trkpt lat="42.95799" lon="0.01165">
        <ele>1478</ele>
        <time>2024-08-15T08:45:19Z</time>
      </trkpt>
      <trkpt lat="42.95802" lon="0.0116">
        <ele>1476.8</ele>
        <time>2024-08-15T08:45:21Z</time>
      </trkpt>
      <trkpt lat="42.95805" lon="0.01154">
        <ele>1475.4</ele>
        <time>2024-08-15T08:45:23Z</time>
      </trkpt>
      <trkpt lat="42.95805" lon="0.01154">
        <ele>1474.6</ele>
        <time>2024-08-15T08:45:24Z</time>
      </trkpt>
      <trkpt lat="42.95805" lon="0.01154">
        <ele>1473.2</ele>
        <time>2024-08-15T08:45:27Z</time>
      </trkpt>
      <trkpt lat="42.95807" lon="0.01153">
        <ele>1473</ele>
        <time>2024-08-15T08:45:30Z</time>
      </trkpt>
      <trkpt lat="42.95811" lon="0.01148">
        <ele>1473</ele>
        <time>2024-08-15T08:45:32Z</time>
      </trkpt>
      <trkpt lat="42.95812" lon="0.01145">
        <ele>1473.6</ele>
        <time>2024-08-15T08:45:36Z</time>
      </trkpt>
      <trkpt lat="42.95813" lon="0.01142">
        <ele>1474</ele>
        <time>2024-08-15T08:45:39Z</time>
      </trkpt>
      <trkpt lat="42.95816" lon="0.01138">
        <ele>1474</ele>
        <time>2024-08-15T08:45:40Z</time>
      </trkpt>
      <trkpt lat="42.95816" lon="0.01135">
        <ele>1474.4</ele>
        <time>2024-08-15T08:45:41Z</time>
      </trkpt>
      <trkpt lat="42.95815" lon="0.01132">
        <ele>1474.4</ele>
        <time>2024-08-15T08:45:42Z</time>
      </trkpt>
      <trkpt lat="42.95815" lon="0.01128">
        <ele>1474.6</ele>
        <time>2024-08-15T08:45:43Z</time>
      </trkpt>
      <trkpt lat="42.95815" lon="0.01124">
        <ele>1474.6</ele>
        <time>2024-08-15T08:45:44Z</time>
      </trkpt>
      <trkpt lat="42.95816" lon="0.0112">
        <ele>1474.8</ele>
        <time>2024-08-15T08:45:45Z</time>
      </trkpt>
      <trkpt lat="42.95816" lon="0.01116">
        <ele>1474.8</ele>
        <time>2024-08-15T08:45:46Z</time>
      </trkpt>
      <trkpt lat="42.95818" lon="0.01106">
        <ele>1474.8</ele>
        <time>2024-08-15T08:45:48Z</time>
      </trkpt>
      <trkpt lat="42.95822" lon="0.01091">
        <ele>1475.4</ele>
        <time>2024-08-15T08:45:51Z</time>
      </trkpt>
      <trkpt lat="42.95826" lon="0.01085">
        <ele>1475.6</ele>
        <time>2024-08-15T08:45:53Z</time>
      </trkpt>
      <trkpt lat="42.95827" lon="0.01082">
        <ele>1475.8</ele>
        <time>2024-08-15T08:45:54Z</time>
      </trkpt>
      <trkpt lat="42.95828" lon="0.01079">
        <ele>1475.8</ele>
        <time>2024-08-15T08:45:55Z</time>
      </trkpt>
      <trkpt lat="42.95829" lon="0.01076">
        <ele>1476.2</ele>
        <time>2024-08-15T08:45:56Z</time>
      </trkpt>
      <trkpt lat="42.95831" lon="0.01067">
        <ele>1476.8</ele>
        <time>2024-08-15T08:45:59Z</time>
      </trkpt>
      <trkpt lat="42.95834" lon="0.01055">
        <ele>1477</ele>
        <time>2024-08-15T08:46:01Z</time>
      </trkpt>
      <trkpt lat="42.95835" lon="0.01051">
        <ele>1477</ele>
        <time>2024-08-15T08:46:02Z</time>
      </trkpt>
      <trkpt lat="42.95838" lon="0.01044">
        <ele>1477.2</ele>
        <time>2024-08-15T08:46:04Z</time>
      </trkpt>
      <trkpt lat="42.95838" lon="0.0104">
        <ele>1477.2</ele>
        <time>2024-08-15T08:46:05Z</time>
      </trkpt>
      <trkpt lat="42.95841" lon="0.01036">
        <ele>1477</ele>
        <time>2024-08-15T08:46:06Z</time>
      </trkpt>
      <trkpt lat="42.95843" lon="0.01031">
        <ele>1477</ele>
        <time>2024-08-15T08:46:07Z</time>
      </trkpt>
      <trkpt lat="42.95843" lon="0.01031">
        <ele>1477</ele>
        <time>2024-08-15T08:46:08Z</time>
      </trkpt>
      <trkpt lat="42.95846" lon="0.01021">
        <ele>1476.8</ele>
        <time>2024-08-15T08:46:09Z</time>
      </trkpt>
      <trkpt lat="42.95847" lon="0.01015">
        <ele>1476.8</ele>
        <time>2024-08-15T08:46:10Z</time>
      </trkpt>
      <trkpt lat="42.95847" lon="0.01009">
        <ele>1476.6</ele>
        <time>2024-08-15T08:46:11Z</time>
      </trkpt>
      <trkpt lat="42.9585" lon="0.01">
        <ele>1476.6</ele>
        <time>2024-08-15T08:46:12Z</time>
      </trkpt>
      <trkpt lat="42.9585" lon="0.01">
        <ele>1476.4</ele>
        <time>2024-08-15T08:46:13Z</time>
      </trkpt>
      <trkpt lat="42.95853" lon="0.00989">
        <ele>1476.4</ele>
        <time>2024-08-15T08:46:14Z</time>
      </trkpt>
      <trkpt lat="42.95854" lon="0.00984">
        <ele>1476.4</ele>
        <time>2024-08-15T08:46:15Z</time>
      </trkpt>
      <trkpt lat="42.95854" lon="0.00981">
        <ele>1476.4</ele>
        <time>2024-08-15T08:46:16Z</time>
      </trkpt>
      <trkpt lat="42.95855" lon="0.00977">
        <ele>1476.4</ele>
        <time>2024-08-15T08:46:17Z</time>
      </trkpt>
      <trkpt lat="42.95856" lon="0.00974">
        <ele>1476.4</ele>
        <time>2024-08-15T08:46:18Z</time>
      </trkpt>
      <trkpt lat="42.95859" lon="0.00964">
        <ele>1476.8</ele>
        <time>2024-08-15T08:46:20Z</time>
      </trkpt>
      <trkpt lat="42.95862" lon="0.00954">
        <ele>1477.4</ele>
        <time>2024-08-15T08:46:22Z</time>
      </trkpt>
      <trkpt lat="42.95861" lon="0.00951">
        <ele>1477.6</ele>
        <time>2024-08-15T08:46:23Z</time>
      </trkpt>
      <trkpt lat="42.95865" lon="0.00943">
        <ele>1478.6</ele>
        <time>2024-08-15T08:46:26Z</time>
      </trkpt>
      <trkpt lat="42.95866" lon="0.00939">
        <ele>1478.8</ele>
        <time>2024-08-15T08:46:27Z</time>
      </trkpt>
      <trkpt lat="42.95864" lon="0.00934">
        <ele>1479</ele>
        <time>2024-08-15T08:46:28Z</time>
      </trkpt>
      <trkpt lat="42.95863" lon="0.00929">
        <ele>1479</ele>
        <time>2024-08-15T08:46:29Z</time>
      </trkpt>
      <trkpt lat="42.95862" lon="0.00921">
        <ele>1479</ele>
        <time>2024-08-15T08:46:30Z</time>
      </trkpt>
      <trkpt lat="42.95861" lon="0.00917">
        <ele>1479.2</ele>
        <time>2024-08-15T08:46:31Z</time>
      </trkpt>
      <trkpt lat="42.95861" lon="0.00914">
        <ele>1479.2</ele>
        <time>2024-08-15T08:46:32Z</time>
      </trkpt>
      <trkpt lat="42.95862" lon="0.00911">
        <ele>1479.2</ele>
        <time>2024-08-15T08:46:33Z</time>
      </trkpt>
      <trkpt lat="42.95862" lon="0.00909">
        <ele>1479.2</ele>
        <time>2024-08-15T08:46:34Z</time>
      </trkpt>
      <trkpt lat="42.95863" lon="0.00907">
        <ele>1479.2</ele>
        <time>2024-08-15T08:46:35Z</time>
      </trkpt>
      <trkpt lat="42.95863" lon="0.00904">
        <ele>1479.4</ele>
        <time>2024-08-15T08:46:36Z</time>
      </trkpt>
      <trkpt lat="42.95864" lon="0.00898">
        <ele>1479.4</ele>
        <time>2024-08-15T08:46:37Z</time>
      </trkpt>
      <trkpt lat="42.95864" lon="0.00894">
        <ele>1479.4</ele>
        <time>2024-08-15T08:46:38Z</time>
      </trkpt>
      <trkpt lat="42.95864" lon="0.0089">
        <ele>1479.4</ele>
        <time>2024-08-15T08:46:39Z</time>
      </trkpt>
      <trkpt lat="42.95864" lon="0.0089">
        <ele>1479.4</ele>
        <time>2024-08-15T08:46:40Z</time>
      </trkpt>
      <trkpt lat="42.95867" lon="0.00878">
        <ele>1479.2</ele>
        <time>2024-08-15T08:46:41Z</time>
      </trkpt>
      <trkpt lat="42.95868" lon="0.00872">
        <ele>1479.2</ele>
        <time>2024-08-15T08:46:42Z</time>
      </trkpt>
      <trkpt lat="42.95869" lon="0.00867">
        <ele>1479.2</ele>
        <time>2024-08-15T08:46:43Z</time>
      </trkpt>
      <trkpt lat="42.95868" lon="0.00861">
        <ele>1479</ele>
        <time>2024-08-15T08:46:44Z</time>
      </trkpt>
      <trkpt lat="42.95868" lon="0.00849">
        <ele>1478.2</ele>
        <time>2024-08-15T08:46:46Z</time>
      </trkpt>
      <trkpt lat="42.95868" lon="0.00849">
        <ele>1477.6</ele>
        <time>2024-08-15T08:46:47Z</time>
      </trkpt>
      <trkpt lat="42.95868" lon="0.00835">
        <ele>1477.2</ele>
        <time>2024-08-15T08:46:48Z</time>
      </trkpt>
      <trkpt lat="42.95868" lon="0.00829">
        <ele>1476.4</ele>
        <time>2024-08-15T08:46:49Z</time>
      </trkpt>
      <trkpt lat="42.9587" lon="0.00825">
        <ele>1475.4</ele>
        <time>2024-08-15T08:46:50Z</time>
      </trkpt>
      <trkpt lat="42.95871" lon="0.00821">
        <ele>1474.6</ele>
        <time>2024-08-15T08:46:51Z</time>
      </trkpt>
      <trkpt lat="42.95871" lon="0.00821">
        <ele>1473.4</ele>
        <time>2024-08-15T08:46:52Z</time>
      </trkpt>
      <trkpt lat="42.95869" lon="0.00815">
        <ele>1473.2</ele>
        <time>2024-08-15T08:46:53Z</time>
      </trkpt>
      <trkpt lat="42.95868" lon="0.0081">
        <ele>1472.8</ele>
        <time>2024-08-15T08:46:54Z</time>
      </trkpt>
      <trkpt lat="42.95866" lon="0.00807">
        <ele>1472.6</ele>
        <time>2024-08-15T08:46:55Z</time>
      </trkpt>
      <trkpt lat="42.95866" lon="0.00803">
        <ele>1472</ele>
        <time>2024-08-15T08:46:56Z</time>
      </trkpt>
      <trkpt lat="42.95867" lon="0.00796">
        <ele>1471</ele>
        <time>2024-08-15T08:46:58Z</time>
      </trkpt>
      <trkpt lat="42.95868" lon="0.00794">
        <ele>1470.6</ele>
        <time>2024-08-15T08:46:59Z</time>
      </trkpt>
      <trkpt lat="42.95869" lon="0.00794">
        <ele>1470.4</ele>
        <time>2024-08-15T08:47:00Z</time>
      </trkpt>
      <trkpt lat="42.9587" lon="0.00794">
        <ele>1469.6</ele>
        <time>2024-08-15T08:47:01Z</time>
      </trkpt>
      <trkpt lat="42.9587" lon="0.00794">
        <ele>1469.4</ele>
        <time>2024-08-15T08:47:02Z</time>
      </trkpt>
      <trkpt lat="42.95871" lon="0.00795">
        <ele>1468.8</ele>
        <time>2024-08-15T08:47:03Z</time>
      </trkpt>
      <trkpt lat="42.95871" lon="0.00795">
        <ele>1468.6</ele>
        <time>2024-08-15T08:47:04Z</time>
      </trkpt>
      <trkpt lat="42.95874" lon="0.00791">
        <ele>1468.2</ele>
        <time>2024-08-15T08:47:05Z</time>
      </trkpt>
      <trkpt lat="42.95877" lon="0.0079">
        <ele>1467.4</ele>
        <time>2024-08-15T08:47:06Z</time>
      </trkpt>
      <trkpt lat="42.95879" lon="0.0079">
        <ele>1467.2</ele>
        <time>2024-08-15T08:47:07Z</time>
      </trkpt>
      <trkpt lat="42.9588" lon="0.00789">
        <ele>1466.4</ele>
        <time>2024-08-15T08:47:08Z</time>
      </trkpt>
      <trkpt lat="42.95881" lon="0.00787">
        <ele>1466</ele>
        <time>2024-08-15T08:47:09Z</time>
      </trkpt>
      <trkpt lat="42.95882" lon="0.00785">
        <ele>1465.6</ele>
        <time>2024-08-15T08:47:10Z</time>
      </trkpt>
      <trkpt lat="42.95882" lon="0.00783">
        <ele>1465.4</ele>
        <time>2024-08-15T08:47:11Z</time>
      </trkpt>
      <trkpt lat="42.95882" lon="0.00779">
        <ele>1464.6</ele>
        <time>2024-08-15T08:47:12Z</time>
      </trkpt>
      <trkpt lat="42.95882" lon="0.00775">
        <ele>1464</ele>
        <time>2024-08-15T08:47:13Z</time>
      </trkpt>
      <trkpt lat="42.95882" lon="0.00772">
        <ele>1463.6</ele>
        <time>2024-08-15T08:47:14Z</time>
      </trkpt>
      <trkpt lat="42.95883" lon="0.00769">
        <ele>1462.8</ele>
        <time>2024-08-15T08:47:15Z</time>
      </trkpt>
      <trkpt lat="42.95884" lon="0.00765">
        <ele>1462.6</ele>
        <time>2024-08-15T08:47:16Z</time>
      </trkpt>
      <trkpt lat="42.95884" lon="0.00762">
        <ele>1461.8</ele>
        <time>2024-08-15T08:47:17Z</time>
      </trkpt>
      <trkpt lat="42.95886" lon="0.00757">
        <ele>1461.6</ele>
        <time>2024-08-15T08:47:18Z</time>
      </trkpt>
      <trkpt lat="42.95887" lon="0.00751">
        <ele>1460.6</ele>
        <time>2024-08-15T08:47:19Z</time>
      </trkpt>
      <trkpt lat="42.9589" lon="0.00746">
        <ele>1460</ele>
        <time>2024-08-15T08:47:20Z</time>
      </trkpt>
      <trkpt lat="42.95891" lon="0.00742">
        <ele>1459.8</ele>
        <time>2024-08-15T08:47:21Z</time>
      </trkpt>
      <trkpt lat="42.9589" lon="0.00738">
        <ele>1459.4</ele>
        <time>2024-08-15T08:47:22Z</time>
      </trkpt>
      <trkpt lat="42.95891" lon="0.00733">
        <ele>1459.2</ele>
        <time>2024-08-15T08:47:23Z</time>
      </trkpt>
      <trkpt lat="42.95892" lon="0.00728">
        <ele>1459</ele>
        <time>2024-08-15T08:47:24Z</time>
      </trkpt>
      <trkpt lat="42.95892" lon="0.00723">
        <ele>1459</ele>
        <time>2024-08-15T08:47:25Z</time>
      </trkpt>
      <trkpt lat="42.95894" lon="0.0071">
        <ele>1458.8</ele>
        <time>2024-08-15T08:47:27Z</time>
      </trkpt>
      <trkpt lat="42.95896" lon="0.00703">
        <ele>1458.8</ele>
        <time>2024-08-15T08:47:28Z</time>
      </trkpt>
      <trkpt lat="42.95895" lon="0.00699">
        <ele>1459</ele>
        <time>2024-08-15T08:47:29Z</time>
      </trkpt>
      <trkpt lat="42.95895" lon="0.00693">
        <ele>1459</ele>
        <time>2024-08-15T08:47:30Z</time>
      </trkpt>
      <trkpt lat="42.95897" lon="0.00676">
        <ele>1459.6</ele>
        <time>2024-08-15T08:47:33Z</time>
      </trkpt>
      <trkpt lat="42.95897" lon="0.00671">
        <ele>1459.8</ele>
        <time>2024-08-15T08:47:34Z</time>
      </trkpt>
      <trkpt lat="42.95897" lon="0.00668">
        <ele>1459.8</ele>
        <time>2024-08-15T08:47:36Z</time>
      </trkpt>
      <trkpt lat="42.95899" lon="0.00664">
        <ele>1458.4</ele>
        <time>2024-08-15T08:48:01Z</time>
      </trkpt>
      <trkpt lat="42.95899" lon="0.00662">
        <ele>1458.4</ele>
        <time>2024-08-15T08:48:02Z</time>
      </trkpt>
      <trkpt lat="42.959" lon="0.00636">
        <ele>1458.2</ele>
        <time>2024-08-15T08:48:08Z</time>
      </trkpt>
      <trkpt lat="42.959" lon="0.0063">
        <ele>1458</ele>
        <time>2024-08-15T08:48:10Z</time>
      </trkpt>
      <trkpt lat="42.959" lon="0.0063">
        <ele>1457.8</ele>
        <time>2024-08-15T08:48:13Z</time>
      </trkpt>
      <trkpt lat="42.959" lon="0.0063">
        <ele>1457.8</ele>
        <time>2024-08-15T08:48:15Z</time>
      </trkpt>
      <trkpt lat="42.959" lon="0.0063">
        <ele>1457.6</ele>
        <time>2024-08-15T08:48:16Z</time>
      </trkpt>
      <trkpt lat="42.959" lon="0.00623">
        <ele>1457.6</ele>
        <time>2024-08-15T08:48:19Z</time>
      </trkpt>
      <trkpt lat="42.959" lon="0.00622">
        <ele>1457.6</ele>
        <time>2024-08-15T08:48:22Z</time>
      </trkpt>
      <trkpt lat="42.959" lon="0.00622">
        <ele>1457.6</ele>
        <time>2024-08-15T08:48:23Z</time>
      </trkpt>
      <trkpt lat="42.959" lon="0.00622">
        <ele>1457.6</ele>
        <time>2024-08-15T08:48:25Z</time>
      </trkpt>
      <trkpt lat="42.959" lon="0.00622">
        <ele>1458.2</ele>
        <time>2024-08-15T08:48:29Z</time>
      </trkpt>
      <trkpt lat="42.959" lon="0.00622">
        <ele>1458.2</ele>
        <time>2024-08-15T08:48:32Z</time>
      </trkpt>
      <trkpt lat="42.959" lon="0.00622">
        <ele>1458.2</ele>
        <time>2024-08-15T08:48:34Z</time>
      </trkpt>
      <trkpt lat="42.95901" lon="0.00617">
        <ele>1458.2</ele>
        <time>2024-08-15T08:48:36Z</time>
      </trkpt>
      <trkpt lat="42.95901" lon="0.00613">
        <ele>1458.2</ele>
        <time>2024-08-15T08:48:37Z</time>
      </trkpt>
      <trkpt lat="42.95903" lon="0.00593">
        <ele>1457</ele>
        <time>2024-08-15T08:48:41Z</time>
      </trkpt>
      <trkpt lat="42.95903" lon="0.00589">
        <ele>1456.8</ele>
        <time>2024-08-15T08:48:42Z</time>
      </trkpt>
      <trkpt lat="42.95904" lon="0.00586">
        <ele>1456.6</ele>
        <time>2024-08-15T08:48:43Z</time>
      </trkpt>
      <trkpt lat="42.95904" lon="0.00582">
        <ele>1456.4</ele>
        <time>2024-08-15T08:48:44Z</time>
      </trkpt>
      <trkpt lat="42.95905" lon="0.00577">
        <ele>1456</ele>
        <time>2024-08-15T08:48:45Z</time>
      </trkpt>
      <trkpt lat="42.95906" lon="0.00569">
        <ele>1456</ele>
        <time>2024-08-15T08:48:46Z</time>
      </trkpt>
      <trkpt lat="42.95907" lon="0.00568">
        <ele>1455.8</ele>
        <time>2024-08-15T08:48:47Z</time>
      </trkpt>
      <trkpt lat="42.95907" lon="0.00568">
        <ele>1455.8</ele>
        <time>2024-08-15T08:48:48Z</time>
      </trkpt>
      <trkpt lat="42.95907" lon="0.00568">
        <ele>1455.8</ele>
        <time>2024-08-15T08:48:49Z</time>
      </trkpt>
      <trkpt lat="42.95907" lon="0.00566">
        <ele>1455.8</ele>
        <time>2024-08-15T08:48:50Z</time>
      </trkpt>
      <trkpt lat="42.95907" lon="0.00564">
        <ele>1455.4</ele>
        <time>2024-08-15T08:48:51Z</time>
      </trkpt>
      <trkpt lat="42.95908" lon="0.0056">
        <ele>1455.6</ele>
        <time>2024-08-15T08:48:52Z</time>
      </trkpt>
      <trkpt lat="42.95907" lon="0.0056">
        <ele>1455.4</ele>
        <time>2024-08-15T08:48:53Z</time>
      </trkpt>
      <trkpt lat="42.95907" lon="0.00551">
        <ele>1455.2</ele>
        <time>2024-08-15T08:48:59Z</time>
      </trkpt>
      <trkpt lat="42.95907" lon="0.0055">
        <ele>1455.2</ele>
        <time>2024-08-15T08:49:00Z</time>
      </trkpt>
      <trkpt lat="42.95908" lon="0.00547">
        <ele>1455.2</ele>
        <time>2024-08-15T08:49:01Z</time>
      </trkpt>
      <trkpt lat="42.95907" lon="0.00544">
        <ele>1455.2</ele>
        <time>2024-08-15T08:49:02Z</time>
      </trkpt>
      <trkpt lat="42.95907" lon="0.00544">
        <ele>1455</ele>
        <time>2024-08-15T08:49:03Z</time>
      </trkpt>
      <trkpt lat="42.95907" lon="0.00544">
        <ele>1455</ele>
        <time>2024-08-15T08:49:04Z</time>
      </trkpt>
      <trkpt lat="42.95907" lon="0.00543">
        <ele>1455</ele>
        <time>2024-08-15T08:49:05Z</time>
      </trkpt>
      <trkpt lat="42.95907" lon="0.00541">
        <ele>1455</ele>
        <time>2024-08-15T08:49:06Z</time>
      </trkpt>
      <trkpt lat="42.95906" lon="0.00537">
        <ele>1455</ele>
        <time>2024-08-15T08:49:07Z</time>
      </trkpt>
      <trkpt lat="42.95903" lon="0.00533">
        <ele>1455</ele>
        <time>2024-08-15T08:49:08Z</time>
      </trkpt>
      <trkpt lat="42.95902" lon="0.00519">
        <ele>1454.8</ele>
        <time>2024-08-15T08:49:10Z</time>
      </trkpt>
      <trkpt lat="42.95901" lon="0.00512">
        <ele>1454.8</ele>
        <time>2024-08-15T08:49:11Z</time>
      </trkpt>
      <trkpt lat="42.95901" lon="0.005">
        <ele>1454.6</ele>
        <time>2024-08-15T08:49:13Z</time>
      </trkpt>
      <trkpt lat="42.95903" lon="0.00493">
        <ele>1454.2</ele>
        <time>2024-08-15T08:49:14Z</time>
      </trkpt>
      <trkpt lat="42.95905" lon="0.00487">
        <ele>1453.6</ele>
        <time>2024-08-15T08:49:15Z</time>
      </trkpt>
      <trkpt lat="42.95905" lon="0.00483">
        <ele>1453.2</ele>
        <time>2024-08-15T08:49:16Z</time>
      </trkpt>
      <trkpt lat="42.95906" lon="0.00479">
        <ele>1452.4</ele>
        <time>2024-08-15T08:49:17Z</time>
      </trkpt>
      <trkpt lat="42.95907" lon="0.00473">
        <ele>1452.2</ele>
        <time>2024-08-15T08:49:18Z</time>
      </trkpt>
      <trkpt lat="42.95907" lon="0.00467">
        <ele>1451.4</ele>
        <time>2024-08-15T08:49:19Z</time>
      </trkpt>
      <trkpt lat="42.95909" lon="0.0046">
        <ele>1450.8</ele>
        <time>2024-08-15T08:49:20Z</time>
      </trkpt>
      <trkpt lat="42.95909" lon="0.00454">
        <ele>1450.4</ele>
        <time>2024-08-15T08:49:21Z</time>
      </trkpt>
      <trkpt lat="42.95907" lon="0.00446">
        <ele>1449.6</ele>
        <time>2024-08-15T08:49:22Z</time>
      </trkpt>
      <trkpt lat="42.95907" lon="0.00444">
        <ele>1449.2</ele>
        <time>2024-08-15T08:49:23Z</time>
      </trkpt>
      <trkpt lat="42.95907" lon="0.00442">
        <ele>1448.8</ele>
        <time>2024-08-15T08:49:24Z</time>
      </trkpt>
      <trkpt lat="42.95908" lon="0.00437">
        <ele>1448.6</ele>
        <time>2024-08-15T08:49:25Z</time>
      </trkpt>
      <trkpt lat="42.95908" lon="0.00435">
        <ele>1447.8</ele>
        <time>2024-08-15T08:49:26Z</time>
      </trkpt>
      <trkpt lat="42.95909" lon="0.00431">
        <ele>1447.6</ele>
        <time>2024-08-15T08:49:27Z</time>
      </trkpt>
      <trkpt lat="42.9591" lon="0.00426">
        <ele>1446.2</ele>
        <time>2024-08-15T08:49:29Z</time>
      </trkpt>
      <trkpt lat="42.9591" lon="0.00425">
        <ele>1446</ele>
        <time>2024-08-15T08:49:30Z</time>
      </trkpt>
      <trkpt lat="42.9591" lon="0.00425">
        <ele>1445.4</ele>
        <time>2024-08-15T08:49:31Z</time>
      </trkpt>
      <trkpt lat="42.9591" lon="0.00424">
        <ele>1445.2</ele>
        <time>2024-08-15T08:49:32Z</time>
      </trkpt>
      <trkpt lat="42.9591" lon="0.00424">
        <ele>1444.6</ele>
        <time>2024-08-15T08:49:33Z</time>
      </trkpt>
      <trkpt lat="42.9591" lon="0.00424">
        <ele>1444.2</ele>
        <time>2024-08-15T08:49:34Z</time>
      </trkpt>
      <trkpt lat="42.95909" lon="0.00421">
        <ele>1443.8</ele>
        <time>2024-08-15T08:49:35Z</time>
      </trkpt>
      <trkpt lat="42.95908" lon="0.00419">
        <ele>1443.4</ele>
        <time>2024-08-15T08:49:36Z</time>
      </trkpt>
      <trkpt lat="42.95907" lon="0.00417">
        <ele>1443</ele>
        <time>2024-08-15T08:49:37Z</time>
      </trkpt>
      <trkpt lat="42.95907" lon="0.00414">
        <ele>1442</ele>
        <time>2024-08-15T08:49:38Z</time>
      </trkpt>
      <trkpt lat="42.95908" lon="0.00413">
        <ele>1441.6</ele>
        <time>2024-08-15T08:49:39Z</time>
      </trkpt>
      <trkpt lat="42.95909" lon="0.00411">
        <ele>1441.2</ele>
        <time>2024-08-15T08:49:40Z</time>
      </trkpt>
      <trkpt lat="42.9591" lon="0.00409">
        <ele>1441</ele>
        <time>2024-08-15T08:49:41Z</time>
      </trkpt>
      <trkpt lat="42.9591" lon="0.00407">
        <ele>1440.2</ele>
        <time>2024-08-15T08:49:42Z</time>
      </trkpt>
      <trkpt lat="42.95912" lon="0.00402">
        <ele>1439.4</ele>
        <time>2024-08-15T08:49:44Z</time>
      </trkpt>
      <trkpt lat="42.95914" lon="0.00398">
        <ele>1439</ele>
        <time>2024-08-15T08:49:45Z</time>
      </trkpt>
      <trkpt lat="42.95917" lon="0.00391">
        <ele>1438.2</ele>
        <time>2024-08-15T08:49:47Z</time>
      </trkpt>
      <trkpt lat="42.95918" lon="0.00388">
        <ele>1437.8</ele>
        <time>2024-08-15T08:49:48Z</time>
      </trkpt>
      <trkpt lat="42.95918" lon="0.00385">
        <ele>1437.2</ele>
        <time>2024-08-15T08:49:49Z</time>
      </trkpt>
      <trkpt lat="42.95918" lon="0.00381">
        <ele>1436.6</ele>
        <time>2024-08-15T08:49:50Z</time>
      </trkpt>
      <trkpt lat="42.95918" lon="0.0038">
        <ele>1436.2</ele>
        <time>2024-08-15T08:49:51Z</time>
      </trkpt>
      <trkpt lat="42.95918" lon="0.00378">
        <ele>1435.4</ele>
        <time>2024-08-15T08:49:52Z</time>
      </trkpt>
      <trkpt lat="42.95916" lon="0.0037">
        <ele>1435</ele>
        <time>2024-08-15T08:49:53Z</time>
      </trkpt>
      <trkpt lat="42.95917" lon="0.00369">
        <ele>1434.4</ele>
        <time>2024-08-15T08:49:54Z</time>
      </trkpt>
      <trkpt lat="42.95917" lon="0.00368">
        <ele>1433.8</ele>
        <time>2024-08-15T08:49:55Z</time>
      </trkpt>
      <trkpt lat="42.95919" lon="0.00367">
        <ele>1432.8</ele>
        <time>2024-08-15T08:49:56Z</time>
      </trkpt>
      <trkpt lat="42.95921" lon="0.00364">
        <ele>1432.6</ele>
        <time>2024-08-15T08:49:57Z</time>
      </trkpt>
      <trkpt lat="42.95922" lon="0.00362">
        <ele>1432.4</ele>
        <time>2024-08-15T08:49:58Z</time>
      </trkpt>
      <trkpt lat="42.95923" lon="0.00358">
        <ele>1431.8</ele>
        <time>2024-08-15T08:50:00Z</time>
      </trkpt>
      <trkpt lat="42.95923" lon="0.00358">
        <ele>1431</ele>
        <time>2024-08-15T08:50:01Z</time>
      </trkpt>
      <trkpt lat="42.95923" lon="0.00356">
        <ele>1430.6</ele>
        <time>2024-08-15T08:50:02Z</time>
      </trkpt>
      <trkpt lat="42.95921" lon="0.00353">
        <ele>1429.8</ele>
        <time>2024-08-15T08:50:03Z</time>
      </trkpt>
      <trkpt lat="42.95921" lon="0.00353">
        <ele>1429.6</ele>
        <time>2024-08-15T08:50:04Z</time>
      </trkpt>
      <trkpt lat="42.9592" lon="0.00352">
        <ele>1429.4</ele>
        <time>2024-08-15T08:50:05Z</time>
      </trkpt>
      <trkpt lat="42.95923" lon="0.00339">
        <ele>1428.2</ele>
        <time>2024-08-15T08:50:07Z</time>
      </trkpt>
      <trkpt lat="42.95924" lon="0.00338">
        <ele>1427.8</ele>
        <time>2024-08-15T08:50:08Z</time>
      </trkpt>
      <trkpt lat="42.95922" lon="0.00333">
        <ele>1426.8</ele>
        <time>2024-08-15T08:50:10Z</time>
      </trkpt>
      <trkpt lat="42.95922" lon="0.00329">
        <ele>1426.4</ele>
        <time>2024-08-15T08:50:11Z</time>
      </trkpt>
      <trkpt lat="42.95923" lon="0.00323">
        <ele>1425.6</ele>
        <time>2024-08-15T08:50:13Z</time>
      </trkpt>
      <trkpt lat="42.95924" lon="0.0032">
        <ele>1425</ele>
        <time>2024-08-15T08:50:14Z</time>
      </trkpt>
      <trkpt lat="42.95923" lon="0.00318">
        <ele>1424.4</ele>
        <time>2024-08-15T08:50:15Z</time>
      </trkpt>
      <trkpt lat="42.95924" lon="0.00315">
        <ele>1424.2</ele>
        <time>2024-08-15T08:50:16Z</time>
      </trkpt>
      <trkpt lat="42.95925" lon="0.00312">
        <ele>1423.6</ele>
        <time>2024-08-15T08:50:17Z</time>
      </trkpt>
      <trkpt lat="42.95928" lon="0.00309">
        <ele>1423.2</ele>
        <time>2024-08-15T08:50:18Z</time>
      </trkpt>
      <trkpt lat="42.95932" lon="0.00302">
        <ele>1422.8</ele>
        <time>2024-08-15T08:50:19Z</time>
      </trkpt>
      <trkpt lat="42.95933" lon="0.00299">
        <ele>1422.2</ele>
        <time>2024-08-15T08:50:20Z</time>
      </trkpt>
      <trkpt lat="42.95933" lon="0.00297">
        <ele>1421.6</ele>
        <time>2024-08-15T08:50:21Z</time>
      </trkpt>
      <trkpt lat="42.95932" lon="0.00295">
        <ele>1421.2</ele>
        <time>2024-08-15T08:50:22Z</time>
      </trkpt>
      <trkpt lat="42.95933" lon="0.00294">
        <ele>1421</ele>
        <time>2024-08-15T08:50:23Z</time>
      </trkpt>
      <trkpt lat="42.95932" lon="0.00292">
        <ele>1420.2</ele>
        <time>2024-08-15T08:50:24Z</time>
      </trkpt>
      <trkpt lat="42.95932" lon="0.00289">
        <ele>1420</ele>
        <time>2024-08-15T08:50:25Z</time>
      </trkpt>
      <trkpt lat="42.95932" lon="0.00286">
        <ele>1419.4</ele>
        <time>2024-08-15T08:50:26Z</time>
      </trkpt>
      <trkpt lat="42.95932" lon="0.00281">
        <ele>1419.2</ele>
        <time>2024-08-15T08:50:27Z</time>
      </trkpt>
      <trkpt lat="42.95934" lon="0.00274">
        <ele>1418.8</ele>
        <time>2024-08-15T08:50:28Z</time>
      </trkpt>
      <trkpt lat="42.95934" lon="0.00273">
        <ele>1418.4</ele>
        <time>2024-08-15T08:50:29Z</time>
      </trkpt>
      <trkpt lat="42.95934" lon="0.00271">
        <ele>1418</ele>
        <time>2024-08-15T08:50:30Z</time>
      </trkpt>
      <trkpt lat="42.95936" lon="0.00268">
        <ele>1417.4</ele>
        <time>2024-08-15T08:50:31Z</time>
      </trkpt>
      <trkpt lat="42.95936" lon="0.00266">
        <ele>1417</ele>
        <time>2024-08-15T08:50:32Z</time>
      </trkpt>
      <trkpt lat="42.95937" lon="0.00265">
        <ele>1415.6</ele>
        <time>2024-08-15T08:50:33Z</time>
      </trkpt>
      <trkpt lat="42.95938" lon="0.00262">
        <ele>1415.4</ele>
        <time>2024-08-15T08:50:34Z</time>
      </trkpt>
      <trkpt lat="42.95938" lon="0.00254">
        <ele>1414.6</ele>
        <time>2024-08-15T08:50:36Z</time>
      </trkpt>
      <trkpt lat="42.95939" lon="0.00251">
        <ele>1414.4</ele>
        <time>2024-08-15T08:50:37Z</time>
      </trkpt>
      <trkpt lat="42.95939" lon="0.00251">
        <ele>1413.6</ele>
        <time>2024-08-15T08:50:38Z</time>
      </trkpt>
      <trkpt lat="42.95941" lon="0.00244">
        <ele>1413.2</ele>
        <time>2024-08-15T08:50:39Z</time>
      </trkpt>
      <trkpt lat="42.95941" lon="0.00242">
        <ele>1412.2</ele>
        <time>2024-08-15T08:50:40Z</time>
      </trkpt>
      <trkpt lat="42.9594" lon="0.0024">
        <ele>1411.4</ele>
        <time>2024-08-15T08:50:41Z</time>
      </trkpt>
      <trkpt lat="42.95941" lon="0.00237">
        <ele>1409.2</ele>
        <time>2024-08-15T08:50:44Z</time>
      </trkpt>
      <trkpt lat="42.9594" lon="0.00236">
        <ele>1408.8</ele>
        <time>2024-08-15T08:50:45Z</time>
      </trkpt>
      <trkpt lat="42.9594" lon="0.00236">
        <ele>1408.2</ele>
        <time>2024-08-15T08:50:48Z</time>
      </trkpt>
      <trkpt lat="42.9594" lon="0.00234">
        <ele>1408.2</ele>
        <time>2024-08-15T08:50:49Z</time>
      </trkpt>
      <trkpt lat="42.95941" lon="0.00229">
        <ele>1408</ele>
        <time>2024-08-15T08:50:51Z</time>
      </trkpt>
      <trkpt lat="42.95941" lon="0.00228">
        <ele>1407.6</ele>
        <time>2024-08-15T08:50:53Z</time>
      </trkpt>
      <trkpt lat="42.95941" lon="0.00228">
        <ele>1407.2</ele>
        <time>2024-08-15T08:50:54Z</time>
      </trkpt>
      <trkpt lat="42.95942" lon="0.0022">
        <ele>1404.6</ele>
        <time>2024-08-15T08:51:10Z</time>
      </trkpt>
      <trkpt lat="42.95942" lon="0.0022">
        <ele>1404.4</ele>
        <time>2024-08-15T08:51:11Z</time>
      </trkpt>
      <trkpt lat="42.95942" lon="0.0022">
        <ele>1403.2</ele>
        <time>2024-08-15T08:51:14Z</time>
      </trkpt>
      <trkpt lat="42.95942" lon="0.0022">
        <ele>1402</ele>
        <time>2024-08-15T08:51:17Z</time>
      </trkpt>
      <trkpt lat="42.95942" lon="0.0022">
        <ele>1401.6</ele>
        <time>2024-08-15T08:51:18Z</time>
      </trkpt>
      <trkpt lat="42.95942" lon="0.00219">
        <ele>1401.4</ele>
        <time>2024-08-15T08:51:19Z</time>
      </trkpt>
      <trkpt lat="42.95943" lon="0.00212">
        <ele>1401.2</ele>
        <time>2024-08-15T08:51:21Z</time>
      </trkpt>
      <trkpt lat="42.95945" lon="0.00203">
        <ele>1400.8</ele>
        <time>2024-08-15T08:51:23Z</time>
      </trkpt>
      <trkpt lat="42.95946" lon="0.00199">
        <ele>1400.4</ele>
        <time>2024-08-15T08:51:24Z</time>
      </trkpt>
      <trkpt lat="42.95947" lon="0.00179">
        <ele>1399.4</ele>
        <time>2024-08-15T08:51:27Z</time>
      </trkpt>
      <trkpt lat="42.95947" lon="0.00177">
        <ele>1399</ele>
        <time>2024-08-15T08:51:28Z</time>
      </trkpt>
      <trkpt lat="42.95948" lon="0.00175">
        <ele>1398.6</ele>
        <time>2024-08-15T08:51:29Z</time>
      </trkpt>
      <trkpt lat="42.95949" lon="0.00172">
        <ele>1397.8</ele>
        <time>2024-08-15T08:51:30Z</time>
      </trkpt>
      <trkpt lat="42.95949" lon="0.00172">
        <ele>1397.2</ele>
        <time>2024-08-15T08:51:31Z</time>
      </trkpt>
      <trkpt lat="42.95948" lon="0.00169">
        <ele>1397</ele>
        <time>2024-08-15T08:51:32Z</time>
      </trkpt>
      <trkpt lat="42.95948" lon="0.00165">
        <ele>1396.8</ele>
        <time>2024-08-15T08:51:33Z</time>
      </trkpt>
      <trkpt lat="42.95949" lon="0.00158">
        <ele>1396.6</ele>
        <time>2024-08-15T08:51:34Z</time>
      </trkpt>
      <trkpt lat="42.9595" lon="0.00155">
        <ele>1396</ele>
        <time>2024-08-15T08:51:35Z</time>
      </trkpt>
      <trkpt lat="42.95949" lon="0.00151">
        <ele>1395.6</ele>
        <time>2024-08-15T08:51:36Z</time>
      </trkpt>
      <trkpt lat="42.95949" lon="0.00148">
        <ele>1394.6</ele>
        <time>2024-08-15T08:51:38Z</time>
      </trkpt>
      <trkpt lat="42.95949" lon="0.00148">
        <ele>1394.4</ele>
        <time>2024-08-15T08:51:39Z</time>
      </trkpt>
      <trkpt lat="42.9595" lon="0.00145">
        <ele>1393.6</ele>
        <time>2024-08-15T08:51:41Z</time>
      </trkpt>
      <trkpt lat="42.9595" lon="0.00145">
        <ele>1393</ele>
        <time>2024-08-15T08:51:42Z</time>
      </trkpt>
      <trkpt lat="42.9595" lon="0.0014">
        <ele>1390.4</ele>
        <time>2024-08-15T08:51:47Z</time>
      </trkpt>
      <trkpt lat="42.9595" lon="0.00135">
        <ele>1390</ele>
        <time>2024-08-15T08:51:48Z</time>
      </trkpt>
      <trkpt lat="42.95949" lon="0.00128">
        <ele>1389.2</ele>
        <time>2024-08-15T08:51:51Z</time>
      </trkpt>
      <trkpt lat="42.95949" lon="0.00128">
        <ele>1389</ele>
        <time>2024-08-15T08:51:52Z</time>
      </trkpt>
      <trkpt lat="42.95949" lon="0.00128">
        <ele>1388.6</ele>
        <time>2024-08-15T08:51:53Z</time>
      </trkpt>
      <trkpt lat="42.95949" lon="0.00128">
        <ele>1388</ele>
        <time>2024-08-15T08:51:55Z</time>
      </trkpt>
      <trkpt lat="42.9595" lon="0.00119">
        <ele>1387</ele>
        <time>2024-08-15T08:51:59Z</time>
      </trkpt>
      <trkpt lat="42.9595" lon="0.00119">
        <ele>1386.6</ele>
        <time>2024-08-15T08:52:02Z</time>
      </trkpt>
      <trkpt lat="42.95949" lon="0.00114">
        <ele>1386.4</ele>
        <time>2024-08-15T08:52:04Z</time>
      </trkpt>
      <trkpt lat="42.95949" lon="0.00114">
        <ele>1386.4</ele>
        <time>2024-08-15T08:52:05Z</time>
      </trkpt>
      <trkpt lat="42.95952" lon="0.00108">
        <ele>1386.2</ele>
        <time>2024-08-15T08:52:06Z</time>
      </trkpt>
      <trkpt lat="42.95954" lon="0.00106">
        <ele>1385.6</ele>
        <time>2024-08-15T08:52:08Z</time>
      </trkpt>
      <trkpt lat="42.95958" lon="0.001">
        <ele>1383.8</ele>
        <time>2024-08-15T08:52:15Z</time>
      </trkpt>
      <trkpt lat="42.95958" lon="0.001">
        <ele>1383.8</ele>
        <time>2024-08-15T08:52:16Z</time>
      </trkpt>
      <trkpt lat="42.95962" lon="0.00092">
        <ele>1382.2</ele>
        <time>2024-08-15T08:52:25Z</time>
      </trkpt>
      <trkpt lat="42.95963" lon="0.00091">
        <ele>1381.8</ele>
        <time>2024-08-15T08:52:27Z</time>
      </trkpt>
      <trkpt lat="42.95964" lon="0.0009">
        <ele>1380.6</ele>
        <time>2024-08-15T08:52:31Z</time>
      </trkpt>
      <trkpt lat="42.95965" lon="0.00089">
        <ele>1380.2</ele>
        <time>2024-08-15T08:52:32Z</time>
      </trkpt>
      <trkpt lat="42.95966" lon="0.00088">
        <ele>1379.8</ele>
        <time>2024-08-15T08:52:33Z</time>
      </trkpt>
      <trkpt lat="42.95966" lon="0.00088">
        <ele>1379.8</ele>
        <time>2024-08-15T08:52:34Z</time>
      </trkpt>
      <trkpt lat="42.95967" lon="0.00088">
        <ele>1379.4</ele>
        <time>2024-08-15T08:52:35Z</time>
      </trkpt>
      <trkpt lat="42.95973" lon="0.00079">
        <ele>1377</ele>
        <time>2024-08-15T08:52:42Z</time>
      </trkpt>
      <trkpt lat="42.95973" lon="0.00077">
        <ele>1376.8</ele>
        <time>2024-08-15T08:52:43Z</time>
      </trkpt>
      <trkpt lat="42.95973" lon="0.00074">
        <ele>1376.6</ele>
        <time>2024-08-15T08:52:44Z</time>
      </trkpt>
      <trkpt lat="42.95972" lon="0.0007">
        <ele>1376.4</ele>
        <time>2024-08-15T08:52:45Z</time>
      </trkpt>
      <trkpt lat="42.9597" lon="0.00066">
        <ele>1376.4</ele>
        <time>2024-08-15T08:52:46Z</time>
      </trkpt>
      <trkpt lat="42.9597" lon="0.00062">
        <ele>1376.2</ele>
        <time>2024-08-15T08:52:47Z</time>
      </trkpt>
      <trkpt lat="42.9597" lon="0.00058">
        <ele>1376</ele>
        <time>2024-08-15T08:52:48Z</time>
      </trkpt>
      <trkpt lat="42.95971" lon="0.00053">
        <ele>1376</ele>
        <time>2024-08-15T08:52:49Z</time>
      </trkpt>
      <trkpt lat="42.95972" lon="0.00051">
        <ele>1375.8</ele>
        <time>2024-08-15T08:52:50Z</time>
      </trkpt>
      <trkpt lat="42.95972" lon="0.00046">
        <ele>1375.6</ele>
        <time>2024-08-15T08:52:51Z</time>
      </trkpt>
      <trkpt lat="42.95973" lon="0.00043">
        <ele>1375.6</ele>
        <time>2024-08-15T08:52:52Z</time>
      </trkpt>
      <trkpt lat="42.95973" lon="0.00034">
        <ele>1375.4</ele>
        <time>2024-08-15T08:52:55Z</time>
      </trkpt>
      <trkpt lat="42.95974" lon="0.0003">
        <ele>1375.2</ele>
        <time>2024-08-15T08:52:56Z</time>
      </trkpt>
      <trkpt lat="42.95975" lon="0.00026">
        <ele>1375</ele>
        <time>2024-08-15T08:52:57Z</time>
      </trkpt>
      <trkpt lat="42.95975" lon="0.00025">
        <ele>1374.2</ele>
        <time>2024-08-15T08:52:58Z</time>
      </trkpt>
      <trkpt lat="42.95974" lon="0.00023">
        <ele>1373.2</ele>
        <time>2024-08-15T08:53:00Z</time>
      </trkpt>
      <trkpt lat="42.95973" lon="0.00021">
        <ele>1372.6</ele>
        <time>2024-08-15T08:53:01Z</time>
      </trkpt>
      <trkpt lat="42.95971" lon="0.0002">
        <ele>1372.2</ele>
        <time>2024-08-15T08:53:02Z</time>
      </trkpt>
      <trkpt lat="42.9597" lon="0.00019">
        <ele>1371.8</ele>
        <time>2024-08-15T08:53:03Z</time>
      </trkpt>
      <trkpt lat="42.9597" lon="0.00019">
        <ele>1371.6</ele>
        <time>2024-08-15T08:53:04Z</time>
      </trkpt>
      <trkpt lat="42.9597" lon="0.00019">
        <ele>1371</ele>
        <time>2024-08-15T08:53:05Z</time>
      </trkpt>
      <trkpt lat="42.9597" lon="0.00019">
        <ele>1369.8</ele>
        <time>2024-08-15T08:53:09Z</time>
      </trkpt>
      <trkpt lat="42.9597" lon="0.00018">
        <ele>1369</ele>
        <time>2024-08-15T08:53:11Z</time>
      </trkpt>
      <trkpt lat="42.95968" lon="0.00016">
        <ele>1368.8</ele>
        <time>2024-08-15T08:53:13Z</time>
      </trkpt>
      <trkpt lat="42.95969" lon="0.00016">
        <ele>1368.8</ele>
        <time>2024-08-15T08:53:14Z</time>
      </trkpt>
      <trkpt lat="42.95969" lon="0.00016">
        <ele>1368.2</ele>
        <time>2024-08-15T08:53:16Z</time>
      </trkpt>
      <trkpt lat="42.95967" lon="9.0E-5">
        <ele>1367.6</ele>
        <time>2024-08-15T08:53:19Z</time>
      </trkpt>
      <trkpt lat="42.95967" lon="5.0E-5">
        <ele>1367</ele>
        <time>2024-08-15T08:53:21Z</time>
      </trkpt>
      <trkpt lat="42.95968" lon="1.0E-5">
        <ele>1367</ele>
        <time>2024-08-15T08:53:22Z</time>
      </trkpt>
      <trkpt lat="42.95969" lon="-4.0E-5">
        <ele>1366.4</ele>
        <time>2024-08-15T08:53:23Z</time>
      </trkpt>
      <trkpt lat="42.9597" lon="-7.0E-5">
        <ele>1365.8</ele>
        <time>2024-08-15T08:53:24Z</time>
      </trkpt>
      <trkpt lat="42.95972" lon="-0.00011">
        <ele>1365.6</ele>
        <time>2024-08-15T08:53:25Z</time>
      </trkpt>
      <trkpt lat="42.95973" lon="-0.00016">
        <ele>1365</ele>
        <time>2024-08-15T08:53:26Z</time>
      </trkpt>
      <trkpt lat="42.95974" lon="-0.00021">
        <ele>1364.6</ele>
        <time>2024-08-15T08:53:27Z</time>
      </trkpt>
      <trkpt lat="42.95975" lon="-0.00025">
        <ele>1364</ele>
        <time>2024-08-15T08:53:28Z</time>
      </trkpt>
      <trkpt lat="42.95975" lon="-0.00031">
        <ele>1364</ele>
        <time>2024-08-15T08:53:29Z</time>
      </trkpt>
      <trkpt lat="42.95974" lon="-0.00036">
        <ele>1363.6</ele>
        <time>2024-08-15T08:53:30Z</time>
      </trkpt>
      <trkpt lat="42.95974" lon="-0.00041">
        <ele>1363.2</ele>
        <time>2024-08-15T08:53:31Z</time>
      </trkpt>
      <trkpt lat="42.95974" lon="-0.00046">
        <ele>1362.8</ele>
        <time>2024-08-15T08:53:32Z</time>
      </trkpt>
      <trkpt lat="42.95974" lon="-0.0005">
        <ele>1362.4</ele>
        <time>2024-08-15T08:53:33Z</time>
      </trkpt>
      <trkpt lat="42.95973" lon="-0.00054">
        <ele>1362.2</ele>
        <time>2024-08-15T08:53:34Z</time>
      </trkpt>
      <trkpt lat="42.95971" lon="-0.00059">
        <ele>1361.6</ele>
        <time>2024-08-15T08:53:35Z</time>
      </trkpt>
      <trkpt lat="42.9597" lon="-0.00064">
        <ele>1361.4</ele>
        <time>2024-08-15T08:53:36Z</time>
      </trkpt>
      <trkpt lat="42.9597" lon="-0.00067">
        <ele>1360.8</ele>
        <time>2024-08-15T08:53:37Z</time>
      </trkpt>
      <trkpt lat="42.9597" lon="-0.00071">
        <ele>1360.6</ele>
        <time>2024-08-15T08:53:38Z</time>
      </trkpt>
      <trkpt lat="42.9597" lon="-0.00074">
        <ele>1360</ele>
        <time>2024-08-15T08:53:39Z</time>
      </trkpt>
      <trkpt lat="42.95969" lon="-0.00074">
        <ele>1359.4</ele>
        <time>2024-08-15T08:53:40Z</time>
      </trkpt>
      <trkpt lat="42.95968" lon="-0.00078">
        <ele>1359.2</ele>
        <time>2024-08-15T08:53:41Z</time>
      </trkpt>
      <trkpt lat="42.95968" lon="-0.00078">
        <ele>1358.6</ele>
        <time>2024-08-15T08:53:42Z</time>
      </trkpt>
      <trkpt lat="42.95968" lon="-0.00078">
        <ele>1357.6</ele>
        <time>2024-08-15T08:53:44Z</time>
      </trkpt>
      <trkpt lat="42.95968" lon="-0.00078">
        <ele>1356.2</ele>
        <time>2024-08-15T08:53:46Z</time>
      </trkpt>
      <trkpt lat="42.95968" lon="-0.00082">
        <ele>1355.8</ele>
        <time>2024-08-15T08:53:47Z</time>
      </trkpt>
      <trkpt lat="42.95968" lon="-0.00086">
        <ele>1355.6</ele>
        <time>2024-08-15T08:53:48Z</time>
      </trkpt>
      <trkpt lat="42.95969" lon="-0.00094">
        <ele>1355.2</ele>
        <time>2024-08-15T08:53:50Z</time>
      </trkpt>
      <trkpt lat="42.9597" lon="-0.001">
        <ele>1355</ele>
        <time>2024-08-15T08:53:51Z</time>
      </trkpt>
      <trkpt lat="42.95971" lon="-0.00106">
        <ele>1354.8</ele>
        <time>2024-08-15T08:53:52Z</time>
      </trkpt>
      <trkpt lat="42.95968" lon="-0.00113">
        <ele>1350.2</ele>
        <time>2024-08-15T08:54:00Z</time>
      </trkpt>
      <trkpt lat="42.95968" lon="-0.00114">
        <ele>1349.8</ele>
        <time>2024-08-15T08:54:02Z</time>
      </trkpt>
      <trkpt lat="42.95969" lon="-0.00116">
        <ele>1349.6</ele>
        <time>2024-08-15T08:54:03Z</time>
      </trkpt>
      <trkpt lat="42.9597" lon="-0.00128">
        <ele>1349</ele>
        <time>2024-08-15T08:54:05Z</time>
      </trkpt>
      <trkpt lat="42.95972" lon="-0.00135">
        <ele>1349</ele>
        <time>2024-08-15T08:54:06Z</time>
      </trkpt>
      <trkpt lat="42.95971" lon="-0.00144">
        <ele>1348.6</ele>
        <time>2024-08-15T08:54:08Z</time>
      </trkpt>
      <trkpt lat="42.95969" lon="-0.00148">
        <ele>1348.2</ele>
        <time>2024-08-15T08:54:09Z</time>
      </trkpt>
      <trkpt lat="42.95968" lon="-0.00152">
        <ele>1347.8</ele>
        <time>2024-08-15T08:54:10Z</time>
      </trkpt>
      <trkpt lat="42.95969" lon="-0.00154">
        <ele>1347.6</ele>
        <time>2024-08-15T08:54:11Z</time>
      </trkpt>
      <trkpt lat="42.9597" lon="-0.00157">
        <ele>1347.4</ele>
        <time>2024-08-15T08:54:12Z</time>
      </trkpt>
      <trkpt lat="42.95971" lon="-0.00161">
        <ele>1347.2</ele>
        <time>2024-08-15T08:54:13Z</time>
      </trkpt>
      <trkpt lat="42.95969" lon="-0.00164">
        <ele>1347</ele>
        <time>2024-08-15T08:54:14Z</time>
      </trkpt>
      <trkpt lat="42.95966" lon="-0.0017">
        <ele>1346.8</ele>
        <time>2024-08-15T08:54:15Z</time>
      </trkpt>
      <trkpt lat="42.95965" lon="-0.00174">
        <ele>1346.6</ele>
        <time>2024-08-15T08:54:16Z</time>
      </trkpt>
      <trkpt lat="42.95965" lon="-0.00183">
        <ele>1346.4</ele>
        <time>2024-08-15T08:54:18Z</time>
      </trkpt>
      <trkpt lat="42.95964" lon="-0.00188">
        <ele>1346.2</ele>
        <time>2024-08-15T08:54:19Z</time>
      </trkpt>
      <trkpt lat="42.95963" lon="-0.00194">
        <ele>1346.2</ele>
        <time>2024-08-15T08:54:20Z</time>
      </trkpt>
      <trkpt lat="42.95962" lon="-0.00197">
        <ele>1346.2</ele>
        <time>2024-08-15T08:54:21Z</time>
      </trkpt>
      <trkpt lat="42.95962" lon="-0.002">
        <ele>1346.2</ele>
        <time>2024-08-15T08:54:22Z</time>
      </trkpt>
      <trkpt lat="42.95961" lon="-0.00203">
        <ele>1346.2</ele>
        <time>2024-08-15T08:54:23Z</time>
      </trkpt>
      <trkpt lat="42.9596" lon="-0.00207">
        <ele>1346.2</ele>
        <time>2024-08-15T08:54:24Z</time>
      </trkpt>
      <trkpt lat="42.95961" lon="-0.00211">
        <ele>1346.2</ele>
        <time>2024-08-15T08:54:25Z</time>
      </trkpt>
      <trkpt lat="42.95961" lon="-0.00213">
        <ele>1346.2</ele>
        <time>2024-08-15T08:54:26Z</time>
      </trkpt>
      <trkpt lat="42.9596" lon="-0.00215">
        <ele>1346.2</ele>
        <time>2024-08-15T08:54:27Z</time>
      </trkpt>
      <trkpt lat="42.95959" lon="-0.00218">
        <ele>1346.2</ele>
        <time>2024-08-15T08:54:28Z</time>
      </trkpt>
      <trkpt lat="42.95957" lon="-0.00227">
        <ele>1346.4</ele>
        <time>2024-08-15T08:54:31Z</time>
      </trkpt>
      <trkpt lat="42.95954" lon="-0.00233">
        <ele>1346.4</ele>
        <time>2024-08-15T08:54:32Z</time>
      </trkpt>
      <trkpt lat="42.95953" lon="-0.00239">
        <ele>1346.4</ele>
        <time>2024-08-15T08:54:33Z</time>
      </trkpt>
      <trkpt lat="42.95953" lon="-0.00249">
        <ele>1346.4</ele>
        <time>2024-08-15T08:54:34Z</time>
      </trkpt>
      <trkpt lat="42.95952" lon="-0.00253">
        <ele>1346.4</ele>
        <time>2024-08-15T08:54:35Z</time>
      </trkpt>
      <trkpt lat="42.95951" lon="-0.00257">
        <ele>1346.4</ele>
        <time>2024-08-15T08:54:36Z</time>
      </trkpt>
      <trkpt lat="42.95949" lon="-0.00262">
        <ele>1346.4</ele>
        <time>2024-08-15T08:54:37Z</time>
      </trkpt>
      <trkpt lat="42.95946" lon="-0.00266">
        <ele>1346</ele>
        <time>2024-08-15T08:54:38Z</time>
      </trkpt>
      <trkpt lat="42.95943" lon="-0.00271">
        <ele>1345.8</ele>
        <time>2024-08-15T08:54:39Z</time>
      </trkpt>
      <trkpt lat="42.9594" lon="-0.00275">
        <ele>1345.6</ele>
        <time>2024-08-15T08:54:40Z</time>
      </trkpt>
      <trkpt lat="42.95937" lon="-0.0028">
        <ele>1345.4</ele>
        <time>2024-08-15T08:54:41Z</time>
      </trkpt>
      <trkpt lat="42.95934" lon="-0.00282">
        <ele>1345.4</ele>
        <time>2024-08-15T08:54:42Z</time>
      </trkpt>
      <trkpt lat="42.95932" lon="-0.00285">
        <ele>1345.4</ele>
        <time>2024-08-15T08:54:43Z</time>
      </trkpt>
      <trkpt lat="42.95931" lon="-0.00287">
        <ele>1345.4</ele>
        <time>2024-08-15T08:54:44Z</time>
      </trkpt>
      <trkpt lat="42.9593" lon="-0.00289">
        <ele>1345.4</ele>
        <time>2024-08-15T08:54:45Z</time>
      </trkpt>
      <trkpt lat="42.95928" lon="-0.00293">
        <ele>1345.4</ele>
        <time>2024-08-15T08:54:46Z</time>
      </trkpt>
      <trkpt lat="42.95925" lon="-0.00309">
        <ele>1346</ele>
        <time>2024-08-15T08:54:49Z</time>
      </trkpt>
      <trkpt lat="42.95925" lon="-0.00314">
        <ele>1346</ele>
        <time>2024-08-15T08:54:50Z</time>
      </trkpt>
      <trkpt lat="42.95925" lon="-0.00318">
        <ele>1346</ele>
        <time>2024-08-15T08:54:51Z</time>
      </trkpt>
      <trkpt lat="42.95922" lon="-0.00322">
        <ele>1346</ele>
        <time>2024-08-15T08:54:52Z</time>
      </trkpt>
      <trkpt lat="42.95919" lon="-0.00327">
        <ele>1346</ele>
        <time>2024-08-15T08:54:53Z</time>
      </trkpt>
      <trkpt lat="42.95915" lon="-0.00332">
        <ele>1346</ele>
        <time>2024-08-15T08:54:54Z</time>
      </trkpt>
      <trkpt lat="42.95913" lon="-0.00337">
        <ele>1346</ele>
        <time>2024-08-15T08:54:55Z</time>
      </trkpt>
      <trkpt lat="42.95912" lon="-0.00342">
        <ele>1345.8</ele>
        <time>2024-08-15T08:54:56Z</time>
      </trkpt>
      <trkpt lat="42.9591" lon="-0.00346">
        <ele>1345.8</ele>
        <time>2024-08-15T08:54:57Z</time>
      </trkpt>
      <trkpt lat="42.95908" lon="-0.00349">
        <ele>1345.6</ele>
        <time>2024-08-15T08:54:58Z</time>
      </trkpt>
      <trkpt lat="42.95906" lon="-0.00352">
        <ele>1345.6</ele>
        <time>2024-08-15T08:54:59Z</time>
      </trkpt>
      <trkpt lat="42.95906" lon="-0.00356">
        <ele>1345.6</ele>
        <time>2024-08-15T08:55:00Z</time>
      </trkpt>
      <trkpt lat="42.95907" lon="-0.00359">
        <ele>1345.6</ele>
        <time>2024-08-15T08:55:01Z</time>
      </trkpt>
      <trkpt lat="42.95906" lon="-0.00361">
        <ele>1345.6</ele>
        <time>2024-08-15T08:55:02Z</time>
      </trkpt>
      <trkpt lat="42.95907" lon="-0.00361">
        <ele>1345.6</ele>
        <time>2024-08-15T08:55:03Z</time>
      </trkpt>
      <trkpt lat="42.95906" lon="-0.00362">
        <ele>1345.4</ele>
        <time>2024-08-15T08:55:04Z</time>
      </trkpt>
      <trkpt lat="42.95906" lon="-0.00362">
        <ele>1345.6</ele>
        <time>2024-08-15T08:55:12Z</time>
      </trkpt>
      <trkpt lat="42.95906" lon="-0.00362">
        <ele>1345.6</ele>
        <time>2024-08-15T08:55:13Z</time>
      </trkpt>
      <trkpt lat="42.95907" lon="-0.00361">
        <ele>1345.6</ele>
        <time>2024-08-15T08:55:15Z</time>
      </trkpt>
      <trkpt lat="42.95908" lon="-0.0036">
        <ele>1345.6</ele>
        <time>2024-08-15T08:55:18Z</time>
      </trkpt>
      <trkpt lat="42.95908" lon="-0.00358">
        <ele>1345.6</ele>
        <time>2024-08-15T08:55:19Z</time>
      </trkpt>
      <trkpt lat="42.95913" lon="-0.00346">
        <ele>1345.4</ele>
        <time>2024-08-15T08:55:25Z</time>
      </trkpt>
      <trkpt lat="42.95914" lon="-0.00344">
        <ele>1345.4</ele>
        <time>2024-08-15T08:55:26Z</time>
      </trkpt>
      <trkpt lat="42.95915" lon="-0.0034">
        <ele>1345.4</ele>
        <time>2024-08-15T08:55:27Z</time>
      </trkpt>
      <trkpt lat="42.95916" lon="-0.00338">
        <ele>1345.4</ele>
        <time>2024-08-15T08:55:28Z</time>
      </trkpt>
      <trkpt lat="42.95917" lon="-0.00334">
        <ele>1345.4</ele>
        <time>2024-08-15T08:55:29Z</time>
      </trkpt>
      <trkpt lat="42.95919" lon="-0.00324">
        <ele>1345.4</ele>
        <time>2024-08-15T08:55:33Z</time>
      </trkpt>
      <trkpt lat="42.95919" lon="-0.00322">
        <ele>1345.4</ele>
        <time>2024-08-15T08:55:34Z</time>
      </trkpt>
      <trkpt lat="42.9592" lon="-0.0032">
        <ele>1345.4</ele>
        <time>2024-08-15T08:55:35Z</time>
      </trkpt>
      <trkpt lat="42.9592" lon="-0.00317">
        <ele>1345.6</ele>
        <time>2024-08-15T08:55:36Z</time>
      </trkpt>
      <trkpt lat="42.95922" lon="-0.00312">
        <ele>1345.8</ele>
        <time>2024-08-15T08:55:37Z</time>
      </trkpt>
      <trkpt lat="42.95922" lon="-0.00312">
        <ele>1346</ele>
        <time>2024-08-15T08:55:38Z</time>
      </trkpt>
      <trkpt lat="42.95924" lon="-0.00307">
        <ele>1346.2</ele>
        <time>2024-08-15T08:55:39Z</time>
      </trkpt>
      <trkpt lat="42.95926" lon="-0.003">
        <ele>1346.4</ele>
        <time>2024-08-15T08:55:40Z</time>
      </trkpt>
      <trkpt lat="42.95934" lon="-0.00282">
        <ele>1346.6</ele>
        <time>2024-08-15T08:55:43Z</time>
      </trkpt>
      <trkpt lat="42.95936" lon="-0.00275">
        <ele>1346.6</ele>
        <time>2024-08-15T08:55:44Z</time>
      </trkpt>
      <trkpt lat="42.95939" lon="-0.00274">
        <ele>1346.6</ele>
        <time>2024-08-15T08:55:45Z</time>
      </trkpt>
      <trkpt lat="42.9594" lon="-0.00273">
        <ele>1346.2</ele>
        <time>2024-08-15T08:55:46Z</time>
      </trkpt>
      <trkpt lat="42.95942" lon="-0.00273">
        <ele>1346.2</ele>
        <time>2024-08-15T08:55:47Z</time>
      </trkpt>
      <trkpt lat="42.95943" lon="-0.00273">
        <ele>1345.8</ele>
        <time>2024-08-15T08:55:48Z</time>
      </trkpt>
      <trkpt lat="42.95944" lon="-0.00276">
        <ele>1345.8</ele>
        <time>2024-08-15T08:55:49Z</time>
      </trkpt>
      <trkpt lat="42.95945" lon="-0.00286">
        <ele>1345</ele>
        <time>2024-08-15T08:55:51Z</time>
      </trkpt>
      <trkpt lat="42.95946" lon="-0.00289">
        <ele>1344.6</ele>
        <time>2024-08-15T08:55:52Z</time>
      </trkpt>
      <trkpt lat="42.95946" lon="-0.00292">
        <ele>1344</ele>
        <time>2024-08-15T08:55:53Z</time>
      </trkpt>
      <trkpt lat="42.95946" lon="-0.00297">
        <ele>1343.8</ele>
        <time>2024-08-15T08:55:54Z</time>
      </trkpt>
      <trkpt lat="42.95946" lon="-0.003">
        <ele>1343.2</ele>
        <time>2024-08-15T08:55:55Z</time>
      </trkpt>
      <trkpt lat="42.95946" lon="-0.00304">
        <ele>1343</ele>
        <time>2024-08-15T08:55:56Z</time>
      </trkpt>
      <trkpt lat="42.95945" lon="-0.0031">
        <ele>1342</ele>
        <time>2024-08-15T08:55:57Z</time>
      </trkpt>
      <trkpt lat="42.95945" lon="-0.00314">
        <ele>1341.2</ele>
        <time>2024-08-15T08:55:58Z</time>
      </trkpt>
      <trkpt lat="42.95945" lon="-0.00316">
        <ele>1340.8</ele>
        <time>2024-08-15T08:55:59Z</time>
      </trkpt>
      <trkpt lat="42.95946" lon="-0.00318">
        <ele>1340</ele>
        <time>2024-08-15T08:56:00Z</time>
      </trkpt>
      <trkpt lat="42.95947" lon="-0.00318">
        <ele>1339.8</ele>
        <time>2024-08-15T08:56:01Z</time>
      </trkpt>
      <trkpt lat="42.95948" lon="-0.00319">
        <ele>1339</ele>
        <time>2024-08-15T08:56:02Z</time>
      </trkpt>
      <trkpt lat="42.95949" lon="-0.00323">
        <ele>1338.6</ele>
        <time>2024-08-15T08:56:03Z</time>
      </trkpt>
      <trkpt lat="42.95949" lon="-0.00325">
        <ele>1338</ele>
        <time>2024-08-15T08:56:04Z</time>
      </trkpt>
      <trkpt lat="42.95947" lon="-0.00328">
        <ele>1337.4</ele>
        <time>2024-08-15T08:56:05Z</time>
      </trkpt>
      <trkpt lat="42.95947" lon="-0.00328">
        <ele>1337</ele>
        <time>2024-08-15T08:56:06Z</time>
      </trkpt>
      <trkpt lat="42.95945" lon="-0.00335">
        <ele>1336.2</ele>
        <time>2024-08-15T08:56:07Z</time>
      </trkpt>
      <trkpt lat="42.95943" lon="-0.0034">
        <ele>1335</ele>
        <time>2024-08-15T08:56:09Z</time>
      </trkpt>
      <trkpt lat="42.95942" lon="-0.00344">
        <ele>1334.8</ele>
        <time>2024-08-15T08:56:10Z</time>
      </trkpt>
      <trkpt lat="42.95944" lon="-0.00349">
        <ele>1334</ele>
        <time>2024-08-15T08:56:11Z</time>
      </trkpt>
      <trkpt lat="42.95945" lon="-0.00353">
        <ele>1333.4</ele>
        <time>2024-08-15T08:56:12Z</time>
      </trkpt>
      <trkpt lat="42.95946" lon="-0.00358">
        <ele>1332.6</ele>
        <time>2024-08-15T08:56:13Z</time>
      </trkpt>
      <trkpt lat="42.95946" lon="-0.00372">
        <ele>1327</ele>
        <time>2024-08-15T08:56:21Z</time>
      </trkpt>
      <trkpt lat="42.95944" lon="-0.0038">
        <ele>1326.2</ele>
        <time>2024-08-15T08:56:24Z</time>
      </trkpt>
      <trkpt lat="42.95944" lon="-0.00382">
        <ele>1325.8</ele>
        <time>2024-08-15T08:56:25Z</time>
      </trkpt>
      <trkpt lat="42.95944" lon="-0.00385">
        <ele>1325.2</ele>
        <time>2024-08-15T08:56:26Z</time>
      </trkpt>
      <trkpt lat="42.95943" lon="-0.00388">
        <ele>1324.6</ele>
        <time>2024-08-15T08:56:27Z</time>
      </trkpt>
      <trkpt lat="42.95941" lon="-0.00393">
        <ele>1323.4</ele>
        <time>2024-08-15T08:56:29Z</time>
      </trkpt>
      <trkpt lat="42.95941" lon="-0.00397">
        <ele>1322.2</ele>
        <time>2024-08-15T08:56:30Z</time>
      </trkpt>
      <trkpt lat="42.9594" lon="-0.00403">
        <ele>1321.6</ele>
        <time>2024-08-15T08:56:31Z</time>
      </trkpt>
      <trkpt lat="42.95941" lon="-0.00409">
        <ele>1320.6</ele>
        <time>2024-08-15T08:56:32Z</time>
      </trkpt>
      <trkpt lat="42.95942" lon="-0.00413">
        <ele>1320.2</ele>
        <time>2024-08-15T08:56:33Z</time>
      </trkpt>
      <trkpt lat="42.95943" lon="-0.00417">
        <ele>1319</ele>
        <time>2024-08-15T08:56:34Z</time>
      </trkpt>
      <trkpt lat="42.95943" lon="-0.00426">
        <ele>1317.4</ele>
        <time>2024-08-15T08:56:36Z</time>
      </trkpt>
      <trkpt lat="42.95942" lon="-0.00429">
        <ele>1316.4</ele>
        <time>2024-08-15T08:56:37Z</time>
      </trkpt>
      <trkpt lat="42.95942" lon="-0.00434">
        <ele>1315.8</ele>
        <time>2024-08-15T08:56:38Z</time>
      </trkpt>
      <trkpt lat="42.95941" lon="-0.00436">
        <ele>1314.4</ele>
        <time>2024-08-15T08:56:39Z</time>
      </trkpt>
      <trkpt lat="42.9594" lon="-0.00438">
        <ele>1314</ele>
        <time>2024-08-15T08:56:40Z</time>
      </trkpt>
      <trkpt lat="42.95937" lon="-0.00442">
        <ele>1312.8</ele>
        <time>2024-08-15T08:56:41Z</time>
      </trkpt>
      <trkpt lat="42.95935" lon="-0.00447">
        <ele>1312</ele>
        <time>2024-08-15T08:56:42Z</time>
      </trkpt>
      <trkpt lat="42.95933" lon="-0.0045">
        <ele>1311.2</ele>
        <time>2024-08-15T08:56:43Z</time>
      </trkpt>
      <trkpt lat="42.95932" lon="-0.00454">
        <ele>1310</ele>
        <time>2024-08-15T08:56:44Z</time>
      </trkpt>
      <trkpt lat="42.9593" lon="-0.00456">
        <ele>1309.6</ele>
        <time>2024-08-15T08:56:45Z</time>
      </trkpt>
      <trkpt lat="42.95929" lon="-0.0046">
        <ele>1308.8</ele>
        <time>2024-08-15T08:56:46Z</time>
      </trkpt>
      <trkpt lat="42.95929" lon="-0.00463">
        <ele>1308.2</ele>
        <time>2024-08-15T08:56:47Z</time>
      </trkpt>
      <trkpt lat="42.95929" lon="-0.00466">
        <ele>1307</ele>
        <time>2024-08-15T08:56:48Z</time>
      </trkpt>
      <trkpt lat="42.95929" lon="-0.00473">
        <ele>1305.6</ele>
        <time>2024-08-15T08:56:50Z</time>
      </trkpt>
      <trkpt lat="42.95928" lon="-0.00479">
        <ele>1304.2</ele>
        <time>2024-08-15T08:56:51Z</time>
      </trkpt>
      <trkpt lat="42.95927" lon="-0.00484">
        <ele>1303.6</ele>
        <time>2024-08-15T08:56:52Z</time>
      </trkpt>
      <trkpt lat="42.95926" lon="-0.00489">
        <ele>1302.6</ele>
        <time>2024-08-15T08:56:53Z</time>
      </trkpt>
      <trkpt lat="42.95925" lon="-0.00493">
        <ele>1302.2</ele>
        <time>2024-08-15T08:56:54Z</time>
      </trkpt>
      <trkpt lat="42.95923" lon="-0.00495">
        <ele>1300.8</ele>
        <time>2024-08-15T08:56:55Z</time>
      </trkpt>
      <trkpt lat="42.95919" lon="-0.00503">
        <ele>1298.4</ele>
        <time>2024-08-15T08:56:57Z</time>
      </trkpt>
      <trkpt lat="42.95919" lon="-0.00507">
        <ele>1297.6</ele>
        <time>2024-08-15T08:56:58Z</time>
      </trkpt>
      <trkpt lat="42.95919" lon="-0.00509">
        <ele>1296.4</ele>
        <time>2024-08-15T08:56:59Z</time>
      </trkpt>
      <trkpt lat="42.95918" lon="-0.00511">
        <ele>1295.2</ele>
        <time>2024-08-15T08:57:00Z</time>
      </trkpt>
      <trkpt lat="42.95916" lon="-0.00513">
        <ele>1294.4</ele>
        <time>2024-08-15T08:57:01Z</time>
      </trkpt>
      <trkpt lat="42.95914" lon="-0.00516">
        <ele>1292.6</ele>
        <time>2024-08-15T08:57:02Z</time>
      </trkpt>
      <trkpt lat="42.95914" lon="-0.0052">
        <ele>1292</ele>
        <time>2024-08-15T08:57:03Z</time>
      </trkpt>
      <trkpt lat="42.95912" lon="-0.00525">
        <ele>1291</ele>
        <time>2024-08-15T08:57:04Z</time>
      </trkpt>
      <trkpt lat="42.95909" lon="-0.00529">
        <ele>1290.2</ele>
        <time>2024-08-15T08:57:05Z</time>
      </trkpt>
      <trkpt lat="42.95906" lon="-0.00533">
        <ele>1288.6</ele>
        <time>2024-08-15T08:57:06Z</time>
      </trkpt>
      <trkpt lat="42.95902" lon="-0.00537">
        <ele>1286.8</ele>
        <time>2024-08-15T08:57:07Z</time>
      </trkpt>
      <trkpt lat="42.959" lon="-0.00541">
        <ele>1286</ele>
        <time>2024-08-15T08:57:08Z</time>
      </trkpt>
      <trkpt lat="42.95899" lon="-0.00543">
        <ele>1285.2</ele>
        <time>2024-08-15T08:57:09Z</time>
      </trkpt>
      <trkpt lat="42.95898" lon="-0.00545">
        <ele>1283.8</ele>
        <time>2024-08-15T08:57:11Z</time>
      </trkpt>
      <trkpt lat="42.95896" lon="-0.00548">
        <ele>1283.2</ele>
        <time>2024-08-15T08:57:12Z</time>
      </trkpt>
      <trkpt lat="42.95894" lon="-0.00551">
        <ele>1282.2</ele>
        <time>2024-08-15T08:57:13Z</time>
      </trkpt>
      <trkpt lat="42.95892" lon="-0.00557">
        <ele>1281.2</ele>
        <time>2024-08-15T08:57:14Z</time>
      </trkpt>
      <trkpt lat="42.95892" lon="-0.00561">
        <ele>1280.8</ele>
        <time>2024-08-15T08:57:15Z</time>
      </trkpt>
      <trkpt lat="42.95892" lon="-0.00562">
        <ele>1279.8</ele>
        <time>2024-08-15T08:57:16Z</time>
      </trkpt>
      <trkpt lat="42.95892" lon="-0.00563">
        <ele>1279</ele>
        <time>2024-08-15T08:57:17Z</time>
      </trkpt>
      <trkpt lat="42.9589" lon="-0.00567">
        <ele>1277.8</ele>
        <time>2024-08-15T08:57:18Z</time>
      </trkpt>
      <trkpt lat="42.95888" lon="-0.0057">
        <ele>1277.2</ele>
        <time>2024-08-15T08:57:19Z</time>
      </trkpt>
      <trkpt lat="42.95887" lon="-0.00572">
        <ele>1276.4</ele>
        <time>2024-08-15T08:57:20Z</time>
      </trkpt>
      <trkpt lat="42.95886" lon="-0.00575">
        <ele>1275.8</ele>
        <time>2024-08-15T08:57:21Z</time>
      </trkpt>
      <trkpt lat="42.95886" lon="-0.00576">
        <ele>1275</ele>
        <time>2024-08-15T08:57:22Z</time>
      </trkpt>
      <trkpt lat="42.95885" lon="-0.00578">
        <ele>1274.2</ele>
        <time>2024-08-15T08:57:23Z</time>
      </trkpt>
      <trkpt lat="42.95883" lon="-0.00581">
        <ele>1273.6</ele>
        <time>2024-08-15T08:57:24Z</time>
      </trkpt>
      <trkpt lat="42.95882" lon="-0.00584">
        <ele>1272.6</ele>
        <time>2024-08-15T08:57:25Z</time>
      </trkpt>
      <trkpt lat="42.9588" lon="-0.00589">
        <ele>1271.2</ele>
        <time>2024-08-15T08:57:27Z</time>
      </trkpt>
      <trkpt lat="42.95877" lon="-0.00597">
        <ele>1270</ele>
        <time>2024-08-15T08:57:29Z</time>
      </trkpt>
      <trkpt lat="42.95876" lon="-0.006">
        <ele>1268.8</ele>
        <time>2024-08-15T08:57:30Z</time>
      </trkpt>
      <trkpt lat="42.95872" lon="-0.00609">
        <ele>1267</ele>
        <time>2024-08-15T08:57:32Z</time>
      </trkpt>
      <trkpt lat="42.95868" lon="-0.00615">
        <ele>1265.6</ele>
        <time>2024-08-15T08:57:34Z</time>
      </trkpt>
      <trkpt lat="42.95865" lon="-0.00619">
        <ele>1263.4</ele>
        <time>2024-08-15T08:57:36Z</time>
      </trkpt>
      <trkpt lat="42.95863" lon="-0.00622">
        <ele>1262.6</ele>
        <time>2024-08-15T08:57:37Z</time>
      </trkpt>
      <trkpt lat="42.95861" lon="-0.00627">
        <ele>1261.8</ele>
        <time>2024-08-15T08:57:38Z</time>
      </trkpt>
      <trkpt lat="42.95855" lon="-0.00634">
        <ele>1260.4</ele>
        <time>2024-08-15T08:57:40Z</time>
      </trkpt>
      <trkpt lat="42.95853" lon="-0.0064">
        <ele>1259</ele>
        <time>2024-08-15T08:57:41Z</time>
      </trkpt>
      <trkpt lat="42.95851" lon="-0.00644">
        <ele>1258.4</ele>
        <time>2024-08-15T08:57:42Z</time>
      </trkpt>
      <trkpt lat="42.95848" lon="-0.0065">
        <ele>1257.2</ele>
        <time>2024-08-15T08:57:43Z</time>
      </trkpt>
      <trkpt lat="42.95845" lon="-0.00655">
        <ele>1256.6</ele>
        <time>2024-08-15T08:57:44Z</time>
      </trkpt>
      <trkpt lat="42.95842" lon="-0.0066">
        <ele>1255.2</ele>
        <time>2024-08-15T08:57:45Z</time>
      </trkpt>
      <trkpt lat="42.95837" lon="-0.00666">
        <ele>1253.8</ele>
        <time>2024-08-15T08:57:47Z</time>
      </trkpt>
      <trkpt lat="42.95835" lon="-0.00667">
        <ele>1252.8</ele>
        <time>2024-08-15T08:57:48Z</time>
      </trkpt>
      <trkpt lat="42.95831" lon="-0.0067">
        <ele>1250.6</ele>
        <time>2024-08-15T08:57:50Z</time>
      </trkpt>
      <trkpt lat="42.95825" lon="-0.00674">
        <ele>1249</ele>
        <time>2024-08-15T08:57:52Z</time>
      </trkpt>
      <trkpt lat="42.95817" lon="-0.00684">
        <ele>1247.6</ele>
        <time>2024-08-15T08:57:54Z</time>
      </trkpt>
      <trkpt lat="42.95813" lon="-0.00691">
        <ele>1246.8</ele>
        <time>2024-08-15T08:57:55Z</time>
      </trkpt>
      <trkpt lat="42.95809" lon="-0.007">
        <ele>1246.6</ele>
        <time>2024-08-15T08:57:56Z</time>
      </trkpt>
      <trkpt lat="42.95805" lon="-0.00709">
        <ele>1246.2</ele>
        <time>2024-08-15T08:57:57Z</time>
      </trkpt>
      <trkpt lat="42.95801" lon="-0.00716">
        <ele>1245.6</ele>
        <time>2024-08-15T08:57:58Z</time>
      </trkpt>
      <trkpt lat="42.95796" lon="-0.00721">
        <ele>1244.8</ele>
        <time>2024-08-15T08:57:59Z</time>
      </trkpt>
      <trkpt lat="42.95791" lon="-0.00726">
        <ele>1244.2</ele>
        <time>2024-08-15T08:58:00Z</time>
      </trkpt>
      <trkpt lat="42.95785" lon="-0.0073">
        <ele>1243.6</ele>
        <time>2024-08-15T08:58:01Z</time>
      </trkpt>
      <trkpt lat="42.95782" lon="-0.00734">
        <ele>1242.6</ele>
        <time>2024-08-15T08:58:02Z</time>
      </trkpt>
      <trkpt lat="42.95778" lon="-0.00739">
        <ele>1242.4</ele>
        <time>2024-08-15T08:58:03Z</time>
      </trkpt>
      <trkpt lat="42.95775" lon="-0.00743">
        <ele>1241.2</ele>
        <time>2024-08-15T08:58:04Z</time>
      </trkpt>
      <trkpt lat="42.95774" lon="-0.00746">
        <ele>1240.8</ele>
        <time>2024-08-15T08:58:05Z</time>
      </trkpt>
      <trkpt lat="42.95772" lon="-0.00749">
        <ele>1240.2</ele>
        <time>2024-08-15T08:58:06Z</time>
      </trkpt>
      <trkpt lat="42.9577" lon="-0.00754">
        <ele>1239.8</ele>
        <time>2024-08-15T08:58:07Z</time>
      </trkpt>
      <trkpt lat="42.95768" lon="-0.0076">
        <ele>1238.6</ele>
        <time>2024-08-15T08:58:08Z</time>
      </trkpt>
      <trkpt lat="42.95762" lon="-0.00772">
        <ele>1237</ele>
        <time>2024-08-15T08:58:10Z</time>
      </trkpt>
      <trkpt lat="42.95758" lon="-0.00773">
        <ele>1236.4</ele>
        <time>2024-08-15T08:58:11Z</time>
      </trkpt>
      <trkpt lat="42.95755" lon="-0.00775">
        <ele>1235.8</ele>
        <time>2024-08-15T08:58:12Z</time>
      </trkpt>
      <trkpt lat="42.95751" lon="-0.00777">
        <ele>1235</ele>
        <time>2024-08-15T08:58:13Z</time>
      </trkpt>
      <trkpt lat="42.95748" lon="-0.00778">
        <ele>1234.6</ele>
        <time>2024-08-15T08:58:14Z</time>
      </trkpt>
      <trkpt lat="42.95744" lon="-0.00779">
        <ele>1233</ele>
        <time>2024-08-15T08:58:15Z</time>
      </trkpt>
      <trkpt lat="42.95741" lon="-0.00781">
        <ele>1231.8</ele>
        <time>2024-08-15T08:58:16Z</time>
      </trkpt>
      <trkpt lat="42.95738" lon="-0.00784">
        <ele>1231.4</ele>
        <time>2024-08-15T08:58:17Z</time>
      </trkpt>
      <trkpt lat="42.95735" lon="-0.00785">
        <ele>1230.6</ele>
        <time>2024-08-15T08:58:18Z</time>
      </trkpt>
      <trkpt lat="42.95731" lon="-0.00786">
        <ele>1230.2</ele>
        <time>2024-08-15T08:58:19Z</time>
      </trkpt>
      <trkpt lat="42.95729" lon="-0.00791">
        <ele>1229</ele>
        <time>2024-08-15T08:58:20Z</time>
      </trkpt>
      <trkpt lat="42.95728" lon="-0.00794">
        <ele>1228.6</ele>
        <time>2024-08-15T08:58:21Z</time>
      </trkpt>
      <trkpt lat="42.95723" lon="-0.00799">
        <ele>1227.2</ele>
        <time>2024-08-15T08:58:22Z</time>
      </trkpt>
      <trkpt lat="42.9572" lon="-0.00802">
        <ele>1226.2</ele>
        <time>2024-08-15T08:58:23Z</time>
      </trkpt>
      <trkpt lat="42.95718" lon="-0.00807">
        <ele>1225.8</ele>
        <time>2024-08-15T08:58:24Z</time>
      </trkpt>
      <trkpt lat="42.95717" lon="-0.00812">
        <ele>1224.8</ele>
        <time>2024-08-15T08:58:25Z</time>
      </trkpt>
      <trkpt lat="42.95712" lon="-0.00823">
        <ele>1222.4</ele>
        <time>2024-08-15T08:58:27Z</time>
      </trkpt>
      <trkpt lat="42.95709" lon="-0.00826">
        <ele>1221.8</ele>
        <time>2024-08-15T08:58:28Z</time>
      </trkpt>
      <trkpt lat="42.95702" lon="-0.00827">
        <ele>1220.6</ele>
        <time>2024-08-15T08:58:29Z</time>
      </trkpt>
      <trkpt lat="42.95697" lon="-0.00829">
        <ele>1219.8</ele>
        <time>2024-08-15T08:58:30Z</time>
      </trkpt>
      <trkpt lat="42.95693" lon="-0.00834">
        <ele>1219.2</ele>
        <time>2024-08-15T08:58:31Z</time>
      </trkpt>
      <trkpt lat="42.9569" lon="-0.00839">
        <ele>1218</ele>
        <time>2024-08-15T08:58:32Z</time>
      </trkpt>
      <trkpt lat="42.95684" lon="-0.00848">
        <ele>1215.8</ele>
        <time>2024-08-15T08:58:34Z</time>
      </trkpt>
      <trkpt lat="42.95677" lon="-0.00857">
        <ele>1214</ele>
        <time>2024-08-15T08:58:36Z</time>
      </trkpt>
      <trkpt lat="42.95673" lon="-0.0086">
        <ele>1213.4</ele>
        <time>2024-08-15T08:58:37Z</time>
      </trkpt>
      <trkpt lat="42.95669" lon="-0.00864">
        <ele>1212</ele>
        <time>2024-08-15T08:58:38Z</time>
      </trkpt>
      <trkpt lat="42.95666" lon="-0.00869">
        <ele>1210.6</ele>
        <time>2024-08-15T08:58:39Z</time>
      </trkpt>
      <trkpt lat="42.95663" lon="-0.00872">
        <ele>1210</ele>
        <time>2024-08-15T08:58:40Z</time>
      </trkpt>
      <trkpt lat="42.95661" lon="-0.00876">
        <ele>1208.6</ele>
        <time>2024-08-15T08:58:41Z</time>
      </trkpt>
      <trkpt lat="42.95657" lon="-0.00881">
        <ele>1208</ele>
        <time>2024-08-15T08:58:42Z</time>
      </trkpt>
      <trkpt lat="42.95654" lon="-0.00886">
        <ele>1206.6</ele>
        <time>2024-08-15T08:58:43Z</time>
      </trkpt>
      <trkpt lat="42.95645" lon="-0.00899">
        <ele>1204.8</ele>
        <time>2024-08-15T08:58:45Z</time>
      </trkpt>
      <trkpt lat="42.9564" lon="-0.00905">
        <ele>1204</ele>
        <time>2024-08-15T08:58:46Z</time>
      </trkpt>
      <trkpt lat="42.95637" lon="-0.0091">
        <ele>1203.4</ele>
        <time>2024-08-15T08:58:47Z</time>
      </trkpt>
      <trkpt lat="42.95635" lon="-0.00915">
        <ele>1202.6</ele>
        <time>2024-08-15T08:58:48Z</time>
      </trkpt>
      <trkpt lat="42.95632" lon="-0.00919">
        <ele>1201.8</ele>
        <time>2024-08-15T08:58:49Z</time>
      </trkpt>
      <trkpt lat="42.95631" lon="-0.00921">
        <ele>1200.6</ele>
        <time>2024-08-15T08:58:50Z</time>
      </trkpt>
      <trkpt lat="42.95629" lon="-0.00922">
        <ele>1200.2</ele>
        <time>2024-08-15T08:58:51Z</time>
      </trkpt>
      <trkpt lat="42.95627" lon="-0.00923">
        <ele>1199.8</ele>
        <time>2024-08-15T08:58:52Z</time>
      </trkpt>
      <trkpt lat="42.95626" lon="-0.00925">
        <ele>1199.6</ele>
        <time>2024-08-15T08:58:53Z</time>
      </trkpt>
      <trkpt lat="42.95625" lon="-0.00928">
        <ele>1198.8</ele>
        <time>2024-08-15T08:58:54Z</time>
      </trkpt>
      <trkpt lat="42.95624" lon="-0.00932">
        <ele>1198</ele>
        <time>2024-08-15T08:58:55Z</time>
      </trkpt>
      <trkpt lat="42.95621" lon="-0.00935">
        <ele>1197.8</ele>
        <time>2024-08-15T08:58:56Z</time>
      </trkpt>
      <trkpt lat="42.95606" lon="-0.00937">
        <ele>1197.2</ele>
        <time>2024-08-15T08:58:59Z</time>
      </trkpt>
      <trkpt lat="42.95601" lon="-0.00941">
        <ele>1197.2</ele>
        <time>2024-08-15T08:59:00Z</time>
      </trkpt>
      <trkpt lat="42.95597" lon="-0.00947">
        <ele>1196.6</ele>
        <time>2024-08-15T08:59:01Z</time>
      </trkpt>
      <trkpt lat="42.9559" lon="-0.00958">
        <ele>1195.8</ele>
        <time>2024-08-15T08:59:03Z</time>
      </trkpt>
      <trkpt lat="42.95586" lon="-0.00964">
        <ele>1195.6</ele>
        <time>2024-08-15T08:59:04Z</time>
      </trkpt>
      <trkpt lat="42.95583" lon="-0.00971">
        <ele>1195.4</ele>
        <time>2024-08-15T08:59:05Z</time>
      </trkpt>
      <trkpt lat="42.95579" lon="-0.00976">
        <ele>1195</ele>
        <time>2024-08-15T08:59:06Z</time>
      </trkpt>
      <trkpt lat="42.95576" lon="-0.00981">
        <ele>1195</ele>
        <time>2024-08-15T08:59:07Z</time>
      </trkpt>
      <trkpt lat="42.95573" lon="-0.00985">
        <ele>1194.8</ele>
        <time>2024-08-15T08:59:08Z</time>
      </trkpt>
      <trkpt lat="42.95571" lon="-0.00989">
        <ele>1194.4</ele>
        <time>2024-08-15T08:59:09Z</time>
      </trkpt>
      <trkpt lat="42.95567" lon="-0.00992">
        <ele>1194.2</ele>
        <time>2024-08-15T08:59:10Z</time>
      </trkpt>
      <trkpt lat="42.95565" lon="-0.00994">
        <ele>1193.8</ele>
        <time>2024-08-15T08:59:11Z</time>
      </trkpt>
      <trkpt lat="42.95563" lon="-0.00997">
        <ele>1193.8</ele>
        <time>2024-08-15T08:59:12Z</time>
      </trkpt>
      <trkpt lat="42.9556" lon="-0.01">
        <ele>1193.4</ele>
        <time>2024-08-15T08:59:13Z</time>
      </trkpt>
      <trkpt lat="42.95557" lon="-0.01004">
        <ele>1193</ele>
        <time>2024-08-15T08:59:14Z</time>
      </trkpt>
      <trkpt lat="42.95554" lon="-0.01006">
        <ele>1191.8</ele>
        <time>2024-08-15T08:59:15Z</time>
      </trkpt>
      <trkpt lat="42.95551" lon="-0.01009">
        <ele>1191.4</ele>
        <time>2024-08-15T08:59:16Z</time>
      </trkpt>
      <trkpt lat="42.95548" lon="-0.01011">
        <ele>1190.4</ele>
        <time>2024-08-15T08:59:17Z</time>
      </trkpt>
      <trkpt lat="42.95544" lon="-0.01012">
        <ele>1189.4</ele>
        <time>2024-08-15T08:59:18Z</time>
      </trkpt>
      <trkpt lat="42.95541" lon="-0.01012">
        <ele>1189</ele>
        <time>2024-08-15T08:59:19Z</time>
      </trkpt>
      <trkpt lat="42.95537" lon="-0.01013">
        <ele>1188</ele>
        <time>2024-08-15T08:59:20Z</time>
      </trkpt>
      <trkpt lat="42.95534" lon="-0.01014">
        <ele>1187.2</ele>
        <time>2024-08-15T08:59:21Z</time>
      </trkpt>
      <trkpt lat="42.95531" lon="-0.01015">
        <ele>1186.4</ele>
        <time>2024-08-15T08:59:22Z</time>
      </trkpt>
      <trkpt lat="42.95528" lon="-0.01015">
        <ele>1185.8</ele>
        <time>2024-08-15T08:59:23Z</time>
      </trkpt>
      <trkpt lat="42.95522" lon="-0.01015">
        <ele>1184.4</ele>
        <time>2024-08-15T08:59:25Z</time>
      </trkpt>
      <trkpt lat="42.95519" lon="-0.01015">
        <ele>1184</ele>
        <time>2024-08-15T08:59:26Z</time>
      </trkpt>
      <trkpt lat="42.95517" lon="-0.01016">
        <ele>1183.2</ele>
        <time>2024-08-15T08:59:27Z</time>
      </trkpt>
      <trkpt lat="42.95513" lon="-0.01019">
        <ele>1181.8</ele>
        <time>2024-08-15T08:59:29Z</time>
      </trkpt>
      <trkpt lat="42.9551" lon="-0.0102">
        <ele>1181</ele>
        <time>2024-08-15T08:59:30Z</time>
      </trkpt>
      <trkpt lat="42.95506" lon="-0.01021">
        <ele>1180</ele>
        <time>2024-08-15T08:59:31Z</time>
      </trkpt>
      <trkpt lat="42.955" lon="-0.01023">
        <ele>1178.4</ele>
        <time>2024-08-15T08:59:33Z</time>
      </trkpt>
      <trkpt lat="42.95497" lon="-0.01023">
        <ele>1177</ele>
        <time>2024-08-15T08:59:34Z</time>
      </trkpt>
      <trkpt lat="42.95495" lon="-0.01023">
        <ele>1176.4</ele>
        <time>2024-08-15T08:59:35Z</time>
      </trkpt>
      <trkpt lat="42.95492" lon="-0.01024">
        <ele>1175.4</ele>
        <time>2024-08-15T08:59:36Z</time>
      </trkpt>
      <trkpt lat="42.95491" lon="-0.01025">
        <ele>1174.8</ele>
        <time>2024-08-15T08:59:37Z</time>
      </trkpt>
      <trkpt lat="42.95488" lon="-0.01027">
        <ele>1174.2</ele>
        <time>2024-08-15T08:59:38Z</time>
      </trkpt>
      <trkpt lat="42.95487" lon="-0.0103">
        <ele>1173.2</ele>
        <time>2024-08-15T08:59:39Z</time>
      </trkpt>
      <trkpt lat="42.95485" lon="-0.01034">
        <ele>1173</ele>
        <time>2024-08-15T08:59:40Z</time>
      </trkpt>
      <trkpt lat="42.95483" lon="-0.01038">
        <ele>1171.8</ele>
        <time>2024-08-15T08:59:41Z</time>
      </trkpt>
      <trkpt lat="42.95482" lon="-0.01044">
        <ele>1171.6</ele>
        <time>2024-08-15T08:59:42Z</time>
      </trkpt>
      <trkpt lat="42.95479" lon="-0.01055">
        <ele>1170.8</ele>
        <time>2024-08-15T08:59:44Z</time>
      </trkpt>
      <trkpt lat="42.95471" lon="-0.01065">
        <ele>1169</ele>
        <time>2024-08-15T08:59:46Z</time>
      </trkpt>
      <trkpt lat="42.95468" lon="-0.0107">
        <ele>1168.6</ele>
        <time>2024-08-15T08:59:47Z</time>
      </trkpt>
      <trkpt lat="42.95466" lon="-0.01074">
        <ele>1168.4</ele>
        <time>2024-08-15T08:59:48Z</time>
      </trkpt>
      <trkpt lat="42.95463" lon="-0.01078">
        <ele>1168.2</ele>
        <time>2024-08-15T08:59:49Z</time>
      </trkpt>
      <trkpt lat="42.95458" lon="-0.01081">
        <ele>1167.2</ele>
        <time>2024-08-15T08:59:50Z</time>
      </trkpt>
      <trkpt lat="42.95453" lon="-0.01083">
        <ele>1166.6</ele>
        <time>2024-08-15T08:59:51Z</time>
      </trkpt>
      <trkpt lat="42.95449" lon="-0.01086">
        <ele>1165.8</ele>
        <time>2024-08-15T08:59:52Z</time>
      </trkpt>
      <trkpt lat="42.95436" lon="-0.01096">
        <ele>1164.8</ele>
        <time>2024-08-15T08:59:55Z</time>
      </trkpt>
      <trkpt lat="42.95428" lon="-0.01105">
        <ele>1163</ele>
        <time>2024-08-15T08:59:57Z</time>
      </trkpt>
      <trkpt lat="42.95423" lon="-0.01107">
        <ele>1162.6</ele>
        <time>2024-08-15T08:59:58Z</time>
      </trkpt>
      <trkpt lat="42.95418" lon="-0.01108">
        <ele>1161.8</ele>
        <time>2024-08-15T08:59:59Z</time>
      </trkpt>
      <trkpt lat="42.95413" lon="-0.01111">
        <ele>1161.4</ele>
        <time>2024-08-15T09:00:00Z</time>
      </trkpt>
      <trkpt lat="42.95409" lon="-0.01115">
        <ele>1159.2</ele>
        <time>2024-08-15T09:00:01Z</time>
      </trkpt>
      <trkpt lat="42.95406" lon="-0.0112">
        <ele>1157.6</ele>
        <time>2024-08-15T09:00:02Z</time>
      </trkpt>
      <trkpt lat="42.95401" lon="-0.01131">
        <ele>1156.6</ele>
        <time>2024-08-15T09:00:04Z</time>
      </trkpt>
      <trkpt lat="42.95399" lon="-0.01136">
        <ele>1156.6</ele>
        <time>2024-08-15T09:00:05Z</time>
      </trkpt>
      <trkpt lat="42.95394" lon="-0.01142">
        <ele>1156</ele>
        <time>2024-08-15T09:00:06Z</time>
      </trkpt>
      <trkpt lat="42.95391" lon="-0.01146">
        <ele>1155.8</ele>
        <time>2024-08-15T09:00:07Z</time>
      </trkpt>
      <trkpt lat="42.95387" lon="-0.01149">
        <ele>1155</ele>
        <time>2024-08-15T09:00:08Z</time>
      </trkpt>
      <trkpt lat="42.95383" lon="-0.01151">
        <ele>1154.8</ele>
        <time>2024-08-15T09:00:09Z</time>
      </trkpt>
      <trkpt lat="42.95379" lon="-0.01154">
        <ele>1154.2</ele>
        <time>2024-08-15T09:00:10Z</time>
      </trkpt>
      <trkpt lat="42.95376" lon="-0.01156">
        <ele>1153.6</ele>
        <time>2024-08-15T09:00:11Z</time>
      </trkpt>
      <trkpt lat="42.95373" lon="-0.01159">
        <ele>1153.2</ele>
        <time>2024-08-15T09:00:12Z</time>
      </trkpt>
      <trkpt lat="42.95367" lon="-0.01167">
        <ele>1152.4</ele>
        <time>2024-08-15T09:00:14Z</time>
      </trkpt>
      <trkpt lat="42.9536" lon="-0.01175">
        <ele>1151.2</ele>
        <time>2024-08-15T09:00:16Z</time>
      </trkpt>
      <trkpt lat="42.95357" lon="-0.0118">
        <ele>1150.8</ele>
        <time>2024-08-15T09:00:17Z</time>
      </trkpt>
      <trkpt lat="42.95353" lon="-0.01184">
        <ele>1150.2</ele>
        <time>2024-08-15T09:00:18Z</time>
      </trkpt>
      <trkpt lat="42.95347" lon="-0.01191">
        <ele>1149.4</ele>
        <time>2024-08-15T09:00:20Z</time>
      </trkpt>
      <trkpt lat="42.95343" lon="-0.01194">
        <ele>1148.4</ele>
        <time>2024-08-15T09:00:21Z</time>
      </trkpt>
      <trkpt lat="42.95341" lon="-0.01197">
        <ele>1147.4</ele>
        <time>2024-08-15T09:00:22Z</time>
      </trkpt>
      <trkpt lat="42.95339" lon="-0.012">
        <ele>1146.8</ele>
        <time>2024-08-15T09:00:23Z</time>
      </trkpt>
      <trkpt lat="42.95337" lon="-0.01203">
        <ele>1145.6</ele>
        <time>2024-08-15T09:00:24Z</time>
      </trkpt>
      <trkpt lat="42.95335" lon="-0.01206">
        <ele>1144.2</ele>
        <time>2024-08-15T09:00:25Z</time>
      </trkpt>
      <trkpt lat="42.95333" lon="-0.01209">
        <ele>1143.8</ele>
        <time>2024-08-15T09:00:26Z</time>
      </trkpt>
      <trkpt lat="42.95331" lon="-0.01214">
        <ele>1142.6</ele>
        <time>2024-08-15T09:00:27Z</time>
      </trkpt>
      <trkpt lat="42.95328" lon="-0.01217">
        <ele>1142.2</ele>
        <time>2024-08-15T09:00:28Z</time>
      </trkpt>
      <trkpt lat="42.95326" lon="-0.0122">
        <ele>1141.6</ele>
        <time>2024-08-15T09:00:29Z</time>
      </trkpt>
      <trkpt lat="42.95325" lon="-0.01223">
        <ele>1141.2</ele>
        <time>2024-08-15T09:00:30Z</time>
      </trkpt>
      <trkpt lat="42.95322" lon="-0.01228">
        <ele>1140.6</ele>
        <time>2024-08-15T09:00:31Z</time>
      </trkpt>
      <trkpt lat="42.95317" lon="-0.01235">
        <ele>1139</ele>
        <time>2024-08-15T09:00:33Z</time>
      </trkpt>
      <trkpt lat="42.95315" lon="-0.01238">
        <ele>1138.2</ele>
        <time>2024-08-15T09:00:34Z</time>
      </trkpt>
      <trkpt lat="42.95311" lon="-0.01241">
        <ele>1137.8</ele>
        <time>2024-08-15T09:00:35Z</time>
      </trkpt>
      <trkpt lat="42.95304" lon="-0.01247">
        <ele>1136.8</ele>
        <time>2024-08-15T09:00:37Z</time>
      </trkpt>
      <trkpt lat="42.95301" lon="-0.01252">
        <ele>1136</ele>
        <time>2024-08-15T09:00:38Z</time>
      </trkpt>
      <trkpt lat="42.95298" lon="-0.01256">
        <ele>1135.4</ele>
        <time>2024-08-15T09:00:39Z</time>
      </trkpt>
      <trkpt lat="42.95295" lon="-0.0126">
        <ele>1134.8</ele>
        <time>2024-08-15T09:00:40Z</time>
      </trkpt>
      <trkpt lat="42.95292" lon="-0.01267">
        <ele>1134</ele>
        <time>2024-08-15T09:00:41Z</time>
      </trkpt>
      <trkpt lat="42.9529" lon="-0.01271">
        <ele>1133.2</ele>
        <time>2024-08-15T09:00:42Z</time>
      </trkpt>
      <trkpt lat="42.95289" lon="-0.01277">
        <ele>1132</ele>
        <time>2024-08-15T09:00:43Z</time>
      </trkpt>
      <trkpt lat="42.95288" lon="-0.01283">
        <ele>1131.6</ele>
        <time>2024-08-15T09:00:44Z</time>
      </trkpt>
      <trkpt lat="42.95288" lon="-0.01289">
        <ele>1130.6</ele>
        <time>2024-08-15T09:00:45Z</time>
      </trkpt>
      <trkpt lat="42.95288" lon="-0.01295">
        <ele>1130.2</ele>
        <time>2024-08-15T09:00:46Z</time>
      </trkpt>
      <trkpt lat="42.95287" lon="-0.013">
        <ele>1129.6</ele>
        <time>2024-08-15T09:00:47Z</time>
      </trkpt>
      <trkpt lat="42.95286" lon="-0.01305">
        <ele>1129.2</ele>
        <time>2024-08-15T09:00:48Z</time>
      </trkpt>
      <trkpt lat="42.95286" lon="-0.01309">
        <ele>1129</ele>
        <time>2024-08-15T09:00:49Z</time>
      </trkpt>
      <trkpt lat="42.95281" lon="-0.01317">
        <ele>1128.2</ele>
        <time>2024-08-15T09:00:51Z</time>
      </trkpt>
      <trkpt lat="42.95279" lon="-0.01321">
        <ele>1128</ele>
        <time>2024-08-15T09:00:52Z</time>
      </trkpt>
      <trkpt lat="42.95277" lon="-0.01324">
        <ele>1127.8</ele>
        <time>2024-08-15T09:00:53Z</time>
      </trkpt>
      <trkpt lat="42.95269" lon="-0.01334">
        <ele>1126.8</ele>
        <time>2024-08-15T09:00:56Z</time>
      </trkpt>
      <trkpt lat="42.95262" lon="-0.01342">
        <ele>1125.6</ele>
        <time>2024-08-15T09:00:58Z</time>
      </trkpt>
      <trkpt lat="42.95258" lon="-0.01346">
        <ele>1124.6</ele>
        <time>2024-08-15T09:00:59Z</time>
      </trkpt>
      <trkpt lat="42.95255" lon="-0.01349">
        <ele>1124.4</ele>
        <time>2024-08-15T09:01:00Z</time>
      </trkpt>
      <trkpt lat="42.95253" lon="-0.01352">
        <ele>1123.6</ele>
        <time>2024-08-15T09:01:01Z</time>
      </trkpt>
      <trkpt lat="42.95251" lon="-0.01355">
        <ele>1123.4</ele>
        <time>2024-08-15T09:01:02Z</time>
      </trkpt>
      <trkpt lat="42.95248" lon="-0.0136">
        <ele>1122</ele>
        <time>2024-08-15T09:01:03Z</time>
      </trkpt>
      <trkpt lat="42.95247" lon="-0.01366">
        <ele>1120.4</ele>
        <time>2024-08-15T09:01:04Z</time>
      </trkpt>
      <trkpt lat="42.95246" lon="-0.0137">
        <ele>1119.8</ele>
        <time>2024-08-15T09:01:05Z</time>
      </trkpt>
      <trkpt lat="42.95245" lon="-0.01375">
        <ele>1118.8</ele>
        <time>2024-08-15T09:01:06Z</time>
      </trkpt>
      <trkpt lat="42.95244" lon="-0.0138">
        <ele>1118.4</ele>
        <time>2024-08-15T09:01:07Z</time>
      </trkpt>
      <trkpt lat="42.95242" lon="-0.01384">
        <ele>1117.4</ele>
        <time>2024-08-15T09:01:08Z</time>
      </trkpt>
      <trkpt lat="42.9524" lon="-0.01388">
        <ele>1117.2</ele>
        <time>2024-08-15T09:01:09Z</time>
      </trkpt>
      <trkpt lat="42.95239" lon="-0.01391">
        <ele>1116.4</ele>
        <time>2024-08-15T09:01:10Z</time>
      </trkpt>
      <trkpt lat="42.95237" lon="-0.01393">
        <ele>1116</ele>
        <time>2024-08-15T09:01:11Z</time>
      </trkpt>
      <trkpt lat="42.95236" lon="-0.01395">
        <ele>1115.8</ele>
        <time>2024-08-15T09:01:12Z</time>
      </trkpt>
      <trkpt lat="42.95236" lon="-0.01395">
        <ele>1115.4</ele>
        <time>2024-08-15T09:01:13Z</time>
      </trkpt>
      <trkpt lat="42.95235" lon="-0.01396">
        <ele>1115.2</ele>
        <time>2024-08-15T09:01:14Z</time>
      </trkpt>
      <trkpt lat="42.95235" lon="-0.01397">
        <ele>1112.6</ele>
        <time>2024-08-15T09:01:32Z</time>
      </trkpt>
      <trkpt lat="42.95237" lon="-0.01397">
        <ele>1111.6</ele>
        <time>2024-08-15T09:01:34Z</time>
      </trkpt>
      <trkpt lat="42.95239" lon="-0.01397">
        <ele>1111.4</ele>
        <time>2024-08-15T09:01:35Z</time>
      </trkpt>
      <trkpt lat="42.95243" lon="-0.01395">
        <ele>1110.2</ele>
        <time>2024-08-15T09:01:39Z</time>
      </trkpt>
      <trkpt lat="42.95247" lon="-0.01393">
        <ele>1110.2</ele>
        <time>2024-08-15T09:01:43Z</time>
      </trkpt>
      <trkpt lat="42.95248" lon="-0.01392">
        <ele>1110.2</ele>
        <time>2024-08-15T09:01:44Z</time>
      </trkpt>
      <trkpt lat="42.95249" lon="-0.01392">
        <ele>1110.4</ele>
        <time>2024-08-15T09:01:45Z</time>
      </trkpt>
      <trkpt lat="42.95251" lon="-0.01391">
        <ele>1110.4</ele>
        <time>2024-08-15T09:01:47Z</time>
      </trkpt>
      <trkpt lat="42.95256" lon="-0.01407">
        <ele>1111.2</ele>
        <time>2024-08-15T09:02:03Z</time>
      </trkpt>
      <trkpt lat="42.95255" lon="-0.01408">
        <ele>1111.2</ele>
        <time>2024-08-15T09:02:04Z</time>
      </trkpt>
      <trkpt lat="42.95255" lon="-0.0141">
        <ele>1111.2</ele>
        <time>2024-08-15T09:02:05Z</time>
      </trkpt>
      <trkpt lat="42.95251" lon="-0.01422">
        <ele>1111.2</ele>
        <time>2024-08-15T09:02:10Z</time>
      </trkpt>
      <trkpt lat="42.9525" lon="-0.01426">
        <ele>1111.2</ele>
        <time>2024-08-15T09:02:11Z</time>
      </trkpt>
      <trkpt lat="42.95248" lon="-0.01434">
        <ele>1111.2</ele>
        <time>2024-08-15T09:02:13Z</time>
      </trkpt>
      <trkpt lat="42.95248" lon="-0.01438">
        <ele>1111.2</ele>
        <time>2024-08-15T09:02:14Z</time>
      </trkpt>
      <trkpt lat="42.95248" lon="-0.0144">
        <ele>1110.8</ele>
        <time>2024-08-15T09:02:15Z</time>
      </trkpt>
      <trkpt lat="42.95248" lon="-0.01442">
        <ele>1110.8</ele>
        <time>2024-08-15T09:02:16Z</time>
      </trkpt>
      <trkpt lat="42.95247" lon="-0.01444">
        <ele>1110.2</ele>
        <time>2024-08-15T09:02:17Z</time>
      </trkpt>
      <trkpt lat="42.95247" lon="-0.01446">
        <ele>1110</ele>
        <time>2024-08-15T09:02:18Z</time>
      </trkpt>
      <trkpt lat="42.95247" lon="-0.01449">
        <ele>1109.8</ele>
        <time>2024-08-15T09:02:19Z</time>
      </trkpt>
      <trkpt lat="42.95246" lon="-0.01455">
        <ele>1109.6</ele>
        <time>2024-08-15T09:02:21Z</time>
      </trkpt>
      <trkpt lat="42.95246" lon="-0.01458">
        <ele>1109.4</ele>
        <time>2024-08-15T09:02:22Z</time>
      </trkpt>
      <trkpt lat="42.95247" lon="-0.01461">
        <ele>1109.4</ele>
        <time>2024-08-15T09:02:23Z</time>
      </trkpt>
      <trkpt lat="42.95248" lon="-0.01463">
        <ele>1109.4</ele>
        <time>2024-08-15T09:02:24Z</time>
      </trkpt>
      <trkpt lat="42.95248" lon="-0.01465">
        <ele>1109.4</ele>
        <time>2024-08-15T09:02:25Z</time>
      </trkpt>
      <trkpt lat="42.95247" lon="-0.01467">
        <ele>1109.2</ele>
        <time>2024-08-15T09:02:26Z</time>
      </trkpt>
      <trkpt lat="42.95246" lon="-0.01468">
        <ele>1109.2</ele>
        <time>2024-08-15T09:02:27Z</time>
      </trkpt>
      <trkpt lat="42.95245" lon="-0.01471">
        <ele>1109</ele>
        <time>2024-08-15T09:02:28Z</time>
      </trkpt>
      <trkpt lat="42.95244" lon="-0.01476">
        <ele>1109</ele>
        <time>2024-08-15T09:02:30Z</time>
      </trkpt>
      <trkpt lat="42.95243" lon="-0.0148">
        <ele>1109</ele>
        <time>2024-08-15T09:02:31Z</time>
      </trkpt>
      <trkpt lat="42.95243" lon="-0.01483">
        <ele>1109</ele>
        <time>2024-08-15T09:02:32Z</time>
      </trkpt>
      <trkpt lat="42.95242" lon="-0.01487">
        <ele>1109</ele>
        <time>2024-08-15T09:02:33Z</time>
      </trkpt>
      <trkpt lat="42.95239" lon="-0.01493">
        <ele>1109</ele>
        <time>2024-08-15T09:02:35Z</time>
      </trkpt>
      <trkpt lat="42.95238" lon="-0.01496">
        <ele>1109</ele>
        <time>2024-08-15T09:02:36Z</time>
      </trkpt>
      <trkpt lat="42.95238" lon="-0.01498">
        <ele>1109</ele>
        <time>2024-08-15T09:02:37Z</time>
      </trkpt>
      <trkpt lat="42.95237" lon="-0.01501">
        <ele>1109</ele>
        <time>2024-08-15T09:02:38Z</time>
      </trkpt>
      <trkpt lat="42.95234" lon="-0.01508">
        <ele>1109</ele>
        <time>2024-08-15T09:02:41Z</time>
      </trkpt>
      <trkpt lat="42.95233" lon="-0.01511">
        <ele>1108.8</ele>
        <time>2024-08-15T09:02:42Z</time>
      </trkpt>
      <trkpt lat="42.95232" lon="-0.01513">
        <ele>1108.8</ele>
        <time>2024-08-15T09:02:43Z</time>
      </trkpt>
      <trkpt lat="42.95232" lon="-0.01516">
        <ele>1109</ele>
        <time>2024-08-15T09:02:44Z</time>
      </trkpt>
      <trkpt lat="42.95232" lon="-0.0152">
        <ele>1109</ele>
        <time>2024-08-15T09:02:46Z</time>
      </trkpt>
      <trkpt lat="42.95231" lon="-0.01523">
        <ele>1109</ele>
        <time>2024-08-15T09:02:47Z</time>
      </trkpt>
      <trkpt lat="42.95229" lon="-0.0153">
        <ele>1109</ele>
        <time>2024-08-15T09:02:49Z</time>
      </trkpt>
      <trkpt lat="42.95229" lon="-0.01532">
        <ele>1109</ele>
        <time>2024-08-15T09:02:50Z</time>
      </trkpt>
      <trkpt lat="42.95225" lon="-0.01548">
        <ele>1109</ele>
        <time>2024-08-15T09:02:55Z</time>
      </trkpt>
      <trkpt lat="42.95224" lon="-0.01551">
        <ele>1108.8</ele>
        <time>2024-08-15T09:02:56Z</time>
      </trkpt>
      <trkpt lat="42.95223" lon="-0.01554">
        <ele>1108.8</ele>
        <time>2024-08-15T09:02:57Z</time>
      </trkpt>
      <trkpt lat="42.95222" lon="-0.01556">
        <ele>1108.8</ele>
        <time>2024-08-15T09:02:58Z</time>
      </trkpt>
      <trkpt lat="42.95221" lon="-0.01558">
        <ele>1108.8</ele>
        <time>2024-08-15T09:02:59Z</time>
      </trkpt>
      <trkpt lat="42.95219" lon="-0.0156">
        <ele>1108.8</ele>
        <time>2024-08-15T09:03:00Z</time>
      </trkpt>
      <trkpt lat="42.95218" lon="-0.01561">
        <ele>1108.8</ele>
        <time>2024-08-15T09:03:01Z</time>
      </trkpt>
      <trkpt lat="42.95214" lon="-0.01564">
        <ele>1108.6</ele>
        <time>2024-08-15T09:03:03Z</time>
      </trkpt>
      <trkpt lat="42.95213" lon="-0.01565">
        <ele>1108.6</ele>
        <time>2024-08-15T09:03:04Z</time>
      </trkpt>
      <trkpt lat="42.95211" lon="-0.01566">
        <ele>1108.6</ele>
        <time>2024-08-15T09:03:05Z</time>
      </trkpt>
      <trkpt lat="42.95209" lon="-0.01567">
        <ele>1108.6</ele>
        <time>2024-08-15T09:03:06Z</time>
      </trkpt>
      <trkpt lat="42.95205" lon="-0.01569">
        <ele>1108.4</ele>
        <time>2024-08-15T09:03:08Z</time>
      </trkpt>
      <trkpt lat="42.95201" lon="-0.01573">
        <ele>1108</ele>
        <time>2024-08-15T09:03:10Z</time>
      </trkpt>
      <trkpt lat="42.95193" lon="-0.01577">
        <ele>1107.4</ele>
        <time>2024-08-15T09:03:13Z</time>
      </trkpt>
      <trkpt lat="42.95192" lon="-0.01578">
        <ele>1106.4</ele>
        <time>2024-08-15T09:03:14Z</time>
      </trkpt>
      <trkpt lat="42.95191" lon="-0.01578">
        <ele>1105.2</ele>
        <time>2024-08-15T09:03:15Z</time>
      </trkpt>
      <trkpt lat="42.9519" lon="-0.0158">
        <ele>1104.8</ele>
        <time>2024-08-15T09:03:16Z</time>
      </trkpt>
      <trkpt lat="42.95189" lon="-0.01582">
        <ele>1103.6</ele>
        <time>2024-08-15T09:03:17Z</time>
      </trkpt>
      <trkpt lat="42.95189" lon="-0.01582">
        <ele>1103.2</ele>
        <time>2024-08-15T09:03:18Z</time>
      </trkpt>
      <trkpt lat="42.95189" lon="-0.01583">
        <ele>1102.4</ele>
        <time>2024-08-15T09:03:19Z</time>
      </trkpt>
      <trkpt lat="42.95188" lon="-0.01586">
        <ele>1102.2</ele>
        <time>2024-08-15T09:03:20Z</time>
      </trkpt>
      <trkpt lat="42.95185" lon="-0.01594">
        <ele>1101.4</ele>
        <time>2024-08-15T09:03:23Z</time>
      </trkpt>
      <trkpt lat="42.95185" lon="-0.01596">
        <ele>1101.2</ele>
        <time>2024-08-15T09:03:24Z</time>
      </trkpt>
      <trkpt lat="42.95179" lon="-0.01615">
        <ele>1100.6</ele>
        <time>2024-08-15T09:03:30Z</time>
      </trkpt>
      <trkpt lat="42.95179" lon="-0.01619">
        <ele>1100.4</ele>
        <time>2024-08-15T09:03:31Z</time>
      </trkpt>
      <trkpt lat="42.95173" lon="-0.01633">
        <ele>1100.4</ele>
        <time>2024-08-15T09:03:34Z</time>
      </trkpt>
      <trkpt lat="42.95169" lon="-0.01639">
        <ele>1100.4</ele>
        <time>2024-08-15T09:03:36Z</time>
      </trkpt>
      <trkpt lat="42.95167" lon="-0.01644">
        <ele>1100.4</ele>
        <time>2024-08-15T09:03:37Z</time>
      </trkpt>
      <trkpt lat="42.95161" lon="-0.01654">
        <ele>1100.6</ele>
        <time>2024-08-15T09:03:40Z</time>
      </trkpt>
      <trkpt lat="42.95157" lon="-0.0166">
        <ele>1100.6</ele>
        <time>2024-08-15T09:03:42Z</time>
      </trkpt>
      <trkpt lat="42.95156" lon="-0.01663">
        <ele>1100.6</ele>
        <time>2024-08-15T09:03:43Z</time>
      </trkpt>
      <trkpt lat="42.95155" lon="-0.01666">
        <ele>1100.6</ele>
        <time>2024-08-15T09:03:44Z</time>
      </trkpt>
      <trkpt lat="42.95154" lon="-0.01669">
        <ele>1100.6</ele>
        <time>2024-08-15T09:03:45Z</time>
      </trkpt>
      <trkpt lat="42.95151" lon="-0.01674">
        <ele>1100.6</ele>
        <time>2024-08-15T09:03:47Z</time>
      </trkpt>
      <trkpt lat="42.95148" lon="-0.01677">
        <ele>1100.6</ele>
        <time>2024-08-15T09:03:48Z</time>
      </trkpt>
      <trkpt lat="42.95146" lon="-0.01681">
        <ele>1100.4</ele>
        <time>2024-08-15T09:03:49Z</time>
      </trkpt>
      <trkpt lat="42.95143" lon="-0.01683">
        <ele>1100.4</ele>
        <time>2024-08-15T09:03:50Z</time>
      </trkpt>
      <trkpt lat="42.95138" lon="-0.01695">
        <ele>1100.2</ele>
        <time>2024-08-15T09:03:54Z</time>
      </trkpt>
      <trkpt lat="42.95137" lon="-0.01696">
        <ele>1100.2</ele>
        <time>2024-08-15T09:03:55Z</time>
      </trkpt>
      <trkpt lat="42.9513" lon="-0.01705">
        <ele>1100</ele>
        <time>2024-08-15T09:03:58Z</time>
      </trkpt>
      <trkpt lat="42.95128" lon="-0.01707">
        <ele>1100</ele>
        <time>2024-08-15T09:03:59Z</time>
      </trkpt>
      <trkpt lat="42.95127" lon="-0.01709">
        <ele>1100</ele>
        <time>2024-08-15T09:04:00Z</time>
      </trkpt>
      <trkpt lat="42.95126" lon="-0.01713">
        <ele>1099.8</ele>
        <time>2024-08-15T09:04:01Z</time>
      </trkpt>
      <trkpt lat="42.95124" lon="-0.0172">
        <ele>1099.8</ele>
        <time>2024-08-15T09:04:04Z</time>
      </trkpt>
      <trkpt lat="42.95124" lon="-0.01723">
        <ele>1099.8</ele>
        <time>2024-08-15T09:04:05Z</time>
      </trkpt>
      <trkpt lat="42.95121" lon="-0.01729">
        <ele>1099.8</ele>
        <time>2024-08-15T09:04:07Z</time>
      </trkpt>
      <trkpt lat="42.9512" lon="-0.01731">
        <ele>1100</ele>
        <time>2024-08-15T09:04:08Z</time>
      </trkpt>
      <trkpt lat="42.9512" lon="-0.01733">
        <ele>1100</ele>
        <time>2024-08-15T09:04:09Z</time>
      </trkpt>
      <trkpt lat="42.95119" lon="-0.01737">
        <ele>1100</ele>
        <time>2024-08-15T09:04:11Z</time>
      </trkpt>
      <trkpt lat="42.95119" lon="-0.0174">
        <ele>1100</ele>
        <time>2024-08-15T09:04:12Z</time>
      </trkpt>
      <trkpt lat="42.95116" lon="-0.01749">
        <ele>1100</ele>
        <time>2024-08-15T09:04:15Z</time>
      </trkpt>
      <trkpt lat="42.95115" lon="-0.01756">
        <ele>1100</ele>
        <time>2024-08-15T09:04:17Z</time>
      </trkpt>
      <trkpt lat="42.95115" lon="-0.01758">
        <ele>1100</ele>
        <time>2024-08-15T09:04:18Z</time>
      </trkpt>
      <trkpt lat="42.95113" lon="-0.01759">
        <ele>1100</ele>
        <time>2024-08-15T09:04:19Z</time>
      </trkpt>
      <trkpt lat="42.95112" lon="-0.01761">
        <ele>1100.2</ele>
        <time>2024-08-15T09:04:20Z</time>
      </trkpt>
      <trkpt lat="42.9511" lon="-0.01763">
        <ele>1100.2</ele>
        <time>2024-08-15T09:04:21Z</time>
      </trkpt>
      <trkpt lat="42.95109" lon="-0.01766">
        <ele>1100.4</ele>
        <time>2024-08-15T09:04:22Z</time>
      </trkpt>
      <trkpt lat="42.95108" lon="-0.01768">
        <ele>1100.4</ele>
        <time>2024-08-15T09:04:23Z</time>
      </trkpt>
      <trkpt lat="42.95108" lon="-0.0177">
        <ele>1100.4</ele>
        <time>2024-08-15T09:04:24Z</time>
      </trkpt>
      <trkpt lat="42.95106" lon="-0.01773">
        <ele>1100.4</ele>
        <time>2024-08-15T09:04:25Z</time>
      </trkpt>
      <trkpt lat="42.95104" lon="-0.01784">
        <ele>1100.4</ele>
        <time>2024-08-15T09:04:28Z</time>
      </trkpt>
      <trkpt lat="42.95101" lon="-0.01803">
        <ele>1099.8</ele>
        <time>2024-08-15T09:04:33Z</time>
      </trkpt>
      <trkpt lat="42.95101" lon="-0.01807">
        <ele>1099.8</ele>
        <time>2024-08-15T09:04:34Z</time>
      </trkpt>
      <trkpt lat="42.951" lon="-0.01811">
        <ele>1099.8</ele>
        <time>2024-08-15T09:04:35Z</time>
      </trkpt>
      <trkpt lat="42.951" lon="-0.01815">
        <ele>1099.8</ele>
        <time>2024-08-15T09:04:36Z</time>
      </trkpt>
      <trkpt lat="42.951" lon="-0.01818">
        <ele>1099.6</ele>
        <time>2024-08-15T09:04:37Z</time>
      </trkpt>
      <trkpt lat="42.95099" lon="-0.01821">
        <ele>1099.6</ele>
        <time>2024-08-15T09:04:38Z</time>
      </trkpt>
      <trkpt lat="42.95099" lon="-0.01826">
        <ele>1099.2</ele>
        <time>2024-08-15T09:04:49Z</time>
      </trkpt>
      <trkpt lat="42.95098" lon="-0.01833">
        <ele>1099.2</ele>
        <time>2024-08-15T09:04:51Z</time>
      </trkpt>
      <trkpt lat="42.95091" lon="-0.01852">
        <ele>1099.2</ele>
        <time>2024-08-15T09:04:57Z</time>
      </trkpt>
      <trkpt lat="42.95083" lon="-0.01875">
        <ele>1099.2</ele>
        <time>2024-08-15T09:05:04Z</time>
      </trkpt>
      <trkpt lat="42.95082" lon="-0.01879">
        <ele>1099.2</ele>
        <time>2024-08-15T09:05:05Z</time>
      </trkpt>
      <trkpt lat="42.95081" lon="-0.01883">
        <ele>1099.2</ele>
        <time>2024-08-15T09:05:06Z</time>
      </trkpt>
      <trkpt lat="42.9508" lon="-0.01886">
        <ele>1099.2</ele>
        <time>2024-08-15T09:05:07Z</time>
      </trkpt>
      <trkpt lat="42.95079" lon="-0.01889">
        <ele>1099.2</ele>
        <time>2024-08-15T09:05:08Z</time>
      </trkpt>
      <trkpt lat="42.95077" lon="-0.01896">
        <ele>1099.2</ele>
        <time>2024-08-15T09:05:10Z</time>
      </trkpt>
      <trkpt lat="42.95075" lon="-0.01899">
        <ele>1099.2</ele>
        <time>2024-08-15T09:05:11Z</time>
      </trkpt>
      <trkpt lat="42.95074" lon="-0.01902">
        <ele>1099.2</ele>
        <time>2024-08-15T09:05:12Z</time>
      </trkpt>
      <trkpt lat="42.95072" lon="-0.01908">
        <ele>1099.2</ele>
        <time>2024-08-15T09:05:14Z</time>
      </trkpt>
      <trkpt lat="42.95072" lon="-0.01912">
        <ele>1099.2</ele>
        <time>2024-08-15T09:05:15Z</time>
      </trkpt>
      <trkpt lat="42.95071" lon="-0.01915">
        <ele>1099.2</ele>
        <time>2024-08-15T09:05:16Z</time>
      </trkpt>
      <trkpt lat="42.95069" lon="-0.01926">
        <ele>1099.2</ele>
        <time>2024-08-15T09:05:19Z</time>
      </trkpt>
      <trkpt lat="42.95069" lon="-0.01931">
        <ele>1099.2</ele>
        <time>2024-08-15T09:05:20Z</time>
      </trkpt>
      <trkpt lat="42.95068" lon="-0.01936">
        <ele>1099</ele>
        <time>2024-08-15T09:05:21Z</time>
      </trkpt>
      <trkpt lat="42.95067" lon="-0.01947">
        <ele>1099</ele>
        <time>2024-08-15T09:05:24Z</time>
      </trkpt>
      <trkpt lat="42.95067" lon="-0.01951">
        <ele>1099</ele>
        <time>2024-08-15T09:05:25Z</time>
      </trkpt>
      <trkpt lat="42.95066" lon="-0.01955">
        <ele>1099</ele>
        <time>2024-08-15T09:05:26Z</time>
      </trkpt>
      <trkpt lat="42.95067" lon="-0.01971">
        <ele>1098.6</ele>
        <time>2024-08-15T09:05:30Z</time>
      </trkpt>
      <trkpt lat="42.95067" lon="-0.01979">
        <ele>1098.6</ele>
        <time>2024-08-15T09:05:32Z</time>
      </trkpt>
      <trkpt lat="42.95067" lon="-0.01982">
        <ele>1098.6</ele>
        <time>2024-08-15T09:05:33Z</time>
      </trkpt>
      <trkpt lat="42.95065" lon="-0.01984">
        <ele>1098.6</ele>
        <time>2024-08-15T09:05:34Z</time>
      </trkpt>
      <trkpt lat="42.95064" lon="-0.01987">
        <ele>1098.6</ele>
        <time>2024-08-15T09:05:35Z</time>
      </trkpt>
      <trkpt lat="42.95062" lon="-0.01997">
        <ele>1098.6</ele>
        <time>2024-08-15T09:05:38Z</time>
      </trkpt>
      <trkpt lat="42.95061" lon="-0.01999">
        <ele>1098.6</ele>
        <time>2024-08-15T09:05:39Z</time>
      </trkpt>
      <trkpt lat="42.95057" lon="-0.02013">
        <ele>1098.6</ele>
        <time>2024-08-15T09:05:43Z</time>
      </trkpt>
      <trkpt lat="42.95054" lon="-0.02024">
        <ele>1098.4</ele>
        <time>2024-08-15T09:05:46Z</time>
      </trkpt>
      <trkpt lat="42.95048" lon="-0.02048">
        <ele>1098.4</ele>
        <time>2024-08-15T09:05:52Z</time>
      </trkpt>
      <trkpt lat="42.95046" lon="-0.02055">
        <ele>1098.6</ele>
        <time>2024-08-15T09:05:54Z</time>
      </trkpt>
      <trkpt lat="42.95041" lon="-0.02075">
        <ele>1098.2</ele>
        <time>2024-08-15T09:05:59Z</time>
      </trkpt>
      <trkpt lat="42.9504" lon="-0.02079">
        <ele>1098.2</ele>
        <time>2024-08-15T09:06:00Z</time>
      </trkpt>
      <trkpt lat="42.95038" lon="-0.02083">
        <ele>1098.2</ele>
        <time>2024-08-15T09:06:01Z</time>
      </trkpt>
      <trkpt lat="42.95037" lon="-0.02087">
        <ele>1098</ele>
        <time>2024-08-15T09:06:02Z</time>
      </trkpt>
      <trkpt lat="42.95036" lon="-0.0209">
        <ele>1098</ele>
        <time>2024-08-15T09:06:03Z</time>
      </trkpt>
      <trkpt lat="42.95035" lon="-0.02098">
        <ele>1098</ele>
        <time>2024-08-15T09:06:05Z</time>
      </trkpt>
      <trkpt lat="42.95033" lon="-0.02119">
        <ele>1098</ele>
        <time>2024-08-15T09:06:10Z</time>
      </trkpt>
      <trkpt lat="42.95034" lon="-0.02128">
        <ele>1098</ele>
        <time>2024-08-15T09:06:12Z</time>
      </trkpt>
      <trkpt lat="42.95034" lon="-0.02132">
        <ele>1097.8</ele>
        <time>2024-08-15T09:06:13Z</time>
      </trkpt>
      <trkpt lat="42.95033" lon="-0.02135">
        <ele>1097.8</ele>
        <time>2024-08-15T09:06:14Z</time>
      </trkpt>
      <trkpt lat="42.95033" lon="-0.02143">
        <ele>1098</ele>
        <time>2024-08-15T09:06:16Z</time>
      </trkpt>
      <trkpt lat="42.95035" lon="-0.02155">
        <ele>1098</ele>
        <time>2024-08-15T09:06:19Z</time>
      </trkpt>
      <trkpt lat="42.95037" lon="-0.02167">
        <ele>1098</ele>
        <time>2024-08-15T09:06:22Z</time>
      </trkpt>
      <trkpt lat="42.95039" lon="-0.02175">
        <ele>1098.2</ele>
        <time>2024-08-15T09:06:24Z</time>
      </trkpt>
      <trkpt lat="42.95041" lon="-0.0219">
        <ele>1098.2</ele>
        <time>2024-08-15T09:06:27Z</time>
      </trkpt>
      <trkpt lat="42.95042" lon="-0.02194">
        <ele>1098.2</ele>
        <time>2024-08-15T09:06:28Z</time>
      </trkpt>
      <trkpt lat="42.95042" lon="-0.02198">
        <ele>1098.2</ele>
        <time>2024-08-15T09:06:29Z</time>
      </trkpt>
      <trkpt lat="42.95043" lon="-0.02212">
        <ele>1098</ele>
        <time>2024-08-15T09:06:32Z</time>
      </trkpt>
      <trkpt lat="42.95042" lon="-0.02221">
        <ele>1097.8</ele>
        <time>2024-08-15T09:06:34Z</time>
      </trkpt>
      <trkpt lat="42.95042" lon="-0.02226">
        <ele>1097.8</ele>
        <time>2024-08-15T09:06:35Z</time>
      </trkpt>
      <trkpt lat="42.95041" lon="-0.02235">
        <ele>1097.8</ele>
        <time>2024-08-15T09:06:37Z</time>
      </trkpt>
      <trkpt lat="42.9504" lon="-0.02244">
        <ele>1097.6</ele>
        <time>2024-08-15T09:06:39Z</time>
      </trkpt>
      <trkpt lat="42.9504" lon="-0.02264">
        <ele>1097.6</ele>
        <time>2024-08-15T09:06:43Z</time>
      </trkpt>
      <trkpt lat="42.95039" lon="-0.02269">
        <ele>1097.6</ele>
        <time>2024-08-15T09:06:44Z</time>
      </trkpt>
      <trkpt lat="42.95039" lon="-0.02277">
        <ele>1097.6</ele>
        <time>2024-08-15T09:06:46Z</time>
      </trkpt>
      <trkpt lat="42.9504" lon="-0.0229">
        <ele>1097.6</ele>
        <time>2024-08-15T09:06:49Z</time>
      </trkpt>
      <trkpt lat="42.9504" lon="-0.02293">
        <ele>1097.8</ele>
        <time>2024-08-15T09:06:50Z</time>
      </trkpt>
      <trkpt lat="42.95041" lon="-0.02297">
        <ele>1097.8</ele>
        <time>2024-08-15T09:06:51Z</time>
      </trkpt>
      <trkpt lat="42.95041" lon="-0.02302">
        <ele>1097.6</ele>
        <time>2024-08-15T09:06:52Z</time>
      </trkpt>
      <trkpt lat="42.95042" lon="-0.0231">
        <ele>1097.6</ele>
        <time>2024-08-15T09:06:54Z</time>
      </trkpt>
      <trkpt lat="42.95043" lon="-0.02315">
        <ele>1097.6</ele>
        <time>2024-08-15T09:06:55Z</time>
      </trkpt>
      <trkpt lat="42.95044" lon="-0.02318">
        <ele>1097.4</ele>
        <time>2024-08-15T09:06:56Z</time>
      </trkpt>
      <trkpt lat="42.95045" lon="-0.02322">
        <ele>1097.4</ele>
        <time>2024-08-15T09:06:57Z</time>
      </trkpt>
      <trkpt lat="42.95046" lon="-0.02325">
        <ele>1097.4</ele>
        <time>2024-08-15T09:06:58Z</time>
      </trkpt>
      <trkpt lat="42.95047" lon="-0.02329">
        <ele>1097.4</ele>
        <time>2024-08-15T09:06:59Z</time>
      </trkpt>
      <trkpt lat="42.95056" lon="-0.02357">
        <ele>1097</ele>
        <time>2024-08-15T09:07:06Z</time>
      </trkpt>
      <trkpt lat="42.9506" lon="-0.02365">
        <ele>1097.2</ele>
        <time>2024-08-15T09:07:08Z</time>
      </trkpt>
      <trkpt lat="42.95061" lon="-0.02369">
        <ele>1097.4</ele>
        <time>2024-08-15T09:07:09Z</time>
      </trkpt>
      <trkpt lat="42.95062" lon="-0.02373">
        <ele>1097.2</ele>
        <time>2024-08-15T09:07:10Z</time>
      </trkpt>
      <trkpt lat="42.95064" lon="-0.02382">
        <ele>1097</ele>
        <time>2024-08-15T09:07:12Z</time>
      </trkpt>
      <trkpt lat="42.95064" lon="-0.02387">
        <ele>1097</ele>
        <time>2024-08-15T09:07:13Z</time>
      </trkpt>
      <trkpt lat="42.95065" lon="-0.02405">
        <ele>1097.2</ele>
        <time>2024-08-15T09:07:17Z</time>
      </trkpt>
      <trkpt lat="42.95065" lon="-0.02409">
        <ele>1097.4</ele>
        <time>2024-08-15T09:07:18Z</time>
      </trkpt>
      <trkpt lat="42.95065" lon="-0.02413">
        <ele>1097.4</ele>
        <time>2024-08-15T09:07:19Z</time>
      </trkpt>
      <trkpt lat="42.95065" lon="-0.02417">
        <ele>1097.4</ele>
        <time>2024-08-15T09:07:20Z</time>
      </trkpt>
      <trkpt lat="42.95066" lon="-0.02421">
        <ele>1097.4</ele>
        <time>2024-08-15T09:07:21Z</time>
      </trkpt>
      <trkpt lat="42.95066" lon="-0.02425">
        <ele>1097.4</ele>
        <time>2024-08-15T09:07:22Z</time>
      </trkpt>
      <trkpt lat="42.95072" lon="-0.02447">
        <ele>1097.4</ele>
        <time>2024-08-15T09:07:27Z</time>
      </trkpt>
      <trkpt lat="42.95075" lon="-0.02455">
        <ele>1097.4</ele>
        <time>2024-08-15T09:07:29Z</time>
      </trkpt>
      <trkpt lat="42.95076" lon="-0.02459">
        <ele>1097.4</ele>
        <time>2024-08-15T09:07:30Z</time>
      </trkpt>
      <trkpt lat="42.95077" lon="-0.02462">
        <ele>1097.4</ele>
        <time>2024-08-15T09:07:31Z</time>
      </trkpt>
      <trkpt lat="42.95077" lon="-0.02467">
        <ele>1097.2</ele>
        <time>2024-08-15T09:07:32Z</time>
      </trkpt>
      <trkpt lat="42.95078" lon="-0.02481">
        <ele>1097.2</ele>
        <time>2024-08-15T09:07:35Z</time>
      </trkpt>
      <trkpt lat="42.95077" lon="-0.02491">
        <ele>1097.2</ele>
        <time>2024-08-15T09:07:37Z</time>
      </trkpt>
      <trkpt lat="42.95076" lon="-0.02495">
        <ele>1097</ele>
        <time>2024-08-15T09:07:38Z</time>
      </trkpt>
      <trkpt lat="42.95076" lon="-0.02499">
        <ele>1097</ele>
        <time>2024-08-15T09:07:39Z</time>
      </trkpt>
      <trkpt lat="42.95076" lon="-0.02503">
        <ele>1097</ele>
        <time>2024-08-15T09:07:40Z</time>
      </trkpt>
      <trkpt lat="42.95076" lon="-0.02508">
        <ele>1097</ele>
        <time>2024-08-15T09:07:41Z</time>
      </trkpt>
      <trkpt lat="42.95078" lon="-0.02533">
        <ele>1097</ele>
        <time>2024-08-15T09:07:46Z</time>
      </trkpt>
      <trkpt lat="42.9508" lon="-0.02547">
        <ele>1096.8</ele>
        <time>2024-08-15T09:07:49Z</time>
      </trkpt>
      <trkpt lat="42.95082" lon="-0.02551">
        <ele>1096.8</ele>
        <time>2024-08-15T09:07:50Z</time>
      </trkpt>
      <trkpt lat="42.95087" lon="-0.0257">
        <ele>1097.4</ele>
        <time>2024-08-15T09:07:54Z</time>
      </trkpt>
      <trkpt lat="42.95089" lon="-0.02574">
        <ele>1097.2</ele>
        <time>2024-08-15T09:07:55Z</time>
      </trkpt>
      <trkpt lat="42.95091" lon="-0.02579">
        <ele>1097.4</ele>
        <time>2024-08-15T09:07:56Z</time>
      </trkpt>
      <trkpt lat="42.95093" lon="-0.02583">
        <ele>1097.4</ele>
        <time>2024-08-15T09:07:57Z</time>
      </trkpt>
      <trkpt lat="42.95095" lon="-0.02587">
        <ele>1097.4</ele>
        <time>2024-08-15T09:07:58Z</time>
      </trkpt>
      <trkpt lat="42.95096" lon="-0.0259">
        <ele>1097.2</ele>
        <time>2024-08-15T09:07:59Z</time>
      </trkpt>
      <trkpt lat="42.95101" lon="-0.02598">
        <ele>1097.2</ele>
        <time>2024-08-15T09:08:01Z</time>
      </trkpt>
      <trkpt lat="42.95106" lon="-0.02604">
        <ele>1097</ele>
        <time>2024-08-15T09:08:03Z</time>
      </trkpt>
      <trkpt lat="42.95108" lon="-0.02607">
        <ele>1097</ele>
        <time>2024-08-15T09:08:04Z</time>
      </trkpt>
      <trkpt lat="42.95117" lon="-0.02622">
        <ele>1096.8</ele>
        <time>2024-08-15T09:08:08Z</time>
      </trkpt>
      <trkpt lat="42.95119" lon="-0.02631">
        <ele>1096.6</ele>
        <time>2024-08-15T09:08:10Z</time>
      </trkpt>
      <trkpt lat="42.95119" lon="-0.02635">
        <ele>1096.6</ele>
        <time>2024-08-15T09:08:11Z</time>
      </trkpt>
      <trkpt lat="42.95119" lon="-0.0264">
        <ele>1096.6</ele>
        <time>2024-08-15T09:08:12Z</time>
      </trkpt>
      <trkpt lat="42.95119" lon="-0.02644">
        <ele>1096.4</ele>
        <time>2024-08-15T09:08:13Z</time>
      </trkpt>
      <trkpt lat="42.95119" lon="-0.02648">
        <ele>1096.4</ele>
        <time>2024-08-15T09:08:14Z</time>
      </trkpt>
      <trkpt lat="42.95118" lon="-0.02653">
        <ele>1096.4</ele>
        <time>2024-08-15T09:08:15Z</time>
      </trkpt>
      <trkpt lat="42.95116" lon="-0.02685">
        <ele>1096.6</ele>
        <time>2024-08-15T09:08:22Z</time>
      </trkpt>
      <trkpt lat="42.95117" lon="-0.0269">
        <ele>1096.6</ele>
        <time>2024-08-15T09:08:23Z</time>
      </trkpt>
      <trkpt lat="42.95118" lon="-0.02694">
        <ele>1096.6</ele>
        <time>2024-08-15T09:08:24Z</time>
      </trkpt>
      <trkpt lat="42.9512" lon="-0.02708">
        <ele>1096.4</ele>
        <time>2024-08-15T09:08:27Z</time>
      </trkpt>
      <trkpt lat="42.95122" lon="-0.02721">
        <ele>1096.2</ele>
        <time>2024-08-15T09:08:30Z</time>
      </trkpt>
      <trkpt lat="42.95123" lon="-0.02726">
        <ele>1096.2</ele>
        <time>2024-08-15T09:08:31Z</time>
      </trkpt>
      <trkpt lat="42.95125" lon="-0.02729">
        <ele>1096.2</ele>
        <time>2024-08-15T09:08:32Z</time>
      </trkpt>
      <trkpt lat="42.95127" lon="-0.02733">
        <ele>1096.2</ele>
        <time>2024-08-15T09:08:33Z</time>
      </trkpt>
      <trkpt lat="42.95128" lon="-0.02737">
        <ele>1096.2</ele>
        <time>2024-08-15T09:08:34Z</time>
      </trkpt>
      <trkpt lat="42.9513" lon="-0.0274">
        <ele>1096.2</ele>
        <time>2024-08-15T09:08:35Z</time>
      </trkpt>
      <trkpt lat="42.95136" lon="-0.02751">
        <ele>1095.8</ele>
        <time>2024-08-15T09:08:38Z</time>
      </trkpt>
      <trkpt lat="42.9514" lon="-0.02758">
        <ele>1095.8</ele>
        <time>2024-08-15T09:08:40Z</time>
      </trkpt>
      <trkpt lat="42.95142" lon="-0.02762">
        <ele>1095.8</ele>
        <time>2024-08-15T09:08:41Z</time>
      </trkpt>
      <trkpt lat="42.95144" lon="-0.02765">
        <ele>1095.8</ele>
        <time>2024-08-15T09:08:42Z</time>
      </trkpt>
      <trkpt lat="42.95145" lon="-0.02769">
        <ele>1095.8</ele>
        <time>2024-08-15T09:08:43Z</time>
      </trkpt>
      <trkpt lat="42.95147" lon="-0.02773">
        <ele>1095.8</ele>
        <time>2024-08-15T09:08:44Z</time>
      </trkpt>
      <trkpt lat="42.9515" lon="-0.02781">
        <ele>1095.8</ele>
        <time>2024-08-15T09:08:46Z</time>
      </trkpt>
      <trkpt lat="42.95153" lon="-0.02789">
        <ele>1095.8</ele>
        <time>2024-08-15T09:08:48Z</time>
      </trkpt>
      <trkpt lat="42.95155" lon="-0.02797">
        <ele>1095.8</ele>
        <time>2024-08-15T09:08:50Z</time>
      </trkpt>
      <trkpt lat="42.95157" lon="-0.02801">
        <ele>1096</ele>
        <time>2024-08-15T09:08:51Z</time>
      </trkpt>
      <trkpt lat="42.95159" lon="-0.02805">
        <ele>1096</ele>
        <time>2024-08-15T09:08:52Z</time>
      </trkpt>
      <trkpt lat="42.95161" lon="-0.02808">
        <ele>1096</ele>
        <time>2024-08-15T09:08:53Z</time>
      </trkpt>
      <trkpt lat="42.95164" lon="-0.02816">
        <ele>1096</ele>
        <time>2024-08-15T09:08:55Z</time>
      </trkpt>
      <trkpt lat="42.95169" lon="-0.02823">
        <ele>1096</ele>
        <time>2024-08-15T09:08:57Z</time>
      </trkpt>
      <trkpt lat="42.95171" lon="-0.02826">
        <ele>1096</ele>
        <time>2024-08-15T09:08:58Z</time>
      </trkpt>
      <trkpt lat="42.95176" lon="-0.02831">
        <ele>1096</ele>
        <time>2024-08-15T09:09:00Z</time>
      </trkpt>
      <trkpt lat="42.95181" lon="-0.02838">
        <ele>1095.8</ele>
        <time>2024-08-15T09:09:02Z</time>
      </trkpt>
      <trkpt lat="42.95187" lon="-0.02848">
        <ele>1095.6</ele>
        <time>2024-08-15T09:09:05Z</time>
      </trkpt>
      <trkpt lat="42.95189" lon="-0.02852">
        <ele>1095.6</ele>
        <time>2024-08-15T09:09:06Z</time>
      </trkpt>
      <trkpt lat="42.9519" lon="-0.02856">
        <ele>1095.6</ele>
        <time>2024-08-15T09:09:07Z</time>
      </trkpt>
      <trkpt lat="42.95191" lon="-0.02859">
        <ele>1095.6</ele>
        <time>2024-08-15T09:09:08Z</time>
      </trkpt>
      <trkpt lat="42.95193" lon="-0.02863">
        <ele>1095.4</ele>
        <time>2024-08-15T09:09:09Z</time>
      </trkpt>
      <trkpt lat="42.95194" lon="-0.02867">
        <ele>1095.2</ele>
        <time>2024-08-15T09:09:10Z</time>
      </trkpt>
      <trkpt lat="42.95198" lon="-0.02873">
        <ele>1095.2</ele>
        <time>2024-08-15T09:09:12Z</time>
      </trkpt>
      <trkpt lat="42.95203" lon="-0.02879">
        <ele>1095.2</ele>
        <time>2024-08-15T09:09:14Z</time>
      </trkpt>
      <trkpt lat="42.95208" lon="-0.02895">
        <ele>1095</ele>
        <time>2024-08-15T09:09:18Z</time>
      </trkpt>
      <trkpt lat="42.95209" lon="-0.02899">
        <ele>1095</ele>
        <time>2024-08-15T09:09:19Z</time>
      </trkpt>
      <trkpt lat="42.9521" lon="-0.02904">
        <ele>1095.2</ele>
        <time>2024-08-15T09:09:20Z</time>
      </trkpt>
      <trkpt lat="42.95217" lon="-0.02915">
        <ele>1095</ele>
        <time>2024-08-15T09:09:23Z</time>
      </trkpt>
      <trkpt lat="42.9522" lon="-0.02917">
        <ele>1095.2</ele>
        <time>2024-08-15T09:09:24Z</time>
      </trkpt>
      <trkpt lat="42.95222" lon="-0.0292">
        <ele>1095.2</ele>
        <time>2024-08-15T09:09:25Z</time>
      </trkpt>
      <trkpt lat="42.95227" lon="-0.02926">
        <ele>1095.2</ele>
        <time>2024-08-15T09:09:27Z</time>
      </trkpt>
      <trkpt lat="42.9523" lon="-0.02928">
        <ele>1095.2</ele>
        <time>2024-08-15T09:09:28Z</time>
      </trkpt>
      <trkpt lat="42.95237" lon="-0.02938">
        <ele>1095.2</ele>
        <time>2024-08-15T09:09:31Z</time>
      </trkpt>
      <trkpt lat="42.95242" lon="-0.02949">
        <ele>1095.4</ele>
        <time>2024-08-15T09:09:34Z</time>
      </trkpt>
      <trkpt lat="42.95246" lon="-0.02966">
        <ele>1095.4</ele>
        <time>2024-08-15T09:09:38Z</time>
      </trkpt>
      <trkpt lat="42.95248" lon="-0.02979">
        <ele>1095.4</ele>
        <time>2024-08-15T09:09:41Z</time>
      </trkpt>
      <trkpt lat="42.95249" lon="-0.02983">
        <ele>1095.4</ele>
        <time>2024-08-15T09:09:42Z</time>
      </trkpt>
      <trkpt lat="42.9525" lon="-0.02987">
        <ele>1095.2</ele>
        <time>2024-08-15T09:09:43Z</time>
      </trkpt>
      <trkpt lat="42.95252" lon="-0.02992">
        <ele>1095.2</ele>
        <time>2024-08-15T09:09:44Z</time>
      </trkpt>
      <trkpt lat="42.95253" lon="-0.02996">
        <ele>1095.2</ele>
        <time>2024-08-15T09:09:45Z</time>
      </trkpt>
      <trkpt lat="42.95254" lon="-0.03">
        <ele>1095.2</ele>
        <time>2024-08-15T09:09:46Z</time>
      </trkpt>
      <trkpt lat="42.95255" lon="-0.03005">
        <ele>1095.2</ele>
        <time>2024-08-15T09:09:47Z</time>
      </trkpt>
      <trkpt lat="42.95264" lon="-0.03032">
        <ele>1095.2</ele>
        <time>2024-08-15T09:09:53Z</time>
      </trkpt>
      <trkpt lat="42.95266" lon="-0.03037">
        <ele>1095</ele>
        <time>2024-08-15T09:09:54Z</time>
      </trkpt>
      <trkpt lat="42.95267" lon="-0.03041">
        <ele>1095</ele>
        <time>2024-08-15T09:09:55Z</time>
      </trkpt>
      <trkpt lat="42.95269" lon="-0.03045">
        <ele>1095</ele>
        <time>2024-08-15T09:09:56Z</time>
      </trkpt>
      <trkpt lat="42.95271" lon="-0.03049">
        <ele>1094.8</ele>
        <time>2024-08-15T09:09:57Z</time>
      </trkpt>
      <trkpt lat="42.95272" lon="-0.03052">
        <ele>1094.6</ele>
        <time>2024-08-15T09:09:58Z</time>
      </trkpt>
      <trkpt lat="42.95273" lon="-0.03053">
        <ele>1094.6</ele>
        <time>2024-08-15T09:09:59Z</time>
      </trkpt>
      <trkpt lat="42.95277" lon="-0.03059">
        <ele>1094.2</ele>
        <time>2024-08-15T09:10:35Z</time>
      </trkpt>
      <trkpt lat="42.95288" lon="-0.03069">
        <ele>1094.4</ele>
        <time>2024-08-15T09:10:40Z</time>
      </trkpt>
      <trkpt lat="42.95292" lon="-0.03074">
        <ele>1094.4</ele>
        <time>2024-08-15T09:10:42Z</time>
      </trkpt>
      <trkpt lat="42.95297" lon="-0.03083">
        <ele>1094.4</ele>
        <time>2024-08-15T09:10:45Z</time>
      </trkpt>
      <trkpt lat="42.95299" lon="-0.03087">
        <ele>1094.4</ele>
        <time>2024-08-15T09:10:46Z</time>
      </trkpt>
      <trkpt lat="42.953" lon="-0.0309">
        <ele>1094.4</ele>
        <time>2024-08-15T09:10:47Z</time>
      </trkpt>
      <trkpt lat="42.95312" lon="-0.03109">
        <ele>1094.4</ele>
        <time>2024-08-15T09:10:53Z</time>
      </trkpt>
      <trkpt lat="42.95315" lon="-0.03112">
        <ele>1094.4</ele>
        <time>2024-08-15T09:10:54Z</time>
      </trkpt>
      <trkpt lat="42.95322" lon="-0.03119">
        <ele>1094.4</ele>
        <time>2024-08-15T09:10:57Z</time>
      </trkpt>
      <trkpt lat="42.95324" lon="-0.03122">
        <ele>1094.4</ele>
        <time>2024-08-15T09:10:58Z</time>
      </trkpt>
      <trkpt lat="42.95326" lon="-0.03124">
        <ele>1094.4</ele>
        <time>2024-08-15T09:10:59Z</time>
      </trkpt>
      <trkpt lat="42.95331" lon="-0.03134">
        <ele>1094.6</ele>
        <time>2024-08-15T09:11:02Z</time>
      </trkpt>
      <trkpt lat="42.95332" lon="-0.03137">
        <ele>1094.6</ele>
        <time>2024-08-15T09:11:03Z</time>
      </trkpt>
      <trkpt lat="42.95334" lon="-0.03141">
        <ele>1094.6</ele>
        <time>2024-08-15T09:11:04Z</time>
      </trkpt>
      <trkpt lat="42.95335" lon="-0.03145">
        <ele>1094.8</ele>
        <time>2024-08-15T09:11:05Z</time>
      </trkpt>
      <trkpt lat="42.95346" lon="-0.03161">
        <ele>1094.8</ele>
        <time>2024-08-15T09:11:10Z</time>
      </trkpt>
      <trkpt lat="42.95348" lon="-0.03163">
        <ele>1094.8</ele>
        <time>2024-08-15T09:11:11Z</time>
      </trkpt>
      <trkpt lat="42.95351" lon="-0.03165">
        <ele>1094.8</ele>
        <time>2024-08-15T09:11:12Z</time>
      </trkpt>
      <trkpt lat="42.95353" lon="-0.03168">
        <ele>1094.8</ele>
        <time>2024-08-15T09:11:13Z</time>
      </trkpt>
      <trkpt lat="42.95362" lon="-0.03178">
        <ele>1094.6</ele>
        <time>2024-08-15T09:11:17Z</time>
      </trkpt>
      <trkpt lat="42.95364" lon="-0.0318">
        <ele>1094.6</ele>
        <time>2024-08-15T09:11:18Z</time>
      </trkpt>
      <trkpt lat="42.95367" lon="-0.03181">
        <ele>1094.6</ele>
        <time>2024-08-15T09:11:19Z</time>
      </trkpt>
      <trkpt lat="42.9537" lon="-0.03182">
        <ele>1094.6</ele>
        <time>2024-08-15T09:11:20Z</time>
      </trkpt>
      <trkpt lat="42.95373" lon="-0.03183">
        <ele>1094.6</ele>
        <time>2024-08-15T09:11:21Z</time>
      </trkpt>
      <trkpt lat="42.95379" lon="-0.03186">
        <ele>1094.6</ele>
        <time>2024-08-15T09:11:23Z</time>
      </trkpt>
      <trkpt lat="42.95381" lon="-0.03188">
        <ele>1094.6</ele>
        <time>2024-08-15T09:11:24Z</time>
      </trkpt>
      <trkpt lat="42.95384" lon="-0.03189">
        <ele>1094.6</ele>
        <time>2024-08-15T09:11:25Z</time>
      </trkpt>
      <trkpt lat="42.95386" lon="-0.03191">
        <ele>1094.6</ele>
        <time>2024-08-15T09:11:26Z</time>
      </trkpt>
      <trkpt lat="42.95389" lon="-0.03192">
        <ele>1094.6</ele>
        <time>2024-08-15T09:11:27Z</time>
      </trkpt>
      <trkpt lat="42.95391" lon="-0.03194">
        <ele>1094.6</ele>
        <time>2024-08-15T09:11:28Z</time>
      </trkpt>
      <trkpt lat="42.95393" lon="-0.03196">
        <ele>1094.4</ele>
        <time>2024-08-15T09:11:29Z</time>
      </trkpt>
      <trkpt lat="42.95394" lon="-0.03197">
        <ele>1094.4</ele>
        <time>2024-08-15T09:11:30Z</time>
      </trkpt>
      <trkpt lat="42.95406" lon="-0.03221">
        <ele>1094.2</ele>
        <time>2024-08-15T09:11:37Z</time>
      </trkpt>
      <trkpt lat="42.95409" lon="-0.03228">
        <ele>1094.2</ele>
        <time>2024-08-15T09:11:39Z</time>
      </trkpt>
      <trkpt lat="42.95418" lon="-0.03239">
        <ele>1094.2</ele>
        <time>2024-08-15T09:11:43Z</time>
      </trkpt>
      <trkpt lat="42.9542" lon="-0.03242">
        <ele>1094.2</ele>
        <time>2024-08-15T09:11:44Z</time>
      </trkpt>
      <trkpt lat="42.95422" lon="-0.03245">
        <ele>1094.2</ele>
        <time>2024-08-15T09:11:45Z</time>
      </trkpt>
      <trkpt lat="42.95427" lon="-0.03249">
        <ele>1094.2</ele>
        <time>2024-08-15T09:11:47Z</time>
      </trkpt>
      <trkpt lat="42.95429" lon="-0.03251">
        <ele>1094.2</ele>
        <time>2024-08-15T09:11:48Z</time>
      </trkpt>
      <trkpt lat="42.95432" lon="-0.03253">
        <ele>1094.2</ele>
        <time>2024-08-15T09:11:49Z</time>
      </trkpt>
      <trkpt lat="42.95437" lon="-0.03257">
        <ele>1094.2</ele>
        <time>2024-08-15T09:11:51Z</time>
      </trkpt>
      <trkpt lat="42.95439" lon="-0.03259">
        <ele>1094.2</ele>
        <time>2024-08-15T09:11:52Z</time>
      </trkpt>
      <trkpt lat="42.95442" lon="-0.0326">
        <ele>1094.2</ele>
        <time>2024-08-15T09:11:53Z</time>
      </trkpt>
      <trkpt lat="42.95444" lon="-0.03262">
        <ele>1094.2</ele>
        <time>2024-08-15T09:11:54Z</time>
      </trkpt>
      <trkpt lat="42.95446" lon="-0.03264">
        <ele>1094.2</ele>
        <time>2024-08-15T09:11:55Z</time>
      </trkpt>
      <trkpt lat="42.95447" lon="-0.03265">
        <ele>1094.2</ele>
        <time>2024-08-15T09:11:56Z</time>
      </trkpt>
      <trkpt lat="42.95449" lon="-0.03267">
        <ele>1094.2</ele>
        <time>2024-08-15T09:11:57Z</time>
      </trkpt>
      <trkpt lat="42.9545" lon="-0.03269">
        <ele>1094.2</ele>
        <time>2024-08-15T09:11:58Z</time>
      </trkpt>
      <trkpt lat="42.95452" lon="-0.0327">
        <ele>1094</ele>
        <time>2024-08-15T09:11:59Z</time>
      </trkpt>
      <trkpt lat="42.95459" lon="-0.03281">
        <ele>1093.8</ele>
        <time>2024-08-15T09:12:03Z</time>
      </trkpt>
      <trkpt lat="42.9546" lon="-0.03284">
        <ele>1093.8</ele>
        <time>2024-08-15T09:12:04Z</time>
      </trkpt>
      <trkpt lat="42.95462" lon="-0.03287">
        <ele>1093.8</ele>
        <time>2024-08-15T09:12:05Z</time>
      </trkpt>
      <trkpt lat="42.95463" lon="-0.03289">
        <ele>1093.6</ele>
        <time>2024-08-15T09:12:06Z</time>
      </trkpt>
      <trkpt lat="42.95467" lon="-0.03304">
        <ele>1093.6</ele>
        <time>2024-08-15T09:12:10Z</time>
      </trkpt>
      <trkpt lat="42.95467" lon="-0.03307">
        <ele>1094</ele>
        <time>2024-08-15T09:12:11Z</time>
      </trkpt>
      <trkpt lat="42.95473" lon="-0.03319">
        <ele>1094</ele>
        <time>2024-08-15T09:12:15Z</time>
      </trkpt>
      <trkpt lat="42.95476" lon="-0.0332">
        <ele>1094</ele>
        <time>2024-08-15T09:12:16Z</time>
      </trkpt>
      <trkpt lat="42.95478" lon="-0.03322">
        <ele>1094</ele>
        <time>2024-08-15T09:12:17Z</time>
      </trkpt>
      <trkpt lat="42.9548" lon="-0.03323">
        <ele>1094</ele>
        <time>2024-08-15T09:12:18Z</time>
      </trkpt>
      <trkpt lat="42.95482" lon="-0.03324">
        <ele>1094</ele>
        <time>2024-08-15T09:12:19Z</time>
      </trkpt>
      <trkpt lat="42.95488" lon="-0.03331">
        <ele>1094</ele>
        <time>2024-08-15T09:12:22Z</time>
      </trkpt>
      <trkpt lat="42.9549" lon="-0.03334">
        <ele>1094</ele>
        <time>2024-08-15T09:12:23Z</time>
      </trkpt>
      <trkpt lat="42.95491" lon="-0.03337">
        <ele>1094</ele>
        <time>2024-08-15T09:12:24Z</time>
      </trkpt>
      <trkpt lat="42.95492" lon="-0.0334">
        <ele>1094</ele>
        <time>2024-08-15T09:12:25Z</time>
      </trkpt>
      <trkpt lat="42.95494" lon="-0.03342">
        <ele>1094</ele>
        <time>2024-08-15T09:12:26Z</time>
      </trkpt>
      <trkpt lat="42.95494" lon="-0.03344">
        <ele>1094</ele>
        <time>2024-08-15T09:12:27Z</time>
      </trkpt>
      <trkpt lat="42.95495" lon="-0.03346">
        <ele>1094</ele>
        <time>2024-08-15T09:12:28Z</time>
      </trkpt>
      <trkpt lat="42.95494" lon="-0.03347">
        <ele>1093.8</ele>
        <time>2024-08-15T09:12:29Z</time>
      </trkpt>
      <trkpt lat="42.95494" lon="-0.0335">
        <ele>1093.8</ele>
        <time>2024-08-15T09:12:30Z</time>
      </trkpt>
      <trkpt lat="42.95494" lon="-0.03353">
        <ele>1093.8</ele>
        <time>2024-08-15T09:12:31Z</time>
      </trkpt>
      <trkpt lat="42.95495" lon="-0.03362">
        <ele>1093.8</ele>
        <time>2024-08-15T09:12:33Z</time>
      </trkpt>
      <trkpt lat="42.95495" lon="-0.03365">
        <ele>1093.6</ele>
        <time>2024-08-15T09:12:34Z</time>
      </trkpt>
      <trkpt lat="42.95496" lon="-0.03373">
        <ele>1093.6</ele>
        <time>2024-08-15T09:12:36Z</time>
      </trkpt>
      <trkpt lat="42.95495" lon="-0.03383">
        <ele>1093.6</ele>
        <time>2024-08-15T09:12:39Z</time>
      </trkpt>
      <trkpt lat="42.95495" lon="-0.03387">
        <ele>1093.6</ele>
        <time>2024-08-15T09:12:40Z</time>
      </trkpt>
      <trkpt lat="42.95495" lon="-0.03392">
        <ele>1093.6</ele>
        <time>2024-08-15T09:12:41Z</time>
      </trkpt>
      <trkpt lat="42.95491" lon="-0.03414">
        <ele>1093.6</ele>
        <time>2024-08-15T09:12:46Z</time>
      </trkpt>
      <trkpt lat="42.95491" lon="-0.03419">
        <ele>1093.6</ele>
        <time>2024-08-15T09:12:47Z</time>
      </trkpt>
      <trkpt lat="42.9549" lon="-0.03422">
        <ele>1093.6</ele>
        <time>2024-08-15T09:12:48Z</time>
      </trkpt>
      <trkpt lat="42.9549" lon="-0.03426">
        <ele>1093.6</ele>
        <time>2024-08-15T09:12:49Z</time>
      </trkpt>
      <trkpt lat="42.95487" lon="-0.0344">
        <ele>1093.6</ele>
        <time>2024-08-15T09:12:53Z</time>
      </trkpt>
      <trkpt lat="42.95486" lon="-0.03443">
        <ele>1093.8</ele>
        <time>2024-08-15T09:12:54Z</time>
      </trkpt>
      <trkpt lat="42.95485" lon="-0.03447">
        <ele>1093.8</ele>
        <time>2024-08-15T09:12:55Z</time>
      </trkpt>
      <trkpt lat="42.95485" lon="-0.03451">
        <ele>1093.8</ele>
        <time>2024-08-15T09:12:56Z</time>
      </trkpt>
      <trkpt lat="42.95484" lon="-0.03454">
        <ele>1093.8</ele>
        <time>2024-08-15T09:12:57Z</time>
      </trkpt>
      <trkpt lat="42.95482" lon="-0.03459">
        <ele>1093.8</ele>
        <time>2024-08-15T09:12:59Z</time>
      </trkpt>
      <trkpt lat="42.95478" lon="-0.03466">
        <ele>1093.6</ele>
        <time>2024-08-15T09:13:01Z</time>
      </trkpt>
      <trkpt lat="42.95476" lon="-0.03473">
        <ele>1093.8</ele>
        <time>2024-08-15T09:13:03Z</time>
      </trkpt>
      <trkpt lat="42.95475" lon="-0.03485">
        <ele>1093.6</ele>
        <time>2024-08-15T09:13:06Z</time>
      </trkpt>
      <trkpt lat="42.95475" lon="-0.03489">
        <ele>1093.6</ele>
        <time>2024-08-15T09:13:07Z</time>
      </trkpt>
      <trkpt lat="42.95476" lon="-0.03493">
        <ele>1093.4</ele>
        <time>2024-08-15T09:13:08Z</time>
      </trkpt>
      <trkpt lat="42.95477" lon="-0.03497">
        <ele>1093.4</ele>
        <time>2024-08-15T09:13:09Z</time>
      </trkpt>
      <trkpt lat="42.95478" lon="-0.03501">
        <ele>1093.2</ele>
        <time>2024-08-15T09:13:10Z</time>
      </trkpt>
      <trkpt lat="42.9548" lon="-0.03505">
        <ele>1093.2</ele>
        <time>2024-08-15T09:13:11Z</time>
      </trkpt>
      <trkpt lat="42.95482" lon="-0.03509">
        <ele>1093.2</ele>
        <time>2024-08-15T09:13:12Z</time>
      </trkpt>
      <trkpt lat="42.95483" lon="-0.03512">
        <ele>1093.2</ele>
        <time>2024-08-15T09:13:13Z</time>
      </trkpt>
      <trkpt lat="42.95483" lon="-0.03515">
        <ele>1093.2</ele>
        <time>2024-08-15T09:13:14Z</time>
      </trkpt>
      <trkpt lat="42.95485" lon="-0.03524">
        <ele>1093.2</ele>
        <time>2024-08-15T09:13:16Z</time>
      </trkpt>
      <trkpt lat="42.95486" lon="-0.03527">
        <ele>1093.2</ele>
        <time>2024-08-15T09:13:17Z</time>
      </trkpt>
      <trkpt lat="42.95486" lon="-0.0355">
        <ele>1093.2</ele>
        <time>2024-08-15T09:13:23Z</time>
      </trkpt>
      <trkpt lat="42.95485" lon="-0.03553">
        <ele>1093.2</ele>
        <time>2024-08-15T09:13:24Z</time>
      </trkpt>
      <trkpt lat="42.95483" lon="-0.03557">
        <ele>1093.2</ele>
        <time>2024-08-15T09:13:25Z</time>
      </trkpt>
      <trkpt lat="42.95481" lon="-0.03559">
        <ele>1093.2</ele>
        <time>2024-08-15T09:13:26Z</time>
      </trkpt>
      <trkpt lat="42.95479" lon="-0.03561">
        <ele>1093.2</ele>
        <time>2024-08-15T09:13:27Z</time>
      </trkpt>
      <trkpt lat="42.95477" lon="-0.03562">
        <ele>1093.2</ele>
        <time>2024-08-15T09:13:28Z</time>
      </trkpt>
      <trkpt lat="42.95475" lon="-0.03564">
        <ele>1093.2</ele>
        <time>2024-08-15T09:13:29Z</time>
      </trkpt>
      <trkpt lat="42.95472" lon="-0.03567">
        <ele>1093.2</ele>
        <time>2024-08-15T09:13:30Z</time>
      </trkpt>
      <trkpt lat="42.9547" lon="-0.03568">
        <ele>1093.2</ele>
        <time>2024-08-15T09:13:31Z</time>
      </trkpt>
      <trkpt lat="42.95469" lon="-0.0357">
        <ele>1093.4</ele>
        <time>2024-08-15T09:13:32Z</time>
      </trkpt>
      <trkpt lat="42.95466" lon="-0.03572">
        <ele>1093.4</ele>
        <time>2024-08-15T09:13:33Z</time>
      </trkpt>
      <trkpt lat="42.95463" lon="-0.03578">
        <ele>1093.4</ele>
        <time>2024-08-15T09:13:35Z</time>
      </trkpt>
      <trkpt lat="42.95462" lon="-0.03582">
        <ele>1093.4</ele>
        <time>2024-08-15T09:13:36Z</time>
      </trkpt>
      <trkpt lat="42.95463" lon="-0.03585">
        <ele>1093.4</ele>
        <time>2024-08-15T09:13:37Z</time>
      </trkpt>
      <trkpt lat="42.95464" lon="-0.0359">
        <ele>1093.4</ele>
        <time>2024-08-15T09:13:38Z</time>
      </trkpt>
      <trkpt lat="42.95466" lon="-0.03599">
        <ele>1093.2</ele>
        <time>2024-08-15T09:13:40Z</time>
      </trkpt>
      <trkpt lat="42.95468" lon="-0.03604">
        <ele>1093.2</ele>
        <time>2024-08-15T09:13:41Z</time>
      </trkpt>
      <trkpt lat="42.95471" lon="-0.03611">
        <ele>1093.2</ele>
        <time>2024-08-15T09:13:43Z</time>
      </trkpt>
      <trkpt lat="42.95473" lon="-0.03615">
        <ele>1093.2</ele>
        <time>2024-08-15T09:13:44Z</time>
      </trkpt>
      <trkpt lat="42.95474" lon="-0.03618">
        <ele>1093.2</ele>
        <time>2024-08-15T09:13:45Z</time>
      </trkpt>
      <trkpt lat="42.95478" lon="-0.03625">
        <ele>1093</ele>
        <time>2024-08-15T09:13:47Z</time>
      </trkpt>
      <trkpt lat="42.9548" lon="-0.03629">
        <ele>1093</ele>
        <time>2024-08-15T09:13:48Z</time>
      </trkpt>
      <trkpt lat="42.95487" lon="-0.03645">
        <ele>1093</ele>
        <time>2024-08-15T09:13:52Z</time>
      </trkpt>
      <trkpt lat="42.95492" lon="-0.03652">
        <ele>1092.8</ele>
        <time>2024-08-15T09:13:54Z</time>
      </trkpt>
      <trkpt lat="42.95494" lon="-0.03655">
        <ele>1092.8</ele>
        <time>2024-08-15T09:13:55Z</time>
      </trkpt>
      <trkpt lat="42.95499" lon="-0.03661">
        <ele>1092.8</ele>
        <time>2024-08-15T09:13:57Z</time>
      </trkpt>
      <trkpt lat="42.95505" lon="-0.0367">
        <ele>1092.6</ele>
        <time>2024-08-15T09:14:00Z</time>
      </trkpt>
      <trkpt lat="42.95507" lon="-0.03673">
        <ele>1092.6</ele>
        <time>2024-08-15T09:14:01Z</time>
      </trkpt>
      <trkpt lat="42.95517" lon="-0.03686">
        <ele>1092.4</ele>
        <time>2024-08-15T09:14:05Z</time>
      </trkpt>
      <trkpt lat="42.95519" lon="-0.03689">
        <ele>1092.4</ele>
        <time>2024-08-15T09:14:06Z</time>
      </trkpt>
      <trkpt lat="42.95521" lon="-0.03692">
        <ele>1092.4</ele>
        <time>2024-08-15T09:14:07Z</time>
      </trkpt>
      <trkpt lat="42.95524" lon="-0.03696">
        <ele>1092.2</ele>
        <time>2024-08-15T09:14:08Z</time>
      </trkpt>
      <trkpt lat="42.95526" lon="-0.03699">
        <ele>1092.2</ele>
        <time>2024-08-15T09:14:09Z</time>
      </trkpt>
      <trkpt lat="42.9553" lon="-0.03705">
        <ele>1092.4</ele>
        <time>2024-08-15T09:14:11Z</time>
      </trkpt>
      <trkpt lat="42.95534" lon="-0.0371">
        <ele>1092.4</ele>
        <time>2024-08-15T09:14:13Z</time>
      </trkpt>
      <trkpt lat="42.95536" lon="-0.03713">
        <ele>1092.4</ele>
        <time>2024-08-15T09:14:14Z</time>
      </trkpt>
      <trkpt lat="42.95538" lon="-0.03715">
        <ele>1092.4</ele>
        <time>2024-08-15T09:14:15Z</time>
      </trkpt>
      <trkpt lat="42.9554" lon="-0.03718">
        <ele>1092.4</ele>
        <time>2024-08-15T09:14:16Z</time>
      </trkpt>
      <trkpt lat="42.95548" lon="-0.03726">
        <ele>1092.6</ele>
        <time>2024-08-15T09:14:19Z</time>
      </trkpt>
      <trkpt lat="42.9555" lon="-0.03727">
        <ele>1092.6</ele>
        <time>2024-08-15T09:14:20Z</time>
      </trkpt>
      <trkpt lat="42.95553" lon="-0.03728">
        <ele>1092.6</ele>
        <time>2024-08-15T09:14:21Z</time>
      </trkpt>
      <trkpt lat="42.95556" lon="-0.03729">
        <ele>1092.6</ele>
        <time>2024-08-15T09:14:22Z</time>
      </trkpt>
      <trkpt lat="42.95559" lon="-0.03729">
        <ele>1092.6</ele>
        <time>2024-08-15T09:14:23Z</time>
      </trkpt>
      <trkpt lat="42.95561" lon="-0.0373">
        <ele>1092.6</ele>
        <time>2024-08-15T09:14:24Z</time>
      </trkpt>
      <trkpt lat="42.95563" lon="-0.03732">
        <ele>1092.6</ele>
        <time>2024-08-15T09:14:25Z</time>
      </trkpt>
      <trkpt lat="42.95566" lon="-0.03735">
        <ele>1092.6</ele>
        <time>2024-08-15T09:14:26Z</time>
      </trkpt>
      <trkpt lat="42.95567" lon="-0.03737">
        <ele>1092.8</ele>
        <time>2024-08-15T09:14:27Z</time>
      </trkpt>
      <trkpt lat="42.95569" lon="-0.0374">
        <ele>1092.8</ele>
        <time>2024-08-15T09:14:28Z</time>
      </trkpt>
      <trkpt lat="42.9557" lon="-0.03743">
        <ele>1092.6</ele>
        <time>2024-08-15T09:14:29Z</time>
      </trkpt>
      <trkpt lat="42.95577" lon="-0.03751">
        <ele>1092.6</ele>
        <time>2024-08-15T09:14:32Z</time>
      </trkpt>
      <trkpt lat="42.95581" lon="-0.03756">
        <ele>1092.8</ele>
        <time>2024-08-15T09:14:34Z</time>
      </trkpt>
      <trkpt lat="42.95583" lon="-0.03758">
        <ele>1092.8</ele>
        <time>2024-08-15T09:14:35Z</time>
      </trkpt>
      <trkpt lat="42.95584" lon="-0.0376">
        <ele>1092.8</ele>
        <time>2024-08-15T09:14:36Z</time>
      </trkpt>
      <trkpt lat="42.95585" lon="-0.03762">
        <ele>1092.8</ele>
        <time>2024-08-15T09:14:37Z</time>
      </trkpt>
      <trkpt lat="42.95585" lon="-0.03765">
        <ele>1092.6</ele>
        <time>2024-08-15T09:14:38Z</time>
      </trkpt>
      <trkpt lat="42.95585" lon="-0.03769">
        <ele>1092.6</ele>
        <time>2024-08-15T09:14:39Z</time>
      </trkpt>
      <trkpt lat="42.95583" lon="-0.03777">
        <ele>1092.6</ele>
        <time>2024-08-15T09:14:41Z</time>
      </trkpt>
      <trkpt lat="42.95582" lon="-0.03782">
        <ele>1092.6</ele>
        <time>2024-08-15T09:14:42Z</time>
      </trkpt>
      <trkpt lat="42.95581" lon="-0.03786">
        <ele>1092.6</ele>
        <time>2024-08-15T09:14:43Z</time>
      </trkpt>
      <trkpt lat="42.95581" lon="-0.03789">
        <ele>1092.6</ele>
        <time>2024-08-15T09:14:44Z</time>
      </trkpt>
      <trkpt lat="42.9558" lon="-0.03793">
        <ele>1092.6</ele>
        <time>2024-08-15T09:14:45Z</time>
      </trkpt>
      <trkpt lat="42.95581" lon="-0.03802">
        <ele>1092.4</ele>
        <time>2024-08-15T09:14:47Z</time>
      </trkpt>
      <trkpt lat="42.95582" lon="-0.03806">
        <ele>1092.4</ele>
        <time>2024-08-15T09:14:48Z</time>
      </trkpt>
      <trkpt lat="42.95583" lon="-0.0381">
        <ele>1092.4</ele>
        <time>2024-08-15T09:14:49Z</time>
      </trkpt>
      <trkpt lat="42.95584" lon="-0.03814">
        <ele>1092.4</ele>
        <time>2024-08-15T09:14:50Z</time>
      </trkpt>
      <trkpt lat="42.95585" lon="-0.03817">
        <ele>1092.4</ele>
        <time>2024-08-15T09:14:51Z</time>
      </trkpt>
      <trkpt lat="42.95585" lon="-0.03822">
        <ele>1092.2</ele>
        <time>2024-08-15T09:14:52Z</time>
      </trkpt>
      <trkpt lat="42.95584" lon="-0.03826">
        <ele>1092.2</ele>
        <time>2024-08-15T09:14:53Z</time>
      </trkpt>
      <trkpt lat="42.95584" lon="-0.0383">
        <ele>1092.2</ele>
        <time>2024-08-15T09:14:54Z</time>
      </trkpt>
      <trkpt lat="42.95583" lon="-0.03834">
        <ele>1092.2</ele>
        <time>2024-08-15T09:14:55Z</time>
      </trkpt>
      <trkpt lat="42.95583" lon="-0.03838">
        <ele>1092</ele>
        <time>2024-08-15T09:14:56Z</time>
      </trkpt>
      <trkpt lat="42.95582" lon="-0.03842">
        <ele>1092</ele>
        <time>2024-08-15T09:14:57Z</time>
      </trkpt>
      <trkpt lat="42.95582" lon="-0.03845">
        <ele>1092</ele>
        <time>2024-08-15T09:14:58Z</time>
      </trkpt>
      <trkpt lat="42.95583" lon="-0.03849">
        <ele>1092</ele>
        <time>2024-08-15T09:14:59Z</time>
      </trkpt>
      <trkpt lat="42.95584" lon="-0.03852">
        <ele>1092</ele>
        <time>2024-08-15T09:15:00Z</time>
      </trkpt>
      <trkpt lat="42.95586" lon="-0.03855">
        <ele>1092</ele>
        <time>2024-08-15T09:15:01Z</time>
      </trkpt>
      <trkpt lat="42.95588" lon="-0.03858">
        <ele>1092</ele>
        <time>2024-08-15T09:15:02Z</time>
      </trkpt>
      <trkpt lat="42.9559" lon="-0.03861">
        <ele>1092</ele>
        <time>2024-08-15T09:15:03Z</time>
      </trkpt>
      <trkpt lat="42.95592" lon="-0.03864">
        <ele>1091.8</ele>
        <time>2024-08-15T09:15:04Z</time>
      </trkpt>
      <trkpt lat="42.95598" lon="-0.03872">
        <ele>1091.8</ele>
        <time>2024-08-15T09:15:07Z</time>
      </trkpt>
      <trkpt lat="42.956" lon="-0.03876">
        <ele>1091.8</ele>
        <time>2024-08-15T09:15:08Z</time>
      </trkpt>
      <trkpt lat="42.95602" lon="-0.03882">
        <ele>1091.6</ele>
        <time>2024-08-15T09:15:10Z</time>
      </trkpt>
      <trkpt lat="42.95603" lon="-0.0389">
        <ele>1091.8</ele>
        <time>2024-08-15T09:15:12Z</time>
      </trkpt>
      <trkpt lat="42.95604" lon="-0.03893">
        <ele>1091.8</ele>
        <time>2024-08-15T09:15:13Z</time>
      </trkpt>
      <trkpt lat="42.95605" lon="-0.03897">
        <ele>1091.6</ele>
        <time>2024-08-15T09:15:14Z</time>
      </trkpt>
      <trkpt lat="42.95606" lon="-0.03909">
        <ele>1091.8</ele>
        <time>2024-08-15T09:15:17Z</time>
      </trkpt>
      <trkpt lat="42.95607" lon="-0.03912">
        <ele>1091.8</ele>
        <time>2024-08-15T09:15:18Z</time>
      </trkpt>
      <trkpt lat="42.95611" lon="-0.03923">
        <ele>1091.8</ele>
        <time>2024-08-15T09:15:21Z</time>
      </trkpt>
      <trkpt lat="42.95616" lon="-0.03942">
        <ele>1091.6</ele>
        <time>2024-08-15T09:15:26Z</time>
      </trkpt>
      <trkpt lat="42.95617" lon="-0.03946">
        <ele>1091.6</ele>
        <time>2024-08-15T09:15:27Z</time>
      </trkpt>
      <trkpt lat="42.9562" lon="-0.03954">
        <ele>1091.6</ele>
        <time>2024-08-15T09:15:29Z</time>
      </trkpt>
      <trkpt lat="42.95621" lon="-0.03957">
        <ele>1091.6</ele>
        <time>2024-08-15T09:15:30Z</time>
      </trkpt>
      <trkpt lat="42.95622" lon="-0.03961">
        <ele>1091.6</ele>
        <time>2024-08-15T09:15:31Z</time>
      </trkpt>
      <trkpt lat="42.95625" lon="-0.03972">
        <ele>1091.4</ele>
        <time>2024-08-15T09:15:34Z</time>
      </trkpt>
      <trkpt lat="42.95627" lon="-0.03976">
        <ele>1091.4</ele>
        <time>2024-08-15T09:15:35Z</time>
      </trkpt>
      <trkpt lat="42.95628" lon="-0.0398">
        <ele>1091.4</ele>
        <time>2024-08-15T09:15:36Z</time>
      </trkpt>
      <trkpt lat="42.95629" lon="-0.03983">
        <ele>1091.6</ele>
        <time>2024-08-15T09:15:37Z</time>
      </trkpt>
      <trkpt lat="42.95634" lon="-0.03998">
        <ele>1091.4</ele>
        <time>2024-08-15T09:15:41Z</time>
      </trkpt>
      <trkpt lat="42.95635" lon="-0.04001">
        <ele>1091.4</ele>
        <time>2024-08-15T09:15:42Z</time>
      </trkpt>
      <trkpt lat="42.95638" lon="-0.04008">
        <ele>1091.4</ele>
        <time>2024-08-15T09:15:44Z</time>
      </trkpt>
      <trkpt lat="42.95641" lon="-0.04015">
        <ele>1091.2</ele>
        <time>2024-08-15T09:15:46Z</time>
      </trkpt>
      <trkpt lat="42.95643" lon="-0.04018">
        <ele>1091.2</ele>
        <time>2024-08-15T09:15:47Z</time>
      </trkpt>
      <trkpt lat="42.95651" lon="-0.04029">
        <ele>1091.4</ele>
        <time>2024-08-15T09:15:51Z</time>
      </trkpt>
      <trkpt lat="42.95654" lon="-0.04032">
        <ele>1091.4</ele>
        <time>2024-08-15T09:15:52Z</time>
      </trkpt>
      <trkpt lat="42.95666" lon="-0.04045">
        <ele>1091.2</ele>
        <time>2024-08-15T09:15:57Z</time>
      </trkpt>
      <trkpt lat="42.95668" lon="-0.04049">
        <ele>1091</ele>
        <time>2024-08-15T09:15:58Z</time>
      </trkpt>
      <trkpt lat="42.9567" lon="-0.04052">
        <ele>1091</ele>
        <time>2024-08-15T09:15:59Z</time>
      </trkpt>
      <trkpt lat="42.95675" lon="-0.04062">
        <ele>1090.8</ele>
        <time>2024-08-15T09:16:02Z</time>
      </trkpt>
      <trkpt lat="42.95677" lon="-0.04065">
        <ele>1090.8</ele>
        <time>2024-08-15T09:16:03Z</time>
      </trkpt>
      <trkpt lat="42.95678" lon="-0.04069">
        <ele>1090.8</ele>
        <time>2024-08-15T09:16:04Z</time>
      </trkpt>
      <trkpt lat="42.9568" lon="-0.04072">
        <ele>1090.8</ele>
        <time>2024-08-15T09:16:05Z</time>
      </trkpt>
      <trkpt lat="42.95685" lon="-0.04077">
        <ele>1090.6</ele>
        <time>2024-08-15T09:16:07Z</time>
      </trkpt>
      <trkpt lat="42.95693" lon="-0.04089">
        <ele>1090.8</ele>
        <time>2024-08-15T09:16:11Z</time>
      </trkpt>
      <trkpt lat="42.95697" lon="-0.04096">
        <ele>1090.8</ele>
        <time>2024-08-15T09:16:13Z</time>
      </trkpt>
      <trkpt lat="42.95698" lon="-0.041">
        <ele>1091</ele>
        <time>2024-08-15T09:16:14Z</time>
      </trkpt>
      <trkpt lat="42.957" lon="-0.04103">
        <ele>1091</ele>
        <time>2024-08-15T09:16:15Z</time>
      </trkpt>
      <trkpt lat="42.95704" lon="-0.0411">
        <ele>1090.8</ele>
        <time>2024-08-15T09:16:17Z</time>
      </trkpt>
      <trkpt lat="42.95705" lon="-0.04113">
        <ele>1090.8</ele>
        <time>2024-08-15T09:16:18Z</time>
      </trkpt>
      <trkpt lat="42.95707" lon="-0.04116">
        <ele>1090.8</ele>
        <time>2024-08-15T09:16:19Z</time>
      </trkpt>
      <trkpt lat="42.95707" lon="-0.04118">
        <ele>1090.8</ele>
        <time>2024-08-15T09:16:20Z</time>
      </trkpt>
      <trkpt lat="42.95707" lon="-0.04119">
        <ele>1090.8</ele>
        <time>2024-08-15T09:16:21Z</time>
      </trkpt>
      <trkpt lat="42.95707" lon="-0.0412">
        <ele>1091.2</ele>
        <time>2024-08-15T09:16:32Z</time>
      </trkpt>
      <trkpt lat="42.95708" lon="-0.04121">
        <ele>1091</ele>
        <time>2024-08-15T09:16:33Z</time>
      </trkpt>
      <trkpt lat="42.95709" lon="-0.04125">
        <ele>1091</ele>
        <time>2024-08-15T09:16:35Z</time>
      </trkpt>
      <trkpt lat="42.95712" lon="-0.04131">
        <ele>1091</ele>
        <time>2024-08-15T09:16:37Z</time>
      </trkpt>
      <trkpt lat="42.95714" lon="-0.04133">
        <ele>1091</ele>
        <time>2024-08-15T09:16:38Z</time>
      </trkpt>
      <trkpt lat="42.95716" lon="-0.04136">
        <ele>1091.2</ele>
        <time>2024-08-15T09:16:39Z</time>
      </trkpt>
      <trkpt lat="42.95718" lon="-0.04138">
        <ele>1091.2</ele>
        <time>2024-08-15T09:16:40Z</time>
      </trkpt>
      <trkpt lat="42.9572" lon="-0.04141">
        <ele>1091.2</ele>
        <time>2024-08-15T09:16:41Z</time>
      </trkpt>
      <trkpt lat="42.95721" lon="-0.04143">
        <ele>1091.2</ele>
        <time>2024-08-15T09:16:42Z</time>
      </trkpt>
      <trkpt lat="42.95723" lon="-0.04146">
        <ele>1091</ele>
        <time>2024-08-15T09:16:43Z</time>
      </trkpt>
      <trkpt lat="42.95724" lon="-0.04148">
        <ele>1091</ele>
        <time>2024-08-15T09:16:44Z</time>
      </trkpt>
      <trkpt lat="42.95726" lon="-0.04149">
        <ele>1091</ele>
        <time>2024-08-15T09:16:45Z</time>
      </trkpt>
      <trkpt lat="42.95728" lon="-0.04151">
        <ele>1090.8</ele>
        <time>2024-08-15T09:16:46Z</time>
      </trkpt>
      <trkpt lat="42.95729" lon="-0.04152">
        <ele>1090.8</ele>
        <time>2024-08-15T09:16:47Z</time>
      </trkpt>
      <trkpt lat="42.95729" lon="-0.04152">
        <ele>1090.8</ele>
        <time>2024-08-15T09:16:48Z</time>
      </trkpt>
      <trkpt lat="42.9573" lon="-0.04152">
        <ele>1090.8</ele>
        <time>2024-08-15T09:16:49Z</time>
      </trkpt>
      <trkpt lat="42.95731" lon="-0.04152">
        <ele>1090.8</ele>
        <time>2024-08-15T09:16:50Z</time>
      </trkpt>
      <trkpt lat="42.95732" lon="-0.04152">
        <ele>1090.8</ele>
        <time>2024-08-15T09:16:51Z</time>
      </trkpt>
      <trkpt lat="42.95733" lon="-0.04152">
        <ele>1090.8</ele>
        <time>2024-08-15T09:16:52Z</time>
      </trkpt>
      <trkpt lat="42.95733" lon="-0.04153">
        <ele>1091.2</ele>
        <time>2024-08-15T09:17:01Z</time>
      </trkpt>
      <trkpt lat="42.95733" lon="-0.04153">
        <ele>1091.4</ele>
        <time>2024-08-15T09:17:02Z</time>
      </trkpt>
      <trkpt lat="42.95733" lon="-0.04153">
        <ele>1091.2</ele>
        <time>2024-08-15T09:17:04Z</time>
      </trkpt>
      <trkpt lat="42.95733" lon="-0.04151">
        <ele>1090.4</ele>
        <time>2024-08-15T09:17:58Z</time>
      </trkpt>
      <trkpt lat="42.95734" lon="-0.04152">
        <ele>1090.4</ele>
        <time>2024-08-15T09:18:00Z</time>
      </trkpt>
      <trkpt lat="42.95735" lon="-0.04152">
        <ele>1090.4</ele>
        <time>2024-08-15T09:18:01Z</time>
      </trkpt>
      <trkpt lat="42.95736" lon="-0.04153">
        <ele>1090.6</ele>
        <time>2024-08-15T09:18:02Z</time>
      </trkpt>
      <trkpt lat="42.95739" lon="-0.04153">
        <ele>1091.2</ele>
        <time>2024-08-15T09:18:05Z</time>
      </trkpt>
      <trkpt lat="42.9574" lon="-0.04154">
        <ele>1091.6</ele>
        <time>2024-08-15T09:18:06Z</time>
      </trkpt>
      <trkpt lat="42.95742" lon="-0.04154">
        <ele>1092</ele>
        <time>2024-08-15T09:18:08Z</time>
      </trkpt>
      <trkpt lat="42.95744" lon="-0.04155">
        <ele>1092.6</ele>
        <time>2024-08-15T09:18:10Z</time>
      </trkpt>
      <trkpt lat="42.95745" lon="-0.04155">
        <ele>1093</ele>
        <time>2024-08-15T09:18:11Z</time>
      </trkpt>
      <trkpt lat="42.95746" lon="-0.04156">
        <ele>1093.4</ele>
        <time>2024-08-15T09:18:12Z</time>
      </trkpt>
      <trkpt lat="42.95747" lon="-0.04157">
        <ele>1093.8</ele>
        <time>2024-08-15T09:18:13Z</time>
      </trkpt>
      <trkpt lat="42.95748" lon="-0.04158">
        <ele>1094.2</ele>
        <time>2024-08-15T09:18:14Z</time>
      </trkpt>
      <trkpt lat="42.9575" lon="-0.0416">
        <ele>1094.8</ele>
        <time>2024-08-15T09:18:16Z</time>
      </trkpt>
      <trkpt lat="42.95751" lon="-0.04162">
        <ele>1095.2</ele>
        <time>2024-08-15T09:18:17Z</time>
      </trkpt>
      <trkpt lat="42.95752" lon="-0.04163">
        <ele>1095.4</ele>
        <time>2024-08-15T09:18:18Z</time>
      </trkpt>
      <trkpt lat="42.95753" lon="-0.04164">
        <ele>1095.8</ele>
        <time>2024-08-15T09:18:19Z</time>
      </trkpt>
      <trkpt lat="42.95754" lon="-0.04165">
        <ele>1096</ele>
        <time>2024-08-15T09:18:20Z</time>
      </trkpt>
      <trkpt lat="42.95755" lon="-0.04165">
        <ele>1096.2</ele>
        <time>2024-08-15T09:18:21Z</time>
      </trkpt>
      <trkpt lat="42.95756" lon="-0.04166">
        <ele>1096.4</ele>
        <time>2024-08-15T09:18:22Z</time>
      </trkpt>
      <trkpt lat="42.95757" lon="-0.04167">
        <ele>1096.4</ele>
        <time>2024-08-15T09:18:23Z</time>
      </trkpt>
      <trkpt lat="42.95759" lon="-0.04167">
        <ele>1096.8</ele>
        <time>2024-08-15T09:18:24Z</time>
      </trkpt>
      <trkpt lat="42.9576" lon="-0.04168">
        <ele>1097</ele>
        <time>2024-08-15T09:18:25Z</time>
      </trkpt>
      <trkpt lat="42.9576" lon="-0.0417">
        <ele>1097.2</ele>
        <time>2024-08-15T09:18:26Z</time>
      </trkpt>
      <trkpt lat="42.95761" lon="-0.04172">
        <ele>1097.4</ele>
        <time>2024-08-15T09:18:27Z</time>
      </trkpt>
      <trkpt lat="42.95762" lon="-0.04173">
        <ele>1097.6</ele>
        <time>2024-08-15T09:18:28Z</time>
      </trkpt>
      <trkpt lat="42.95763" lon="-0.04174">
        <ele>1097.8</ele>
        <time>2024-08-15T09:18:29Z</time>
      </trkpt>
      <trkpt lat="42.95764" lon="-0.04174">
        <ele>1098.2</ele>
        <time>2024-08-15T09:18:30Z</time>
      </trkpt>
      <trkpt lat="42.95765" lon="-0.04176">
        <ele>1098.4</ele>
        <time>2024-08-15T09:18:31Z</time>
      </trkpt>
      <trkpt lat="42.95766" lon="-0.04176">
        <ele>1098.6</ele>
        <time>2024-08-15T09:18:32Z</time>
      </trkpt>
      <trkpt lat="42.95766" lon="-0.04177">
        <ele>1099</ele>
        <time>2024-08-15T09:18:33Z</time>
      </trkpt>
      <trkpt lat="42.95767" lon="-0.04179">
        <ele>1099.2</ele>
        <time>2024-08-15T09:18:34Z</time>
      </trkpt>
      <trkpt lat="42.95768" lon="-0.0418">
        <ele>1099.6</ele>
        <time>2024-08-15T09:18:35Z</time>
      </trkpt>
      <trkpt lat="42.95769" lon="-0.04182">
        <ele>1100</ele>
        <time>2024-08-15T09:18:36Z</time>
      </trkpt>
      <trkpt lat="42.9577" lon="-0.04183">
        <ele>1100</ele>
        <time>2024-08-15T09:18:37Z</time>
      </trkpt>
      <trkpt lat="42.95771" lon="-0.04184">
        <ele>1100.4</ele>
        <time>2024-08-15T09:18:38Z</time>
      </trkpt>
      <trkpt lat="42.95772" lon="-0.04185">
        <ele>1100.4</ele>
        <time>2024-08-15T09:18:39Z</time>
      </trkpt>
      <trkpt lat="42.95773" lon="-0.04186">
        <ele>1100.6</ele>
        <time>2024-08-15T09:18:40Z</time>
      </trkpt>
      <trkpt lat="42.95774" lon="-0.04188">
        <ele>1100.6</ele>
        <time>2024-08-15T09:18:41Z</time>
      </trkpt>
      <trkpt lat="42.95775" lon="-0.04189">
        <ele>1100.6</ele>
        <time>2024-08-15T09:18:42Z</time>
      </trkpt>
      <trkpt lat="42.95776" lon="-0.0419">
        <ele>1100.6</ele>
        <time>2024-08-15T09:18:43Z</time>
      </trkpt>
      <trkpt lat="42.95777" lon="-0.04191">
        <ele>1101</ele>
        <time>2024-08-15T09:18:44Z</time>
      </trkpt>
      <trkpt lat="42.95778" lon="-0.04193">
        <ele>1101</ele>
        <time>2024-08-15T09:18:45Z</time>
      </trkpt>
      <trkpt lat="42.95779" lon="-0.04194">
        <ele>1101.4</ele>
        <time>2024-08-15T09:18:46Z</time>
      </trkpt>
      <trkpt lat="42.9578" lon="-0.04195">
        <ele>1101.6</ele>
        <time>2024-08-15T09:18:47Z</time>
      </trkpt>
      <trkpt lat="42.95781" lon="-0.04196">
        <ele>1101.8</ele>
        <time>2024-08-15T09:18:48Z</time>
      </trkpt>
      <trkpt lat="42.95782" lon="-0.04197">
        <ele>1101.8</ele>
        <time>2024-08-15T09:18:49Z</time>
      </trkpt>
      <trkpt lat="42.95783" lon="-0.04197">
        <ele>1102</ele>
        <time>2024-08-15T09:18:50Z</time>
      </trkpt>
      <trkpt lat="42.95784" lon="-0.04198">
        <ele>1102.4</ele>
        <time>2024-08-15T09:18:51Z</time>
      </trkpt>
      <trkpt lat="42.95784" lon="-0.04199">
        <ele>1102.6</ele>
        <time>2024-08-15T09:18:52Z</time>
      </trkpt>
      <trkpt lat="42.95785" lon="-0.042">
        <ele>1102.8</ele>
        <time>2024-08-15T09:18:53Z</time>
      </trkpt>
      <trkpt lat="42.95786" lon="-0.04202">
        <ele>1103</ele>
        <time>2024-08-15T09:18:54Z</time>
      </trkpt>
      <trkpt lat="42.95786" lon="-0.04203">
        <ele>1103</ele>
        <time>2024-08-15T09:18:55Z</time>
      </trkpt>
      <trkpt lat="42.95787" lon="-0.04204">
        <ele>1103.4</ele>
        <time>2024-08-15T09:18:56Z</time>
      </trkpt>
      <trkpt lat="42.95788" lon="-0.04205">
        <ele>1103.4</ele>
        <time>2024-08-15T09:18:57Z</time>
      </trkpt>
      <trkpt lat="42.95789" lon="-0.04206">
        <ele>1103.6</ele>
        <time>2024-08-15T09:18:58Z</time>
      </trkpt>
      <trkpt lat="42.9579" lon="-0.04207">
        <ele>1103.8</ele>
        <time>2024-08-15T09:18:59Z</time>
      </trkpt>
      <trkpt lat="42.95791" lon="-0.04208">
        <ele>1104.2</ele>
        <time>2024-08-15T09:19:00Z</time>
      </trkpt>
      <trkpt lat="42.95792" lon="-0.04209">
        <ele>1104.4</ele>
        <time>2024-08-15T09:19:01Z</time>
      </trkpt>
      <trkpt lat="42.95793" lon="-0.0421">
        <ele>1104.4</ele>
        <time>2024-08-15T09:19:02Z</time>
      </trkpt>
      <trkpt lat="42.95794" lon="-0.04211">
        <ele>1104.6</ele>
        <time>2024-08-15T09:19:03Z</time>
      </trkpt>
      <trkpt lat="42.95795" lon="-0.04212">
        <ele>1104.6</ele>
        <time>2024-08-15T09:19:04Z</time>
      </trkpt>
      <trkpt lat="42.95796" lon="-0.04213">
        <ele>1104.6</ele>
        <time>2024-08-15T09:19:05Z</time>
      </trkpt>
      <trkpt lat="42.95796" lon="-0.04214">
        <ele>1104.8</ele>
        <time>2024-08-15T09:19:06Z</time>
      </trkpt>
      <trkpt lat="42.95797" lon="-0.04215">
        <ele>1105</ele>
        <time>2024-08-15T09:19:07Z</time>
      </trkpt>
      <trkpt lat="42.95798" lon="-0.04216">
        <ele>1105.2</ele>
        <time>2024-08-15T09:19:08Z</time>
      </trkpt>
      <trkpt lat="42.95799" lon="-0.04217">
        <ele>1105.2</ele>
        <time>2024-08-15T09:19:09Z</time>
      </trkpt>
      <trkpt lat="42.958" lon="-0.04218">
        <ele>1105.4</ele>
        <time>2024-08-15T09:19:10Z</time>
      </trkpt>
      <trkpt lat="42.95801" lon="-0.04219">
        <ele>1105.6</ele>
        <time>2024-08-15T09:19:11Z</time>
      </trkpt>
      <trkpt lat="42.95801" lon="-0.0422">
        <ele>1105.8</ele>
        <time>2024-08-15T09:19:12Z</time>
      </trkpt>
      <trkpt lat="42.95802" lon="-0.04221">
        <ele>1105.8</ele>
        <time>2024-08-15T09:19:13Z</time>
      </trkpt>
      <trkpt lat="42.95803" lon="-0.04222">
        <ele>1106</ele>
        <time>2024-08-15T09:19:14Z</time>
      </trkpt>
      <trkpt lat="42.95804" lon="-0.04223">
        <ele>1106</ele>
        <time>2024-08-15T09:19:15Z</time>
      </trkpt>
      <trkpt lat="42.95805" lon="-0.04224">
        <ele>1106.6</ele>
        <time>2024-08-15T09:19:16Z</time>
      </trkpt>
      <trkpt lat="42.95806" lon="-0.04225">
        <ele>1106.8</ele>
        <time>2024-08-15T09:19:17Z</time>
      </trkpt>
      <trkpt lat="42.95806" lon="-0.04226">
        <ele>1107</ele>
        <time>2024-08-15T09:19:18Z</time>
      </trkpt>
      <trkpt lat="42.95807" lon="-0.04226">
        <ele>1107.2</ele>
        <time>2024-08-15T09:19:19Z</time>
      </trkpt>
      <trkpt lat="42.95808" lon="-0.04228">
        <ele>1107.2</ele>
        <time>2024-08-15T09:19:20Z</time>
      </trkpt>
      <trkpt lat="42.95809" lon="-0.04229">
        <ele>1107.4</ele>
        <time>2024-08-15T09:19:21Z</time>
      </trkpt>
      <trkpt lat="42.9581" lon="-0.0423">
        <ele>1107.4</ele>
        <time>2024-08-15T09:19:22Z</time>
      </trkpt>
      <trkpt lat="42.9581" lon="-0.04231">
        <ele>1107.6</ele>
        <time>2024-08-15T09:19:23Z</time>
      </trkpt>
      <trkpt lat="42.95812" lon="-0.04231">
        <ele>1107.8</ele>
        <time>2024-08-15T09:19:24Z</time>
      </trkpt>
      <trkpt lat="42.95813" lon="-0.04232">
        <ele>1107.8</ele>
        <time>2024-08-15T09:19:25Z</time>
      </trkpt>
      <trkpt lat="42.95814" lon="-0.04233">
        <ele>1108</ele>
        <time>2024-08-15T09:19:26Z</time>
      </trkpt>
      <trkpt lat="42.95814" lon="-0.04234">
        <ele>1108.2</ele>
        <time>2024-08-15T09:19:27Z</time>
      </trkpt>
      <trkpt lat="42.95815" lon="-0.04235">
        <ele>1108.4</ele>
        <time>2024-08-15T09:19:28Z</time>
      </trkpt>
      <trkpt lat="42.95817" lon="-0.04236">
        <ele>1108.4</ele>
        <time>2024-08-15T09:19:29Z</time>
      </trkpt>
      <trkpt lat="42.95817" lon="-0.04237">
        <ele>1108.6</ele>
        <time>2024-08-15T09:19:30Z</time>
      </trkpt>
      <trkpt lat="42.95818" lon="-0.04238">
        <ele>1108.6</ele>
        <time>2024-08-15T09:19:31Z</time>
      </trkpt>
      <trkpt lat="42.95819" lon="-0.04239">
        <ele>1108.8</ele>
        <time>2024-08-15T09:19:32Z</time>
      </trkpt>
      <trkpt lat="42.9582" lon="-0.04239">
        <ele>1109.2</ele>
        <time>2024-08-15T09:19:33Z</time>
      </trkpt>
      <trkpt lat="42.95822" lon="-0.0424">
        <ele>1109.2</ele>
        <time>2024-08-15T09:19:34Z</time>
      </trkpt>
      <trkpt lat="42.95823" lon="-0.04241">
        <ele>1109.4</ele>
        <time>2024-08-15T09:19:35Z</time>
      </trkpt>
      <trkpt lat="42.95824" lon="-0.04241">
        <ele>1109.4</ele>
        <time>2024-08-15T09:19:36Z</time>
      </trkpt>
      <trkpt lat="42.95825" lon="-0.04242">
        <ele>1109.6</ele>
        <time>2024-08-15T09:19:37Z</time>
      </trkpt>
      <trkpt lat="42.95826" lon="-0.04244">
        <ele>1109.8</ele>
        <time>2024-08-15T09:19:38Z</time>
      </trkpt>
      <trkpt lat="42.95827" lon="-0.04245">
        <ele>1110</ele>
        <time>2024-08-15T09:19:39Z</time>
      </trkpt>
      <trkpt lat="42.95828" lon="-0.04246">
        <ele>1110.2</ele>
        <time>2024-08-15T09:19:40Z</time>
      </trkpt>
      <trkpt lat="42.95829" lon="-0.04246">
        <ele>1110.4</ele>
        <time>2024-08-15T09:19:41Z</time>
      </trkpt>
      <trkpt lat="42.9583" lon="-0.04247">
        <ele>1110.6</ele>
        <time>2024-08-15T09:19:42Z</time>
      </trkpt>
      <trkpt lat="42.95831" lon="-0.04248">
        <ele>1110.6</ele>
        <time>2024-08-15T09:19:43Z</time>
      </trkpt>
      <trkpt lat="42.95832" lon="-0.04249">
        <ele>1110.8</ele>
        <time>2024-08-15T09:19:44Z</time>
      </trkpt>
      <trkpt lat="42.95833" lon="-0.0425">
        <ele>1111</ele>
        <time>2024-08-15T09:19:45Z</time>
      </trkpt>
      <trkpt lat="42.95833" lon="-0.04251">
        <ele>1111.2</ele>
        <time>2024-08-15T09:19:46Z</time>
      </trkpt>
      <trkpt lat="42.95835" lon="-0.04251">
        <ele>1111.2</ele>
        <time>2024-08-15T09:19:47Z</time>
      </trkpt>
      <trkpt lat="42.95836" lon="-0.04252">
        <ele>1111.4</ele>
        <time>2024-08-15T09:19:48Z</time>
      </trkpt>
      <trkpt lat="42.95836" lon="-0.04253">
        <ele>1111.6</ele>
        <time>2024-08-15T09:19:49Z</time>
      </trkpt>
      <trkpt lat="42.95837" lon="-0.04254">
        <ele>1111.8</ele>
        <time>2024-08-15T09:19:50Z</time>
      </trkpt>
      <trkpt lat="42.95838" lon="-0.04255">
        <ele>1112.2</ele>
        <time>2024-08-15T09:19:51Z</time>
      </trkpt>
      <trkpt lat="42.95839" lon="-0.04255">
        <ele>1112.4</ele>
        <time>2024-08-15T09:19:52Z</time>
      </trkpt>
      <trkpt lat="42.9584" lon="-0.04256">
        <ele>1112.8</ele>
        <time>2024-08-15T09:19:53Z</time>
      </trkpt>
      <trkpt lat="42.95841" lon="-0.04257">
        <ele>1112.8</ele>
        <time>2024-08-15T09:19:54Z</time>
      </trkpt>
      <trkpt lat="42.95842" lon="-0.04258">
        <ele>1113.2</ele>
        <time>2024-08-15T09:19:55Z</time>
      </trkpt>
      <trkpt lat="42.95843" lon="-0.04259">
        <ele>1113.4</ele>
        <time>2024-08-15T09:19:56Z</time>
      </trkpt>
      <trkpt lat="42.95844" lon="-0.0426">
        <ele>1113.6</ele>
        <time>2024-08-15T09:19:57Z</time>
      </trkpt>
      <trkpt lat="42.95845" lon="-0.04261">
        <ele>1113.8</ele>
        <time>2024-08-15T09:19:58Z</time>
      </trkpt>
      <trkpt lat="42.95846" lon="-0.04262">
        <ele>1114.2</ele>
        <time>2024-08-15T09:19:59Z</time>
      </trkpt>
      <trkpt lat="42.95846" lon="-0.04264">
        <ele>1114.4</ele>
        <time>2024-08-15T09:20:00Z</time>
      </trkpt>
      <trkpt lat="42.95847" lon="-0.04265">
        <ele>1114.6</ele>
        <time>2024-08-15T09:20:01Z</time>
      </trkpt>
      <trkpt lat="42.95848" lon="-0.04267">
        <ele>1114.8</ele>
        <time>2024-08-15T09:20:02Z</time>
      </trkpt>
      <trkpt lat="42.95848" lon="-0.04269">
        <ele>1115</ele>
        <time>2024-08-15T09:20:03Z</time>
      </trkpt>
      <trkpt lat="42.95849" lon="-0.0427">
        <ele>1115.2</ele>
        <time>2024-08-15T09:20:04Z</time>
      </trkpt>
      <trkpt lat="42.9585" lon="-0.04271">
        <ele>1115.4</ele>
        <time>2024-08-15T09:20:05Z</time>
      </trkpt>
      <trkpt lat="42.95851" lon="-0.04273">
        <ele>1115.4</ele>
        <time>2024-08-15T09:20:06Z</time>
      </trkpt>
      <trkpt lat="42.95851" lon="-0.04275">
        <ele>1115.6</ele>
        <time>2024-08-15T09:20:07Z</time>
      </trkpt>
      <trkpt lat="42.95852" lon="-0.04277">
        <ele>1115.6</ele>
        <time>2024-08-15T09:20:08Z</time>
      </trkpt>
      <trkpt lat="42.95853" lon="-0.04278">
        <ele>1115.8</ele>
        <time>2024-08-15T09:20:09Z</time>
      </trkpt>
      <trkpt lat="42.95854" lon="-0.0428">
        <ele>1115.8</ele>
        <time>2024-08-15T09:20:10Z</time>
      </trkpt>
      <trkpt lat="42.95854" lon="-0.04282">
        <ele>1116</ele>
        <time>2024-08-15T09:20:11Z</time>
      </trkpt>
      <trkpt lat="42.95855" lon="-0.04284">
        <ele>1116</ele>
        <time>2024-08-15T09:20:12Z</time>
      </trkpt>
      <trkpt lat="42.95855" lon="-0.04286">
        <ele>1116.2</ele>
        <time>2024-08-15T09:20:13Z</time>
      </trkpt>
      <trkpt lat="42.95856" lon="-0.04288">
        <ele>1116.2</ele>
        <time>2024-08-15T09:20:14Z</time>
      </trkpt>
      <trkpt lat="42.95857" lon="-0.0429">
        <ele>1116.2</ele>
        <time>2024-08-15T09:20:15Z</time>
      </trkpt>
      <trkpt lat="42.95858" lon="-0.04292">
        <ele>1116.4</ele>
        <time>2024-08-15T09:20:16Z</time>
      </trkpt>
      <trkpt lat="42.95858" lon="-0.04293">
        <ele>1116.4</ele>
        <time>2024-08-15T09:20:17Z</time>
      </trkpt>
      <trkpt lat="42.95859" lon="-0.04295">
        <ele>1116.4</ele>
        <time>2024-08-15T09:20:18Z</time>
      </trkpt>
      <trkpt lat="42.95859" lon="-0.04297">
        <ele>1116.6</ele>
        <time>2024-08-15T09:20:19Z</time>
      </trkpt>
      <trkpt lat="42.9586" lon="-0.04299">
        <ele>1116.6</ele>
        <time>2024-08-15T09:20:20Z</time>
      </trkpt>
      <trkpt lat="42.95861" lon="-0.04301">
        <ele>1116.6</ele>
        <time>2024-08-15T09:20:21Z</time>
      </trkpt>
      <trkpt lat="42.95862" lon="-0.04303">
        <ele>1116.8</ele>
        <time>2024-08-15T09:20:22Z</time>
      </trkpt>
      <trkpt lat="42.95862" lon="-0.04305">
        <ele>1116.8</ele>
        <time>2024-08-15T09:20:23Z</time>
      </trkpt>
      <trkpt lat="42.95863" lon="-0.04307">
        <ele>1117</ele>
        <time>2024-08-15T09:20:24Z</time>
      </trkpt>
      <trkpt lat="42.95864" lon="-0.04308">
        <ele>1117.2</ele>
        <time>2024-08-15T09:20:25Z</time>
      </trkpt>
      <trkpt lat="42.95865" lon="-0.0431">
        <ele>1117.2</ele>
        <time>2024-08-15T09:20:26Z</time>
      </trkpt>
      <trkpt lat="42.95867" lon="-0.04312">
        <ele>1117.2</ele>
        <time>2024-08-15T09:20:27Z</time>
      </trkpt>
      <trkpt lat="42.95868" lon="-0.04314">
        <ele>1117.2</ele>
        <time>2024-08-15T09:20:28Z</time>
      </trkpt>
      <trkpt lat="42.95869" lon="-0.04315">
        <ele>1117.2</ele>
        <time>2024-08-15T09:20:29Z</time>
      </trkpt>
      <trkpt lat="42.9587" lon="-0.04316">
        <ele>1117.2</ele>
        <time>2024-08-15T09:20:30Z</time>
      </trkpt>
      <trkpt lat="42.95872" lon="-0.04318">
        <ele>1117.2</ele>
        <time>2024-08-15T09:20:31Z</time>
      </trkpt>
      <trkpt lat="42.95873" lon="-0.04319">
        <ele>1117.2</ele>
        <time>2024-08-15T09:20:32Z</time>
      </trkpt>
      <trkpt lat="42.95875" lon="-0.0432">
        <ele>1117.2</ele>
        <time>2024-08-15T09:20:33Z</time>
      </trkpt>
      <trkpt lat="42.95876" lon="-0.04321">
        <ele>1117.2</ele>
        <time>2024-08-15T09:20:34Z</time>
      </trkpt>
      <trkpt lat="42.95877" lon="-0.04322">
        <ele>1117.2</ele>
        <time>2024-08-15T09:20:35Z</time>
      </trkpt>
      <trkpt lat="42.95878" lon="-0.04324">
        <ele>1117.2</ele>
        <time>2024-08-15T09:20:36Z</time>
      </trkpt>
      <trkpt lat="42.95879" lon="-0.04325">
        <ele>1117.2</ele>
        <time>2024-08-15T09:20:37Z</time>
      </trkpt>
      <trkpt lat="42.95879" lon="-0.04328">
        <ele>1117.2</ele>
        <time>2024-08-15T09:20:38Z</time>
      </trkpt>
      <trkpt lat="42.9588" lon="-0.0433">
        <ele>1117.2</ele>
        <time>2024-08-15T09:20:39Z</time>
      </trkpt>
      <trkpt lat="42.9588" lon="-0.04332">
        <ele>1117.2</ele>
        <time>2024-08-15T09:20:40Z</time>
      </trkpt>
      <trkpt lat="42.95882" lon="-0.04335">
        <ele>1117.6</ele>
        <time>2024-08-15T09:20:42Z</time>
      </trkpt>
      <trkpt lat="42.95883" lon="-0.04337">
        <ele>1117.8</ele>
        <time>2024-08-15T09:20:43Z</time>
      </trkpt>
      <trkpt lat="42.95885" lon="-0.04338">
        <ele>1117.8</ele>
        <time>2024-08-15T09:20:44Z</time>
      </trkpt>
      <trkpt lat="42.95888" lon="-0.04346">
        <ele>1118.2</ele>
        <time>2024-08-15T09:20:48Z</time>
      </trkpt>
      <trkpt lat="42.95888" lon="-0.04349">
        <ele>1118.2</ele>
        <time>2024-08-15T09:20:49Z</time>
      </trkpt>
      <trkpt lat="42.95888" lon="-0.04351">
        <ele>1118.2</ele>
        <time>2024-08-15T09:20:50Z</time>
      </trkpt>
      <trkpt lat="42.95889" lon="-0.04354">
        <ele>1118.2</ele>
        <time>2024-08-15T09:20:51Z</time>
      </trkpt>
      <trkpt lat="42.95889" lon="-0.04355">
        <ele>1118.2</ele>
        <time>2024-08-15T09:20:52Z</time>
      </trkpt>
      <trkpt lat="42.95891" lon="-0.04357">
        <ele>1118.2</ele>
        <time>2024-08-15T09:20:53Z</time>
      </trkpt>
      <trkpt lat="42.95892" lon="-0.04357">
        <ele>1118.4</ele>
        <time>2024-08-15T09:20:54Z</time>
      </trkpt>
      <trkpt lat="42.95892" lon="-0.04358">
        <ele>1118.2</ele>
        <time>2024-08-15T09:21:33Z</time>
      </trkpt>
      <trkpt lat="42.95893" lon="-0.04358">
        <ele>1118.4</ele>
        <time>2024-08-15T09:21:34Z</time>
      </trkpt>
      <trkpt lat="42.95894" lon="-0.04359">
        <ele>1118.4</ele>
        <time>2024-08-15T09:21:35Z</time>
      </trkpt>
      <trkpt lat="42.95896" lon="-0.04359">
        <ele>1118.2</ele>
        <time>2024-08-15T09:21:36Z</time>
      </trkpt>
      <trkpt lat="42.95904" lon="-0.04363">
        <ele>1118</ele>
        <time>2024-08-15T09:21:40Z</time>
      </trkpt>
      <trkpt lat="42.95906" lon="-0.04364">
        <ele>1117.8</ele>
        <time>2024-08-15T09:21:41Z</time>
      </trkpt>
      <trkpt lat="42.95911" lon="-0.04365">
        <ele>1117.8</ele>
        <time>2024-08-15T09:21:43Z</time>
      </trkpt>
      <trkpt lat="42.95914" lon="-0.04367">
        <ele>1117.8</ele>
        <time>2024-08-15T09:21:45Z</time>
      </trkpt>
      <trkpt lat="42.95921" lon="-0.04371">
        <ele>1118</ele>
        <time>2024-08-15T09:21:49Z</time>
      </trkpt>
      <trkpt lat="42.95923" lon="-0.04372">
        <ele>1118.4</ele>
        <time>2024-08-15T09:21:50Z</time>
      </trkpt>
      <trkpt lat="42.95925" lon="-0.04373">
        <ele>1118.4</ele>
        <time>2024-08-15T09:21:51Z</time>
      </trkpt>
      <trkpt lat="42.95928" lon="-0.04374">
        <ele>1118.4</ele>
        <time>2024-08-15T09:21:53Z</time>
      </trkpt>
      <trkpt lat="42.95933" lon="-0.0438">
        <ele>1118.4</ele>
        <time>2024-08-15T09:21:56Z</time>
      </trkpt>
      <trkpt lat="42.95935" lon="-0.04382">
        <ele>1118.4</ele>
        <time>2024-08-15T09:21:57Z</time>
      </trkpt>
      <trkpt lat="42.95936" lon="-0.04384">
        <ele>1118.4</ele>
        <time>2024-08-15T09:21:58Z</time>
      </trkpt>
      <trkpt lat="42.95946" lon="-0.04395">
        <ele>1117</ele>
        <time>2024-08-15T09:22:03Z</time>
      </trkpt>
      <trkpt lat="42.95948" lon="-0.04397">
        <ele>1116.6</ele>
        <time>2024-08-15T09:22:04Z</time>
      </trkpt>
      <trkpt lat="42.95952" lon="-0.044">
        <ele>1115</ele>
        <time>2024-08-15T09:22:06Z</time>
      </trkpt>
      <trkpt lat="42.95954" lon="-0.04401">
        <ele>1114.6</ele>
        <time>2024-08-15T09:22:07Z</time>
      </trkpt>
      <trkpt lat="42.95955" lon="-0.04402">
        <ele>1113.6</ele>
        <time>2024-08-15T09:22:08Z</time>
      </trkpt>
      <trkpt lat="42.95956" lon="-0.04404">
        <ele>1113.2</ele>
        <time>2024-08-15T09:22:09Z</time>
      </trkpt>
      <trkpt lat="42.95956" lon="-0.04406">
        <ele>1112.4</ele>
        <time>2024-08-15T09:22:10Z</time>
      </trkpt>
      <trkpt lat="42.95955" lon="-0.04407">
        <ele>1112</ele>
        <time>2024-08-15T09:22:11Z</time>
      </trkpt>
      <trkpt lat="42.95949" lon="-0.04408">
        <ele>1111.2</ele>
        <time>2024-08-15T09:22:13Z</time>
      </trkpt>
      <trkpt lat="42.95944" lon="-0.04409">
        <ele>1110.2</ele>
        <time>2024-08-15T09:22:15Z</time>
      </trkpt>
      <trkpt lat="42.95943" lon="-0.04409">
        <ele>1109.8</ele>
        <time>2024-08-15T09:22:16Z</time>
      </trkpt>
      <trkpt lat="42.95941" lon="-0.0441">
        <ele>1108.8</ele>
        <time>2024-08-15T09:22:17Z</time>
      </trkpt>
      <trkpt lat="42.95939" lon="-0.04411">
        <ele>1108.2</ele>
        <time>2024-08-15T09:22:18Z</time>
      </trkpt>
      <trkpt lat="42.95937" lon="-0.04412">
        <ele>1107.8</ele>
        <time>2024-08-15T09:22:19Z</time>
      </trkpt>
      <trkpt lat="42.95936" lon="-0.04413">
        <ele>1107</ele>
        <time>2024-08-15T09:22:20Z</time>
      </trkpt>
      <trkpt lat="42.95933" lon="-0.04413">
        <ele>1106.6</ele>
        <time>2024-08-15T09:22:21Z</time>
      </trkpt>
      <trkpt lat="42.95928" lon="-0.04416">
        <ele>1105.4</ele>
        <time>2024-08-15T09:22:23Z</time>
      </trkpt>
      <trkpt lat="42.95925" lon="-0.04417">
        <ele>1104.6</ele>
        <time>2024-08-15T09:22:24Z</time>
      </trkpt>
      <trkpt lat="42.95921" lon="-0.04419">
        <ele>1104</ele>
        <time>2024-08-15T09:22:25Z</time>
      </trkpt>
      <trkpt lat="42.95914" lon="-0.04421">
        <ele>1102.4</ele>
        <time>2024-08-15T09:22:27Z</time>
      </trkpt>
      <trkpt lat="42.9591" lon="-0.04422">
        <ele>1102</ele>
        <time>2024-08-15T09:22:28Z</time>
      </trkpt>
      <trkpt lat="42.95907" lon="-0.04424">
        <ele>1101</ele>
        <time>2024-08-15T09:22:29Z</time>
      </trkpt>
      <trkpt lat="42.95904" lon="-0.04425">
        <ele>1100.6</ele>
        <time>2024-08-15T09:22:30Z</time>
      </trkpt>
      <trkpt lat="42.95901" lon="-0.04426">
        <ele>1098.8</ele>
        <time>2024-08-15T09:22:31Z</time>
      </trkpt>
      <trkpt lat="42.95899" lon="-0.04427">
        <ele>1098.4</ele>
        <time>2024-08-15T09:22:32Z</time>
      </trkpt>
      <trkpt lat="42.95897" lon="-0.04428">
        <ele>1097.4</ele>
        <time>2024-08-15T09:22:33Z</time>
      </trkpt>
      <trkpt lat="42.95894" lon="-0.04428">
        <ele>1096</ele>
        <time>2024-08-15T09:22:34Z</time>
      </trkpt>
      <trkpt lat="42.95892" lon="-0.0443">
        <ele>1095.4</ele>
        <time>2024-08-15T09:22:35Z</time>
      </trkpt>
      <trkpt lat="42.9589" lon="-0.04431">
        <ele>1094.4</ele>
        <time>2024-08-15T09:22:36Z</time>
      </trkpt>
      <trkpt lat="42.95889" lon="-0.04433">
        <ele>1094</ele>
        <time>2024-08-15T09:22:37Z</time>
      </trkpt>
      <trkpt lat="42.95889" lon="-0.04435">
        <ele>1093.2</ele>
        <time>2024-08-15T09:22:38Z</time>
      </trkpt>
      <trkpt lat="42.9589" lon="-0.04437">
        <ele>1092.6</ele>
        <time>2024-08-15T09:22:39Z</time>
      </trkpt>
      <trkpt lat="42.95892" lon="-0.04439">
        <ele>1091.6</ele>
        <time>2024-08-15T09:22:40Z</time>
      </trkpt>
      <trkpt lat="42.95896" lon="-0.04444">
        <ele>1090.4</ele>
        <time>2024-08-15T09:22:42Z</time>
      </trkpt>
      <trkpt lat="42.95902" lon="-0.04449">
        <ele>1089.8</ele>
        <time>2024-08-15T09:22:44Z</time>
      </trkpt>
      <trkpt lat="42.95905" lon="-0.04451">
        <ele>1088.8</ele>
        <time>2024-08-15T09:22:45Z</time>
      </trkpt>
      <trkpt lat="42.95911" lon="-0.04456">
        <ele>1087.4</ele>
        <time>2024-08-15T09:22:47Z</time>
      </trkpt>
      <trkpt lat="42.95914" lon="-0.04459">
        <ele>1086.8</ele>
        <time>2024-08-15T09:22:48Z</time>
      </trkpt>
      <trkpt lat="42.95917" lon="-0.04462">
        <ele>1085.6</ele>
        <time>2024-08-15T09:22:49Z</time>
      </trkpt>
      <trkpt lat="42.9592" lon="-0.04465">
        <ele>1085</ele>
        <time>2024-08-15T09:22:50Z</time>
      </trkpt>
      <trkpt lat="42.95923" lon="-0.04467">
        <ele>1084.8</ele>
        <time>2024-08-15T09:22:51Z</time>
      </trkpt>
      <trkpt lat="42.95925" lon="-0.04471">
        <ele>1084</ele>
        <time>2024-08-15T09:22:52Z</time>
      </trkpt>
      <trkpt lat="42.95931" lon="-0.04477">
        <ele>1081.2</ele>
        <time>2024-08-15T09:22:54Z</time>
      </trkpt>
      <trkpt lat="42.95937" lon="-0.04482">
        <ele>1079.4</ele>
        <time>2024-08-15T09:22:56Z</time>
      </trkpt>
      <trkpt lat="42.9594" lon="-0.04485">
        <ele>1079.2</ele>
        <time>2024-08-15T09:22:57Z</time>
      </trkpt>
      <trkpt lat="42.95942" lon="-0.04487">
        <ele>1078.6</ele>
        <time>2024-08-15T09:22:58Z</time>
      </trkpt>
      <trkpt lat="42.95945" lon="-0.04489">
        <ele>1077.4</ele>
        <time>2024-08-15T09:22:59Z</time>
      </trkpt>
      <trkpt lat="42.95948" lon="-0.04492">
        <ele>1077</ele>
        <time>2024-08-15T09:23:00Z</time>
      </trkpt>
      <trkpt lat="42.9595" lon="-0.04495">
        <ele>1075.6</ele>
        <time>2024-08-15T09:23:01Z</time>
      </trkpt>
      <trkpt lat="42.95953" lon="-0.04497">
        <ele>1075</ele>
        <time>2024-08-15T09:23:02Z</time>
      </trkpt>
      <trkpt lat="42.95955" lon="-0.045">
        <ele>1073.6</ele>
        <time>2024-08-15T09:23:03Z</time>
      </trkpt>
      <trkpt lat="42.95958" lon="-0.04502">
        <ele>1073.2</ele>
        <time>2024-08-15T09:23:04Z</time>
      </trkpt>
      <trkpt lat="42.9596" lon="-0.04505">
        <ele>1072.6</ele>
        <time>2024-08-15T09:23:05Z</time>
      </trkpt>
      <trkpt lat="42.95963" lon="-0.04507">
        <ele>1071.6</ele>
        <time>2024-08-15T09:23:06Z</time>
      </trkpt>
      <trkpt lat="42.95965" lon="-0.04509">
        <ele>1071</ele>
        <time>2024-08-15T09:23:07Z</time>
      </trkpt>
      <trkpt lat="42.95967" lon="-0.0451">
        <ele>1069.4</ele>
        <time>2024-08-15T09:23:08Z</time>
      </trkpt>
      <trkpt lat="42.95968" lon="-0.04512">
        <ele>1068.6</ele>
        <time>2024-08-15T09:23:09Z</time>
      </trkpt>
      <trkpt lat="42.95969" lon="-0.04513">
        <ele>1067.4</ele>
        <time>2024-08-15T09:23:10Z</time>
      </trkpt>
      <trkpt lat="42.95973" lon="-0.04515">
        <ele>1065.8</ele>
        <time>2024-08-15T09:23:12Z</time>
      </trkpt>
      <trkpt lat="42.95975" lon="-0.04517">
        <ele>1065.6</ele>
        <time>2024-08-15T09:23:13Z</time>
      </trkpt>
      <trkpt lat="42.95976" lon="-0.04518">
        <ele>1064.8</ele>
        <time>2024-08-15T09:23:14Z</time>
      </trkpt>
      <trkpt lat="42.95978" lon="-0.04519">
        <ele>1063.6</ele>
        <time>2024-08-15T09:23:15Z</time>
      </trkpt>
      <trkpt lat="42.95979" lon="-0.0452">
        <ele>1063</ele>
        <time>2024-08-15T09:23:16Z</time>
      </trkpt>
      <trkpt lat="42.95981" lon="-0.0452">
        <ele>1061.6</ele>
        <time>2024-08-15T09:23:17Z</time>
      </trkpt>
      <trkpt lat="42.95986" lon="-0.04523">
        <ele>1060.6</ele>
        <time>2024-08-15T09:23:19Z</time>
      </trkpt>
      <trkpt lat="42.95991" lon="-0.04525">
        <ele>1059.4</ele>
        <time>2024-08-15T09:23:21Z</time>
      </trkpt>
      <trkpt lat="42.95995" lon="-0.04526">
        <ele>1058</ele>
        <time>2024-08-15T09:23:23Z</time>
      </trkpt>
      <trkpt lat="42.95998" lon="-0.04526">
        <ele>1056.8</ele>
        <time>2024-08-15T09:23:24Z</time>
      </trkpt>
      <trkpt lat="42.96003" lon="-0.04528">
        <ele>1055</ele>
        <time>2024-08-15T09:23:26Z</time>
      </trkpt>
      <trkpt lat="42.96004" lon="-0.04528">
        <ele>1054.4</ele>
        <time>2024-08-15T09:23:27Z</time>
      </trkpt>
      <trkpt lat="42.96008" lon="-0.04529">
        <ele>1053</ele>
        <time>2024-08-15T09:23:28Z</time>
      </trkpt>
      <trkpt lat="42.96014" lon="-0.04531">
        <ele>1051</ele>
        <time>2024-08-15T09:23:30Z</time>
      </trkpt>
      <trkpt lat="42.96018" lon="-0.04532">
        <ele>1049.4</ele>
        <time>2024-08-15T09:23:31Z</time>
      </trkpt>
      <trkpt lat="42.96025" lon="-0.04533">
        <ele>1048.6</ele>
        <time>2024-08-15T09:23:32Z</time>
      </trkpt>
      <trkpt lat="42.9603" lon="-0.04533">
        <ele>1047.4</ele>
        <time>2024-08-15T09:23:33Z</time>
      </trkpt>
      <trkpt lat="42.96039" lon="-0.04533">
        <ele>1045.8</ele>
        <time>2024-08-15T09:23:35Z</time>
      </trkpt>
      <trkpt lat="42.96041" lon="-0.04533">
        <ele>1045</ele>
        <time>2024-08-15T09:23:36Z</time>
      </trkpt>
      <trkpt lat="42.96042" lon="-0.04531">
        <ele>1043.6</ele>
        <time>2024-08-15T09:23:37Z</time>
      </trkpt>
      <trkpt lat="42.96044" lon="-0.0453">
        <ele>1041.8</ele>
        <time>2024-08-15T09:23:38Z</time>
      </trkpt>
      <trkpt lat="42.96048" lon="-0.04527">
        <ele>1041</ele>
        <time>2024-08-15T09:23:39Z</time>
      </trkpt>
      <trkpt lat="42.96054" lon="-0.04524">
        <ele>1039.8</ele>
        <time>2024-08-15T09:23:40Z</time>
      </trkpt>
      <trkpt lat="42.96059" lon="-0.04523">
        <ele>1039.4</ele>
        <time>2024-08-15T09:23:41Z</time>
      </trkpt>
      <trkpt lat="42.96066" lon="-0.04524">
        <ele>1038.2</ele>
        <time>2024-08-15T09:23:42Z</time>
      </trkpt>
      <trkpt lat="42.96072" lon="-0.04523">
        <ele>1038</ele>
        <time>2024-08-15T09:23:43Z</time>
      </trkpt>
      <trkpt lat="42.96078" lon="-0.04523">
        <ele>1036.8</ele>
        <time>2024-08-15T09:23:44Z</time>
      </trkpt>
      <trkpt lat="42.96082" lon="-0.04522">
        <ele>1035.2</ele>
        <time>2024-08-15T09:23:45Z</time>
      </trkpt>
      <trkpt lat="42.96085" lon="-0.0452">
        <ele>1034.4</ele>
        <time>2024-08-15T09:23:46Z</time>
      </trkpt>
      <trkpt lat="42.9609" lon="-0.04518">
        <ele>1033.2</ele>
        <time>2024-08-15T09:23:47Z</time>
      </trkpt>
      <trkpt lat="42.96096" lon="-0.04516">
        <ele>1032.8</ele>
        <time>2024-08-15T09:23:48Z</time>
      </trkpt>
      <trkpt lat="42.961" lon="-0.04515">
        <ele>1032</ele>
        <time>2024-08-15T09:23:49Z</time>
      </trkpt>
      <trkpt lat="42.96106" lon="-0.04515">
        <ele>1031.6</ele>
        <time>2024-08-15T09:23:50Z</time>
      </trkpt>
      <trkpt lat="42.9611" lon="-0.04514">
        <ele>1030.2</ele>
        <time>2024-08-15T09:23:51Z</time>
      </trkpt>
      <trkpt lat="42.96114" lon="-0.04513">
        <ele>1029.6</ele>
        <time>2024-08-15T09:23:52Z</time>
      </trkpt>
      <trkpt lat="42.96118" lon="-0.04512">
        <ele>1028</ele>
        <time>2024-08-15T09:23:53Z</time>
      </trkpt>
      <trkpt lat="42.96123" lon="-0.04511">
        <ele>1026.6</ele>
        <time>2024-08-15T09:23:54Z</time>
      </trkpt>
      <trkpt lat="42.96127" lon="-0.04509">
        <ele>1026</ele>
        <time>2024-08-15T09:23:55Z</time>
      </trkpt>
      <trkpt lat="42.96131" lon="-0.04507">
        <ele>1024.4</ele>
        <time>2024-08-15T09:23:56Z</time>
      </trkpt>
      <trkpt lat="42.96133" lon="-0.04506">
        <ele>1023.8</ele>
        <time>2024-08-15T09:23:57Z</time>
      </trkpt>
      <trkpt lat="42.96135" lon="-0.04505">
        <ele>1022.2</ele>
        <time>2024-08-15T09:23:58Z</time>
      </trkpt>
      <trkpt lat="42.96139" lon="-0.04503">
        <ele>1021.8</ele>
        <time>2024-08-15T09:23:59Z</time>
      </trkpt>
      <trkpt lat="42.9614" lon="-0.04501">
        <ele>1019.8</ele>
        <time>2024-08-15T09:24:00Z</time>
      </trkpt>
      <trkpt lat="42.96142" lon="-0.04499">
        <ele>1018</ele>
        <time>2024-08-15T09:24:01Z</time>
      </trkpt>
      <trkpt lat="42.96145" lon="-0.04499">
        <ele>1017.2</ele>
        <time>2024-08-15T09:24:02Z</time>
      </trkpt>
      <trkpt lat="42.96152" lon="-0.045">
        <ele>1016</ele>
        <time>2024-08-15T09:24:03Z</time>
      </trkpt>
      <trkpt lat="42.96155" lon="-0.04498">
        <ele>1015.4</ele>
        <time>2024-08-15T09:24:04Z</time>
      </trkpt>
      <trkpt lat="42.96157" lon="-0.04497">
        <ele>1014.4</ele>
        <time>2024-08-15T09:24:05Z</time>
      </trkpt>
      <trkpt lat="42.96166" lon="-0.04493">
        <ele>1013</ele>
        <time>2024-08-15T09:24:07Z</time>
      </trkpt>
      <trkpt lat="42.96172" lon="-0.04492">
        <ele>1012.4</ele>
        <time>2024-08-15T09:24:08Z</time>
      </trkpt>
      <trkpt lat="42.96178" lon="-0.0449">
        <ele>1011</ele>
        <time>2024-08-15T09:24:09Z</time>
      </trkpt>
      <trkpt lat="42.96181" lon="-0.04491">
        <ele>1009.8</ele>
        <time>2024-08-15T09:24:10Z</time>
      </trkpt>
      <trkpt lat="42.96184" lon="-0.04492">
        <ele>1009.2</ele>
        <time>2024-08-15T09:24:11Z</time>
      </trkpt>
      <trkpt lat="42.96186" lon="-0.04492">
        <ele>1007.6</ele>
        <time>2024-08-15T09:24:12Z</time>
      </trkpt>
      <trkpt lat="42.96193" lon="-0.0449">
        <ele>1005.4</ele>
        <time>2024-08-15T09:24:14Z</time>
      </trkpt>
      <trkpt lat="42.962" lon="-0.04487">
        <ele>1004.8</ele>
        <time>2024-08-15T09:24:15Z</time>
      </trkpt>
      <trkpt lat="42.96204" lon="-0.04485">
        <ele>1004</ele>
        <time>2024-08-15T09:24:16Z</time>
      </trkpt>
      <trkpt lat="42.96208" lon="-0.04482">
        <ele>1003.4</ele>
        <time>2024-08-15T09:24:17Z</time>
      </trkpt>
      <trkpt lat="42.96213" lon="-0.04477">
        <ele>1001.6</ele>
        <time>2024-08-15T09:24:18Z</time>
      </trkpt>
      <trkpt lat="42.96216" lon="-0.04473">
        <ele>1000.6</ele>
        <time>2024-08-15T09:24:19Z</time>
      </trkpt>
      <trkpt lat="42.9622" lon="-0.04467">
        <ele>1000.2</ele>
        <time>2024-08-15T09:24:20Z</time>
      </trkpt>
      <trkpt lat="42.96222" lon="-0.04462">
        <ele>999.2</ele>
        <time>2024-08-15T09:24:21Z</time>
      </trkpt>
      <trkpt lat="42.96224" lon="-0.04457">
        <ele>998.6</ele>
        <time>2024-08-15T09:24:22Z</time>
      </trkpt>
      <trkpt lat="42.96227" lon="-0.04453">
        <ele>997.8</ele>
        <time>2024-08-15T09:24:23Z</time>
      </trkpt>
      <trkpt lat="42.96229" lon="-0.04448">
        <ele>997.6</ele>
        <time>2024-08-15T09:24:24Z</time>
      </trkpt>
      <trkpt lat="42.96231" lon="-0.04443">
        <ele>996.8</ele>
        <time>2024-08-15T09:24:25Z</time>
      </trkpt>
      <trkpt lat="42.96234" lon="-0.04438">
        <ele>996.2</ele>
        <time>2024-08-15T09:24:26Z</time>
      </trkpt>
      <trkpt lat="42.96236" lon="-0.04433">
        <ele>996.2</ele>
        <time>2024-08-15T09:24:27Z</time>
      </trkpt>
      <trkpt lat="42.96238" lon="-0.0443">
        <ele>995.8</ele>
        <time>2024-08-15T09:24:28Z</time>
      </trkpt>
      <trkpt lat="42.9624" lon="-0.04429">
        <ele>995.4</ele>
        <time>2024-08-15T09:24:29Z</time>
      </trkpt>
      <trkpt lat="42.96243" lon="-0.0443">
        <ele>994.6</ele>
        <time>2024-08-15T09:24:30Z</time>
      </trkpt>
      <trkpt lat="42.96244" lon="-0.04432">
        <ele>993.8</ele>
        <time>2024-08-15T09:24:31Z</time>
      </trkpt>
      <trkpt lat="42.96247" lon="-0.04434">
        <ele>993.2</ele>
        <time>2024-08-15T09:24:32Z</time>
      </trkpt>
      <trkpt lat="42.96248" lon="-0.04435">
        <ele>992.6</ele>
        <time>2024-08-15T09:24:33Z</time>
      </trkpt>
      <trkpt lat="42.96249" lon="-0.04437">
        <ele>992</ele>
        <time>2024-08-15T09:24:34Z</time>
      </trkpt>
      <trkpt lat="42.96251" lon="-0.0444">
        <ele>991.4</ele>
        <time>2024-08-15T09:24:35Z</time>
      </trkpt>
      <trkpt lat="42.96252" lon="-0.04442">
        <ele>991.2</ele>
        <time>2024-08-15T09:24:36Z</time>
      </trkpt>
      <trkpt lat="42.96253" lon="-0.04446">
        <ele>991</ele>
        <time>2024-08-15T09:24:37Z</time>
      </trkpt>
      <trkpt lat="42.96255" lon="-0.04448">
        <ele>990.8</ele>
        <time>2024-08-15T09:24:38Z</time>
      </trkpt>
      <trkpt lat="42.96258" lon="-0.04451">
        <ele>990.6</ele>
        <time>2024-08-15T09:24:39Z</time>
      </trkpt>
      <trkpt lat="42.96263" lon="-0.04456">
        <ele>990.6</ele>
        <time>2024-08-15T09:24:41Z</time>
      </trkpt>
      <trkpt lat="42.96265" lon="-0.04457">
        <ele>990.6</ele>
        <time>2024-08-15T09:24:42Z</time>
      </trkpt>
      <trkpt lat="42.96267" lon="-0.04459">
        <ele>990.6</ele>
        <time>2024-08-15T09:24:43Z</time>
      </trkpt>
      <trkpt lat="42.96269" lon="-0.04462">
        <ele>990.4</ele>
        <time>2024-08-15T09:24:44Z</time>
      </trkpt>
      <trkpt lat="42.96271" lon="-0.04465">
        <ele>990.6</ele>
        <time>2024-08-15T09:24:45Z</time>
      </trkpt>
      <trkpt lat="42.96272" lon="-0.04468">
        <ele>990.6</ele>
        <time>2024-08-15T09:24:46Z</time>
      </trkpt>
      <trkpt lat="42.96275" lon="-0.0447">
        <ele>990.8</ele>
        <time>2024-08-15T09:24:51Z</time>
      </trkpt>
      <trkpt lat="42.96275" lon="-0.0447">
        <ele>990.8</ele>
        <time>2024-08-15T09:24:52Z</time>
      </trkpt>
      <trkpt lat="42.96275" lon="-0.04471">
        <ele>990.8</ele>
        <time>2024-08-15T09:24:53Z</time>
      </trkpt>
      <trkpt lat="42.96283" lon="-0.04476">
        <ele>990.8</ele>
        <time>2024-08-15T09:24:58Z</time>
      </trkpt>
      <trkpt lat="42.96284" lon="-0.04476">
        <ele>990.8</ele>
        <time>2024-08-15T09:24:59Z</time>
      </trkpt>
      <trkpt lat="42.96284" lon="-0.04477">
        <ele>990.8</ele>
        <time>2024-08-15T09:25:00Z</time>
      </trkpt>
      <trkpt lat="42.96285" lon="-0.04478">
        <ele>990.8</ele>
        <time>2024-08-15T09:25:01Z</time>
      </trkpt>
      <trkpt lat="42.96286" lon="-0.04479">
        <ele>990.8</ele>
        <time>2024-08-15T09:25:02Z</time>
      </trkpt>
      <trkpt lat="42.96291" lon="-0.04484">
        <ele>991</ele>
        <time>2024-08-15T09:25:04Z</time>
      </trkpt>
      <trkpt lat="42.96294" lon="-0.04485">
        <ele>991</ele>
        <time>2024-08-15T09:25:05Z</time>
      </trkpt>
      <trkpt lat="42.96302" lon="-0.04492">
        <ele>991.4</ele>
        <time>2024-08-15T09:25:10Z</time>
      </trkpt>
      <trkpt lat="42.96303" lon="-0.04493">
        <ele>991.6</ele>
        <time>2024-08-15T09:25:11Z</time>
      </trkpt>
      <trkpt lat="42.96305" lon="-0.04494">
        <ele>991.8</ele>
        <time>2024-08-15T09:25:12Z</time>
      </trkpt>
      <trkpt lat="42.96306" lon="-0.04494">
        <ele>992.2</ele>
        <time>2024-08-15T09:25:13Z</time>
      </trkpt>
      <trkpt lat="42.96308" lon="-0.04496">
        <ele>992.6</ele>
        <time>2024-08-15T09:25:15Z</time>
      </trkpt>
      <trkpt lat="42.96309" lon="-0.04498">
        <ele>993</ele>
        <time>2024-08-15T09:25:16Z</time>
      </trkpt>
      <trkpt lat="42.9631" lon="-0.04499">
        <ele>993</ele>
        <time>2024-08-15T09:25:17Z</time>
      </trkpt>
      <trkpt lat="42.96312" lon="-0.045">
        <ele>993.2</ele>
        <time>2024-08-15T09:25:18Z</time>
      </trkpt>
      <trkpt lat="42.96315" lon="-0.04502">
        <ele>993.4</ele>
        <time>2024-08-15T09:25:20Z</time>
      </trkpt>
      <trkpt lat="42.96317" lon="-0.04502">
        <ele>993.4</ele>
        <time>2024-08-15T09:25:21Z</time>
      </trkpt>
      <trkpt lat="42.9632" lon="-0.04503">
        <ele>993.4</ele>
        <time>2024-08-15T09:25:22Z</time>
      </trkpt>
      <trkpt lat="42.96327" lon="-0.04508">
        <ele>993.8</ele>
        <time>2024-08-15T09:25:25Z</time>
      </trkpt>
      <trkpt lat="42.96329" lon="-0.0451">
        <ele>993.6</ele>
        <time>2024-08-15T09:25:26Z</time>
      </trkpt>
      <trkpt lat="42.96333" lon="-0.04514">
        <ele>993.4</ele>
        <time>2024-08-15T09:25:28Z</time>
      </trkpt>
      <trkpt lat="42.96339" lon="-0.04518">
        <ele>993.2</ele>
        <time>2024-08-15T09:25:30Z</time>
      </trkpt>
      <trkpt lat="42.96342" lon="-0.04521">
        <ele>993.2</ele>
        <time>2024-08-15T09:25:31Z</time>
      </trkpt>
      <trkpt lat="42.96344" lon="-0.04523">
        <ele>993.2</ele>
        <time>2024-08-15T09:25:32Z</time>
      </trkpt>
      <trkpt lat="42.96346" lon="-0.04526">
        <ele>993.2</ele>
        <time>2024-08-15T09:25:33Z</time>
      </trkpt>
      <trkpt lat="42.96347" lon="-0.04528">
        <ele>993</ele>
        <time>2024-08-15T09:25:34Z</time>
      </trkpt>
      <trkpt lat="42.96349" lon="-0.0453">
        <ele>992.8</ele>
        <time>2024-08-15T09:25:35Z</time>
      </trkpt>
      <trkpt lat="42.9635" lon="-0.04532">
        <ele>992.8</ele>
        <time>2024-08-15T09:25:36Z</time>
      </trkpt>
      <trkpt lat="42.96353" lon="-0.04537">
        <ele>992.8</ele>
        <time>2024-08-15T09:25:38Z</time>
      </trkpt>
      <trkpt lat="42.9636" lon="-0.04547">
        <ele>992.8</ele>
        <time>2024-08-15T09:25:41Z</time>
      </trkpt>
      <trkpt lat="42.96362" lon="-0.0455">
        <ele>992.8</ele>
        <time>2024-08-15T09:25:42Z</time>
      </trkpt>
      <trkpt lat="42.96367" lon="-0.04559">
        <ele>993.2</ele>
        <time>2024-08-15T09:25:45Z</time>
      </trkpt>
      <trkpt lat="42.96369" lon="-0.04561">
        <ele>993.4</ele>
        <time>2024-08-15T09:25:46Z</time>
      </trkpt>
      <trkpt lat="42.96375" lon="-0.04571">
        <ele>994</ele>
        <time>2024-08-15T09:25:50Z</time>
      </trkpt>
      <trkpt lat="42.96376" lon="-0.04573">
        <ele>994</ele>
        <time>2024-08-15T09:25:51Z</time>
      </trkpt>
      <trkpt lat="42.96383" lon="-0.04581">
        <ele>994.4</ele>
        <time>2024-08-15T09:25:54Z</time>
      </trkpt>
      <trkpt lat="42.96385" lon="-0.04584">
        <ele>994.4</ele>
        <time>2024-08-15T09:25:55Z</time>
      </trkpt>
      <trkpt lat="42.96386" lon="-0.04588">
        <ele>994.4</ele>
        <time>2024-08-15T09:25:56Z</time>
      </trkpt>
      <trkpt lat="42.96387" lon="-0.0459">
        <ele>994.4</ele>
        <time>2024-08-15T09:25:57Z</time>
      </trkpt>
      <trkpt lat="42.96393" lon="-0.04601">
        <ele>994.6</ele>
        <time>2024-08-15T09:26:01Z</time>
      </trkpt>
      <trkpt lat="42.96394" lon="-0.04603">
        <ele>994.8</ele>
        <time>2024-08-15T09:26:02Z</time>
      </trkpt>
      <trkpt lat="42.96401" lon="-0.04618">
        <ele>994.8</ele>
        <time>2024-08-15T09:26:07Z</time>
      </trkpt>
      <trkpt lat="42.96402" lon="-0.04621">
        <ele>994.8</ele>
        <time>2024-08-15T09:26:08Z</time>
      </trkpt>
      <trkpt lat="42.96404" lon="-0.04625">
        <ele>994.8</ele>
        <time>2024-08-15T09:26:09Z</time>
      </trkpt>
      <trkpt lat="42.96409" lon="-0.04633">
        <ele>994.6</ele>
        <time>2024-08-15T09:26:12Z</time>
      </trkpt>
      <trkpt lat="42.96411" lon="-0.04634">
        <ele>994.6</ele>
        <time>2024-08-15T09:26:13Z</time>
      </trkpt>
      <trkpt lat="42.96413" lon="-0.04635">
        <ele>994.4</ele>
        <time>2024-08-15T09:26:14Z</time>
      </trkpt>
      <trkpt lat="42.96415" lon="-0.04635">
        <ele>994.4</ele>
        <time>2024-08-15T09:26:15Z</time>
      </trkpt>
      <trkpt lat="42.96417" lon="-0.04635">
        <ele>994.4</ele>
        <time>2024-08-15T09:26:16Z</time>
      </trkpt>
      <trkpt lat="42.96419" lon="-0.04635">
        <ele>994.4</ele>
        <time>2024-08-15T09:26:17Z</time>
      </trkpt>
      <trkpt lat="42.96421" lon="-0.04635">
        <ele>994.2</ele>
        <time>2024-08-15T09:26:18Z</time>
      </trkpt>
      <trkpt lat="42.96423" lon="-0.04636">
        <ele>993.8</ele>
        <time>2024-08-15T09:26:20Z</time>
      </trkpt>
      <trkpt lat="42.96425" lon="-0.04637">
        <ele>993.6</ele>
        <time>2024-08-15T09:26:21Z</time>
      </trkpt>
      <trkpt lat="42.96425" lon="-0.04638">
        <ele>993.2</ele>
        <time>2024-08-15T09:26:22Z</time>
      </trkpt>
      <trkpt lat="42.96427" lon="-0.04638">
        <ele>993.2</ele>
        <time>2024-08-15T09:26:23Z</time>
      </trkpt>
      <trkpt lat="42.96428" lon="-0.0464">
        <ele>993</ele>
        <time>2024-08-15T09:26:24Z</time>
      </trkpt>
      <trkpt lat="42.9643" lon="-0.04641">
        <ele>992.2</ele>
        <time>2024-08-15T09:26:25Z</time>
      </trkpt>
      <trkpt lat="42.96431" lon="-0.04642">
        <ele>991.8</ele>
        <time>2024-08-15T09:26:26Z</time>
      </trkpt>
      <trkpt lat="42.96432" lon="-0.04642">
        <ele>991.2</ele>
        <time>2024-08-15T09:26:27Z</time>
      </trkpt>
      <trkpt lat="42.96433" lon="-0.04643">
        <ele>991</ele>
        <time>2024-08-15T09:26:28Z</time>
      </trkpt>
      <trkpt lat="42.96434" lon="-0.04644">
        <ele>990.6</ele>
        <time>2024-08-15T09:26:29Z</time>
      </trkpt>
      <trkpt lat="42.96435" lon="-0.04645">
        <ele>990.4</ele>
        <time>2024-08-15T09:26:30Z</time>
      </trkpt>
      <trkpt lat="42.96438" lon="-0.04646">
        <ele>989.2</ele>
        <time>2024-08-15T09:26:33Z</time>
      </trkpt>
      <trkpt lat="42.96438" lon="-0.04646">
        <ele>988.6</ele>
        <time>2024-08-15T09:26:34Z</time>
      </trkpt>
      <trkpt lat="42.96438" lon="-0.04646">
        <ele>988.4</ele>
        <time>2024-08-15T09:26:35Z</time>
      </trkpt>
      <trkpt lat="42.96439" lon="-0.04646">
        <ele>988</ele>
        <time>2024-08-15T09:26:36Z</time>
      </trkpt>
      <trkpt lat="42.9644" lon="-0.04647">
        <ele>987.8</ele>
        <time>2024-08-15T09:26:37Z</time>
      </trkpt>
      <trkpt lat="42.96446" lon="-0.04649">
        <ele>987.4</ele>
        <time>2024-08-15T09:26:40Z</time>
      </trkpt>
      <trkpt lat="42.96447" lon="-0.0465">
        <ele>987.2</ele>
        <time>2024-08-15T09:26:41Z</time>
      </trkpt>
      <trkpt lat="42.96449" lon="-0.04651">
        <ele>986.8</ele>
        <time>2024-08-15T09:26:42Z</time>
      </trkpt>
      <trkpt lat="42.96449" lon="-0.04652">
        <ele>986.4</ele>
        <time>2024-08-15T09:26:43Z</time>
      </trkpt>
      <trkpt lat="42.96449" lon="-0.04652">
        <ele>986</ele>
        <time>2024-08-15T09:26:44Z</time>
      </trkpt>
      <trkpt lat="42.96449" lon="-0.04652">
        <ele>985.6</ele>
        <time>2024-08-15T09:26:45Z</time>
      </trkpt>
      <trkpt lat="42.96449" lon="-0.04652">
        <ele>985.2</ele>
        <time>2024-08-15T09:26:46Z</time>
      </trkpt>
      <trkpt lat="42.9645" lon="-0.04653">
        <ele>984.8</ele>
        <time>2024-08-15T09:26:47Z</time>
      </trkpt>
      <trkpt lat="42.96451" lon="-0.04655">
        <ele>984.2</ele>
        <time>2024-08-15T09:26:48Z</time>
      </trkpt>
      <trkpt lat="42.96454" lon="-0.04657">
        <ele>983.8</ele>
        <time>2024-08-15T09:26:49Z</time>
      </trkpt>
      <trkpt lat="42.96454" lon="-0.04657">
        <ele>980.8</ele>
        <time>2024-08-15T09:27:27Z</time>
      </trkpt>
      <trkpt lat="42.96454" lon="-0.04657">
        <ele>980.8</ele>
        <time>2024-08-15T09:27:28Z</time>
      </trkpt>
      <trkpt lat="42.96454" lon="-0.04657">
        <ele>980.6</ele>
        <time>2024-08-15T09:27:31Z</time>
      </trkpt>
      <trkpt lat="42.96454" lon="-0.04657">
        <ele>980.4</ele>
        <time>2024-08-15T09:27:33Z</time>
      </trkpt>
      <trkpt lat="42.96454" lon="-0.04657">
        <ele>979.8</ele>
        <time>2024-08-15T09:27:35Z</time>
      </trkpt>
      <trkpt lat="42.96457" lon="-0.04662">
        <ele>979.4</ele>
        <time>2024-08-15T09:27:37Z</time>
      </trkpt>
      <trkpt lat="42.96459" lon="-0.04664">
        <ele>979</ele>
        <time>2024-08-15T09:27:38Z</time>
      </trkpt>
      <trkpt lat="42.96461" lon="-0.04666">
        <ele>979</ele>
        <time>2024-08-15T09:27:39Z</time>
      </trkpt>
      <trkpt lat="42.96461" lon="-0.04666">
        <ele>978.6</ele>
        <time>2024-08-15T09:27:40Z</time>
      </trkpt>
      <trkpt lat="42.96463" lon="-0.04668">
        <ele>978.6</ele>
        <time>2024-08-15T09:27:41Z</time>
      </trkpt>
      <trkpt lat="42.96467" lon="-0.04672">
        <ele>977.6</ele>
        <time>2024-08-15T09:27:45Z</time>
      </trkpt>
      <trkpt lat="42.96469" lon="-0.04673">
        <ele>977.4</ele>
        <time>2024-08-15T09:27:46Z</time>
      </trkpt>
      <trkpt lat="42.96472" lon="-0.04675">
        <ele>976.8</ele>
        <time>2024-08-15T09:27:48Z</time>
      </trkpt>
      <trkpt lat="42.96472" lon="-0.04675">
        <ele>976.4</ele>
        <time>2024-08-15T09:27:50Z</time>
      </trkpt>
      <trkpt lat="42.96474" lon="-0.04678">
        <ele>975.8</ele>
        <time>2024-08-15T09:27:52Z</time>
      </trkpt>
      <trkpt lat="42.96474" lon="-0.04678">
        <ele>975.8</ele>
        <time>2024-08-15T09:27:53Z</time>
      </trkpt>
      <trkpt lat="42.96475" lon="-0.04679">
        <ele>975.8</ele>
        <time>2024-08-15T09:27:54Z</time>
      </trkpt>
      <trkpt lat="42.96477" lon="-0.04681">
        <ele>975.6</ele>
        <time>2024-08-15T09:27:55Z</time>
      </trkpt>
      <trkpt lat="42.9648" lon="-0.04684">
        <ele>975.4</ele>
        <time>2024-08-15T09:27:57Z</time>
      </trkpt>
      <trkpt lat="42.9648" lon="-0.04684">
        <ele>975.2</ele>
        <time>2024-08-15T09:27:58Z</time>
      </trkpt>
      <trkpt lat="42.9648" lon="-0.04684">
        <ele>975.2</ele>
        <time>2024-08-15T09:27:59Z</time>
      </trkpt>
      <trkpt lat="42.96483" lon="-0.04686">
        <ele>975</ele>
        <time>2024-08-15T09:28:00Z</time>
      </trkpt>
      <trkpt lat="42.96485" lon="-0.04688">
        <ele>975</ele>
        <time>2024-08-15T09:28:01Z</time>
      </trkpt>
      <trkpt lat="42.96491" lon="-0.04693">
        <ele>974.2</ele>
        <time>2024-08-15T09:28:05Z</time>
      </trkpt>
      <trkpt lat="42.96491" lon="-0.04693">
        <ele>974</ele>
        <time>2024-08-15T09:28:06Z</time>
      </trkpt>
      <trkpt lat="42.96491" lon="-0.04693">
        <ele>973.8</ele>
        <time>2024-08-15T09:28:07Z</time>
      </trkpt>
      <trkpt lat="42.96491" lon="-0.04693">
        <ele>973.8</ele>
        <time>2024-08-15T09:28:08Z</time>
      </trkpt>
      <trkpt lat="42.96491" lon="-0.04693">
        <ele>973.8</ele>
        <time>2024-08-15T09:28:09Z</time>
      </trkpt>
      <trkpt lat="42.96491" lon="-0.04693">
        <ele>973.6</ele>
        <time>2024-08-15T09:28:10Z</time>
      </trkpt>
      <trkpt lat="42.96494" lon="-0.04695">
        <ele>973.2</ele>
        <time>2024-08-15T09:28:12Z</time>
      </trkpt>
      <trkpt lat="42.96495" lon="-0.04696">
        <ele>973</ele>
        <time>2024-08-15T09:28:13Z</time>
      </trkpt>
      <trkpt lat="42.96496" lon="-0.04696">
        <ele>972.8</ele>
        <time>2024-08-15T09:28:14Z</time>
      </trkpt>
      <trkpt lat="42.965" lon="-0.04699">
        <ele>972.2</ele>
        <time>2024-08-15T09:28:17Z</time>
      </trkpt>
      <trkpt lat="42.96502" lon="-0.04699">
        <ele>972.2</ele>
        <time>2024-08-15T09:28:18Z</time>
      </trkpt>
      <trkpt lat="42.96505" lon="-0.047">
        <ele>972</ele>
        <time>2024-08-15T09:28:19Z</time>
      </trkpt>
      <trkpt lat="42.96507" lon="-0.04701">
        <ele>971.6</ele>
        <time>2024-08-15T09:28:21Z</time>
      </trkpt>
      <trkpt lat="42.9651" lon="-0.04701">
        <ele>971.6</ele>
        <time>2024-08-15T09:28:22Z</time>
      </trkpt>
      <trkpt lat="42.96515" lon="-0.04703">
        <ele>971</ele>
        <time>2024-08-15T09:28:26Z</time>
      </trkpt>
      <trkpt lat="42.96517" lon="-0.04701">
        <ele>970.8</ele>
        <time>2024-08-15T09:28:28Z</time>
      </trkpt>
      <trkpt lat="42.96519" lon="-0.04702">
        <ele>970.6</ele>
        <time>2024-08-15T09:28:29Z</time>
      </trkpt>
      <trkpt lat="42.96524" lon="-0.04705">
        <ele>970.4</ele>
        <time>2024-08-15T09:28:31Z</time>
      </trkpt>
      <trkpt lat="42.96528" lon="-0.04706">
        <ele>970.4</ele>
        <time>2024-08-15T09:28:32Z</time>
      </trkpt>
      <trkpt lat="42.96533" lon="-0.04713">
        <ele>970.2</ele>
        <time>2024-08-15T09:28:34Z</time>
      </trkpt>
      <trkpt lat="42.96533" lon="-0.04714">
        <ele>970.2</ele>
        <time>2024-08-15T09:28:35Z</time>
      </trkpt>
      <trkpt lat="42.96534" lon="-0.04714">
        <ele>970</ele>
        <time>2024-08-15T09:28:36Z</time>
      </trkpt>
      <trkpt lat="42.96534" lon="-0.04714">
        <ele>969.8</ele>
        <time>2024-08-15T09:28:37Z</time>
      </trkpt>
      <trkpt lat="42.96537" lon="-0.04714">
        <ele>969.4</ele>
        <time>2024-08-15T09:28:41Z</time>
      </trkpt>
      <trkpt lat="42.96537" lon="-0.04714">
        <ele>969.2</ele>
        <time>2024-08-15T09:28:42Z</time>
      </trkpt>
      <trkpt lat="42.96538" lon="-0.04715">
        <ele>969.2</ele>
        <time>2024-08-15T09:28:43Z</time>
      </trkpt>
      <trkpt lat="42.96538" lon="-0.04715">
        <ele>969.2</ele>
        <time>2024-08-15T09:28:44Z</time>
      </trkpt>
      <trkpt lat="42.96539" lon="-0.04716">
        <ele>969.2</ele>
        <time>2024-08-15T09:28:46Z</time>
      </trkpt>
      <trkpt lat="42.9654" lon="-0.04717">
        <ele>969.2</ele>
        <time>2024-08-15T09:28:47Z</time>
      </trkpt>
      <trkpt lat="42.96542" lon="-0.04719">
        <ele>969</ele>
        <time>2024-08-15T09:28:49Z</time>
      </trkpt>
      <trkpt lat="42.96543" lon="-0.04721">
        <ele>969</ele>
        <time>2024-08-15T09:28:50Z</time>
      </trkpt>
      <trkpt lat="42.96543" lon="-0.04721">
        <ele>969</ele>
        <time>2024-08-15T09:28:51Z</time>
      </trkpt>
      <trkpt lat="42.96545" lon="-0.04723">
        <ele>969</ele>
        <time>2024-08-15T09:28:52Z</time>
      </trkpt>
      <trkpt lat="42.96547" lon="-0.04725">
        <ele>969</ele>
        <time>2024-08-15T09:28:53Z</time>
      </trkpt>
      <trkpt lat="42.96561" lon="-0.04739">
        <ele>968.8</ele>
        <time>2024-08-15T09:28:58Z</time>
      </trkpt>
      <trkpt lat="42.96565" lon="-0.04744">
        <ele>968.8</ele>
        <time>2024-08-15T09:28:59Z</time>
      </trkpt>
      <trkpt lat="42.96579" lon="-0.04759">
        <ele>968.2</ele>
        <time>2024-08-15T09:29:03Z</time>
      </trkpt>
      <trkpt lat="42.96585" lon="-0.04764">
        <ele>967.8</ele>
        <time>2024-08-15T09:29:05Z</time>
      </trkpt>
      <trkpt lat="42.9659" lon="-0.04766">
        <ele>967.8</ele>
        <time>2024-08-15T09:29:06Z</time>
      </trkpt>
      <trkpt lat="42.96597" lon="-0.04768">
        <ele>967.4</ele>
        <time>2024-08-15T09:29:08Z</time>
      </trkpt>
      <trkpt lat="42.966" lon="-0.04768">
        <ele>967.4</ele>
        <time>2024-08-15T09:29:09Z</time>
      </trkpt>
      <trkpt lat="42.96602" lon="-0.04768">
        <ele>967.2</ele>
        <time>2024-08-15T09:29:10Z</time>
      </trkpt>
      <trkpt lat="42.96605" lon="-0.04767">
        <ele>967</ele>
        <time>2024-08-15T09:29:11Z</time>
      </trkpt>
      <trkpt lat="42.96609" lon="-0.04764">
        <ele>967</ele>
        <time>2024-08-15T09:29:12Z</time>
      </trkpt>
      <trkpt lat="42.96612" lon="-0.0476">
        <ele>966.8</ele>
        <time>2024-08-15T09:29:13Z</time>
      </trkpt>
      <trkpt lat="42.96615" lon="-0.04756">
        <ele>966.8</ele>
        <time>2024-08-15T09:29:14Z</time>
      </trkpt>
      <trkpt lat="42.96617" lon="-0.04753">
        <ele>966.6</ele>
        <time>2024-08-15T09:29:15Z</time>
      </trkpt>
      <trkpt lat="42.96618" lon="-0.04749">
        <ele>966.4</ele>
        <time>2024-08-15T09:29:16Z</time>
      </trkpt>
      <trkpt lat="42.96621" lon="-0.04744">
        <ele>966.4</ele>
        <time>2024-08-15T09:29:17Z</time>
      </trkpt>
      <trkpt lat="42.96624" lon="-0.04739">
        <ele>965.8</ele>
        <time>2024-08-15T09:29:18Z</time>
      </trkpt>
      <trkpt lat="42.96631" lon="-0.04728">
        <ele>964.8</ele>
        <time>2024-08-15T09:29:20Z</time>
      </trkpt>
      <trkpt lat="42.96636" lon="-0.04721">
        <ele>963</ele>
        <time>2024-08-15T09:29:21Z</time>
      </trkpt>
      <trkpt lat="42.96641" lon="-0.04713">
        <ele>962.6</ele>
        <time>2024-08-15T09:29:22Z</time>
      </trkpt>
      <trkpt lat="42.96644" lon="-0.04706">
        <ele>960.8</ele>
        <time>2024-08-15T09:29:23Z</time>
      </trkpt>
      <trkpt lat="42.96647" lon="-0.04702">
        <ele>959.6</ele>
        <time>2024-08-15T09:29:24Z</time>
      </trkpt>
      <trkpt lat="42.9665" lon="-0.04697">
        <ele>957.8</ele>
        <time>2024-08-15T09:29:25Z</time>
      </trkpt>
      <trkpt lat="42.96652" lon="-0.04693">
        <ele>956.6</ele>
        <time>2024-08-15T09:29:26Z</time>
      </trkpt>
      <trkpt lat="42.96655" lon="-0.04691">
        <ele>956</ele>
        <time>2024-08-15T09:29:27Z</time>
      </trkpt>
      <trkpt lat="42.96656" lon="-0.04692">
        <ele>955.4</ele>
        <time>2024-08-15T09:29:28Z</time>
      </trkpt>
      <trkpt lat="42.96658" lon="-0.04698">
        <ele>954.2</ele>
        <time>2024-08-15T09:29:30Z</time>
      </trkpt>
      <trkpt lat="42.96659" lon="-0.04711">
        <ele>952.8</ele>
        <time>2024-08-15T09:29:32Z</time>
      </trkpt>
      <trkpt lat="42.96659" lon="-0.04722">
        <ele>951.4</ele>
        <time>2024-08-15T09:29:34Z</time>
      </trkpt>
      <trkpt lat="42.96659" lon="-0.04726">
        <ele>950.4</ele>
        <time>2024-08-15T09:29:35Z</time>
      </trkpt>
      <trkpt lat="42.9666" lon="-0.04729">
        <ele>950</ele>
        <time>2024-08-15T09:29:36Z</time>
      </trkpt>
      <trkpt lat="42.96662" lon="-0.04729">
        <ele>949</ele>
        <time>2024-08-15T09:29:37Z</time>
      </trkpt>
      <trkpt lat="42.96664" lon="-0.04728">
        <ele>948.2</ele>
        <time>2024-08-15T09:29:38Z</time>
      </trkpt>
      <trkpt lat="42.96667" lon="-0.04727">
        <ele>947.2</ele>
        <time>2024-08-15T09:29:39Z</time>
      </trkpt>
      <trkpt lat="42.9667" lon="-0.04726">
        <ele>947</ele>
        <time>2024-08-15T09:29:40Z</time>
      </trkpt>
      <trkpt lat="42.96674" lon="-0.04722">
        <ele>946.4</ele>
        <time>2024-08-15T09:29:41Z</time>
      </trkpt>
      <trkpt lat="42.96679" lon="-0.04718">
        <ele>945.6</ele>
        <time>2024-08-15T09:29:42Z</time>
      </trkpt>
      <trkpt lat="42.96696" lon="-0.04706">
        <ele>944.6</ele>
        <time>2024-08-15T09:29:45Z</time>
      </trkpt>
      <trkpt lat="42.96702" lon="-0.04702">
        <ele>943.2</ele>
        <time>2024-08-15T09:29:46Z</time>
      </trkpt>
      <trkpt lat="42.96707" lon="-0.04699">
        <ele>942.4</ele>
        <time>2024-08-15T09:29:47Z</time>
      </trkpt>
      <trkpt lat="42.96711" lon="-0.04695">
        <ele>941.2</ele>
        <time>2024-08-15T09:29:48Z</time>
      </trkpt>
      <trkpt lat="42.96719" lon="-0.04687">
        <ele>939</ele>
        <time>2024-08-15T09:29:50Z</time>
      </trkpt>
      <trkpt lat="42.96724" lon="-0.04683">
        <ele>937.6</ele>
        <time>2024-08-15T09:29:51Z</time>
      </trkpt>
      <trkpt lat="42.96729" lon="-0.04679">
        <ele>937.2</ele>
        <time>2024-08-15T09:29:52Z</time>
      </trkpt>
      <trkpt lat="42.96734" lon="-0.04675">
        <ele>935.8</ele>
        <time>2024-08-15T09:29:53Z</time>
      </trkpt>
      <trkpt lat="42.96742" lon="-0.04665">
        <ele>934</ele>
        <time>2024-08-15T09:29:55Z</time>
      </trkpt>
      <trkpt lat="42.96746" lon="-0.0466">
        <ele>933</ele>
        <time>2024-08-15T09:29:56Z</time>
      </trkpt>
      <trkpt lat="42.96751" lon="-0.04655">
        <ele>931</ele>
        <time>2024-08-15T09:29:57Z</time>
      </trkpt>
      <trkpt lat="42.96756" lon="-0.04651">
        <ele>929.8</ele>
        <time>2024-08-15T09:29:58Z</time>
      </trkpt>
      <trkpt lat="42.96766" lon="-0.04641">
        <ele>928.2</ele>
        <time>2024-08-15T09:30:00Z</time>
      </trkpt>
      <trkpt lat="42.96771" lon="-0.04636">
        <ele>927.8</ele>
        <time>2024-08-15T09:30:01Z</time>
      </trkpt>
      <trkpt lat="42.96776" lon="-0.04631">
        <ele>926.6</ele>
        <time>2024-08-15T09:30:02Z</time>
      </trkpt>
      <trkpt lat="42.9678" lon="-0.04626">
        <ele>926.2</ele>
        <time>2024-08-15T09:30:03Z</time>
      </trkpt>
      <trkpt lat="42.96784" lon="-0.04621">
        <ele>925</ele>
        <time>2024-08-15T09:30:04Z</time>
      </trkpt>
      <trkpt lat="42.96787" lon="-0.04617">
        <ele>924.4</ele>
        <time>2024-08-15T09:30:05Z</time>
      </trkpt>
      <trkpt lat="42.9679" lon="-0.04612">
        <ele>923</ele>
        <time>2024-08-15T09:30:06Z</time>
      </trkpt>
      <trkpt lat="42.96795" lon="-0.04603">
        <ele>921.6</ele>
        <time>2024-08-15T09:30:08Z</time>
      </trkpt>
      <trkpt lat="42.96798" lon="-0.04598">
        <ele>920.6</ele>
        <time>2024-08-15T09:30:09Z</time>
      </trkpt>
      <trkpt lat="42.96801" lon="-0.04593">
        <ele>920.4</ele>
        <time>2024-08-15T09:30:10Z</time>
      </trkpt>
      <trkpt lat="42.96808" lon="-0.04585">
        <ele>918.8</ele>
        <time>2024-08-15T09:30:12Z</time>
      </trkpt>
      <trkpt lat="42.9681" lon="-0.04581">
        <ele>916.8</ele>
        <time>2024-08-15T09:30:13Z</time>
      </trkpt>
      <trkpt lat="42.96813" lon="-0.04577">
        <ele>915.6</ele>
        <time>2024-08-15T09:30:14Z</time>
      </trkpt>
      <trkpt lat="42.96817" lon="-0.04571">
        <ele>914.8</ele>
        <time>2024-08-15T09:30:15Z</time>
      </trkpt>
      <trkpt lat="42.96821" lon="-0.04564">
        <ele>913.8</ele>
        <time>2024-08-15T09:30:16Z</time>
      </trkpt>
      <trkpt lat="42.96826" lon="-0.04556">
        <ele>913.6</ele>
        <time>2024-08-15T09:30:17Z</time>
      </trkpt>
      <trkpt lat="42.96838" lon="-0.04538">
        <ele>912.6</ele>
        <time>2024-08-15T09:30:19Z</time>
      </trkpt>
      <trkpt lat="42.96846" lon="-0.04528">
        <ele>910.2</ele>
        <time>2024-08-15T09:30:21Z</time>
      </trkpt>
      <trkpt lat="42.96847" lon="-0.04526">
        <ele>908.2</ele>
        <time>2024-08-15T09:30:22Z</time>
      </trkpt>
      <trkpt lat="42.96848" lon="-0.04524">
        <ele>905.6</ele>
        <time>2024-08-15T09:30:23Z</time>
      </trkpt>
      <trkpt lat="42.96849" lon="-0.04522">
        <ele>904.6</ele>
        <time>2024-08-15T09:30:24Z</time>
      </trkpt>
      <trkpt lat="42.9685" lon="-0.0452">
        <ele>903.2</ele>
        <time>2024-08-15T09:30:25Z</time>
      </trkpt>
      <trkpt lat="42.96851" lon="-0.04517">
        <ele>902.6</ele>
        <time>2024-08-15T09:30:26Z</time>
      </trkpt>
      <trkpt lat="42.96852" lon="-0.04514">
        <ele>901.8</ele>
        <time>2024-08-15T09:30:27Z</time>
      </trkpt>
      <trkpt lat="42.96854" lon="-0.0451">
        <ele>901.6</ele>
        <time>2024-08-15T09:30:28Z</time>
      </trkpt>
      <trkpt lat="42.96857" lon="-0.04504">
        <ele>900.8</ele>
        <time>2024-08-15T09:30:30Z</time>
      </trkpt>
      <trkpt lat="42.96859" lon="-0.04501">
        <ele>900.6</ele>
        <time>2024-08-15T09:30:31Z</time>
      </trkpt>
      <trkpt lat="42.96862" lon="-0.04495">
        <ele>900.2</ele>
        <time>2024-08-15T09:30:33Z</time>
      </trkpt>
      <trkpt lat="42.96864" lon="-0.04492">
        <ele>900</ele>
        <time>2024-08-15T09:30:34Z</time>
      </trkpt>
      <trkpt lat="42.96869" lon="-0.04486">
        <ele>899.4</ele>
        <time>2024-08-15T09:30:36Z</time>
      </trkpt>
      <trkpt lat="42.96872" lon="-0.04482">
        <ele>899.2</ele>
        <time>2024-08-15T09:30:37Z</time>
      </trkpt>
      <trkpt lat="42.96876" lon="-0.04477">
        <ele>898</ele>
        <time>2024-08-15T09:30:39Z</time>
      </trkpt>
      <trkpt lat="42.96879" lon="-0.04474">
        <ele>897.8</ele>
        <time>2024-08-15T09:30:40Z</time>
      </trkpt>
      <trkpt lat="42.96886" lon="-0.04463">
        <ele>897.2</ele>
        <time>2024-08-15T09:30:42Z</time>
      </trkpt>
      <trkpt lat="42.96888" lon="-0.04456">
        <ele>896.6</ele>
        <time>2024-08-15T09:30:43Z</time>
      </trkpt>
      <trkpt lat="42.96892" lon="-0.04447">
        <ele>896.4</ele>
        <time>2024-08-15T09:30:44Z</time>
      </trkpt>
      <trkpt lat="42.96897" lon="-0.04437">
        <ele>895.8</ele>
        <time>2024-08-15T09:30:45Z</time>
      </trkpt>
      <trkpt lat="42.96903" lon="-0.04427">
        <ele>895</ele>
        <time>2024-08-15T09:30:46Z</time>
      </trkpt>
      <trkpt lat="42.96908" lon="-0.04418">
        <ele>894.8</ele>
        <time>2024-08-15T09:30:47Z</time>
      </trkpt>
      <trkpt lat="42.96912" lon="-0.04409">
        <ele>894</ele>
        <time>2024-08-15T09:30:48Z</time>
      </trkpt>
      <trkpt lat="42.96917" lon="-0.044">
        <ele>893.2</ele>
        <time>2024-08-15T09:30:49Z</time>
      </trkpt>
      <trkpt lat="42.96921" lon="-0.04392">
        <ele>892</ele>
        <time>2024-08-15T09:30:50Z</time>
      </trkpt>
      <trkpt lat="42.96925" lon="-0.04384">
        <ele>891.4</ele>
        <time>2024-08-15T09:30:51Z</time>
      </trkpt>
      <trkpt lat="42.96929" lon="-0.04376">
        <ele>890.4</ele>
        <time>2024-08-15T09:30:52Z</time>
      </trkpt>
      <trkpt lat="42.96933" lon="-0.0437">
        <ele>889.8</ele>
        <time>2024-08-15T09:30:53Z</time>
      </trkpt>
      <trkpt lat="42.96936" lon="-0.04366">
        <ele>889.4</ele>
        <time>2024-08-15T09:30:54Z</time>
      </trkpt>
      <trkpt lat="42.96939" lon="-0.04362">
        <ele>888.8</ele>
        <time>2024-08-15T09:30:55Z</time>
      </trkpt>
      <trkpt lat="42.96945" lon="-0.04356">
        <ele>887.6</ele>
        <time>2024-08-15T09:30:57Z</time>
      </trkpt>
      <trkpt lat="42.9695" lon="-0.04353">
        <ele>887.2</ele>
        <time>2024-08-15T09:30:58Z</time>
      </trkpt>
      <trkpt lat="42.96955" lon="-0.04351">
        <ele>886.8</ele>
        <time>2024-08-15T09:30:59Z</time>
      </trkpt>
      <trkpt lat="42.9696" lon="-0.04348">
        <ele>886.6</ele>
        <time>2024-08-15T09:31:00Z</time>
      </trkpt>
      <trkpt lat="42.96966" lon="-0.04346">
        <ele>885.8</ele>
        <time>2024-08-15T09:31:01Z</time>
      </trkpt>
      <trkpt lat="42.96985" lon="-0.04335">
        <ele>884.8</ele>
        <time>2024-08-15T09:31:04Z</time>
      </trkpt>
      <trkpt lat="42.96991" lon="-0.04331">
        <ele>884.8</ele>
        <time>2024-08-15T09:31:05Z</time>
      </trkpt>
      <trkpt lat="42.96996" lon="-0.04327">
        <ele>884.2</ele>
        <time>2024-08-15T09:31:06Z</time>
      </trkpt>
      <trkpt lat="42.97" lon="-0.04325">
        <ele>884</ele>
        <time>2024-08-15T09:31:07Z</time>
      </trkpt>
      <trkpt lat="42.97003" lon="-0.04322">
        <ele>883.2</ele>
        <time>2024-08-15T09:31:08Z</time>
      </trkpt>
      <trkpt lat="42.97008" lon="-0.0432">
        <ele>882.2</ele>
        <time>2024-08-15T09:31:09Z</time>
      </trkpt>
      <trkpt lat="42.97019" lon="-0.04313">
        <ele>880.8</ele>
        <time>2024-08-15T09:31:11Z</time>
      </trkpt>
      <trkpt lat="42.97032" lon="-0.04305">
        <ele>879.6</ele>
        <time>2024-08-15T09:31:13Z</time>
      </trkpt>
      <trkpt lat="42.97037" lon="-0.04301">
        <ele>879.4</ele>
        <time>2024-08-15T09:31:14Z</time>
      </trkpt>
      <trkpt lat="42.9705" lon="-0.04294">
        <ele>878.6</ele>
        <time>2024-08-15T09:31:16Z</time>
      </trkpt>
      <trkpt lat="42.97056" lon="-0.04292">
        <ele>878</ele>
        <time>2024-08-15T09:31:17Z</time>
      </trkpt>
      <trkpt lat="42.97063" lon="-0.04288">
        <ele>877.4</ele>
        <time>2024-08-15T09:31:18Z</time>
      </trkpt>
      <trkpt lat="42.97068" lon="-0.04285">
        <ele>877.2</ele>
        <time>2024-08-15T09:31:19Z</time>
      </trkpt>
      <trkpt lat="42.97072" lon="-0.04282">
        <ele>876.8</ele>
        <time>2024-08-15T09:31:20Z</time>
      </trkpt>
      <trkpt lat="42.97075" lon="-0.04276">
        <ele>876.2</ele>
        <time>2024-08-15T09:31:21Z</time>
      </trkpt>
      <trkpt lat="42.97076" lon="-0.0427">
        <ele>874.8</ele>
        <time>2024-08-15T09:31:22Z</time>
      </trkpt>
      <trkpt lat="42.97078" lon="-0.04266">
        <ele>874.2</ele>
        <time>2024-08-15T09:31:23Z</time>
      </trkpt>
      <trkpt lat="42.97078" lon="-0.04262">
        <ele>873.4</ele>
        <time>2024-08-15T09:31:24Z</time>
      </trkpt>
      <trkpt lat="42.9708" lon="-0.04258">
        <ele>872.8</ele>
        <time>2024-08-15T09:31:25Z</time>
      </trkpt>
      <trkpt lat="42.97083" lon="-0.04254">
        <ele>872.6</ele>
        <time>2024-08-15T09:31:26Z</time>
      </trkpt>
      <trkpt lat="42.97085" lon="-0.04251">
        <ele>872</ele>
        <time>2024-08-15T09:31:27Z</time>
      </trkpt>
      <trkpt lat="42.97088" lon="-0.04247">
        <ele>872</ele>
        <time>2024-08-15T09:31:28Z</time>
      </trkpt>
      <trkpt lat="42.97091" lon="-0.04243">
        <ele>871.6</ele>
        <time>2024-08-15T09:31:29Z</time>
      </trkpt>
      <trkpt lat="42.97094" lon="-0.04239">
        <ele>871.6</ele>
        <time>2024-08-15T09:31:30Z</time>
      </trkpt>
      <trkpt lat="42.97102" lon="-0.04231">
        <ele>871</ele>
        <time>2024-08-15T09:31:32Z</time>
      </trkpt>
      <trkpt lat="42.97105" lon="-0.04228">
        <ele>870.6</ele>
        <time>2024-08-15T09:31:33Z</time>
      </trkpt>
      <trkpt lat="42.9711" lon="-0.04222">
        <ele>869.4</ele>
        <time>2024-08-15T09:31:35Z</time>
      </trkpt>
      <trkpt lat="42.97114" lon="-0.04213">
        <ele>867.4</ele>
        <time>2024-08-15T09:31:37Z</time>
      </trkpt>
      <trkpt lat="42.97117" lon="-0.04208">
        <ele>866</ele>
        <time>2024-08-15T09:31:38Z</time>
      </trkpt>
      <trkpt lat="42.97121" lon="-0.04204">
        <ele>865.4</ele>
        <time>2024-08-15T09:31:39Z</time>
      </trkpt>
      <trkpt lat="42.97123" lon="-0.04199">
        <ele>863.2</ele>
        <time>2024-08-15T09:31:40Z</time>
      </trkpt>
      <trkpt lat="42.97124" lon="-0.04198">
        <ele>861.6</ele>
        <time>2024-08-15T09:31:41Z</time>
      </trkpt>
      <trkpt lat="42.97126" lon="-0.04195">
        <ele>860.8</ele>
        <time>2024-08-15T09:31:42Z</time>
      </trkpt>
      <trkpt lat="42.97128" lon="-0.04192">
        <ele>859.2</ele>
        <time>2024-08-15T09:31:43Z</time>
      </trkpt>
      <trkpt lat="42.9713" lon="-0.04191">
        <ele>858.2</ele>
        <time>2024-08-15T09:31:44Z</time>
      </trkpt>
      <trkpt lat="42.9713" lon="-0.04192">
        <ele>856.4</ele>
        <time>2024-08-15T09:31:45Z</time>
      </trkpt>
      <trkpt lat="42.9713" lon="-0.04193">
        <ele>856</ele>
        <time>2024-08-15T09:31:46Z</time>
      </trkpt>
      <trkpt lat="42.9713" lon="-0.04195">
        <ele>855.2</ele>
        <time>2024-08-15T09:31:47Z</time>
      </trkpt>
      <trkpt lat="42.97129" lon="-0.042">
        <ele>854.6</ele>
        <time>2024-08-15T09:31:49Z</time>
      </trkpt>
      <trkpt lat="42.97128" lon="-0.04205">
        <ele>854</ele>
        <time>2024-08-15T09:31:50Z</time>
      </trkpt>
      <trkpt lat="42.9713" lon="-0.04209">
        <ele>853.4</ele>
        <time>2024-08-15T09:31:51Z</time>
      </trkpt>
      <trkpt lat="42.97132" lon="-0.04213">
        <ele>852.8</ele>
        <time>2024-08-15T09:31:52Z</time>
      </trkpt>
      <trkpt lat="42.97139" lon="-0.04233">
        <ele>852.2</ele>
        <time>2024-08-15T09:31:55Z</time>
      </trkpt>
      <trkpt lat="42.9714" lon="-0.0424">
        <ele>852.2</ele>
        <time>2024-08-15T09:31:56Z</time>
      </trkpt>
      <trkpt lat="42.97143" lon="-0.04247">
        <ele>852</ele>
        <time>2024-08-15T09:31:57Z</time>
      </trkpt>
      <trkpt lat="42.97149" lon="-0.04254">
        <ele>851.8</ele>
        <time>2024-08-15T09:31:58Z</time>
      </trkpt>
      <trkpt lat="42.97157" lon="-0.04263">
        <ele>851.6</ele>
        <time>2024-08-15T09:31:59Z</time>
      </trkpt>
      <trkpt lat="42.97164" lon="-0.04271">
        <ele>851.6</ele>
        <time>2024-08-15T09:32:00Z</time>
      </trkpt>
      <trkpt lat="42.9717" lon="-0.04275">
        <ele>851.2</ele>
        <time>2024-08-15T09:32:01Z</time>
      </trkpt>
      <trkpt lat="42.97175" lon="-0.0428">
        <ele>851.2</ele>
        <time>2024-08-15T09:32:02Z</time>
      </trkpt>
      <trkpt lat="42.9718" lon="-0.04282">
        <ele>850.8</ele>
        <time>2024-08-15T09:32:03Z</time>
      </trkpt>
      <trkpt lat="42.97187" lon="-0.04286">
        <ele>850.6</ele>
        <time>2024-08-15T09:32:04Z</time>
      </trkpt>
      <trkpt lat="42.97205" lon="-0.04302">
        <ele>849.8</ele>
        <time>2024-08-15T09:32:07Z</time>
      </trkpt>
      <trkpt lat="42.97209" lon="-0.04307">
        <ele>849.6</ele>
        <time>2024-08-15T09:32:08Z</time>
      </trkpt>
      <trkpt lat="42.97213" lon="-0.04324">
        <ele>848.8</ele>
        <time>2024-08-15T09:32:10Z</time>
      </trkpt>
      <trkpt lat="42.97215" lon="-0.04331">
        <ele>848.2</ele>
        <time>2024-08-15T09:32:11Z</time>
      </trkpt>
      <trkpt lat="42.97216" lon="-0.0434">
        <ele>847.2</ele>
        <time>2024-08-15T09:32:12Z</time>
      </trkpt>
      <trkpt lat="42.97217" lon="-0.04349">
        <ele>846.4</ele>
        <time>2024-08-15T09:32:13Z</time>
      </trkpt>
      <trkpt lat="42.97219" lon="-0.04355">
        <ele>845.8</ele>
        <time>2024-08-15T09:32:14Z</time>
      </trkpt>
      <trkpt lat="42.97219" lon="-0.04363">
        <ele>845</ele>
        <time>2024-08-15T09:32:15Z</time>
      </trkpt>
      <trkpt lat="42.9722" lon="-0.04371">
        <ele>844.6</ele>
        <time>2024-08-15T09:32:16Z</time>
      </trkpt>
      <trkpt lat="42.97222" lon="-0.04379">
        <ele>843.4</ele>
        <time>2024-08-15T09:32:17Z</time>
      </trkpt>
      <trkpt lat="42.97226" lon="-0.04391">
        <ele>842.6</ele>
        <time>2024-08-15T09:32:18Z</time>
      </trkpt>
      <trkpt lat="42.97229" lon="-0.04399">
        <ele>841</ele>
        <time>2024-08-15T09:32:19Z</time>
      </trkpt>
      <trkpt lat="42.97232" lon="-0.04406">
        <ele>840</ele>
        <time>2024-08-15T09:32:20Z</time>
      </trkpt>
      <trkpt lat="42.97234" lon="-0.04413">
        <ele>839.4</ele>
        <time>2024-08-15T09:32:21Z</time>
      </trkpt>
      <trkpt lat="42.97237" lon="-0.0442">
        <ele>838.2</ele>
        <time>2024-08-15T09:32:22Z</time>
      </trkpt>
      <trkpt lat="42.9724" lon="-0.04423">
        <ele>837.2</ele>
        <time>2024-08-15T09:32:23Z</time>
      </trkpt>
      <trkpt lat="42.97242" lon="-0.04427">
        <ele>835.8</ele>
        <time>2024-08-15T09:32:24Z</time>
      </trkpt>
      <trkpt lat="42.97243" lon="-0.0443">
        <ele>835.4</ele>
        <time>2024-08-15T09:32:25Z</time>
      </trkpt>
      <trkpt lat="42.97247" lon="-0.04441">
        <ele>834.4</ele>
        <time>2024-08-15T09:32:27Z</time>
      </trkpt>
      <trkpt lat="42.97252" lon="-0.04454">
        <ele>833</ele>
        <time>2024-08-15T09:32:29Z</time>
      </trkpt>
      <trkpt lat="42.97255" lon="-0.04459">
        <ele>832.8</ele>
        <time>2024-08-15T09:32:30Z</time>
      </trkpt>
      <trkpt lat="42.97257" lon="-0.04464">
        <ele>832.2</ele>
        <time>2024-08-15T09:32:31Z</time>
      </trkpt>
      <trkpt lat="42.97259" lon="-0.04469">
        <ele>832</ele>
        <time>2024-08-15T09:32:32Z</time>
      </trkpt>
      <trkpt lat="42.97262" lon="-0.04474">
        <ele>830.8</ele>
        <time>2024-08-15T09:32:33Z</time>
      </trkpt>
      <trkpt lat="42.97264" lon="-0.04478">
        <ele>830.2</ele>
        <time>2024-08-15T09:32:34Z</time>
      </trkpt>
      <trkpt lat="42.97266" lon="-0.04482">
        <ele>829.4</ele>
        <time>2024-08-15T09:32:35Z</time>
      </trkpt>
      <trkpt lat="42.97269" lon="-0.04487">
        <ele>828.2</ele>
        <time>2024-08-15T09:32:36Z</time>
      </trkpt>
      <trkpt lat="42.97275" lon="-0.04498">
        <ele>826.4</ele>
        <time>2024-08-15T09:32:38Z</time>
      </trkpt>
      <trkpt lat="42.97278" lon="-0.04502">
        <ele>825.8</ele>
        <time>2024-08-15T09:32:39Z</time>
      </trkpt>
      <trkpt lat="42.97281" lon="-0.04507">
        <ele>824</ele>
        <time>2024-08-15T09:32:40Z</time>
      </trkpt>
      <trkpt lat="42.97284" lon="-0.04512">
        <ele>823.8</ele>
        <time>2024-08-15T09:32:41Z</time>
      </trkpt>
      <trkpt lat="42.97286" lon="-0.04518">
        <ele>822.6</ele>
        <time>2024-08-15T09:32:42Z</time>
      </trkpt>
      <trkpt lat="42.97289" lon="-0.04522">
        <ele>821.8</ele>
        <time>2024-08-15T09:32:43Z</time>
      </trkpt>
      <trkpt lat="42.97291" lon="-0.04526">
        <ele>821</ele>
        <time>2024-08-15T09:32:44Z</time>
      </trkpt>
      <trkpt lat="42.97293" lon="-0.04529">
        <ele>819.6</ele>
        <time>2024-08-15T09:32:45Z</time>
      </trkpt>
      <trkpt lat="42.97295" lon="-0.04533">
        <ele>819</ele>
        <time>2024-08-15T09:32:46Z</time>
      </trkpt>
      <trkpt lat="42.97296" lon="-0.04537">
        <ele>818</ele>
        <time>2024-08-15T09:32:47Z</time>
      </trkpt>
      <trkpt lat="42.973" lon="-0.04548">
        <ele>816</ele>
        <time>2024-08-15T09:32:49Z</time>
      </trkpt>
      <trkpt lat="42.97302" lon="-0.04553">
        <ele>815.6</ele>
        <time>2024-08-15T09:32:50Z</time>
      </trkpt>
      <trkpt lat="42.97305" lon="-0.04559">
        <ele>814.8</ele>
        <time>2024-08-15T09:32:51Z</time>
      </trkpt>
      <trkpt lat="42.97307" lon="-0.04563">
        <ele>814.2</ele>
        <time>2024-08-15T09:32:52Z</time>
      </trkpt>
      <trkpt lat="42.97309" lon="-0.04567">
        <ele>813.6</ele>
        <time>2024-08-15T09:32:53Z</time>
      </trkpt>
      <trkpt lat="42.97313" lon="-0.04572">
        <ele>813</ele>
        <time>2024-08-15T09:32:54Z</time>
      </trkpt>
      <trkpt lat="42.97316" lon="-0.04576">
        <ele>812.6</ele>
        <time>2024-08-15T09:32:55Z</time>
      </trkpt>
      <trkpt lat="42.97324" lon="-0.04583">
        <ele>811.2</ele>
        <time>2024-08-15T09:32:57Z</time>
      </trkpt>
      <trkpt lat="42.9733" lon="-0.04588">
        <ele>810.4</ele>
        <time>2024-08-15T09:32:58Z</time>
      </trkpt>
      <trkpt lat="42.97334" lon="-0.04591">
        <ele>810</ele>
        <time>2024-08-15T09:32:59Z</time>
      </trkpt>
      <trkpt lat="42.9734" lon="-0.04597">
        <ele>809</ele>
        <time>2024-08-15T09:33:00Z</time>
      </trkpt>
      <trkpt lat="42.97344" lon="-0.04603">
        <ele>808.6</ele>
        <time>2024-08-15T09:33:01Z</time>
      </trkpt>
      <trkpt lat="42.97349" lon="-0.04607">
        <ele>808.4</ele>
        <time>2024-08-15T09:33:02Z</time>
      </trkpt>
      <trkpt lat="42.97353" lon="-0.04613">
        <ele>807.4</ele>
        <time>2024-08-15T09:33:03Z</time>
      </trkpt>
      <trkpt lat="42.97357" lon="-0.04618">
        <ele>807</ele>
        <time>2024-08-15T09:33:04Z</time>
      </trkpt>
      <trkpt lat="42.97362" lon="-0.04623">
        <ele>806.4</ele>
        <time>2024-08-15T09:33:05Z</time>
      </trkpt>
      <trkpt lat="42.97366" lon="-0.04628">
        <ele>806.2</ele>
        <time>2024-08-15T09:33:06Z</time>
      </trkpt>
      <trkpt lat="42.9737" lon="-0.04632">
        <ele>805.6</ele>
        <time>2024-08-15T09:33:07Z</time>
      </trkpt>
      <trkpt lat="42.97373" lon="-0.04635">
        <ele>804.4</ele>
        <time>2024-08-15T09:33:08Z</time>
      </trkpt>
      <trkpt lat="42.97376" lon="-0.04638">
        <ele>804.2</ele>
        <time>2024-08-15T09:33:09Z</time>
      </trkpt>
      <trkpt lat="42.97378" lon="-0.04641">
        <ele>803.6</ele>
        <time>2024-08-15T09:33:10Z</time>
      </trkpt>
      <trkpt lat="42.97381" lon="-0.04645">
        <ele>803.2</ele>
        <time>2024-08-15T09:33:11Z</time>
      </trkpt>
      <trkpt lat="42.9739" lon="-0.04656">
        <ele>802</ele>
        <time>2024-08-15T09:33:13Z</time>
      </trkpt>
      <trkpt lat="42.97397" lon="-0.04664">
        <ele>801.4</ele>
        <time>2024-08-15T09:33:15Z</time>
      </trkpt>
      <trkpt lat="42.97402" lon="-0.0467">
        <ele>800.8</ele>
        <time>2024-08-15T09:33:16Z</time>
      </trkpt>
      <trkpt lat="42.97405" lon="-0.04675">
        <ele>800</ele>
        <time>2024-08-15T09:33:17Z</time>
      </trkpt>
      <trkpt lat="42.9741" lon="-0.04681">
        <ele>799.6</ele>
        <time>2024-08-15T09:33:18Z</time>
      </trkpt>
      <trkpt lat="42.97413" lon="-0.04685">
        <ele>799</ele>
        <time>2024-08-15T09:33:19Z</time>
      </trkpt>
      <trkpt lat="42.97416" lon="-0.04688">
        <ele>798.8</ele>
        <time>2024-08-15T09:33:20Z</time>
      </trkpt>
      <trkpt lat="42.97419" lon="-0.04691">
        <ele>798</ele>
        <time>2024-08-15T09:33:21Z</time>
      </trkpt>
      <trkpt lat="42.97422" lon="-0.04693">
        <ele>797.6</ele>
        <time>2024-08-15T09:33:22Z</time>
      </trkpt>
      <trkpt lat="42.97425" lon="-0.04697">
        <ele>796.4</ele>
        <time>2024-08-15T09:33:23Z</time>
      </trkpt>
      <trkpt lat="42.97425" lon="-0.04697">
        <ele>795.2</ele>
        <time>2024-08-15T09:33:24Z</time>
      </trkpt>
      <trkpt lat="42.97424" lon="-0.04702">
        <ele>794.4</ele>
        <time>2024-08-15T09:33:25Z</time>
      </trkpt>
      <trkpt lat="42.97421" lon="-0.04704">
        <ele>793.4</ele>
        <time>2024-08-15T09:33:26Z</time>
      </trkpt>
      <trkpt lat="42.97419" lon="-0.04705">
        <ele>793.2</ele>
        <time>2024-08-15T09:33:27Z</time>
      </trkpt>
      <trkpt lat="42.97415" lon="-0.04708">
        <ele>792.2</ele>
        <time>2024-08-15T09:33:28Z</time>
      </trkpt>
      <trkpt lat="42.97411" lon="-0.04711">
        <ele>791.8</ele>
        <time>2024-08-15T09:33:29Z</time>
      </trkpt>
      <trkpt lat="42.97406" lon="-0.04713">
        <ele>791.4</ele>
        <time>2024-08-15T09:33:30Z</time>
      </trkpt>
      <trkpt lat="42.974" lon="-0.04714">
        <ele>791.2</ele>
        <time>2024-08-15T09:33:31Z</time>
      </trkpt>
      <trkpt lat="42.97392" lon="-0.04714">
        <ele>790.8</ele>
        <time>2024-08-15T09:33:32Z</time>
      </trkpt>
      <trkpt lat="42.97386" lon="-0.04713">
        <ele>790.2</ele>
        <time>2024-08-15T09:33:33Z</time>
      </trkpt>
      <trkpt lat="42.97382" lon="-0.04713">
        <ele>790</ele>
        <time>2024-08-15T09:33:34Z</time>
      </trkpt>
      <trkpt lat="42.97375" lon="-0.04712">
        <ele>788.4</ele>
        <time>2024-08-15T09:33:35Z</time>
      </trkpt>
      <trkpt lat="42.97369" lon="-0.04712">
        <ele>787.2</ele>
        <time>2024-08-15T09:33:36Z</time>
      </trkpt>
      <trkpt lat="42.97363" lon="-0.04711">
        <ele>786.2</ele>
        <time>2024-08-15T09:33:37Z</time>
      </trkpt>
      <trkpt lat="42.97357" lon="-0.04711">
        <ele>785.6</ele>
        <time>2024-08-15T09:33:38Z</time>
      </trkpt>
      <trkpt lat="42.97351" lon="-0.04711">
        <ele>784.8</ele>
        <time>2024-08-15T09:33:39Z</time>
      </trkpt>
      <trkpt lat="42.97346" lon="-0.04711">
        <ele>784</ele>
        <time>2024-08-15T09:33:40Z</time>
      </trkpt>
      <trkpt lat="42.97339" lon="-0.04712">
        <ele>783.6</ele>
        <time>2024-08-15T09:33:41Z</time>
      </trkpt>
      <trkpt lat="42.97322" lon="-0.04714">
        <ele>782.2</ele>
        <time>2024-08-15T09:33:44Z</time>
      </trkpt>
      <trkpt lat="42.97318" lon="-0.04715">
        <ele>781.8</ele>
        <time>2024-08-15T09:33:45Z</time>
      </trkpt>
      <trkpt lat="42.97315" lon="-0.04717">
        <ele>781.4</ele>
        <time>2024-08-15T09:33:46Z</time>
      </trkpt>
      <trkpt lat="42.97312" lon="-0.0472">
        <ele>781</ele>
        <time>2024-08-15T09:33:47Z</time>
      </trkpt>
      <trkpt lat="42.9731" lon="-0.04722">
        <ele>780.8</ele>
        <time>2024-08-15T09:33:48Z</time>
      </trkpt>
      <trkpt lat="42.97308" lon="-0.04724">
        <ele>780.6</ele>
        <time>2024-08-15T09:33:49Z</time>
      </trkpt>
      <trkpt lat="42.97303" lon="-0.04728">
        <ele>780.2</ele>
        <time>2024-08-15T09:33:51Z</time>
      </trkpt>
      <trkpt lat="42.973" lon="-0.04731">
        <ele>780</ele>
        <time>2024-08-15T09:33:52Z</time>
      </trkpt>
      <trkpt lat="42.97298" lon="-0.04732">
        <ele>779</ele>
        <time>2024-08-15T09:33:53Z</time>
      </trkpt>
      <trkpt lat="42.97296" lon="-0.04734">
        <ele>778.8</ele>
        <time>2024-08-15T09:33:54Z</time>
      </trkpt>
      <trkpt lat="42.97291" lon="-0.04738">
        <ele>777</ele>
        <time>2024-08-15T09:33:56Z</time>
      </trkpt>
      <trkpt lat="42.97289" lon="-0.04739">
        <ele>776.6</ele>
        <time>2024-08-15T09:33:57Z</time>
      </trkpt>
      <trkpt lat="42.97289" lon="-0.0474">
        <ele>775.6</ele>
        <time>2024-08-15T09:33:58Z</time>
      </trkpt>
      <trkpt lat="42.97288" lon="-0.04742">
        <ele>775.2</ele>
        <time>2024-08-15T09:33:59Z</time>
      </trkpt>
      <trkpt lat="42.97286" lon="-0.04743">
        <ele>774.4</ele>
        <time>2024-08-15T09:34:00Z</time>
      </trkpt>
      <trkpt lat="42.97285" lon="-0.04745">
        <ele>774</ele>
        <time>2024-08-15T09:34:01Z</time>
      </trkpt>
      <trkpt lat="42.97283" lon="-0.04746">
        <ele>773.2</ele>
        <time>2024-08-15T09:34:02Z</time>
      </trkpt>
      <trkpt lat="42.97279" lon="-0.04743">
        <ele>771.8</ele>
        <time>2024-08-15T09:34:04Z</time>
      </trkpt>
      <trkpt lat="42.97272" lon="-0.04741">
        <ele>770.6</ele>
        <time>2024-08-15T09:34:06Z</time>
      </trkpt>
      <trkpt lat="42.9727" lon="-0.0474">
        <ele>770</ele>
        <time>2024-08-15T09:34:07Z</time>
      </trkpt>
      <trkpt lat="42.97268" lon="-0.0474">
        <ele>769.4</ele>
        <time>2024-08-15T09:34:08Z</time>
      </trkpt>
      <trkpt lat="42.97264" lon="-0.04741">
        <ele>768.6</ele>
        <time>2024-08-15T09:34:09Z</time>
      </trkpt>
      <trkpt lat="42.97261" lon="-0.04742">
        <ele>768.2</ele>
        <time>2024-08-15T09:34:10Z</time>
      </trkpt>
      <trkpt lat="42.97258" lon="-0.04743">
        <ele>767.2</ele>
        <time>2024-08-15T09:34:11Z</time>
      </trkpt>
      <trkpt lat="42.9725" lon="-0.04745">
        <ele>766</ele>
        <time>2024-08-15T09:34:12Z</time>
      </trkpt>
      <trkpt lat="42.97244" lon="-0.04747">
        <ele>765.6</ele>
        <time>2024-08-15T09:34:13Z</time>
      </trkpt>
      <trkpt lat="42.97239" lon="-0.04748">
        <ele>765</ele>
        <time>2024-08-15T09:34:14Z</time>
      </trkpt>
      <trkpt lat="42.97233" lon="-0.04749">
        <ele>764.4</ele>
        <time>2024-08-15T09:34:15Z</time>
      </trkpt>
      <trkpt lat="42.97229" lon="-0.04749">
        <ele>763</ele>
        <time>2024-08-15T09:34:16Z</time>
      </trkpt>
      <trkpt lat="42.97225" lon="-0.04747">
        <ele>762.4</ele>
        <time>2024-08-15T09:34:17Z</time>
      </trkpt>
      <trkpt lat="42.97221" lon="-0.04744">
        <ele>761.4</ele>
        <time>2024-08-15T09:34:18Z</time>
      </trkpt>
      <trkpt lat="42.97216" lon="-0.04738">
        <ele>760.4</ele>
        <time>2024-08-15T09:34:19Z</time>
      </trkpt>
      <trkpt lat="42.97214" lon="-0.04732">
        <ele>760.2</ele>
        <time>2024-08-15T09:34:20Z</time>
      </trkpt>
      <trkpt lat="42.97212" lon="-0.04727">
        <ele>759.2</ele>
        <time>2024-08-15T09:34:21Z</time>
      </trkpt>
      <trkpt lat="42.9721" lon="-0.04722">
        <ele>759</ele>
        <time>2024-08-15T09:34:22Z</time>
      </trkpt>
      <trkpt lat="42.97208" lon="-0.04718">
        <ele>758.6</ele>
        <time>2024-08-15T09:34:23Z</time>
      </trkpt>
      <trkpt lat="42.97206" lon="-0.04714">
        <ele>758.4</ele>
        <time>2024-08-15T09:34:24Z</time>
      </trkpt>
      <trkpt lat="42.97204" lon="-0.04711">
        <ele>758.2</ele>
        <time>2024-08-15T09:34:25Z</time>
      </trkpt>
      <trkpt lat="42.97199" lon="-0.04702">
        <ele>758</ele>
        <time>2024-08-15T09:34:27Z</time>
      </trkpt>
      <trkpt lat="42.97197" lon="-0.04697">
        <ele>757.6</ele>
        <time>2024-08-15T09:34:28Z</time>
      </trkpt>
      <trkpt lat="42.97193" lon="-0.04685">
        <ele>756.8</ele>
        <time>2024-08-15T09:34:30Z</time>
      </trkpt>
      <trkpt lat="42.9719" lon="-0.04679">
        <ele>756.6</ele>
        <time>2024-08-15T09:34:31Z</time>
      </trkpt>
      <trkpt lat="42.97187" lon="-0.04676">
        <ele>756.4</ele>
        <time>2024-08-15T09:34:32Z</time>
      </trkpt>
      <trkpt lat="42.97184" lon="-0.04673">
        <ele>756.2</ele>
        <time>2024-08-15T09:34:33Z</time>
      </trkpt>
      <trkpt lat="42.9718" lon="-0.0467">
        <ele>755.6</ele>
        <time>2024-08-15T09:34:34Z</time>
      </trkpt>
      <trkpt lat="42.97177" lon="-0.04667">
        <ele>754.4</ele>
        <time>2024-08-15T09:34:35Z</time>
      </trkpt>
      <trkpt lat="42.97173" lon="-0.04664">
        <ele>753.8</ele>
        <time>2024-08-15T09:34:36Z</time>
      </trkpt>
      <trkpt lat="42.97171" lon="-0.04661">
        <ele>752.8</ele>
        <time>2024-08-15T09:34:37Z</time>
      </trkpt>
      <trkpt lat="42.97168" lon="-0.04657">
        <ele>752.4</ele>
        <time>2024-08-15T09:34:38Z</time>
      </trkpt>
      <trkpt lat="42.97165" lon="-0.04652">
        <ele>751.8</ele>
        <time>2024-08-15T09:34:39Z</time>
      </trkpt>
      <trkpt lat="42.97164" lon="-0.04649">
        <ele>751.4</ele>
        <time>2024-08-15T09:34:40Z</time>
      </trkpt>
      <trkpt lat="42.97162" lon="-0.04643">
        <ele>750.6</ele>
        <time>2024-08-15T09:34:41Z</time>
      </trkpt>
      <trkpt lat="42.97161" lon="-0.04638">
        <ele>750.4</ele>
        <time>2024-08-15T09:34:42Z</time>
      </trkpt>
      <trkpt lat="42.97161" lon="-0.04635">
        <ele>749.6</ele>
        <time>2024-08-15T09:34:43Z</time>
      </trkpt>
      <trkpt lat="42.97159" lon="-0.0463">
        <ele>749.4</ele>
        <time>2024-08-15T09:34:44Z</time>
      </trkpt>
      <trkpt lat="42.97158" lon="-0.04626">
        <ele>749.2</ele>
        <time>2024-08-15T09:34:45Z</time>
      </trkpt>
      <trkpt lat="42.97158" lon="-0.04623">
        <ele>748.8</ele>
        <time>2024-08-15T09:34:46Z</time>
      </trkpt>
      <trkpt lat="42.97157" lon="-0.04619">
        <ele>748.8</ele>
        <time>2024-08-15T09:34:47Z</time>
      </trkpt>
      <trkpt lat="42.97157" lon="-0.04615">
        <ele>748.6</ele>
        <time>2024-08-15T09:34:48Z</time>
      </trkpt>
      <trkpt lat="42.97156" lon="-0.04612">
        <ele>748.4</ele>
        <time>2024-08-15T09:34:49Z</time>
      </trkpt>
      <trkpt lat="42.97156" lon="-0.04608">
        <ele>748.4</ele>
        <time>2024-08-15T09:34:50Z</time>
      </trkpt>
      <trkpt lat="42.97155" lon="-0.04607">
        <ele>748.4</ele>
        <time>2024-08-15T09:34:54Z</time>
      </trkpt>
      <trkpt lat="42.97155" lon="-0.04607">
        <ele>748.4</ele>
        <time>2024-08-15T09:34:55Z</time>
      </trkpt>
      <trkpt lat="42.97153" lon="-0.04601">
        <ele>748.4</ele>
        <time>2024-08-15T09:34:58Z</time>
      </trkpt>
      <trkpt lat="42.97151" lon="-0.04599">
        <ele>748.4</ele>
        <time>2024-08-15T09:34:59Z</time>
      </trkpt>
      <trkpt lat="42.97148" lon="-0.04599">
        <ele>748.4</ele>
        <time>2024-08-15T09:35:00Z</time>
      </trkpt>
      <trkpt lat="42.97149" lon="-0.04598">
        <ele>748.4</ele>
        <time>2024-08-15T09:35:01Z</time>
      </trkpt>
      <trkpt lat="42.97149" lon="-0.04599">
        <ele>748.4</ele>
        <time>2024-08-15T09:35:03Z</time>
      </trkpt>
      <trkpt lat="42.97147" lon="-0.04601">
        <ele>748.6</ele>
        <time>2024-08-15T09:35:04Z</time>
      </trkpt>
      <trkpt lat="42.97147" lon="-0.04601">
        <ele>748.6</ele>
        <time>2024-08-15T09:35:05Z</time>
      </trkpt>
      <trkpt lat="42.97145" lon="-0.04602">
        <ele>748.6</ele>
        <time>2024-08-15T09:35:06Z</time>
      </trkpt>
      <trkpt lat="42.97147" lon="-0.04602">
        <ele>748.6</ele>
        <time>2024-08-15T09:35:07Z</time>
      </trkpt>
      <trkpt lat="42.97146" lon="-0.04602">
        <ele>748.6</ele>
        <time>2024-08-15T09:35:08Z</time>
      </trkpt>
      <trkpt lat="42.97143" lon="-0.04607">
        <ele>748.4</ele>
        <time>2024-08-15T09:35:10Z</time>
      </trkpt>
      <trkpt lat="42.97142" lon="-0.04611">
        <ele>748.4</ele>
        <time>2024-08-15T09:35:11Z</time>
      </trkpt>
      <trkpt lat="42.9714" lon="-0.04615">
        <ele>748.2</ele>
        <time>2024-08-15T09:35:12Z</time>
      </trkpt>
      <trkpt lat="42.97138" lon="-0.04617">
        <ele>748.2</ele>
        <time>2024-08-15T09:35:13Z</time>
      </trkpt>
      <trkpt lat="42.97137" lon="-0.04619">
        <ele>748.2</ele>
        <time>2024-08-15T09:35:14Z</time>
      </trkpt>
      <trkpt lat="42.97136" lon="-0.04621">
        <ele>748.2</ele>
        <time>2024-08-15T09:35:15Z</time>
      </trkpt>
      <trkpt lat="42.97136" lon="-0.04624">
        <ele>748</ele>
        <time>2024-08-15T09:35:16Z</time>
      </trkpt>
      <trkpt lat="42.97136" lon="-0.04628">
        <ele>748</ele>
        <time>2024-08-15T09:35:17Z</time>
      </trkpt>
      <trkpt lat="42.97135" lon="-0.04631">
        <ele>748</ele>
        <time>2024-08-15T09:35:18Z</time>
      </trkpt>
      <trkpt lat="42.97135" lon="-0.04633">
        <ele>748</ele>
        <time>2024-08-15T09:35:19Z</time>
      </trkpt>
      <trkpt lat="42.97134" lon="-0.04636">
        <ele>748</ele>
        <time>2024-08-15T09:35:20Z</time>
      </trkpt>
      <trkpt lat="42.97134" lon="-0.04639">
        <ele>748.2</ele>
        <time>2024-08-15T09:35:21Z</time>
      </trkpt>
      <trkpt lat="42.97133" lon="-0.04642">
        <ele>748.2</ele>
        <time>2024-08-15T09:35:22Z</time>
      </trkpt>
      <trkpt lat="42.97133" lon="-0.04646">
        <ele>748.2</ele>
        <time>2024-08-15T09:35:23Z</time>
      </trkpt>
      <trkpt lat="42.97133" lon="-0.04657">
        <ele>748.2</ele>
        <time>2024-08-15T09:35:25Z</time>
      </trkpt>
      <trkpt lat="42.97132" lon="-0.04664">
        <ele>748.2</ele>
        <time>2024-08-15T09:35:26Z</time>
      </trkpt>
      <trkpt lat="42.9713" lon="-0.0467">
        <ele>748.2</ele>
        <time>2024-08-15T09:35:27Z</time>
      </trkpt>
      <trkpt lat="42.9713" lon="-0.04677">
        <ele>748</ele>
        <time>2024-08-15T09:35:28Z</time>
      </trkpt>
      <trkpt lat="42.97128" lon="-0.04685">
        <ele>747.8</ele>
        <time>2024-08-15T09:35:29Z</time>
      </trkpt>
      <trkpt lat="42.97125" lon="-0.04693">
        <ele>747.6</ele>
        <time>2024-08-15T09:35:30Z</time>
      </trkpt>
      <trkpt lat="42.97121" lon="-0.047">
        <ele>747.4</ele>
        <time>2024-08-15T09:35:31Z</time>
      </trkpt>
      <trkpt lat="42.97118" lon="-0.04705">
        <ele>747.4</ele>
        <time>2024-08-15T09:35:32Z</time>
      </trkpt>
      <trkpt lat="42.97116" lon="-0.04708">
        <ele>747.4</ele>
        <time>2024-08-15T09:35:33Z</time>
      </trkpt>
      <trkpt lat="42.97114" lon="-0.04711">
        <ele>747.4</ele>
        <time>2024-08-15T09:35:34Z</time>
      </trkpt>
      <trkpt lat="42.97113" lon="-0.04714">
        <ele>747.2</ele>
        <time>2024-08-15T09:35:35Z</time>
      </trkpt>
      <trkpt lat="42.97111" lon="-0.04717">
        <ele>747.2</ele>
        <time>2024-08-15T09:35:36Z</time>
      </trkpt>
      <trkpt lat="42.97104" lon="-0.04725">
        <ele>747.4</ele>
        <time>2024-08-15T09:35:38Z</time>
      </trkpt>
      <trkpt lat="42.97094" lon="-0.04736">
        <ele>748.4</ele>
        <time>2024-08-15T09:35:42Z</time>
      </trkpt>
      <trkpt lat="42.97091" lon="-0.04739">
        <ele>748.6</ele>
        <time>2024-08-15T09:35:43Z</time>
      </trkpt>
      <trkpt lat="42.97089" lon="-0.0474">
        <ele>748.8</ele>
        <time>2024-08-15T09:35:44Z</time>
      </trkpt>
      <trkpt lat="42.97089" lon="-0.04743">
        <ele>749</ele>
        <time>2024-08-15T09:35:45Z</time>
      </trkpt>
      <trkpt lat="42.97083" lon="-0.04749">
        <ele>749.2</ele>
        <time>2024-08-15T09:35:47Z</time>
      </trkpt>
      <trkpt lat="42.97081" lon="-0.04753">
        <ele>749.2</ele>
        <time>2024-08-15T09:35:48Z</time>
      </trkpt>
      <trkpt lat="42.9708" lon="-0.04758">
        <ele>749.2</ele>
        <time>2024-08-15T09:35:49Z</time>
      </trkpt>
      <trkpt lat="42.9708" lon="-0.04765">
        <ele>749.2</ele>
        <time>2024-08-15T09:35:50Z</time>
      </trkpt>
      <trkpt lat="42.97078" lon="-0.0477">
        <ele>749.4</ele>
        <time>2024-08-15T09:35:51Z</time>
      </trkpt>
      <trkpt lat="42.97077" lon="-0.04774">
        <ele>749.4</ele>
        <time>2024-08-15T09:35:52Z</time>
      </trkpt>
      <trkpt lat="42.97075" lon="-0.04777">
        <ele>749.4</ele>
        <time>2024-08-15T09:35:53Z</time>
      </trkpt>
      <trkpt lat="42.97069" lon="-0.0478">
        <ele>749.4</ele>
        <time>2024-08-15T09:35:54Z</time>
      </trkpt>
      <trkpt lat="42.97067" lon="-0.04781">
        <ele>749.4</ele>
        <time>2024-08-15T09:35:55Z</time>
      </trkpt>
      <trkpt lat="42.97064" lon="-0.04784">
        <ele>749.4</ele>
        <time>2024-08-15T09:35:56Z</time>
      </trkpt>
      <trkpt lat="42.97061" lon="-0.04787">
        <ele>749.4</ele>
        <time>2024-08-15T09:35:57Z</time>
      </trkpt>
      <trkpt lat="42.97052" lon="-0.04792">
        <ele>749.4</ele>
        <time>2024-08-15T09:36:00Z</time>
      </trkpt>
      <trkpt lat="42.97048" lon="-0.04795">
        <ele>749.4</ele>
        <time>2024-08-15T09:36:01Z</time>
      </trkpt>
      <trkpt lat="42.97039" lon="-0.048">
        <ele>749.4</ele>
        <time>2024-08-15T09:36:03Z</time>
      </trkpt>
      <trkpt lat="42.97036" lon="-0.04803">
        <ele>749.4</ele>
        <time>2024-08-15T09:36:04Z</time>
      </trkpt>
      <trkpt lat="42.97035" lon="-0.04805">
        <ele>749.4</ele>
        <time>2024-08-15T09:36:05Z</time>
      </trkpt>
      <trkpt lat="42.97035" lon="-0.04807">
        <ele>749.6</ele>
        <time>2024-08-15T09:36:06Z</time>
      </trkpt>
      <trkpt lat="42.97033" lon="-0.04807">
        <ele>749.6</ele>
        <time>2024-08-15T09:36:07Z</time>
      </trkpt>
      <trkpt lat="42.97032" lon="-0.04808">
        <ele>749.6</ele>
        <time>2024-08-15T09:36:08Z</time>
      </trkpt>
      <trkpt lat="42.97031" lon="-0.04809">
        <ele>749.6</ele>
        <time>2024-08-15T09:36:09Z</time>
      </trkpt>
      <trkpt lat="42.9703" lon="-0.0481">
        <ele>749.8</ele>
        <time>2024-08-15T09:36:10Z</time>
      </trkpt>
      <trkpt lat="42.97029" lon="-0.0481">
        <ele>750.2</ele>
        <time>2024-08-15T09:36:11Z</time>
      </trkpt>
      <trkpt lat="42.97027" lon="-0.04811">
        <ele>750.2</ele>
        <time>2024-08-15T09:36:12Z</time>
      </trkpt>
      <trkpt lat="42.97027" lon="-0.04812">
        <ele>750.4</ele>
        <time>2024-08-15T09:36:13Z</time>
      </trkpt>
      <trkpt lat="42.97027" lon="-0.04812">
        <ele>750.6</ele>
        <time>2024-08-15T09:36:14Z</time>
      </trkpt>
      <trkpt lat="42.97027" lon="-0.04813">
        <ele>750.8</ele>
        <time>2024-08-15T09:36:15Z</time>
      </trkpt>
      <trkpt lat="42.97026" lon="-0.04814">
        <ele>751</ele>
        <time>2024-08-15T09:36:16Z</time>
      </trkpt>
      <trkpt lat="42.97026" lon="-0.04815">
        <ele>751.4</ele>
        <time>2024-08-15T09:36:17Z</time>
      </trkpt>
      <trkpt lat="42.97025" lon="-0.04819">
        <ele>751.8</ele>
        <time>2024-08-15T09:36:19Z</time>
      </trkpt>
      <trkpt lat="42.97024" lon="-0.0482">
        <ele>752.2</ele>
        <time>2024-08-15T09:36:20Z</time>
      </trkpt>
      <trkpt lat="42.97023" lon="-0.04821">
        <ele>752.4</ele>
        <time>2024-08-15T09:36:21Z</time>
      </trkpt>
      <trkpt lat="42.97023" lon="-0.04821">
        <ele>752.6</ele>
        <time>2024-08-15T09:36:22Z</time>
      </trkpt>
      <trkpt lat="42.97022" lon="-0.04823">
        <ele>752.6</ele>
        <time>2024-08-15T09:36:23Z</time>
      </trkpt>
      <trkpt lat="42.97021" lon="-0.04824">
        <ele>753.2</ele>
        <time>2024-08-15T09:36:24Z</time>
      </trkpt>
      <trkpt lat="42.97021" lon="-0.04825">
        <ele>753.2</ele>
        <time>2024-08-15T09:36:25Z</time>
      </trkpt>
      <trkpt lat="42.97021" lon="-0.04826">
        <ele>753.6</ele>
        <time>2024-08-15T09:36:26Z</time>
      </trkpt>
      <trkpt lat="42.97021" lon="-0.04827">
        <ele>754</ele>
        <time>2024-08-15T09:36:27Z</time>
      </trkpt>
      <trkpt lat="42.97021" lon="-0.04828">
        <ele>754.2</ele>
        <time>2024-08-15T09:36:28Z</time>
      </trkpt>
      <trkpt lat="42.97021" lon="-0.0483">
        <ele>754.6</ele>
        <time>2024-08-15T09:36:29Z</time>
      </trkpt>
      <trkpt lat="42.9702" lon="-0.04831">
        <ele>754.8</ele>
        <time>2024-08-15T09:36:30Z</time>
      </trkpt>
      <trkpt lat="42.97019" lon="-0.04832">
        <ele>755</ele>
        <time>2024-08-15T09:36:31Z</time>
      </trkpt>
      <trkpt lat="42.97019" lon="-0.04834">
        <ele>755.2</ele>
        <time>2024-08-15T09:36:32Z</time>
      </trkpt>
      <trkpt lat="42.97018" lon="-0.04835">
        <ele>755.6</ele>
        <time>2024-08-15T09:36:33Z</time>
      </trkpt>
      <trkpt lat="42.97018" lon="-0.04835">
        <ele>756</ele>
        <time>2024-08-15T09:36:34Z</time>
      </trkpt>
      <trkpt lat="42.97018" lon="-0.04835">
        <ele>756.2</ele>
        <time>2024-08-15T09:36:35Z</time>
      </trkpt>
      <trkpt lat="42.97018" lon="-0.04837">
        <ele>756.8</ele>
        <time>2024-08-15T09:36:36Z</time>
      </trkpt>
      <trkpt lat="42.97017" lon="-0.04839">
        <ele>757</ele>
        <time>2024-08-15T09:36:37Z</time>
      </trkpt>
      <trkpt lat="42.97017" lon="-0.04841">
        <ele>757.4</ele>
        <time>2024-08-15T09:36:38Z</time>
      </trkpt>
      <trkpt lat="42.97016" lon="-0.04842">
        <ele>757.4</ele>
        <time>2024-08-15T09:36:39Z</time>
      </trkpt>
      <trkpt lat="42.97015" lon="-0.04844">
        <ele>757.6</ele>
        <time>2024-08-15T09:36:40Z</time>
      </trkpt>
      <trkpt lat="42.97014" lon="-0.04846">
        <ele>757.8</ele>
        <time>2024-08-15T09:36:41Z</time>
      </trkpt>
      <trkpt lat="42.97014" lon="-0.04847">
        <ele>758</ele>
        <time>2024-08-15T09:36:42Z</time>
      </trkpt>
      <trkpt lat="42.97012" lon="-0.04849">
        <ele>758.2</ele>
        <time>2024-08-15T09:36:43Z</time>
      </trkpt>
      <trkpt lat="42.97011" lon="-0.0485">
        <ele>758.4</ele>
        <time>2024-08-15T09:36:44Z</time>
      </trkpt>
      <trkpt lat="42.97011" lon="-0.04851">
        <ele>758.6</ele>
        <time>2024-08-15T09:36:45Z</time>
      </trkpt>
      <trkpt lat="42.97011" lon="-0.04853">
        <ele>758.6</ele>
        <time>2024-08-15T09:36:46Z</time>
      </trkpt>
      <trkpt lat="42.9701" lon="-0.04855">
        <ele>759</ele>
        <time>2024-08-15T09:36:47Z</time>
      </trkpt>
      <trkpt lat="42.97009" lon="-0.04856">
        <ele>759</ele>
        <time>2024-08-15T09:36:48Z</time>
      </trkpt>
      <trkpt lat="42.97008" lon="-0.04858">
        <ele>759.4</ele>
        <time>2024-08-15T09:36:49Z</time>
      </trkpt>
      <trkpt lat="42.97008" lon="-0.0486">
        <ele>759.6</ele>
        <time>2024-08-15T09:36:50Z</time>
      </trkpt>
      <trkpt lat="42.97008" lon="-0.04861">
        <ele>760</ele>
        <time>2024-08-15T09:36:51Z</time>
      </trkpt>
      <trkpt lat="42.97007" lon="-0.04863">
        <ele>760.2</ele>
        <time>2024-08-15T09:36:52Z</time>
      </trkpt>
      <trkpt lat="42.97007" lon="-0.04862">
        <ele>760.6</ele>
        <time>2024-08-15T09:36:53Z</time>
      </trkpt>
      <trkpt lat="42.97006" lon="-0.04863">
        <ele>761</ele>
        <time>2024-08-15T09:36:54Z</time>
      </trkpt>
      <trkpt lat="42.97004" lon="-0.04865">
        <ele>761.4</ele>
        <time>2024-08-15T09:36:55Z</time>
      </trkpt>
      <trkpt lat="42.97002" lon="-0.04867">
        <ele>761.8</ele>
        <time>2024-08-15T09:36:56Z</time>
      </trkpt>
      <trkpt lat="42.97" lon="-0.04868">
        <ele>762</ele>
        <time>2024-08-15T09:36:57Z</time>
      </trkpt>
      <trkpt lat="42.96997" lon="-0.0487">
        <ele>762.4</ele>
        <time>2024-08-15T09:36:58Z</time>
      </trkpt>
      <trkpt lat="42.96994" lon="-0.04872">
        <ele>762.6</ele>
        <time>2024-08-15T09:36:59Z</time>
      </trkpt>
      <trkpt lat="42.96992" lon="-0.04874">
        <ele>762.8</ele>
        <time>2024-08-15T09:37:00Z</time>
      </trkpt>
      <trkpt lat="42.9699" lon="-0.04875">
        <ele>762.8</ele>
        <time>2024-08-15T09:37:01Z</time>
      </trkpt>
      <trkpt lat="42.96988" lon="-0.04877">
        <ele>763</ele>
        <time>2024-08-15T09:37:02Z</time>
      </trkpt>
      <trkpt lat="42.96989" lon="-0.04879">
        <ele>763</ele>
        <time>2024-08-15T09:37:03Z</time>
      </trkpt>
      <trkpt lat="42.9699" lon="-0.04881">
        <ele>763</ele>
        <time>2024-08-15T09:37:04Z</time>
      </trkpt>
      <trkpt lat="42.9699" lon="-0.04884">
        <ele>763.2</ele>
        <time>2024-08-15T09:37:05Z</time>
      </trkpt>
      <trkpt lat="42.9699" lon="-0.04886">
        <ele>763.2</ele>
        <time>2024-08-15T09:37:06Z</time>
      </trkpt>
      <trkpt lat="42.96989" lon="-0.04887">
        <ele>763.2</ele>
        <time>2024-08-15T09:37:07Z</time>
      </trkpt>
      <trkpt lat="42.96988" lon="-0.04889">
        <ele>763.2</ele>
        <time>2024-08-15T09:37:08Z</time>
      </trkpt>
      <trkpt lat="42.96988" lon="-0.04889">
        <ele>763.2</ele>
        <time>2024-08-15T09:37:09Z</time>
      </trkpt>
      <trkpt lat="42.96988" lon="-0.0489">
        <ele>763.4</ele>
        <time>2024-08-15T09:37:10Z</time>
      </trkpt>
      <trkpt lat="42.9699" lon="-0.04891">
        <ele>763.4</ele>
        <time>2024-08-15T09:37:11Z</time>
      </trkpt>
      <trkpt lat="42.96991" lon="-0.04893">
        <ele>763.8</ele>
        <time>2024-08-15T09:37:12Z</time>
      </trkpt>
      <trkpt lat="42.96992" lon="-0.04894">
        <ele>764</ele>
        <time>2024-08-15T09:37:13Z</time>
      </trkpt>
      <trkpt lat="42.96992" lon="-0.04896">
        <ele>766.4</ele>
        <time>2024-08-15T09:37:19Z</time>
      </trkpt>
      <trkpt lat="42.96992" lon="-0.04897">
        <ele>766.6</ele>
        <time>2024-08-15T09:37:20Z</time>
      </trkpt>
      <trkpt lat="42.96992" lon="-0.04899">
        <ele>766.8</ele>
        <time>2024-08-15T09:37:21Z</time>
      </trkpt>
      <trkpt lat="42.96993" lon="-0.04902">
        <ele>766.8</ele>
        <time>2024-08-15T09:37:22Z</time>
      </trkpt>
      <trkpt lat="42.96994" lon="-0.04904">
        <ele>766.8</ele>
        <time>2024-08-15T09:37:23Z</time>
      </trkpt>
      <trkpt lat="42.96995" lon="-0.04907">
        <ele>766.8</ele>
        <time>2024-08-15T09:37:24Z</time>
      </trkpt>
      <trkpt lat="42.96994" lon="-0.0491">
        <ele>766.8</ele>
        <time>2024-08-15T09:37:25Z</time>
      </trkpt>
      <trkpt lat="42.96994" lon="-0.04914">
        <ele>766.6</ele>
        <time>2024-08-15T09:37:26Z</time>
      </trkpt>
      <trkpt lat="42.96995" lon="-0.04918">
        <ele>766.6</ele>
        <time>2024-08-15T09:37:27Z</time>
      </trkpt>
      <trkpt lat="42.96996" lon="-0.04924">
        <ele>766.4</ele>
        <time>2024-08-15T09:37:28Z</time>
      </trkpt>
      <trkpt lat="42.96996" lon="-0.04929">
        <ele>766</ele>
        <time>2024-08-15T09:37:29Z</time>
      </trkpt>
      <trkpt lat="42.96994" lon="-0.04935">
        <ele>765.8</ele>
        <time>2024-08-15T09:37:30Z</time>
      </trkpt>
      <trkpt lat="42.96989" lon="-0.04941">
        <ele>765.4</ele>
        <time>2024-08-15T09:37:31Z</time>
      </trkpt>
      <trkpt lat="42.96987" lon="-0.04948">
        <ele>765.2</ele>
        <time>2024-08-15T09:37:32Z</time>
      </trkpt>
      <trkpt lat="42.96983" lon="-0.04956">
        <ele>764.6</ele>
        <time>2024-08-15T09:37:33Z</time>
      </trkpt>
      <trkpt lat="42.96981" lon="-0.04962">
        <ele>764.2</ele>
        <time>2024-08-15T09:37:34Z</time>
      </trkpt>
      <trkpt lat="42.9698" lon="-0.04967">
        <ele>763.6</ele>
        <time>2024-08-15T09:37:35Z</time>
      </trkpt>
      <trkpt lat="42.9698" lon="-0.04972">
        <ele>763.4</ele>
        <time>2024-08-15T09:37:36Z</time>
      </trkpt>
      <trkpt lat="42.9698" lon="-0.04976">
        <ele>763</ele>
        <time>2024-08-15T09:37:37Z</time>
      </trkpt>
      <trkpt lat="42.9698" lon="-0.04981">
        <ele>762.8</ele>
        <time>2024-08-15T09:37:38Z</time>
      </trkpt>
      <trkpt lat="42.96978" lon="-0.04986">
        <ele>762.8</ele>
        <time>2024-08-15T09:37:39Z</time>
      </trkpt>
      <trkpt lat="42.96979" lon="-0.05009">
        <ele>762.6</ele>
        <time>2024-08-15T09:37:42Z</time>
      </trkpt>
      <trkpt lat="42.9698" lon="-0.05017">
        <ele>762.4</ele>
        <time>2024-08-15T09:37:43Z</time>
      </trkpt>
      <trkpt lat="42.9698" lon="-0.05026">
        <ele>762.2</ele>
        <time>2024-08-15T09:37:44Z</time>
      </trkpt>
      <trkpt lat="42.9698" lon="-0.05035">
        <ele>762</ele>
        <time>2024-08-15T09:37:45Z</time>
      </trkpt>
      <trkpt lat="42.96978" lon="-0.05043">
        <ele>761.8</ele>
        <time>2024-08-15T09:37:46Z</time>
      </trkpt>
      <trkpt lat="42.96976" lon="-0.05049">
        <ele>761.6</ele>
        <time>2024-08-15T09:37:47Z</time>
      </trkpt>
      <trkpt lat="42.96973" lon="-0.05054">
        <ele>761.4</ele>
        <time>2024-08-15T09:37:48Z</time>
      </trkpt>
      <trkpt lat="42.96971" lon="-0.05059">
        <ele>761.2</ele>
        <time>2024-08-15T09:37:49Z</time>
      </trkpt>
      <trkpt lat="42.96966" lon="-0.05063">
        <ele>761</ele>
        <time>2024-08-15T09:37:50Z</time>
      </trkpt>
      <trkpt lat="42.96962" lon="-0.05067">
        <ele>760.8</ele>
        <time>2024-08-15T09:37:51Z</time>
      </trkpt>
      <trkpt lat="42.96956" lon="-0.05072">
        <ele>760.8</ele>
        <time>2024-08-15T09:37:52Z</time>
      </trkpt>
      <trkpt lat="42.96954" lon="-0.05076">
        <ele>760.6</ele>
        <time>2024-08-15T09:37:53Z</time>
      </trkpt>
      <trkpt lat="42.96953" lon="-0.05079">
        <ele>760.6</ele>
        <time>2024-08-15T09:37:54Z</time>
      </trkpt>
      <trkpt lat="42.96952" lon="-0.0508">
        <ele>760.6</ele>
        <time>2024-08-15T09:37:55Z</time>
      </trkpt>
      <trkpt lat="42.96953" lon="-0.05081">
        <ele>760.6</ele>
        <time>2024-08-15T09:37:56Z</time>
      </trkpt>
      <trkpt lat="42.96952" lon="-0.05082">
        <ele>760.6</ele>
        <time>2024-08-15T09:37:57Z</time>
      </trkpt>
      <trkpt lat="42.96948" lon="-0.05083">
        <ele>760.6</ele>
        <time>2024-08-15T09:37:58Z</time>
      </trkpt>
      <trkpt lat="42.96946" lon="-0.05084">
        <ele>760.6</ele>
        <time>2024-08-15T09:37:59Z</time>
      </trkpt>
      <trkpt lat="42.96942" lon="-0.05086">
        <ele>760.8</ele>
        <time>2024-08-15T09:38:01Z</time>
      </trkpt>
      <trkpt lat="42.96941" lon="-0.05088">
        <ele>760.8</ele>
        <time>2024-08-15T09:38:02Z</time>
      </trkpt>
      <trkpt lat="42.9694" lon="-0.05089">
        <ele>761</ele>
        <time>2024-08-15T09:38:03Z</time>
      </trkpt>
      <trkpt lat="42.96939" lon="-0.0509">
        <ele>761</ele>
        <time>2024-08-15T09:38:04Z</time>
      </trkpt>
      <trkpt lat="42.96938" lon="-0.05092">
        <ele>761.2</ele>
        <time>2024-08-15T09:38:05Z</time>
      </trkpt>
      <trkpt lat="42.96934" lon="-0.05094">
        <ele>761.6</ele>
        <time>2024-08-15T09:38:07Z</time>
      </trkpt>
      <trkpt lat="42.96933" lon="-0.05097">
        <ele>761.6</ele>
        <time>2024-08-15T09:38:08Z</time>
      </trkpt>
      <trkpt lat="42.9693" lon="-0.051">
        <ele>761.8</ele>
        <time>2024-08-15T09:38:10Z</time>
      </trkpt>
      <trkpt lat="42.96925" lon="-0.05103">
        <ele>761.8</ele>
        <time>2024-08-15T09:38:12Z</time>
      </trkpt>
      <trkpt lat="42.96921" lon="-0.05105">
        <ele>762</ele>
        <time>2024-08-15T09:38:13Z</time>
      </trkpt>
      <trkpt lat="42.96919" lon="-0.05107">
        <ele>762</ele>
        <time>2024-08-15T09:38:14Z</time>
      </trkpt>
      <trkpt lat="42.96916" lon="-0.05108">
        <ele>762</ele>
        <time>2024-08-15T09:38:15Z</time>
      </trkpt>
      <trkpt lat="42.96915" lon="-0.05111">
        <ele>762.2</ele>
        <time>2024-08-15T09:38:16Z</time>
      </trkpt>
      <trkpt lat="42.96914" lon="-0.05112">
        <ele>762.4</ele>
        <time>2024-08-15T09:38:17Z</time>
      </trkpt>
      <trkpt lat="42.96913" lon="-0.05114">
        <ele>762.4</ele>
        <time>2024-08-15T09:38:18Z</time>
      </trkpt>
      <trkpt lat="42.96912" lon="-0.05115">
        <ele>762.8</ele>
        <time>2024-08-15T09:38:19Z</time>
      </trkpt>
      <trkpt lat="42.9691" lon="-0.05117">
        <ele>762.8</ele>
        <time>2024-08-15T09:38:20Z</time>
      </trkpt>
      <trkpt lat="42.96908" lon="-0.05119">
        <ele>763.2</ele>
        <time>2024-08-15T09:38:21Z</time>
      </trkpt>
      <trkpt lat="42.96907" lon="-0.0512">
        <ele>763.4</ele>
        <time>2024-08-15T09:38:22Z</time>
      </trkpt>
      <trkpt lat="42.96905" lon="-0.05121">
        <ele>763.8</ele>
        <time>2024-08-15T09:38:23Z</time>
      </trkpt>
      <trkpt lat="42.96902" lon="-0.05122">
        <ele>764</ele>
        <time>2024-08-15T09:38:24Z</time>
      </trkpt>
      <trkpt lat="42.96899" lon="-0.05124">
        <ele>764.2</ele>
        <time>2024-08-15T09:38:25Z</time>
      </trkpt>
      <trkpt lat="42.96894" lon="-0.05126">
        <ele>764.8</ele>
        <time>2024-08-15T09:38:27Z</time>
      </trkpt>
      <trkpt lat="42.96892" lon="-0.05128">
        <ele>765.2</ele>
        <time>2024-08-15T09:38:28Z</time>
      </trkpt>
      <trkpt lat="42.96889" lon="-0.05131">
        <ele>765.6</ele>
        <time>2024-08-15T09:38:29Z</time>
      </trkpt>
      <trkpt lat="42.96888" lon="-0.05132">
        <ele>766</ele>
        <time>2024-08-15T09:38:30Z</time>
      </trkpt>
      <trkpt lat="42.96888" lon="-0.05132">
        <ele>766.2</ele>
        <time>2024-08-15T09:38:31Z</time>
      </trkpt>
      <trkpt lat="42.96886" lon="-0.05134">
        <ele>766.4</ele>
        <time>2024-08-15T09:38:32Z</time>
      </trkpt>
      <trkpt lat="42.96884" lon="-0.05135">
        <ele>766.6</ele>
        <time>2024-08-15T09:38:33Z</time>
      </trkpt>
      <trkpt lat="42.96883" lon="-0.05136">
        <ele>766.6</ele>
        <time>2024-08-15T09:38:34Z</time>
      </trkpt>
      <trkpt lat="42.96883" lon="-0.05138">
        <ele>766.8</ele>
        <time>2024-08-15T09:38:35Z</time>
      </trkpt>
      <trkpt lat="42.96881" lon="-0.05139">
        <ele>767</ele>
        <time>2024-08-15T09:38:36Z</time>
      </trkpt>
      <trkpt lat="42.9688" lon="-0.05141">
        <ele>767.2</ele>
        <time>2024-08-15T09:38:37Z</time>
      </trkpt>
      <trkpt lat="42.96877" lon="-0.05142">
        <ele>767.4</ele>
        <time>2024-08-15T09:38:38Z</time>
      </trkpt>
      <trkpt lat="42.96874" lon="-0.05144">
        <ele>767.4</ele>
        <time>2024-08-15T09:38:39Z</time>
      </trkpt>
      <trkpt lat="42.9687" lon="-0.05146">
        <ele>767.6</ele>
        <time>2024-08-15T09:38:40Z</time>
      </trkpt>
      <trkpt lat="42.96867" lon="-0.05148">
        <ele>767.8</ele>
        <time>2024-08-15T09:38:41Z</time>
      </trkpt>
      <trkpt lat="42.96864" lon="-0.05151">
        <ele>768.2</ele>
        <time>2024-08-15T09:38:42Z</time>
      </trkpt>
      <trkpt lat="42.96862" lon="-0.05152">
        <ele>768.2</ele>
        <time>2024-08-15T09:38:43Z</time>
      </trkpt>
      <trkpt lat="42.96859" lon="-0.05154">
        <ele>768.6</ele>
        <time>2024-08-15T09:38:44Z</time>
      </trkpt>
      <trkpt lat="42.96858" lon="-0.05155">
        <ele>768.8</ele>
        <time>2024-08-15T09:38:45Z</time>
      </trkpt>
      <trkpt lat="42.96858" lon="-0.05155">
        <ele>769.2</ele>
        <time>2024-08-15T09:38:46Z</time>
      </trkpt>
      <trkpt lat="42.96857" lon="-0.05157">
        <ele>769.4</ele>
        <time>2024-08-15T09:38:47Z</time>
      </trkpt>
      <trkpt lat="42.96858" lon="-0.05159">
        <ele>769.6</ele>
        <time>2024-08-15T09:38:48Z</time>
      </trkpt>
      <trkpt lat="42.96859" lon="-0.0516">
        <ele>769.6</ele>
        <time>2024-08-15T09:38:49Z</time>
      </trkpt>
      <trkpt lat="42.96859" lon="-0.05161">
        <ele>769.6</ele>
        <time>2024-08-15T09:38:50Z</time>
      </trkpt>
      <trkpt lat="42.9686" lon="-0.05163">
        <ele>769.8</ele>
        <time>2024-08-15T09:38:51Z</time>
      </trkpt>
      <trkpt lat="42.96861" lon="-0.05164">
        <ele>769.8</ele>
        <time>2024-08-15T09:38:52Z</time>
      </trkpt>
      <trkpt lat="42.96862" lon="-0.05166">
        <ele>769.8</ele>
        <time>2024-08-15T09:38:53Z</time>
      </trkpt>
      <trkpt lat="42.96862" lon="-0.05167">
        <ele>769.6</ele>
        <time>2024-08-15T09:38:54Z</time>
      </trkpt>
      <trkpt lat="42.96862" lon="-0.05168">
        <ele>769.4</ele>
        <time>2024-08-15T09:38:55Z</time>
      </trkpt>
      <trkpt lat="42.96861" lon="-0.0517">
        <ele>769</ele>
        <time>2024-08-15T09:38:56Z</time>
      </trkpt>
      <trkpt lat="42.96861" lon="-0.05172">
        <ele>768.4</ele>
        <time>2024-08-15T09:38:57Z</time>
      </trkpt>
      <trkpt lat="42.96861" lon="-0.05174">
        <ele>768.2</ele>
        <time>2024-08-15T09:38:58Z</time>
      </trkpt>
      <trkpt lat="42.96861" lon="-0.05177">
        <ele>768</ele>
        <time>2024-08-15T09:38:59Z</time>
      </trkpt>
      <trkpt lat="42.96862" lon="-0.05181">
        <ele>767.2</ele>
        <time>2024-08-15T09:39:00Z</time>
      </trkpt>
      <trkpt lat="42.96863" lon="-0.05185">
        <ele>767</ele>
        <time>2024-08-15T09:39:01Z</time>
      </trkpt>
      <trkpt lat="42.96863" lon="-0.05188">
        <ele>766.2</ele>
        <time>2024-08-15T09:39:02Z</time>
      </trkpt>
      <trkpt lat="42.96863" lon="-0.05192">
        <ele>766</ele>
        <time>2024-08-15T09:39:03Z</time>
      </trkpt>
      <trkpt lat="42.96864" lon="-0.05199">
        <ele>764.8</ele>
        <time>2024-08-15T09:39:05Z</time>
      </trkpt>
      <trkpt lat="42.96864" lon="-0.05206">
        <ele>763.8</ele>
        <time>2024-08-15T09:39:07Z</time>
      </trkpt>
      <trkpt lat="42.96864" lon="-0.05208">
        <ele>763.6</ele>
        <time>2024-08-15T09:39:08Z</time>
      </trkpt>
      <trkpt lat="42.96863" lon="-0.05211">
        <ele>762.8</ele>
        <time>2024-08-15T09:39:09Z</time>
      </trkpt>
      <trkpt lat="42.96863" lon="-0.05213">
        <ele>762.4</ele>
        <time>2024-08-15T09:39:10Z</time>
      </trkpt>
      <trkpt lat="42.96861" lon="-0.05217">
        <ele>761.8</ele>
        <time>2024-08-15T09:39:11Z</time>
      </trkpt>
      <trkpt lat="42.96857" lon="-0.05221">
        <ele>761.4</ele>
        <time>2024-08-15T09:39:12Z</time>
      </trkpt>
      <trkpt lat="42.96855" lon="-0.05224">
        <ele>760.8</ele>
        <time>2024-08-15T09:39:13Z</time>
      </trkpt>
      <trkpt lat="42.96853" lon="-0.05226">
        <ele>760.2</ele>
        <time>2024-08-15T09:39:14Z</time>
      </trkpt>
      <trkpt lat="42.96852" lon="-0.05228">
        <ele>760</ele>
        <time>2024-08-15T09:39:15Z</time>
      </trkpt>
      <trkpt lat="42.9685" lon="-0.0523">
        <ele>759.6</ele>
        <time>2024-08-15T09:39:16Z</time>
      </trkpt>
      <trkpt lat="42.96849" lon="-0.05231">
        <ele>759.6</ele>
        <time>2024-08-15T09:39:17Z</time>
      </trkpt>
      <trkpt lat="42.96847" lon="-0.05232">
        <ele>759.4</ele>
        <time>2024-08-15T09:39:18Z</time>
      </trkpt>
      <trkpt lat="42.96847" lon="-0.05232">
        <ele>759.2</ele>
        <time>2024-08-15T09:39:19Z</time>
      </trkpt>
      <trkpt lat="42.96846" lon="-0.05233">
        <ele>759.2</ele>
        <time>2024-08-15T09:39:20Z</time>
      </trkpt>
      <trkpt lat="42.96845" lon="-0.05235">
        <ele>759.2</ele>
        <time>2024-08-15T09:39:21Z</time>
      </trkpt>
      <trkpt lat="42.96828" lon="-0.05244">
        <ele>759.8</ele>
        <time>2024-08-15T09:39:26Z</time>
      </trkpt>
      <trkpt lat="42.96823" lon="-0.05246">
        <ele>760.2</ele>
        <time>2024-08-15T09:39:27Z</time>
      </trkpt>
      <trkpt lat="42.96819" lon="-0.05248">
        <ele>760.4</ele>
        <time>2024-08-15T09:39:28Z</time>
      </trkpt>
      <trkpt lat="42.96814" lon="-0.05251">
        <ele>760.8</ele>
        <time>2024-08-15T09:39:29Z</time>
      </trkpt>
      <trkpt lat="42.96812" lon="-0.05253">
        <ele>761.2</ele>
        <time>2024-08-15T09:39:30Z</time>
      </trkpt>
      <trkpt lat="42.96811" lon="-0.05255">
        <ele>761.2</ele>
        <time>2024-08-15T09:39:31Z</time>
      </trkpt>
      <trkpt lat="42.9681" lon="-0.05256">
        <ele>761.4</ele>
        <time>2024-08-15T09:39:32Z</time>
      </trkpt>
      <trkpt lat="42.96808" lon="-0.05259">
        <ele>761.4</ele>
        <time>2024-08-15T09:39:33Z</time>
      </trkpt>
      <trkpt lat="42.96806" lon="-0.05261">
        <ele>761.4</ele>
        <time>2024-08-15T09:39:34Z</time>
      </trkpt>
      <trkpt lat="42.96802" lon="-0.05264">
        <ele>761</ele>
        <time>2024-08-15T09:39:36Z</time>
      </trkpt>
      <trkpt lat="42.968" lon="-0.05265">
        <ele>760.8</ele>
        <time>2024-08-15T09:39:37Z</time>
      </trkpt>
      <trkpt lat="42.96796" lon="-0.05266">
        <ele>760.4</ele>
        <time>2024-08-15T09:39:38Z</time>
      </trkpt>
      <trkpt lat="42.96796" lon="-0.05266">
        <ele>760</ele>
        <time>2024-08-15T09:39:39Z</time>
      </trkpt>
      <trkpt lat="42.96795" lon="-0.05268">
        <ele>759.4</ele>
        <time>2024-08-15T09:39:47Z</time>
      </trkpt>
      <trkpt lat="42.96795" lon="-0.05268">
        <ele>759.4</ele>
        <time>2024-08-15T09:39:48Z</time>
      </trkpt>
      <trkpt lat="42.96795" lon="-0.05268">
        <ele>759.4</ele>
        <time>2024-08-15T09:39:49Z</time>
      </trkpt>
      <trkpt lat="42.96795" lon="-0.05268">
        <ele>759.4</ele>
        <time>2024-08-15T09:39:50Z</time>
      </trkpt>
      <trkpt lat="42.96793" lon="-0.05268">
        <ele>759.4</ele>
        <time>2024-08-15T09:39:51Z</time>
      </trkpt>
      <trkpt lat="42.9679" lon="-0.05268">
        <ele>759.4</ele>
        <time>2024-08-15T09:39:52Z</time>
      </trkpt>
      <trkpt lat="42.96785" lon="-0.0527">
        <ele>759.4</ele>
        <time>2024-08-15T09:39:53Z</time>
      </trkpt>
      <trkpt lat="42.96782" lon="-0.0527">
        <ele>759.8</ele>
        <time>2024-08-15T09:39:55Z</time>
      </trkpt>
      <trkpt lat="42.96779" lon="-0.0527">
        <ele>759.8</ele>
        <time>2024-08-15T09:39:56Z</time>
      </trkpt>
      <trkpt lat="42.9676" lon="-0.05272">
        <ele>759.6</ele>
        <time>2024-08-15T09:40:01Z</time>
      </trkpt>
      <trkpt lat="42.96755" lon="-0.05273">
        <ele>759.6</ele>
        <time>2024-08-15T09:40:03Z</time>
      </trkpt>
      <trkpt lat="42.96752" lon="-0.05274">
        <ele>759.6</ele>
        <time>2024-08-15T09:40:04Z</time>
      </trkpt>
      <trkpt lat="42.96749" lon="-0.05274">
        <ele>759.8</ele>
        <time>2024-08-15T09:40:05Z</time>
      </trkpt>
      <trkpt lat="42.96741" lon="-0.05272">
        <ele>759.8</ele>
        <time>2024-08-15T09:40:07Z</time>
      </trkpt>
      <trkpt lat="42.96739" lon="-0.05273">
        <ele>759.8</ele>
        <time>2024-08-15T09:40:08Z</time>
      </trkpt>
      <trkpt lat="42.96738" lon="-0.05272">
        <ele>760</ele>
        <time>2024-08-15T09:40:09Z</time>
      </trkpt>
      <trkpt lat="42.96739" lon="-0.05271">
        <ele>760</ele>
        <time>2024-08-15T09:40:10Z</time>
      </trkpt>
      <trkpt lat="42.96738" lon="-0.0527">
        <ele>760.2</ele>
        <time>2024-08-15T09:40:11Z</time>
      </trkpt>
      <trkpt lat="42.96734" lon="-0.05272">
        <ele>760.4</ele>
        <time>2024-08-15T09:40:13Z</time>
      </trkpt>
      <trkpt lat="42.96733" lon="-0.05273">
        <ele>760.4</ele>
        <time>2024-08-15T09:40:14Z</time>
      </trkpt>
      <trkpt lat="42.96729" lon="-0.05275">
        <ele>760.6</ele>
        <time>2024-08-15T09:40:16Z</time>
      </trkpt>
      <trkpt lat="42.96724" lon="-0.05276">
        <ele>761</ele>
        <time>2024-08-15T09:40:19Z</time>
      </trkpt>
      <trkpt lat="42.96722" lon="-0.05276">
        <ele>761</ele>
        <time>2024-08-15T09:40:20Z</time>
      </trkpt>
      <trkpt lat="42.96719" lon="-0.05277">
        <ele>761</ele>
        <time>2024-08-15T09:40:21Z</time>
      </trkpt>
      <trkpt lat="42.96717" lon="-0.05278">
        <ele>761.2</ele>
        <time>2024-08-15T09:40:22Z</time>
      </trkpt>
      <trkpt lat="42.96715" lon="-0.05278">
        <ele>761.2</ele>
        <time>2024-08-15T09:40:23Z</time>
      </trkpt>
      <trkpt lat="42.96711" lon="-0.05278">
        <ele>761.4</ele>
        <time>2024-08-15T09:40:24Z</time>
      </trkpt>
      <trkpt lat="42.96703" lon="-0.0528">
        <ele>761.4</ele>
        <time>2024-08-15T09:40:27Z</time>
      </trkpt>
      <trkpt lat="42.96692" lon="-0.05282">
        <ele>761</ele>
        <time>2024-08-15T09:40:30Z</time>
      </trkpt>
      <trkpt lat="42.96683" lon="-0.05282">
        <ele>760.8</ele>
        <time>2024-08-15T09:40:32Z</time>
      </trkpt>
      <trkpt lat="42.96678" lon="-0.05282">
        <ele>760.6</ele>
        <time>2024-08-15T09:40:33Z</time>
      </trkpt>
      <trkpt lat="42.96675" lon="-0.05283">
        <ele>760</ele>
        <time>2024-08-15T09:40:34Z</time>
      </trkpt>
      <trkpt lat="42.96666" lon="-0.05286">
        <ele>759.6</ele>
        <time>2024-08-15T09:40:36Z</time>
      </trkpt>
      <trkpt lat="42.96662" lon="-0.05288">
        <ele>759.4</ele>
        <time>2024-08-15T09:40:37Z</time>
      </trkpt>
      <trkpt lat="42.96659" lon="-0.0529">
        <ele>758.8</ele>
        <time>2024-08-15T09:40:38Z</time>
      </trkpt>
      <trkpt lat="42.96656" lon="-0.05291">
        <ele>758.4</ele>
        <time>2024-08-15T09:40:39Z</time>
      </trkpt>
      <trkpt lat="42.96652" lon="-0.05292">
        <ele>757.8</ele>
        <time>2024-08-15T09:40:40Z</time>
      </trkpt>
      <trkpt lat="42.96647" lon="-0.05293">
        <ele>757.4</ele>
        <time>2024-08-15T09:40:41Z</time>
      </trkpt>
      <trkpt lat="42.96642" lon="-0.05294">
        <ele>756.6</ele>
        <time>2024-08-15T09:40:42Z</time>
      </trkpt>
      <trkpt lat="42.96635" lon="-0.05296">
        <ele>755.8</ele>
        <time>2024-08-15T09:40:43Z</time>
      </trkpt>
      <trkpt lat="42.96631" lon="-0.05299">
        <ele>755.4</ele>
        <time>2024-08-15T09:40:44Z</time>
      </trkpt>
      <trkpt lat="42.96629" lon="-0.05301">
        <ele>754.8</ele>
        <time>2024-08-15T09:40:45Z</time>
      </trkpt>
      <trkpt lat="42.96625" lon="-0.05303">
        <ele>754.8</ele>
        <time>2024-08-15T09:40:46Z</time>
      </trkpt>
      <trkpt lat="42.96621" lon="-0.05302">
        <ele>753.6</ele>
        <time>2024-08-15T09:40:47Z</time>
      </trkpt>
      <trkpt lat="42.96618" lon="-0.05302">
        <ele>753.2</ele>
        <time>2024-08-15T09:40:48Z</time>
      </trkpt>
      <trkpt lat="42.96612" lon="-0.05301">
        <ele>752.6</ele>
        <time>2024-08-15T09:40:49Z</time>
      </trkpt>
      <trkpt lat="42.96609" lon="-0.05299">
        <ele>752.4</ele>
        <time>2024-08-15T09:40:50Z</time>
      </trkpt>
      <trkpt lat="42.96606" lon="-0.05301">
        <ele>752.2</ele>
        <time>2024-08-15T09:40:51Z</time>
      </trkpt>
      <trkpt lat="42.96601" lon="-0.05303">
        <ele>752</ele>
        <time>2024-08-15T09:40:52Z</time>
      </trkpt>
      <trkpt lat="42.96597" lon="-0.05302">
        <ele>751.8</ele>
        <time>2024-08-15T09:40:53Z</time>
      </trkpt>
      <trkpt lat="42.96594" lon="-0.05301">
        <ele>751.4</ele>
        <time>2024-08-15T09:40:54Z</time>
      </trkpt>
      <trkpt lat="42.96589" lon="-0.053">
        <ele>751.2</ele>
        <time>2024-08-15T09:40:55Z</time>
      </trkpt>
      <trkpt lat="42.96583" lon="-0.05299">
        <ele>751</ele>
        <time>2024-08-15T09:40:56Z</time>
      </trkpt>
      <trkpt lat="42.96578" lon="-0.05297">
        <ele>750.4</ele>
        <time>2024-08-15T09:40:57Z</time>
      </trkpt>
      <trkpt lat="42.96574" lon="-0.05295">
        <ele>750.2</ele>
        <time>2024-08-15T09:40:58Z</time>
      </trkpt>
      <trkpt lat="42.96564" lon="-0.05291">
        <ele>749.4</ele>
        <time>2024-08-15T09:41:00Z</time>
      </trkpt>
      <trkpt lat="42.9656" lon="-0.05289">
        <ele>748.8</ele>
        <time>2024-08-15T09:41:01Z</time>
      </trkpt>
      <trkpt lat="42.96556" lon="-0.05287">
        <ele>748.6</ele>
        <time>2024-08-15T09:41:02Z</time>
      </trkpt>
      <trkpt lat="42.96551" lon="-0.05285">
        <ele>748</ele>
        <time>2024-08-15T09:41:03Z</time>
      </trkpt>
      <trkpt lat="42.96546" lon="-0.05284">
        <ele>747.8</ele>
        <time>2024-08-15T09:41:04Z</time>
      </trkpt>
      <trkpt lat="42.9654" lon="-0.05282">
        <ele>747.2</ele>
        <time>2024-08-15T09:41:05Z</time>
      </trkpt>
      <trkpt lat="42.96539" lon="-0.05281">
        <ele>746.6</ele>
        <time>2024-08-15T09:41:06Z</time>
      </trkpt>
      <trkpt lat="42.96535" lon="-0.05281">
        <ele>746.2</ele>
        <time>2024-08-15T09:41:07Z</time>
      </trkpt>
      <trkpt lat="42.96533" lon="-0.05281">
        <ele>745</ele>
        <time>2024-08-15T09:41:08Z</time>
      </trkpt>
      <trkpt lat="42.96531" lon="-0.05279">
        <ele>744.6</ele>
        <time>2024-08-15T09:41:09Z</time>
      </trkpt>
      <trkpt lat="42.9653" lon="-0.05279">
        <ele>743.8</ele>
        <time>2024-08-15T09:41:10Z</time>
      </trkpt>
      <trkpt lat="42.9653" lon="-0.0528">
        <ele>743.6</ele>
        <time>2024-08-15T09:41:11Z</time>
      </trkpt>
      <trkpt lat="42.96529" lon="-0.05283">
        <ele>742.2</ele>
        <time>2024-08-15T09:41:12Z</time>
      </trkpt>
      <trkpt lat="42.96529" lon="-0.05291">
        <ele>740.8</ele>
        <time>2024-08-15T09:41:14Z</time>
      </trkpt>
      <trkpt lat="42.96535" lon="-0.05298">
        <ele>739.6</ele>
        <time>2024-08-15T09:41:16Z</time>
      </trkpt>
      <trkpt lat="42.96537" lon="-0.05302">
        <ele>739</ele>
        <time>2024-08-15T09:41:17Z</time>
      </trkpt>
      <trkpt lat="42.9654" lon="-0.05305">
        <ele>738.6</ele>
        <time>2024-08-15T09:41:18Z</time>
      </trkpt>
      <trkpt lat="42.96544" lon="-0.0531">
        <ele>738</ele>
        <time>2024-08-15T09:41:19Z</time>
      </trkpt>
      <trkpt lat="42.96549" lon="-0.05316">
        <ele>737.6</ele>
        <time>2024-08-15T09:41:20Z</time>
      </trkpt>
      <trkpt lat="42.96553" lon="-0.05323">
        <ele>737</ele>
        <time>2024-08-15T09:41:21Z</time>
      </trkpt>
      <trkpt lat="42.96563" lon="-0.05335">
        <ele>735.8</ele>
        <time>2024-08-15T09:41:23Z</time>
      </trkpt>
      <trkpt lat="42.96566" lon="-0.05343">
        <ele>734.6</ele>
        <time>2024-08-15T09:41:24Z</time>
      </trkpt>
      <trkpt lat="42.96571" lon="-0.05351">
        <ele>734.2</ele>
        <time>2024-08-15T09:41:25Z</time>
      </trkpt>
      <trkpt lat="42.96578" lon="-0.05357">
        <ele>733.4</ele>
        <time>2024-08-15T09:41:26Z</time>
      </trkpt>
      <trkpt lat="42.96585" lon="-0.05362">
        <ele>732.8</ele>
        <time>2024-08-15T09:41:27Z</time>
      </trkpt>
      <trkpt lat="42.96588" lon="-0.05364">
        <ele>731.6</ele>
        <time>2024-08-15T09:41:28Z</time>
      </trkpt>
      <trkpt lat="42.96592" lon="-0.05366">
        <ele>730.2</ele>
        <time>2024-08-15T09:41:29Z</time>
      </trkpt>
      <trkpt lat="42.96594" lon="-0.05368">
        <ele>729.8</ele>
        <time>2024-08-15T09:41:30Z</time>
      </trkpt>
      <trkpt lat="42.96598" lon="-0.05371">
        <ele>728.6</ele>
        <time>2024-08-15T09:41:31Z</time>
      </trkpt>
      <trkpt lat="42.96605" lon="-0.05378">
        <ele>727.4</ele>
        <time>2024-08-15T09:41:33Z</time>
      </trkpt>
      <trkpt lat="42.96607" lon="-0.05381">
        <ele>727</ele>
        <time>2024-08-15T09:41:34Z</time>
      </trkpt>
      <trkpt lat="42.96611" lon="-0.05383">
        <ele>726.2</ele>
        <time>2024-08-15T09:41:35Z</time>
      </trkpt>
      <trkpt lat="42.96614" lon="-0.05386">
        <ele>725.8</ele>
        <time>2024-08-15T09:41:36Z</time>
      </trkpt>
      <trkpt lat="42.96617" lon="-0.0539">
        <ele>725</ele>
        <time>2024-08-15T09:41:37Z</time>
      </trkpt>
      <trkpt lat="42.96621" lon="-0.05394">
        <ele>724</ele>
        <time>2024-08-15T09:41:38Z</time>
      </trkpt>
      <trkpt lat="42.96624" lon="-0.05396">
        <ele>723.4</ele>
        <time>2024-08-15T09:41:39Z</time>
      </trkpt>
      <trkpt lat="42.96626" lon="-0.05398">
        <ele>721.8</ele>
        <time>2024-08-15T09:41:40Z</time>
      </trkpt>
      <trkpt lat="42.96628" lon="-0.054">
        <ele>721</ele>
        <time>2024-08-15T09:41:41Z</time>
      </trkpt>
      <trkpt lat="42.9663" lon="-0.05401">
        <ele>719.6</ele>
        <time>2024-08-15T09:41:42Z</time>
      </trkpt>
      <trkpt lat="42.96633" lon="-0.05403">
        <ele>718.6</ele>
        <time>2024-08-15T09:41:43Z</time>
      </trkpt>
      <trkpt lat="42.96635" lon="-0.05405">
        <ele>717.2</ele>
        <time>2024-08-15T09:41:44Z</time>
      </trkpt>
      <trkpt lat="42.96638" lon="-0.05407">
        <ele>715.4</ele>
        <time>2024-08-15T09:41:45Z</time>
      </trkpt>
      <trkpt lat="42.96644" lon="-0.05412">
        <ele>713</ele>
        <time>2024-08-15T09:41:47Z</time>
      </trkpt>
      <trkpt lat="42.96647" lon="-0.05414">
        <ele>712.6</ele>
        <time>2024-08-15T09:41:48Z</time>
      </trkpt>
      <trkpt lat="42.96649" lon="-0.05415">
        <ele>711.2</ele>
        <time>2024-08-15T09:41:49Z</time>
      </trkpt>
      <trkpt lat="42.96654" lon="-0.05419">
        <ele>709.8</ele>
        <time>2024-08-15T09:41:51Z</time>
      </trkpt>
      <trkpt lat="42.96656" lon="-0.05421">
        <ele>709.2</ele>
        <time>2024-08-15T09:41:52Z</time>
      </trkpt>
      <trkpt lat="42.96659" lon="-0.05423">
        <ele>707.4</ele>
        <time>2024-08-15T09:41:53Z</time>
      </trkpt>
      <trkpt lat="42.96662" lon="-0.05425">
        <ele>705.8</ele>
        <time>2024-08-15T09:41:54Z</time>
      </trkpt>
      <trkpt lat="42.96671" lon="-0.05432">
        <ele>703.8</ele>
        <time>2024-08-15T09:41:56Z</time>
      </trkpt>
      <trkpt lat="42.96675" lon="-0.05436">
        <ele>703.2</ele>
        <time>2024-08-15T09:41:57Z</time>
      </trkpt>
      <trkpt lat="42.9668" lon="-0.05438">
        <ele>701.8</ele>
        <time>2024-08-15T09:41:58Z</time>
      </trkpt>
      <trkpt lat="42.96691" lon="-0.05442">
        <ele>699.6</ele>
        <time>2024-08-15T09:42:00Z</time>
      </trkpt>
      <trkpt lat="42.96694" lon="-0.05444">
        <ele>698.4</ele>
        <time>2024-08-15T09:42:01Z</time>
      </trkpt>
      <trkpt lat="42.96695" lon="-0.05445">
        <ele>698</ele>
        <time>2024-08-15T09:42:02Z</time>
      </trkpt>
      <trkpt lat="42.96702" lon="-0.05447">
        <ele>696</ele>
        <time>2024-08-15T09:42:03Z</time>
      </trkpt>
      <trkpt lat="42.96709" lon="-0.05449">
        <ele>695.4</ele>
        <time>2024-08-15T09:42:04Z</time>
      </trkpt>
      <trkpt lat="42.96719" lon="-0.05452">
        <ele>693.2</ele>
        <time>2024-08-15T09:42:05Z</time>
      </trkpt>
      <trkpt lat="42.96726" lon="-0.05455">
        <ele>692.6</ele>
        <time>2024-08-15T09:42:06Z</time>
      </trkpt>
      <trkpt lat="42.9673" lon="-0.05456">
        <ele>691</ele>
        <time>2024-08-15T09:42:07Z</time>
      </trkpt>
      <trkpt lat="42.96735" lon="-0.05456">
        <ele>690.6</ele>
        <time>2024-08-15T09:42:08Z</time>
      </trkpt>
      <trkpt lat="42.96739" lon="-0.05457">
        <ele>688.6</ele>
        <time>2024-08-15T09:42:09Z</time>
      </trkpt>
      <trkpt lat="42.96742" lon="-0.05458">
        <ele>687.4</ele>
        <time>2024-08-15T09:42:10Z</time>
      </trkpt>
      <trkpt lat="42.96744" lon="-0.0546">
        <ele>686.2</ele>
        <time>2024-08-15T09:42:11Z</time>
      </trkpt>
      <trkpt lat="42.96748" lon="-0.05462">
        <ele>684.6</ele>
        <time>2024-08-15T09:42:12Z</time>
      </trkpt>
      <trkpt lat="42.96752" lon="-0.05465">
        <ele>684.2</ele>
        <time>2024-08-15T09:42:13Z</time>
      </trkpt>
      <trkpt lat="42.96755" lon="-0.05468">
        <ele>682.8</ele>
        <time>2024-08-15T09:42:14Z</time>
      </trkpt>
      <trkpt lat="42.96761" lon="-0.05474">
        <ele>680.8</ele>
        <time>2024-08-15T09:42:16Z</time>
      </trkpt>
      <trkpt lat="42.96774" lon="-0.05484">
        <ele>679.8</ele>
        <time>2024-08-15T09:42:17Z</time>
      </trkpt>
      <trkpt lat="42.96779" lon="-0.05488">
        <ele>679.4</ele>
        <time>2024-08-15T09:42:18Z</time>
      </trkpt>
      <trkpt lat="42.96783" lon="-0.05492">
        <ele>677</ele>
        <time>2024-08-15T09:42:19Z</time>
      </trkpt>
      <trkpt lat="42.96787" lon="-0.05496">
        <ele>676.4</ele>
        <time>2024-08-15T09:42:20Z</time>
      </trkpt>
      <trkpt lat="42.96792" lon="-0.055">
        <ele>674.6</ele>
        <time>2024-08-15T09:42:21Z</time>
      </trkpt>
      <trkpt lat="42.96796" lon="-0.055">
        <ele>674</ele>
        <time>2024-08-15T09:42:22Z</time>
      </trkpt>
      <trkpt lat="42.96802" lon="-0.05503">
        <ele>672.6</ele>
        <time>2024-08-15T09:42:23Z</time>
      </trkpt>
      <trkpt lat="42.96806" lon="-0.05506">
        <ele>670.4</ele>
        <time>2024-08-15T09:42:24Z</time>
      </trkpt>
      <trkpt lat="42.96809" lon="-0.0551">
        <ele>669.6</ele>
        <time>2024-08-15T09:42:25Z</time>
      </trkpt>
      <trkpt lat="42.96813" lon="-0.05513">
        <ele>667.6</ele>
        <time>2024-08-15T09:42:26Z</time>
      </trkpt>
      <trkpt lat="42.96817" lon="-0.05518">
        <ele>666.8</ele>
        <time>2024-08-15T09:42:27Z</time>
      </trkpt>
      <trkpt lat="42.9682" lon="-0.05522">
        <ele>665.4</ele>
        <time>2024-08-15T09:42:28Z</time>
      </trkpt>
      <trkpt lat="42.96824" lon="-0.05525">
        <ele>664.8</ele>
        <time>2024-08-15T09:42:29Z</time>
      </trkpt>
      <trkpt lat="42.96827" lon="-0.05529">
        <ele>663.8</ele>
        <time>2024-08-15T09:42:30Z</time>
      </trkpt>
      <trkpt lat="42.9683" lon="-0.05532">
        <ele>663</ele>
        <time>2024-08-15T09:42:31Z</time>
      </trkpt>
      <trkpt lat="42.96831" lon="-0.05535">
        <ele>661.8</ele>
        <time>2024-08-15T09:42:32Z</time>
      </trkpt>
      <trkpt lat="42.96832" lon="-0.05539">
        <ele>660.2</ele>
        <time>2024-08-15T09:42:33Z</time>
      </trkpt>
      <trkpt lat="42.96833" lon="-0.05543">
        <ele>659.2</ele>
        <time>2024-08-15T09:42:34Z</time>
      </trkpt>
      <trkpt lat="42.96835" lon="-0.05547">
        <ele>657.6</ele>
        <time>2024-08-15T09:42:35Z</time>
      </trkpt>
      <trkpt lat="42.96838" lon="-0.05554">
        <ele>655.4</ele>
        <time>2024-08-15T09:42:37Z</time>
      </trkpt>
      <trkpt lat="42.96838" lon="-0.05557">
        <ele>654.6</ele>
        <time>2024-08-15T09:42:38Z</time>
      </trkpt>
      <trkpt lat="42.96838" lon="-0.05561">
        <ele>653</ele>
        <time>2024-08-15T09:42:39Z</time>
      </trkpt>
      <trkpt lat="42.96841" lon="-0.05565">
        <ele>651.4</ele>
        <time>2024-08-15T09:42:40Z</time>
      </trkpt>
      <trkpt lat="42.96846" lon="-0.05569">
        <ele>649.6</ele>
        <time>2024-08-15T09:42:42Z</time>
      </trkpt>
      <trkpt lat="42.96851" lon="-0.05574">
        <ele>648.6</ele>
        <time>2024-08-15T09:42:44Z</time>
      </trkpt>
      <trkpt lat="42.96853" lon="-0.05575">
        <ele>648.2</ele>
        <time>2024-08-15T09:42:45Z</time>
      </trkpt>
      <trkpt lat="42.96855" lon="-0.05578">
        <ele>646.4</ele>
        <time>2024-08-15T09:42:46Z</time>
      </trkpt>
      <trkpt lat="42.9686" lon="-0.05582">
        <ele>644.4</ele>
        <time>2024-08-15T09:42:48Z</time>
      </trkpt>
      <trkpt lat="42.96862" lon="-0.05585">
        <ele>642.6</ele>
        <time>2024-08-15T09:42:49Z</time>
      </trkpt>
      <trkpt lat="42.96864" lon="-0.05588">
        <ele>642.2</ele>
        <time>2024-08-15T09:42:50Z</time>
      </trkpt>
      <trkpt lat="42.96866" lon="-0.05591">
        <ele>641.6</ele>
        <time>2024-08-15T09:42:51Z</time>
      </trkpt>
      <trkpt lat="42.96868" lon="-0.05594">
        <ele>641.4</ele>
        <time>2024-08-15T09:42:52Z</time>
      </trkpt>
      <trkpt lat="42.9687" lon="-0.05596">
        <ele>639.6</ele>
        <time>2024-08-15T09:42:53Z</time>
      </trkpt>
      <trkpt lat="42.96873" lon="-0.056">
        <ele>639.2</ele>
        <time>2024-08-15T09:42:54Z</time>
      </trkpt>
      <trkpt lat="42.96875" lon="-0.05603">
        <ele>638.4</ele>
        <time>2024-08-15T09:42:55Z</time>
      </trkpt>
      <trkpt lat="42.96877" lon="-0.05604">
        <ele>636.6</ele>
        <time>2024-08-15T09:42:56Z</time>
      </trkpt>
      <trkpt lat="42.9688" lon="-0.05604">
        <ele>636</ele>
        <time>2024-08-15T09:42:57Z</time>
      </trkpt>
      <trkpt lat="42.96885" lon="-0.05605">
        <ele>635.2</ele>
        <time>2024-08-15T09:42:58Z</time>
      </trkpt>
      <trkpt lat="42.96888" lon="-0.05606">
        <ele>634.4</ele>
        <time>2024-08-15T09:42:59Z</time>
      </trkpt>
      <trkpt lat="42.96892" lon="-0.05608">
        <ele>633</ele>
        <time>2024-08-15T09:43:00Z</time>
      </trkpt>
      <trkpt lat="42.96895" lon="-0.0561">
        <ele>632</ele>
        <time>2024-08-15T09:43:02Z</time>
      </trkpt>
      <trkpt lat="42.96899" lon="-0.05612">
        <ele>631.4</ele>
        <time>2024-08-15T09:43:03Z</time>
      </trkpt>
      <trkpt lat="42.96904" lon="-0.05614">
        <ele>630.6</ele>
        <time>2024-08-15T09:43:04Z</time>
      </trkpt>
      <trkpt lat="42.9691" lon="-0.05617">
        <ele>629.4</ele>
        <time>2024-08-15T09:43:05Z</time>
      </trkpt>
      <trkpt lat="42.96916" lon="-0.05621">
        <ele>629</ele>
        <time>2024-08-15T09:43:06Z</time>
      </trkpt>
      <trkpt lat="42.96922" lon="-0.05624">
        <ele>627.6</ele>
        <time>2024-08-15T09:43:07Z</time>
      </trkpt>
      <trkpt lat="42.96927" lon="-0.05628">
        <ele>627</ele>
        <time>2024-08-15T09:43:08Z</time>
      </trkpt>
      <trkpt lat="42.96932" lon="-0.0563">
        <ele>625.2</ele>
        <time>2024-08-15T09:43:09Z</time>
      </trkpt>
      <trkpt lat="42.96939" lon="-0.05637">
        <ele>623.2</ele>
        <time>2024-08-15T09:43:11Z</time>
      </trkpt>
      <trkpt lat="42.96943" lon="-0.0564">
        <ele>622.4</ele>
        <time>2024-08-15T09:43:12Z</time>
      </trkpt>
      <trkpt lat="42.96946" lon="-0.05643">
        <ele>621.6</ele>
        <time>2024-08-15T09:43:13Z</time>
      </trkpt>
      <trkpt lat="42.96949" lon="-0.05646">
        <ele>620.4</ele>
        <time>2024-08-15T09:43:14Z</time>
      </trkpt>
      <trkpt lat="42.9695" lon="-0.05649">
        <ele>619.4</ele>
        <time>2024-08-15T09:43:15Z</time>
      </trkpt>
      <trkpt lat="42.96952" lon="-0.05651">
        <ele>617.8</ele>
        <time>2024-08-15T09:43:16Z</time>
      </trkpt>
      <trkpt lat="42.96956" lon="-0.05655">
        <ele>615.8</ele>
        <time>2024-08-15T09:43:18Z</time>
      </trkpt>
      <trkpt lat="42.96958" lon="-0.05657">
        <ele>615</ele>
        <time>2024-08-15T09:43:19Z</time>
      </trkpt>
      <trkpt lat="42.9696" lon="-0.0566">
        <ele>614</ele>
        <time>2024-08-15T09:43:20Z</time>
      </trkpt>
      <trkpt lat="42.96964" lon="-0.05665">
        <ele>613</ele>
        <time>2024-08-15T09:43:21Z</time>
      </trkpt>
      <trkpt lat="42.96968" lon="-0.05669">
        <ele>612.8</ele>
        <time>2024-08-15T09:43:22Z</time>
      </trkpt>
      <trkpt lat="42.96971" lon="-0.05671">
        <ele>611.8</ele>
        <time>2024-08-15T09:43:23Z</time>
      </trkpt>
      <trkpt lat="42.96974" lon="-0.05671">
        <ele>611.2</ele>
        <time>2024-08-15T09:43:24Z</time>
      </trkpt>
      <trkpt lat="42.96977" lon="-0.05673">
        <ele>610.2</ele>
        <time>2024-08-15T09:43:25Z</time>
      </trkpt>
      <trkpt lat="42.96981" lon="-0.05674">
        <ele>609.4</ele>
        <time>2024-08-15T09:43:26Z</time>
      </trkpt>
      <trkpt lat="42.96986" lon="-0.05675">
        <ele>608.2</ele>
        <time>2024-08-15T09:43:27Z</time>
      </trkpt>
      <trkpt lat="42.96992" lon="-0.05676">
        <ele>606.8</ele>
        <time>2024-08-15T09:43:29Z</time>
      </trkpt>
      <trkpt lat="42.96996" lon="-0.05677">
        <ele>605.6</ele>
        <time>2024-08-15T09:43:30Z</time>
      </trkpt>
      <trkpt lat="42.97002" lon="-0.05679">
        <ele>605.4</ele>
        <time>2024-08-15T09:43:31Z</time>
      </trkpt>
      <trkpt lat="42.97008" lon="-0.05681">
        <ele>604.2</ele>
        <time>2024-08-15T09:43:32Z</time>
      </trkpt>
      <trkpt lat="42.97011" lon="-0.05682">
        <ele>603.6</ele>
        <time>2024-08-15T09:43:33Z</time>
      </trkpt>
      <trkpt lat="42.97016" lon="-0.05684">
        <ele>602.2</ele>
        <time>2024-08-15T09:43:34Z</time>
      </trkpt>
      <trkpt lat="42.97019" lon="-0.05685">
        <ele>601.4</ele>
        <time>2024-08-15T09:43:35Z</time>
      </trkpt>
      <trkpt lat="42.97023" lon="-0.05686">
        <ele>600.6</ele>
        <time>2024-08-15T09:43:36Z</time>
      </trkpt>
      <trkpt lat="42.97025" lon="-0.05687">
        <ele>599.2</ele>
        <time>2024-08-15T09:43:37Z</time>
      </trkpt>
      <trkpt lat="42.97026" lon="-0.05689">
        <ele>598.2</ele>
        <time>2024-08-15T09:43:38Z</time>
      </trkpt>
      <trkpt lat="42.97027" lon="-0.05692">
        <ele>596.4</ele>
        <time>2024-08-15T09:43:40Z</time>
      </trkpt>
      <trkpt lat="42.97028" lon="-0.05694">
        <ele>594.8</ele>
        <time>2024-08-15T09:43:41Z</time>
      </trkpt>
      <trkpt lat="42.97037" lon="-0.05704">
        <ele>587.4</ele>
        <time>2024-08-15T09:44:01Z</time>
      </trkpt>
      <trkpt lat="42.97037" lon="-0.05704">
        <ele>587</ele>
        <time>2024-08-15T09:44:02Z</time>
      </trkpt>
      <trkpt lat="42.97038" lon="-0.05704">
        <ele>585.8</ele>
        <time>2024-08-15T09:44:04Z</time>
      </trkpt>
      <trkpt lat="42.97042" lon="-0.05706">
        <ele>584.2</ele>
        <time>2024-08-15T09:44:06Z</time>
      </trkpt>
      <trkpt lat="42.97044" lon="-0.05706">
        <ele>583.8</ele>
        <time>2024-08-15T09:44:07Z</time>
      </trkpt>
      <trkpt lat="42.97048" lon="-0.05705">
        <ele>582.6</ele>
        <time>2024-08-15T09:44:08Z</time>
      </trkpt>
      <trkpt lat="42.97053" lon="-0.05705">
        <ele>581.4</ele>
        <time>2024-08-15T09:44:10Z</time>
      </trkpt>
      <trkpt lat="42.9706" lon="-0.05704">
        <ele>580</ele>
        <time>2024-08-15T09:44:12Z</time>
      </trkpt>
      <trkpt lat="42.97063" lon="-0.05703">
        <ele>578.8</ele>
        <time>2024-08-15T09:44:13Z</time>
      </trkpt>
      <trkpt lat="42.97066" lon="-0.05703">
        <ele>578.2</ele>
        <time>2024-08-15T09:44:14Z</time>
      </trkpt>
      <trkpt lat="42.97072" lon="-0.05703">
        <ele>577.2</ele>
        <time>2024-08-15T09:44:15Z</time>
      </trkpt>
      <trkpt lat="42.97077" lon="-0.057">
        <ele>575.4</ele>
        <time>2024-08-15T09:44:16Z</time>
      </trkpt>
      <trkpt lat="42.97083" lon="-0.05698">
        <ele>575</ele>
        <time>2024-08-15T09:44:17Z</time>
      </trkpt>
      <trkpt lat="42.97088" lon="-0.05698">
        <ele>573.6</ele>
        <time>2024-08-15T09:44:18Z</time>
      </trkpt>
      <trkpt lat="42.97093" lon="-0.05698">
        <ele>573.2</ele>
        <time>2024-08-15T09:44:19Z</time>
      </trkpt>
      <trkpt lat="42.97096" lon="-0.05698">
        <ele>571.4</ele>
        <time>2024-08-15T09:44:20Z</time>
      </trkpt>
      <trkpt lat="42.97099" lon="-0.05697">
        <ele>570.4</ele>
        <time>2024-08-15T09:44:21Z</time>
      </trkpt>
      <trkpt lat="42.97101" lon="-0.05696">
        <ele>568.8</ele>
        <time>2024-08-15T09:44:22Z</time>
      </trkpt>
      <trkpt lat="42.97104" lon="-0.05695">
        <ele>568.4</ele>
        <time>2024-08-15T09:44:23Z</time>
      </trkpt>
      <trkpt lat="42.97107" lon="-0.05695">
        <ele>567.4</ele>
        <time>2024-08-15T09:44:24Z</time>
      </trkpt>
      <trkpt lat="42.97109" lon="-0.05693">
        <ele>566.4</ele>
        <time>2024-08-15T09:44:25Z</time>
      </trkpt>
      <trkpt lat="42.97116" lon="-0.05688">
        <ele>564.8</ele>
        <time>2024-08-15T09:44:27Z</time>
      </trkpt>
      <trkpt lat="42.97124" lon="-0.05687">
        <ele>563.2</ele>
        <time>2024-08-15T09:44:29Z</time>
      </trkpt>
      <trkpt lat="42.97126" lon="-0.05686">
        <ele>562.4</ele>
        <time>2024-08-15T09:44:30Z</time>
      </trkpt>
      <trkpt lat="42.97129" lon="-0.05686">
        <ele>561.4</ele>
        <time>2024-08-15T09:44:31Z</time>
      </trkpt>
      <trkpt lat="42.97134" lon="-0.05684">
        <ele>560.2</ele>
        <time>2024-08-15T09:44:32Z</time>
      </trkpt>
      <trkpt lat="42.97139" lon="-0.05683">
        <ele>559.8</ele>
        <time>2024-08-15T09:44:33Z</time>
      </trkpt>
      <trkpt lat="42.97147" lon="-0.05683">
        <ele>558.4</ele>
        <time>2024-08-15T09:44:34Z</time>
      </trkpt>
      <trkpt lat="42.97157" lon="-0.05681">
        <ele>556.8</ele>
        <time>2024-08-15T09:44:36Z</time>
      </trkpt>
      <trkpt lat="42.97161" lon="-0.05679">
        <ele>556.2</ele>
        <time>2024-08-15T09:44:37Z</time>
      </trkpt>
      <trkpt lat="42.97165" lon="-0.05676">
        <ele>554.6</ele>
        <time>2024-08-15T09:44:38Z</time>
      </trkpt>
      <trkpt lat="42.97168" lon="-0.05675">
        <ele>553.6</ele>
        <time>2024-08-15T09:44:39Z</time>
      </trkpt>
      <trkpt lat="42.9717" lon="-0.05675">
        <ele>552</ele>
        <time>2024-08-15T09:44:40Z</time>
      </trkpt>
      <trkpt lat="42.97173" lon="-0.05674">
        <ele>551</ele>
        <time>2024-08-15T09:44:41Z</time>
      </trkpt>
      <trkpt lat="42.97176" lon="-0.05674">
        <ele>550.4</ele>
        <time>2024-08-15T09:44:42Z</time>
      </trkpt>
      <trkpt lat="42.9718" lon="-0.05674">
        <ele>548.8</ele>
        <time>2024-08-15T09:44:43Z</time>
      </trkpt>
      <trkpt lat="42.97187" lon="-0.05674">
        <ele>547.8</ele>
        <time>2024-08-15T09:44:45Z</time>
      </trkpt>
      <trkpt lat="42.9719" lon="-0.05675">
        <ele>547.4</ele>
        <time>2024-08-15T09:44:46Z</time>
      </trkpt>
      <trkpt lat="42.97194" lon="-0.05678">
        <ele>546</ele>
        <time>2024-08-15T09:44:47Z</time>
      </trkpt>
      <trkpt lat="42.97197" lon="-0.0568">
        <ele>545</ele>
        <time>2024-08-15T09:44:48Z</time>
      </trkpt>
      <trkpt lat="42.972" lon="-0.05683">
        <ele>544.4</ele>
        <time>2024-08-15T09:44:49Z</time>
      </trkpt>
      <trkpt lat="42.97203" lon="-0.05686">
        <ele>542.8</ele>
        <time>2024-08-15T09:44:50Z</time>
      </trkpt>
      <trkpt lat="42.97205" lon="-0.05688">
        <ele>542.4</ele>
        <time>2024-08-15T09:44:51Z</time>
      </trkpt>
      <trkpt lat="42.97207" lon="-0.05689">
        <ele>541.2</ele>
        <time>2024-08-15T09:44:52Z</time>
      </trkpt>
      <trkpt lat="42.97209" lon="-0.05691">
        <ele>540.4</ele>
        <time>2024-08-15T09:44:53Z</time>
      </trkpt>
      <trkpt lat="42.97211" lon="-0.05694">
        <ele>539.2</ele>
        <time>2024-08-15T09:44:54Z</time>
      </trkpt>
      <trkpt lat="42.97217" lon="-0.057">
        <ele>538.2</ele>
        <time>2024-08-15T09:44:56Z</time>
      </trkpt>
      <trkpt lat="42.9722" lon="-0.05703">
        <ele>537.2</ele>
        <time>2024-08-15T09:44:57Z</time>
      </trkpt>
      <trkpt lat="42.97224" lon="-0.05707">
        <ele>536.4</ele>
        <time>2024-08-15T09:44:58Z</time>
      </trkpt>
      <trkpt lat="42.97226" lon="-0.05712">
        <ele>535.4</ele>
        <time>2024-08-15T09:44:59Z</time>
      </trkpt>
      <trkpt lat="42.97231" lon="-0.05724">
        <ele>533.4</ele>
        <time>2024-08-15T09:45:01Z</time>
      </trkpt>
      <trkpt lat="42.97232" lon="-0.0573">
        <ele>533.2</ele>
        <time>2024-08-15T09:45:02Z</time>
      </trkpt>
      <trkpt lat="42.97232" lon="-0.05737">
        <ele>532.2</ele>
        <time>2024-08-15T09:45:03Z</time>
      </trkpt>
      <trkpt lat="42.97232" lon="-0.05744">
        <ele>531.4</ele>
        <time>2024-08-15T09:45:04Z</time>
      </trkpt>
      <trkpt lat="42.97233" lon="-0.0575">
        <ele>530.4</ele>
        <time>2024-08-15T09:45:05Z</time>
      </trkpt>
      <trkpt lat="42.97234" lon="-0.05765">
        <ele>529.4</ele>
        <time>2024-08-15T09:45:07Z</time>
      </trkpt>
      <trkpt lat="42.97235" lon="-0.05771">
        <ele>528.6</ele>
        <time>2024-08-15T09:45:08Z</time>
      </trkpt>
      <trkpt lat="42.97235" lon="-0.05777">
        <ele>527.8</ele>
        <time>2024-08-15T09:45:09Z</time>
      </trkpt>
      <trkpt lat="42.97235" lon="-0.05781">
        <ele>526.4</ele>
        <time>2024-08-15T09:45:10Z</time>
      </trkpt>
      <trkpt lat="42.97236" lon="-0.05786">
        <ele>526</ele>
        <time>2024-08-15T09:45:11Z</time>
      </trkpt>
      <trkpt lat="42.9724" lon="-0.05792">
        <ele>525.2</ele>
        <time>2024-08-15T09:45:12Z</time>
      </trkpt>
      <trkpt lat="42.97246" lon="-0.05797">
        <ele>524.2</ele>
        <time>2024-08-15T09:45:13Z</time>
      </trkpt>
      <trkpt lat="42.97251" lon="-0.05802">
        <ele>523.6</ele>
        <time>2024-08-15T09:45:14Z</time>
      </trkpt>
      <trkpt lat="42.97257" lon="-0.05806">
        <ele>522.8</ele>
        <time>2024-08-15T09:45:15Z</time>
      </trkpt>
      <trkpt lat="42.97263" lon="-0.05808">
        <ele>522.2</ele>
        <time>2024-08-15T09:45:16Z</time>
      </trkpt>
      <trkpt lat="42.97267" lon="-0.0581">
        <ele>521.2</ele>
        <time>2024-08-15T09:45:17Z</time>
      </trkpt>
      <trkpt lat="42.97271" lon="-0.05812">
        <ele>521</ele>
        <time>2024-08-15T09:45:18Z</time>
      </trkpt>
      <trkpt lat="42.97274" lon="-0.05813">
        <ele>519.4</ele>
        <time>2024-08-15T09:45:19Z</time>
      </trkpt>
      <trkpt lat="42.97276" lon="-0.05814">
        <ele>518.8</ele>
        <time>2024-08-15T09:45:20Z</time>
      </trkpt>
      <trkpt lat="42.9728" lon="-0.05813">
        <ele>517.6</ele>
        <time>2024-08-15T09:45:21Z</time>
      </trkpt>
      <trkpt lat="42.97283" lon="-0.05813">
        <ele>516.8</ele>
        <time>2024-08-15T09:45:22Z</time>
      </trkpt>
      <trkpt lat="42.97285" lon="-0.05812">
        <ele>516.4</ele>
        <time>2024-08-15T09:45:23Z</time>
      </trkpt>
      <trkpt lat="42.97291" lon="-0.05814">
        <ele>515.6</ele>
        <time>2024-08-15T09:45:25Z</time>
      </trkpt>
      <trkpt lat="42.97295" lon="-0.05818">
        <ele>515.2</ele>
        <time>2024-08-15T09:45:26Z</time>
      </trkpt>
      <trkpt lat="42.97299" lon="-0.05823">
        <ele>515.2</ele>
        <time>2024-08-15T09:45:27Z</time>
      </trkpt>
      <trkpt lat="42.97304" lon="-0.05828">
        <ele>514.8</ele>
        <time>2024-08-15T09:45:28Z</time>
      </trkpt>
      <trkpt lat="42.97315" lon="-0.05839">
        <ele>514.4</ele>
        <time>2024-08-15T09:45:30Z</time>
      </trkpt>
      <trkpt lat="42.9732" lon="-0.05845">
        <ele>513.8</ele>
        <time>2024-08-15T09:45:31Z</time>
      </trkpt>
      <trkpt lat="42.97332" lon="-0.0586">
        <ele>512.6</ele>
        <time>2024-08-15T09:45:33Z</time>
      </trkpt>
      <trkpt lat="42.97338" lon="-0.05869">
        <ele>512.4</ele>
        <time>2024-08-15T09:45:34Z</time>
      </trkpt>
      <trkpt lat="42.97342" lon="-0.05877">
        <ele>511.6</ele>
        <time>2024-08-15T09:45:35Z</time>
      </trkpt>
      <trkpt lat="42.97348" lon="-0.05889">
        <ele>511.2</ele>
        <time>2024-08-15T09:45:36Z</time>
      </trkpt>
      <trkpt lat="42.97352" lon="-0.05899">
        <ele>510.4</ele>
        <time>2024-08-15T09:45:37Z</time>
      </trkpt>
      <trkpt lat="42.97356" lon="-0.05906">
        <ele>508.6</ele>
        <time>2024-08-15T09:45:38Z</time>
      </trkpt>
      <trkpt lat="42.9736" lon="-0.05911">
        <ele>508</ele>
        <time>2024-08-15T09:45:39Z</time>
      </trkpt>
      <trkpt lat="42.97366" lon="-0.05913">
        <ele>506.6</ele>
        <time>2024-08-15T09:45:40Z</time>
      </trkpt>
      <trkpt lat="42.97373" lon="-0.05912">
        <ele>505.6</ele>
        <time>2024-08-15T09:45:41Z</time>
      </trkpt>
      <trkpt lat="42.97379" lon="-0.05908">
        <ele>504.2</ele>
        <time>2024-08-15T09:45:42Z</time>
      </trkpt>
      <trkpt lat="42.97385" lon="-0.05903">
        <ele>503.4</ele>
        <time>2024-08-15T09:45:43Z</time>
      </trkpt>
      <trkpt lat="42.97391" lon="-0.05899">
        <ele>502.2</ele>
        <time>2024-08-15T09:45:44Z</time>
      </trkpt>
      <trkpt lat="42.97403" lon="-0.05902">
        <ele>501</ele>
        <time>2024-08-15T09:45:46Z</time>
      </trkpt>
      <trkpt lat="42.9741" lon="-0.05907">
        <ele>500</ele>
        <time>2024-08-15T09:45:47Z</time>
      </trkpt>
      <trkpt lat="42.97418" lon="-0.05914">
        <ele>499.8</ele>
        <time>2024-08-15T09:45:48Z</time>
      </trkpt>
      <trkpt lat="42.97426" lon="-0.05921">
        <ele>499.2</ele>
        <time>2024-08-15T09:45:49Z</time>
      </trkpt>
      <trkpt lat="42.97433" lon="-0.0593">
        <ele>498.8</ele>
        <time>2024-08-15T09:45:50Z</time>
      </trkpt>
      <trkpt lat="42.97441" lon="-0.05939">
        <ele>498.2</ele>
        <time>2024-08-15T09:45:51Z</time>
      </trkpt>
      <trkpt lat="42.97447" lon="-0.05949">
        <ele>497.8</ele>
        <time>2024-08-15T09:45:52Z</time>
      </trkpt>
      <trkpt lat="42.97453" lon="-0.05958">
        <ele>497</ele>
        <time>2024-08-15T09:45:53Z</time>
      </trkpt>
      <trkpt lat="42.97459" lon="-0.05966">
        <ele>496</ele>
        <time>2024-08-15T09:45:54Z</time>
      </trkpt>
      <trkpt lat="42.97465" lon="-0.05971">
        <ele>495.4</ele>
        <time>2024-08-15T09:45:55Z</time>
      </trkpt>
      <trkpt lat="42.97473" lon="-0.05978">
        <ele>494.4</ele>
        <time>2024-08-15T09:45:56Z</time>
      </trkpt>
      <trkpt lat="42.97481" lon="-0.05984">
        <ele>494</ele>
        <time>2024-08-15T09:45:57Z</time>
      </trkpt>
      <trkpt lat="42.97489" lon="-0.0599">
        <ele>493.2</ele>
        <time>2024-08-15T09:45:58Z</time>
      </trkpt>
      <trkpt lat="42.97504" lon="-0.06">
        <ele>491.6</ele>
        <time>2024-08-15T09:46:00Z</time>
      </trkpt>
      <trkpt lat="42.97512" lon="-0.06006">
        <ele>490.8</ele>
        <time>2024-08-15T09:46:01Z</time>
      </trkpt>
      <trkpt lat="42.9752" lon="-0.06011">
        <ele>490.4</ele>
        <time>2024-08-15T09:46:02Z</time>
      </trkpt>
      <trkpt lat="42.97535" lon="-0.06021">
        <ele>489.6</ele>
        <time>2024-08-15T09:46:04Z</time>
      </trkpt>
      <trkpt lat="42.97543" lon="-0.06024">
        <ele>488.6</ele>
        <time>2024-08-15T09:46:05Z</time>
      </trkpt>
      <trkpt lat="42.97552" lon="-0.06026">
        <ele>488.2</ele>
        <time>2024-08-15T09:46:06Z</time>
      </trkpt>
      <trkpt lat="42.97559" lon="-0.06029">
        <ele>487.6</ele>
        <time>2024-08-15T09:46:07Z</time>
      </trkpt>
      <trkpt lat="42.97565" lon="-0.06031">
        <ele>487.6</ele>
        <time>2024-08-15T09:46:08Z</time>
      </trkpt>
      <trkpt lat="42.9757" lon="-0.06032">
        <ele>487.4</ele>
        <time>2024-08-15T09:46:09Z</time>
      </trkpt>
      <trkpt lat="42.97574" lon="-0.06033">
        <ele>487.4</ele>
        <time>2024-08-15T09:46:10Z</time>
      </trkpt>
      <trkpt lat="42.97577" lon="-0.06034">
        <ele>487.4</ele>
        <time>2024-08-15T09:46:11Z</time>
      </trkpt>
      <trkpt lat="42.97581" lon="-0.06036">
        <ele>487.4</ele>
        <time>2024-08-15T09:46:12Z</time>
      </trkpt>
      <trkpt lat="42.97585" lon="-0.06038">
        <ele>487.4</ele>
        <time>2024-08-15T09:46:13Z</time>
      </trkpt>
      <trkpt lat="42.97597" lon="-0.06045">
        <ele>487.8</ele>
        <time>2024-08-15T09:46:16Z</time>
      </trkpt>
      <trkpt lat="42.97601" lon="-0.06047">
        <ele>488</ele>
        <time>2024-08-15T09:46:17Z</time>
      </trkpt>
      <trkpt lat="42.97604" lon="-0.06048">
        <ele>488.2</ele>
        <time>2024-08-15T09:46:18Z</time>
      </trkpt>
      <trkpt lat="42.97609" lon="-0.0605">
        <ele>488.8</ele>
        <time>2024-08-15T09:46:19Z</time>
      </trkpt>
      <trkpt lat="42.97612" lon="-0.06052">
        <ele>488.8</ele>
        <time>2024-08-15T09:46:20Z</time>
      </trkpt>
      <trkpt lat="42.97616" lon="-0.06054">
        <ele>489.2</ele>
        <time>2024-08-15T09:46:21Z</time>
      </trkpt>
      <trkpt lat="42.97623" lon="-0.0606">
        <ele>489.4</ele>
        <time>2024-08-15T09:46:23Z</time>
      </trkpt>
      <trkpt lat="42.97635" lon="-0.06067">
        <ele>489.6</ele>
        <time>2024-08-15T09:46:26Z</time>
      </trkpt>
      <trkpt lat="42.9764" lon="-0.06069">
        <ele>489.6</ele>
        <time>2024-08-15T09:46:27Z</time>
      </trkpt>
      <trkpt lat="42.97653" lon="-0.06075">
        <ele>489.8</ele>
        <time>2024-08-15T09:46:30Z</time>
      </trkpt>
      <trkpt lat="42.97657" lon="-0.06077">
        <ele>489.8</ele>
        <time>2024-08-15T09:46:31Z</time>
      </trkpt>
      <trkpt lat="42.97662" lon="-0.06079">
        <ele>489.8</ele>
        <time>2024-08-15T09:46:32Z</time>
      </trkpt>
      <trkpt lat="42.9767" lon="-0.06083">
        <ele>489.8</ele>
        <time>2024-08-15T09:46:34Z</time>
      </trkpt>
      <trkpt lat="42.97674" lon="-0.06085">
        <ele>489.8</ele>
        <time>2024-08-15T09:46:35Z</time>
      </trkpt>
      <trkpt lat="42.97683" lon="-0.06089">
        <ele>489.8</ele>
        <time>2024-08-15T09:46:37Z</time>
      </trkpt>
      <trkpt lat="42.97688" lon="-0.0609">
        <ele>489.8</ele>
        <time>2024-08-15T09:46:38Z</time>
      </trkpt>
      <trkpt lat="42.97698" lon="-0.0609">
        <ele>490</ele>
        <time>2024-08-15T09:46:40Z</time>
      </trkpt>
      <trkpt lat="42.97703" lon="-0.06091">
        <ele>490</ele>
        <time>2024-08-15T09:46:41Z</time>
      </trkpt>
      <trkpt lat="42.97718" lon="-0.06096">
        <ele>490</ele>
        <time>2024-08-15T09:46:44Z</time>
      </trkpt>
      <trkpt lat="42.97752" lon="-0.06107">
        <ele>489.6</ele>
        <time>2024-08-15T09:46:49Z</time>
      </trkpt>
      <trkpt lat="42.97768" lon="-0.06111">
        <ele>488.8</ele>
        <time>2024-08-15T09:46:51Z</time>
      </trkpt>
      <trkpt lat="42.97802" lon="-0.06121">
        <ele>487.4</ele>
        <time>2024-08-15T09:46:55Z</time>
      </trkpt>
      <trkpt lat="42.9782" lon="-0.06125">
        <ele>486.2</ele>
        <time>2024-08-15T09:46:57Z</time>
      </trkpt>
      <trkpt lat="42.97839" lon="-0.0613">
        <ele>484.8</ele>
        <time>2024-08-15T09:46:59Z</time>
      </trkpt>
      <trkpt lat="42.97868" lon="-0.06136">
        <ele>483.6</ele>
        <time>2024-08-15T09:47:02Z</time>
      </trkpt>
      <trkpt lat="42.97887" lon="-0.06141">
        <ele>482.6</ele>
        <time>2024-08-15T09:47:04Z</time>
      </trkpt>
      <trkpt lat="42.97896" lon="-0.06144">
        <ele>482.2</ele>
        <time>2024-08-15T09:47:05Z</time>
      </trkpt>
      <trkpt lat="42.97905" lon="-0.06146">
        <ele>481.4</ele>
        <time>2024-08-15T09:47:06Z</time>
      </trkpt>
      <trkpt lat="42.97914" lon="-0.06148">
        <ele>480.8</ele>
        <time>2024-08-15T09:47:07Z</time>
      </trkpt>
      <trkpt lat="42.97923" lon="-0.06149">
        <ele>480.6</ele>
        <time>2024-08-15T09:47:08Z</time>
      </trkpt>
      <trkpt lat="42.97932" lon="-0.0615">
        <ele>480</ele>
        <time>2024-08-15T09:47:09Z</time>
      </trkpt>
      <trkpt lat="42.97941" lon="-0.06152">
        <ele>479.8</ele>
        <time>2024-08-15T09:47:10Z</time>
      </trkpt>
      <trkpt lat="42.9795" lon="-0.06153">
        <ele>479.6</ele>
        <time>2024-08-15T09:47:11Z</time>
      </trkpt>
      <trkpt lat="42.97958" lon="-0.06153">
        <ele>479.4</ele>
        <time>2024-08-15T09:47:12Z</time>
      </trkpt>
      <trkpt lat="42.97966" lon="-0.06152">
        <ele>479.4</ele>
        <time>2024-08-15T09:47:13Z</time>
      </trkpt>
      <trkpt lat="42.97973" lon="-0.06152">
        <ele>479.6</ele>
        <time>2024-08-15T09:47:14Z</time>
      </trkpt>
      <trkpt lat="42.97978" lon="-0.06152">
        <ele>479.2</ele>
        <time>2024-08-15T09:47:15Z</time>
      </trkpt>
      <trkpt lat="42.97986" lon="-0.06153">
        <ele>479.2</ele>
        <time>2024-08-15T09:47:16Z</time>
      </trkpt>
      <trkpt lat="42.97993" lon="-0.06154">
        <ele>479.2</ele>
        <time>2024-08-15T09:47:17Z</time>
      </trkpt>
      <trkpt lat="42.98" lon="-0.06156">
        <ele>479.2</ele>
        <time>2024-08-15T09:47:18Z</time>
      </trkpt>
      <trkpt lat="42.98006" lon="-0.06157">
        <ele>479.4</ele>
        <time>2024-08-15T09:47:19Z</time>
      </trkpt>
      <trkpt lat="42.98034" lon="-0.06161">
        <ele>480.2</ele>
        <time>2024-08-15T09:47:23Z</time>
      </trkpt>
      <trkpt lat="42.98041" lon="-0.06162">
        <ele>480.2</ele>
        <time>2024-08-15T09:47:24Z</time>
      </trkpt>
      <trkpt lat="42.98054" lon="-0.06164">
        <ele>480.4</ele>
        <time>2024-08-15T09:47:26Z</time>
      </trkpt>
      <trkpt lat="42.98068" lon="-0.06168">
        <ele>480.4</ele>
        <time>2024-08-15T09:47:28Z</time>
      </trkpt>
      <trkpt lat="42.98074" lon="-0.06171">
        <ele>480.4</ele>
        <time>2024-08-15T09:47:29Z</time>
      </trkpt>
      <trkpt lat="42.9808" lon="-0.06173">
        <ele>480.4</ele>
        <time>2024-08-15T09:47:30Z</time>
      </trkpt>
      <trkpt lat="42.98086" lon="-0.06174">
        <ele>480.4</ele>
        <time>2024-08-15T09:47:31Z</time>
      </trkpt>
      <trkpt lat="42.98092" lon="-0.06176">
        <ele>480.2</ele>
        <time>2024-08-15T09:47:32Z</time>
      </trkpt>
      <trkpt lat="42.98098" lon="-0.06177">
        <ele>480.2</ele>
        <time>2024-08-15T09:47:33Z</time>
      </trkpt>
      <trkpt lat="42.98104" lon="-0.06178">
        <ele>480.2</ele>
        <time>2024-08-15T09:47:34Z</time>
      </trkpt>
      <trkpt lat="42.98109" lon="-0.06179">
        <ele>480</ele>
        <time>2024-08-15T09:47:35Z</time>
      </trkpt>
      <trkpt lat="42.98115" lon="-0.0618">
        <ele>480</ele>
        <time>2024-08-15T09:47:36Z</time>
      </trkpt>
      <trkpt lat="42.9812" lon="-0.06181">
        <ele>480</ele>
        <time>2024-08-15T09:47:37Z</time>
      </trkpt>
      <trkpt lat="42.98124" lon="-0.06181">
        <ele>480.2</ele>
        <time>2024-08-15T09:47:38Z</time>
      </trkpt>
      <trkpt lat="42.9813" lon="-0.06182">
        <ele>480.2</ele>
        <time>2024-08-15T09:47:39Z</time>
      </trkpt>
      <trkpt lat="42.9814" lon="-0.06184">
        <ele>480.2</ele>
        <time>2024-08-15T09:47:41Z</time>
      </trkpt>
      <trkpt lat="42.98151" lon="-0.06185">
        <ele>480.2</ele>
        <time>2024-08-15T09:47:43Z</time>
      </trkpt>
      <trkpt lat="42.98168" lon="-0.06189">
        <ele>480.2</ele>
        <time>2024-08-15T09:47:46Z</time>
      </trkpt>
      <trkpt lat="42.9818" lon="-0.06195">
        <ele>480.2</ele>
        <time>2024-08-15T09:47:48Z</time>
      </trkpt>
      <trkpt lat="42.98217" lon="-0.06221">
        <ele>479.4</ele>
        <time>2024-08-15T09:47:54Z</time>
      </trkpt>
      <trkpt lat="42.98223" lon="-0.06225">
        <ele>479.2</ele>
        <time>2024-08-15T09:47:55Z</time>
      </trkpt>
      <trkpt lat="42.98236" lon="-0.06234">
        <ele>478.8</ele>
        <time>2024-08-15T09:47:57Z</time>
      </trkpt>
      <trkpt lat="42.98242" lon="-0.06238">
        <ele>479</ele>
        <time>2024-08-15T09:47:58Z</time>
      </trkpt>
      <trkpt lat="42.98255" lon="-0.06245">
        <ele>478.6</ele>
        <time>2024-08-15T09:48:00Z</time>
      </trkpt>
      <trkpt lat="42.98262" lon="-0.06247">
        <ele>478.4</ele>
        <time>2024-08-15T09:48:01Z</time>
      </trkpt>
      <trkpt lat="42.98269" lon="-0.06248">
        <ele>478</ele>
        <time>2024-08-15T09:48:02Z</time>
      </trkpt>
      <trkpt lat="42.98282" lon="-0.0625">
        <ele>477.6</ele>
        <time>2024-08-15T09:48:04Z</time>
      </trkpt>
      <trkpt lat="42.98288" lon="-0.06251">
        <ele>477.6</ele>
        <time>2024-08-15T09:48:05Z</time>
      </trkpt>
      <trkpt lat="42.98309" lon="-0.06255">
        <ele>476.8</ele>
        <time>2024-08-15T09:48:08Z</time>
      </trkpt>
      <trkpt lat="42.98317" lon="-0.06257">
        <ele>476.6</ele>
        <time>2024-08-15T09:48:09Z</time>
      </trkpt>
      <trkpt lat="42.98325" lon="-0.06261">
        <ele>476.4</ele>
        <time>2024-08-15T09:48:10Z</time>
      </trkpt>
      <trkpt lat="42.98332" lon="-0.06268">
        <ele>475.8</ele>
        <time>2024-08-15T09:48:11Z</time>
      </trkpt>
      <trkpt lat="42.98338" lon="-0.06276">
        <ele>475.6</ele>
        <time>2024-08-15T09:48:12Z</time>
      </trkpt>
      <trkpt lat="42.98344" lon="-0.06286">
        <ele>474.8</ele>
        <time>2024-08-15T09:48:13Z</time>
      </trkpt>
      <trkpt lat="42.9835" lon="-0.06297">
        <ele>474.4</ele>
        <time>2024-08-15T09:48:14Z</time>
      </trkpt>
      <trkpt lat="42.98355" lon="-0.06309">
        <ele>473.6</ele>
        <time>2024-08-15T09:48:15Z</time>
      </trkpt>
      <trkpt lat="42.9836" lon="-0.06321">
        <ele>473.4</ele>
        <time>2024-08-15T09:48:16Z</time>
      </trkpt>
      <trkpt lat="42.98365" lon="-0.06335">
        <ele>472.4</ele>
        <time>2024-08-15T09:48:17Z</time>
      </trkpt>
      <trkpt lat="42.98375" lon="-0.06362">
        <ele>470.8</ele>
        <time>2024-08-15T09:48:19Z</time>
      </trkpt>
      <trkpt lat="42.9838" lon="-0.06375">
        <ele>469.8</ele>
        <time>2024-08-15T09:48:20Z</time>
      </trkpt>
      <trkpt lat="42.98386" lon="-0.06387">
        <ele>469.2</ele>
        <time>2024-08-15T09:48:21Z</time>
      </trkpt>
      <trkpt lat="42.98391" lon="-0.06398">
        <ele>468.4</ele>
        <time>2024-08-15T09:48:22Z</time>
      </trkpt>
      <trkpt lat="42.98395" lon="-0.06409">
        <ele>468</ele>
        <time>2024-08-15T09:48:23Z</time>
      </trkpt>
      <trkpt lat="42.98399" lon="-0.06416">
        <ele>467</ele>
        <time>2024-08-15T09:48:24Z</time>
      </trkpt>
      <trkpt lat="42.98404" lon="-0.06427">
        <ele>466.4</ele>
        <time>2024-08-15T09:48:25Z</time>
      </trkpt>
      <trkpt lat="42.98407" lon="-0.06437">
        <ele>465.6</ele>
        <time>2024-08-15T09:48:26Z</time>
      </trkpt>
      <trkpt lat="42.98409" lon="-0.06448">
        <ele>465</ele>
        <time>2024-08-15T09:48:27Z</time>
      </trkpt>
      <trkpt lat="42.9841" lon="-0.06459">
        <ele>464.2</ele>
        <time>2024-08-15T09:48:28Z</time>
      </trkpt>
      <trkpt lat="42.9841" lon="-0.06471">
        <ele>463.4</ele>
        <time>2024-08-15T09:48:29Z</time>
      </trkpt>
      <trkpt lat="42.9841" lon="-0.06483">
        <ele>463.2</ele>
        <time>2024-08-15T09:48:30Z</time>
      </trkpt>
      <trkpt lat="42.98408" lon="-0.0652">
        <ele>461.4</ele>
        <time>2024-08-15T09:48:33Z</time>
      </trkpt>
      <trkpt lat="42.98407" lon="-0.06532">
        <ele>461.2</ele>
        <time>2024-08-15T09:48:34Z</time>
      </trkpt>
      <trkpt lat="42.98405" lon="-0.06557">
        <ele>460</ele>
        <time>2024-08-15T09:48:36Z</time>
      </trkpt>
      <trkpt lat="42.98401" lon="-0.06595">
        <ele>458.8</ele>
        <time>2024-08-15T09:48:39Z</time>
      </trkpt>
      <trkpt lat="42.98399" lon="-0.06608">
        <ele>458.2</ele>
        <time>2024-08-15T09:48:40Z</time>
      </trkpt>
      <trkpt lat="42.98397" lon="-0.06621">
        <ele>457.8</ele>
        <time>2024-08-15T09:48:41Z</time>
      </trkpt>
      <trkpt lat="42.98393" lon="-0.06646">
        <ele>456.8</ele>
        <time>2024-08-15T09:48:43Z</time>
      </trkpt>
      <trkpt lat="42.98391" lon="-0.06673">
        <ele>455.4</ele>
        <time>2024-08-15T09:48:45Z</time>
      </trkpt>
      <trkpt lat="42.98389" lon="-0.0669">
        <ele>455</ele>
        <time>2024-08-15T09:48:46Z</time>
      </trkpt>
      <trkpt lat="42.98387" lon="-0.06703">
        <ele>454.6</ele>
        <time>2024-08-15T09:48:47Z</time>
      </trkpt>
      <trkpt lat="42.98386" lon="-0.06714">
        <ele>454.2</ele>
        <time>2024-08-15T09:48:48Z</time>
      </trkpt>
      <trkpt lat="42.98382" lon="-0.06757">
        <ele>453</ele>
        <time>2024-08-15T09:48:51Z</time>
      </trkpt>
      <trkpt lat="42.98381" lon="-0.0677">
        <ele>452.8</ele>
        <time>2024-08-15T09:48:52Z</time>
      </trkpt>
      <trkpt lat="42.9838" lon="-0.06781">
        <ele>452.4</ele>
        <time>2024-08-15T09:48:53Z</time>
      </trkpt>
      <trkpt lat="42.98379" lon="-0.06794">
        <ele>451.8</ele>
        <time>2024-08-15T09:48:54Z</time>
      </trkpt>
      <trkpt lat="42.98377" lon="-0.06806">
        <ele>451.4</ele>
        <time>2024-08-15T09:48:55Z</time>
      </trkpt>
      <trkpt lat="42.98374" lon="-0.06818">
        <ele>450.8</ele>
        <time>2024-08-15T09:48:56Z</time>
      </trkpt>
      <trkpt lat="42.98372" lon="-0.06833">
        <ele>450.6</ele>
        <time>2024-08-15T09:48:57Z</time>
      </trkpt>
      <trkpt lat="42.98371" lon="-0.06842">
        <ele>449.8</ele>
        <time>2024-08-15T09:48:58Z</time>
      </trkpt>
      <trkpt lat="42.98369" lon="-0.06854">
        <ele>449</ele>
        <time>2024-08-15T09:48:59Z</time>
      </trkpt>
      <trkpt lat="42.98366" lon="-0.06867">
        <ele>448.6</ele>
        <time>2024-08-15T09:49:00Z</time>
      </trkpt>
      <trkpt lat="42.98363" lon="-0.06878">
        <ele>448</ele>
        <time>2024-08-15T09:49:01Z</time>
      </trkpt>
      <trkpt lat="42.9836" lon="-0.06888">
        <ele>447.8</ele>
        <time>2024-08-15T09:49:02Z</time>
      </trkpt>
      <trkpt lat="42.98358" lon="-0.06897">
        <ele>447.2</ele>
        <time>2024-08-15T09:49:03Z</time>
      </trkpt>
      <trkpt lat="42.98355" lon="-0.06908">
        <ele>447</ele>
        <time>2024-08-15T09:49:04Z</time>
      </trkpt>
      <trkpt lat="42.98352" lon="-0.06916">
        <ele>446.6</ele>
        <time>2024-08-15T09:49:05Z</time>
      </trkpt>
      <trkpt lat="42.98351" lon="-0.06922">
        <ele>446.4</ele>
        <time>2024-08-15T09:49:06Z</time>
      </trkpt>
      <trkpt lat="42.9835" lon="-0.06928">
        <ele>446</ele>
        <time>2024-08-15T09:49:07Z</time>
      </trkpt>
      <trkpt lat="42.9835" lon="-0.06933">
        <ele>445.6</ele>
        <time>2024-08-15T09:49:08Z</time>
      </trkpt>
      <trkpt lat="42.98352" lon="-0.06938">
        <ele>445.4</ele>
        <time>2024-08-15T09:49:09Z</time>
      </trkpt>
      <trkpt lat="42.98355" lon="-0.06942">
        <ele>444.6</ele>
        <time>2024-08-15T09:49:10Z</time>
      </trkpt>
      <trkpt lat="42.98365" lon="-0.06951">
        <ele>444</ele>
        <time>2024-08-15T09:49:12Z</time>
      </trkpt>
      <trkpt lat="42.9837" lon="-0.06955">
        <ele>443.8</ele>
        <time>2024-08-15T09:49:13Z</time>
      </trkpt>
      <trkpt lat="42.98376" lon="-0.06959">
        <ele>443.8</ele>
        <time>2024-08-15T09:49:14Z</time>
      </trkpt>
      <trkpt lat="42.98381" lon="-0.06963">
        <ele>443.6</ele>
        <time>2024-08-15T09:49:15Z</time>
      </trkpt>
      <trkpt lat="42.98387" lon="-0.06966">
        <ele>443.6</ele>
        <time>2024-08-15T09:49:16Z</time>
      </trkpt>
      <trkpt lat="42.9841" lon="-0.06981">
        <ele>443.4</ele>
        <time>2024-08-15T09:49:20Z</time>
      </trkpt>
      <trkpt lat="42.98428" lon="-0.0699">
        <ele>443.4</ele>
        <time>2024-08-15T09:49:23Z</time>
      </trkpt>
      <trkpt lat="42.98446" lon="-0.07001">
        <ele>443.4</ele>
        <time>2024-08-15T09:49:26Z</time>
      </trkpt>
      <trkpt lat="42.98466" lon="-0.07011">
        <ele>443.6</ele>
        <time>2024-08-15T09:49:29Z</time>
      </trkpt>
      <trkpt lat="42.98484" lon="-0.07021">
        <ele>443.4</ele>
        <time>2024-08-15T09:49:32Z</time>
      </trkpt>
      <trkpt lat="42.98513" lon="-0.07032">
        <ele>443.4</ele>
        <time>2024-08-15T09:49:36Z</time>
      </trkpt>
      <trkpt lat="42.98548" lon="-0.07043">
        <ele>443.2</ele>
        <time>2024-08-15T09:49:41Z</time>
      </trkpt>
      <trkpt lat="42.98583" lon="-0.07053">
        <ele>443.2</ele>
        <time>2024-08-15T09:49:46Z</time>
      </trkpt>
      <trkpt lat="42.98618" lon="-0.0706">
        <ele>443</ele>
        <time>2024-08-15T09:49:51Z</time>
      </trkpt>
      <trkpt lat="42.98653" lon="-0.07058">
        <ele>442.8</ele>
        <time>2024-08-15T09:49:56Z</time>
      </trkpt>
      <trkpt lat="42.9866" lon="-0.07056">
        <ele>442.8</ele>
        <time>2024-08-15T09:49:57Z</time>
      </trkpt>
      <trkpt lat="42.98668" lon="-0.07054">
        <ele>442.8</ele>
        <time>2024-08-15T09:49:58Z</time>
      </trkpt>
      <trkpt lat="42.98674" lon="-0.07052">
        <ele>442.8</ele>
        <time>2024-08-15T09:49:59Z</time>
      </trkpt>
      <trkpt lat="42.98681" lon="-0.07051">
        <ele>442.8</ele>
        <time>2024-08-15T09:50:00Z</time>
      </trkpt>
      <trkpt lat="42.98688" lon="-0.0705">
        <ele>442.8</ele>
        <time>2024-08-15T09:50:01Z</time>
      </trkpt>
      <trkpt lat="42.98695" lon="-0.07049">
        <ele>442.6</ele>
        <time>2024-08-15T09:50:02Z</time>
      </trkpt>
      <trkpt lat="42.98702" lon="-0.07048">
        <ele>442.6</ele>
        <time>2024-08-15T09:50:03Z</time>
      </trkpt>
      <trkpt lat="42.98709" lon="-0.07047">
        <ele>442.6</ele>
        <time>2024-08-15T09:50:04Z</time>
      </trkpt>
      <trkpt lat="42.98716" lon="-0.07046">
        <ele>442.6</ele>
        <time>2024-08-15T09:50:05Z</time>
      </trkpt>
      <trkpt lat="42.9873" lon="-0.07044">
        <ele>442.6</ele>
        <time>2024-08-15T09:50:07Z</time>
      </trkpt>
      <trkpt lat="42.98768" lon="-0.0704">
        <ele>442.6</ele>
        <time>2024-08-15T09:50:13Z</time>
      </trkpt>
      <trkpt lat="42.98775" lon="-0.07039">
        <ele>442.6</ele>
        <time>2024-08-15T09:50:14Z</time>
      </trkpt>
      <trkpt lat="42.98782" lon="-0.07038">
        <ele>442.6</ele>
        <time>2024-08-15T09:50:15Z</time>
      </trkpt>
      <trkpt lat="42.98788" lon="-0.07038">
        <ele>442.4</ele>
        <time>2024-08-15T09:50:16Z</time>
      </trkpt>
      <trkpt lat="42.98794" lon="-0.07038">
        <ele>442.4</ele>
        <time>2024-08-15T09:50:17Z</time>
      </trkpt>
      <trkpt lat="42.98801" lon="-0.07037">
        <ele>442.4</ele>
        <time>2024-08-15T09:50:18Z</time>
      </trkpt>
      <trkpt lat="42.98808" lon="-0.07037">
        <ele>442.4</ele>
        <time>2024-08-15T09:50:19Z</time>
      </trkpt>
      <trkpt lat="42.98814" lon="-0.07036">
        <ele>442.2</ele>
        <time>2024-08-15T09:50:20Z</time>
      </trkpt>
      <trkpt lat="42.9882" lon="-0.07037">
        <ele>442.2</ele>
        <time>2024-08-15T09:50:21Z</time>
      </trkpt>
      <trkpt lat="42.98827" lon="-0.07037">
        <ele>441.8</ele>
        <time>2024-08-15T09:50:22Z</time>
      </trkpt>
      <trkpt lat="42.98839" lon="-0.07038">
        <ele>441.4</ele>
        <time>2024-08-15T09:50:24Z</time>
      </trkpt>
      <trkpt lat="42.98871" lon="-0.07041">
        <ele>441.2</ele>
        <time>2024-08-15T09:50:29Z</time>
      </trkpt>
      <trkpt lat="42.9889" lon="-0.07045">
        <ele>441</ele>
        <time>2024-08-15T09:50:32Z</time>
      </trkpt>
      <trkpt lat="42.98921" lon="-0.07051">
        <ele>440.8</ele>
        <time>2024-08-15T09:50:37Z</time>
      </trkpt>
      <trkpt lat="42.98927" lon="-0.07052">
        <ele>440.8</ele>
        <time>2024-08-15T09:50:38Z</time>
      </trkpt>
      <trkpt lat="42.98933" lon="-0.07054">
        <ele>440.8</ele>
        <time>2024-08-15T09:50:39Z</time>
      </trkpt>
      <trkpt lat="42.98962" lon="-0.07067">
        <ele>440.8</ele>
        <time>2024-08-15T09:50:44Z</time>
      </trkpt>
      <trkpt lat="42.98973" lon="-0.07072">
        <ele>440.8</ele>
        <time>2024-08-15T09:50:46Z</time>
      </trkpt>
      <trkpt lat="42.98978" lon="-0.07075">
        <ele>440.8</ele>
        <time>2024-08-15T09:50:47Z</time>
      </trkpt>
      <trkpt lat="42.98983" lon="-0.07077">
        <ele>440.8</ele>
        <time>2024-08-15T09:50:48Z</time>
      </trkpt>
      <trkpt lat="42.98995" lon="-0.07082">
        <ele>441</ele>
        <time>2024-08-15T09:50:50Z</time>
      </trkpt>
      <trkpt lat="42.99" lon="-0.07085">
        <ele>441</ele>
        <time>2024-08-15T09:50:51Z</time>
      </trkpt>
      <trkpt lat="42.99011" lon="-0.07091">
        <ele>441.2</ele>
        <time>2024-08-15T09:50:53Z</time>
      </trkpt>
      <trkpt lat="42.99021" lon="-0.07097">
        <ele>441.2</ele>
        <time>2024-08-15T09:50:55Z</time>
      </trkpt>
      <trkpt lat="42.99027" lon="-0.071">
        <ele>441.2</ele>
        <time>2024-08-15T09:50:56Z</time>
      </trkpt>
      <trkpt lat="42.99032" lon="-0.07103">
        <ele>441.2</ele>
        <time>2024-08-15T09:50:57Z</time>
      </trkpt>
      <trkpt lat="42.99037" lon="-0.07106">
        <ele>441.6</ele>
        <time>2024-08-15T09:50:58Z</time>
      </trkpt>
      <trkpt lat="42.99042" lon="-0.07109">
        <ele>441.4</ele>
        <time>2024-08-15T09:50:59Z</time>
      </trkpt>
      <trkpt lat="42.99047" lon="-0.07112">
        <ele>441.6</ele>
        <time>2024-08-15T09:51:00Z</time>
      </trkpt>
      <trkpt lat="42.99052" lon="-0.07116">
        <ele>441.8</ele>
        <time>2024-08-15T09:51:01Z</time>
      </trkpt>
      <trkpt lat="42.99057" lon="-0.07119">
        <ele>441.8</ele>
        <time>2024-08-15T09:51:02Z</time>
      </trkpt>
      <trkpt lat="42.99061" lon="-0.07122">
        <ele>442</ele>
        <time>2024-08-15T09:51:03Z</time>
      </trkpt>
      <trkpt lat="42.99066" lon="-0.07125">
        <ele>442</ele>
        <time>2024-08-15T09:51:04Z</time>
      </trkpt>
      <trkpt lat="42.9907" lon="-0.07128">
        <ele>442</ele>
        <time>2024-08-15T09:51:05Z</time>
      </trkpt>
      <trkpt lat="42.99074" lon="-0.07131">
        <ele>442.2</ele>
        <time>2024-08-15T09:51:06Z</time>
      </trkpt>
      <trkpt lat="42.99078" lon="-0.07134">
        <ele>442.2</ele>
        <time>2024-08-15T09:51:07Z</time>
      </trkpt>
      <trkpt lat="42.99082" lon="-0.07136">
        <ele>442.4</ele>
        <time>2024-08-15T09:51:08Z</time>
      </trkpt>
      <trkpt lat="42.99086" lon="-0.07139">
        <ele>442.4</ele>
        <time>2024-08-15T09:51:09Z</time>
      </trkpt>
      <trkpt lat="42.9909" lon="-0.07141">
        <ele>442.6</ele>
        <time>2024-08-15T09:51:10Z</time>
      </trkpt>
      <trkpt lat="42.99095" lon="-0.07143">
        <ele>442.8</ele>
        <time>2024-08-15T09:51:11Z</time>
      </trkpt>
      <trkpt lat="42.99099" lon="-0.07144">
        <ele>442.8</ele>
        <time>2024-08-15T09:51:12Z</time>
      </trkpt>
      <trkpt lat="42.99102" lon="-0.07146">
        <ele>443</ele>
        <time>2024-08-15T09:51:13Z</time>
      </trkpt>
      <trkpt lat="42.99107" lon="-0.07147">
        <ele>443.2</ele>
        <time>2024-08-15T09:51:14Z</time>
      </trkpt>
      <trkpt lat="42.99111" lon="-0.07148">
        <ele>443.4</ele>
        <time>2024-08-15T09:51:15Z</time>
      </trkpt>
      <trkpt lat="42.99119" lon="-0.0715">
        <ele>444</ele>
        <time>2024-08-15T09:51:17Z</time>
      </trkpt>
      <trkpt lat="42.99123" lon="-0.07151">
        <ele>444</ele>
        <time>2024-08-15T09:51:18Z</time>
      </trkpt>
      <trkpt lat="42.99131" lon="-0.07154">
        <ele>444.6</ele>
        <time>2024-08-15T09:51:20Z</time>
      </trkpt>
      <trkpt lat="42.99138" lon="-0.07158">
        <ele>445.2</ele>
        <time>2024-08-15T09:51:22Z</time>
      </trkpt>
      <trkpt lat="42.99142" lon="-0.07159">
        <ele>445.4</ele>
        <time>2024-08-15T09:51:23Z</time>
      </trkpt>
      <trkpt lat="42.99147" lon="-0.07161">
        <ele>445.6</ele>
        <time>2024-08-15T09:51:24Z</time>
      </trkpt>
      <trkpt lat="42.9915" lon="-0.07161">
        <ele>445.6</ele>
        <time>2024-08-15T09:51:25Z</time>
      </trkpt>
      <trkpt lat="42.99155" lon="-0.07162">
        <ele>445.8</ele>
        <time>2024-08-15T09:51:26Z</time>
      </trkpt>
      <trkpt lat="42.99159" lon="-0.07163">
        <ele>446.2</ele>
        <time>2024-08-15T09:51:27Z</time>
      </trkpt>
      <trkpt lat="42.99163" lon="-0.07164">
        <ele>446.4</ele>
        <time>2024-08-15T09:51:28Z</time>
      </trkpt>
      <trkpt lat="42.99167" lon="-0.07165">
        <ele>446.6</ele>
        <time>2024-08-15T09:51:29Z</time>
      </trkpt>
      <trkpt lat="42.99171" lon="-0.07166">
        <ele>446.6</ele>
        <time>2024-08-15T09:51:30Z</time>
      </trkpt>
      <trkpt lat="42.99175" lon="-0.07166">
        <ele>446.8</ele>
        <time>2024-08-15T09:51:31Z</time>
      </trkpt>
      <trkpt lat="42.99178" lon="-0.07167">
        <ele>447</ele>
        <time>2024-08-15T09:51:32Z</time>
      </trkpt>
      <trkpt lat="42.99182" lon="-0.07168">
        <ele>447.4</ele>
        <time>2024-08-15T09:51:33Z</time>
      </trkpt>
      <trkpt lat="42.99185" lon="-0.07168">
        <ele>447.4</ele>
        <time>2024-08-15T09:51:34Z</time>
      </trkpt>
      <trkpt lat="42.99188" lon="-0.07168">
        <ele>447.6</ele>
        <time>2024-08-15T09:51:35Z</time>
      </trkpt>
      <trkpt lat="42.99192" lon="-0.07168">
        <ele>448</ele>
        <time>2024-08-15T09:51:36Z</time>
      </trkpt>
      <trkpt lat="42.99196" lon="-0.07169">
        <ele>448</ele>
        <time>2024-08-15T09:51:37Z</time>
      </trkpt>
      <trkpt lat="42.992" lon="-0.07169">
        <ele>448.4</ele>
        <time>2024-08-15T09:51:38Z</time>
      </trkpt>
      <trkpt lat="42.99204" lon="-0.07169">
        <ele>448.4</ele>
        <time>2024-08-15T09:51:39Z</time>
      </trkpt>
      <trkpt lat="42.99207" lon="-0.07169">
        <ele>448.6</ele>
        <time>2024-08-15T09:51:40Z</time>
      </trkpt>
      <trkpt lat="42.99211" lon="-0.07168">
        <ele>448.6</ele>
        <time>2024-08-15T09:51:41Z</time>
      </trkpt>
      <trkpt lat="42.99214" lon="-0.07168">
        <ele>448.6</ele>
        <time>2024-08-15T09:51:42Z</time>
      </trkpt>
      <trkpt lat="42.99218" lon="-0.07168">
        <ele>448.8</ele>
        <time>2024-08-15T09:51:43Z</time>
      </trkpt>
      <trkpt lat="42.99221" lon="-0.07168">
        <ele>449</ele>
        <time>2024-08-15T09:51:44Z</time>
      </trkpt>
      <trkpt lat="42.99225" lon="-0.07168">
        <ele>449.4</ele>
        <time>2024-08-15T09:51:45Z</time>
      </trkpt>
      <trkpt lat="42.99228" lon="-0.07168">
        <ele>449.6</ele>
        <time>2024-08-15T09:51:46Z</time>
      </trkpt>
      <trkpt lat="42.99232" lon="-0.07167">
        <ele>449.6</ele>
        <time>2024-08-15T09:51:47Z</time>
      </trkpt>
      <trkpt lat="42.99235" lon="-0.07167">
        <ele>449.8</ele>
        <time>2024-08-15T09:51:48Z</time>
      </trkpt>
      <trkpt lat="42.99239" lon="-0.07167">
        <ele>450</ele>
        <time>2024-08-15T09:51:49Z</time>
      </trkpt>
      <trkpt lat="42.99242" lon="-0.07167">
        <ele>450</ele>
        <time>2024-08-15T09:51:50Z</time>
      </trkpt>
      <trkpt lat="42.99246" lon="-0.07166">
        <ele>450.4</ele>
        <time>2024-08-15T09:51:51Z</time>
      </trkpt>
      <trkpt lat="42.9925" lon="-0.07166">
        <ele>450.6</ele>
        <time>2024-08-15T09:51:52Z</time>
      </trkpt>
      <trkpt lat="42.99254" lon="-0.07166">
        <ele>450.6</ele>
        <time>2024-08-15T09:51:53Z</time>
      </trkpt>
      <trkpt lat="42.99257" lon="-0.07165">
        <ele>450.8</ele>
        <time>2024-08-15T09:51:54Z</time>
      </trkpt>
      <trkpt lat="42.99261" lon="-0.07165">
        <ele>451</ele>
        <time>2024-08-15T09:51:55Z</time>
      </trkpt>
      <trkpt lat="42.99264" lon="-0.07166">
        <ele>451.4</ele>
        <time>2024-08-15T09:51:56Z</time>
      </trkpt>
      <trkpt lat="42.99267" lon="-0.07166">
        <ele>451.6</ele>
        <time>2024-08-15T09:51:57Z</time>
      </trkpt>
      <trkpt lat="42.9927" lon="-0.07165">
        <ele>451.8</ele>
        <time>2024-08-15T09:51:58Z</time>
      </trkpt>
      <trkpt lat="42.99273" lon="-0.07164">
        <ele>451.8</ele>
        <time>2024-08-15T09:51:59Z</time>
      </trkpt>
      <trkpt lat="42.99276" lon="-0.07162">
        <ele>452</ele>
        <time>2024-08-15T09:52:00Z</time>
      </trkpt>
      <trkpt lat="42.99279" lon="-0.07161">
        <ele>452.4</ele>
        <time>2024-08-15T09:52:01Z</time>
      </trkpt>
      <trkpt lat="42.99281" lon="-0.07159">
        <ele>452.4</ele>
        <time>2024-08-15T09:52:02Z</time>
      </trkpt>
      <trkpt lat="42.99284" lon="-0.07156">
        <ele>452.8</ele>
        <time>2024-08-15T09:52:03Z</time>
      </trkpt>
      <trkpt lat="42.99286" lon="-0.07153">
        <ele>452.8</ele>
        <time>2024-08-15T09:52:04Z</time>
      </trkpt>
      <trkpt lat="42.99288" lon="-0.0715">
        <ele>453.4</ele>
        <time>2024-08-15T09:52:05Z</time>
      </trkpt>
      <trkpt lat="42.9929" lon="-0.07146">
        <ele>453.6</ele>
        <time>2024-08-15T09:52:06Z</time>
      </trkpt>
      <trkpt lat="42.99292" lon="-0.07143">
        <ele>453.8</ele>
        <time>2024-08-15T09:52:07Z</time>
      </trkpt>
      <trkpt lat="42.99294" lon="-0.0714">
        <ele>454.2</ele>
        <time>2024-08-15T09:52:08Z</time>
      </trkpt>
      <trkpt lat="42.99296" lon="-0.07137">
        <ele>454.2</ele>
        <time>2024-08-15T09:52:09Z</time>
      </trkpt>
      <trkpt lat="42.99298" lon="-0.07134">
        <ele>454.4</ele>
        <time>2024-08-15T09:52:10Z</time>
      </trkpt>
      <trkpt lat="42.993" lon="-0.07131">
        <ele>454.6</ele>
        <time>2024-08-15T09:52:11Z</time>
      </trkpt>
      <trkpt lat="42.99302" lon="-0.07128">
        <ele>454.8</ele>
        <time>2024-08-15T09:52:12Z</time>
      </trkpt>
      <trkpt lat="42.99304" lon="-0.07125">
        <ele>454.8</ele>
        <time>2024-08-15T09:52:13Z</time>
      </trkpt>
      <trkpt lat="42.99306" lon="-0.07121">
        <ele>455</ele>
        <time>2024-08-15T09:52:14Z</time>
      </trkpt>
      <trkpt lat="42.99308" lon="-0.07118">
        <ele>455.2</ele>
        <time>2024-08-15T09:52:15Z</time>
      </trkpt>
      <trkpt lat="42.9931" lon="-0.07114">
        <ele>455.6</ele>
        <time>2024-08-15T09:52:16Z</time>
      </trkpt>
      <trkpt lat="42.99311" lon="-0.07111">
        <ele>455.6</ele>
        <time>2024-08-15T09:52:17Z</time>
      </trkpt>
      <trkpt lat="42.99313" lon="-0.07108">
        <ele>455.8</ele>
        <time>2024-08-15T09:52:18Z</time>
      </trkpt>
      <trkpt lat="42.99315" lon="-0.07105">
        <ele>456</ele>
        <time>2024-08-15T09:52:19Z</time>
      </trkpt>
      <trkpt lat="42.99316" lon="-0.07102">
        <ele>456.2</ele>
        <time>2024-08-15T09:52:20Z</time>
      </trkpt>
      <trkpt lat="42.99318" lon="-0.071">
        <ele>456.4</ele>
        <time>2024-08-15T09:52:21Z</time>
      </trkpt>
      <trkpt lat="42.9932" lon="-0.07097">
        <ele>456.6</ele>
        <time>2024-08-15T09:52:22Z</time>
      </trkpt>
      <trkpt lat="42.99322" lon="-0.07094">
        <ele>456.8</ele>
        <time>2024-08-15T09:52:23Z</time>
      </trkpt>
      <trkpt lat="42.99323" lon="-0.07091">
        <ele>457</ele>
        <time>2024-08-15T09:52:24Z</time>
      </trkpt>
      <trkpt lat="42.99324" lon="-0.07088">
        <ele>457.2</ele>
        <time>2024-08-15T09:52:25Z</time>
      </trkpt>
      <trkpt lat="42.99326" lon="-0.07084">
        <ele>457.4</ele>
        <time>2024-08-15T09:52:26Z</time>
      </trkpt>
      <trkpt lat="42.99327" lon="-0.0708">
        <ele>457.6</ele>
        <time>2024-08-15T09:52:27Z</time>
      </trkpt>
      <trkpt lat="42.99328" lon="-0.07076">
        <ele>457.8</ele>
        <time>2024-08-15T09:52:28Z</time>
      </trkpt>
      <trkpt lat="42.99329" lon="-0.07072">
        <ele>458</ele>
        <time>2024-08-15T09:52:29Z</time>
      </trkpt>
      <trkpt lat="42.9933" lon="-0.07068">
        <ele>458.2</ele>
        <time>2024-08-15T09:52:30Z</time>
      </trkpt>
      <trkpt lat="42.9933" lon="-0.07065">
        <ele>458.4</ele>
        <time>2024-08-15T09:52:31Z</time>
      </trkpt>
      <trkpt lat="42.99331" lon="-0.07061">
        <ele>458.6</ele>
        <time>2024-08-15T09:52:32Z</time>
      </trkpt>
      <trkpt lat="42.99331" lon="-0.07057">
        <ele>459</ele>
        <time>2024-08-15T09:52:33Z</time>
      </trkpt>
      <trkpt lat="42.99332" lon="-0.07054">
        <ele>459</ele>
        <time>2024-08-15T09:52:34Z</time>
      </trkpt>
      <trkpt lat="42.99332" lon="-0.0705">
        <ele>459.4</ele>
        <time>2024-08-15T09:52:35Z</time>
      </trkpt>
      <trkpt lat="42.99332" lon="-0.07046">
        <ele>459.4</ele>
        <time>2024-08-15T09:52:36Z</time>
      </trkpt>
      <trkpt lat="42.99333" lon="-0.07042">
        <ele>459.8</ele>
        <time>2024-08-15T09:52:37Z</time>
      </trkpt>
      <trkpt lat="42.99333" lon="-0.07038">
        <ele>459.8</ele>
        <time>2024-08-15T09:52:38Z</time>
      </trkpt>
      <trkpt lat="42.99334" lon="-0.07035">
        <ele>460</ele>
        <time>2024-08-15T09:52:39Z</time>
      </trkpt>
      <trkpt lat="42.99334" lon="-0.07031">
        <ele>460</ele>
        <time>2024-08-15T09:52:40Z</time>
      </trkpt>
      <trkpt lat="42.99335" lon="-0.07028">
        <ele>460.4</ele>
        <time>2024-08-15T09:52:41Z</time>
      </trkpt>
      <trkpt lat="42.99336" lon="-0.07024">
        <ele>460.6</ele>
        <time>2024-08-15T09:52:42Z</time>
      </trkpt>
      <trkpt lat="42.99337" lon="-0.0702">
        <ele>460.8</ele>
        <time>2024-08-15T09:52:43Z</time>
      </trkpt>
      <trkpt lat="42.99338" lon="-0.07016">
        <ele>461</ele>
        <time>2024-08-15T09:52:44Z</time>
      </trkpt>
      <trkpt lat="42.99338" lon="-0.07013">
        <ele>461.2</ele>
        <time>2024-08-15T09:52:45Z</time>
      </trkpt>
      <trkpt lat="42.99339" lon="-0.07009">
        <ele>461.4</ele>
        <time>2024-08-15T09:52:46Z</time>
      </trkpt>
      <trkpt lat="42.9934" lon="-0.07006">
        <ele>461.6</ele>
        <time>2024-08-15T09:52:47Z</time>
      </trkpt>
      <trkpt lat="42.99341" lon="-0.07002">
        <ele>461.8</ele>
        <time>2024-08-15T09:52:48Z</time>
      </trkpt>
      <trkpt lat="42.99342" lon="-0.07">
        <ele>462</ele>
        <time>2024-08-15T09:52:49Z</time>
      </trkpt>
      <trkpt lat="42.99343" lon="-0.06997">
        <ele>462.2</ele>
        <time>2024-08-15T09:52:50Z</time>
      </trkpt>
      <trkpt lat="42.99345" lon="-0.06994">
        <ele>462.6</ele>
        <time>2024-08-15T09:52:51Z</time>
      </trkpt>
      <trkpt lat="42.99346" lon="-0.06992">
        <ele>462.8</ele>
        <time>2024-08-15T09:52:52Z</time>
      </trkpt>
      <trkpt lat="42.99348" lon="-0.06989">
        <ele>463.2</ele>
        <time>2024-08-15T09:52:53Z</time>
      </trkpt>
      <trkpt lat="42.9935" lon="-0.06986">
        <ele>463.4</ele>
        <time>2024-08-15T09:52:54Z</time>
      </trkpt>
      <trkpt lat="42.99352" lon="-0.06983">
        <ele>463.8</ele>
        <time>2024-08-15T09:52:55Z</time>
      </trkpt>
      <trkpt lat="42.99354" lon="-0.0698">
        <ele>463.8</ele>
        <time>2024-08-15T09:52:56Z</time>
      </trkpt>
      <trkpt lat="42.99356" lon="-0.06976">
        <ele>464</ele>
        <time>2024-08-15T09:52:57Z</time>
      </trkpt>
      <trkpt lat="42.99358" lon="-0.06973">
        <ele>464.4</ele>
        <time>2024-08-15T09:52:58Z</time>
      </trkpt>
      <trkpt lat="42.99361" lon="-0.0697">
        <ele>464.6</ele>
        <time>2024-08-15T09:52:59Z</time>
      </trkpt>
      <trkpt lat="42.99363" lon="-0.06968">
        <ele>464.8</ele>
        <time>2024-08-15T09:53:00Z</time>
      </trkpt>
      <trkpt lat="42.99366" lon="-0.06966">
        <ele>465</ele>
        <time>2024-08-15T09:53:01Z</time>
      </trkpt>
      <trkpt lat="42.99368" lon="-0.06964">
        <ele>465.2</ele>
        <time>2024-08-15T09:53:02Z</time>
      </trkpt>
      <trkpt lat="42.9937" lon="-0.06962">
        <ele>465.4</ele>
        <time>2024-08-15T09:53:03Z</time>
      </trkpt>
      <trkpt lat="42.99373" lon="-0.06959">
        <ele>465.8</ele>
        <time>2024-08-15T09:53:04Z</time>
      </trkpt>
      <trkpt lat="42.99375" lon="-0.06957">
        <ele>466</ele>
        <time>2024-08-15T09:53:05Z</time>
      </trkpt>
      <trkpt lat="42.99378" lon="-0.06955">
        <ele>466.2</ele>
        <time>2024-08-15T09:53:06Z</time>
      </trkpt>
      <trkpt lat="42.9938" lon="-0.06954">
        <ele>466.6</ele>
        <time>2024-08-15T09:53:07Z</time>
      </trkpt>
      <trkpt lat="42.99382" lon="-0.06952">
        <ele>466.8</ele>
        <time>2024-08-15T09:53:08Z</time>
      </trkpt>
      <trkpt lat="42.99385" lon="-0.0695">
        <ele>467</ele>
        <time>2024-08-15T09:53:09Z</time>
      </trkpt>
      <trkpt lat="42.99388" lon="-0.06948">
        <ele>467.2</ele>
        <time>2024-08-15T09:53:10Z</time>
      </trkpt>
      <trkpt lat="42.9939" lon="-0.06947">
        <ele>467.6</ele>
        <time>2024-08-15T09:53:11Z</time>
      </trkpt>
      <trkpt lat="42.99393" lon="-0.06945">
        <ele>467.8</ele>
        <time>2024-08-15T09:53:12Z</time>
      </trkpt>
      <trkpt lat="42.99396" lon="-0.06945">
        <ele>468</ele>
        <time>2024-08-15T09:53:13Z</time>
      </trkpt>
      <trkpt lat="42.99399" lon="-0.06944">
        <ele>468.2</ele>
        <time>2024-08-15T09:53:14Z</time>
      </trkpt>
      <trkpt lat="42.99402" lon="-0.06942">
        <ele>468.2</ele>
        <time>2024-08-15T09:53:15Z</time>
      </trkpt>
      <trkpt lat="42.99405" lon="-0.06941">
        <ele>468.6</ele>
        <time>2024-08-15T09:53:16Z</time>
      </trkpt>
      <trkpt lat="42.99408" lon="-0.0694">
        <ele>468.6</ele>
        <time>2024-08-15T09:53:17Z</time>
      </trkpt>
      <trkpt lat="42.9941" lon="-0.06939">
        <ele>468.8</ele>
        <time>2024-08-15T09:53:18Z</time>
      </trkpt>
      <trkpt lat="42.99413" lon="-0.06939">
        <ele>469</ele>
        <time>2024-08-15T09:53:19Z</time>
      </trkpt>
      <trkpt lat="42.99416" lon="-0.06938">
        <ele>469.2</ele>
        <time>2024-08-15T09:53:20Z</time>
      </trkpt>
      <trkpt lat="42.99419" lon="-0.06937">
        <ele>469.4</ele>
        <time>2024-08-15T09:53:21Z</time>
      </trkpt>
      <trkpt lat="42.99422" lon="-0.06936">
        <ele>469.6</ele>
        <time>2024-08-15T09:53:22Z</time>
      </trkpt>
      <trkpt lat="42.99425" lon="-0.06935">
        <ele>469.8</ele>
        <time>2024-08-15T09:53:23Z</time>
      </trkpt>
      <trkpt lat="42.99428" lon="-0.06935">
        <ele>469.8</ele>
        <time>2024-08-15T09:53:24Z</time>
      </trkpt>
      <trkpt lat="42.9943" lon="-0.06934">
        <ele>470</ele>
        <time>2024-08-15T09:53:25Z</time>
      </trkpt>
      <trkpt lat="42.99433" lon="-0.06934">
        <ele>470.2</ele>
        <time>2024-08-15T09:53:26Z</time>
      </trkpt>
      <trkpt lat="42.99437" lon="-0.06933">
        <ele>470.4</ele>
        <time>2024-08-15T09:53:27Z</time>
      </trkpt>
      <trkpt lat="42.9944" lon="-0.06932">
        <ele>470.6</ele>
        <time>2024-08-15T09:53:28Z</time>
      </trkpt>
      <trkpt lat="42.99443" lon="-0.06932">
        <ele>470.8</ele>
        <time>2024-08-15T09:53:29Z</time>
      </trkpt>
      <trkpt lat="42.99446" lon="-0.06931">
        <ele>470.8</ele>
        <time>2024-08-15T09:53:30Z</time>
      </trkpt>
      <trkpt lat="42.99449" lon="-0.06931">
        <ele>471</ele>
        <time>2024-08-15T09:53:31Z</time>
      </trkpt>
      <trkpt lat="42.99452" lon="-0.06931">
        <ele>471.2</ele>
        <time>2024-08-15T09:53:32Z</time>
      </trkpt>
      <trkpt lat="42.99455" lon="-0.06931">
        <ele>471</ele>
        <time>2024-08-15T09:53:33Z</time>
      </trkpt>
      <trkpt lat="42.99458" lon="-0.0693">
        <ele>471.4</ele>
        <time>2024-08-15T09:53:34Z</time>
      </trkpt>
      <trkpt lat="42.99462" lon="-0.06929">
        <ele>471.4</ele>
        <time>2024-08-15T09:53:35Z</time>
      </trkpt>
      <trkpt lat="42.99465" lon="-0.06928">
        <ele>471.6</ele>
        <time>2024-08-15T09:53:36Z</time>
      </trkpt>
      <trkpt lat="42.99469" lon="-0.06928">
        <ele>471.8</ele>
        <time>2024-08-15T09:53:37Z</time>
      </trkpt>
      <trkpt lat="42.99473" lon="-0.06927">
        <ele>471.8</ele>
        <time>2024-08-15T09:53:38Z</time>
      </trkpt>
      <trkpt lat="42.99476" lon="-0.06926">
        <ele>472</ele>
        <time>2024-08-15T09:53:39Z</time>
      </trkpt>
      <trkpt lat="42.9948" lon="-0.06925">
        <ele>472</ele>
        <time>2024-08-15T09:53:40Z</time>
      </trkpt>
      <trkpt lat="42.99483" lon="-0.06925">
        <ele>472.2</ele>
        <time>2024-08-15T09:53:41Z</time>
      </trkpt>
      <trkpt lat="42.99487" lon="-0.06923">
        <ele>472.4</ele>
        <time>2024-08-15T09:53:42Z</time>
      </trkpt>
      <trkpt lat="42.99491" lon="-0.06922">
        <ele>472.6</ele>
        <time>2024-08-15T09:53:43Z</time>
      </trkpt>
      <trkpt lat="42.99494" lon="-0.06921">
        <ele>472.6</ele>
        <time>2024-08-15T09:53:44Z</time>
      </trkpt>
      <trkpt lat="42.99498" lon="-0.0692">
        <ele>472.6</ele>
        <time>2024-08-15T09:53:45Z</time>
      </trkpt>
      <trkpt lat="42.99501" lon="-0.0692">
        <ele>472.8</ele>
        <time>2024-08-15T09:53:46Z</time>
      </trkpt>
      <trkpt lat="42.99505" lon="-0.06919">
        <ele>472.8</ele>
        <time>2024-08-15T09:53:47Z</time>
      </trkpt>
      <trkpt lat="42.99508" lon="-0.06917">
        <ele>473</ele>
        <time>2024-08-15T09:53:48Z</time>
      </trkpt>
      <trkpt lat="42.99512" lon="-0.06915">
        <ele>473</ele>
        <time>2024-08-15T09:53:49Z</time>
      </trkpt>
      <trkpt lat="42.99515" lon="-0.06914">
        <ele>473.2</ele>
        <time>2024-08-15T09:53:50Z</time>
      </trkpt>
      <trkpt lat="42.99517" lon="-0.06911">
        <ele>473.4</ele>
        <time>2024-08-15T09:53:51Z</time>
      </trkpt>
      <trkpt lat="42.9952" lon="-0.06909">
        <ele>473.6</ele>
        <time>2024-08-15T09:53:52Z</time>
      </trkpt>
      <trkpt lat="42.99523" lon="-0.06907">
        <ele>473.8</ele>
        <time>2024-08-15T09:53:53Z</time>
      </trkpt>
      <trkpt lat="42.99525" lon="-0.06904">
        <ele>474</ele>
        <time>2024-08-15T09:53:54Z</time>
      </trkpt>
      <trkpt lat="42.99528" lon="-0.06902">
        <ele>474.2</ele>
        <time>2024-08-15T09:53:55Z</time>
      </trkpt>
      <trkpt lat="42.9953" lon="-0.069">
        <ele>474.2</ele>
        <time>2024-08-15T09:53:56Z</time>
      </trkpt>
      <trkpt lat="42.99533" lon="-0.06897">
        <ele>474.6</ele>
        <time>2024-08-15T09:53:57Z</time>
      </trkpt>
      <trkpt lat="42.99536" lon="-0.06895">
        <ele>474.6</ele>
        <time>2024-08-15T09:53:58Z</time>
      </trkpt>
      <trkpt lat="42.99538" lon="-0.06893">
        <ele>475</ele>
        <time>2024-08-15T09:53:59Z</time>
      </trkpt>
      <trkpt lat="42.99541" lon="-0.0689">
        <ele>475</ele>
        <time>2024-08-15T09:54:00Z</time>
      </trkpt>
      <trkpt lat="42.99544" lon="-0.06888">
        <ele>475.2</ele>
        <time>2024-08-15T09:54:01Z</time>
      </trkpt>
      <trkpt lat="42.99548" lon="-0.06885">
        <ele>475.2</ele>
        <time>2024-08-15T09:54:02Z</time>
      </trkpt>
      <trkpt lat="42.99552" lon="-0.06882">
        <ele>475.4</ele>
        <time>2024-08-15T09:54:03Z</time>
      </trkpt>
      <trkpt lat="42.99556" lon="-0.06879">
        <ele>475.4</ele>
        <time>2024-08-15T09:54:04Z</time>
      </trkpt>
      <trkpt lat="42.9956" lon="-0.06876">
        <ele>475.4</ele>
        <time>2024-08-15T09:54:05Z</time>
      </trkpt>
      <trkpt lat="42.99564" lon="-0.06873">
        <ele>475.4</ele>
        <time>2024-08-15T09:54:06Z</time>
      </trkpt>
      <trkpt lat="42.99568" lon="-0.0687">
        <ele>475.4</ele>
        <time>2024-08-15T09:54:07Z</time>
      </trkpt>
      <trkpt lat="42.99572" lon="-0.06867">
        <ele>475.2</ele>
        <time>2024-08-15T09:54:08Z</time>
      </trkpt>
      <trkpt lat="42.99576" lon="-0.06864">
        <ele>475.2</ele>
        <time>2024-08-15T09:54:09Z</time>
      </trkpt>
      <trkpt lat="42.9958" lon="-0.06861">
        <ele>475.2</ele>
        <time>2024-08-15T09:54:10Z</time>
      </trkpt>
      <trkpt lat="42.99585" lon="-0.06858">
        <ele>475.4</ele>
        <time>2024-08-15T09:54:11Z</time>
      </trkpt>
      <trkpt lat="42.99589" lon="-0.06856">
        <ele>475.2</ele>
        <time>2024-08-15T09:54:12Z</time>
      </trkpt>
      <trkpt lat="42.99594" lon="-0.06854">
        <ele>475</ele>
        <time>2024-08-15T09:54:13Z</time>
      </trkpt>
      <trkpt lat="42.99598" lon="-0.06854">
        <ele>475</ele>
        <time>2024-08-15T09:54:14Z</time>
      </trkpt>
      <trkpt lat="42.99603" lon="-0.06853">
        <ele>475</ele>
        <time>2024-08-15T09:54:15Z</time>
      </trkpt>
      <trkpt lat="42.99614" lon="-0.06855">
        <ele>474.6</ele>
        <time>2024-08-15T09:54:17Z</time>
      </trkpt>
      <trkpt lat="42.99619" lon="-0.06858">
        <ele>474.6</ele>
        <time>2024-08-15T09:54:18Z</time>
      </trkpt>
      <trkpt lat="42.99625" lon="-0.06861">
        <ele>474.4</ele>
        <time>2024-08-15T09:54:19Z</time>
      </trkpt>
      <trkpt lat="42.99644" lon="-0.06876">
        <ele>473.6</ele>
        <time>2024-08-15T09:54:22Z</time>
      </trkpt>
      <trkpt lat="42.99673" lon="-0.06908">
        <ele>472.4</ele>
        <time>2024-08-15T09:54:26Z</time>
      </trkpt>
      <trkpt lat="42.99679" lon="-0.06916">
        <ele>472</ele>
        <time>2024-08-15T09:54:27Z</time>
      </trkpt>
      <trkpt lat="42.99693" lon="-0.06932">
        <ele>470.8</ele>
        <time>2024-08-15T09:54:29Z</time>
      </trkpt>
      <trkpt lat="42.99716" lon="-0.06957">
        <ele>469.2</ele>
        <time>2024-08-15T09:54:32Z</time>
      </trkpt>
      <trkpt lat="42.99724" lon="-0.06964">
        <ele>468.4</ele>
        <time>2024-08-15T09:54:33Z</time>
      </trkpt>
      <trkpt lat="42.99732" lon="-0.06971">
        <ele>468</ele>
        <time>2024-08-15T09:54:34Z</time>
      </trkpt>
      <trkpt lat="42.99741" lon="-0.06976">
        <ele>467.6</ele>
        <time>2024-08-15T09:54:35Z</time>
      </trkpt>
      <trkpt lat="42.99749" lon="-0.0698">
        <ele>467</ele>
        <time>2024-08-15T09:54:36Z</time>
      </trkpt>
      <trkpt lat="42.99758" lon="-0.06984">
        <ele>466.4</ele>
        <time>2024-08-15T09:54:37Z</time>
      </trkpt>
      <trkpt lat="42.99766" lon="-0.06988">
        <ele>465.8</ele>
        <time>2024-08-15T09:54:38Z</time>
      </trkpt>
      <trkpt lat="42.99774" lon="-0.06991">
        <ele>465.4</ele>
        <time>2024-08-15T09:54:39Z</time>
      </trkpt>
      <trkpt lat="42.99782" lon="-0.06993">
        <ele>465</ele>
        <time>2024-08-15T09:54:40Z</time>
      </trkpt>
      <trkpt lat="42.9979" lon="-0.06995">
        <ele>464.8</ele>
        <time>2024-08-15T09:54:41Z</time>
      </trkpt>
      <trkpt lat="42.99798" lon="-0.06997">
        <ele>464.2</ele>
        <time>2024-08-15T09:54:42Z</time>
      </trkpt>
      <trkpt lat="42.99805" lon="-0.06998">
        <ele>464</ele>
        <time>2024-08-15T09:54:43Z</time>
      </trkpt>
      <trkpt lat="42.99811" lon="-0.07">
        <ele>463.8</ele>
        <time>2024-08-15T09:54:44Z</time>
      </trkpt>
      <trkpt lat="42.99818" lon="-0.07">
        <ele>463.8</ele>
        <time>2024-08-15T09:54:45Z</time>
      </trkpt>
      <trkpt lat="42.99824" lon="-0.07001">
        <ele>463.8</ele>
        <time>2024-08-15T09:54:46Z</time>
      </trkpt>
      <trkpt lat="42.9983" lon="-0.07002">
        <ele>463.8</ele>
        <time>2024-08-15T09:54:47Z</time>
      </trkpt>
      <trkpt lat="42.99835" lon="-0.07002">
        <ele>463.8</ele>
        <time>2024-08-15T09:54:48Z</time>
      </trkpt>
      <trkpt lat="42.99853" lon="-0.07003">
        <ele>463.6</ele>
        <time>2024-08-15T09:54:51Z</time>
      </trkpt>
      <trkpt lat="42.99866" lon="-0.07004">
        <ele>463.6</ele>
        <time>2024-08-15T09:54:53Z</time>
      </trkpt>
      <trkpt lat="42.99879" lon="-0.07006">
        <ele>463.6</ele>
        <time>2024-08-15T09:54:55Z</time>
      </trkpt>
      <trkpt lat="42.99886" lon="-0.07007">
        <ele>463.4</ele>
        <time>2024-08-15T09:54:56Z</time>
      </trkpt>
      <trkpt lat="42.999" lon="-0.07009">
        <ele>463</ele>
        <time>2024-08-15T09:54:58Z</time>
      </trkpt>
      <trkpt lat="42.99907" lon="-0.0701">
        <ele>462.8</ele>
        <time>2024-08-15T09:54:59Z</time>
      </trkpt>
      <trkpt lat="42.99913" lon="-0.07011">
        <ele>462.4</ele>
        <time>2024-08-15T09:55:00Z</time>
      </trkpt>
      <trkpt lat="42.9992" lon="-0.07012">
        <ele>462.2</ele>
        <time>2024-08-15T09:55:02Z</time>
      </trkpt>
      <trkpt lat="42.99925" lon="-0.07012">
        <ele>462.2</ele>
        <time>2024-08-15T09:55:03Z</time>
      </trkpt>
      <trkpt lat="42.99931" lon="-0.07013">
        <ele>462</ele>
        <time>2024-08-15T09:55:04Z</time>
      </trkpt>
      <trkpt lat="42.99935" lon="-0.07013">
        <ele>462</ele>
        <time>2024-08-15T09:55:05Z</time>
      </trkpt>
      <trkpt lat="42.9994" lon="-0.07014">
        <ele>462</ele>
        <time>2024-08-15T09:55:06Z</time>
      </trkpt>
      <trkpt lat="42.99944" lon="-0.07015">
        <ele>462</ele>
        <time>2024-08-15T09:55:07Z</time>
      </trkpt>
      <trkpt lat="42.99948" lon="-0.07015">
        <ele>462</ele>
        <time>2024-08-15T09:55:08Z</time>
      </trkpt>
      <trkpt lat="42.99953" lon="-0.07015">
        <ele>462</ele>
        <time>2024-08-15T09:55:09Z</time>
      </trkpt>
      <trkpt lat="42.99957" lon="-0.07014">
        <ele>462.2</ele>
        <time>2024-08-15T09:55:10Z</time>
      </trkpt>
      <trkpt lat="42.99978" lon="-0.07009">
        <ele>463.4</ele>
        <time>2024-08-15T09:55:15Z</time>
      </trkpt>
      <trkpt lat="42.99983" lon="-0.07008">
        <ele>463.4</ele>
        <time>2024-08-15T09:55:16Z</time>
      </trkpt>
      <trkpt lat="43.0002" lon="-0.06991">
        <ele>464</ele>
        <time>2024-08-15T09:55:24Z</time>
      </trkpt>
      <trkpt lat="43.00064" lon="-0.06972">
        <ele>463</ele>
        <time>2024-08-15T09:55:32Z</time>
      </trkpt>
      <trkpt lat="43.0008" lon="-0.06965">
        <ele>462.4</ele>
        <time>2024-08-15T09:55:34Z</time>
      </trkpt>
      <trkpt lat="43.00106" lon="-0.06957">
        <ele>461.4</ele>
        <time>2024-08-15T09:55:37Z</time>
      </trkpt>
      <trkpt lat="43.00115" lon="-0.06955">
        <ele>460.6</ele>
        <time>2024-08-15T09:55:38Z</time>
      </trkpt>
      <trkpt lat="43.00123" lon="-0.06952">
        <ele>460</ele>
        <time>2024-08-15T09:55:39Z</time>
      </trkpt>
      <trkpt lat="43.0013" lon="-0.06949">
        <ele>459</ele>
        <time>2024-08-15T09:55:40Z</time>
      </trkpt>
      <trkpt lat="43.00137" lon="-0.06947">
        <ele>458.8</ele>
        <time>2024-08-15T09:55:41Z</time>
      </trkpt>
      <trkpt lat="43.00142" lon="-0.06944">
        <ele>458.4</ele>
        <time>2024-08-15T09:55:42Z</time>
      </trkpt>
      <trkpt lat="43.00147" lon="-0.06942">
        <ele>458.4</ele>
        <time>2024-08-15T09:55:43Z</time>
      </trkpt>
      <trkpt lat="43.00152" lon="-0.06941">
        <ele>458.4</ele>
        <time>2024-08-15T09:55:44Z</time>
      </trkpt>
      <trkpt lat="43.00157" lon="-0.06939">
        <ele>458.2</ele>
        <time>2024-08-15T09:55:45Z</time>
      </trkpt>
      <trkpt lat="43.00161" lon="-0.06938">
        <ele>458.2</ele>
        <time>2024-08-15T09:55:46Z</time>
      </trkpt>
      <trkpt lat="43.00165" lon="-0.06936">
        <ele>458.4</ele>
        <time>2024-08-15T09:55:47Z</time>
      </trkpt>
      <trkpt lat="43.00169" lon="-0.06934">
        <ele>458.6</ele>
        <time>2024-08-15T09:55:48Z</time>
      </trkpt>
      <trkpt lat="43.00173" lon="-0.06933">
        <ele>458.8</ele>
        <time>2024-08-15T09:55:49Z</time>
      </trkpt>
      <trkpt lat="43.00181" lon="-0.0693">
        <ele>459.2</ele>
        <time>2024-08-15T09:55:51Z</time>
      </trkpt>
      <trkpt lat="43.00185" lon="-0.06928">
        <ele>459.2</ele>
        <time>2024-08-15T09:55:52Z</time>
      </trkpt>
      <trkpt lat="43.00193" lon="-0.06925">
        <ele>459.8</ele>
        <time>2024-08-15T09:55:54Z</time>
      </trkpt>
      <trkpt lat="43.00201" lon="-0.06922">
        <ele>460</ele>
        <time>2024-08-15T09:55:56Z</time>
      </trkpt>
      <trkpt lat="43.00205" lon="-0.06921">
        <ele>460.6</ele>
        <time>2024-08-15T09:55:57Z</time>
      </trkpt>
      <trkpt lat="43.00209" lon="-0.06919">
        <ele>461</ele>
        <time>2024-08-15T09:55:58Z</time>
      </trkpt>
      <trkpt lat="43.00212" lon="-0.06918">
        <ele>461</ele>
        <time>2024-08-15T09:55:59Z</time>
      </trkpt>
      <trkpt lat="43.00216" lon="-0.06917">
        <ele>461.2</ele>
        <time>2024-08-15T09:56:00Z</time>
      </trkpt>
      <trkpt lat="43.00219" lon="-0.06916">
        <ele>461.4</ele>
        <time>2024-08-15T09:56:01Z</time>
      </trkpt>
      <trkpt lat="43.00223" lon="-0.06915">
        <ele>461.6</ele>
        <time>2024-08-15T09:56:02Z</time>
      </trkpt>
      <trkpt lat="43.00227" lon="-0.06914">
        <ele>461.8</ele>
        <time>2024-08-15T09:56:03Z</time>
      </trkpt>
      <trkpt lat="43.00234" lon="-0.06911">
        <ele>462</ele>
        <time>2024-08-15T09:56:05Z</time>
      </trkpt>
      <trkpt lat="43.00237" lon="-0.06911">
        <ele>462.2</ele>
        <time>2024-08-15T09:56:06Z</time>
      </trkpt>
      <trkpt lat="43.0024" lon="-0.0691">
        <ele>462.4</ele>
        <time>2024-08-15T09:56:07Z</time>
      </trkpt>
      <trkpt lat="43.00243" lon="-0.06909">
        <ele>462.6</ele>
        <time>2024-08-15T09:56:08Z</time>
      </trkpt>
      <trkpt lat="43.00247" lon="-0.06907">
        <ele>462.8</ele>
        <time>2024-08-15T09:56:09Z</time>
      </trkpt>
      <trkpt lat="43.0025" lon="-0.06905">
        <ele>463.2</ele>
        <time>2024-08-15T09:56:10Z</time>
      </trkpt>
      <trkpt lat="43.00252" lon="-0.06902">
        <ele>463.2</ele>
        <time>2024-08-15T09:56:11Z</time>
      </trkpt>
      <trkpt lat="43.00254" lon="-0.06898">
        <ele>463.6</ele>
        <time>2024-08-15T09:56:12Z</time>
      </trkpt>
      <trkpt lat="43.00255" lon="-0.06894">
        <ele>463.6</ele>
        <time>2024-08-15T09:56:13Z</time>
      </trkpt>
      <trkpt lat="43.00255" lon="-0.0689">
        <ele>464</ele>
        <time>2024-08-15T09:56:14Z</time>
      </trkpt>
      <trkpt lat="43.00256" lon="-0.06887">
        <ele>464.2</ele>
        <time>2024-08-15T09:56:15Z</time>
      </trkpt>
      <trkpt lat="43.00256" lon="-0.06883">
        <ele>464.4</ele>
        <time>2024-08-15T09:56:16Z</time>
      </trkpt>
      <trkpt lat="43.00257" lon="-0.06879">
        <ele>464.6</ele>
        <time>2024-08-15T09:56:17Z</time>
      </trkpt>
      <trkpt lat="43.00257" lon="-0.06876">
        <ele>464.8</ele>
        <time>2024-08-15T09:56:18Z</time>
      </trkpt>
      <trkpt lat="43.00258" lon="-0.06872">
        <ele>465</ele>
        <time>2024-08-15T09:56:19Z</time>
      </trkpt>
      <trkpt lat="43.00258" lon="-0.06869">
        <ele>465.2</ele>
        <time>2024-08-15T09:56:20Z</time>
      </trkpt>
      <trkpt lat="43.00259" lon="-0.06866">
        <ele>465.4</ele>
        <time>2024-08-15T09:56:21Z</time>
      </trkpt>
      <trkpt lat="43.0026" lon="-0.06863">
        <ele>465.6</ele>
        <time>2024-08-15T09:56:22Z</time>
      </trkpt>
      <trkpt lat="43.00261" lon="-0.0686">
        <ele>466</ele>
        <time>2024-08-15T09:56:23Z</time>
      </trkpt>
      <trkpt lat="43.00262" lon="-0.06857">
        <ele>466.4</ele>
        <time>2024-08-15T09:56:24Z</time>
      </trkpt>
      <trkpt lat="43.00264" lon="-0.06854">
        <ele>467</ele>
        <time>2024-08-15T09:56:25Z</time>
      </trkpt>
      <trkpt lat="43.00265" lon="-0.06852">
        <ele>467.6</ele>
        <time>2024-08-15T09:56:26Z</time>
      </trkpt>
      <trkpt lat="43.00267" lon="-0.06851">
        <ele>467.6</ele>
        <time>2024-08-15T09:56:27Z</time>
      </trkpt>
      <trkpt lat="43.00268" lon="-0.06853">
        <ele>467.6</ele>
        <time>2024-08-15T09:56:28Z</time>
      </trkpt>
      <trkpt lat="43.00268" lon="-0.06856">
        <ele>467.8</ele>
        <time>2024-08-15T09:56:29Z</time>
      </trkpt>
      <trkpt lat="43.00267" lon="-0.0686">
        <ele>467.8</ele>
        <time>2024-08-15T09:56:30Z</time>
      </trkpt>
      <trkpt lat="43.00267" lon="-0.06865">
        <ele>467.8</ele>
        <time>2024-08-15T09:56:31Z</time>
      </trkpt>
      <trkpt lat="43.00267" lon="-0.0687">
        <ele>467.8</ele>
        <time>2024-08-15T09:56:32Z</time>
      </trkpt>
      <trkpt lat="43.00268" lon="-0.06877">
        <ele>467.8</ele>
        <time>2024-08-15T09:56:33Z</time>
      </trkpt>
      <trkpt lat="43.00269" lon="-0.06883">
        <ele>467.6</ele>
        <time>2024-08-15T09:56:34Z</time>
      </trkpt>
      <trkpt lat="43.0027" lon="-0.0689">
        <ele>467.4</ele>
        <time>2024-08-15T09:56:35Z</time>
      </trkpt>
      <trkpt lat="43.00271" lon="-0.06896">
        <ele>467.2</ele>
        <time>2024-08-15T09:56:36Z</time>
      </trkpt>
      <trkpt lat="43.00269" lon="-0.06901">
        <ele>467</ele>
        <time>2024-08-15T09:56:37Z</time>
      </trkpt>
      <trkpt lat="43.00264" lon="-0.06905">
        <ele>466.8</ele>
        <time>2024-08-15T09:56:38Z</time>
      </trkpt>
      <trkpt lat="43.0026" lon="-0.06906">
        <ele>466.6</ele>
        <time>2024-08-15T09:56:39Z</time>
      </trkpt>
      <trkpt lat="43.00255" lon="-0.06908">
        <ele>466.4</ele>
        <time>2024-08-15T09:56:40Z</time>
      </trkpt>
      <trkpt lat="43.0025" lon="-0.06909">
        <ele>466</ele>
        <time>2024-08-15T09:56:41Z</time>
      </trkpt>
      <trkpt lat="43.00245" lon="-0.06911">
        <ele>465.6</ele>
        <time>2024-08-15T09:56:42Z</time>
      </trkpt>
      <trkpt lat="43.0024" lon="-0.06912">
        <ele>465.4</ele>
        <time>2024-08-15T09:56:43Z</time>
      </trkpt>
      <trkpt lat="43.00226" lon="-0.06917">
        <ele>465</ele>
        <time>2024-08-15T09:56:45Z</time>
      </trkpt>
      <trkpt lat="43.0022" lon="-0.06919">
        <ele>464.6</ele>
        <time>2024-08-15T09:56:46Z</time>
      </trkpt>
      <trkpt lat="43.00192" lon="-0.06931">
        <ele>463.4</ele>
        <time>2024-08-15T09:56:50Z</time>
      </trkpt>
      <trkpt lat="43.00184" lon="-0.06934">
        <ele>463</ele>
        <time>2024-08-15T09:56:51Z</time>
      </trkpt>
      <trkpt lat="43.0016" lon="-0.06941">
        <ele>462</ele>
        <time>2024-08-15T09:56:54Z</time>
      </trkpt>
      <trkpt lat="43.00143" lon="-0.06947">
        <ele>461.2</ele>
        <time>2024-08-15T09:56:56Z</time>
      </trkpt>
      <trkpt lat="43.00135" lon="-0.06952">
        <ele>460.8</ele>
        <time>2024-08-15T09:56:57Z</time>
      </trkpt>
      <trkpt lat="43.00129" lon="-0.06956">
        <ele>460.4</ele>
        <time>2024-08-15T09:56:58Z</time>
      </trkpt>
      <trkpt lat="43.00124" lon="-0.06963">
        <ele>459.8</ele>
        <time>2024-08-15T09:56:59Z</time>
      </trkpt>
      <trkpt lat="43.00121" lon="-0.06971">
        <ele>459.4</ele>
        <time>2024-08-15T09:57:00Z</time>
      </trkpt>
      <trkpt lat="43.00122" lon="-0.0698">
        <ele>459</ele>
        <time>2024-08-15T09:57:01Z</time>
      </trkpt>
      <trkpt lat="43.00124" lon="-0.0699">
        <ele>458.2</ele>
        <time>2024-08-15T09:57:02Z</time>
      </trkpt>
      <trkpt lat="43.00131" lon="-0.07009">
        <ele>457</ele>
        <time>2024-08-15T09:57:04Z</time>
      </trkpt>
      <trkpt lat="43.00135" lon="-0.07019">
        <ele>456.6</ele>
        <time>2024-08-15T09:57:05Z</time>
      </trkpt>
      <trkpt lat="43.0014" lon="-0.07028">
        <ele>456.2</ele>
        <time>2024-08-15T09:57:06Z</time>
      </trkpt>
      <trkpt lat="43.00145" lon="-0.07038">
        <ele>455.6</ele>
        <time>2024-08-15T09:57:07Z</time>
      </trkpt>
      <trkpt lat="43.00157" lon="-0.07059">
        <ele>454.8</ele>
        <time>2024-08-15T09:57:09Z</time>
      </trkpt>
      <trkpt lat="43.00162" lon="-0.07067">
        <ele>454.4</ele>
        <time>2024-08-15T09:57:10Z</time>
      </trkpt>
      <trkpt lat="43.00182" lon="-0.07105">
        <ele>452.8</ele>
        <time>2024-08-15T09:57:13Z</time>
      </trkpt>
      <trkpt lat="43.00189" lon="-0.07117">
        <ele>452.4</ele>
        <time>2024-08-15T09:57:14Z</time>
      </trkpt>
      <trkpt lat="43.00195" lon="-0.07129">
        <ele>451.6</ele>
        <time>2024-08-15T09:57:15Z</time>
      </trkpt>
      <trkpt lat="43.00207" lon="-0.07154">
        <ele>450.4</ele>
        <time>2024-08-15T09:57:17Z</time>
      </trkpt>
      <trkpt lat="43.00212" lon="-0.07167">
        <ele>449.2</ele>
        <time>2024-08-15T09:57:18Z</time>
      </trkpt>
      <trkpt lat="43.00217" lon="-0.0718">
        <ele>448.4</ele>
        <time>2024-08-15T09:57:19Z</time>
      </trkpt>
      <trkpt lat="43.00221" lon="-0.07192">
        <ele>447.4</ele>
        <time>2024-08-15T09:57:20Z</time>
      </trkpt>
      <trkpt lat="43.00231" lon="-0.07218">
        <ele>445.8</ele>
        <time>2024-08-15T09:57:22Z</time>
      </trkpt>
      <trkpt lat="43.00236" lon="-0.07232">
        <ele>445.6</ele>
        <time>2024-08-15T09:57:23Z</time>
      </trkpt>
      <trkpt lat="43.00239" lon="-0.07245">
        <ele>444.6</ele>
        <time>2024-08-15T09:57:24Z</time>
      </trkpt>
      <trkpt lat="43.00243" lon="-0.07257">
        <ele>443.8</ele>
        <time>2024-08-15T09:57:25Z</time>
      </trkpt>
      <trkpt lat="43.00247" lon="-0.0727">
        <ele>443.4</ele>
        <time>2024-08-15T09:57:26Z</time>
      </trkpt>
      <trkpt lat="43.00251" lon="-0.07282">
        <ele>442.6</ele>
        <time>2024-08-15T09:57:27Z</time>
      </trkpt>
      <trkpt lat="43.00256" lon="-0.07294">
        <ele>442.4</ele>
        <time>2024-08-15T09:57:28Z</time>
      </trkpt>
      <trkpt lat="43.00264" lon="-0.07318">
        <ele>441.6</ele>
        <time>2024-08-15T09:57:30Z</time>
      </trkpt>
      <trkpt lat="43.00268" lon="-0.07329">
        <ele>441.4</ele>
        <time>2024-08-15T09:57:31Z</time>
      </trkpt>
      <trkpt lat="43.00271" lon="-0.07341">
        <ele>440.8</ele>
        <time>2024-08-15T09:57:32Z</time>
      </trkpt>
      <trkpt lat="43.00275" lon="-0.07352">
        <ele>440.6</ele>
        <time>2024-08-15T09:57:33Z</time>
      </trkpt>
      <trkpt lat="43.00279" lon="-0.07363">
        <ele>440.2</ele>
        <time>2024-08-15T09:57:34Z</time>
      </trkpt>
      <trkpt lat="43.00282" lon="-0.07374">
        <ele>440.2</ele>
        <time>2024-08-15T09:57:35Z</time>
      </trkpt>
      <trkpt lat="43.00285" lon="-0.07385">
        <ele>440</ele>
        <time>2024-08-15T09:57:36Z</time>
      </trkpt>
      <trkpt lat="43.00288" lon="-0.07396">
        <ele>440</ele>
        <time>2024-08-15T09:57:37Z</time>
      </trkpt>
      <trkpt lat="43.00291" lon="-0.07407">
        <ele>439.8</ele>
        <time>2024-08-15T09:57:38Z</time>
      </trkpt>
      <trkpt lat="43.00294" lon="-0.07417">
        <ele>439.8</ele>
        <time>2024-08-15T09:57:39Z</time>
      </trkpt>
      <trkpt lat="43.00296" lon="-0.07428">
        <ele>439.8</ele>
        <time>2024-08-15T09:57:40Z</time>
      </trkpt>
      <trkpt lat="43.00298" lon="-0.07438">
        <ele>439.8</ele>
        <time>2024-08-15T09:57:41Z</time>
      </trkpt>
      <trkpt lat="43.003" lon="-0.07447">
        <ele>439.8</ele>
        <time>2024-08-15T09:57:42Z</time>
      </trkpt>
      <trkpt lat="43.00301" lon="-0.07456">
        <ele>439.8</ele>
        <time>2024-08-15T09:57:43Z</time>
      </trkpt>
      <trkpt lat="43.00302" lon="-0.07465">
        <ele>440</ele>
        <time>2024-08-15T09:57:44Z</time>
      </trkpt>
      <trkpt lat="43.00301" lon="-0.07493">
        <ele>440.6</ele>
        <time>2024-08-15T09:57:47Z</time>
      </trkpt>
      <trkpt lat="43.003" lon="-0.07513">
        <ele>441</ele>
        <time>2024-08-15T09:57:49Z</time>
      </trkpt>
      <trkpt lat="43.003" lon="-0.07523">
        <ele>441</ele>
        <time>2024-08-15T09:57:50Z</time>
      </trkpt>
      <trkpt lat="43.003" lon="-0.07532">
        <ele>441</ele>
        <time>2024-08-15T09:57:51Z</time>
      </trkpt>
      <trkpt lat="43.00302" lon="-0.07558">
        <ele>441</ele>
        <time>2024-08-15T09:57:54Z</time>
      </trkpt>
      <trkpt lat="43.00305" lon="-0.07587">
        <ele>441</ele>
        <time>2024-08-15T09:57:57Z</time>
      </trkpt>
      <trkpt lat="43.00307" lon="-0.07605">
        <ele>441</ele>
        <time>2024-08-15T09:57:59Z</time>
      </trkpt>
      <trkpt lat="43.0031" lon="-0.07624">
        <ele>440.8</ele>
        <time>2024-08-15T09:58:01Z</time>
      </trkpt>
      <trkpt lat="43.00313" lon="-0.07632">
        <ele>440.6</ele>
        <time>2024-08-15T09:58:02Z</time>
      </trkpt>
      <trkpt lat="43.00318" lon="-0.0765">
        <ele>440.6</ele>
        <time>2024-08-15T09:58:04Z</time>
      </trkpt>
      <trkpt lat="43.00334" lon="-0.07703">
        <ele>439.8</ele>
        <time>2024-08-15T09:58:10Z</time>
      </trkpt>
      <trkpt lat="43.00341" lon="-0.07728">
        <ele>439.2</ele>
        <time>2024-08-15T09:58:13Z</time>
      </trkpt>
      <trkpt lat="43.00343" lon="-0.07737">
        <ele>439</ele>
        <time>2024-08-15T09:58:14Z</time>
      </trkpt>
      <trkpt lat="43.00347" lon="-0.07747">
        <ele>438.6</ele>
        <time>2024-08-15T09:58:15Z</time>
      </trkpt>
      <trkpt lat="43.00355" lon="-0.07787">
        <ele>437</ele>
        <time>2024-08-15T09:58:19Z</time>
      </trkpt>
      <trkpt lat="43.00357" lon="-0.078">
        <ele>436.6</ele>
        <time>2024-08-15T09:58:20Z</time>
      </trkpt>
      <trkpt lat="43.00361" lon="-0.07821">
        <ele>436.2</ele>
        <time>2024-08-15T09:58:22Z</time>
      </trkpt>
      <trkpt lat="43.00368" lon="-0.07841">
        <ele>435.8</ele>
        <time>2024-08-15T09:58:24Z</time>
      </trkpt>
      <trkpt lat="43.00372" lon="-0.0785">
        <ele>435.6</ele>
        <time>2024-08-15T09:58:25Z</time>
      </trkpt>
      <trkpt lat="43.00389" lon="-0.07888">
        <ele>434.6</ele>
        <time>2024-08-15T09:58:29Z</time>
      </trkpt>
      <trkpt lat="43.00399" lon="-0.07905">
        <ele>434</ele>
        <time>2024-08-15T09:58:31Z</time>
      </trkpt>
      <trkpt lat="43.00404" lon="-0.07912">
        <ele>433.8</ele>
        <time>2024-08-15T09:58:32Z</time>
      </trkpt>
      <trkpt lat="43.00411" lon="-0.07919">
        <ele>433.2</ele>
        <time>2024-08-15T09:58:33Z</time>
      </trkpt>
      <trkpt lat="43.00417" lon="-0.07925">
        <ele>433</ele>
        <time>2024-08-15T09:58:34Z</time>
      </trkpt>
      <trkpt lat="43.00425" lon="-0.0793">
        <ele>432.6</ele>
        <time>2024-08-15T09:58:35Z</time>
      </trkpt>
      <trkpt lat="43.00432" lon="-0.07935">
        <ele>432.4</ele>
        <time>2024-08-15T09:58:36Z</time>
      </trkpt>
      <trkpt lat="43.00439" lon="-0.07939">
        <ele>432</ele>
        <time>2024-08-15T09:58:37Z</time>
      </trkpt>
      <trkpt lat="43.00445" lon="-0.07943">
        <ele>432</ele>
        <time>2024-08-15T09:58:38Z</time>
      </trkpt>
      <trkpt lat="43.00449" lon="-0.07947">
        <ele>431.6</ele>
        <time>2024-08-15T09:58:39Z</time>
      </trkpt>
      <trkpt lat="43.00472" lon="-0.07978">
        <ele>424</ele>
        <time>2024-08-15T09:58:40Z</time>
      </trkpt>
      <trkpt lat="43.00488" lon="-0.08006">
        <ele>426</ele>
        <time>2024-08-15T09:58:41Z</time>
      </trkpt>
      <trkpt lat="43.0049" lon="-0.0801">
        <ele>425.8</ele>
        <time>2024-08-15T09:58:42Z</time>
      </trkpt>
      <trkpt lat="43.00499" lon="-0.08024">
        <ele>425.3</ele>
      </trkpt>
      <trkpt lat="43.00526" lon="-0.08071">
        <ele>425.8</ele>
        <time>2024-08-15T09:58:44Z</time>
      </trkpt>
      <trkpt lat="43.00537" lon="-0.08087">
        <ele>426</ele>
        <time>2024-08-15T09:58:46Z</time>
      </trkpt>
      <trkpt lat="43.00545" lon="-0.08158">
        <ele>416.8</ele>
        <time>2024-08-15T09:58:47Z</time>
      </trkpt>
      <trkpt lat="43.00547" lon="-0.08199">
        <ele>420.4</ele>
        <time>2024-08-15T09:58:48Z</time>
      </trkpt>
      <trkpt lat="43.00543" lon="-0.08249">
        <ele>422.4</ele>
        <time>2024-08-15T09:58:49Z</time>
      </trkpt>
      <trkpt lat="43.00549" lon="-0.08272">
        <ele>422.2</ele>
        <time>2024-08-15T09:58:50Z</time>
      </trkpt>
      <trkpt lat="43.00542" lon="-0.08294">
        <ele>421.6</ele>
        <time>2024-08-15T09:58:51Z</time>
      </trkpt>
      <trkpt lat="43.00519" lon="-0.083">
        <ele>421.3</ele>
        <time>2024-08-15T09:58:52Z</time>
      </trkpt>
      <trkpt lat="43.00508" lon="-0.08315">
        <ele>420.9</ele>
        <time>2024-08-15T09:58:53Z</time>
      </trkpt>
      <trkpt lat="43.00502" lon="-0.08341">
        <ele>420.7</ele>
        <time>2024-08-15T09:58:54Z</time>
      </trkpt>
      <trkpt lat="43.00515" lon="-0.08399">
        <ele>420.4</ele>
      </trkpt>
      <trkpt lat="43.0055" lon="-0.08593">
        <ele>422.4</ele>
      </trkpt>
      <trkpt lat="43.00562" lon="-0.08791">
        <ele>425.8</ele>
      </trkpt>
      <trkpt lat="43.00624" lon="-0.09034">
        <ele>427.5</ele>
      </trkpt>
      <trkpt lat="43.0063" lon="-0.09083">
        <ele>428</ele>
      </trkpt>
      <trkpt lat="43.00662" lon="-0.09196">
        <ele>428.2</ele>
      </trkpt>
      <trkpt lat="43.00685" lon="-0.09267">
        <ele>428.7</ele>
      </trkpt>
      <trkpt lat="43.00654" lon="-0.09284">
        <ele>429.2</ele>
      </trkpt>
      <trkpt lat="43.00635" lon="-0.09333">
        <ele>430.1</ele>
      </trkpt>
      <trkpt lat="43.00956" lon="-0.09714">
        <ele>428.6</ele>
      </trkpt>
      <trkpt lat="43.01014" lon="-0.09761">
        <ele>427.2</ele>
      </trkpt>
      <trkpt lat="43.01085" lon="-0.09779">
        <ele>425.2</ele>
      </trkpt>
      <trkpt lat="43.01152" lon="-0.0979">
        <ele>424.8</ele>
      </trkpt>
      <trkpt lat="43.01245" lon="-0.09786">
        <ele>423.3</ele>
      </trkpt>
      <trkpt lat="43.01258" lon="-0.09801">
        <ele>423.8</ele>
      </trkpt>
      <trkpt lat="43.0133" lon="-0.09804">
        <ele>422.9</ele>
      </trkpt>
      <trkpt lat="43.01346" lon="-0.09799">
        <ele>422.8</ele>
      </trkpt>
      <trkpt lat="43.01353" lon="-0.09816">
        <ele>423.4</ele>
      </trkpt>
      <trkpt lat="43.01346" lon="-0.09833">
        <ele>424</ele>
      </trkpt>
      <trkpt lat="43.01327" lon="-0.09837">
        <ele>424.9</ele>
      </trkpt>
      <trkpt lat="43.01315" lon="-0.0985">
        <ele>427.2</ele>
      </trkpt>
      <trkpt lat="43.01281" lon="-0.09837">
        <ele>426.9</ele>
      </trkpt>
      <trkpt lat="43.01274" lon="-0.09822">
        <ele>425.3</ele>
        <time>2024-08-15T09:58:55Z</time>
        <extensions>
          <visugpx:TrkExtension xmlns:visugpx="https://www.visugpx.com/editgpx/">
            <visugpx:node>1</visugpx:node>
            </visugpx:TrkExtension>
        </extensions>
      </trkpt>
    </trkseg>
  </trk>
</gpx>